<?xml version='1.0' encoding='UTF-8'?><gpx version="1.1" creator="JPX - https://github.com/jenetics/jpx" xmlns="http://www.topografix.com/GPX/1/1"><trk><trkseg><trkpt lat="44.35478546030526" lon="9.212159998450481"><ele>12.0</ele><time>2026-04-06T05:36:48.998Z</time></trkpt><trkpt lat="44.35483074613493" lon="9.21208857354884"><ele>12.0</ele><time>2026-04-06T05:36:49.998Z</time></trkpt><trkpt lat="44.354887773351365" lon="9.211999953470707"><ele>12.0</ele><time>2026-04-06T05:36:50.998Z</time></trkpt><trkpt lat="44.35494544249223" lon="9.211912165264636"><ele>12.0</ele><time>2026-04-06T05:36:51.998Z</time></trkpt><trkpt lat="44.35498953980208" lon="9.21182498750278"><ele>12.0</ele><time>2026-04-06T05:36:52.998Z</time></trkpt><trkpt lat="44.355042331153285" lon="9.211734874433072"><ele>12.0</ele><time>2026-04-06T05:36:53.998Z</time></trkpt><trkpt lat="44.35508478710839" lon="9.211630813207972"><ele>12.0</ele><time>2026-04-06T05:36:54.998Z</time></trkpt><trkpt lat="44.35513133916999" lon="9.211534275956847"><ele>12.0</ele><time>2026-04-06T05:36:55.998Z</time></trkpt><trkpt lat="44.35518301006597" lon="9.211438966097548"><ele>12.0</ele><time>2026-04-06T05:36:56.998Z</time></trkpt><trkpt lat="44.35523067229518" lon="9.211346044739729"><ele>12.0</ele><time>2026-04-06T05:36:57.998Z</time></trkpt><trkpt lat="44.35528154405309" lon="9.211245794287231"><ele>12.0</ele><time>2026-04-06T05:36:58.998Z</time></trkpt><trkpt lat="44.3553318365391" lon="9.211147715634118"><ele>12.0</ele><time>2026-04-06T05:36:59.998Z</time></trkpt><trkpt lat="44.35538352393895" lon="9.211046080522381"><ele>11.999999999999998</ele><time>2026-04-06T05:37:00.998Z</time></trkpt><trkpt lat="44.35543480469867" lon="9.210960770602254"><ele>12.0</ele><time>2026-04-06T05:37:01.998Z</time></trkpt><trkpt lat="44.35548044455196" lon="9.21088809727506"><ele>12.0</ele><time>2026-04-06T05:37:02.998Z</time></trkpt><trkpt lat="44.355523550932155" lon="9.21080126809216"><ele>12.0</ele><time>2026-04-06T05:37:03.998Z</time></trkpt><trkpt lat="44.35556893840342" lon="9.210722471986816"><ele>12.0</ele><time>2026-04-06T05:37:04.998Z</time></trkpt><trkpt lat="44.35561303300273" lon="9.210651778570517"><ele>11.999999999999998</ele><time>2026-04-06T05:37:05.998Z</time></trkpt><trkpt lat="44.35566139711814" lon="9.21057131750848"><ele>12.0</ele><time>2026-04-06T05:37:06.998Z</time></trkpt><trkpt lat="44.355706510698404" lon="9.210488333306563"><ele>11.857142857142856</ele><time>2026-04-06T05:37:07.998Z</time></trkpt><trkpt lat="44.35574996946643" lon="9.210404630853386"><ele>11.714285714285714</ele><time>2026-04-06T05:37:08.998Z</time></trkpt><trkpt lat="44.3557830727456" lon="9.210317842621913"><ele>11.571428571428571</ele><time>2026-04-06T05:37:09.998Z</time></trkpt><trkpt lat="44.355817134605516" lon="9.210225738416343"><ele>11.428571428571427</ele><time>2026-04-06T05:37:10.998Z</time></trkpt><trkpt lat="44.35583124852773" lon="9.210132515762453"><ele>11.285714285714285</ele><time>2026-04-06T05:37:11.998Z</time></trkpt><trkpt lat="44.35581616487423" lon="9.210042944888576"><ele>11.142857142857142</ele><time>2026-04-06T05:37:12.999Z</time></trkpt><trkpt lat="44.35577435766073" lon="9.209957523166494"><ele>11.0</ele><time>2026-04-06T05:37:13.999Z</time></trkpt><trkpt lat="44.35573140793314" lon="9.209879480984409"><ele>10.857142857142858</ele><time>2026-04-06T05:37:14.999Z</time></trkpt><trkpt lat="44.355713490530434" lon="9.20978543027529"><ele>10.714285714285714</ele><time>2026-04-06T05:37:15.999Z</time></trkpt><trkpt lat="44.355721993192915" lon="9.20968236118257"><ele>10.571428571428571</ele><time>2026-04-06T05:37:16.999Z</time></trkpt><trkpt lat="44.35573158523095" lon="9.20958050567372"><ele>10.428571428571429</ele><time>2026-04-06T05:37:17.999Z</time></trkpt><trkpt lat="44.3557921546421" lon="9.209487301813953"><ele>10.285714285714286</ele><time>2026-04-06T05:37:18.999Z</time></trkpt><trkpt lat="44.35583099470925" lon="9.209405676762483"><ele>10.142857142857142</ele><time>2026-04-06T05:37:19.999Z</time></trkpt><trkpt lat="44.355853363159085" lon="9.209320919239051"><ele>10.0</ele><time>2026-04-06T05:37:20.999Z</time></trkpt><trkpt lat="44.35590286018476" lon="9.209190221065885"><ele>10.0</ele><time>2026-04-06T05:37:22.999Z</time></trkpt><trkpt lat="44.355933889349245" lon="9.209090075525127"><ele>10.0</ele><time>2026-04-06T05:37:25.999Z</time></trkpt><trkpt lat="44.35599100747298" lon="9.208942760014299"><ele>10.0</ele><time>2026-04-06T05:38:07.999Z</time></trkpt><trkpt lat="44.35601931879595" lon="9.208848139641024"><ele>10.0</ele><time>2026-04-06T05:38:08.999Z</time></trkpt><trkpt lat="44.35604994295101" lon="9.208733896724153"><ele>10.0</ele><time>2026-04-06T05:38:09.999Z</time></trkpt><trkpt lat="44.35608337370526" lon="9.208622943079774"><ele>10.0</ele><time>2026-04-06T05:38:10.999Z</time></trkpt><trkpt lat="44.35612823216095" lon="9.20852029401354"><ele>10.0</ele><time>2026-04-06T05:38:11.999Z</time></trkpt><trkpt lat="44.35616685806048" lon="9.208401124576442"><ele>10.0</ele><time>2026-04-06T05:38:12.999Z</time></trkpt><trkpt lat="44.356205404235546" lon="9.208261881407411"><ele>10.0</ele><time>2026-04-06T05:38:13.999Z</time></trkpt><trkpt lat="44.35625300970502" lon="9.208127417310596"><ele>10.0</ele><time>2026-04-06T05:38:14.999Z</time></trkpt><trkpt lat="44.35629520109345" lon="9.207988752272536"><ele>10.0</ele><time>2026-04-06T05:38:15.999Z</time></trkpt><trkpt lat="44.35633521551999" lon="9.207861538924993"><ele>10.25</ele><time>2026-04-06T05:38:16.999Z</time></trkpt><trkpt lat="44.35638104659187" lon="9.207730613053895"><ele>10.5</ele><time>2026-04-06T05:38:17.999Z</time></trkpt><trkpt lat="44.35642846532295" lon="9.207588328049901"><ele>10.75</ele><time>2026-04-06T05:38:18.999Z</time></trkpt><trkpt lat="44.35647690809197" lon="9.207437371895107"><ele>11.0</ele><time>2026-04-06T05:38:19.999Z</time></trkpt><trkpt lat="44.35652317469745" lon="9.207278306457493"><ele>11.25</ele><time>2026-04-06T05:38:20.999Z</time></trkpt><trkpt lat="44.356574057296676" lon="9.20711732384895"><ele>11.5</ele><time>2026-04-06T05:38:21.999Z</time></trkpt><trkpt lat="44.356621800604124" lon="9.2069534203145"><ele>11.75</ele><time>2026-04-06T05:38:22.999Z</time></trkpt><trkpt lat="44.356663499147764" lon="9.20678942568674"><ele>12.0</ele><time>2026-04-06T05:38:23.999Z</time></trkpt><trkpt lat="44.35669879609796" lon="9.206625714493605"><ele>12.0</ele><time>2026-04-06T05:38:24.999Z</time></trkpt><trkpt lat="44.35672611292101" lon="9.206463985282078"><ele>12.0</ele><time>2026-04-06T05:38:25.999Z</time></trkpt><trkpt lat="44.35673500648788" lon="9.206289058281547"><ele>12.0</ele><time>2026-04-06T05:38:26.999Z</time></trkpt><trkpt lat="44.35674209428043" lon="9.206116050194812"><ele>12.0</ele><time>2026-04-06T05:38:27.999Z</time></trkpt><trkpt lat="44.356731164065344" lon="9.205936431373653"><ele>12.0</ele><time>2026-04-06T05:38:28.999Z</time></trkpt><trkpt lat="44.35673263194172" lon="9.205762268281413"><ele>12.0</ele><time>2026-04-06T05:38:29.999Z</time></trkpt><trkpt lat="44.35673004846117" lon="9.205582770432283"><ele>12.0</ele><time>2026-04-06T05:38:30.999Z</time></trkpt><trkpt lat="44.35672669296269" lon="9.205404401353233"><ele>12.0</ele><time>2026-04-06T05:38:31.999Z</time></trkpt><trkpt lat="44.356711047938155" lon="9.205226979456613"><ele>12.25</ele><time>2026-04-06T05:38:32.999Z</time></trkpt><trkpt lat="44.35668522904127" lon="9.205051439887859"><ele>12.5</ele><time>2026-04-06T05:38:33.999Z</time></trkpt><trkpt lat="44.356659015827915" lon="9.204889666499092"><ele>12.75</ele><time>2026-04-06T05:38:34.999Z</time></trkpt><trkpt lat="44.35663711165541" lon="9.20473086797764"><ele>13.0</ele><time>2026-04-06T05:38:35.998Z</time></trkpt><trkpt lat="44.356622616188154" lon="9.204577121394152"><ele>13.25</ele><time>2026-04-06T05:38:36.998Z</time></trkpt><trkpt lat="44.356592182426475" lon="9.204433224055379"><ele>13.5</ele><time>2026-04-06T05:38:37.998Z</time></trkpt><trkpt lat="44.35652968492353" lon="9.204282701116998"><ele>13.75</ele><time>2026-04-06T05:38:38.998Z</time></trkpt><trkpt lat="44.35651530058583" lon="9.204126047237281"><ele>14.0</ele><time>2026-04-06T05:38:39.998Z</time></trkpt><trkpt lat="44.3565229587303" lon="9.203946182786519"><ele>15.0</ele><time>2026-04-06T05:38:40.998Z</time></trkpt><trkpt lat="44.35654823337065" lon="9.203775755622678"><ele>16.0</ele><time>2026-04-06T05:38:41.998Z</time></trkpt><trkpt lat="44.356572172727" lon="9.2035945796528"><ele>17.0</ele><time>2026-04-06T05:38:42.998Z</time></trkpt><trkpt lat="44.35660092419581" lon="9.203417480934736"><ele>18.0</ele><time>2026-04-06T05:38:43.998Z</time></trkpt><trkpt lat="44.35665493808078" lon="9.203255081597979"><ele>19.75</ele><time>2026-04-06T05:38:44.998Z</time></trkpt><trkpt lat="44.356726937146476" lon="9.203100108422595"><ele>21.5</ele><time>2026-04-06T05:38:45.998Z</time></trkpt><trkpt lat="44.356807832724314" lon="9.202944805562444"><ele>23.25</ele><time>2026-04-06T05:38:46.998Z</time></trkpt><trkpt lat="44.35688340227098" lon="9.202786909808893"><ele>25.0</ele><time>2026-04-06T05:38:47.998Z</time></trkpt><trkpt lat="44.356953623337965" lon="9.20262680036773"><ele>25.0</ele><time>2026-04-06T05:38:48.998Z</time></trkpt><trkpt lat="44.35703030802779" lon="9.202462058829854"><ele>25.0</ele><time>2026-04-06T05:38:49.998Z</time></trkpt><trkpt lat="44.357108705384384" lon="9.20229143093986"><ele>25.0</ele><time>2026-04-06T05:38:50.998Z</time></trkpt><trkpt lat="44.35718447064264" lon="9.202107453230363"><ele>25.0</ele><time>2026-04-06T05:38:51.998Z</time></trkpt><trkpt lat="44.35724883455156" lon="9.201912558045802"><ele>23.25</ele><time>2026-04-06T05:38:52.998Z</time></trkpt><trkpt lat="44.35729670970576" lon="9.201727729883304"><ele>21.5</ele><time>2026-04-06T05:38:53.998Z</time></trkpt><trkpt lat="44.35735303031067" lon="9.20153967414344"><ele>19.75</ele><time>2026-04-06T05:38:54.998Z</time></trkpt><trkpt lat="44.35740974215132" lon="9.201360275171675"><ele>18.0</ele><time>2026-04-06T05:38:55.998Z</time></trkpt><trkpt lat="44.357464698573594" lon="9.201199912768388"><ele>18.0</ele><time>2026-04-06T05:38:56.998Z</time></trkpt><trkpt lat="44.35753404635818" lon="9.20104894334665"><ele>18.0</ele><time>2026-04-06T05:38:57.998Z</time></trkpt><trkpt lat="44.35757418636576" lon="9.200868414857759"><ele>18.0</ele><time>2026-04-06T05:38:58.998Z</time></trkpt><trkpt lat="44.3575999068318" lon="9.200681520322723"><ele>18.0</ele><time>2026-04-06T05:38:59.998Z</time></trkpt><trkpt lat="44.35760744319431" lon="9.200493361416486"><ele>18.0</ele><time>2026-04-06T05:39:00.998Z</time></trkpt><trkpt lat="44.35761168088932" lon="9.20029915953602"><ele>18.0</ele><time>2026-04-06T05:39:01.998Z</time></trkpt><trkpt lat="44.357622744763745" lon="9.200109679138263"><ele>18.0</ele><time>2026-04-06T05:39:02.998Z</time></trkpt><trkpt lat="44.35763451558948" lon="9.199916678235773"><ele>18.0</ele><time>2026-04-06T05:39:03.998Z</time></trkpt><trkpt lat="44.357647759787014" lon="9.19971792404529"><ele>18.0</ele><time>2026-04-06T05:39:04.998Z</time></trkpt><trkpt lat="44.35766149163398" lon="9.1995232618104"><ele>18.0</ele><time>2026-04-06T05:39:05.998Z</time></trkpt><trkpt lat="44.35767768524841" lon="9.199311841893335"><ele>18.0</ele><time>2026-04-06T05:39:06.998Z</time></trkpt><trkpt lat="44.3576943013046" lon="9.199090895353011"><ele>18.25</ele><time>2026-04-06T05:39:07.998Z</time></trkpt><trkpt lat="44.357708180628414" lon="9.198887684549224"><ele>18.5</ele><time>2026-04-06T05:39:08.998Z</time></trkpt><trkpt lat="44.35772702201876" lon="9.198693300110705"><ele>18.75</ele><time>2026-04-06T05:39:09.998Z</time></trkpt><trkpt lat="44.35773969613105" lon="9.198497756017623"><ele>19.0</ele><time>2026-04-06T05:39:10.998Z</time></trkpt><trkpt lat="44.357764033278336" lon="9.198313783358872"><ele>19.0</ele><time>2026-04-06T05:39:11.998Z</time></trkpt><trkpt lat="44.357794223407296" lon="9.198126176717754"><ele>19.0</ele><time>2026-04-06T05:39:12.998Z</time></trkpt><trkpt lat="44.35782179136119" lon="9.19794034384321"><ele>19.0</ele><time>2026-04-06T05:39:13.998Z</time></trkpt><trkpt lat="44.35784550017528" lon="9.197758736628263"><ele>19.0</ele><time>2026-04-06T05:39:14.998Z</time></trkpt><trkpt lat="44.357860433337336" lon="9.19757507840834"><ele>19.0</ele><time>2026-04-06T05:39:15.998Z</time></trkpt><trkpt lat="44.357848187657936" lon="9.197380057505692"><ele>19.0</ele><time>2026-04-06T05:39:16.998Z</time></trkpt><trkpt lat="44.35782356868344" lon="9.197184743435761"><ele>19.0</ele><time>2026-04-06T05:39:17.998Z</time></trkpt><trkpt lat="44.357792149196214" lon="9.196994400233468"><ele>19.0</ele><time>2026-04-06T05:39:18.999Z</time></trkpt><trkpt lat="44.357754388551925" lon="9.196802835082556"><ele>19.5</ele><time>2026-04-06T05:39:19.999Z</time></trkpt><trkpt lat="44.35772455339463" lon="9.196614122813466"><ele>20.0</ele><time>2026-04-06T05:39:20.999Z</time></trkpt><trkpt lat="44.357710327287116" lon="9.196419986230985"><ele>20.5</ele><time>2026-04-06T05:39:21.999Z</time></trkpt><trkpt lat="44.35770161724826" lon="9.196219732115717"><ele>21.0</ele><time>2026-04-06T05:39:22.999Z</time></trkpt><trkpt lat="44.357694457210464" lon="9.196030166823936"><ele>21.75</ele><time>2026-04-06T05:39:23.999Z</time></trkpt><trkpt lat="44.35769455687488" lon="9.195836495392234"><ele>22.5</ele><time>2026-04-06T05:39:24.999Z</time></trkpt><trkpt lat="44.35769952301222" lon="9.19565025904335"><ele>23.25</ele><time>2026-04-06T05:39:25.999Z</time></trkpt><trkpt lat="44.35770410454597" lon="9.195457936997293"><ele>24.0</ele><time>2026-04-06T05:39:26.999Z</time></trkpt><trkpt lat="44.35771555872068" lon="9.19527029765639"><ele>24.75</ele><time>2026-04-06T05:39:27.999Z</time></trkpt><trkpt lat="44.35771861085524" lon="9.195084224439146"><ele>25.5</ele><time>2026-04-06T05:39:28.999Z</time></trkpt><trkpt lat="44.357695955197315" lon="9.194892905003698"><ele>26.25</ele><time>2026-04-06T05:39:29.999Z</time></trkpt><trkpt lat="44.35764882918251" lon="9.194703165109466"><ele>27.0</ele><time>2026-04-06T05:39:30.999Z</time></trkpt><trkpt lat="44.357579575321395" lon="9.194517658377311"><ele>27.25</ele><time>2026-04-06T05:39:31.999Z</time></trkpt><trkpt lat="44.35751152969209" lon="9.19433647420678"><ele>27.5</ele><time>2026-04-06T05:39:32.999Z</time></trkpt><trkpt lat="44.357451076563656" lon="9.194144621485613"><ele>27.75</ele><time>2026-04-06T05:39:33.999Z</time></trkpt><trkpt lat="44.35741032779688" lon="9.193944734429275"><ele>28.0</ele><time>2026-04-06T05:39:34.999Z</time></trkpt><trkpt lat="44.35738934343741" lon="9.193738903842538"><ele>30.333333333333336</ele><time>2026-04-06T05:39:35.999Z</time></trkpt><trkpt lat="44.35738052509352" lon="9.193528545513901"><ele>32.666666666666664</ele><time>2026-04-06T05:39:36.999Z</time></trkpt><trkpt lat="44.357380552460874" lon="9.193321698441801"><ele>35.0</ele><time>2026-04-06T05:39:37.999Z</time></trkpt><trkpt lat="44.357390737085325" lon="9.193110967391181"><ele>37.33333333333333</ele><time>2026-04-06T05:39:38.999Z</time></trkpt><trkpt lat="44.35741595572866" lon="9.192899734024593"><ele>39.666666666666664</ele><time>2026-04-06T05:39:39.999Z</time></trkpt><trkpt lat="44.357445451433136" lon="9.192698201195768"><ele>42.0</ele><time>2026-04-06T05:39:40.999Z</time></trkpt><trkpt lat="44.35747360774947" lon="9.192488687719703"><ele>42.25</ele><time>2026-04-06T05:39:41.999Z</time></trkpt><trkpt lat="44.357492874671934" lon="9.19228420182315"><ele>42.5</ele><time>2026-04-06T05:39:42.999Z</time></trkpt><trkpt lat="44.35751155673205" lon="9.192076449159488"><ele>42.75</ele><time>2026-04-06T05:39:43.999Z</time></trkpt><trkpt lat="44.35753354532489" lon="9.19187711160255"><ele>43.0</ele><time>2026-04-06T05:39:44.999Z</time></trkpt><trkpt lat="44.35755498193975" lon="9.191678762979459"><ele>43.0</ele><time>2026-04-06T05:39:45.999Z</time></trkpt><trkpt lat="44.35757491889912" lon="9.191490878083131"><ele>43.0</ele><time>2026-04-06T05:39:46.999Z</time></trkpt><trkpt lat="44.35759657983545" lon="9.191321471536437"><ele>43.0</ele><time>2026-04-06T05:39:47.999Z</time></trkpt><trkpt lat="44.35764103559786" lon="9.19118269678322"><ele>43.0</ele><time>2026-04-06T05:39:48.999Z</time></trkpt><trkpt lat="44.357724884378854" lon="9.19107110745594"><ele>43.0</ele><time>2026-04-06T05:39:49.999Z</time></trkpt><trkpt lat="44.357842883141736" lon="9.191023253710094"><ele>43.0</ele><time>2026-04-06T05:39:50.999Z</time></trkpt><trkpt lat="44.357985607481346" lon="9.191038526408255"><ele>43.0</ele><time>2026-04-06T05:39:51.999Z</time></trkpt><trkpt lat="44.358116669395706" lon="9.191055012132153"><ele>43.0</ele><time>2026-04-06T05:39:52.999Z</time></trkpt><trkpt lat="44.358225957514655" lon="9.19102187017589"><ele>47.5</ele><time>2026-04-06T05:39:53.999Z</time></trkpt><trkpt lat="44.3583257658835" lon="9.190926652316726"><ele>52.0</ele><time>2026-04-06T05:39:54.999Z</time></trkpt><trkpt lat="44.35839122854576" lon="9.190779523788146"><ele>56.5</ele><time>2026-04-06T05:39:55.999Z</time></trkpt><trkpt lat="44.35840667449285" lon="9.190606476346101"><ele>61.0</ele><time>2026-04-06T05:39:56.999Z</time></trkpt><trkpt lat="44.35837300485066" lon="9.190429625343945"><ele>61.25</ele><time>2026-04-06T05:39:57.999Z</time></trkpt><trkpt lat="44.35831202357996" lon="9.19027668638213"><ele>61.5</ele><time>2026-04-06T05:39:58.999Z</time></trkpt><trkpt lat="44.35828872940547" lon="9.19012916965474"><ele>61.75</ele><time>2026-04-06T05:39:59.999Z</time></trkpt><trkpt lat="44.358331179907154" lon="9.189982876653545"><ele>62.0</ele><time>2026-04-06T05:40:00.999Z</time></trkpt><trkpt lat="44.35841287977804" lon="9.189858489251936"><ele>65.0</ele><time>2026-04-06T05:40:01.999Z</time></trkpt><trkpt lat="44.35845274209773" lon="9.189725411484401"><ele>68.0</ele><time>2026-04-06T05:40:02.999Z</time></trkpt><trkpt lat="44.3584432451873" lon="9.189571764710909"><ele>71.0</ele><time>2026-04-06T05:40:03.999Z</time></trkpt><trkpt lat="44.35836342894064" lon="9.189447736612667"><ele>74.0</ele><time>2026-04-06T05:40:04.999Z</time></trkpt><trkpt lat="44.358260564353124" lon="9.189367627165996"><ele>74.0</ele><time>2026-04-06T05:40:05.999Z</time></trkpt><trkpt lat="44.35814376850426" lon="9.189335395011998"><ele>74.0</ele><time>2026-04-06T05:40:06.999Z</time></trkpt><trkpt lat="44.35806133695012" lon="9.18927715034503"><ele>74.0</ele><time>2026-04-06T05:40:07.999Z</time></trkpt><trkpt lat="44.35803247777406" lon="9.189169434607452"><ele>74.0</ele><time>2026-04-06T05:40:08.999Z</time></trkpt><trkpt lat="44.35805464211064" lon="9.189027477500797"><ele>74.0</ele><time>2026-04-06T05:40:09.999Z</time></trkpt><trkpt lat="44.35810323244296" lon="9.18890134063962"><ele>73.25</ele><time>2026-04-06T05:40:10.999Z</time></trkpt><trkpt lat="44.358176202344296" lon="9.18876121068262"><ele>72.5</ele><time>2026-04-06T05:40:11.999Z</time></trkpt><trkpt lat="44.35822928819171" lon="9.188608991460875"><ele>71.75</ele><time>2026-04-06T05:40:12.999Z</time></trkpt><trkpt lat="44.35829338553333" lon="9.188460365174178"><ele>71.0</ele><time>2026-04-06T05:40:13.999Z</time></trkpt><trkpt lat="44.35839527585055" lon="9.188346643945273"><ele>71.0</ele><time>2026-04-06T05:40:14.999Z</time></trkpt><trkpt lat="44.3585295126125" lon="9.18824334055221"><ele>71.0</ele><time>2026-04-06T05:40:15.999Z</time></trkpt><trkpt lat="44.358656378467394" lon="9.188151058431975"><ele>71.0</ele><time>2026-04-06T05:40:16.999Z</time></trkpt><trkpt lat="44.358763429131734" lon="9.188068185491659"><ele>71.0</ele><time>2026-04-06T05:40:17.999Z</time></trkpt><trkpt lat="44.35885164552918" lon="9.188000688676697"><ele>69.8</ele><time>2026-04-06T05:40:18.999Z</time></trkpt><trkpt lat="44.35891038443496" lon="9.187898816833465"><ele>68.6</ele><time>2026-04-06T05:40:19.999Z</time></trkpt><trkpt lat="44.35892991274342" lon="9.187776337178013"><ele>67.4</ele><time>2026-04-06T05:40:20.999Z</time></trkpt><trkpt lat="44.35888942114401" lon="9.187615985221907"><ele>66.2</ele><time>2026-04-06T05:40:21.999Z</time></trkpt><trkpt lat="44.35879970162067" lon="9.187478789285262"><ele>65.0</ele><time>2026-04-06T05:40:22.999Z</time></trkpt><trkpt lat="44.3587086738622" lon="9.187371824522177"><ele>66.0</ele><time>2026-04-06T05:40:23.999Z</time></trkpt><trkpt lat="44.35866551022465" lon="9.187248485878753"><ele>67.0</ele><time>2026-04-06T05:40:24.999Z</time></trkpt><trkpt lat="44.358689114651774" lon="9.18710733706995"><ele>68.0</ele><time>2026-04-06T05:40:25.999Z</time></trkpt><trkpt lat="44.358748395603385" lon="9.186972008277209"><ele>69.0</ele><time>2026-04-06T05:40:26.999Z</time></trkpt><trkpt lat="44.358840725721905" lon="9.186841803974273"><ele>70.0</ele><time>2026-04-06T05:40:27.999Z</time></trkpt><trkpt lat="44.358924085909294" lon="9.186697485264258"><ele>76.6</ele><time>2026-04-06T05:40:28.999Z</time></trkpt><trkpt lat="44.358996619429874" lon="9.18656550769445"><ele>83.2</ele><time>2026-04-06T05:40:29.999Z</time></trkpt><trkpt lat="44.35904924181396" lon="9.186436519935288"><ele>89.80000000000001</ele><time>2026-04-06T05:40:30.999Z</time></trkpt><trkpt lat="44.35905416227444" lon="9.186300658825965"><ele>96.4</ele><time>2026-04-06T05:40:31.999Z</time></trkpt><trkpt lat="44.35899716230971" lon="9.18617523308413"><ele>103.0</ele><time>2026-04-06T05:40:32.999Z</time></trkpt><trkpt lat="44.358920847417004" lon="9.18608357561611"><ele>103.2</ele><time>2026-04-06T05:40:33.999Z</time></trkpt><trkpt lat="44.3588408738857" lon="9.18598234395363"><ele>103.4</ele><time>2026-04-06T05:40:34.999Z</time></trkpt><trkpt lat="44.35882975000102" lon="9.185858967163668"><ele>103.60000000000001</ele><time>2026-04-06T05:40:35.999Z</time></trkpt><trkpt lat="44.35887949504368" lon="9.185726140397273"><ele>103.80000000000001</ele><time>2026-04-06T05:40:36.999Z</time></trkpt><trkpt lat="44.35895664749453" lon="9.1856197229599"><ele>104.0</ele><time>2026-04-06T05:40:37.999Z</time></trkpt><trkpt lat="44.3590530516629" lon="9.185578151936"><ele>104.0</ele><time>2026-04-06T05:40:38.999Z</time></trkpt><trkpt lat="44.359149265967396" lon="9.185606551676932"><ele>104.0</ele><time>2026-04-06T05:40:39.999Z</time></trkpt><trkpt lat="44.35922829958909" lon="9.18569309183809"><ele>104.0</ele><time>2026-04-06T05:40:40.999Z</time></trkpt><trkpt lat="44.359273245332886" lon="9.185805008260045"><ele>104.0</ele><time>2026-04-06T05:40:41.999Z</time></trkpt><trkpt lat="44.359312496102035" lon="9.18597335732038"><ele>104.0</ele><time>2026-04-06T05:40:42.998Z</time></trkpt><trkpt lat="44.35936194036174" lon="9.186136120621363"><ele>104.0</ele><time>2026-04-06T05:40:43.998Z</time></trkpt><trkpt lat="44.359395799354736" lon="9.186302563406205"><ele>104.0</ele><time>2026-04-06T05:40:44.998Z</time></trkpt><trkpt lat="44.35938960203643" lon="9.186484136887028"><ele>104.0</ele><time>2026-04-06T05:40:45.998Z</time></trkpt><trkpt lat="44.35935347295182" lon="9.186655151849722"><ele>104.0</ele><time>2026-04-06T05:40:46.998Z</time></trkpt><trkpt lat="44.35931796191978" lon="9.186825597589362"><ele>103.75</ele><time>2026-04-06T05:40:47.998Z</time></trkpt><trkpt lat="44.359317318981084" lon="9.186990823974417"><ele>103.5</ele><time>2026-04-06T05:40:48.998Z</time></trkpt><trkpt lat="44.35936466243535" lon="9.18713118644699"><ele>103.25</ele><time>2026-04-06T05:40:49.998Z</time></trkpt><trkpt lat="44.35945474320889" lon="9.187256536296658"><ele>103.0</ele><time>2026-04-06T05:40:50.998Z</time></trkpt><trkpt lat="44.359568967801714" lon="9.187363984787838"><ele>101.5</ele><time>2026-04-06T05:40:51.998Z</time></trkpt><trkpt lat="44.359658977663315" lon="9.187500780754535"><ele>100.0</ele><time>2026-04-06T05:40:52.998Z</time></trkpt><trkpt lat="44.35970159562152" lon="9.187670345534828"><ele>98.5</ele><time>2026-04-06T05:40:53.998Z</time></trkpt><trkpt lat="44.359701156870244" lon="9.18784367137177"><ele>97.0</ele><time>2026-04-06T05:40:54.998Z</time></trkpt><trkpt lat="44.35969303666656" lon="9.18798401445826"><ele>101.00000000000001</ele><time>2026-04-06T05:40:55.998Z</time></trkpt><trkpt lat="44.35972399370481" lon="9.188091076684646"><ele>105.0</ele><time>2026-04-06T05:40:56.998Z</time></trkpt><trkpt lat="44.35979766769625" lon="9.188143131433335"><ele>109.0</ele><time>2026-04-06T05:40:57.998Z</time></trkpt><trkpt lat="44.35988627841926" lon="9.188133153449654"><ele>113.0</ele><time>2026-04-06T05:40:58.998Z</time></trkpt><trkpt lat="44.35995589649791" lon="9.188058681684359"><ele>117.00000000000001</ele><time>2026-04-06T05:40:59.998Z</time></trkpt><trkpt lat="44.35997617902737" lon="9.187923862317541"><ele>121.0</ele><time>2026-04-06T05:41:00.998Z</time></trkpt><trkpt lat="44.35996662259316" lon="9.187779181114307"><ele>121.0</ele><time>2026-04-06T05:41:01.998Z</time></trkpt><trkpt lat="44.35992223252604" lon="9.18761691753544"><ele>121.0</ele><time>2026-04-06T05:41:02.998Z</time></trkpt><trkpt lat="44.35988607793146" lon="9.187449614749816"><ele>121.0</ele><time>2026-04-06T05:41:03.998Z</time></trkpt><trkpt lat="44.35985480848292" lon="9.18727902924899"><ele>121.0</ele><time>2026-04-06T05:41:04.998Z</time></trkpt><trkpt lat="44.35981971155853" lon="9.187128458048193"><ele>122.4</ele><time>2026-04-06T05:41:05.998Z</time></trkpt><trkpt lat="44.35977418644919" lon="9.187005674868338"><ele>123.8</ele><time>2026-04-06T05:41:06.998Z</time></trkpt><trkpt lat="44.359744629033436" lon="9.186882571501492"><ele>125.20000000000002</ele><time>2026-04-06T05:41:07.998Z</time></trkpt><trkpt lat="44.35976574201297" lon="9.186767052768579"><ele>126.60000000000001</ele><time>2026-04-06T05:41:08.998Z</time></trkpt><trkpt lat="44.35983817136031" lon="9.186671510455726"><ele>128.0</ele><time>2026-04-06T05:41:09.998Z</time></trkpt><trkpt lat="44.35993993546464" lon="9.1865921450505"><ele>130.25</ele><time>2026-04-06T05:41:10.998Z</time></trkpt><trkpt lat="44.36004905269149" lon="9.18650581284248"><ele>132.5</ele><time>2026-04-06T05:41:11.998Z</time></trkpt><trkpt lat="44.36013987846408" lon="9.186386866754667"><ele>134.75</ele><time>2026-04-06T05:41:12.998Z</time></trkpt><trkpt lat="44.360197358332975" lon="9.18624037848039"><ele>137.0</ele><time>2026-04-06T05:41:13.998Z</time></trkpt><trkpt lat="44.360210181457816" lon="9.186083890143625"><ele>137.0</ele><time>2026-04-06T05:41:14.998Z</time></trkpt><trkpt lat="44.360177768882416" lon="9.185922980114148"><ele>137.0</ele><time>2026-04-06T05:41:15.998Z</time></trkpt><trkpt lat="44.360112220282495" lon="9.185760331047534"><ele>137.0</ele><time>2026-04-06T05:41:16.998Z</time></trkpt><trkpt lat="44.36003233375349" lon="9.185607637304445"><ele>137.0</ele><time>2026-04-06T05:41:17.998Z</time></trkpt><trkpt lat="44.359948683754894" lon="9.185469205205122"><ele>139.0</ele><time>2026-04-06T05:41:18.998Z</time></trkpt><trkpt lat="44.35987607714638" lon="9.185340533923762"><ele>141.0</ele><time>2026-04-06T05:41:19.998Z</time></trkpt><trkpt lat="44.359820330266686" lon="9.185217627885939"><ele>143.0</ele><time>2026-04-06T05:41:20.998Z</time></trkpt><trkpt lat="44.359783611697175" lon="9.185101868447484"><ele>145.0</ele><time>2026-04-06T05:41:21.998Z</time></trkpt><trkpt lat="44.359795577229285" lon="9.184983677145462"><ele>147.0</ele><time>2026-04-06T05:41:22.998Z</time></trkpt><trkpt lat="44.35985661899209" lon="9.18489678515856"><ele>148.25</ele><time>2026-04-06T05:41:23.998Z</time></trkpt><trkpt lat="44.35995838962879" lon="9.184796598372108"><ele>149.5</ele><time>2026-04-06T05:41:24.999Z</time></trkpt><trkpt lat="44.360087233801295" lon="9.184746027976926"><ele>150.75</ele><time>2026-04-06T05:41:25.999Z</time></trkpt><trkpt lat="44.360205229753696" lon="9.184686875684651"><ele>152.0</ele><time>2026-04-06T05:41:26.999Z</time></trkpt><trkpt lat="44.36028976610008" lon="9.184577134526297"><ele>152.0</ele><time>2026-04-06T05:41:27.999Z</time></trkpt><trkpt lat="44.360336200952936" lon="9.184417501823312"><ele>152.0</ele><time>2026-04-06T05:41:28.999Z</time></trkpt><trkpt lat="44.360331385319085" lon="9.184256065788736"><ele>152.0</ele><time>2026-04-06T05:41:29.999Z</time></trkpt><trkpt lat="44.36027179763427" lon="9.184107652141028"><ele>152.0</ele><time>2026-04-06T05:41:30.999Z</time></trkpt><trkpt lat="44.36017753721641" lon="9.184009378917963"><ele>155.39999999999998</ele><time>2026-04-06T05:41:31.999Z</time></trkpt><trkpt lat="44.36007948812971" lon="9.183932784171274"><ele>158.79999999999998</ele><time>2026-04-06T05:41:32.999Z</time></trkpt><trkpt lat="44.360007649695014" lon="9.183882119906288"><ele>162.2</ele><time>2026-04-06T05:41:33.999Z</time></trkpt><trkpt lat="44.35994390645082" lon="9.183816322067148"><ele>165.6</ele><time>2026-04-06T05:41:35.999Z</time></trkpt><trkpt lat="44.35986146002168" lon="9.183713292330246"><ele>169.0</ele><time>2026-04-06T05:42:06.999Z</time></trkpt><trkpt lat="44.359819623245656" lon="9.183624933589233"><ele>169.0</ele><time>2026-04-06T05:42:07.999Z</time></trkpt><trkpt lat="44.35979445585443" lon="9.183508613083339"><ele>169.0</ele><time>2026-04-06T05:42:08.999Z</time></trkpt><trkpt lat="44.35979255909777" lon="9.183385018269467"><ele>169.0</ele><time>2026-04-06T05:42:09.999Z</time></trkpt><trkpt lat="44.35981247227561" lon="9.183260325186115"><ele>169.0</ele><time>2026-04-06T05:42:10.999Z</time></trkpt><trkpt lat="44.3598720029469" lon="9.183139515555279"><ele>169.0</ele><time>2026-04-06T05:42:11.999Z</time></trkpt><trkpt lat="44.35992938777437" lon="9.183034801515022"><ele>171.2</ele><time>2026-04-06T05:42:12.999Z</time></trkpt><trkpt lat="44.359977251770815" lon="9.182922595759475"><ele>173.39999999999998</ele><time>2026-04-06T05:42:13.999Z</time></trkpt><trkpt lat="44.35998172384028" lon="9.182804353331816"><ele>175.6</ele><time>2026-04-06T05:42:14.999Z</time></trkpt><trkpt lat="44.35993601269659" lon="9.182687182295686"><ele>177.8</ele><time>2026-04-06T05:42:15.999Z</time></trkpt><trkpt lat="44.35985763506616" lon="9.18260543030306"><ele>180.0</ele><time>2026-04-06T05:42:16.999Z</time></trkpt><trkpt lat="44.3597846587993" lon="9.182518637535278"><ele>180.0</ele><time>2026-04-06T05:42:17.999Z</time></trkpt><trkpt lat="44.359746021574566" lon="9.182420689801564"><ele>180.0</ele><time>2026-04-06T05:42:18.999Z</time></trkpt><trkpt lat="44.359725879149494" lon="9.182329032990921"><ele>180.0</ele><time>2026-04-06T05:42:19.999Z</time></trkpt><trkpt lat="44.35975353781639" lon="9.182211096104444"><ele>180.0</ele><time>2026-04-06T05:42:20.999Z</time></trkpt><trkpt lat="44.359840285016524" lon="9.182122052915787"><ele>180.0</ele><time>2026-04-06T05:42:21.999Z</time></trkpt><trkpt lat="44.35994815417447" lon="9.182069510610953"><ele>178.25</ele><time>2026-04-06T05:42:22.999Z</time></trkpt><trkpt lat="44.360065275471094" lon="9.182008482405502"><ele>176.5</ele><time>2026-04-06T05:42:23.999Z</time></trkpt><trkpt lat="44.36017617919625" lon="9.181932697940834"><ele>174.75</ele><time>2026-04-06T05:42:24.999Z</time></trkpt><trkpt lat="44.360287576787584" lon="9.181845021933439"><ele>173.0</ele><time>2026-04-06T05:42:25.999Z</time></trkpt><trkpt lat="44.36039945520908" lon="9.181774106546808"><ele>173.0</ele><time>2026-04-06T05:42:26.999Z</time></trkpt><trkpt lat="44.36049396464107" lon="9.181704418095903"><ele>173.0</ele><time>2026-04-06T05:42:27.999Z</time></trkpt><trkpt lat="44.36057497807388" lon="9.18158494669487"><ele>173.0</ele><time>2026-04-06T05:42:28.999Z</time></trkpt><trkpt lat="44.360608725676656" lon="9.181406243507785"><ele>173.0</ele><time>2026-04-06T05:42:29.999Z</time></trkpt><trkpt lat="44.360588619475614" lon="9.181208066827015"><ele>171.25</ele><time>2026-04-06T05:42:30.999Z</time></trkpt><trkpt lat="44.36054709817465" lon="9.181013291719115"><ele>169.5</ele><time>2026-04-06T05:42:31.999Z</time></trkpt><trkpt lat="44.36053196461341" lon="9.18081605029729"><ele>167.75</ele><time>2026-04-06T05:42:32.999Z</time></trkpt><trkpt lat="44.36055975286955" lon="9.180627129251523"><ele>166.0</ele><time>2026-04-06T05:42:33.999Z</time></trkpt><trkpt lat="44.3606068650403" lon="9.180426904367916"><ele>180.0</ele><time>2026-04-06T05:42:34.999Z</time></trkpt><trkpt lat="44.36064895491861" lon="9.180213988759926"><ele>194.0</ele><time>2026-04-06T05:42:35.999Z</time></trkpt><trkpt lat="44.36070434693557" lon="9.180013347068872"><ele>208.0</ele><time>2026-04-06T05:42:36.999Z</time></trkpt><trkpt lat="44.360768163931255" lon="9.179828724589177"><ele>210.0</ele><time>2026-04-06T05:42:37.999Z</time></trkpt><trkpt lat="44.36082718727786" lon="9.179661145186643"><ele>212.0</ele><time>2026-04-06T05:42:38.999Z</time></trkpt><trkpt lat="44.360870628461115" lon="9.179510894273657"><ele>214.0</ele><time>2026-04-06T05:42:39.999Z</time></trkpt><trkpt lat="44.360912651013656" lon="9.17936887791543"><ele>216.0</ele><time>2026-04-06T05:42:40.999Z</time></trkpt><trkpt lat="44.36095418167671" lon="9.179238720407598"><ele>216.0</ele><time>2026-04-06T05:42:41.999Z</time></trkpt><trkpt lat="44.36099523139328" lon="9.179117558585794"><ele>216.00000000000003</ele><time>2026-04-06T05:42:42.999Z</time></trkpt><trkpt lat="44.36100088253933" lon="9.178972713584285"><ele>216.00000000000003</ele><time>2026-04-06T05:42:43.999Z</time></trkpt><trkpt lat="44.36095167644225" lon="9.178867944351174"><ele>216.0</ele><time>2026-04-06T05:42:44.999Z</time></trkpt><trkpt lat="44.360865432091344" lon="9.178782187625357"><ele>216.0</ele><time>2026-04-06T05:42:45.999Z</time></trkpt><trkpt lat="44.36074680121174" lon="9.178747394657744"><ele>218.75</ele><time>2026-04-06T05:42:46.999Z</time></trkpt><trkpt lat="44.36061096150477" lon="9.178733726443049"><ele>221.5</ele><time>2026-04-06T05:42:47.999Z</time></trkpt><trkpt lat="44.360471541275544" lon="9.178712425860471"><ele>224.25</ele><time>2026-04-06T05:42:48.999Z</time></trkpt><trkpt lat="44.360332571003845" lon="9.178679751408923"><ele>227.0</ele><time>2026-04-06T05:42:49.999Z</time></trkpt><trkpt lat="44.36020714540326" lon="9.17864442186724"><ele>227.0</ele><time>2026-04-06T05:42:50.999Z</time></trkpt><trkpt lat="44.36008140008853" lon="9.17861670954996"><ele>227.0</ele><time>2026-04-06T05:42:51.999Z</time></trkpt><trkpt lat="44.35997083539946" lon="9.178596975086602"><ele>227.0</ele><time>2026-04-06T05:42:52.999Z</time></trkpt><trkpt lat="44.35985691704296" lon="9.178555187726475"><ele>227.0</ele><time>2026-04-06T05:42:53.999Z</time></trkpt><trkpt lat="44.35972914033187" lon="9.178534816284749"><ele>222.0</ele><time>2026-04-06T05:42:54.999Z</time></trkpt><trkpt lat="44.35960523954418" lon="9.17849331338646"><ele>217.0</ele><time>2026-04-06T05:42:55.999Z</time></trkpt><trkpt lat="44.35953658947791" lon="9.178411530200103"><ele>212.0</ele><time>2026-04-06T05:42:56.999Z</time></trkpt><trkpt lat="44.35950914846973" lon="9.178295130187784"><ele>207.0</ele><time>2026-04-06T05:42:57.999Z</time></trkpt><trkpt lat="44.35950950655743" lon="9.178169224721541"><ele>202.0</ele><time>2026-04-06T05:42:58.999Z</time></trkpt><trkpt lat="44.35954194403972" lon="9.1780205753017"><ele>199.0</ele><time>2026-04-06T05:42:59.999Z</time></trkpt><trkpt lat="44.35959481505547" lon="9.17787200220354"><ele>196.0</ele><time>2026-04-06T05:43:00.999Z</time></trkpt><trkpt lat="44.35964718124776" lon="9.177737766203524"><ele>193.0</ele><time>2026-04-06T05:43:01.999Z</time></trkpt><trkpt lat="44.359713452708974" lon="9.177617704858404"><ele>190.0</ele><time>2026-04-06T05:43:02.999Z</time></trkpt><trkpt lat="44.35981715393171" lon="9.177526246966526"><ele>195.75</ele><time>2026-04-06T05:43:03.999Z</time></trkpt><trkpt lat="44.359943802544166" lon="9.177454956866562"><ele>201.5</ele><time>2026-04-06T05:43:04.999Z</time></trkpt><trkpt lat="44.36004245383265" lon="9.177336642444072"><ele>207.25</ele><time>2026-04-06T05:43:05.999Z</time></trkpt><trkpt lat="44.36010603104659" lon="9.177173729045617"><ele>213.0</ele><time>2026-04-06T05:43:06.999Z</time></trkpt><trkpt lat="44.36015220255429" lon="9.176992368016302"><ele>213.0</ele><time>2026-04-06T05:43:07.998Z</time></trkpt><trkpt lat="44.36020331735711" lon="9.176805940340097"><ele>213.0</ele><time>2026-04-06T05:43:08.998Z</time></trkpt><trkpt lat="44.36026398459682" lon="9.176632577963597"><ele>213.0</ele><time>2026-04-06T05:43:09.998Z</time></trkpt><trkpt lat="44.36032524945835" lon="9.17646740486953"><ele>213.0</ele><time>2026-04-06T05:43:10.998Z</time></trkpt><trkpt lat="44.360388080734985" lon="9.176308262569417"><ele>211.75</ele><time>2026-04-06T05:43:11.998Z</time></trkpt><trkpt lat="44.36045491239867" lon="9.176148856677326"><ele>210.5</ele><time>2026-04-06T05:43:12.998Z</time></trkpt><trkpt lat="44.36052474276172" lon="9.176003419439375"><ele>209.25</ele><time>2026-04-06T05:43:13.998Z</time></trkpt><trkpt lat="44.36060463216868" lon="9.17587437484026"><ele>208.0</ele><time>2026-04-06T05:43:14.998Z</time></trkpt><trkpt lat="44.360697373492165" lon="9.175762181298037"><ele>215.8</ele><time>2026-04-06T05:43:15.998Z</time></trkpt><trkpt lat="44.3607883671847" lon="9.175656277436257"><ele>223.60000000000002</ele><time>2026-04-06T05:43:16.998Z</time></trkpt><trkpt lat="44.360868437897125" lon="9.17557386080544"><ele>231.39999999999998</ele><time>2026-04-06T05:43:17.998Z</time></trkpt><trkpt lat="44.36093486221754" lon="9.175476520914705"><ele>239.2</ele><time>2026-04-06T05:43:18.998Z</time></trkpt><trkpt lat="44.36095223968231" lon="9.175353339426245"><ele>247.0</ele><time>2026-04-06T05:43:19.998Z</time></trkpt><trkpt lat="44.36091027546456" lon="9.175207033621467"><ele>247.0</ele><time>2026-04-06T05:43:20.998Z</time></trkpt><trkpt lat="44.3608289810916" lon="9.175104275477699"><ele>247.0</ele><time>2026-04-06T05:43:21.998Z</time></trkpt><trkpt lat="44.36071211575915" lon="9.175047457397325"><ele>247.0</ele><time>2026-04-06T05:43:22.998Z</time></trkpt><trkpt lat="44.360597255968" lon="9.174995569114111"><ele>247.0</ele><time>2026-04-06T05:43:23.998Z</time></trkpt><trkpt lat="44.36051301889699" lon="9.174898711919248"><ele>246.0</ele><time>2026-04-06T05:43:24.998Z</time></trkpt><trkpt lat="44.36044856582921" lon="9.174757099560782"><ele>245.0</ele><time>2026-04-06T05:43:25.998Z</time></trkpt><trkpt lat="44.360421881094226" lon="9.174590337336427"><ele>244.0</ele><time>2026-04-06T05:43:26.998Z</time></trkpt><trkpt lat="44.360412274023545" lon="9.174421286124215"><ele>243.0</ele><time>2026-04-06T05:43:27.998Z</time></trkpt><trkpt lat="44.36038337928485" lon="9.174271401706903"><ele>243.0</ele><time>2026-04-06T05:43:28.998Z</time></trkpt><trkpt lat="44.36030593193293" lon="9.174154232022033"><ele>243.0</ele><time>2026-04-06T05:43:29.998Z</time></trkpt><trkpt lat="44.36018600922594" lon="9.174086060314348"><ele>243.0</ele><time>2026-04-06T05:43:31Z</time></trkpt><trkpt lat="44.36005813339489" lon="9.174072991467922"><ele>243.0</ele><time>2026-04-06T05:43:32Z</time></trkpt><trkpt lat="44.359925935750226" lon="9.174125782322795"><ele>243.0</ele><time>2026-04-06T05:43:33Z</time></trkpt><trkpt lat="44.35978984089687" lon="9.17418497122615"><ele>243.0</ele><time>2026-04-06T05:43:34Z</time></trkpt><trkpt lat="44.359645730806236" lon="9.174238380258583"><ele>243.0</ele><time>2026-04-06T05:43:35Z</time></trkpt><trkpt lat="44.359504562241256" lon="9.174275781846449"><ele>243.0</ele><time>2026-04-06T05:43:36Z</time></trkpt><trkpt lat="44.35937802062584" lon="9.174315195648399"><ele>244.5</ele><time>2026-04-06T05:43:37Z</time></trkpt><trkpt lat="44.3592493130272" lon="9.17434839048181"><ele>246.0</ele><time>2026-04-06T05:43:38Z</time></trkpt><trkpt lat="44.35912403726886" lon="9.174356059904184"><ele>247.5</ele><time>2026-04-06T05:43:39Z</time></trkpt><trkpt lat="44.35900295091545" lon="9.174308115128595"><ele>249.0</ele><time>2026-04-06T05:43:40Z</time></trkpt><trkpt lat="44.35888872296306" lon="9.174238530029438"><ele>248.75</ele><time>2026-04-06T05:43:41Z</time></trkpt><trkpt lat="44.358771870126134" lon="9.174207838102053"><ele>248.5</ele><time>2026-04-06T05:43:42Z</time></trkpt><trkpt lat="44.35864015309391" lon="9.174251498616275"><ele>248.25</ele><time>2026-04-06T05:43:43Z</time></trkpt><trkpt lat="44.358519529836265" lon="9.174311895008694"><ele>248.0</ele><time>2026-04-06T05:43:44Z</time></trkpt><trkpt lat="44.35841658736435" lon="9.174321670292056"><ele>248.0</ele><time>2026-04-06T05:43:45Z</time></trkpt><trkpt lat="44.35831967866335" lon="9.174250441447526"><ele>248.0</ele><time>2026-04-06T05:43:46Z</time></trkpt><trkpt lat="44.3582124380844" lon="9.17412823505729"><ele>248.0</ele><time>2026-04-06T05:43:47Z</time></trkpt><trkpt lat="44.35810662058141" lon="9.1740249483249"><ele>248.0</ele><time>2026-04-06T05:43:48Z</time></trkpt><trkpt lat="44.35799262885215" lon="9.17393363119348"><ele>249.75</ele><time>2026-04-06T05:43:49Z</time></trkpt><trkpt lat="44.35787795584252" lon="9.173854241873096"><ele>251.5</ele><time>2026-04-06T05:43:50Z</time></trkpt><trkpt lat="44.35776996614201" lon="9.173782044905142"><ele>253.25</ele><time>2026-04-06T05:43:51Z</time></trkpt><trkpt lat="44.35767279496501" lon="9.173708686948888"><ele>255.0</ele><time>2026-04-06T05:43:52Z</time></trkpt><trkpt lat="44.35760805144718" lon="9.173604777622915"><ele>255.0</ele><time>2026-04-06T05:43:53Z</time></trkpt><trkpt lat="44.35759872115722" lon="9.17345482996516"><ele>255.0</ele><time>2026-04-06T05:43:54Z</time></trkpt><trkpt lat="44.35762779223855" lon="9.173274845377637"><ele>255.0</ele><time>2026-04-06T05:43:55Z</time></trkpt><trkpt lat="44.357649049553935" lon="9.173100435115185"><ele>255.0</ele><time>2026-04-06T05:43:56Z</time></trkpt><trkpt lat="44.3576144959276" lon="9.172927971046866"><ele>253.0</ele><time>2026-04-06T05:43:57Z</time></trkpt><trkpt lat="44.35754202669931" lon="9.172778610079707"><ele>251.0</ele><time>2026-04-06T05:43:58Z</time></trkpt><trkpt lat="44.35742711350956" lon="9.172664477473951"><ele>249.0</ele><time>2026-04-06T05:43:59Z</time></trkpt><trkpt lat="44.35729422012579" lon="9.172605723381158"><ele>247.0</ele><time>2026-04-06T05:44:00Z</time></trkpt><trkpt lat="44.3571466018737" lon="9.17260864241838"><ele>247.0</ele><time>2026-04-06T05:44:01Z</time></trkpt><trkpt lat="44.35701315292033" lon="9.172643092468848"><ele>247.0</ele><time>2026-04-06T05:44:02Z</time></trkpt><trkpt lat="44.35689160464906" lon="9.172623811109167"><ele>247.0</ele><time>2026-04-06T05:44:03Z</time></trkpt><trkpt lat="44.356785866383326" lon="9.172508933397369"><ele>247.0</ele><time>2026-04-06T05:44:04Z</time></trkpt><trkpt lat="44.35669546005256" lon="9.172353057342562"><ele>256.0</ele><time>2026-04-06T05:44:05Z</time></trkpt><trkpt lat="44.35662754100421" lon="9.172173269129996"><ele>265.0</ele><time>2026-04-06T05:44:06Z</time></trkpt><trkpt lat="44.35657950213971" lon="9.171979304863589"><ele>274.0</ele><time>2026-04-06T05:44:07Z</time></trkpt><trkpt lat="44.356522910411904" lon="9.17178335260184"><ele>283.0</ele><time>2026-04-06T05:44:08Z</time></trkpt><trkpt lat="44.35644318329945" lon="9.171603622746748"><ele>275.0</ele><time>2026-04-06T05:44:09Z</time></trkpt><trkpt lat="44.35634725535617" lon="9.171425458924018"><ele>267.0</ele><time>2026-04-06T05:44:10Z</time></trkpt><trkpt lat="44.356258102417456" lon="9.171247088339912"><ele>259.0</ele><time>2026-04-06T05:44:11Z</time></trkpt><trkpt lat="44.356169403147675" lon="9.171072002956313"><ele>259.0</ele><time>2026-04-06T05:44:12Z</time></trkpt><trkpt lat="44.356064001071644" lon="9.170892450110252"><ele>259.0</ele><time>2026-04-06T05:44:13Z</time></trkpt><trkpt lat="44.35594752770452" lon="9.170715508855146"><ele>259.0</ele><time>2026-04-06T05:44:14Z</time></trkpt><trkpt lat="44.35584122934486" lon="9.170547829086379"><ele>264.5</ele><time>2026-04-06T05:44:14.999Z</time></trkpt><trkpt lat="44.35574495967645" lon="9.170400894898323"><ele>270.0</ele><time>2026-04-06T05:44:15.999Z</time></trkpt><trkpt lat="44.35565814359937" lon="9.17027117352048"><ele>275.5</ele><time>2026-04-06T05:44:16.999Z</time></trkpt><trkpt lat="44.35557288706092" lon="9.170145768741737"><ele>281.0</ele><time>2026-04-06T05:44:17.999Z</time></trkpt><trkpt lat="44.3554967348866" lon="9.170026141196908"><ele>281.0</ele><time>2026-04-06T05:44:18.999Z</time></trkpt><trkpt lat="44.35543609188932" lon="9.16991730659256"><ele>281.0</ele><time>2026-04-06T05:44:19.999Z</time></trkpt><trkpt lat="44.35537311522094" lon="9.169833816915963"><ele>281.0</ele><time>2026-04-06T05:44:20.999Z</time></trkpt><trkpt lat="44.35527862298758" lon="9.169822475928878"><ele>281.0</ele><time>2026-04-06T05:44:21.999Z</time></trkpt><trkpt lat="44.35517451351294" lon="9.169898318149592"><ele>281.0</ele><time>2026-04-06T05:44:22.999Z</time></trkpt><trkpt lat="44.35507368067847" lon="9.170019723518804"><ele>281.0</ele><time>2026-04-06T05:44:23.999Z</time></trkpt><trkpt lat="44.354966228169005" lon="9.17013565425926"><ele>281.0</ele><time>2026-04-06T05:44:24.999Z</time></trkpt><trkpt lat="44.35484930710613" lon="9.170230696921848"><ele>281.0</ele><time>2026-04-06T05:44:25.999Z</time></trkpt><trkpt lat="44.35472768844112" lon="9.170284852506592"><ele>281.0</ele><time>2026-04-06T05:44:26.999Z</time></trkpt><trkpt lat="44.35460961823877" lon="9.170330389931308"><ele>279.75</ele><time>2026-04-06T05:44:27.999Z</time></trkpt><trkpt lat="44.354489153445975" lon="9.170335502151291"><ele>278.5</ele><time>2026-04-06T05:44:28.999Z</time></trkpt><trkpt lat="44.35437540812682" lon="9.170319684504522"><ele>277.25</ele><time>2026-04-06T05:44:29.999Z</time></trkpt><trkpt lat="44.3542735970061" lon="9.17024211166198"><ele>276.0</ele><time>2026-04-06T05:44:30.999Z</time></trkpt><trkpt lat="44.354188793178324" lon="9.170105463080167"><ele>276.0</ele><time>2026-04-06T05:44:31.999Z</time></trkpt><trkpt lat="44.35409875847458" lon="9.169957968208836"><ele>276.0</ele><time>2026-04-06T05:44:32.999Z</time></trkpt><trkpt lat="44.35401336494332" lon="9.169847253374131"><ele>276.0</ele><time>2026-04-06T05:44:33.999Z</time></trkpt><trkpt lat="44.35392062102456" lon="9.16979169202214"><ele>276.0</ele><time>2026-04-06T05:44:34.999Z</time></trkpt><trkpt lat="44.353810055401496" lon="9.169804718787322"><ele>281.75</ele><time>2026-04-06T05:44:35.999Z</time></trkpt><trkpt lat="44.3537139601965" lon="9.169912301200117"><ele>287.5</ele><time>2026-04-06T05:44:36.999Z</time></trkpt><trkpt lat="44.35363296842489" lon="9.170072865573836"><ele>293.25</ele><time>2026-04-06T05:44:37.999Z</time></trkpt><trkpt lat="44.35355164531031" lon="9.170236316626985"><ele>299.0</ele><time>2026-04-06T05:44:38.999Z</time></trkpt><trkpt lat="44.353472259893394" lon="9.170401251200815"><ele>299.0</ele><time>2026-04-06T05:44:39.999Z</time></trkpt><trkpt lat="44.3533935222972" lon="9.170549967712624"><ele>299.0</ele><time>2026-04-06T05:44:40.999Z</time></trkpt><trkpt lat="44.35333805132407" lon="9.170703402615196"><ele>299.0</ele><time>2026-04-06T05:44:41.999Z</time></trkpt><trkpt lat="44.35328611429706" lon="9.170848289388099"><ele>299.0</ele><time>2026-04-06T05:44:42.999Z</time></trkpt><trkpt lat="44.353223902736204" lon="9.170968309708199"><ele>291.25</ele><time>2026-04-06T05:44:43.999Z</time></trkpt><trkpt lat="44.35313879167665" lon="9.171020849234353"><ele>283.5</ele><time>2026-04-06T05:44:44.999Z</time></trkpt><trkpt lat="44.35301633275005" lon="9.170997159532602"><ele>275.75</ele><time>2026-04-06T05:44:45.999Z</time></trkpt><trkpt lat="44.35289005717255" lon="9.170889287956452"><ele>268.0</ele><time>2026-04-06T05:44:46.999Z</time></trkpt><trkpt lat="44.35278164917184" lon="9.170761575453362"><ele>274.5</ele><time>2026-04-06T05:44:47.999Z</time></trkpt><trkpt lat="44.35267332308491" lon="9.170627766803177"><ele>281.0</ele><time>2026-04-06T05:44:48.999Z</time></trkpt><trkpt lat="44.352567609779875" lon="9.170512488547265"><ele>287.5</ele><time>2026-04-06T05:44:49.999Z</time></trkpt><trkpt lat="44.35245510952746" lon="9.170393781572853"><ele>294.0</ele><time>2026-04-06T05:44:50.999Z</time></trkpt><trkpt lat="44.35234159487145" lon="9.170280313502728"><ele>294.0</ele><time>2026-04-06T05:44:51.999Z</time></trkpt><trkpt lat="44.352231473136754" lon="9.170168329109073"><ele>294.0</ele><time>2026-04-06T05:44:52.999Z</time></trkpt><trkpt lat="44.35212121166056" lon="9.170055532624097"><ele>294.0</ele><time>2026-04-06T05:44:53.999Z</time></trkpt><trkpt lat="44.35200714698588" lon="9.169941780722917"><ele>294.0</ele><time>2026-04-06T05:44:54.999Z</time></trkpt><trkpt lat="44.35188656244086" lon="9.169838991679601"><ele>294.5</ele><time>2026-04-06T05:44:55.999Z</time></trkpt><trkpt lat="44.351764212164575" lon="9.169738564478006"><ele>295.0</ele><time>2026-04-06T05:44:56.999Z</time></trkpt><trkpt lat="44.3516573884584" lon="9.169622959783599"><ele>295.5</ele><time>2026-04-06T05:44:57.999Z</time></trkpt><trkpt lat="44.351551296987566" lon="9.169492282409573"><ele>296.0</ele><time>2026-04-06T05:44:58.999Z</time></trkpt><trkpt lat="44.35144523029818" lon="9.169363848636156"><ele>298.75</ele><time>2026-04-06T05:44:59.999Z</time></trkpt><trkpt lat="44.351349776882074" lon="9.169247538738471"><ele>301.5</ele><time>2026-04-06T05:45:00.999Z</time></trkpt><trkpt lat="44.35123611339677" lon="9.169139868222045"><ele>304.25</ele><time>2026-04-06T05:45:01.999Z</time></trkpt><trkpt lat="44.35110256041607" lon="9.16905517803772"><ele>307.0</ele><time>2026-04-06T05:45:02.999Z</time></trkpt><trkpt lat="44.350969897178835" lon="9.169001237760348"><ele>307.0</ele><time>2026-04-06T05:45:03.999Z</time></trkpt><trkpt lat="44.350831454164805" lon="9.168987463285774"><ele>307.0</ele><time>2026-04-06T05:45:04.999Z</time></trkpt><trkpt lat="44.350682117461034" lon="9.16899779504904"><ele>307.0</ele><time>2026-04-06T05:45:05.999Z</time></trkpt><trkpt lat="44.35054388069212" lon="9.169014892347054"><ele>307.0</ele><time>2026-04-06T05:45:06.999Z</time></trkpt><trkpt lat="44.35041209992479" lon="9.16901112292013"><ele>305.75</ele><time>2026-04-06T05:45:07.999Z</time></trkpt><trkpt lat="44.350282492543485" lon="9.168976757987277"><ele>304.5</ele><time>2026-04-06T05:45:08.999Z</time></trkpt><trkpt lat="44.350165238582385" lon="9.16889211249574"><ele>303.25</ele><time>2026-04-06T05:45:09.999Z</time></trkpt><trkpt lat="44.3500402949692" lon="9.16882275575201"><ele>302.0</ele><time>2026-04-06T05:45:10.999Z</time></trkpt><trkpt lat="44.3499126323818" lon="9.168808613660111"><ele>302.0</ele><time>2026-04-06T05:45:11.999Z</time></trkpt><trkpt lat="44.34978162150516" lon="9.168875509028988"><ele>302.0</ele><time>2026-04-06T05:45:12.999Z</time></trkpt><trkpt lat="44.349672697142346" lon="9.169008735673627"><ele>302.0</ele><time>2026-04-06T05:45:13.999Z</time></trkpt><trkpt lat="44.34956458713084" lon="9.169165252417995"><ele>302.0</ele><time>2026-04-06T05:45:14.999Z</time></trkpt><trkpt lat="44.34944963048501" lon="9.169275696916763"><ele>297.6666666666667</ele><time>2026-04-06T05:45:15.999Z</time></trkpt><trkpt lat="44.34930740874559" lon="9.16933868917335"><ele>293.3333333333333</ele><time>2026-04-06T05:45:16.999Z</time></trkpt><trkpt lat="44.34915464512808" lon="9.169389756845183"><ele>289.0</ele><time>2026-04-06T05:45:17.999Z</time></trkpt><trkpt lat="44.349007597958476" lon="9.169451835665017"><ele>289.5</ele><time>2026-04-06T05:45:18.999Z</time></trkpt><trkpt lat="44.348872024942274" lon="9.16951013302302"><ele>290.0</ele><time>2026-04-06T05:45:19.999Z</time></trkpt><trkpt lat="44.34873721357989" lon="9.169547412683997"><ele>290.5</ele><time>2026-04-06T05:45:20.999Z</time></trkpt><trkpt lat="44.348608015673335" lon="9.169569395198792"><ele>291.0</ele><time>2026-04-06T05:45:21.999Z</time></trkpt><trkpt lat="44.348481917345595" lon="9.169619878681555"><ele>291.0</ele><time>2026-04-06T05:45:22.999Z</time></trkpt><trkpt lat="44.348367972344604" lon="9.169712831305908"><ele>291.0</ele><time>2026-04-06T05:45:23.999Z</time></trkpt><trkpt lat="44.348261327286366" lon="9.16983187175191"><ele>291.0</ele><time>2026-04-06T05:45:24.999Z</time></trkpt><trkpt lat="44.34815611398913" lon="9.169926679705688"><ele>291.0</ele><time>2026-04-06T05:45:25.999Z</time></trkpt><trkpt lat="44.3480574393781" lon="9.169997103442357"><ele>288.8</ele><time>2026-04-06T05:45:26.999Z</time></trkpt><trkpt lat="44.34796996950185" lon="9.170070986935634"><ele>286.6</ele><time>2026-04-06T05:45:27.999Z</time></trkpt><trkpt lat="44.34789049631168" lon="9.170142104097822"><ele>284.4</ele><time>2026-04-06T05:45:28.999Z</time></trkpt><trkpt lat="44.34781252869802" lon="9.170182729661951"><ele>282.2</ele><time>2026-04-06T05:45:29.999Z</time></trkpt><trkpt lat="44.347730292753745" lon="9.170173301838853"><ele>280.0</ele><time>2026-04-06T05:45:30.999Z</time></trkpt><trkpt lat="44.34763527271222" lon="9.17011154910477"><ele>280.0</ele><time>2026-04-06T05:45:31.999Z</time></trkpt><trkpt lat="44.3475258070505" lon="9.170042890090755"><ele>280.0</ele><time>2026-04-06T05:45:32.999Z</time></trkpt><trkpt lat="44.34740375235888" lon="9.169985214953808"><ele>280.0</ele><time>2026-04-06T05:45:33.999Z</time></trkpt><trkpt lat="44.347281410890986" lon="9.16993338145775"><ele>280.0</ele><time>2026-04-06T05:45:34.999Z</time></trkpt><trkpt lat="44.34715432696407" lon="9.169886448079215"><ele>278.75</ele><time>2026-04-06T05:45:36Z</time></trkpt><trkpt lat="44.347025467418135" lon="9.169876452622045"><ele>277.5</ele><time>2026-04-06T05:45:37Z</time></trkpt><trkpt lat="44.346892881129214" lon="9.169917704022687"><ele>276.25</ele><time>2026-04-06T05:45:38Z</time></trkpt><trkpt lat="44.34676243796574" lon="9.16999194092583"><ele>275.0</ele><time>2026-04-06T05:45:39Z</time></trkpt><trkpt lat="44.34662863694028" lon="9.170060418618416"><ele>275.0</ele><time>2026-04-06T05:45:40Z</time></trkpt><trkpt lat="44.34650060119915" lon="9.170109741670563"><ele>275.0</ele><time>2026-04-06T05:45:41Z</time></trkpt><trkpt lat="44.34637895827457" lon="9.170149057559255"><ele>275.0</ele><time>2026-04-06T05:45:42Z</time></trkpt><trkpt lat="44.34625380656711" lon="9.170162217230537"><ele>275.0</ele><time>2026-04-06T05:45:43Z</time></trkpt><trkpt lat="44.34613152021654" lon="9.170154417042"><ele>273.4</ele><time>2026-04-06T05:45:44Z</time></trkpt><trkpt lat="44.34601215676358" lon="9.170151339370193"><ele>271.8</ele><time>2026-04-06T05:45:45Z</time></trkpt><trkpt lat="44.345897317595174" lon="9.17013599786716"><ele>270.2</ele><time>2026-04-06T05:45:46Z</time></trkpt><trkpt lat="44.34579372914562" lon="9.170098559125952"><ele>268.6</ele><time>2026-04-06T05:45:47Z</time></trkpt><trkpt lat="44.34571431577901" lon="9.170057241641619"><ele>267.0</ele><time>2026-04-06T05:45:48Z</time></trkpt><trkpt lat="44.345627987977224" lon="9.170088910208937"><ele>264.5</ele><time>2026-04-06T05:45:49Z</time></trkpt><trkpt lat="44.34554160313311" lon="9.170183638871988"><ele>262.0</ele><time>2026-04-06T05:45:50Z</time></trkpt><trkpt lat="44.34545537230348" lon="9.17030426738362"><ele>259.5</ele><time>2026-04-06T05:45:51Z</time></trkpt><trkpt lat="44.345355152066325" lon="9.170373305513317"><ele>257.0</ele><time>2026-04-06T05:45:52Z</time></trkpt><trkpt lat="44.345233815963326" lon="9.170402716727239"><ele>257.0</ele><time>2026-04-06T05:45:53Z</time></trkpt><trkpt lat="44.34510677999632" lon="9.170381276321208"><ele>257.0</ele><time>2026-04-06T05:45:54Z</time></trkpt><trkpt lat="44.34497859342353" lon="9.170378539616152"><ele>257.0</ele><time>2026-04-06T05:45:55Z</time></trkpt><trkpt lat="44.344855109907456" lon="9.17038579407844"><ele>257.0</ele><time>2026-04-06T05:45:56Z</time></trkpt><trkpt lat="44.344738427791" lon="9.170407363841548"><ele>255.2</ele><time>2026-04-06T05:45:57Z</time></trkpt><trkpt lat="44.344628953086165" lon="9.170487852693505"><ele>253.39999999999998</ele><time>2026-04-06T05:45:58Z</time></trkpt><trkpt lat="44.344545623590584" lon="9.170568989944545"><ele>251.60000000000002</ele><time>2026-04-06T05:45:59Z</time></trkpt><trkpt lat="44.34447299129067" lon="9.170649667671888"><ele>249.8</ele><time>2026-04-06T05:46:00Z</time></trkpt><trkpt lat="44.34439764642045" lon="9.170705545368714"><ele>248.0</ele><time>2026-04-06T05:46:01Z</time></trkpt><trkpt lat="44.344319247051025" lon="9.170747628498193"><ele>248.00000000000003</ele><time>2026-04-06T05:46:02Z</time></trkpt><trkpt lat="44.34424145717235" lon="9.170714420556788"><ele>248.0</ele><time>2026-04-06T05:46:03Z</time></trkpt><trkpt lat="44.34417850001564" lon="9.170686353986014"><ele>248.0</ele><time>2026-04-06T05:46:04Z</time></trkpt><trkpt lat="44.34409178577685" lon="9.170575872341729"><ele>248.0</ele><time>2026-04-06T05:46:06Z</time></trkpt><trkpt lat="44.34409163203708" lon="9.170487014462974"><ele>248.00000000000003</ele><time>2026-04-06T05:46:08Z</time></trkpt><trkpt lat="44.344127629477846" lon="9.170408462970551"><ele>248.0</ele><time>2026-04-06T05:46:10Z</time></trkpt><trkpt lat="44.34418283184498" lon="9.170357881970846"><ele>248.0</ele><time>2026-04-06T05:46:11Z</time></trkpt><trkpt lat="44.344254301952795" lon="9.170293923209409"><ele>248.0</ele><time>2026-04-06T05:46:12Z</time></trkpt><trkpt lat="44.34433608672849" lon="9.170214711891514"><ele>248.0</ele><time>2026-04-06T05:46:13Z</time></trkpt><trkpt lat="44.34443290075512" lon="9.170133693556917"><ele>248.0</ele><time>2026-04-06T05:46:14Z</time></trkpt><trkpt lat="44.34453267752746" lon="9.17005413837765"><ele>248.0</ele><time>2026-04-06T05:46:15Z</time></trkpt><trkpt lat="44.34463685122418" lon="9.169977334730142"><ele>250.25</ele><time>2026-04-06T05:46:16Z</time></trkpt><trkpt lat="44.34474518590933" lon="9.169886437063917"><ele>252.5</ele><time>2026-04-06T05:46:17Z</time></trkpt><trkpt lat="44.34485195316073" lon="9.169779011278369"><ele>254.75</ele><time>2026-04-06T05:46:18Z</time></trkpt><trkpt lat="44.344979957435605" lon="9.169697492067954"><ele>257.0</ele><time>2026-04-06T05:46:19Z</time></trkpt><trkpt lat="44.34508609132863" lon="9.16959180161223"><ele>250.5</ele><time>2026-04-06T05:46:20Z</time></trkpt><trkpt lat="44.3451903832754" lon="9.169501598679524"><ele>244.0</ele><time>2026-04-06T05:46:21Z</time></trkpt><trkpt lat="44.34530370488616" lon="9.16943848331475"><ele>237.5</ele><time>2026-04-06T05:46:21.999Z</time></trkpt><trkpt lat="44.34541040935948" lon="9.169408073633642"><ele>231.0</ele><time>2026-04-06T05:46:22.999Z</time></trkpt><trkpt lat="44.34552613707788" lon="9.169406253810369"><ele>231.25</ele><time>2026-04-06T05:46:23.999Z</time></trkpt><trkpt lat="44.34564611038324" lon="9.16945730503977"><ele>231.5</ele><time>2026-04-06T05:46:24.999Z</time></trkpt><trkpt lat="44.345768226502635" lon="9.16948283503857"><ele>231.75</ele><time>2026-04-06T05:46:25.999Z</time></trkpt><trkpt lat="44.345885073464885" lon="9.16950458744286"><ele>232.0</ele><time>2026-04-06T05:46:26.999Z</time></trkpt><trkpt lat="44.346000043329674" lon="9.169504471906983"><ele>232.0</ele><time>2026-04-06T05:46:27.999Z</time></trkpt><trkpt lat="44.34611632204313" lon="9.169472377969571"><ele>232.0</ele><time>2026-04-06T05:46:28.999Z</time></trkpt><trkpt lat="44.34622872611768" lon="9.169409249540934"><ele>232.0</ele><time>2026-04-06T05:46:29.999Z</time></trkpt><trkpt lat="44.34633125954213" lon="9.169322294386088"><ele>232.0</ele><time>2026-04-06T05:46:30.999Z</time></trkpt><trkpt lat="44.34642468779914" lon="9.16922571831725"><ele>234.39999999999998</ele><time>2026-04-06T05:46:31.999Z</time></trkpt><trkpt lat="44.346514774383074" lon="9.169128158009453"><ele>236.79999999999998</ele><time>2026-04-06T05:46:32.999Z</time></trkpt><trkpt lat="44.34660005801447" lon="9.169031555905459"><ele>239.2</ele><time>2026-04-06T05:46:33.999Z</time></trkpt><trkpt lat="44.34668544342055" lon="9.168936769181693"><ele>241.6</ele><time>2026-04-06T05:46:34.999Z</time></trkpt><trkpt lat="44.34676788236498" lon="9.168839706237705"><ele>244.0</ele><time>2026-04-06T05:46:35.999Z</time></trkpt><trkpt lat="44.346851435641625" lon="9.168741353918232"><ele>244.5</ele><time>2026-04-06T05:46:36.999Z</time></trkpt><trkpt lat="44.346936706709876" lon="9.168640802573863"><ele>245.0</ele><time>2026-04-06T05:46:37.999Z</time></trkpt><trkpt lat="44.347026807598276" lon="9.168540380985347"><ele>245.5</ele><time>2026-04-06T05:46:38.999Z</time></trkpt><trkpt lat="44.34712164816223" lon="9.168436258658968"><ele>246.0</ele><time>2026-04-06T05:46:39.999Z</time></trkpt><trkpt lat="44.34721404493063" lon="9.16831025856011"><ele>240.0</ele><time>2026-04-06T05:46:40.999Z</time></trkpt><trkpt lat="44.34729815217704" lon="9.168168016822323"><ele>234.0</ele><time>2026-04-06T05:46:41.999Z</time></trkpt><trkpt lat="44.34736678014402" lon="9.168010692915013"><ele>228.0</ele><time>2026-04-06T05:46:42.999Z</time></trkpt><trkpt lat="44.34743284566893" lon="9.16784522487156"><ele>222.0</ele><time>2026-04-06T05:46:43.999Z</time></trkpt><trkpt lat="44.34749910648184" lon="9.167677730840616"><ele>222.0</ele><time>2026-04-06T05:46:44.999Z</time></trkpt><trkpt lat="44.347565586944825" lon="9.167515650457547"><ele>222.0</ele><time>2026-04-06T05:46:45.999Z</time></trkpt><trkpt lat="44.347631510314784" lon="9.167356236973923"><ele>222.0</ele><time>2026-04-06T05:46:46.999Z</time></trkpt><trkpt lat="44.34769833468876" lon="9.167201242041648"><ele>222.0</ele><time>2026-04-06T05:46:47.999Z</time></trkpt><trkpt lat="44.347747076115006" lon="9.167018652853779"><ele>218.0</ele><time>2026-04-06T05:46:48.999Z</time></trkpt><trkpt lat="44.34778173830423" lon="9.166825620212547"><ele>214.0</ele><time>2026-04-06T05:46:49.999Z</time></trkpt><trkpt lat="44.34781614439111" lon="9.166632609692106"><ele>210.0</ele><time>2026-04-06T05:46:50.999Z</time></trkpt><trkpt lat="44.34785394690164" lon="9.16644923895612"><ele>206.0</ele><time>2026-04-06T05:46:51.999Z</time></trkpt><trkpt lat="44.34789948352728" lon="9.16627315022711"><ele>206.75</ele><time>2026-04-06T05:46:52.999Z</time></trkpt><trkpt lat="44.347956991611824" lon="9.166103494639826"><ele>207.5</ele><time>2026-04-06T05:46:53.999Z</time></trkpt><trkpt lat="44.34801899208145" lon="9.165937252950188"><ele>208.25</ele><time>2026-04-06T05:46:54.999Z</time></trkpt><trkpt lat="44.3480799755741" lon="9.165764232029174"><ele>209.0</ele><time>2026-04-06T05:46:55.999Z</time></trkpt><trkpt lat="44.348144469014" lon="9.165593648822787"><ele>209.0</ele><time>2026-04-06T05:46:56.999Z</time></trkpt><trkpt lat="44.348210766933896" lon="9.165421238970245"><ele>209.0</ele><time>2026-04-06T05:46:57.999Z</time></trkpt><trkpt lat="44.34828546278649" lon="9.165242067992864"><ele>209.0</ele><time>2026-04-06T05:46:58.999Z</time></trkpt><trkpt lat="44.34835524843695" lon="9.16506013513197"><ele>209.0</ele><time>2026-04-06T05:46:59.999Z</time></trkpt><trkpt lat="44.348419328446695" lon="9.164871036695386"><ele>206.75</ele><time>2026-04-06T05:47:00.999Z</time></trkpt><trkpt lat="44.34847836574024" lon="9.164685213199057"><ele>204.5</ele><time>2026-04-06T05:47:01.999Z</time></trkpt><trkpt lat="44.34850878902232" lon="9.164498271314706"><ele>202.25</ele><time>2026-04-06T05:47:02.999Z</time></trkpt><trkpt lat="44.34852851315664" lon="9.16431468750062"><ele>200.0</ele><time>2026-04-06T05:47:03.999Z</time></trkpt><trkpt lat="44.348544970293" lon="9.164130884709758"><ele>195.75</ele><time>2026-04-06T05:47:04.999Z</time></trkpt><trkpt lat="44.34856273373765" lon="9.163955255986549"><ele>191.5</ele><time>2026-04-06T05:47:05.999Z</time></trkpt><trkpt lat="44.34860173296028" lon="9.16378279336813"><ele>187.25</ele><time>2026-04-06T05:47:06.999Z</time></trkpt><trkpt lat="44.348645371117854" lon="9.163609972174466"><ele>183.0</ele><time>2026-04-06T05:47:07.999Z</time></trkpt><trkpt lat="44.34868012468458" lon="9.163433091091528"><ele>183.0</ele><time>2026-04-06T05:47:08.999Z</time></trkpt><trkpt lat="44.348713747151606" lon="9.163258872347063"><ele>183.0</ele><time>2026-04-06T05:47:09.999Z</time></trkpt><trkpt lat="44.34874939391432" lon="9.16307929034305"><ele>183.0</ele><time>2026-04-06T05:47:10.999Z</time></trkpt><trkpt lat="44.34879795949871" lon="9.16290575308116"><ele>183.0</ele><time>2026-04-06T05:47:11.999Z</time></trkpt><trkpt lat="44.34887276325798" lon="9.162756066347267"><ele>180.75</ele><time>2026-04-06T05:47:12.999Z</time></trkpt><trkpt lat="44.34897210137829" lon="9.162618862999105"><ele>178.5</ele><time>2026-04-06T05:47:13.999Z</time></trkpt><trkpt lat="44.34908181269872" lon="9.16249743943224"><ele>176.25</ele><time>2026-04-06T05:47:14.999Z</time></trkpt><trkpt lat="44.3491807888388" lon="9.162363127193958"><ele>174.0</ele><time>2026-04-06T05:47:15.999Z</time></trkpt><trkpt lat="44.349279767065916" lon="9.162239400711218"><ele>174.0</ele><time>2026-04-06T05:47:16.999Z</time></trkpt><trkpt lat="44.349390637648405" lon="9.16213621959131"><ele>174.0</ele><time>2026-04-06T05:47:17.999Z</time></trkpt><trkpt lat="44.3495088909499" lon="9.16205678916121"><ele>174.0</ele><time>2026-04-06T05:47:18.999Z</time></trkpt><trkpt lat="44.34962525185754" lon="9.161987215582755"><ele>174.0</ele><time>2026-04-06T05:47:19.999Z</time></trkpt><trkpt lat="44.34971224125715" lon="9.16185492507117"><ele>179.25</ele><time>2026-04-06T05:47:20.999Z</time></trkpt><trkpt lat="44.34976644797613" lon="9.161673325272723"><ele>184.5</ele><time>2026-04-06T05:47:21.999Z</time></trkpt><trkpt lat="44.3498026949616" lon="9.161480662101104"><ele>189.75</ele><time>2026-04-06T05:47:22.999Z</time></trkpt><trkpt lat="44.34983292674477" lon="9.16128888301309"><ele>195.0</ele><time>2026-04-06T05:47:23.999Z</time></trkpt><trkpt lat="44.34987160865169" lon="9.161101312795635"><ele>195.0</ele><time>2026-04-06T05:47:24.999Z</time></trkpt><trkpt lat="44.3499121224013" lon="9.16092007330305"><ele>195.0</ele><time>2026-04-06T05:47:25.999Z</time></trkpt><trkpt lat="44.34994157184511" lon="9.160744948341693"><ele>195.0</ele><time>2026-04-06T05:47:26.999Z</time></trkpt><trkpt lat="44.349940779965124" lon="9.16054935358795"><ele>195.0</ele><time>2026-04-06T05:47:27.999Z</time></trkpt><trkpt lat="44.3499367983015" lon="9.160372686987047"><ele>193.0</ele><time>2026-04-06T05:47:28.999Z</time></trkpt><trkpt lat="44.34990569665965" lon="9.160182440056786"><ele>191.0</ele><time>2026-04-06T05:47:29.999Z</time></trkpt><trkpt lat="44.349888305103576" lon="9.15999475013178"><ele>189.0</ele><time>2026-04-06T05:47:30.999Z</time></trkpt><trkpt lat="44.349875641244" lon="9.15981037458659"><ele>187.0</ele><time>2026-04-06T05:47:31.999Z</time></trkpt><trkpt lat="44.349877506231856" lon="9.159615206143695"><ele>185.75</ele><time>2026-04-06T05:47:32.999Z</time></trkpt><trkpt lat="44.34988793613007" lon="9.159424253272338"><ele>184.5</ele><time>2026-04-06T05:47:33.999Z</time></trkpt><trkpt lat="44.349914675583086" lon="9.15924245383564"><ele>183.25</ele><time>2026-04-06T05:47:34.999Z</time></trkpt><trkpt lat="44.349939021409064" lon="9.15907236915902"><ele>182.0</ele><time>2026-04-06T05:47:35.999Z</time></trkpt><trkpt lat="44.34996421484793" lon="9.15890033191503"><ele>177.75</ele><time>2026-04-06T05:47:36.999Z</time></trkpt><trkpt lat="44.34999849477447" lon="9.158735617937257"><ele>173.5</ele><time>2026-04-06T05:47:37.999Z</time></trkpt><trkpt lat="44.350048788111614" lon="9.158575320433592"><ele>169.25</ele><time>2026-04-06T05:47:38.999Z</time></trkpt><trkpt lat="44.3501066679588" lon="9.158412410744813"><ele>165.0</ele><time>2026-04-06T05:47:39.999Z</time></trkpt><trkpt lat="44.35016635107526" lon="9.15824441545244"><ele>165.25</ele><time>2026-04-06T05:47:40.999Z</time></trkpt><trkpt lat="44.350232401550365" lon="9.158094571600824"><ele>165.5</ele><time>2026-04-06T05:47:42Z</time></trkpt><trkpt lat="44.350325454443606" lon="9.157967023763554"><ele>165.75</ele><time>2026-04-06T05:47:43Z</time></trkpt><trkpt lat="44.35044831885387" lon="9.15784936622636"><ele>166.0</ele><time>2026-04-06T05:47:44Z</time></trkpt><trkpt lat="44.35057808605437" lon="9.157738557150564"><ele>166.0</ele><time>2026-04-06T05:47:45Z</time></trkpt><trkpt lat="44.35070758647517" lon="9.157614995414951"><ele>166.0</ele><time>2026-04-06T05:47:46Z</time></trkpt><trkpt lat="44.350823704293596" lon="9.157497906261293"><ele>166.0</ele><time>2026-04-06T05:47:47Z</time></trkpt><trkpt lat="44.350930029771625" lon="9.157386734520832"><ele>166.0</ele><time>2026-04-06T05:47:48Z</time></trkpt><trkpt lat="44.35104115546948" lon="9.157279823605473"><ele>161.5</ele><time>2026-04-06T05:47:49Z</time></trkpt><trkpt lat="44.35114553918511" lon="9.157167613064196"><ele>157.0</ele><time>2026-04-06T05:47:50Z</time></trkpt><trkpt lat="44.35124878302958" lon="9.15704906854499"><ele>152.5</ele><time>2026-04-06T05:47:51Z</time></trkpt><trkpt lat="44.35134136321" lon="9.15692837171968"><ele>148.0</ele><time>2026-04-06T05:47:52Z</time></trkpt><trkpt lat="44.35143798256357" lon="9.156815325579844"><ele>148.0</ele><time>2026-04-06T05:47:53Z</time></trkpt><trkpt lat="44.35155209835188" lon="9.156737147256388"><ele>148.0</ele><time>2026-04-06T05:47:54Z</time></trkpt><trkpt lat="44.351679441977524" lon="9.15672742897948"><ele>148.0</ele><time>2026-04-06T05:47:55Z</time></trkpt><trkpt lat="44.35181006034646" lon="9.156781691434597"><ele>148.0</ele><time>2026-04-06T05:47:56Z</time></trkpt><trkpt lat="44.351925867219634" lon="9.156872449354932"><ele>148.0</ele><time>2026-04-06T05:47:57Z</time></trkpt><trkpt lat="44.35204442366828" lon="9.156954758984854"><ele>148.0</ele><time>2026-04-06T05:47:58Z</time></trkpt><trkpt lat="44.352160414083976" lon="9.156858703111684"><ele>148.0</ele><time>2026-04-06T05:47:59Z</time></trkpt><trkpt lat="44.352288504288644" lon="9.156768452861044"><ele>148.0</ele><time>2026-04-06T05:48:00Z</time></trkpt><trkpt lat="44.35239623585649" lon="9.156618540155467"><ele>143.75</ele><time>2026-04-06T05:48:01Z</time></trkpt><trkpt lat="44.352486391318266" lon="9.156453819638461"><ele>139.5</ele><time>2026-04-06T05:48:02Z</time></trkpt><trkpt lat="44.35257316024168" lon="9.156305451590772"><ele>135.25</ele><time>2026-04-06T05:48:03Z</time></trkpt><trkpt lat="44.35267128882743" lon="9.1561704239861"><ele>131.0</ele><time>2026-04-06T05:48:04Z</time></trkpt><trkpt lat="44.35277470710516" lon="9.15604110566113"><ele>131.0</ele><time>2026-04-06T05:48:05Z</time></trkpt><trkpt lat="44.352880442115016" lon="9.15591653265544"><ele>131.0</ele><time>2026-04-06T05:48:06Z</time></trkpt><trkpt lat="44.35299476138088" lon="9.155808556204198"><ele>131.0</ele><time>2026-04-06T05:48:07Z</time></trkpt><trkpt lat="44.35311976708905" lon="9.15572424924674"><ele>131.0</ele><time>2026-04-06T05:48:08Z</time></trkpt><trkpt lat="44.35324076654693" lon="9.155637947341635"><ele>130.25</ele><time>2026-04-06T05:48:09Z</time></trkpt><trkpt lat="44.35334481191118" lon="9.155511908457708"><ele>129.5</ele><time>2026-04-06T05:48:10Z</time></trkpt><trkpt lat="44.353429373238235" lon="9.155347529752241"><ele>128.75</ele><time>2026-04-06T05:48:11Z</time></trkpt><trkpt lat="44.353502347566035" lon="9.155175916995725"><ele>128.0</ele><time>2026-04-06T05:48:12Z</time></trkpt><trkpt lat="44.35360429634371" lon="9.15503017082523"><ele>128.0</ele><time>2026-04-06T05:48:13Z</time></trkpt><trkpt lat="44.35372200992264" lon="9.15490093257498"><ele>128.0</ele><time>2026-04-06T05:48:14Z</time></trkpt><trkpt lat="44.353844583270224" lon="9.154781781265957"><ele>128.0</ele><time>2026-04-06T05:48:15Z</time></trkpt><trkpt lat="44.35396283613844" lon="9.154674272015074"><ele>128.0</ele><time>2026-04-06T05:48:16Z</time></trkpt><trkpt lat="44.354075585789936" lon="9.154572183312741"><ele>126.75</ele><time>2026-04-06T05:48:17Z</time></trkpt><trkpt lat="44.35418686605048" lon="9.154477862460555"><ele>125.5</ele><time>2026-04-06T05:48:18Z</time></trkpt><trkpt lat="44.354290106159524" lon="9.154378981829055"><ele>124.25</ele><time>2026-04-06T05:48:19Z</time></trkpt><trkpt lat="44.354387734690924" lon="9.154277760220825"><ele>123.0</ele><time>2026-04-06T05:48:20Z</time></trkpt><trkpt lat="44.35448644058923" lon="9.154196705270833"><ele>123.0</ele><time>2026-04-06T05:48:21Z</time></trkpt><trkpt lat="44.354594560924184" lon="9.154158821859887"><ele>123.0</ele><time>2026-04-06T05:48:22Z</time></trkpt><trkpt lat="44.354710666131595" lon="9.154184558107184"><ele>123.0</ele><time>2026-04-06T05:48:23Z</time></trkpt><trkpt lat="44.35482439554356" lon="9.154291598250243"><ele>123.0</ele><time>2026-04-06T05:48:24Z</time></trkpt><trkpt lat="44.35492633439571" lon="9.154414068748064"><ele>121.5</ele><time>2026-04-06T05:48:25Z</time></trkpt><trkpt lat="44.35502396867366" lon="9.154583343604642"><ele>120.0</ele><time>2026-04-06T05:48:26Z</time></trkpt><trkpt lat="44.355104296579704" lon="9.154730634313301"><ele>118.5</ele><time>2026-04-06T05:48:27Z</time></trkpt><trkpt lat="44.355189122621404" lon="9.154860063620127"><ele>117.0</ele><time>2026-04-06T05:48:28Z</time></trkpt><trkpt lat="44.35526440759641" lon="9.154994237603526"><ele>121.75</ele><time>2026-04-06T05:48:29Z</time></trkpt><trkpt lat="44.35531677090237" lon="9.155149885843755"><ele>126.5</ele><time>2026-04-06T05:48:30Z</time></trkpt><trkpt lat="44.35535782141763" lon="9.155319628644792"><ele>131.25</ele><time>2026-04-06T05:48:31Z</time></trkpt><trkpt lat="44.35539629258881" lon="9.155472809017036"><ele>136.0</ele><time>2026-04-06T05:48:32Z</time></trkpt><trkpt lat="44.35548999547775" lon="9.155572315181926"><ele>131.25</ele><time>2026-04-06T05:48:33Z</time></trkpt><trkpt lat="44.35562770021939" lon="9.155590017153077"><ele>126.5</ele><time>2026-04-06T05:48:34Z</time></trkpt><trkpt lat="44.35575939783018" lon="9.155531948573008"><ele>121.75</ele><time>2026-04-06T05:48:35Z</time></trkpt><trkpt lat="44.35586915384548" lon="9.155409485901332"><ele>117.0</ele><time>2026-04-06T05:48:36Z</time></trkpt><trkpt lat="44.35595269172851" lon="9.15524944968506"><ele>117.0</ele><time>2026-04-06T05:48:37Z</time></trkpt><trkpt lat="44.356040911821886" lon="9.155100880095533"><ele>117.0</ele><time>2026-04-06T05:48:38Z</time></trkpt><trkpt lat="44.35613076252184" lon="9.154956717988766"><ele>117.0</ele><time>2026-04-06T05:48:38.999Z</time></trkpt><trkpt lat="44.35621206601496" lon="9.154803312841269"><ele>117.0</ele><time>2026-04-06T05:48:39.999Z</time></trkpt><trkpt lat="44.356280002003466" lon="9.154635738547384"><ele>117.0</ele><time>2026-04-06T05:48:40.999Z</time></trkpt><trkpt lat="44.356345000425634" lon="9.15446860163701"><ele>117.0</ele><time>2026-04-06T05:48:41.999Z</time></trkpt><trkpt lat="44.35640380459375" lon="9.15429646733837"><ele>117.0</ele><time>2026-04-06T05:48:42.999Z</time></trkpt><trkpt lat="44.35644752099974" lon="9.15411302550878"><ele>117.0</ele><time>2026-04-06T05:48:43.999Z</time></trkpt><trkpt lat="44.35647098684102" lon="9.153912429165127"><ele>114.25</ele><time>2026-04-06T05:48:44.999Z</time></trkpt><trkpt lat="44.356487911844944" lon="9.153709130007215"><ele>111.5</ele><time>2026-04-06T05:48:45.999Z</time></trkpt><trkpt lat="44.35650682084096" lon="9.153503097331907"><ele>108.75</ele><time>2026-04-06T05:48:46.999Z</time></trkpt><trkpt lat="44.35652599519237" lon="9.153293538970178"><ele>106.0</ele><time>2026-04-06T05:48:47.999Z</time></trkpt><trkpt lat="44.356546235975095" lon="9.153082634521434"><ele>104.25</ele><time>2026-04-06T05:48:48.999Z</time></trkpt><trkpt lat="44.356564751742994" lon="9.15287198591918"><ele>102.5</ele><time>2026-04-06T05:48:49.999Z</time></trkpt><trkpt lat="44.35657891690252" lon="9.152662344225751"><ele>100.75</ele><time>2026-04-06T05:48:50.999Z</time></trkpt><trkpt lat="44.35658305611994" lon="9.152461966530124"><ele>99.0</ele><time>2026-04-06T05:48:51.999Z</time></trkpt><trkpt lat="44.356576434383825" lon="9.152262759752901"><ele>97.0</ele><time>2026-04-06T05:48:52.999Z</time></trkpt><trkpt lat="44.35656547213611" lon="9.152067658623393"><ele>95.0</ele><time>2026-04-06T05:48:53.999Z</time></trkpt><trkpt lat="44.35656366780918" lon="9.151877315363068"><ele>93.0</ele><time>2026-04-06T05:48:54.999Z</time></trkpt><trkpt lat="44.35658928667747" lon="9.151692281513368"><ele>91.0</ele><time>2026-04-06T05:48:55.999Z</time></trkpt><trkpt lat="44.35663287718356" lon="9.151509533296585"><ele>90.0</ele><time>2026-04-06T05:48:56.999Z</time></trkpt><trkpt lat="44.35667017191909" lon="9.151319416017785"><ele>89.0</ele><time>2026-04-06T05:48:57.999Z</time></trkpt><trkpt lat="44.356682794355045" lon="9.15110749593525"><ele>88.0</ele><time>2026-04-06T05:48:58.999Z</time></trkpt><trkpt lat="44.35668389937516" lon="9.150890132395954"><ele>87.0</ele><time>2026-04-06T05:48:59.999Z</time></trkpt><trkpt lat="44.35668310109578" lon="9.150679337949622"><ele>86.0</ele><time>2026-04-06T05:49:00.999Z</time></trkpt><trkpt lat="44.35668010309021" lon="9.150473098146044"><ele>85.0</ele><time>2026-04-06T05:49:01.999Z</time></trkpt><trkpt lat="44.35668471517151" lon="9.150269616958665"><ele>84.0</ele><time>2026-04-06T05:49:02.999Z</time></trkpt><trkpt lat="44.35668797016025" lon="9.150062541675277"><ele>83.0</ele><time>2026-04-06T05:49:03.999Z</time></trkpt><trkpt lat="44.356687093759525" lon="9.149860456680262"><ele>80.75</ele><time>2026-04-06T05:49:04.999Z</time></trkpt><trkpt lat="44.35668593224948" lon="9.14966253988337"><ele>78.5</ele><time>2026-04-06T05:49:05.999Z</time></trkpt><trkpt lat="44.3566924745647" lon="9.14946440401331"><ele>76.25</ele><time>2026-04-06T05:49:06.999Z</time></trkpt><trkpt lat="44.35671333723561" lon="9.149271538750138"><ele>74.0</ele><time>2026-04-06T05:49:07.999Z</time></trkpt><trkpt lat="44.35674637617216" lon="9.14907896032236"><ele>71.75</ele><time>2026-04-06T05:49:08.999Z</time></trkpt><trkpt lat="44.35678271713565" lon="9.14890018826201"><ele>69.5</ele><time>2026-04-06T05:49:09.999Z</time></trkpt><trkpt lat="44.35683026754605" lon="9.148722485785777"><ele>67.25</ele><time>2026-04-06T05:49:10.999Z</time></trkpt><trkpt lat="44.356868121335474" lon="9.14853880738473"><ele>65.0</ele><time>2026-04-06T05:49:11.999Z</time></trkpt><trkpt lat="44.35688028971133" lon="9.14835460966419"><ele>64.0</ele><time>2026-04-06T05:49:12.999Z</time></trkpt><trkpt lat="44.356869586471824" lon="9.148172938535549"><ele>63.0</ele><time>2026-04-06T05:49:13.999Z</time></trkpt><trkpt lat="44.356845288054814" lon="9.148009854966606"><ele>62.0</ele><time>2026-04-06T05:49:14.999Z</time></trkpt><trkpt lat="44.35681857902437" lon="9.147850276186771"><ele>61.0</ele><time>2026-04-06T05:49:15.999Z</time></trkpt><trkpt lat="44.356801018677466" lon="9.147690670982525"><ele>61.0</ele><time>2026-04-06T05:49:16.999Z</time></trkpt><trkpt lat="44.356818818695714" lon="9.147533217455278"><ele>61.0</ele><time>2026-04-06T05:49:17.999Z</time></trkpt><trkpt lat="44.35687479831108" lon="9.14737685386056"><ele>61.0</ele><time>2026-04-06T05:49:18.999Z</time></trkpt><trkpt lat="44.35695794525346" lon="9.147233803791096"><ele>61.0</ele><time>2026-04-06T05:49:19.999Z</time></trkpt><trkpt lat="44.35703414302794" lon="9.147103041693953"><ele>60.5</ele><time>2026-04-06T05:49:20.999Z</time></trkpt><trkpt lat="44.357103727484954" lon="9.146967220079349"><ele>60.0</ele><time>2026-04-06T05:49:21.999Z</time></trkpt><trkpt lat="44.357174870659435" lon="9.146837698116784"><ele>59.5</ele><time>2026-04-06T05:49:22.999Z</time></trkpt><trkpt lat="44.357264413306716" lon="9.146722073975145"><ele>59.0</ele><time>2026-04-06T05:49:23.999Z</time></trkpt><trkpt lat="44.357371914217325" lon="9.146636059332062"><ele>59.0</ele><time>2026-04-06T05:49:24.999Z</time></trkpt><trkpt lat="44.35748160210348" lon="9.146550089578886"><ele>59.0</ele><time>2026-04-06T05:49:25.999Z</time></trkpt><trkpt lat="44.35757842083437" lon="9.146445634653928"><ele>59.0</ele><time>2026-04-06T05:49:26.999Z</time></trkpt><trkpt lat="44.35764943377665" lon="9.146306415742808"><ele>59.0</ele><time>2026-04-06T05:49:27.999Z</time></trkpt><trkpt lat="44.35770671863413" lon="9.146152792917484"><ele>55.75</ele><time>2026-04-06T05:49:28.999Z</time></trkpt><trkpt lat="44.3577647739546" lon="9.14600737960351"><ele>52.5</ele><time>2026-04-06T05:49:29.999Z</time></trkpt><trkpt lat="44.35785526283364" lon="9.145907921128892"><ele>49.25</ele><time>2026-04-06T05:49:30.999Z</time></trkpt><trkpt lat="44.35796328349261" lon="9.145838224443073"><ele>46.0</ele><time>2026-04-06T05:49:31.999Z</time></trkpt><trkpt lat="44.3580746118871" lon="9.14582853259408"><ele>46.0</ele><time>2026-04-06T05:49:32.999Z</time></trkpt><trkpt lat="44.358191793937415" lon="9.145867574193504"><ele>46.0</ele><time>2026-04-06T05:49:33.999Z</time></trkpt><trkpt lat="44.35828985277868" lon="9.145928942119236"><ele>46.0</ele><time>2026-04-06T05:49:34.999Z</time></trkpt><trkpt lat="44.3583886325164" lon="9.146007413107007"><ele>46.0</ele><time>2026-04-06T05:49:35.999Z</time></trkpt><trkpt lat="44.358488017559274" lon="9.146065374508384"><ele>46.0</ele><time>2026-04-06T05:49:36.999Z</time></trkpt><trkpt lat="44.35858491076944" lon="9.146127913709563"><ele>46.0</ele><time>2026-04-06T05:49:37.999Z</time></trkpt><trkpt lat="44.35866917287914" lon="9.14621277381069"><ele>46.0</ele><time>2026-04-06T05:49:38.999Z</time></trkpt><trkpt lat="44.35873561057132" lon="9.146327433688926"><ele>46.0</ele><time>2026-04-06T05:49:39.999Z</time></trkpt><trkpt lat="44.35875333297995" lon="9.146482973491791"><ele>46.0</ele><time>2026-04-06T05:49:40.999Z</time></trkpt><trkpt lat="44.358739171065636" lon="9.146644818203775"><ele>46.0</ele><time>2026-04-06T05:49:41.999Z</time></trkpt><trkpt lat="44.358705040427154" lon="9.146808241463738"><ele>48.25</ele><time>2026-04-06T05:49:42.999Z</time></trkpt><trkpt lat="44.35867300294588" lon="9.146967434883228"><ele>50.5</ele><time>2026-04-06T05:49:43.999Z</time></trkpt><trkpt lat="44.35865461519814" lon="9.147127156788933"><ele>52.75</ele><time>2026-04-06T05:49:44.999Z</time></trkpt><trkpt lat="44.35864142884984" lon="9.147288960617821"><ele>55.0</ele><time>2026-04-06T05:49:45.999Z</time></trkpt><trkpt lat="44.35863178941079" lon="9.147451353462374"><ele>56.0</ele><time>2026-04-06T05:49:46.999Z</time></trkpt><trkpt lat="44.35861292501177" lon="9.147614130471505"><ele>57.0</ele><time>2026-04-06T05:49:48Z</time></trkpt><trkpt lat="44.35859383990712" lon="9.14776348714357"><ele>58.0</ele><time>2026-04-06T05:49:49Z</time></trkpt><trkpt lat="44.3585658009926" lon="9.147905055878553"><ele>59.0</ele><time>2026-04-06T05:49:50Z</time></trkpt><trkpt lat="44.35854997066002" lon="9.148046678698634"><ele>60.0</ele><time>2026-04-06T05:49:51Z</time></trkpt><trkpt lat="44.35855246565548" lon="9.148169584590129"><ele>60.0</ele><time>2026-04-06T05:49:52Z</time></trkpt><trkpt lat="44.35859864126699" lon="9.148262521452834"><ele>60.0</ele><time>2026-04-06T05:49:53Z</time></trkpt><trkpt lat="44.35866943157567" lon="9.148295643851768"><ele>60.0</ele><time>2026-04-06T05:49:54Z</time></trkpt><trkpt lat="44.358743371425895" lon="9.148259783463315"><ele>60.0</ele><time>2026-04-06T05:49:55Z</time></trkpt><trkpt lat="44.3587927382969" lon="9.148156579660178"><ele>60.0</ele><time>2026-04-06T05:49:56Z</time></trkpt><trkpt lat="44.35881751788445" lon="9.148026870948051"><ele>60.0</ele><time>2026-04-06T05:49:57Z</time></trkpt><trkpt lat="44.35882255828658" lon="9.14788531557081"><ele>60.0</ele><time>2026-04-06T05:49:58Z</time></trkpt><trkpt lat="44.35882976516314" lon="9.14774535579118"><ele>60.0</ele><time>2026-04-06T05:49:59Z</time></trkpt><trkpt lat="44.358845832206434" lon="9.14760542577536"><ele>60.0</ele><time>2026-04-06T05:50:00Z</time></trkpt><trkpt lat="44.358867657544934" lon="9.147460851852628"><ele>60.0</ele><time>2026-04-06T05:50:01Z</time></trkpt><trkpt lat="44.3588886078415" lon="9.147316262887"><ele>60.0</ele><time>2026-04-06T05:50:02Z</time></trkpt><trkpt lat="44.358924025406196" lon="9.147164481793007"><ele>53.25</ele><time>2026-04-06T05:50:03Z</time></trkpt><trkpt lat="44.35898136552958" lon="9.14702336227891"><ele>46.5</ele><time>2026-04-06T05:50:04Z</time></trkpt><trkpt lat="44.35907718526477" lon="9.146910676844465"><ele>39.75</ele><time>2026-04-06T05:50:05Z</time></trkpt><trkpt lat="44.35918355666783" lon="9.146810067017563"><ele>33.0</ele><time>2026-04-06T05:50:06Z</time></trkpt><trkpt lat="44.35930390970767" lon="9.146718304995717"><ele>33.0</ele><time>2026-04-06T05:50:07Z</time></trkpt><trkpt lat="44.35939705429021" lon="9.146593599835361"><ele>33.0</ele><time>2026-04-06T05:50:08Z</time></trkpt><trkpt lat="44.359450301590414" lon="9.14644297168792"><ele>33.0</ele><time>2026-04-06T05:50:09Z</time></trkpt><trkpt lat="44.35947135112262" lon="9.14627173673906"><ele>33.0</ele><time>2026-04-06T05:50:10Z</time></trkpt><trkpt lat="44.359498910627615" lon="9.14610515073433"><ele>34.0</ele><time>2026-04-06T05:50:11Z</time></trkpt><trkpt lat="44.359560677034345" lon="9.14595590546887"><ele>35.0</ele><time>2026-04-06T05:50:12Z</time></trkpt><trkpt lat="44.35966532420057" lon="9.145831470898827"><ele>36.0</ele><time>2026-04-06T05:50:13Z</time></trkpt><trkpt lat="44.359791886314056" lon="9.145739371932263"><ele>37.0</ele><time>2026-04-06T05:50:14Z</time></trkpt><trkpt lat="44.359909877446874" lon="9.145666369648449"><ele>37.0</ele><time>2026-04-06T05:50:15Z</time></trkpt><trkpt lat="44.36001762477017" lon="9.145578830718348"><ele>37.0</ele><time>2026-04-06T05:50:16Z</time></trkpt><trkpt lat="44.36012605326551" lon="9.145491947774241"><ele>37.0</ele><time>2026-04-06T05:50:17Z</time></trkpt><trkpt lat="44.36023185974055" lon="9.145407387995846"><ele>37.0</ele><time>2026-04-06T05:50:18Z</time></trkpt><trkpt lat="44.36034312359158" lon="9.145343115517804"><ele>37.0</ele><time>2026-04-06T05:50:19Z</time></trkpt><trkpt lat="44.36045269661289" lon="9.145280351684221"><ele>37.0</ele><time>2026-04-06T05:50:20Z</time></trkpt><trkpt lat="44.360559316192905" lon="9.14522563614878"><ele>37.0</ele><time>2026-04-06T05:50:21Z</time></trkpt><trkpt lat="44.36067231254931" lon="9.145169091066565"><ele>37.0</ele><time>2026-04-06T05:50:22Z</time></trkpt><trkpt lat="44.36078061972761" lon="9.14510226598959"><ele>32.75</ele><time>2026-04-06T05:50:23Z</time></trkpt><trkpt lat="44.36088099274405" lon="9.145024434693653"><ele>28.5</ele><time>2026-04-06T05:50:24Z</time></trkpt><trkpt lat="44.36096450368841" lon="9.144919024362908"><ele>24.25</ele><time>2026-04-06T05:50:25Z</time></trkpt><trkpt lat="44.361019999276465" lon="9.144779559832841"><ele>20.0</ele><time>2026-04-06T05:50:25.999Z</time></trkpt><trkpt lat="44.36106587416193" lon="9.144626601558006"><ele>20.0</ele><time>2026-04-06T05:50:26.999Z</time></trkpt><trkpt lat="44.361107636365006" lon="9.14448010801226"><ele>20.0</ele><time>2026-04-06T05:50:27.999Z</time></trkpt><trkpt lat="44.36115365863071" lon="9.144331035918903"><ele>20.0</ele><time>2026-04-06T05:50:28.999Z</time></trkpt><trkpt lat="44.36119752582956" lon="9.144197239219466"><ele>20.0</ele><time>2026-04-06T05:50:29.999Z</time></trkpt><trkpt lat="44.36123361709352" lon="9.144101229441151"><ele>20.0</ele><time>2026-04-06T05:50:30.999Z</time></trkpt><trkpt lat="44.361264837765894" lon="9.1440174625451"><ele>18.666666666666668</ele><time>2026-04-06T05:50:31.999Z</time></trkpt><trkpt lat="44.361305675967344" lon="9.143915561672436"><ele>17.333333333333336</ele><time>2026-04-06T05:50:33.999Z</time></trkpt><trkpt lat="44.361351283041216" lon="9.143846809134239"><ele>16.0</ele><time>2026-04-06T05:50:36.999Z</time></trkpt><trkpt lat="44.36142817398722" lon="9.143817522490194"><ele>14.666666666666668</ele><time>2026-04-06T05:51:15.999Z</time></trkpt><trkpt lat="44.36149417783114" lon="9.14380844842404"><ele>13.333333333333334</ele><time>2026-04-06T05:51:16.999Z</time></trkpt><trkpt lat="44.361563892298236" lon="9.143856961517075"><ele>12.0</ele><time>2026-04-06T05:51:17.999Z</time></trkpt><trkpt lat="44.36163086639077" lon="9.143946610826063"><ele>11.5</ele><time>2026-04-06T05:51:18.999Z</time></trkpt><trkpt lat="44.36169436064049" lon="9.14399874845"><ele>11.0</ele><time>2026-04-06T05:51:19.999Z</time></trkpt><trkpt lat="44.36177081517343" lon="9.144000512235475"><ele>10.5</ele><time>2026-04-06T05:51:20.999Z</time></trkpt><trkpt lat="44.36186658672604" lon="9.144048124903753"><ele>10.0</ele><time>2026-04-06T05:51:22.999Z</time></trkpt><trkpt lat="44.36193300468806" lon="9.144079485611904"><ele>9.5</ele><time>2026-04-06T05:51:25.999Z</time></trkpt><trkpt lat="44.36204399392509" lon="9.14413445090191"><ele>9.0</ele><time>2026-04-06T05:51:42.999Z</time></trkpt><trkpt lat="44.36210983697288" lon="9.144174785494943"><ele>9.0</ele><time>2026-04-06T05:51:43.999Z</time></trkpt><trkpt lat="44.36218186683042" lon="9.144230811103846"><ele>9.0</ele><time>2026-04-06T05:51:44.999Z</time></trkpt><trkpt lat="44.36225018224252" lon="9.14428340536359"><ele>9.0</ele><time>2026-04-06T05:51:45.999Z</time></trkpt><trkpt lat="44.36231969398247" lon="9.14433891353108"><ele>9.0</ele><time>2026-04-06T05:51:46.999Z</time></trkpt><trkpt lat="44.362380547686826" lon="9.144411296653635"><ele>9.0</ele><time>2026-04-06T05:51:47.999Z</time></trkpt><trkpt lat="44.36244552881723" lon="9.144482785410704"><ele>9.0</ele><time>2026-04-06T05:51:48.999Z</time></trkpt><trkpt lat="44.36251900488713" lon="9.144542244704478"><ele>9.0</ele><time>2026-04-06T05:51:49.999Z</time></trkpt><trkpt lat="44.36261594010721" lon="9.144567114818285"><ele>9.0</ele><time>2026-04-06T05:51:50.999Z</time></trkpt><trkpt lat="44.36272796864319" lon="9.144579508379342"><ele>9.0</ele><time>2026-04-06T05:51:51.999Z</time></trkpt><trkpt lat="44.36282697885978" lon="9.14463054768963"><ele>9.0</ele><time>2026-04-06T05:51:52.999Z</time></trkpt><trkpt lat="44.36292119426611" lon="9.144715448982737"><ele>9.0</ele><time>2026-04-06T05:51:54Z</time></trkpt><trkpt lat="44.36300581283156" lon="9.144777727192867"><ele>8.75</ele><time>2026-04-06T05:51:55Z</time></trkpt><trkpt lat="44.36310068205409" lon="9.144839855752652"><ele>8.5</ele><time>2026-04-06T05:51:56Z</time></trkpt><trkpt lat="44.3632073034029" lon="9.144903086361547"><ele>8.25</ele><time>2026-04-06T05:51:57Z</time></trkpt><trkpt lat="44.36331058678828" lon="9.144987356142765"><ele>8.0</ele><time>2026-04-06T05:51:58Z</time></trkpt><trkpt lat="44.363412735906365" lon="9.145086277567474"><ele>8.0</ele><time>2026-04-06T05:51:59Z</time></trkpt><trkpt lat="44.36350662522438" lon="9.145199713827921"><ele>8.0</ele><time>2026-04-06T05:52:00Z</time></trkpt><trkpt lat="44.36359294021654" lon="9.145332925278451"><ele>8.0</ele><time>2026-04-06T05:52:01Z</time></trkpt><trkpt lat="44.363684031183595" lon="9.145474059189105"><ele>8.0</ele><time>2026-04-06T05:52:02Z</time></trkpt><trkpt lat="44.36377562522673" lon="9.145615311570632"><ele>7.75</ele><time>2026-04-06T05:52:03Z</time></trkpt><trkpt lat="44.36387154278115" lon="9.145768694809489"><ele>7.5</ele><time>2026-04-06T05:52:04Z</time></trkpt><trkpt lat="44.363967824733486" lon="9.14591628686647"><ele>7.25</ele><time>2026-04-06T05:52:05Z</time></trkpt><trkpt lat="44.36405722526127" lon="9.146046768726336"><ele>7.0</ele><time>2026-04-06T05:52:06Z</time></trkpt><trkpt lat="44.364144785058635" lon="9.146158852291276"><ele>7.0</ele><time>2026-04-06T05:52:07Z</time></trkpt><trkpt lat="44.36420696166882" lon="9.146272409159492"><ele>6.999999999999999</ele><time>2026-04-06T05:52:08Z</time></trkpt><trkpt lat="44.364268852043026" lon="9.146398316386096"><ele>6.999999999999999</ele><time>2026-04-06T05:52:09Z</time></trkpt><trkpt lat="44.364337980316634" lon="9.14650168160246"><ele>7.0</ele><time>2026-04-06T05:52:10Z</time></trkpt><trkpt lat="44.3644186178067" lon="9.146608235102637"><ele>7.0</ele><time>2026-04-06T05:52:11Z</time></trkpt><trkpt lat="44.36450870699428" lon="9.14669809906651"><ele>7.25</ele><time>2026-04-06T05:52:12Z</time></trkpt><trkpt lat="44.36460735639505" lon="9.146768933540814"><ele>7.5</ele><time>2026-04-06T05:52:13Z</time></trkpt><trkpt lat="44.36470724987253" lon="9.14682633891629"><ele>7.75</ele><time>2026-04-06T05:52:14Z</time></trkpt><trkpt lat="44.36481529841162" lon="9.146867535277595"><ele>8.0</ele><time>2026-04-06T05:52:15Z</time></trkpt><trkpt lat="44.36493421924849" lon="9.146884776724209"><ele>8.0</ele><time>2026-04-06T05:52:16Z</time></trkpt><trkpt lat="44.3650525487903" lon="9.146875440609044"><ele>8.0</ele><time>2026-04-06T05:52:17Z</time></trkpt><trkpt lat="44.36517819933638" lon="9.146850837217372"><ele>8.0</ele><time>2026-04-06T05:52:18Z</time></trkpt><trkpt lat="44.36530475708121" lon="9.146812485843727"><ele>8.0</ele><time>2026-04-06T05:52:19Z</time></trkpt><trkpt lat="44.3654291472597" lon="9.146792053227312"><ele>7.75</ele><time>2026-04-06T05:52:20Z</time></trkpt><trkpt lat="44.36556276215235" lon="9.146783155242181"><ele>7.5</ele><time>2026-04-06T05:52:21Z</time></trkpt><trkpt lat="44.36569585412237" lon="9.14676471154916"><ele>7.25</ele><time>2026-04-06T05:52:22Z</time></trkpt><trkpt lat="44.365824801682926" lon="9.146737110982576"><ele>7.0</ele><time>2026-04-06T05:52:23Z</time></trkpt><trkpt lat="44.365943187662374" lon="9.146720757352961"><ele>7.0</ele><time>2026-04-06T05:52:24Z</time></trkpt><trkpt lat="44.36605146465062" lon="9.146706572348691"><ele>6.999999999999999</ele><time>2026-04-06T05:52:25Z</time></trkpt><trkpt lat="44.366154093325775" lon="9.146692264448186"><ele>6.999999999999999</ele><time>2026-04-06T05:52:26Z</time></trkpt><trkpt lat="44.366262648445826" lon="9.146673309636878"><ele>7.0</ele><time>2026-04-06T05:52:27Z</time></trkpt><trkpt lat="44.366374748261066" lon="9.146644736395626"><ele>7.0</ele><time>2026-04-06T05:52:28Z</time></trkpt><trkpt lat="44.36649735579912" lon="9.146631820334157"><ele>7.0</ele><time>2026-04-06T05:52:29Z</time></trkpt><trkpt lat="44.366615568109566" lon="9.14661065897353"><ele>7.0</ele><time>2026-04-06T05:52:30Z</time></trkpt><trkpt lat="44.36672840818984" lon="9.14657903729717"><ele>7.0</ele><time>2026-04-06T05:52:31Z</time></trkpt><trkpt lat="44.36685202661964" lon="9.146570522064179"><ele>7.0</ele><time>2026-04-06T05:52:32Z</time></trkpt><trkpt lat="44.36697012120695" lon="9.146552082769933"><ele>7.0</ele><time>2026-04-06T05:52:33Z</time></trkpt><trkpt lat="44.36709068978006" lon="9.146550125911382"><ele>7.0</ele><time>2026-04-06T05:52:34Z</time></trkpt><trkpt lat="44.367204914458945" lon="9.146577576969888"><ele>7.0</ele><time>2026-04-06T05:52:35Z</time></trkpt><trkpt lat="44.36731263332249" lon="9.146619152533763"><ele>7.0</ele><time>2026-04-06T05:52:36Z</time></trkpt><trkpt lat="44.36740992394336" lon="9.146675123941996"><ele>7.3999999999999995</ele><time>2026-04-06T05:52:37Z</time></trkpt><trkpt lat="44.367493823262016" lon="9.146735114294893"><ele>7.799999999999999</ele><time>2026-04-06T05:52:38Z</time></trkpt><trkpt lat="44.36757848035455" lon="9.146812916949076"><ele>8.2</ele><time>2026-04-06T05:52:39Z</time></trkpt><trkpt lat="44.367655458332294" lon="9.146891711687166"><ele>8.6</ele><time>2026-04-06T05:52:40Z</time></trkpt><trkpt lat="44.367729907809135" lon="9.14698389457169"><ele>9.0</ele><time>2026-04-06T05:52:41Z</time></trkpt><trkpt lat="44.36779062834473" lon="9.147091699935919"><ele>9.0</ele><time>2026-04-06T05:52:42Z</time></trkpt><trkpt lat="44.367846232297865" lon="9.147200962103314"><ele>9.0</ele><time>2026-04-06T05:52:43Z</time></trkpt><trkpt lat="44.36789402018941" lon="9.147301113919534"><ele>9.0</ele><time>2026-04-06T05:52:44Z</time></trkpt><trkpt lat="44.367936593509796" lon="9.14738612564736"><ele>9.0</ele><time>2026-04-06T05:52:45Z</time></trkpt><trkpt lat="44.36799172344685" lon="9.147488015620677"><ele>9.0</ele><time>2026-04-06T05:52:46.999Z</time></trkpt><trkpt lat="44.368053768949395" lon="9.147575053009275"><ele>9.0</ele><time>2026-04-06T05:52:48.999Z</time></trkpt><trkpt lat="44.36815322960921" lon="9.147565969837979"><ele>8.666666666666666</ele><time>2026-04-06T05:52:50.999Z</time></trkpt><trkpt lat="44.36820599167352" lon="9.147503890695901"><ele>8.333333333333334</ele><time>2026-04-06T05:52:51.999Z</time></trkpt><trkpt lat="44.368281389067974" lon="9.147415437140964"><ele>8.0</ele><time>2026-04-06T05:52:53.999Z</time></trkpt><trkpt lat="44.36827997628575" lon="9.147282298409664"><ele>7.666666666666667</ele><time>2026-04-06T05:52:55.999Z</time></trkpt><trkpt lat="44.368228545594384" lon="9.147180898670397"><ele>7.333333333333334</ele><time>2026-04-06T05:52:56.999Z</time></trkpt><trkpt lat="44.36817635875027" lon="9.147080415337793"><ele>7.0</ele><time>2026-04-06T05:52:57.999Z</time></trkpt><trkpt lat="44.36812542008508" lon="9.146966786488589"><ele>7.5</ele><time>2026-04-06T05:52:58.999Z</time></trkpt><trkpt lat="44.36806436149607" lon="9.146843431117091"><ele>8.0</ele><time>2026-04-06T05:52:59.999Z</time></trkpt><trkpt lat="44.3680013371066" lon="9.146713151563667"><ele>8.5</ele><time>2026-04-06T05:53:00.999Z</time></trkpt><trkpt lat="44.3679272054781" lon="9.146581697861022"><ele>9.0</ele><time>2026-04-06T05:53:01.999Z</time></trkpt><trkpt lat="44.36785420083921" lon="9.146463959412303"><ele>11.25</ele><time>2026-04-06T05:53:02.999Z</time></trkpt><trkpt lat="44.36776513898824" lon="9.146346387376548"><ele>13.5</ele><time>2026-04-06T05:53:03.999Z</time></trkpt><trkpt lat="44.36766220513332" lon="9.146242288589972"><ele>15.75</ele><time>2026-04-06T05:53:04.999Z</time></trkpt><trkpt lat="44.36755817425896" lon="9.146142215713928"><ele>18.0</ele><time>2026-04-06T05:53:05.999Z</time></trkpt><trkpt lat="44.367437813205754" lon="9.146075824452058"><ele>18.0</ele><time>2026-04-06T05:53:06.999Z</time></trkpt><trkpt lat="44.36731511660612" lon="9.146020687269557"><ele>18.0</ele><time>2026-04-06T05:53:07.999Z</time></trkpt><trkpt lat="44.36718506461165" lon="9.14598147758388"><ele>18.0</ele><time>2026-04-06T05:53:08.999Z</time></trkpt><trkpt lat="44.367043184530026" lon="9.145980244732913"><ele>18.0</ele><time>2026-04-06T05:53:09.999Z</time></trkpt><trkpt lat="44.36690658020891" lon="9.145997107110308"><ele>16.75</ele><time>2026-04-06T05:53:10.999Z</time></trkpt><trkpt lat="44.3667691657469" lon="9.146021959739642"><ele>15.5</ele><time>2026-04-06T05:53:11.999Z</time></trkpt><trkpt lat="44.366625649332725" lon="9.146037277188368"><ele>14.25</ele><time>2026-04-06T05:53:12.999Z</time></trkpt><trkpt lat="44.366498555078174" lon="9.146027693296208"><ele>13.0</ele><time>2026-04-06T05:53:13.999Z</time></trkpt><trkpt lat="44.3663780929306" lon="9.14598784138654"><ele>13.5</ele><time>2026-04-06T05:53:14.999Z</time></trkpt><trkpt lat="44.366273866159865" lon="9.145920631193912"><ele>14.0</ele><time>2026-04-06T05:53:15.999Z</time></trkpt><trkpt lat="44.36618095427317" lon="9.145843024965524"><ele>14.5</ele><time>2026-04-06T05:53:16.999Z</time></trkpt><trkpt lat="44.36607615445714" lon="9.145768559988538"><ele>15.0</ele><time>2026-04-06T05:53:17.999Z</time></trkpt><trkpt lat="44.36596337887536" lon="9.145699260518398"><ele>15.0</ele><time>2026-04-06T05:53:18.999Z</time></trkpt><trkpt lat="44.365856351249676" lon="9.14563552034713"><ele>15.0</ele><time>2026-04-06T05:53:19.999Z</time></trkpt><trkpt lat="44.365746986374084" lon="9.145563210391458"><ele>15.0</ele><time>2026-04-06T05:53:20.999Z</time></trkpt><trkpt lat="44.365645929388506" lon="9.145509781857376"><ele>15.0</ele><time>2026-04-06T05:53:21.999Z</time></trkpt><trkpt lat="44.3655416020721" lon="9.145439435811703"><ele>13.4</ele><time>2026-04-06T05:53:22.999Z</time></trkpt><trkpt lat="44.3654315927759" lon="9.145367998718266"><ele>11.8</ele><time>2026-04-06T05:53:23.999Z</time></trkpt><trkpt lat="44.36531442489559" lon="9.14530643609768"><ele>10.2</ele><time>2026-04-06T05:53:24.999Z</time></trkpt><trkpt lat="44.365232047724334" lon="9.145245450046655"><ele>8.6</ele><time>2026-04-06T05:53:25.999Z</time></trkpt><trkpt lat="44.36517197701577" lon="9.145215320835431"><ele>7.0</ele><time>2026-04-06T05:53:26.999Z</time></trkpt><trkpt lat="44.365143683284515" lon="9.14508579759134"><ele>7.000000000000001</ele><time>2026-04-06T05:53:28.999Z</time></trkpt><trkpt lat="44.3651756613123" lon="9.14500382477734"><ele>7.0</ele><time>2026-04-06T05:53:29.999Z</time></trkpt><trkpt lat="44.36521596921127" lon="9.144894462225817"><ele>7.0</ele><time>2026-04-06T05:53:30.999Z</time></trkpt><trkpt lat="44.365270187927585" lon="9.144808649711756"><ele>7.0</ele><time>2026-04-06T05:53:31.999Z</time></trkpt><trkpt lat="44.36529631214175" lon="9.14472706618783"><ele>7.000000000000001</ele><time>2026-04-06T05:53:32.999Z</time></trkpt><trkpt lat="44.3652378550932" lon="9.144586150875622"><ele>7.0</ele><time>2026-04-06T05:53:34.999Z</time></trkpt><trkpt lat="44.3651468196573" lon="9.1445555528676"><ele>8.399999999999999</ele><time>2026-04-06T05:53:35.999Z</time></trkpt><trkpt lat="44.36505632060923" lon="9.144509575172929"><ele>9.799999999999999</ele><time>2026-04-06T05:53:36.999Z</time></trkpt><trkpt lat="44.36497798872942" lon="9.144462548165993"><ele>11.2</ele><time>2026-04-06T05:53:37.999Z</time></trkpt><trkpt lat="44.36489180601312" lon="9.144398643632002"><ele>12.6</ele><time>2026-04-06T05:53:38.999Z</time></trkpt><trkpt lat="44.36480880879016" lon="9.144354447609457"><ele>14.0</ele><time>2026-04-06T05:53:39.999Z</time></trkpt><trkpt lat="44.36470776729023" lon="9.144310614054667"><ele>14.2</ele><time>2026-04-06T05:53:40.999Z</time></trkpt><trkpt lat="44.36462191047222" lon="9.144256884646007"><ele>14.399999999999999</ele><time>2026-04-06T05:53:41.999Z</time></trkpt><trkpt lat="44.364531523051326" lon="9.144200013714958"><ele>14.6</ele><time>2026-04-06T05:53:42.999Z</time></trkpt><trkpt lat="44.36443513700296" lon="9.144139924275585"><ele>14.8</ele><time>2026-04-06T05:53:43.999Z</time></trkpt><trkpt lat="44.36434084274638" lon="9.144078089068497"><ele>15.0</ele><time>2026-04-06T05:53:44.999Z</time></trkpt><trkpt lat="44.3642531208569" lon="9.144029053891531"><ele>15.0</ele><time>2026-04-06T05:53:45.999Z</time></trkpt><trkpt lat="44.364177123107815" lon="9.143985340251154"><ele>15.0</ele><time>2026-04-06T05:53:46.999Z</time></trkpt><trkpt lat="44.36410801698051" lon="9.143937066696548"><ele>15.0</ele><time>2026-04-06T05:53:47.999Z</time></trkpt><trkpt lat="44.36403962519388" lon="9.14389502693088"><ele>15.0</ele><time>2026-04-06T05:53:48.999Z</time></trkpt><trkpt lat="44.36397207892083" lon="9.143849243155028"><ele>15.0</ele><time>2026-04-06T05:53:49.999Z</time></trkpt><trkpt lat="44.363896279086575" lon="9.143809421412433"><ele>15.0</ele><time>2026-04-06T05:53:50.999Z</time></trkpt><trkpt lat="44.363817869546835" lon="9.143761410292319"><ele>14.166666666666666</ele><time>2026-04-06T05:53:51.999Z</time></trkpt><trkpt lat="44.36374395227115" lon="9.143715988454737"><ele>13.333333333333334</ele><time>2026-04-06T05:53:52.999Z</time></trkpt><trkpt lat="44.36367713357472" lon="9.143677090147587"><ele>12.5</ele><time>2026-04-06T05:53:53.999Z</time></trkpt><trkpt lat="44.36362161568136" lon="9.143632058795749"><ele>11.666666666666668</ele><time>2026-04-06T05:53:54.999Z</time></trkpt><trkpt lat="44.3635366657784" lon="9.143597506780884"><ele>10.833333333333334</ele><time>2026-04-06T05:53:55.999Z</time></trkpt><trkpt lat="44.36346313604961" lon="9.143549939455543"><ele>10.0</ele><time>2026-04-06T05:53:56.999Z</time></trkpt><trkpt lat="44.363391225442165" lon="9.14351172678165"><ele>10.0</ele><time>2026-04-06T05:53:57.999Z</time></trkpt><trkpt lat="44.363325321372656" lon="9.143470044478452"><ele>10.0</ele><time>2026-04-06T05:53:59Z</time></trkpt><trkpt lat="44.36326289640866" lon="9.143429570630483"><ele>10.0</ele><time>2026-04-06T05:54:00Z</time></trkpt><trkpt lat="44.363203425821844" lon="9.143389080615666"><ele>10.0</ele><time>2026-04-06T05:54:01Z</time></trkpt><trkpt lat="44.363097127799676" lon="9.143315600625035"><ele>10.0</ele><time>2026-04-06T05:54:03Z</time></trkpt><trkpt lat="44.363015146249815" lon="9.143252478230005"><ele>10.0</ele><time>2026-04-06T05:54:05Z</time></trkpt><trkpt lat="44.36295053117929" lon="9.143190695778749"><ele>9.6</ele><time>2026-04-06T05:54:41.999Z</time></trkpt><trkpt lat="44.36288076388155" lon="9.143175879606707"><ele>9.2</ele><time>2026-04-06T05:54:44.999Z</time></trkpt><trkpt lat="44.3627699907039" lon="9.143116224459085"><ele>8.8</ele><time>2026-04-06T05:54:46.999Z</time></trkpt><trkpt lat="44.36276140978944" lon="9.143016350155373"><ele>8.4</ele><time>2026-04-06T05:54:47.999Z</time></trkpt><trkpt lat="44.36278608196658" lon="9.142887846821294"><ele>8.0</ele><time>2026-04-06T05:54:48.999Z</time></trkpt><trkpt lat="44.36280545280851" lon="9.142750665525433"><ele>8.0</ele><time>2026-04-06T05:54:49.999Z</time></trkpt><trkpt lat="44.36279463087595" lon="9.14261557298441"><ele>8.0</ele><time>2026-04-06T05:54:50.999Z</time></trkpt><trkpt lat="44.3627717306879" lon="9.142481178978036"><ele>8.0</ele><time>2026-04-06T05:54:51.999Z</time></trkpt><trkpt lat="44.36274361593773" lon="9.14234551672668"><ele>8.0</ele><time>2026-04-06T05:54:52.999Z</time></trkpt><trkpt lat="44.36272672444232" lon="9.142222969171195"><ele>8.0</ele><time>2026-04-06T05:54:53.999Z</time></trkpt><trkpt lat="44.36272098582917" lon="9.14209642667439"><ele>8.4</ele><time>2026-04-06T05:54:54.999Z</time></trkpt><trkpt lat="44.36269824075272" lon="9.141981803711742"><ele>8.8</ele><time>2026-04-06T05:54:55.999Z</time></trkpt><trkpt lat="44.36265818735851" lon="9.141874885919814"><ele>9.2</ele><time>2026-04-06T05:54:56.999Z</time></trkpt><trkpt lat="44.3626305690223" lon="9.141777334912085"><ele>9.6</ele><time>2026-04-06T05:54:57.999Z</time></trkpt><trkpt lat="44.36259157414483" lon="9.141664175488582"><ele>10.0</ele><time>2026-04-06T05:54:58.999Z</time></trkpt><trkpt lat="44.36256016704123" lon="9.141501799443583"><ele>11.333333333333334</ele><time>2026-04-06T05:54:59.999Z</time></trkpt><trkpt lat="44.36251792279997" lon="9.141294851742542"><ele>12.666666666666668</ele><time>2026-04-06T05:55:00.999Z</time></trkpt><trkpt lat="44.36247106590401" lon="9.141096164789298"><ele>14.0</ele><time>2026-04-06T05:55:01.999Z</time></trkpt><trkpt lat="44.36241578862963" lon="9.140898396231595"><ele>14.0</ele><time>2026-04-06T05:55:02.999Z</time></trkpt><trkpt lat="44.362301088854025" lon="9.140725987032095"><ele>14.0</ele><time>2026-04-06T05:55:03.999Z</time></trkpt><trkpt lat="44.362177306237314" lon="9.14055529301659"><ele>14.0</ele><time>2026-04-06T05:55:04.999Z</time></trkpt><trkpt lat="44.362090379597156" lon="9.140397377058974"><ele>14.0</ele><time>2026-04-06T05:55:05.999Z</time></trkpt><trkpt lat="44.36200881353077" lon="9.140233362704064"><ele>14.0</ele><time>2026-04-06T05:55:06.999Z</time></trkpt><trkpt lat="44.36192537010102" lon="9.140061253001317"><ele>14.0</ele><time>2026-04-06T05:55:07.999Z</time></trkpt><trkpt lat="44.36184931371677" lon="9.139898178889604"><ele>14.0</ele><time>2026-04-06T05:55:08.999Z</time></trkpt><trkpt lat="44.361750195287584" lon="9.139741345928444"><ele>13.0</ele><time>2026-04-06T05:55:09.999Z</time></trkpt><trkpt lat="44.36162037164109" lon="9.139616844833787"><ele>12.0</ele><time>2026-04-06T05:55:10.999Z</time></trkpt><trkpt lat="44.36146992473212" lon="9.139483464619722"><ele>11.0</ele><time>2026-04-06T05:55:11.999Z</time></trkpt><trkpt lat="44.361329229450064" lon="9.139369903521166"><ele>11.0</ele><time>2026-04-06T05:55:12.999Z</time></trkpt><trkpt lat="44.361202642333076" lon="9.139236508189086"><ele>11.0</ele><time>2026-04-06T05:55:13.999Z</time></trkpt><trkpt lat="44.361089219410886" lon="9.139104488613507"><ele>11.0</ele><time>2026-04-06T05:55:14.999Z</time></trkpt><trkpt lat="44.36098886690169" lon="9.13894077678838"><ele>15.666666666666668</ele><time>2026-04-06T05:55:15.999Z</time></trkpt><trkpt lat="44.360908110728666" lon="9.13875949629382"><ele>20.333333333333336</ele><time>2026-04-06T05:55:16.999Z</time></trkpt><trkpt lat="44.360843553849136" lon="9.138564329880836"><ele>25.0</ele><time>2026-04-06T05:55:17.999Z</time></trkpt><trkpt lat="44.36080070840098" lon="9.1383622618991"><ele>25.75</ele><time>2026-04-06T05:55:18.999Z</time></trkpt><trkpt lat="44.360778843486294" lon="9.13816812942578"><ele>26.5</ele><time>2026-04-06T05:55:19.999Z</time></trkpt><trkpt lat="44.36077366818851" lon="9.137976363396154"><ele>27.25</ele><time>2026-04-06T05:55:20.999Z</time></trkpt><trkpt lat="44.36078520954648" lon="9.137793490016852"><ele>28.0</ele><time>2026-04-06T05:55:21.999Z</time></trkpt><trkpt lat="44.36081341763965" lon="9.137604195597813"><ele>28.0</ele><time>2026-04-06T05:55:22.999Z</time></trkpt><trkpt lat="44.360853894048155" lon="9.13741768126158"><ele>28.0</ele><time>2026-04-06T05:55:23.999Z</time></trkpt><trkpt lat="44.36089842723732" lon="9.137233626711682"><ele>28.0</ele><time>2026-04-06T05:55:24.999Z</time></trkpt><trkpt lat="44.36094575354259" lon="9.13704212073186"><ele>28.0</ele><time>2026-04-06T05:55:25.999Z</time></trkpt><trkpt lat="44.36099321662595" lon="9.13685585505018"><ele>26.25</ele><time>2026-04-06T05:55:26.999Z</time></trkpt><trkpt lat="44.361043560702804" lon="9.136672715087416"><ele>24.5</ele><time>2026-04-06T05:55:27.999Z</time></trkpt><trkpt lat="44.36110621493772" lon="9.136514438164129"><ele>22.75</ele><time>2026-04-06T05:55:28.999Z</time></trkpt><trkpt lat="44.36119468619006" lon="9.136360749741078"><ele>21.0</ele><time>2026-04-06T05:55:29.999Z</time></trkpt><trkpt lat="44.3613221142232" lon="9.136267125131942"><ele>23.0</ele><time>2026-04-06T05:55:30.999Z</time></trkpt><trkpt lat="44.36144855876761" lon="9.136166401605658"><ele>25.0</ele><time>2026-04-06T05:55:31.999Z</time></trkpt><trkpt lat="44.36157758048462" lon="9.136061737364054"><ele>27.0</ele><time>2026-04-06T05:55:32.999Z</time></trkpt><trkpt lat="44.36170670823905" lon="9.135965201196308"><ele>29.0</ele><time>2026-04-06T05:55:33.999Z</time></trkpt><trkpt lat="44.361831225992205" lon="9.135871043043778"><ele>29.0</ele><time>2026-04-06T05:55:34.999Z</time></trkpt><trkpt lat="44.3619515428887" lon="9.13577808683011"><ele>29.0</ele><time>2026-04-06T05:55:35.999Z</time></trkpt><trkpt lat="44.362064318502405" lon="9.135684115606434"><ele>29.0</ele><time>2026-04-06T05:55:36.999Z</time></trkpt><trkpt lat="44.36215567880213" lon="9.13557187082702"><ele>29.0</ele><time>2026-04-06T05:55:37.999Z</time></trkpt><trkpt lat="44.362227895159556" lon="9.13543528008758"><ele>31.4</ele><time>2026-04-06T05:55:38.999Z</time></trkpt><trkpt lat="44.36228829935886" lon="9.135296181096304"><ele>33.8</ele><time>2026-04-06T05:55:39.999Z</time></trkpt><trkpt lat="44.36233248330781" lon="9.135146541262708"><ele>36.199999999999996</ele><time>2026-04-06T05:55:40.999Z</time></trkpt><trkpt lat="44.36236063040109" lon="9.135002905729472"><ele>38.599999999999994</ele><time>2026-04-06T05:55:41.999Z</time></trkpt><trkpt lat="44.36236820905843" lon="9.134863343510576"><ele>41.0</ele><time>2026-04-06T05:55:42.999Z</time></trkpt><trkpt lat="44.36235999212167" lon="9.134719122601961"><ele>43.25</ele><time>2026-04-06T05:55:43.999Z</time></trkpt><trkpt lat="44.36234197453914" lon="9.134575615465678"><ele>45.5</ele><time>2026-04-06T05:55:44.999Z</time></trkpt><trkpt lat="44.36230517921886" lon="9.13442962853564"><ele>47.75</ele><time>2026-04-06T05:55:45.999Z</time></trkpt><trkpt lat="44.36225686158599" lon="9.13428200282896"><ele>50.0</ele><time>2026-04-06T05:55:46.999Z</time></trkpt><trkpt lat="44.36219891061409" lon="9.134131046604212"><ele>43.75</ele><time>2026-04-06T05:55:47.999Z</time></trkpt><trkpt lat="44.362149527315964" lon="9.133968415165985"><ele>37.5</ele><time>2026-04-06T05:55:48.999Z</time></trkpt><trkpt lat="44.362101788826614" lon="9.133790527035622"><ele>31.25</ele><time>2026-04-06T05:55:49.999Z</time></trkpt><trkpt lat="44.36206851607537" lon="9.133601155714327"><ele>25.0</ele><time>2026-04-06T05:55:50.999Z</time></trkpt><trkpt lat="44.36205113150172" lon="9.133401607971107"><ele>24.25</ele><time>2026-04-06T05:55:51.999Z</time></trkpt><trkpt lat="44.36205397499726" lon="9.133198424084533"><ele>23.5</ele><time>2026-04-06T05:55:52.999Z</time></trkpt><trkpt lat="44.36206386581686" lon="9.133010995860207"><ele>22.75</ele><time>2026-04-06T05:55:53.999Z</time></trkpt><trkpt lat="44.36205339215318" lon="9.13281549350507"><ele>22.0</ele><time>2026-04-06T05:55:54.999Z</time></trkpt><trkpt lat="44.362035152194636" lon="9.132618413329855"><ele>22.0</ele><time>2026-04-06T05:55:55.999Z</time></trkpt><trkpt lat="44.36201953605454" lon="9.132423084419154"><ele>22.0</ele><time>2026-04-06T05:55:56.999Z</time></trkpt><trkpt lat="44.36203905527046" lon="9.1322334265215"><ele>22.0</ele><time>2026-04-06T05:55:57.999Z</time></trkpt><trkpt lat="44.362074688511775" lon="9.132052516757122"><ele>22.0</ele><time>2026-04-06T05:55:58.999Z</time></trkpt><trkpt lat="44.3621028179932" lon="9.131871024676064"><ele>20.75</ele><time>2026-04-06T05:55:59.999Z</time></trkpt><trkpt lat="44.362115872131916" lon="9.13167732401462"><ele>19.5</ele><time>2026-04-06T05:56:00.999Z</time></trkpt><trkpt lat="44.362133362620355" lon="9.131490637600564"><ele>18.25</ele><time>2026-04-06T05:56:01.999Z</time></trkpt><trkpt lat="44.36215896522443" lon="9.131307996566639"><ele>17.0</ele><time>2026-04-06T05:56:02.999Z</time></trkpt><trkpt lat="44.362184383881385" lon="9.131133018942604"><ele>17.0</ele><time>2026-04-06T05:56:03.999Z</time></trkpt><trkpt lat="44.36222904309407" lon="9.130973643065412"><ele>17.0</ele><time>2026-04-06T05:56:05Z</time></trkpt><trkpt lat="44.362288349005425" lon="9.130824150839437"><ele>17.0</ele><time>2026-04-06T05:56:06Z</time></trkpt><trkpt lat="44.36236371122792" lon="9.130691779987435"><ele>17.0</ele><time>2026-04-06T05:56:07Z</time></trkpt><trkpt lat="44.36244993517602" lon="9.130567471078628"><ele>17.0</ele><time>2026-04-06T05:56:08Z</time></trkpt><trkpt lat="44.36252158400954" lon="9.130415991223433"><ele>17.0</ele><time>2026-04-06T05:56:09Z</time></trkpt><trkpt lat="44.36258476584242" lon="9.130259026888139"><ele>17.0</ele><time>2026-04-06T05:56:10Z</time></trkpt><trkpt lat="44.36265230270529" lon="9.130092482393305"><ele>17.0</ele><time>2026-04-06T05:56:11Z</time></trkpt><trkpt lat="44.36271735004304" lon="9.129934846653255"><ele>17.0</ele><time>2026-04-06T05:56:12Z</time></trkpt><trkpt lat="44.362784257635944" lon="9.129771924142501"><ele>17.0</ele><time>2026-04-06T05:56:13Z</time></trkpt><trkpt lat="44.36284841983812" lon="9.129607778179626"><ele>17.0</ele><time>2026-04-06T05:56:14Z</time></trkpt><trkpt lat="44.362906492970694" lon="9.12943463528927"><ele>17.0</ele><time>2026-04-06T05:56:15Z</time></trkpt><trkpt lat="44.36294517391269" lon="9.129250455285938"><ele>17.75</ele><time>2026-04-06T05:56:16Z</time></trkpt><trkpt lat="44.36295885275235" lon="9.129047380895805"><ele>18.5</ele><time>2026-04-06T05:56:17Z</time></trkpt><trkpt lat="44.3629544094429" lon="9.128843088495527"><ele>19.25</ele><time>2026-04-06T05:56:18Z</time></trkpt><trkpt lat="44.362954654956454" lon="9.12864937371743"><ele>20.0</ele><time>2026-04-06T05:56:19Z</time></trkpt><trkpt lat="44.36296605033852" lon="9.128478282723927"><ele>20.0</ele><time>2026-04-06T05:56:20Z</time></trkpt><trkpt lat="44.36299560733405" lon="9.128302429310201"><ele>20.0</ele><time>2026-04-06T05:56:21Z</time></trkpt><trkpt lat="44.3630599147008" lon="9.128135661849955"><ele>20.0</ele><time>2026-04-06T05:56:22Z</time></trkpt><trkpt lat="44.36314348395969" lon="9.127984591494553"><ele>20.0</ele><time>2026-04-06T05:56:23Z</time></trkpt><trkpt lat="44.36322985649626" lon="9.127827271332443"><ele>22.75</ele><time>2026-04-06T05:56:24Z</time></trkpt><trkpt lat="44.36331531212821" lon="9.127667874611179"><ele>25.5</ele><time>2026-04-06T05:56:25Z</time></trkpt><trkpt lat="44.36339873117881" lon="9.127500643491478"><ele>28.25</ele><time>2026-04-06T05:56:26Z</time></trkpt><trkpt lat="44.363484761912574" lon="9.127347911259019"><ele>31.0</ele><time>2026-04-06T05:56:27Z</time></trkpt><trkpt lat="44.36356825634084" lon="9.127193629670355"><ele>31.0</ele><time>2026-04-06T05:56:28Z</time></trkpt><trkpt lat="44.363646415505215" lon="9.127030558750713"><ele>31.0</ele><time>2026-04-06T05:56:29Z</time></trkpt><trkpt lat="44.36367397242711" lon="9.12683573964686"><ele>31.0</ele><time>2026-04-06T05:56:30Z</time></trkpt><trkpt lat="44.363653280546615" lon="9.126628861466026"><ele>31.0</ele><time>2026-04-06T05:56:31Z</time></trkpt><trkpt lat="44.36359915159022" lon="9.126429795571328"><ele>31.25</ele><time>2026-04-06T05:56:32Z</time></trkpt><trkpt lat="44.363535198267336" lon="9.126253313232159"><ele>31.5</ele><time>2026-04-06T05:56:33Z</time></trkpt><trkpt lat="44.363507148043716" lon="9.126077762428707"><ele>31.75</ele><time>2026-04-06T05:56:34Z</time></trkpt><trkpt lat="44.36353309754101" lon="9.125885867617596"><ele>32.0</ele><time>2026-04-06T05:56:35Z</time></trkpt><trkpt lat="44.36360692097282" lon="9.125701967591839"><ele>29.0</ele><time>2026-04-06T05:56:36Z</time></trkpt><trkpt lat="44.363654476304426" lon="9.12551971589982"><ele>26.0</ele><time>2026-04-06T05:56:37Z</time></trkpt><trkpt lat="44.3637459336641" lon="9.125409224868633"><ele>23.0</ele><time>2026-04-06T05:56:38Z</time></trkpt><trkpt lat="44.363888185427804" lon="9.12533331283134"><ele>20.0</ele><time>2026-04-06T05:56:39Z</time></trkpt><trkpt lat="44.36401518077011" lon="9.125248714227892"><ele>22.25</ele><time>2026-04-06T05:56:40Z</time></trkpt><trkpt lat="44.364109880999564" lon="9.125108549774211"><ele>24.5</ele><time>2026-04-06T05:56:41Z</time></trkpt><trkpt lat="44.36419958890209" lon="9.124939471772723"><ele>26.75</ele><time>2026-04-06T05:56:42Z</time></trkpt><trkpt lat="44.364278982885644" lon="9.12475493319412"><ele>29.0</ele><time>2026-04-06T05:56:43Z</time></trkpt><trkpt lat="44.3643350470734" lon="9.124560702247631"><ele>29.0</ele><time>2026-04-06T05:56:44Z</time></trkpt><trkpt lat="44.36439926577688" lon="9.124383151498828"><ele>29.0</ele><time>2026-04-06T05:56:45Z</time></trkpt><trkpt lat="44.36446809671785" lon="9.124211008926046"><ele>29.0</ele><time>2026-04-06T05:56:46Z</time></trkpt><trkpt lat="44.364555752486126" lon="9.124062318226345"><ele>29.0</ele><time>2026-04-06T05:56:47Z</time></trkpt><trkpt lat="44.36466194214406" lon="9.123941601216096"><ele>34.5</ele><time>2026-04-06T05:56:48Z</time></trkpt><trkpt lat="44.36479272361585" lon="9.123862016370127"><ele>40.0</ele><time>2026-04-06T05:56:49Z</time></trkpt><trkpt lat="44.36493497973438" lon="9.123809865717288"><ele>45.5</ele><time>2026-04-06T05:56:50Z</time></trkpt><trkpt lat="44.36506726489931" lon="9.123739836929373"><ele>51.0</ele><time>2026-04-06T05:56:51Z</time></trkpt><trkpt lat="44.36518153217311" lon="9.123625611273726"><ele>51.0</ele><time>2026-04-06T05:56:52Z</time></trkpt><trkpt lat="44.3652875617128" lon="9.123502139986176"><ele>51.0</ele><time>2026-04-06T05:56:53Z</time></trkpt><trkpt lat="44.36539346935421" lon="9.123391067893586"><ele>51.0</ele><time>2026-04-06T05:56:54Z</time></trkpt><trkpt lat="44.36549456281852" lon="9.123283975767112"><ele>51.0</ele><time>2026-04-06T05:56:55Z</time></trkpt><trkpt lat="44.36557002207098" lon="9.123151439630618"><ele>58.0</ele><time>2026-04-06T05:56:56Z</time></trkpt><trkpt lat="44.365608600363274" lon="9.122981347998993"><ele>65.0</ele><time>2026-04-06T05:56:57Z</time></trkpt><trkpt lat="44.36561459799551" lon="9.122792495162502"><ele>72.0</ele><time>2026-04-06T05:56:58Z</time></trkpt><trkpt lat="44.36560367941967" lon="9.122597951049"><ele>79.0</ele><time>2026-04-06T05:56:59Z</time></trkpt><trkpt lat="44.36559653231068" lon="9.122403477433716"><ele>77.25</ele><time>2026-04-06T05:57:00Z</time></trkpt><trkpt lat="44.36559737535981" lon="9.122206174400752"><ele>75.5</ele><time>2026-04-06T05:57:01Z</time></trkpt><trkpt lat="44.365592797802634" lon="9.122001667074077"><ele>73.75</ele><time>2026-04-06T05:57:02Z</time></trkpt><trkpt lat="44.36559388553875" lon="9.121806829443132"><ele>72.0</ele><time>2026-04-06T05:57:03Z</time></trkpt><trkpt lat="44.36559166078703" lon="9.121631381890031"><ele>70.25</ele><time>2026-04-06T05:57:04Z</time></trkpt><trkpt lat="44.36560341798317" lon="9.121481091502211"><ele>68.5</ele><time>2026-04-06T05:57:05Z</time></trkpt><trkpt lat="44.365667648959025" lon="9.12134859560244"><ele>66.75</ele><time>2026-04-06T05:57:06Z</time></trkpt><trkpt lat="44.36576077466311" lon="9.121214273180504"><ele>65.0</ele><time>2026-04-06T05:57:07Z</time></trkpt><trkpt lat="44.36586960059146" lon="9.121103442336572"><ele>65.0</ele><time>2026-04-06T05:57:08Z</time></trkpt><trkpt lat="44.36596143036056" lon="9.120981948850723"><ele>65.0</ele><time>2026-04-06T05:57:09Z</time></trkpt><trkpt lat="44.36601817901335" lon="9.120824820226547"><ele>65.0</ele><time>2026-04-06T05:57:10Z</time></trkpt><trkpt lat="44.36604097707103" lon="9.120648256102026"><ele>65.0</ele><time>2026-04-06T05:57:10.999Z</time></trkpt><trkpt lat="44.36604145294348" lon="9.120463604949295"><ele>67.0</ele><time>2026-04-06T05:57:11.999Z</time></trkpt><trkpt lat="44.366024236504636" lon="9.120277213932022"><ele>69.0</ele><time>2026-04-06T05:57:12.999Z</time></trkpt><trkpt lat="44.366035228109084" lon="9.120094121811718"><ele>71.0</ele><time>2026-04-06T05:57:13.999Z</time></trkpt><trkpt lat="44.36606602039803" lon="9.119914729135544"><ele>73.0</ele><time>2026-04-06T05:57:14.999Z</time></trkpt><trkpt lat="44.36610486787421" lon="9.119722451148617"><ele>66.75</ele><time>2026-04-06T05:57:15.999Z</time></trkpt><trkpt lat="44.36613487711653" lon="9.119552813514025"><ele>60.5</ele><time>2026-04-06T05:57:16.999Z</time></trkpt><trkpt lat="44.36615843981666" lon="9.119371836676805"><ele>54.25</ele><time>2026-04-06T05:57:17.999Z</time></trkpt><trkpt lat="44.36618602648637" lon="9.11918780327765"><ele>48.0</ele><time>2026-04-06T05:57:18.999Z</time></trkpt><trkpt lat="44.36621281866541" lon="9.118998586713305"><ele>42.75</ele><time>2026-04-06T05:57:19.999Z</time></trkpt><trkpt lat="44.36624165907379" lon="9.118815486258386"><ele>37.5</ele><time>2026-04-06T05:57:20.999Z</time></trkpt><trkpt lat="44.366280481179764" lon="9.118638866878795"><ele>32.25</ele><time>2026-04-06T05:57:21.999Z</time></trkpt><trkpt lat="44.366349984881204" lon="9.11848242145939"><ele>27.0</ele><time>2026-04-06T05:57:22.999Z</time></trkpt><trkpt lat="44.36644267563888" lon="9.118347226592473"><ele>38.5</ele><time>2026-04-06T05:57:23.999Z</time></trkpt><trkpt lat="44.36653835763661" lon="9.118210612071909"><ele>50.0</ele><time>2026-04-06T05:57:24.999Z</time></trkpt><trkpt lat="44.36661519135101" lon="9.118057716890167"><ele>61.5</ele><time>2026-04-06T05:57:25.999Z</time></trkpt><trkpt lat="44.366649811720926" lon="9.117871642080523"><ele>73.0</ele><time>2026-04-06T05:57:26.999Z</time></trkpt><trkpt lat="44.36663711054143" lon="9.11765374083527"><ele>73.0</ele><time>2026-04-06T05:57:27.999Z</time></trkpt><trkpt lat="44.36660441673632" lon="9.117437097716845"><ele>73.0</ele><time>2026-04-06T05:57:28.999Z</time></trkpt><trkpt lat="44.36658659137871" lon="9.117242804015005"><ele>73.0</ele><time>2026-04-06T05:57:29.999Z</time></trkpt><trkpt lat="44.3666023244951" lon="9.11706254633625"><ele>73.0</ele><time>2026-04-06T05:57:30.999Z</time></trkpt><trkpt lat="44.36666999155527" lon="9.116891950589263"><ele>69.0</ele><time>2026-04-06T05:57:31.999Z</time></trkpt><trkpt lat="44.36677254664146" lon="9.116756846527684"><ele>65.0</ele><time>2026-04-06T05:57:32.999Z</time></trkpt><trkpt lat="44.36689945819448" lon="9.116650949125628"><ele>61.0</ele><time>2026-04-06T05:57:33.999Z</time></trkpt><trkpt lat="44.366978884153795" lon="9.11650471913393"><ele>57.0</ele><time>2026-04-06T05:57:34.999Z</time></trkpt><trkpt lat="44.36702662475031" lon="9.116315433942574"><ele>53.75</ele><time>2026-04-06T05:57:35.999Z</time></trkpt><trkpt lat="44.36707842804131" lon="9.116129301545001"><ele>50.5</ele><time>2026-04-06T05:57:36.999Z</time></trkpt><trkpt lat="44.36713660930404" lon="9.11594974667132"><ele>47.25</ele><time>2026-04-06T05:57:37.999Z</time></trkpt><trkpt lat="44.367206053407905" lon="9.11577748925341"><ele>44.0</ele><time>2026-04-06T05:57:38.999Z</time></trkpt><trkpt lat="44.367269455128486" lon="9.115610217742185"><ele>50.75</ele><time>2026-04-06T05:57:39.999Z</time></trkpt><trkpt lat="44.3673506775479" lon="9.11545972714424"><ele>57.5</ele><time>2026-04-06T05:57:40.999Z</time></trkpt><trkpt lat="44.36745605597536" lon="9.115315866671004"><ele>64.25</ele><time>2026-04-06T05:57:41.999Z</time></trkpt><trkpt lat="44.367575048582395" lon="9.115200687332067"><ele>71.0</ele><time>2026-04-06T05:57:42.999Z</time></trkpt><trkpt lat="44.36769168364222" lon="9.115095189733939"><ele>71.0</ele><time>2026-04-06T05:57:43.999Z</time></trkpt><trkpt lat="44.367796593431585" lon="9.114974484072027"><ele>71.0</ele><time>2026-04-06T05:57:44.999Z</time></trkpt><trkpt lat="44.36785200363931" lon="9.114798082495405"><ele>71.0</ele><time>2026-04-06T05:57:45.999Z</time></trkpt><trkpt lat="44.36787398904067" lon="9.114576864327866"><ele>71.0</ele><time>2026-04-06T05:57:46.999Z</time></trkpt><trkpt lat="44.367883543836214" lon="9.114359849707641"><ele>67.25</ele><time>2026-04-06T05:57:47.999Z</time></trkpt><trkpt lat="44.36790806626803" lon="9.114154682816356"><ele>63.5</ele><time>2026-04-06T05:57:48.999Z</time></trkpt><trkpt lat="44.36794284218292" lon="9.113958706503178"><ele>59.75</ele><time>2026-04-06T05:57:49.999Z</time></trkpt><trkpt lat="44.36798702509035" lon="9.11376907564572"><ele>56.0</ele><time>2026-04-06T05:57:50.999Z</time></trkpt><trkpt lat="44.36802380981993" lon="9.113577115511456"><ele>62.0</ele><time>2026-04-06T05:57:51.999Z</time></trkpt><trkpt lat="44.368059897122706" lon="9.11338138304356"><ele>68.0</ele><time>2026-04-06T05:57:52.999Z</time></trkpt><trkpt lat="44.368096340885366" lon="9.113184628137615"><ele>74.0</ele><time>2026-04-06T05:57:53.999Z</time></trkpt><trkpt lat="44.368128054751985" lon="9.112990825789273"><ele>80.0</ele><time>2026-04-06T05:57:54.999Z</time></trkpt><trkpt lat="44.36816381035414" lon="9.11279708180613"><ele>80.0</ele><time>2026-04-06T05:57:55.999Z</time></trkpt><trkpt lat="44.36820148325804" lon="9.11260320589504"><ele>80.0</ele><time>2026-04-06T05:57:56.999Z</time></trkpt><trkpt lat="44.36823475707329" lon="9.112406313072016"><ele>80.0</ele><time>2026-04-06T05:57:57.999Z</time></trkpt><trkpt lat="44.368272305455186" lon="9.112209250918365"><ele>80.0</ele><time>2026-04-06T05:57:58.999Z</time></trkpt><trkpt lat="44.36830953628661" lon="9.112004147626228"><ele>71.66666666666667</ele><time>2026-04-06T05:57:59.999Z</time></trkpt><trkpt lat="44.368348740519096" lon="9.111796351697706"><ele>63.33333333333333</ele><time>2026-04-06T05:58:00.999Z</time></trkpt><trkpt lat="44.36838665551552" lon="9.111577213786733"><ele>55.0</ele><time>2026-04-06T05:58:01.999Z</time></trkpt><trkpt lat="44.36842558575234" lon="9.1113527225194"><ele>52.666666666666664</ele><time>2026-04-06T05:58:02.999Z</time></trkpt><trkpt lat="44.36846536896702" lon="9.11113438888302"><ele>50.33333333333333</ele><time>2026-04-06T05:58:03.999Z</time></trkpt><trkpt lat="44.36850562250718" lon="9.110931291929212"><ele>48.0</ele><time>2026-04-06T05:58:04.999Z</time></trkpt><trkpt lat="44.36854132341421" lon="9.110735292015004"><ele>45.0</ele><time>2026-04-06T05:58:05.999Z</time></trkpt><trkpt lat="44.36857877837081" lon="9.110551461018824"><ele>42.0</ele><time>2026-04-06T05:58:06.999Z</time></trkpt><trkpt lat="44.368626275899395" lon="9.110371998505807"><ele>39.0</ele><time>2026-04-06T05:58:07.999Z</time></trkpt><trkpt lat="44.368694951215396" lon="9.110216120968216"><ele>36.0</ele><time>2026-04-06T05:58:08.999Z</time></trkpt><trkpt lat="44.36880390116294" lon="9.110081378029173"><ele>42.25</ele><time>2026-04-06T05:58:09.999Z</time></trkpt><trkpt lat="44.368921864685355" lon="9.109979391512919"><ele>48.5</ele><time>2026-04-06T05:58:11Z</time></trkpt><trkpt lat="44.36902257298451" lon="9.109860672601888"><ele>54.75</ele><time>2026-04-06T05:58:12Z</time></trkpt><trkpt lat="44.36907678877077" lon="9.109677853536688"><ele>61.0</ele><time>2026-04-06T05:58:13Z</time></trkpt><trkpt lat="44.369102487213084" lon="9.109477117733249"><ele>61.0</ele><time>2026-04-06T05:58:14Z</time></trkpt><trkpt lat="44.369114015530386" lon="9.109266325022347"><ele>61.0</ele><time>2026-04-06T05:58:15Z</time></trkpt><trkpt lat="44.36912994977836" lon="9.109066812485425"><ele>61.0</ele><time>2026-04-06T05:58:16Z</time></trkpt><trkpt lat="44.36916801698069" lon="9.108872326872538"><ele>61.0</ele><time>2026-04-06T05:58:17Z</time></trkpt><trkpt lat="44.36923504223768" lon="9.108696086650495"><ele>57.75</ele><time>2026-04-06T05:58:18Z</time></trkpt><trkpt lat="44.369320024363724" lon="9.108530395278189"><ele>54.5</ele><time>2026-04-06T05:58:19Z</time></trkpt><trkpt lat="44.369393577819075" lon="9.108356348529476"><ele>51.25</ele><time>2026-04-06T05:58:20Z</time></trkpt><trkpt lat="44.36946634934301" lon="9.108171388462416"><ele>48.0</ele><time>2026-04-06T05:58:21Z</time></trkpt><trkpt lat="44.3695411865023" lon="9.107993900825871"><ele>44.5</ele><time>2026-04-06T05:58:22Z</time></trkpt><trkpt lat="44.36960071330035" lon="9.107813926864123"><ele>41.0</ele><time>2026-04-06T05:58:23Z</time></trkpt><trkpt lat="44.3696400860979" lon="9.107633137169755"><ele>37.5</ele><time>2026-04-06T05:58:24Z</time></trkpt><trkpt lat="44.36966125832436" lon="9.107454378932275"><ele>34.0</ele><time>2026-04-06T05:58:25Z</time></trkpt><trkpt lat="44.36969191835238" lon="9.107290781911813"><ele>37.75</ele><time>2026-04-06T05:58:26Z</time></trkpt><trkpt lat="44.369724470632285" lon="9.107132333865163"><ele>41.5</ele><time>2026-04-06T05:58:27Z</time></trkpt><trkpt lat="44.369749258870954" lon="9.106972502289642"><ele>45.25</ele><time>2026-04-06T05:58:28Z</time></trkpt><trkpt lat="44.36978643122664" lon="9.10682962007757"><ele>49.0</ele><time>2026-04-06T05:58:29Z</time></trkpt><trkpt lat="44.36981787166734" lon="9.106681441257388"><ele>45.75</ele><time>2026-04-06T05:58:30Z</time></trkpt><trkpt lat="44.36985568794057" lon="9.106531629264078"><ele>42.5</ele><time>2026-04-06T05:58:31Z</time></trkpt><trkpt lat="44.369907531865124" lon="9.10638064863603"><ele>39.25</ele><time>2026-04-06T05:58:32Z</time></trkpt><trkpt lat="44.369971643896335" lon="9.106230134131255"><ele>36.0</ele><time>2026-04-06T05:58:33Z</time></trkpt><trkpt lat="44.37005521904837" lon="9.106085181247579"><ele>36.0</ele><time>2026-04-06T05:58:34Z</time></trkpt><trkpt lat="44.37014251758625" lon="9.105938510199113"><ele>36.0</ele><time>2026-04-06T05:58:35Z</time></trkpt><trkpt lat="44.370232122306106" lon="9.105789359779276"><ele>36.0</ele><time>2026-04-06T05:58:36Z</time></trkpt><trkpt lat="44.37031626757412" lon="9.10564369705415"><ele>36.0</ele><time>2026-04-06T05:58:37Z</time></trkpt><trkpt lat="44.37039245888058" lon="9.105499726076046"><ele>35.5</ele><time>2026-04-06T05:58:38Z</time></trkpt><trkpt lat="44.37046972786068" lon="9.105360853421997"><ele>35.0</ele><time>2026-04-06T05:58:39Z</time></trkpt><trkpt lat="44.370548273159" lon="9.105225231733794"><ele>34.5</ele><time>2026-04-06T05:58:40Z</time></trkpt><trkpt lat="44.370626207043955" lon="9.105088595318664"><ele>34.0</ele><time>2026-04-06T05:58:41Z</time></trkpt><trkpt lat="44.370703682378604" lon="9.104962677993347"><ele>27.5</ele><time>2026-04-06T05:58:42Z</time></trkpt><trkpt lat="44.37079446208152" lon="9.104853975892887"><ele>21.0</ele><time>2026-04-06T05:58:43Z</time></trkpt><trkpt lat="44.37091151958742" lon="9.104779108945522"><ele>14.5</ele><time>2026-04-06T05:58:44Z</time></trkpt><trkpt lat="44.3710434302684" lon="9.10472558892486"><ele>8.0</ele><time>2026-04-06T05:58:45Z</time></trkpt><trkpt lat="44.371178491643775" lon="9.104673136367266"><ele>8.0</ele><time>2026-04-06T05:58:46Z</time></trkpt><trkpt lat="44.37131742633412" lon="9.104621513060879"><ele>8.0</ele><time>2026-04-06T05:58:47Z</time></trkpt><trkpt lat="44.371435669384994" lon="9.10451669729695"><ele>8.0</ele><time>2026-04-06T05:58:48Z</time></trkpt><trkpt lat="44.37154672654588" lon="9.104385227224872"><ele>8.0</ele><time>2026-04-06T05:58:49Z</time></trkpt><trkpt lat="44.371654402675475" lon="9.104249307983366"><ele>8.25</ele><time>2026-04-06T05:58:50Z</time></trkpt><trkpt lat="44.37175769439905" lon="9.104101494985073"><ele>8.5</ele><time>2026-04-06T05:58:51Z</time></trkpt><trkpt lat="44.37185827434336" lon="9.10394133118798"><ele>8.75</ele><time>2026-04-06T05:58:52Z</time></trkpt><trkpt lat="44.37195242083712" lon="9.10378218523242"><ele>9.0</ele><time>2026-04-06T05:58:53Z</time></trkpt><trkpt lat="44.372032059985585" lon="9.103636840911856"><ele>9.0</ele><time>2026-04-06T05:58:54Z</time></trkpt><trkpt lat="44.37211225569006" lon="9.103513612929735"><ele>9.0</ele><time>2026-04-06T05:58:55Z</time></trkpt><trkpt lat="44.37219040452838" lon="9.103398072720958"><ele>9.0</ele><time>2026-04-06T05:58:56Z</time></trkpt><trkpt lat="44.37225896216106" lon="9.103283178970292"><ele>9.0</ele><time>2026-04-06T05:58:57Z</time></trkpt><trkpt lat="44.37231901253803" lon="9.103166806960646"><ele>9.0</ele><time>2026-04-06T05:58:58Z</time></trkpt><trkpt lat="44.37235583031152" lon="9.103038438792241"><ele>14.5</ele><time>2026-04-06T05:58:59Z</time></trkpt><trkpt lat="44.37236299579772" lon="9.10290533610266"><ele>20.0</ele><time>2026-04-06T05:59:00Z</time></trkpt><trkpt lat="44.37234225397629" lon="9.10278292475466"><ele>25.5</ele><time>2026-04-06T05:59:01Z</time></trkpt><trkpt lat="44.37231205394357" lon="9.102683228373492"><ele>31.0</ele><time>2026-04-06T05:59:02Z</time></trkpt><trkpt lat="44.372259742982806" lon="9.102557258300601"><ele>36.5</ele><time>2026-04-06T05:59:04Z</time></trkpt><trkpt lat="44.37223113822257" lon="9.102457514246062"><ele>42.0</ele><time>2026-04-06T05:59:06Z</time></trkpt><trkpt lat="44.372202700374224" lon="9.102366515777815"><ele>37.6</ele><time>2026-04-06T05:59:08Z</time></trkpt><trkpt lat="44.37217733911693" lon="9.102283207513084"><ele>33.2</ele><time>2026-04-06T05:59:12Z</time></trkpt><trkpt lat="44.372139815507744" lon="9.102133892054573"><ele>28.8</ele><time>2026-04-06T05:59:31.999Z</time></trkpt><trkpt lat="44.3721016219386" lon="9.102023062294952"><ele>24.4</ele><time>2026-04-06T05:59:32.999Z</time></trkpt><trkpt lat="44.372056638123134" lon="9.101901663604293"><ele>20.0</ele><time>2026-04-06T05:59:33.999Z</time></trkpt><trkpt lat="44.372009935049064" lon="9.101777170880334"><ele>20.0</ele><time>2026-04-06T05:59:34.999Z</time></trkpt><trkpt lat="44.37196889187409" lon="9.101647934325735"><ele>20.0</ele><time>2026-04-06T05:59:35.999Z</time></trkpt><trkpt lat="44.37192977300183" lon="9.101503890590983"><ele>20.0</ele><time>2026-04-06T05:59:36.999Z</time></trkpt><trkpt lat="44.37191002840034" lon="9.101346616938867"><ele>20.0</ele><time>2026-04-06T05:59:37.999Z</time></trkpt><trkpt lat="44.3719150847007" lon="9.101172162821678"><ele>20.0</ele><time>2026-04-06T05:59:38.999Z</time></trkpt><trkpt lat="44.37194726518001" lon="9.100989499787204"><ele>20.0</ele><time>2026-04-06T05:59:39.999Z</time></trkpt><trkpt lat="44.37201437501413" lon="9.100832129399448"><ele>20.0</ele><time>2026-04-06T05:59:40.999Z</time></trkpt><trkpt lat="44.37211792626818" lon="9.100664547754793"><ele>20.0</ele><time>2026-04-06T05:59:41.999Z</time></trkpt><trkpt lat="44.37222314080362" lon="9.100494896924443"><ele>27.0</ele><time>2026-04-06T05:59:42.999Z</time></trkpt><trkpt lat="44.372206825641875" lon="9.100380741599597"><ele>34.0</ele><time>2026-04-06T05:59:43.999Z</time></trkpt><trkpt lat="44.372218530912555" lon="9.100186879956105"><ele>41.0</ele><time>2026-04-06T05:59:44.999Z</time></trkpt><trkpt lat="44.37222203578018" lon="9.099996541489157"><ele>48.0</ele><time>2026-04-06T05:59:45.999Z</time></trkpt><trkpt lat="44.372210751025364" lon="9.099804509476707"><ele>49.0</ele><time>2026-04-06T05:59:46.999Z</time></trkpt><trkpt lat="44.37221003665713" lon="9.099622132520816"><ele>50.0</ele><time>2026-04-06T05:59:47.999Z</time></trkpt><trkpt lat="44.372192710887894" lon="9.099437706541108"><ele>51.0</ele><time>2026-04-06T05:59:48.999Z</time></trkpt><trkpt lat="44.37216961812525" lon="9.099263680607661"><ele>52.0</ele><time>2026-04-06T05:59:49.999Z</time></trkpt><trkpt lat="44.372162156699154" lon="9.099079436943196"><ele>51.25</ele><time>2026-04-06T05:59:50.999Z</time></trkpt><trkpt lat="44.37218262096181" lon="9.09889933198006"><ele>50.5</ele><time>2026-04-06T05:59:51.999Z</time></trkpt><trkpt lat="44.372197762919455" lon="9.098706883187"><ele>49.75</ele><time>2026-04-06T05:59:52.999Z</time></trkpt><trkpt lat="44.37221360368471" lon="9.098511151771454"><ele>49.0</ele><time>2026-04-06T05:59:53.999Z</time></trkpt><trkpt lat="44.37222677788669" lon="9.09830370332319"><ele>48.5</ele><time>2026-04-06T05:59:54.999Z</time></trkpt><trkpt lat="44.37224952195728" lon="9.098109495150718"><ele>48.0</ele><time>2026-04-06T05:59:55.999Z</time></trkpt><trkpt lat="44.372278148874294" lon="9.09791828731771"><ele>47.5</ele><time>2026-04-06T05:59:56.999Z</time></trkpt><trkpt lat="44.372324439046615" lon="9.097736735579408"><ele>47.0</ele><time>2026-04-06T05:59:57.999Z</time></trkpt><trkpt lat="44.372391409965495" lon="9.097570699778082"><ele>47.0</ele><time>2026-04-06T05:59:58.999Z</time></trkpt><trkpt lat="44.37248204158023" lon="9.097435189443535"><ele>47.0</ele><time>2026-04-06T05:59:59.999Z</time></trkpt><trkpt lat="44.37255220194603" lon="9.0972903572178"><ele>47.0</ele><time>2026-04-06T06:00:00.999Z</time></trkpt><trkpt lat="44.372607316638494" lon="9.09715934309791"><ele>47.0</ele><time>2026-04-06T06:00:01.999Z</time></trkpt><trkpt lat="44.372655071982116" lon="9.097020294477403"><ele>46.0</ele><time>2026-04-06T06:00:02.999Z</time></trkpt><trkpt lat="44.37268108045295" lon="9.096859896175364"><ele>45.0</ele><time>2026-04-06T06:00:03.999Z</time></trkpt><trkpt lat="44.37268897362654" lon="9.096678416512818"><ele>44.0</ele><time>2026-04-06T06:00:04.999Z</time></trkpt><trkpt lat="44.37269831310541" lon="9.09649973416407"><ele>43.0</ele><time>2026-04-06T06:00:05.999Z</time></trkpt><trkpt lat="44.37270432681794" lon="9.09631135411076"><ele>42.0</ele><time>2026-04-06T06:00:06.999Z</time></trkpt><trkpt lat="44.372719356709474" lon="9.096114902312301"><ele>41.0</ele><time>2026-04-06T06:00:07.999Z</time></trkpt><trkpt lat="44.372737097025365" lon="9.09592721257564"><ele>40.0</ele><time>2026-04-06T06:00:08.999Z</time></trkpt><trkpt lat="44.372739038978324" lon="9.09574428482837"><ele>39.0</ele><time>2026-04-06T06:00:09.999Z</time></trkpt><trkpt lat="44.37269836934357" lon="9.09556379686028"><ele>42.0</ele><time>2026-04-06T06:00:10.999Z</time></trkpt><trkpt lat="44.3726182517206" lon="9.095391544242556"><ele>45.0</ele><time>2026-04-06T06:00:11.999Z</time></trkpt><trkpt lat="44.37254631619915" lon="9.095216702455678"><ele>48.0</ele><time>2026-04-06T06:00:12.999Z</time></trkpt><trkpt lat="44.37244302247964" lon="9.09513976232654"><ele>51.0</ele><time>2026-04-06T06:00:13.999Z</time></trkpt><trkpt lat="44.37239918536666" lon="9.094872702424825"><ele>53.0</ele><time>2026-04-06T06:00:14.999Z</time></trkpt><trkpt lat="44.37233684328018" lon="9.094692083475314"><ele>55.0</ele><time>2026-04-06T06:00:15.999Z</time></trkpt><trkpt lat="44.372277950173974" lon="9.09451024597454"><ele>57.0</ele><time>2026-04-06T06:00:17Z</time></trkpt><trkpt lat="44.37222181728566" lon="9.09433515757016"><ele>59.0</ele><time>2026-04-06T06:00:18Z</time></trkpt><trkpt lat="44.37219667289809" lon="9.09414675935912"><ele>49.75</ele><time>2026-04-06T06:00:19Z</time></trkpt><trkpt lat="44.37216762835418" lon="9.093960552241002"><ele>40.5</ele><time>2026-04-06T06:00:20Z</time></trkpt><trkpt lat="44.372132616850905" lon="9.0937811108505"><ele>31.25</ele><time>2026-04-06T06:00:21Z</time></trkpt><trkpt lat="44.37210453477101" lon="9.093622440171837"><ele>22.0</ele><time>2026-04-06T06:00:22Z</time></trkpt><trkpt lat="44.372098623782556" lon="9.093477610374078"><ele>22.0</ele><time>2026-04-06T06:00:23Z</time></trkpt><trkpt lat="44.37215146188989" lon="9.093350235160313"><ele>22.0</ele><time>2026-04-06T06:00:24Z</time></trkpt><trkpt lat="44.37224161439818" lon="9.093254832436168"><ele>22.0</ele><time>2026-04-06T06:00:25Z</time></trkpt><trkpt lat="44.37234533532411" lon="9.093165391951366"><ele>22.0</ele><time>2026-04-06T06:00:26Z</time></trkpt><trkpt lat="44.37245459665753" lon="9.0930718583277"><ele>26.0</ele><time>2026-04-06T06:00:27Z</time></trkpt><trkpt lat="44.37252557308625" lon="9.09293518966168"><ele>30.0</ele><time>2026-04-06T06:00:28Z</time></trkpt><trkpt lat="44.372554988818024" lon="9.092760351612137"><ele>34.0</ele><time>2026-04-06T06:00:29Z</time></trkpt><trkpt lat="44.372556671966954" lon="9.092566082065122"><ele>38.0</ele><time>2026-04-06T06:00:30Z</time></trkpt><trkpt lat="44.372579683138405" lon="9.092377946029393"><ele>38.0</ele><time>2026-04-06T06:00:31Z</time></trkpt><trkpt lat="44.37259836388027" lon="9.092185602204792"><ele>38.0</ele><time>2026-04-06T06:00:32Z</time></trkpt><trkpt lat="44.37262016677021" lon="9.092000293162027"><ele>38.0</ele><time>2026-04-06T06:00:33Z</time></trkpt><trkpt lat="44.37264662985971" lon="9.09181847646137"><ele>38.0</ele><time>2026-04-06T06:00:34Z</time></trkpt><trkpt lat="44.37268808400677" lon="9.09164038441117"><ele>37.5</ele><time>2026-04-06T06:00:35Z</time></trkpt><trkpt lat="44.37273750402832" lon="9.09147958700296"><ele>37.0</ele><time>2026-04-06T06:00:36Z</time></trkpt><trkpt lat="44.37281059522878" lon="9.091352566337509"><ele>36.5</ele><time>2026-04-06T06:00:37Z</time></trkpt><trkpt lat="44.37286758425485" lon="9.09119987158004"><ele>36.0</ele><time>2026-04-06T06:00:38Z</time></trkpt><trkpt lat="44.37290079513986" lon="9.09102815417371"><ele>36.0</ele><time>2026-04-06T06:00:39Z</time></trkpt><trkpt lat="44.37290566956721" lon="9.090842572974832"><ele>36.0</ele><time>2026-04-06T06:00:40Z</time></trkpt><trkpt lat="44.372903777505265" lon="9.090657925483823"><ele>36.0</ele><time>2026-04-06T06:00:41Z</time></trkpt><trkpt lat="44.37288730359587" lon="9.090473011345484"><ele>36.0</ele><time>2026-04-06T06:00:42Z</time></trkpt><trkpt lat="44.3729030158043" lon="9.090299188462426"><ele>33.75</ele><time>2026-04-06T06:00:43Z</time></trkpt><trkpt lat="44.37293830175255" lon="9.090121599485729"><ele>31.5</ele><time>2026-04-06T06:00:44Z</time></trkpt><trkpt lat="44.37297033571341" lon="9.089942859341097"><ele>29.25</ele><time>2026-04-06T06:00:45Z</time></trkpt><trkpt lat="44.37301852422739" lon="9.089781961071711"><ele>27.0</ele><time>2026-04-06T06:00:46Z</time></trkpt><trkpt lat="44.373096704405846" lon="9.089637753973946"><ele>30.25</ele><time>2026-04-06T06:00:47Z</time></trkpt><trkpt lat="44.37316083004514" lon="9.089483197329193"><ele>33.5</ele><time>2026-04-06T06:00:48Z</time></trkpt><trkpt lat="44.373212716203234" lon="9.089325437958767"><ele>36.75</ele><time>2026-04-06T06:00:49Z</time></trkpt><trkpt lat="44.37326788805904" lon="9.089168700369628"><ele>40.0</ele><time>2026-04-06T06:00:50Z</time></trkpt><trkpt lat="44.373340996691084" lon="9.089028483464356"><ele>40.0</ele><time>2026-04-06T06:00:51Z</time></trkpt><trkpt lat="44.373413281379385" lon="9.088889482558194"><ele>40.0</ele><time>2026-04-06T06:00:52Z</time></trkpt><trkpt lat="44.37347644741281" lon="9.088747696062324"><ele>40.0</ele><time>2026-04-06T06:00:53Z</time></trkpt><trkpt lat="44.37353696932984" lon="9.088604508618905"><ele>40.0</ele><time>2026-04-06T06:00:54Z</time></trkpt><trkpt lat="44.373588862902174" lon="9.08845385017567"><ele>40.0</ele><time>2026-04-06T06:00:55Z</time></trkpt><trkpt lat="44.373614654149094" lon="9.08829380105168"><ele>40.0</ele><time>2026-04-06T06:00:56Z</time></trkpt><trkpt lat="44.373596249012294" lon="9.08811706842072"><ele>40.0</ele><time>2026-04-06T06:00:57Z</time></trkpt><trkpt lat="44.37353672525914" lon="9.087947758925669"><ele>40.0</ele><time>2026-04-06T06:00:58Z</time></trkpt><trkpt lat="44.373435526725366" lon="9.087807678869112"><ele>40.75</ele><time>2026-04-06T06:00:59Z</time></trkpt><trkpt lat="44.3733223761239" lon="9.087698151487098"><ele>41.5</ele><time>2026-04-06T06:01:00Z</time></trkpt><trkpt lat="44.37322664633583" lon="9.087592634954857"><ele>42.25</ele><time>2026-04-06T06:01:01Z</time></trkpt><trkpt lat="44.37316618683848" lon="9.087452858981138"><ele>43.0</ele><time>2026-04-06T06:01:02Z</time></trkpt><trkpt lat="44.37318061490592" lon="9.087274475513198"><ele>43.25</ele><time>2026-04-06T06:01:03Z</time></trkpt><trkpt lat="44.37319050156724" lon="9.087080348956048"><ele>43.5</ele><time>2026-04-06T06:01:04Z</time></trkpt><trkpt lat="44.37321745537866" lon="9.08689283526922"><ele>43.75</ele><time>2026-04-06T06:01:05Z</time></trkpt><trkpt lat="44.37327270266381" lon="9.086716116242465"><ele>44.0</ele><time>2026-04-06T06:01:06Z</time></trkpt><trkpt lat="44.373355074962525" lon="9.086558638660476"><ele>42.6</ele><time>2026-04-06T06:01:07Z</time></trkpt><trkpt lat="44.37344740566712" lon="9.0864306012421"><ele>41.2</ele><time>2026-04-06T06:01:08Z</time></trkpt><trkpt lat="44.37352561906319" lon="9.086314696645864"><ele>39.800000000000004</ele><time>2026-04-06T06:01:09Z</time></trkpt><trkpt lat="44.37358817337905" lon="9.086194772897437"><ele>38.400000000000006</ele><time>2026-04-06T06:01:10Z</time></trkpt><trkpt lat="44.373650176259595" lon="9.086088625934439"><ele>37.0</ele><time>2026-04-06T06:01:11Z</time></trkpt><trkpt lat="44.37370432864675" lon="9.085995326068966"><ele>37.0</ele><time>2026-04-06T06:01:12Z</time></trkpt><trkpt lat="44.37375040548807" lon="9.085907803024723"><ele>37.0</ele><time>2026-04-06T06:01:13Z</time></trkpt><trkpt lat="44.37379551742982" lon="9.085828895523502"><ele>37.0</ele><time>2026-04-06T06:01:14Z</time></trkpt><trkpt lat="44.373844240678906" lon="9.085741718803497"><ele>37.0</ele><time>2026-04-06T06:01:15Z</time></trkpt><trkpt lat="44.373897669923934" lon="9.08564636611431"><ele>37.0</ele><time>2026-04-06T06:01:16Z</time></trkpt><trkpt lat="44.373957495486444" lon="9.085545376895807"><ele>37.0</ele><time>2026-04-06T06:01:17Z</time></trkpt><trkpt lat="44.37402681407566" lon="9.08545079132365"><ele>37.5</ele><time>2026-04-06T06:01:18Z</time></trkpt><trkpt lat="44.37409992422004" lon="9.08535195925884"><ele>38.0</ele><time>2026-04-06T06:01:19Z</time></trkpt><trkpt lat="44.37419208965159" lon="9.08526972784412"><ele>38.5</ele><time>2026-04-06T06:01:20Z</time></trkpt><trkpt lat="44.37430391864527" lon="9.085214988359004"><ele>39.0</ele><time>2026-04-06T06:01:21Z</time></trkpt><trkpt lat="44.37442471880958" lon="9.085184068437513"><ele>39.0</ele><time>2026-04-06T06:01:22Z</time></trkpt><trkpt lat="44.37453838134852" lon="9.0851791443228"><ele>39.0</ele><time>2026-04-06T06:01:23Z</time></trkpt><trkpt lat="44.37466293867204" lon="9.08513193111492"><ele>39.0</ele><time>2026-04-06T06:01:24Z</time></trkpt><trkpt lat="44.37475285179739" lon="9.084991050501776"><ele>39.0</ele><time>2026-04-06T06:01:25Z</time></trkpt><trkpt lat="44.37481192732524" lon="9.084820307606059"><ele>39.25</ele><time>2026-04-06T06:01:26Z</time></trkpt><trkpt lat="44.374879462855894" lon="9.0846573966401"><ele>39.5</ele><time>2026-04-06T06:01:27Z</time></trkpt><trkpt lat="44.374968777835065" lon="9.084521155650354"><ele>39.75</ele><time>2026-04-06T06:01:28Z</time></trkpt><trkpt lat="44.37507641725725" lon="9.084404482701707"><ele>40.0</ele><time>2026-04-06T06:01:29Z</time></trkpt><trkpt lat="44.37518529525666" lon="9.084289451289726"><ele>40.0</ele><time>2026-04-06T06:01:29.999Z</time></trkpt><trkpt lat="44.375290762078805" lon="9.084169569858341"><ele>40.0</ele><time>2026-04-06T06:01:30.999Z</time></trkpt><trkpt lat="44.37538624336579" lon="9.084046073578698"><ele>40.0</ele><time>2026-04-06T06:01:31.999Z</time></trkpt><trkpt lat="44.37548016628403" lon="9.083921221498844"><ele>40.0</ele><time>2026-04-06T06:01:32.999Z</time></trkpt><trkpt lat="44.375552073595266" lon="9.083763802696852"><ele>38.0</ele><time>2026-04-06T06:01:33.999Z</time></trkpt><trkpt lat="44.37560751280833" lon="9.083587016938901"><ele>36.0</ele><time>2026-04-06T06:01:34.999Z</time></trkpt><trkpt lat="44.375658104014235" lon="9.083405434724131"><ele>34.0</ele><time>2026-04-06T06:01:35.999Z</time></trkpt><trkpt lat="44.37570686626067" lon="9.083221836570223"><ele>32.0</ele><time>2026-04-06T06:01:36.999Z</time></trkpt><trkpt lat="44.37575888414296" lon="9.083039530503488"><ele>32.0</ele><time>2026-04-06T06:01:37.999Z</time></trkpt><trkpt lat="44.375811877578926" lon="9.082857706715757"><ele>32.0</ele><time>2026-04-06T06:01:38.999Z</time></trkpt><trkpt lat="44.37586259361311" lon="9.082667324548181"><ele>32.0</ele><time>2026-04-06T06:01:39.999Z</time></trkpt><trkpt lat="44.37592082860788" lon="9.082495945123203"><ele>32.0</ele><time>2026-04-06T06:01:40.999Z</time></trkpt><trkpt lat="44.37596844828283" lon="9.082319059961787"><ele>29.75</ele><time>2026-04-06T06:01:41.999Z</time></trkpt><trkpt lat="44.37602555266378" lon="9.08213217152387"><ele>27.5</ele><time>2026-04-06T06:01:42.999Z</time></trkpt><trkpt lat="44.37607909258654" lon="9.081947518490537"><ele>25.25</ele><time>2026-04-06T06:01:43.999Z</time></trkpt><trkpt lat="44.37613479786586" lon="9.08177221564556"><ele>23.0</ele><time>2026-04-06T06:01:44.999Z</time></trkpt><trkpt lat="44.3761811339466" lon="9.081602877416065"><ele>21.5</ele><time>2026-04-06T06:01:45.999Z</time></trkpt><trkpt lat="44.37622833095122" lon="9.081442675259312"><ele>20.0</ele><time>2026-04-06T06:01:46.999Z</time></trkpt><trkpt lat="44.3763007718361" lon="9.081287256001572"><ele>18.5</ele><time>2026-04-06T06:01:47.999Z</time></trkpt><trkpt lat="44.376389535277234" lon="9.081166888705079"><ele>17.0</ele><time>2026-04-06T06:01:48.999Z</time></trkpt><trkpt lat="44.376513593797824" lon="9.081086983150652"><ele>21.5</ele><time>2026-04-06T06:01:49.999Z</time></trkpt><trkpt lat="44.3766297426668" lon="9.080994950967234"><ele>26.0</ele><time>2026-04-06T06:01:50.999Z</time></trkpt><trkpt lat="44.37672404412799" lon="9.080858137929997"><ele>30.5</ele><time>2026-04-06T06:01:51.999Z</time></trkpt><trkpt lat="44.37681390339215" lon="9.08070471860389"><ele>35.0</ele><time>2026-04-06T06:01:52.999Z</time></trkpt><trkpt lat="44.37688645126078" lon="9.080542297069025"><ele>35.0</ele><time>2026-04-06T06:01:53.999Z</time></trkpt><trkpt lat="44.376969358283276" lon="9.080381117381084"><ele>35.0</ele><time>2026-04-06T06:01:54.999Z</time></trkpt><trkpt lat="44.3770470467816" lon="9.080222099304379"><ele>35.0</ele><time>2026-04-06T06:01:55.999Z</time></trkpt><trkpt lat="44.37711909769715" lon="9.080058038725724"><ele>35.0</ele><time>2026-04-06T06:01:56.999Z</time></trkpt><trkpt lat="44.377202823154235" lon="9.079917116389177"><ele>40.25</ele><time>2026-04-06T06:01:57.999Z</time></trkpt><trkpt lat="44.37726968140247" lon="9.079763460580786"><ele>45.5</ele><time>2026-04-06T06:01:58.999Z</time></trkpt><trkpt lat="44.37730146274139" lon="9.079600522100877"><ele>50.75</ele><time>2026-04-06T06:01:59.999Z</time></trkpt><trkpt lat="44.37730804087088" lon="9.079436802566304"><ele>56.0</ele><time>2026-04-06T06:02:00.999Z</time></trkpt><trkpt lat="44.37730765616194" lon="9.07927961916422"><ele>56.0</ele><time>2026-04-06T06:02:01.999Z</time></trkpt><trkpt lat="44.3773131916854" lon="9.079120110182975"><ele>56.0</ele><time>2026-04-06T06:02:02.999Z</time></trkpt><trkpt lat="44.37731768374248" lon="9.078959259964591"><ele>56.0</ele><time>2026-04-06T06:02:03.999Z</time></trkpt><trkpt lat="44.37732852085548" lon="9.078797827358214"><ele>56.0</ele><time>2026-04-06T06:02:04.999Z</time></trkpt><trkpt lat="44.377339792456844" lon="9.078633013078399"><ele>54.75</ele><time>2026-04-06T06:02:05.999Z</time></trkpt><trkpt lat="44.37734230972038" lon="9.078466217617247"><ele>53.5</ele><time>2026-04-06T06:02:06.999Z</time></trkpt><trkpt lat="44.377347923274385" lon="9.078293578696337"><ele>52.25</ele><time>2026-04-06T06:02:07.999Z</time></trkpt><trkpt lat="44.377368796808064" lon="9.078120322021979"><ele>51.0</ele><time>2026-04-06T06:02:08.999Z</time></trkpt><trkpt lat="44.37738881088246" lon="9.077947781530877"><ele>48.75</ele><time>2026-04-06T06:02:09.999Z</time></trkpt><trkpt lat="44.37742803173625" lon="9.077778659443362"><ele>46.5</ele><time>2026-04-06T06:02:10.999Z</time></trkpt><trkpt lat="44.37746484782376" lon="9.077604025050938"><ele>44.25</ele><time>2026-04-06T06:02:11.999Z</time></trkpt><trkpt lat="44.377508543738415" lon="9.077430038302877"><ele>42.0</ele><time>2026-04-06T06:02:12.999Z</time></trkpt><trkpt lat="44.377545721918494" lon="9.077256545585607"><ele>40.75</ele><time>2026-04-06T06:02:13.999Z</time></trkpt><trkpt lat="44.37759023818171" lon="9.077085089417526"><ele>39.5</ele><time>2026-04-06T06:02:14.999Z</time></trkpt><trkpt lat="44.37762770131111" lon="9.076912835862464"><ele>38.25</ele><time>2026-04-06T06:02:15.999Z</time></trkpt><trkpt lat="44.37766478748974" lon="9.07674165696027"><ele>37.0</ele><time>2026-04-06T06:02:16.999Z</time></trkpt><trkpt lat="44.37769934977308" lon="9.076566390086958"><ele>37.0</ele><time>2026-04-06T06:02:17.999Z</time></trkpt><trkpt lat="44.37773440233228" lon="9.076390975268795"><ele>37.0</ele><time>2026-04-06T06:02:18.999Z</time></trkpt><trkpt lat="44.37776799021613" lon="9.076218897453531"><ele>37.0</ele><time>2026-04-06T06:02:19.999Z</time></trkpt><trkpt lat="44.37780925104669" lon="9.076050555706324"><ele>37.0</ele><time>2026-04-06T06:02:20.999Z</time></trkpt><trkpt lat="44.377846843916956" lon="9.075878370081254"><ele>36.0</ele><time>2026-04-06T06:02:21.999Z</time></trkpt><trkpt lat="44.377882426484696" lon="9.075707715086878"><ele>35.0</ele><time>2026-04-06T06:02:23Z</time></trkpt><trkpt lat="44.37791964426206" lon="9.075529277008217"><ele>34.0</ele><time>2026-04-06T06:02:24Z</time></trkpt><trkpt lat="44.37795763542466" lon="9.07535450944666"><ele>33.0</ele><time>2026-04-06T06:02:25Z</time></trkpt><trkpt lat="44.37799547285138" lon="9.075179884967229"><ele>37.5</ele><time>2026-04-06T06:02:26Z</time></trkpt><trkpt lat="44.378030830089905" lon="9.075003319431097"><ele>42.0</ele><time>2026-04-06T06:02:27Z</time></trkpt><trkpt lat="44.37806952213793" lon="9.074828955754823"><ele>46.5</ele><time>2026-04-06T06:02:28Z</time></trkpt><trkpt lat="44.37810949656525" lon="9.07465335807409"><ele>51.0</ele><time>2026-04-06T06:02:29Z</time></trkpt><trkpt lat="44.37814209842551" lon="9.074477829998548"><ele>51.0</ele><time>2026-04-06T06:02:30Z</time></trkpt><trkpt lat="44.37817726289586" lon="9.074303414627408"><ele>51.0</ele><time>2026-04-06T06:02:31Z</time></trkpt><trkpt lat="44.378218608759084" lon="9.074127242100685"><ele>51.0</ele><time>2026-04-06T06:02:32Z</time></trkpt><trkpt lat="44.37825761288821" lon="9.073949210365337"><ele>51.0</ele><time>2026-04-06T06:02:33Z</time></trkpt><trkpt lat="44.378295338305165" lon="9.073778187264944"><ele>48.5</ele><time>2026-04-06T06:02:34Z</time></trkpt><trkpt lat="44.37833011113266" lon="9.073604518775774"><ele>46.0</ele><time>2026-04-06T06:02:35Z</time></trkpt><trkpt lat="44.37836805285643" lon="9.073427891336852"><ele>43.5</ele><time>2026-04-06T06:02:36Z</time></trkpt><trkpt lat="44.37840533119213" lon="9.073250734920975"><ele>41.0</ele><time>2026-04-06T06:02:37Z</time></trkpt><trkpt lat="44.378443012264086" lon="9.073078971863552"><ele>40.0</ele><time>2026-04-06T06:02:38Z</time></trkpt><trkpt lat="44.37847980397351" lon="9.072908156200088"><ele>39.0</ele><time>2026-04-06T06:02:39Z</time></trkpt><trkpt lat="44.378511589491325" lon="9.072735243389754"><ele>38.0</ele><time>2026-04-06T06:02:40Z</time></trkpt><trkpt lat="44.37854559585988" lon="9.072557747728043"><ele>37.0</ele><time>2026-04-06T06:02:41Z</time></trkpt><trkpt lat="44.37856525742725" lon="9.07237688760398"><ele>36.5</ele><time>2026-04-06T06:02:42Z</time></trkpt><trkpt lat="44.378571036831566" lon="9.072184319424245"><ele>36.0</ele><time>2026-04-06T06:02:43Z</time></trkpt><trkpt lat="44.37857321669748" lon="9.071992118825102"><ele>35.5</ele><time>2026-04-06T06:02:44Z</time></trkpt><trkpt lat="44.3785693672059" lon="9.071797174568193"><ele>35.0</ele><time>2026-04-06T06:02:45Z</time></trkpt><trkpt lat="44.37856696559202" lon="9.071605115079427"><ele>33.5</ele><time>2026-04-06T06:02:46Z</time></trkpt><trkpt lat="44.378571341096176" lon="9.071400184339497"><ele>32.0</ele><time>2026-04-06T06:02:47Z</time></trkpt><trkpt lat="44.37860388467578" lon="9.071217116507354"><ele>30.5</ele><time>2026-04-06T06:02:48Z</time></trkpt><trkpt lat="44.3786471344359" lon="9.071035857312443"><ele>29.0</ele><time>2026-04-06T06:02:49Z</time></trkpt><trkpt lat="44.37870207563562" lon="9.070857403013079"><ele>31.0</ele><time>2026-04-06T06:02:50Z</time></trkpt><trkpt lat="44.3787681702115" lon="9.070691729668283"><ele>33.0</ele><time>2026-04-06T06:02:51Z</time></trkpt><trkpt lat="44.378850690232646" lon="9.070536058765613"><ele>35.0</ele><time>2026-04-06T06:02:52Z</time></trkpt><trkpt lat="44.37894586180183" lon="9.070391083347817"><ele>37.0</ele><time>2026-04-06T06:02:53Z</time></trkpt><trkpt lat="44.37904459565444" lon="9.070256723843341"><ele>37.0</ele><time>2026-04-06T06:02:54Z</time></trkpt><trkpt lat="44.379147603139685" lon="9.070158856481758"><ele>37.0</ele><time>2026-04-06T06:02:55Z</time></trkpt><trkpt lat="44.37925773330833" lon="9.07005267299963"><ele>37.0</ele><time>2026-04-06T06:02:56Z</time></trkpt><trkpt lat="44.37934968246679" lon="9.069936211673687"><ele>37.0</ele><time>2026-04-06T06:02:57Z</time></trkpt><trkpt lat="44.379446396352485" lon="9.069808468172797"><ele>35.5</ele><time>2026-04-06T06:02:58Z</time></trkpt><trkpt lat="44.37953480856923" lon="9.069670030312013"><ele>34.0</ele><time>2026-04-06T06:02:59Z</time></trkpt><trkpt lat="44.37961458002206" lon="9.069522620931659"><ele>32.5</ele><time>2026-04-06T06:03:00Z</time></trkpt><trkpt lat="44.379685041545706" lon="9.069372476434724"><ele>31.0</ele><time>2026-04-06T06:03:01Z</time></trkpt><trkpt lat="44.379766789142465" lon="9.069231129267882"><ele>31.0</ele><time>2026-04-06T06:03:02Z</time></trkpt><trkpt lat="44.3798654133676" lon="9.069116537676482"><ele>31.0</ele><time>2026-04-06T06:03:03Z</time></trkpt><trkpt lat="44.37998112498107" lon="9.06901660096498"><ele>31.0</ele><time>2026-04-06T06:03:04Z</time></trkpt><trkpt lat="44.38009793109724" lon="9.068920572743334"><ele>31.0</ele><time>2026-04-06T06:03:05Z</time></trkpt><trkpt lat="44.380211215523836" lon="9.068812452489311"><ele>30.75</ele><time>2026-04-06T06:03:06Z</time></trkpt><trkpt lat="44.38029966841411" lon="9.068667775783737"><ele>30.5</ele><time>2026-04-06T06:03:07Z</time></trkpt><trkpt lat="44.380368416057586" lon="9.068499405001988"><ele>30.25</ele><time>2026-04-06T06:03:08Z</time></trkpt><trkpt lat="44.380409544070965" lon="9.068314813091023"><ele>30.0</ele><time>2026-04-06T06:03:09Z</time></trkpt><trkpt lat="44.380427979852925" lon="9.068122034528807"><ele>30.0</ele><time>2026-04-06T06:03:10Z</time></trkpt><trkpt lat="44.38042049936214" lon="9.067924414650324"><ele>30.0</ele><time>2026-04-06T06:03:11Z</time></trkpt><trkpt lat="44.3803893011917" lon="9.06773781419736"><ele>30.0</ele><time>2026-04-06T06:03:12Z</time></trkpt><trkpt lat="44.38033113912923" lon="9.067562792057112"><ele>30.0</ele><time>2026-04-06T06:03:13Z</time></trkpt><trkpt lat="44.380251868809545" lon="9.067401982959078"><ele>35.75</ele><time>2026-04-06T06:03:14Z</time></trkpt><trkpt lat="44.38016509091658" lon="9.067260759752052"><ele>41.5</ele><time>2026-04-06T06:03:15Z</time></trkpt><trkpt lat="44.38007256643393" lon="9.067130187729747"><ele>47.25</ele><time>2026-04-06T06:03:16Z</time></trkpt><trkpt lat="44.37998809003029" lon="9.06699333289458"><ele>53.0</ele><time>2026-04-06T06:03:17Z</time></trkpt><trkpt lat="44.37990637281195" lon="9.066858083388238"><ele>53.0</ele><time>2026-04-06T06:03:18Z</time></trkpt><trkpt lat="44.37980781996863" lon="9.066687769568315"><ele>53.0</ele><time>2026-04-06T06:03:19Z</time></trkpt><trkpt lat="44.37971785676944" lon="9.066541194560925"><ele>53.0</ele><time>2026-04-06T06:03:20Z</time></trkpt><trkpt lat="44.37962611448846" lon="9.066387711648924"><ele>53.0</ele><time>2026-04-06T06:03:21Z</time></trkpt><trkpt lat="44.379527716429386" lon="9.066245058524013"><ele>48.0</ele><time>2026-04-06T06:03:22Z</time></trkpt><trkpt lat="44.37943269436521" lon="9.066099924575571"><ele>43.0</ele><time>2026-04-06T06:03:23Z</time></trkpt><trkpt lat="44.37937853971795" lon="9.065907996734952"><ele>38.0</ele><time>2026-04-06T06:03:24Z</time></trkpt><trkpt lat="44.379300325160735" lon="9.065764378976656"><ele>33.0</ele><time>2026-04-06T06:03:25Z</time></trkpt><trkpt lat="44.37928506996369" lon="9.065583851519294"><ele>32.75</ele><time>2026-04-06T06:03:26Z</time></trkpt><trkpt lat="44.37928694431216" lon="9.065393874042433"><ele>32.5</ele><time>2026-04-06T06:03:27Z</time></trkpt><trkpt lat="44.37929359785061" lon="9.06521191799423"><ele>32.25</ele><time>2026-04-06T06:03:28Z</time></trkpt><trkpt lat="44.37929525606568" lon="9.065021699066037"><ele>32.0</ele><time>2026-04-06T06:03:29Z</time></trkpt><trkpt lat="44.379298039476765" lon="9.064831699866584"><ele>32.0</ele><time>2026-04-06T06:03:30Z</time></trkpt><trkpt lat="44.37927663566056" lon="9.064636231014669"><ele>32.0</ele><time>2026-04-06T06:03:30.999Z</time></trkpt><trkpt lat="44.379265521598406" lon="9.064441887350837"><ele>32.0</ele><time>2026-04-06T06:03:31.999Z</time></trkpt><trkpt lat="44.379259937469094" lon="9.064233338047284"><ele>32.0</ele><time>2026-04-06T06:03:32.999Z</time></trkpt><trkpt lat="44.37927009740046" lon="9.064037554321638"><ele>31.75</ele><time>2026-04-06T06:03:33.999Z</time></trkpt><trkpt lat="44.37929397095133" lon="9.063840723193001"><ele>31.5</ele><time>2026-04-06T06:03:34.999Z</time></trkpt><trkpt lat="44.37933146191284" lon="9.063643465905784"><ele>31.25</ele><time>2026-04-06T06:03:35.999Z</time></trkpt><trkpt lat="44.37935828570937" lon="9.063444393829853"><ele>31.0</ele><time>2026-04-06T06:03:36.999Z</time></trkpt><trkpt lat="44.379383155973485" lon="9.063256557941221"><ele>29.5</ele><time>2026-04-06T06:03:37.999Z</time></trkpt><trkpt lat="44.379410831393535" lon="9.063057900568397"><ele>28.0</ele><time>2026-04-06T06:03:38.999Z</time></trkpt><trkpt lat="44.37943831497374" lon="9.062868706972266"><ele>26.5</ele><time>2026-04-06T06:03:39.999Z</time></trkpt><trkpt lat="44.379475336250756" lon="9.062675283969662"><ele>25.0</ele><time>2026-04-06T06:03:40.999Z</time></trkpt><trkpt lat="44.379527154604325" lon="9.062494012987132"><ele>22.25</ele><time>2026-04-06T06:03:41.999Z</time></trkpt><trkpt lat="44.37960058820158" lon="9.06232488478806"><ele>19.5</ele><time>2026-04-06T06:03:42.999Z</time></trkpt><trkpt lat="44.379691873345195" lon="9.062175634827746"><ele>16.75</ele><time>2026-04-06T06:03:43.999Z</time></trkpt><trkpt lat="44.37978993419277" lon="9.062036604271853"><ele>14.0</ele><time>2026-04-06T06:03:44.999Z</time></trkpt><trkpt lat="44.37989115396172" lon="9.061921012608266"><ele>19.5</ele><time>2026-04-06T06:03:45.999Z</time></trkpt><trkpt lat="44.37998096296034" lon="9.061784613100134"><ele>25.0</ele><time>2026-04-06T06:03:46.999Z</time></trkpt><trkpt lat="44.38005296381484" lon="9.061631833957843"><ele>30.5</ele><time>2026-04-06T06:03:47.999Z</time></trkpt><trkpt lat="44.38010589649159" lon="9.061451347612792"><ele>36.0</ele><time>2026-04-06T06:03:48.999Z</time></trkpt><trkpt lat="44.380150006977615" lon="9.061272704948136"><ele>36.0</ele><time>2026-04-06T06:03:49.999Z</time></trkpt><trkpt lat="44.380179324212925" lon="9.061085759240394"><ele>36.0</ele><time>2026-04-06T06:03:50.999Z</time></trkpt><trkpt lat="44.380202834625905" lon="9.060897559549542"><ele>36.0</ele><time>2026-04-06T06:03:51.999Z</time></trkpt><trkpt lat="44.38023209867205" lon="9.06071878476292"><ele>36.0</ele><time>2026-04-06T06:03:52.999Z</time></trkpt><trkpt lat="44.38026844588666" lon="9.060544218732902"><ele>36.25</ele><time>2026-04-06T06:03:53.999Z</time></trkpt><trkpt lat="44.38029178370976" lon="9.060369778160444"><ele>36.5</ele><time>2026-04-06T06:03:54.999Z</time></trkpt><trkpt lat="44.38029886291778" lon="9.060186441697825"><ele>36.75</ele><time>2026-04-06T06:03:55.999Z</time></trkpt><trkpt lat="44.380302668800645" lon="9.06000417162377"><ele>37.0</ele><time>2026-04-06T06:03:56.999Z</time></trkpt><trkpt lat="44.38030304867591" lon="9.059821953116352"><ele>35.75</ele><time>2026-04-06T06:03:57.999Z</time></trkpt><trkpt lat="44.380301275518384" lon="9.059642901681523"><ele>34.5</ele><time>2026-04-06T06:03:58.999Z</time></trkpt><trkpt lat="44.38029696188067" lon="9.059459846531103"><ele>33.25</ele><time>2026-04-06T06:03:59.999Z</time></trkpt><trkpt lat="44.38030698627135" lon="9.059275766044134"><ele>32.0</ele><time>2026-04-06T06:04:00.999Z</time></trkpt><trkpt lat="44.380321488083325" lon="9.059086111677743"><ele>28.25</ele><time>2026-04-06T06:04:01.999Z</time></trkpt><trkpt lat="44.38036611244796" lon="9.058888405400099"><ele>24.5</ele><time>2026-04-06T06:04:02.999Z</time></trkpt><trkpt lat="44.38041605575352" lon="9.05869454590222"><ele>20.75</ele><time>2026-04-06T06:04:03.999Z</time></trkpt><trkpt lat="44.38046643714344" lon="9.058508909726106"><ele>17.0</ele><time>2026-04-06T06:04:04.999Z</time></trkpt><trkpt lat="44.380508842011494" lon="9.058319482386342"><ele>26.25</ele><time>2026-04-06T06:04:05.999Z</time></trkpt><trkpt lat="44.380531199222155" lon="9.058125882839164"><ele>35.5</ele><time>2026-04-06T06:04:06.999Z</time></trkpt><trkpt lat="44.38054438912793" lon="9.057924008032458"><ele>44.75</ele><time>2026-04-06T06:04:07.999Z</time></trkpt><trkpt lat="44.3805421076303" lon="9.057730313445457"><ele>54.0</ele><time>2026-04-06T06:04:08.999Z</time></trkpt><trkpt lat="44.38053123462864" lon="9.05753617305892"><ele>50.75</ele><time>2026-04-06T06:04:09.999Z</time></trkpt><trkpt lat="44.38052746989275" lon="9.057343131343766"><ele>47.5</ele><time>2026-04-06T06:04:10.999Z</time></trkpt><trkpt lat="44.38052199775801" lon="9.057159694623742"><ele>44.25</ele><time>2026-04-06T06:04:11.999Z</time></trkpt><trkpt lat="44.380520741346665" lon="9.056970668239458"><ele>41.0</ele><time>2026-04-06T06:04:12.999Z</time></trkpt><trkpt lat="44.38052238789557" lon="9.056789399515559"><ele>41.0</ele><time>2026-04-06T06:04:13.999Z</time></trkpt><trkpt lat="44.38053110722065" lon="9.056622485903347"><ele>41.0</ele><time>2026-04-06T06:04:14.999Z</time></trkpt><trkpt lat="44.380553676762204" lon="9.056456219978761"><ele>41.0</ele><time>2026-04-06T06:04:15.999Z</time></trkpt><trkpt lat="44.38062599762529" lon="9.05631630666272"><ele>41.0</ele><time>2026-04-06T06:04:16.999Z</time></trkpt><trkpt lat="44.38070846188385" lon="9.056190984285397"><ele>39.33333333333333</ele><time>2026-04-06T06:04:17.999Z</time></trkpt><trkpt lat="44.380799347497145" lon="9.05611162476337"><ele>37.666666666666664</ele><time>2026-04-06T06:04:18.999Z</time></trkpt><trkpt lat="44.38089678880985" lon="9.05606112787689"><ele>36.0</ele><time>2026-04-06T06:04:19.999Z</time></trkpt><trkpt lat="44.38097379367473" lon="9.056035611269463"><ele>34.333333333333336</ele><time>2026-04-06T06:04:20.999Z</time></trkpt><trkpt lat="44.38104346061418" lon="9.055996143744231"><ele>32.66666666666667</ele><time>2026-04-06T06:04:21.999Z</time></trkpt><trkpt lat="44.38109062036692" lon="9.055923637021978"><ele>31.0</ele><time>2026-04-06T06:04:23.999Z</time></trkpt><trkpt lat="44.38113232863124" lon="9.055833202304964"><ele>31.571428571428573</ele><time>2026-04-06T06:04:26.999Z</time></trkpt><trkpt lat="44.381167173033624" lon="9.055757606891635"><ele>32.142857142857146</ele><time>2026-04-06T06:04:27.999Z</time></trkpt><trkpt lat="44.381195016469604" lon="9.055676374665683"><ele>32.714285714285715</ele><time>2026-04-06T06:04:29Z</time></trkpt><trkpt lat="44.38121220116394" lon="9.055575842441264"><ele>33.285714285714285</ele><time>2026-04-06T06:04:30Z</time></trkpt><trkpt lat="44.38120765513595" lon="9.05547243568399"><ele>33.85714285714286</ele><time>2026-04-06T06:04:31Z</time></trkpt><trkpt lat="44.381188625466535" lon="9.055358301835888"><ele>34.42857142857143</ele><time>2026-04-06T06:04:32Z</time></trkpt><trkpt lat="44.381159005356956" lon="9.055248849038078"><ele>35.0</ele><time>2026-04-06T06:04:33Z</time></trkpt><trkpt lat="44.38110853472751" lon="9.0551522159146"><ele>35.0</ele><time>2026-04-06T06:04:34Z</time></trkpt><trkpt lat="44.381045147981276" lon="9.055067549440661"><ele>35.0</ele><time>2026-04-06T06:04:35Z</time></trkpt><trkpt lat="44.380985497577825" lon="9.054966697566986"><ele>35.0</ele><time>2026-04-06T06:04:36Z</time></trkpt><trkpt lat="44.380940533836046" lon="9.054849482611894"><ele>35.0</ele><time>2026-04-06T06:04:37Z</time></trkpt><trkpt lat="44.38090687805909" lon="9.054701628908601"><ele>35.0</ele><time>2026-04-06T06:04:38Z</time></trkpt><trkpt lat="44.38089309616687" lon="9.054543502133898"><ele>35.6</ele><time>2026-04-06T06:04:39Z</time></trkpt><trkpt lat="44.38089679665892" lon="9.054391888032198"><ele>36.2</ele><time>2026-04-06T06:04:40Z</time></trkpt><trkpt lat="44.38092841300566" lon="9.054251244562776"><ele>36.8</ele><time>2026-04-06T06:04:41Z</time></trkpt><trkpt lat="44.3809821318866" lon="9.054116599912481"><ele>37.4</ele><time>2026-04-06T06:04:42Z</time></trkpt><trkpt lat="44.381058834702586" lon="9.053977698313858"><ele>38.0</ele><time>2026-04-06T06:04:43Z</time></trkpt><trkpt lat="44.3811509157119" lon="9.053863875091162"><ele>38.8</ele><time>2026-04-06T06:04:44Z</time></trkpt><trkpt lat="44.38124900098029" lon="9.053788367421038"><ele>39.599999999999994</ele><time>2026-04-06T06:04:45Z</time></trkpt><trkpt lat="44.381357135966084" lon="9.053757738866024"><ele>40.400000000000006</ele><time>2026-04-06T06:04:46Z</time></trkpt><trkpt lat="44.3814641416985" lon="9.053750539430196"><ele>41.2</ele><time>2026-04-06T06:04:47Z</time></trkpt><trkpt lat="44.38156585690654" lon="9.05373804302033"><ele>42.0</ele><time>2026-04-06T06:04:48Z</time></trkpt><trkpt lat="44.38166847807192" lon="9.053708245875551"><ele>42.0</ele><time>2026-04-06T06:04:49Z</time></trkpt><trkpt lat="44.38177337106214" lon="9.053650077143214"><ele>42.0</ele><time>2026-04-06T06:04:50Z</time></trkpt><trkpt lat="44.38188182299768" lon="9.05357329648683"><ele>42.0</ele><time>2026-04-06T06:04:51Z</time></trkpt><trkpt lat="44.38197725704037" lon="9.053472792368455"><ele>42.0</ele><time>2026-04-06T06:04:52Z</time></trkpt><trkpt lat="44.38205953637524" lon="9.053347480891716"><ele>41.5</ele><time>2026-04-06T06:04:53Z</time></trkpt><trkpt lat="44.38212482346649" lon="9.053203278871159"><ele>41.0</ele><time>2026-04-06T06:04:54Z</time></trkpt><trkpt lat="44.3821834478805" lon="9.053048800325353"><ele>40.5</ele><time>2026-04-06T06:04:55Z</time></trkpt><trkpt lat="44.38223966516389" lon="9.052899848430144"><ele>40.0</ele><time>2026-04-06T06:04:56Z</time></trkpt><trkpt lat="44.38229724299547" lon="9.052775285794409"><ele>42.5</ele><time>2026-04-06T06:04:57Z</time></trkpt><trkpt lat="44.38236101849876" lon="9.052637457763744"><ele>45.0</ele><time>2026-04-06T06:04:58Z</time></trkpt><trkpt lat="44.38241824392904" lon="9.052496766069394"><ele>47.5</ele><time>2026-04-06T06:04:59Z</time></trkpt><trkpt lat="44.382478879813675" lon="9.05235464713973"><ele>50.0</ele><time>2026-04-06T06:05:00Z</time></trkpt><trkpt lat="44.382540600429046" lon="9.052210682488742"><ele>50.0</ele><time>2026-04-06T06:05:01Z</time></trkpt><trkpt lat="44.38260472113875" lon="9.05206127801616"><ele>50.0</ele><time>2026-04-06T06:05:02Z</time></trkpt><trkpt lat="44.382668846001124" lon="9.051907842926948"><ele>50.0</ele><time>2026-04-06T06:05:03Z</time></trkpt><trkpt lat="44.38272890419967" lon="9.051762357001667"><ele>50.0</ele><time>2026-04-06T06:05:04Z</time></trkpt><trkpt lat="44.3827944483645" lon="9.051618468251597"><ele>49.75</ele><time>2026-04-06T06:05:05Z</time></trkpt><trkpt lat="44.382852463906666" lon="9.051476867767486"><ele>49.5</ele><time>2026-04-06T06:05:06Z</time></trkpt><trkpt lat="44.38291887512515" lon="9.051326730988148"><ele>49.25</ele><time>2026-04-06T06:05:07Z</time></trkpt><trkpt lat="44.38298446264716" lon="9.051175591056218"><ele>49.0</ele><time>2026-04-06T06:05:08Z</time></trkpt><trkpt lat="44.38304789152013" lon="9.051022545643372"><ele>54.25</ele><time>2026-04-06T06:05:09Z</time></trkpt><trkpt lat="44.38310573542682" lon="9.050880054147834"><ele>59.5</ele><time>2026-04-06T06:05:10Z</time></trkpt><trkpt lat="44.3831688256112" lon="9.050736945195961"><ele>64.75</ele><time>2026-04-06T06:05:11Z</time></trkpt><trkpt lat="44.3832168115081" lon="9.050586794160601"><ele>70.0</ele><time>2026-04-06T06:05:12Z</time></trkpt><trkpt lat="44.38325301362165" lon="9.050408543365213"><ele>70.0</ele><time>2026-04-06T06:05:13Z</time></trkpt><trkpt lat="44.38326954320643" lon="9.050228054442833"><ele>70.0</ele><time>2026-04-06T06:05:14Z</time></trkpt><trkpt lat="44.3832669783026" lon="9.050048069418997"><ele>70.0</ele><time>2026-04-06T06:05:15Z</time></trkpt><trkpt lat="44.38324961949061" lon="9.049865410357304"><ele>70.0</ele><time>2026-04-06T06:05:16Z</time></trkpt><trkpt lat="44.38322599103069" lon="9.049689582783332"><ele>70.33333333333333</ele><time>2026-04-06T06:05:17Z</time></trkpt><trkpt lat="44.383202505700034" lon="9.04956349964391"><ele>70.66666666666666</ele><time>2026-04-06T06:05:18Z</time></trkpt><trkpt lat="44.38319390867511" lon="9.049453355551739"><ele>71.0</ele><time>2026-04-06T06:05:20Z</time></trkpt><trkpt lat="44.38319283622212" lon="9.049347708711208"><ele>71.33333333333333</ele><time>2026-04-06T06:05:24Z</time></trkpt><trkpt lat="44.38319339871056" lon="9.04918844794356"><ele>71.66666666666667</ele><time>2026-04-06T06:05:25.999Z</time></trkpt><trkpt lat="44.38320383999655" lon="9.04907114622965"><ele>72.0</ele><time>2026-04-06T06:05:26.999Z</time></trkpt><trkpt lat="44.38322632333837" lon="9.048969016078708"><ele>72.0</ele><time>2026-04-06T06:05:27.999Z</time></trkpt><trkpt lat="44.3832510831707" lon="9.048855151233026"><ele>72.0</ele><time>2026-04-06T06:05:28.999Z</time></trkpt><trkpt lat="44.38327814933435" lon="9.048734290051213"><ele>72.0</ele><time>2026-04-06T06:05:29.999Z</time></trkpt><trkpt lat="44.38331443222729" lon="9.04861112060337"><ele>72.0</ele><time>2026-04-06T06:05:30.999Z</time></trkpt><trkpt lat="44.38335272057596" lon="9.048479614354763"><ele>72.0</ele><time>2026-04-06T06:05:31.999Z</time></trkpt><trkpt lat="44.38338533128379" lon="9.048342877497054"><ele>72.0</ele><time>2026-04-06T06:05:32.999Z</time></trkpt><trkpt lat="44.38341238161274" lon="9.048234234399066"><ele>72.0</ele><time>2026-04-06T06:05:33.999Z</time></trkpt><trkpt lat="44.38344782546285" lon="9.048109993238949"><ele>72.0</ele><time>2026-04-06T06:05:34.999Z</time></trkpt><trkpt lat="44.383485446653694" lon="9.047983348226122"><ele>72.0</ele><time>2026-04-06T06:05:35.999Z</time></trkpt><trkpt lat="44.383526210558884" lon="9.047848084586557"><ele>72.0</ele><time>2026-04-06T06:05:36.999Z</time></trkpt><trkpt lat="44.38355992287817" lon="9.047718003832145"><ele>72.0</ele><time>2026-04-06T06:05:37.999Z</time></trkpt><trkpt lat="44.383590604755426" lon="9.047587284421551"><ele>72.0</ele><time>2026-04-06T06:05:38.999Z</time></trkpt><trkpt lat="44.3836173221592" lon="9.047450534504206"><ele>72.0</ele><time>2026-04-06T06:05:39.999Z</time></trkpt><trkpt lat="44.38364348376675" lon="9.047309923512312"><ele>72.0</ele><time>2026-04-06T06:05:40.999Z</time></trkpt><trkpt lat="44.383668905877414" lon="9.047163192604906"><ele>72.0</ele><time>2026-04-06T06:05:41.999Z</time></trkpt><trkpt lat="44.38369191615505" lon="9.047019143006066"><ele>71.25</ele><time>2026-04-06T06:05:42.999Z</time></trkpt><trkpt lat="44.38371176677695" lon="9.046866350743592"><ele>70.5</ele><time>2026-04-06T06:05:43.999Z</time></trkpt><trkpt lat="44.38373051959591" lon="9.046707527426"><ele>69.75</ele><time>2026-04-06T06:05:44.999Z</time></trkpt><trkpt lat="44.38375248020124" lon="9.046548209309302"><ele>69.0</ele><time>2026-04-06T06:05:45.999Z</time></trkpt><trkpt lat="44.38377883037543" lon="9.046388012968201"><ele>69.25</ele><time>2026-04-06T06:05:46.999Z</time></trkpt><trkpt lat="44.38380144385109" lon="9.046223547669971"><ele>69.5</ele><time>2026-04-06T06:05:47.999Z</time></trkpt><trkpt lat="44.383818035231634" lon="9.046058003388836"><ele>69.75</ele><time>2026-04-06T06:05:48.999Z</time></trkpt><trkpt lat="44.38384342007592" lon="9.04589195946273"><ele>70.0</ele><time>2026-04-06T06:05:49.999Z</time></trkpt><trkpt lat="44.38388432129836" lon="9.04574444054461"><ele>70.0</ele><time>2026-04-06T06:05:50.999Z</time></trkpt><trkpt lat="44.383927535693374" lon="9.045611245774921"><ele>70.0</ele><time>2026-04-06T06:05:51.999Z</time></trkpt><trkpt lat="44.38397816017419" lon="9.045476679996865"><ele>70.0</ele><time>2026-04-06T06:05:52.999Z</time></trkpt><trkpt lat="44.384035204890694" lon="9.045347488117375"><ele>70.0</ele><time>2026-04-06T06:05:53.999Z</time></trkpt><trkpt lat="44.38409333614598" lon="9.04520978449191"><ele>70.0</ele><time>2026-04-06T06:05:54.999Z</time></trkpt><trkpt lat="44.3841510306104" lon="9.045069564484713"><ele>67.5</ele><time>2026-04-06T06:05:55.999Z</time></trkpt><trkpt lat="44.38421076833942" lon="9.044915280517397"><ele>65.0</ele><time>2026-04-06T06:05:56.999Z</time></trkpt><trkpt lat="44.38427018778275" lon="9.044755815672485"><ele>62.5</ele><time>2026-04-06T06:05:57.999Z</time></trkpt><trkpt lat="44.38432970856514" lon="9.044597314187495"><ele>60.0</ele><time>2026-04-06T06:05:58.999Z</time></trkpt><trkpt lat="44.38439227963866" lon="9.044440216602121"><ele>60.0</ele><time>2026-04-06T06:05:59.999Z</time></trkpt><trkpt lat="44.38444684766437" lon="9.044275598818906"><ele>60.0</ele><time>2026-04-06T06:06:00.999Z</time></trkpt><trkpt lat="44.38450069189306" lon="9.044109403735158"><ele>60.0</ele><time>2026-04-06T06:06:01.999Z</time></trkpt><trkpt lat="44.384563712098895" lon="9.043952593611165"><ele>60.0</ele><time>2026-04-06T06:06:02.999Z</time></trkpt><trkpt lat="44.38463741028396" lon="9.04380511524717"><ele>60.0</ele><time>2026-04-06T06:06:03.999Z</time></trkpt><trkpt lat="44.38472600475136" lon="9.043673704858875"><ele>60.0</ele><time>2026-04-06T06:06:04.999Z</time></trkpt><trkpt lat="44.38482054267838" lon="9.043552792823725"><ele>60.0</ele><time>2026-04-06T06:06:05.999Z</time></trkpt><trkpt lat="44.38490906974109" lon="9.043432180153694"><ele>60.0</ele><time>2026-04-06T06:06:06.999Z</time></trkpt><trkpt lat="44.384986486840596" lon="9.043294465142043"><ele>60.0</ele><time>2026-04-06T06:06:07.999Z</time></trkpt><trkpt lat="44.38503717302985" lon="9.04314324689434"><ele>60.0</ele><time>2026-04-06T06:06:08.999Z</time></trkpt><trkpt lat="44.38508447319765" lon="9.042977711064232"><ele>60.0</ele><time>2026-04-06T06:06:09.999Z</time></trkpt><trkpt lat="44.38513686000994" lon="9.042828451910482"><ele>60.0</ele><time>2026-04-06T06:06:10.999Z</time></trkpt><trkpt lat="44.385190176533946" lon="9.042683339894795"><ele>60.0</ele><time>2026-04-06T06:06:11.999Z</time></trkpt><trkpt lat="44.38524049175718" lon="9.042544319595068"><ele>60.0</ele><time>2026-04-06T06:06:12.999Z</time></trkpt><trkpt lat="44.3852897700333" lon="9.042398661029386"><ele>60.0</ele><time>2026-04-06T06:06:13.999Z</time></trkpt><trkpt lat="44.38533948300839" lon="9.042256849314466"><ele>60.0</ele><time>2026-04-06T06:06:14.999Z</time></trkpt><trkpt lat="44.38538772925867" lon="9.04210554985335"><ele>58.5</ele><time>2026-04-06T06:06:15.999Z</time></trkpt><trkpt lat="44.38542558142268" lon="9.041940902259647"><ele>57.0</ele><time>2026-04-06T06:06:16.999Z</time></trkpt><trkpt lat="44.3854604500608" lon="9.041766444606978"><ele>55.5</ele><time>2026-04-06T06:06:17.999Z</time></trkpt><trkpt lat="44.385482609438014" lon="9.041597993538511"><ele>54.0</ele><time>2026-04-06T06:06:18.999Z</time></trkpt><trkpt lat="44.38549692223751" lon="9.04143279735847"><ele>52.5</ele><time>2026-04-06T06:06:19.999Z</time></trkpt><trkpt lat="44.385502579640445" lon="9.041265801026006"><ele>51.0</ele><time>2026-04-06T06:06:20.999Z</time></trkpt><trkpt lat="44.38550146722282" lon="9.041088462851109"><ele>49.5</ele><time>2026-04-06T06:06:21.999Z</time></trkpt><trkpt lat="44.385490117098925" lon="9.040912973179399"><ele>48.0</ele><time>2026-04-06T06:06:22.999Z</time></trkpt><trkpt lat="44.38547130429983" lon="9.040745259059571"><ele>48.0</ele><time>2026-04-06T06:06:23.999Z</time></trkpt><trkpt lat="44.385441026542956" lon="9.040574201310468"><ele>48.0</ele><time>2026-04-06T06:06:24.999Z</time></trkpt><trkpt lat="44.38540373649219" lon="9.040407255541592"><ele>48.0</ele><time>2026-04-06T06:06:25.999Z</time></trkpt><trkpt lat="44.38536160354355" lon="9.040240140511788"><ele>48.0</ele><time>2026-04-06T06:06:26.999Z</time></trkpt><trkpt lat="44.38532745031891" lon="9.040076406817022"><ele>48.0</ele><time>2026-04-06T06:06:27.999Z</time></trkpt><trkpt lat="44.38529432934306" lon="9.039916556482844"><ele>48.0</ele><time>2026-04-06T06:06:28.999Z</time></trkpt><trkpt lat="44.38525021510254" lon="9.03975274207583"><ele>48.0</ele><time>2026-04-06T06:06:29.999Z</time></trkpt><trkpt lat="44.38520754007797" lon="9.039587449404063"><ele>48.0</ele><time>2026-04-06T06:06:30.999Z</time></trkpt><trkpt lat="44.38517313528644" lon="9.039412231217497"><ele>48.0</ele><time>2026-04-06T06:06:31.999Z</time></trkpt><trkpt lat="44.38513912130219" lon="9.039243505468523"><ele>48.0</ele><time>2026-04-06T06:06:32.999Z</time></trkpt><trkpt lat="44.385098061106845" lon="9.039071757937066"><ele>48.0</ele><time>2026-04-06T06:06:33.999Z</time></trkpt><trkpt lat="44.385063852522386" lon="9.038897250092592"><ele>48.0</ele><time>2026-04-06T06:06:35Z</time></trkpt><trkpt lat="44.385037835676904" lon="9.038716855299251"><ele>47.25</ele><time>2026-04-06T06:06:36Z</time></trkpt><trkpt lat="44.38503157876648" lon="9.038542243617604"><ele>46.5</ele><time>2026-04-06T06:06:37Z</time></trkpt><trkpt lat="44.3850465679436" lon="9.038378020215394"><ele>45.75</ele><time>2026-04-06T06:06:38Z</time></trkpt><trkpt lat="44.38506570672077" lon="9.038211251012894"><ele>45.0</ele><time>2026-04-06T06:06:39Z</time></trkpt><trkpt lat="44.38508888263275" lon="9.038043135511781"><ele>43.5</ele><time>2026-04-06T06:06:40Z</time></trkpt><trkpt lat="44.385118412493185" lon="9.037872522637446"><ele>42.0</ele><time>2026-04-06T06:06:41Z</time></trkpt><trkpt lat="44.38514012638843" lon="9.037695923181838"><ele>40.5</ele><time>2026-04-06T06:06:42Z</time></trkpt><trkpt lat="44.385158080888935" lon="9.03751427367127"><ele>39.0</ele><time>2026-04-06T06:06:43Z</time></trkpt><trkpt lat="44.3851827968831" lon="9.037336154531166"><ele>38.5</ele><time>2026-04-06T06:06:44Z</time></trkpt><trkpt lat="44.385207181442816" lon="9.037156181129895"><ele>38.0</ele><time>2026-04-06T06:06:45Z</time></trkpt><trkpt lat="44.38523072182526" lon="9.036972593128848"><ele>37.5</ele><time>2026-04-06T06:06:46Z</time></trkpt><trkpt lat="44.38525219851061" lon="9.03679614637616"><ele>37.0</ele><time>2026-04-06T06:06:47Z</time></trkpt><trkpt lat="44.38528790812568" lon="9.036621587108819"><ele>35.5</ele><time>2026-04-06T06:06:48Z</time></trkpt><trkpt lat="44.38533701884077" lon="9.036451322061644"><ele>34.0</ele><time>2026-04-06T06:06:49Z</time></trkpt><trkpt lat="44.38539727811992" lon="9.036264813331519"><ele>32.5</ele><time>2026-04-06T06:06:50Z</time></trkpt><trkpt lat="44.38545969124761" lon="9.036088481723136"><ele>31.0</ele><time>2026-04-06T06:06:51Z</time></trkpt><trkpt lat="44.385507918296135" lon="9.035913230316158"><ele>33.0</ele><time>2026-04-06T06:06:52Z</time></trkpt><trkpt lat="44.38554810098162" lon="9.035744906889594"><ele>35.0</ele><time>2026-04-06T06:06:53Z</time></trkpt><trkpt lat="44.3855747586344" lon="9.035574361511596"><ele>37.0</ele><time>2026-04-06T06:06:54Z</time></trkpt><trkpt lat="44.385586192726755" lon="9.035405137698564"><ele>39.0</ele><time>2026-04-06T06:06:55Z</time></trkpt><trkpt lat="44.38558811852067" lon="9.035237386811692"><ele>39.0</ele><time>2026-04-06T06:06:56Z</time></trkpt><trkpt lat="44.38559280477778" lon="9.035066795207756"><ele>39.0</ele><time>2026-04-06T06:06:57Z</time></trkpt><trkpt lat="44.38560673517133" lon="9.034893375356043"><ele>39.0</ele><time>2026-04-06T06:06:58Z</time></trkpt><trkpt lat="44.38563255684572" lon="9.034708224275986"><ele>39.0</ele><time>2026-04-06T06:06:59Z</time></trkpt><trkpt lat="44.38566625131815" lon="9.0345329616792"><ele>36.0</ele><time>2026-04-06T06:07:00Z</time></trkpt><trkpt lat="44.38571099160196" lon="9.034359984704773"><ele>33.0</ele><time>2026-04-06T06:07:01Z</time></trkpt><trkpt lat="44.38575393093124" lon="9.034189058466806"><ele>30.0</ele><time>2026-04-06T06:07:02Z</time></trkpt><trkpt lat="44.38578977802953" lon="9.034022480342966"><ele>27.0</ele><time>2026-04-06T06:07:03Z</time></trkpt><trkpt lat="44.38582495572053" lon="9.033855236946481"><ele>26.200000000000003</ele><time>2026-04-06T06:07:04Z</time></trkpt><trkpt lat="44.38586153570246" lon="9.033696420082679"><ele>25.400000000000002</ele><time>2026-04-06T06:07:05Z</time></trkpt><trkpt lat="44.38588379238737" lon="9.033539469033851"><ele>24.6</ele><time>2026-04-06T06:07:06Z</time></trkpt><trkpt lat="44.38588595961306" lon="9.033389383521705"><ele>23.799999999999997</ele><time>2026-04-06T06:07:07Z</time></trkpt><trkpt lat="44.38587110824368" lon="9.03324382354416"><ele>23.0</ele><time>2026-04-06T06:07:08Z</time></trkpt><trkpt lat="44.38583048469923" lon="9.033106135368005"><ele>21.799999999999997</ele><time>2026-04-06T06:07:09Z</time></trkpt><trkpt lat="44.38578788763455" lon="9.032978811532244"><ele>20.599999999999998</ele><time>2026-04-06T06:07:10Z</time></trkpt><trkpt lat="44.38572314490401" lon="9.032870066602364"><ele>19.4</ele><time>2026-04-06T06:07:11Z</time></trkpt><trkpt lat="44.38564246766785" lon="9.032770537284655"><ele>18.2</ele><time>2026-04-06T06:07:12Z</time></trkpt><trkpt lat="44.38554719168268" lon="9.032677453147206"><ele>17.0</ele><time>2026-04-06T06:07:13Z</time></trkpt><trkpt lat="44.38542898566457" lon="9.032613447266183"><ele>17.0</ele><time>2026-04-06T06:07:14Z</time></trkpt><trkpt lat="44.385305137555704" lon="9.032558041591097"><ele>17.0</ele><time>2026-04-06T06:07:15Z</time></trkpt><trkpt lat="44.38517996725362" lon="9.0325107477751"><ele>17.0</ele><time>2026-04-06T06:07:16Z</time></trkpt><trkpt lat="44.385052955051215" lon="9.032451313494029"><ele>17.0</ele><time>2026-04-06T06:07:17Z</time></trkpt><trkpt lat="44.38492763169961" lon="9.032396013939078"><ele>16.75</ele><time>2026-04-06T06:07:18Z</time></trkpt><trkpt lat="44.38480887513877" lon="9.03233448753939"><ele>16.5</ele><time>2026-04-06T06:07:19Z</time></trkpt><trkpt lat="44.38470048954445" lon="9.03225435605559"><ele>16.25</ele><time>2026-04-06T06:07:20Z</time></trkpt><trkpt lat="44.38460529785189" lon="9.032138792255775"><ele>16.0</ele><time>2026-04-06T06:07:21Z</time></trkpt><trkpt lat="44.3845265658045" lon="9.032001156145206"><ele>16.0</ele><time>2026-04-06T06:07:22Z</time></trkpt><trkpt lat="44.3844670133903" lon="9.031841795105066"><ele>16.0</ele><time>2026-04-06T06:07:23Z</time></trkpt><trkpt lat="44.38443363981926" lon="9.031675089238387"><ele>16.0</ele><time>2026-04-06T06:07:24Z</time></trkpt><trkpt lat="44.38442780719306" lon="9.031490196620227"><ele>16.0</ele><time>2026-04-06T06:07:25Z</time></trkpt><trkpt lat="44.384432442419644" lon="9.031307724638227"><ele>17.25</ele><time>2026-04-06T06:07:26Z</time></trkpt><trkpt lat="44.384431444321514" lon="9.031129466773013"><ele>18.5</ele><time>2026-04-06T06:07:27Z</time></trkpt><trkpt lat="44.3844249962079" lon="9.030947893708504"><ele>19.75</ele><time>2026-04-06T06:07:28Z</time></trkpt><trkpt lat="44.38441707841471" lon="9.030770669347522"><ele>21.0</ele><time>2026-04-06T06:07:29Z</time></trkpt><trkpt lat="44.38440098712776" lon="9.030598380359889"><ele>22.5</ele><time>2026-04-06T06:07:30Z</time></trkpt><trkpt lat="44.384379497018195" lon="9.030429094970826"><ele>24.0</ele><time>2026-04-06T06:07:30.999Z</time></trkpt><trkpt lat="44.384354312842504" lon="9.030258552033304"><ele>25.5</ele><time>2026-04-06T06:07:31.999Z</time></trkpt><trkpt lat="44.38433149736763" lon="9.030088353674545"><ele>27.0</ele><time>2026-04-06T06:07:32.999Z</time></trkpt><trkpt lat="44.384309934030725" lon="9.029917063950794"><ele>27.75</ele><time>2026-04-06T06:07:33.999Z</time></trkpt><trkpt lat="44.38429196004266" lon="9.029751272643686"><ele>28.5</ele><time>2026-04-06T06:07:34.999Z</time></trkpt><trkpt lat="44.38427209113114" lon="9.029579076756853"><ele>29.25</ele><time>2026-04-06T06:07:35.999Z</time></trkpt><trkpt lat="44.38424643343509" lon="9.029414407970245"><ele>30.0</ele><time>2026-04-06T06:07:36.999Z</time></trkpt><trkpt lat="44.384225426316924" lon="9.029241407592881"><ele>30.5</ele><time>2026-04-06T06:07:37.999Z</time></trkpt><trkpt lat="44.384196781700936" lon="9.029063182779806"><ele>31.0</ele><time>2026-04-06T06:07:38.999Z</time></trkpt><trkpt lat="44.38418073883136" lon="9.028890824985936"><ele>31.5</ele><time>2026-04-06T06:07:39.999Z</time></trkpt><trkpt lat="44.38416822930636" lon="9.02870890511736"><ele>32.0</ele><time>2026-04-06T06:07:40.999Z</time></trkpt><trkpt lat="44.38416765896546" lon="9.028524705831382"><ele>32.0</ele><time>2026-04-06T06:07:41.999Z</time></trkpt><trkpt lat="44.38417200508223" lon="9.028348468303058"><ele>32.0</ele><time>2026-04-06T06:07:42.999Z</time></trkpt><trkpt lat="44.38419201427456" lon="9.02818436152155"><ele>32.0</ele><time>2026-04-06T06:07:43.999Z</time></trkpt><trkpt lat="44.38421425707292" lon="9.027999564490235"><ele>32.0</ele><time>2026-04-06T06:07:44.999Z</time></trkpt><trkpt lat="44.38425624428797" lon="9.027833670680266"><ele>32.25</ele><time>2026-04-06T06:07:45.999Z</time></trkpt><trkpt lat="44.384302264747014" lon="9.027657360129863"><ele>32.5</ele><time>2026-04-06T06:07:46.999Z</time></trkpt><trkpt lat="44.38435017683608" lon="9.027490589573272"><ele>32.75</ele><time>2026-04-06T06:07:47.999Z</time></trkpt><trkpt lat="44.384403168309916" lon="9.027331038083348"><ele>33.0</ele><time>2026-04-06T06:07:48.999Z</time></trkpt><trkpt lat="44.38444900715901" lon="9.027171891185722"><ele>32.75</ele><time>2026-04-06T06:07:49.999Z</time></trkpt><trkpt lat="44.38449477830778" lon="9.027008825933615"><ele>32.5</ele><time>2026-04-06T06:07:50.999Z</time></trkpt><trkpt lat="44.384541664854474" lon="9.026851549147183"><ele>32.25</ele><time>2026-04-06T06:07:51.999Z</time></trkpt><trkpt lat="44.38458161184357" lon="9.026674426461101"><ele>32.0</ele><time>2026-04-06T06:07:52.999Z</time></trkpt><trkpt lat="44.38462789614101" lon="9.026508221301462"><ele>32.0</ele><time>2026-04-06T06:07:53.999Z</time></trkpt><trkpt lat="44.384671953239696" lon="9.026342149482605"><ele>32.0</ele><time>2026-04-06T06:07:54.999Z</time></trkpt><trkpt lat="44.384721448040146" lon="9.026178054699605"><ele>32.0</ele><time>2026-04-06T06:07:55.999Z</time></trkpt><trkpt lat="44.384769757325316" lon="9.026009421276363"><ele>32.0</ele><time>2026-04-06T06:07:56.999Z</time></trkpt><trkpt lat="44.3848176662591" lon="9.025828686839528"><ele>34.25</ele><time>2026-04-06T06:07:57.999Z</time></trkpt><trkpt lat="44.38487516674095" lon="9.025653556971532"><ele>36.5</ele><time>2026-04-06T06:07:58.999Z</time></trkpt><trkpt lat="44.38492468770322" lon="9.02547782535238"><ele>38.75</ele><time>2026-04-06T06:07:59.999Z</time></trkpt><trkpt lat="44.38497402256096" lon="9.02529830038727"><ele>41.0</ele><time>2026-04-06T06:08:00.999Z</time></trkpt><trkpt lat="44.38502237084734" lon="9.025121313714232"><ele>40.0</ele><time>2026-04-06T06:08:01.999Z</time></trkpt><trkpt lat="44.38507468169405" lon="9.024946908966436"><ele>39.0</ele><time>2026-04-06T06:08:02.999Z</time></trkpt><trkpt lat="44.38512273840591" lon="9.024779477087874"><ele>38.0</ele><time>2026-04-06T06:08:03.999Z</time></trkpt><trkpt lat="44.38516472219829" lon="9.024609521751534"><ele>37.0</ele><time>2026-04-06T06:08:04.999Z</time></trkpt><trkpt lat="44.38521232105311" lon="9.024445691049356"><ele>37.0</ele><time>2026-04-06T06:08:05.999Z</time></trkpt><trkpt lat="44.38524698861427" lon="9.024276472422107"><ele>37.0</ele><time>2026-04-06T06:08:06.999Z</time></trkpt><trkpt lat="44.38528923323014" lon="9.024122267158983"><ele>37.0</ele><time>2026-04-06T06:08:07.999Z</time></trkpt><trkpt lat="44.38531027168468" lon="9.023950655406566"><ele>37.0</ele><time>2026-04-06T06:08:08.999Z</time></trkpt><trkpt lat="44.385322508959206" lon="9.0237692758338"><ele>35.75</ele><time>2026-04-06T06:08:09.999Z</time></trkpt><trkpt lat="44.3853348483268" lon="9.02358751857356"><ele>34.5</ele><time>2026-04-06T06:08:10.999Z</time></trkpt><trkpt lat="44.38534272551972" lon="9.02340445435315"><ele>33.25</ele><time>2026-04-06T06:08:11.999Z</time></trkpt><trkpt lat="44.38535564194534" lon="9.023222939676371"><ele>32.0</ele><time>2026-04-06T06:08:12.999Z</time></trkpt><trkpt lat="44.38536580486194" lon="9.023052938983044"><ele>31.8</ele><time>2026-04-06T06:08:13.999Z</time></trkpt><trkpt lat="44.385379103990566" lon="9.022897393524493"><ele>31.6</ele><time>2026-04-06T06:08:14.999Z</time></trkpt><trkpt lat="44.38539113167302" lon="9.022733377813333"><ele>31.400000000000002</ele><time>2026-04-06T06:08:15.999Z</time></trkpt><trkpt lat="44.38541924986676" lon="9.022580739514792"><ele>31.200000000000003</ele><time>2026-04-06T06:08:16.999Z</time></trkpt><trkpt lat="44.38543638069685" lon="9.022446959562165"><ele>31.0</ele><time>2026-04-06T06:08:17.999Z</time></trkpt><trkpt lat="44.38546571584403" lon="9.022332911356088"><ele>30.166666666666668</ele><time>2026-04-06T06:08:19.999Z</time></trkpt><trkpt lat="44.3854282636966" lon="9.022258711500088"><ele>29.333333333333336</ele><time>2026-04-06T06:09:06Z</time></trkpt><trkpt lat="44.38540771513263" lon="9.022145773895245"><ele>28.5</ele><time>2026-04-06T06:09:07Z</time></trkpt><trkpt lat="44.385394663358156" lon="9.022006554700985"><ele>27.666666666666664</ele><time>2026-04-06T06:09:08Z</time></trkpt><trkpt lat="44.385399625813236" lon="9.021870051408342"><ele>26.833333333333332</ele><time>2026-04-06T06:09:09Z</time></trkpt><trkpt lat="44.38542791304731" lon="9.02173639470627"><ele>26.0</ele><time>2026-04-06T06:09:10Z</time></trkpt><trkpt lat="44.385484141698115" lon="9.021629880485222"><ele>26.25</ele><time>2026-04-06T06:09:11Z</time></trkpt><trkpt lat="44.385495688361026" lon="9.021512525554161"><ele>26.5</ele><time>2026-04-06T06:09:12Z</time></trkpt><trkpt lat="44.38566002244937" lon="9.021408420996528"><ele>26.75</ele><time>2026-04-06T06:09:14Z</time></trkpt><trkpt lat="44.385752920504885" lon="9.021439514117741"><ele>27.0</ele><time>2026-04-06T06:09:15Z</time></trkpt><trkpt lat="44.38583831254243" lon="9.021499038427436"><ele>27.0</ele><time>2026-04-06T06:09:16Z</time></trkpt><trkpt lat="44.3859088905896" lon="9.02150876411052"><ele>27.0</ele><time>2026-04-06T06:09:17Z</time></trkpt><trkpt lat="44.38597895338248" lon="9.021457197269408"><ele>27.0</ele><time>2026-04-06T06:09:18Z</time></trkpt><trkpt lat="44.38602744363334" lon="9.021340850842224"><ele>27.0</ele><time>2026-04-06T06:09:19Z</time></trkpt><trkpt lat="44.38603202552163" lon="9.021211370595466"><ele>27.0</ele><time>2026-04-06T06:09:20Z</time></trkpt><trkpt lat="44.3859900426734" lon="9.021108681393242"><ele>27.0</ele><time>2026-04-06T06:09:21Z</time></trkpt><trkpt lat="44.3859177789116" lon="9.021032985896808"><ele>27.0</ele><time>2026-04-06T06:09:22Z</time></trkpt><trkpt lat="44.385830236237105" lon="9.020976837510835"><ele>27.000000000000004</ele><time>2026-04-06T06:09:23Z</time></trkpt><trkpt lat="44.38574559478822" lon="9.020919276805186"><ele>27.000000000000004</ele><time>2026-04-06T06:09:24Z</time></trkpt><trkpt lat="44.385642643519446" lon="9.020852086042"><ele>27.0</ele><time>2026-04-06T06:09:25Z</time></trkpt><trkpt lat="44.385548256247915" lon="9.020792654704573"><ele>27.0</ele><time>2026-04-06T06:09:26Z</time></trkpt><trkpt lat="44.38550289517944" lon="9.020713654959296"><ele>26.8</ele><time>2026-04-06T06:09:27Z</time></trkpt><trkpt lat="44.38551571611845" lon="9.020475847229866"><ele>26.6</ele><time>2026-04-06T06:09:28Z</time></trkpt><trkpt lat="44.38544699158344" lon="9.020403646457556"><ele>26.400000000000002</ele><time>2026-04-06T06:09:29Z</time></trkpt><trkpt lat="44.38537542896989" lon="9.020328518369391"><ele>26.200000000000003</ele><time>2026-04-06T06:09:30Z</time></trkpt><trkpt lat="44.38530534595306" lon="9.020253591807167"><ele>26.0</ele><time>2026-04-06T06:09:31Z</time></trkpt><trkpt lat="44.38523507254043" lon="9.020179093722252"><ele>24.999999999999996</ele><time>2026-04-06T06:09:32Z</time></trkpt><trkpt lat="44.385164488545925" lon="9.020102635298047"><ele>24.0</ele><time>2026-04-06T06:09:33Z</time></trkpt><trkpt lat="44.385104010351704" lon="9.020036894827026"><ele>23.0</ele><time>2026-04-06T06:09:34Z</time></trkpt><trkpt lat="44.38503059854109" lon="9.019977328381392"><ele>22.0</ele><time>2026-04-06T06:09:35Z</time></trkpt><trkpt lat="44.38495539088918" lon="9.019894298715295"><ele>21.0</ele><time>2026-04-06T06:09:36Z</time></trkpt><trkpt lat="44.38489662358436" lon="9.019825431023698"><ele>20.0</ele><time>2026-04-06T06:09:37Z</time></trkpt><trkpt lat="44.384826626498366" lon="9.019728367787401"><ele>19.833333333333336</ele><time>2026-04-06T06:09:38Z</time></trkpt><trkpt lat="44.38475757624176" lon="9.019648040429612"><ele>19.666666666666668</ele><time>2026-04-06T06:09:39Z</time></trkpt><trkpt lat="44.38469501995831" lon="9.019600035128724"><ele>19.5</ele><time>2026-04-06T06:09:40Z</time></trkpt><trkpt lat="44.384633054390996" lon="9.019536092407392"><ele>19.333333333333332</ele><time>2026-04-06T06:09:42Z</time></trkpt><trkpt lat="44.38456288128878" lon="9.019490205281137"><ele>19.166666666666664</ele><time>2026-04-06T06:09:44Z</time></trkpt><trkpt lat="44.384501964742114" lon="9.019457795543232"><ele>19.0</ele><time>2026-04-06T06:09:46.999Z</time></trkpt><trkpt lat="44.38443523160819" lon="9.019400689304588"><ele>17.75</ele><time>2026-04-06T06:10:06.999Z</time></trkpt><trkpt lat="44.3844940249267" lon="9.019161075440834"><ele>16.5</ele><time>2026-04-06T06:10:07.999Z</time></trkpt><trkpt lat="44.3845262915203" lon="9.019032650116438"><ele>15.25</ele><time>2026-04-06T06:10:08.999Z</time></trkpt><trkpt lat="44.38461393849549" lon="9.018912814459386"><ele>14.0</ele><time>2026-04-06T06:10:09.999Z</time></trkpt><trkpt lat="44.38458845228443" lon="9.018751823750563"><ele>13.799999999999999</ele><time>2026-04-06T06:10:10.999Z</time></trkpt><trkpt lat="44.38462344430303" lon="9.018610093906206"><ele>13.599999999999998</ele><time>2026-04-06T06:10:11.999Z</time></trkpt><trkpt lat="44.38466025789733" lon="9.018460383943005"><ele>13.4</ele><time>2026-04-06T06:10:12.999Z</time></trkpt><trkpt lat="44.38469259750434" lon="9.018310652740885"><ele>13.2</ele><time>2026-04-06T06:10:13.999Z</time></trkpt><trkpt lat="44.38472740376189" lon="9.018158973073147"><ele>13.0</ele><time>2026-04-06T06:10:14.999Z</time></trkpt><trkpt lat="44.384764563967174" lon="9.01799558808498"><ele>13.0</ele><time>2026-04-06T06:10:15.999Z</time></trkpt><trkpt lat="44.384801465855865" lon="9.017832091228092"><ele>13.0</ele><time>2026-04-06T06:10:16.999Z</time></trkpt><trkpt lat="44.384839799985926" lon="9.017667691962641"><ele>13.0</ele><time>2026-04-06T06:10:17.999Z</time></trkpt><trkpt lat="44.384870470758145" lon="9.017497039954506"><ele>13.0</ele><time>2026-04-06T06:10:18.999Z</time></trkpt><trkpt lat="44.384900605863855" lon="9.017327051896533"><ele>13.75</ele><time>2026-04-06T06:10:19.999Z</time></trkpt><trkpt lat="44.38494485282427" lon="9.017162344148124"><ele>14.5</ele><time>2026-04-06T06:10:20.999Z</time></trkpt><trkpt lat="44.38498239063389" lon="9.016996728958608"><ele>15.25</ele><time>2026-04-06T06:10:21.999Z</time></trkpt><trkpt lat="44.38501674057616" lon="9.016829375882816"><ele>16.0</ele><time>2026-04-06T06:10:22.999Z</time></trkpt><trkpt lat="44.38504964747107" lon="9.016661178760076"><ele>15.25</ele><time>2026-04-06T06:10:23.999Z</time></trkpt><trkpt lat="44.38508478746299" lon="9.016497737689633"><ele>14.5</ele><time>2026-04-06T06:10:24.999Z</time></trkpt><trkpt lat="44.385116862840164" lon="9.01633451856067"><ele>13.75</ele><time>2026-04-06T06:10:25.999Z</time></trkpt><trkpt lat="44.385156601436215" lon="9.01617521679141"><ele>13.0</ele><time>2026-04-06T06:10:26.999Z</time></trkpt><trkpt lat="44.38519289627522" lon="9.016015871424933"><ele>13.0</ele><time>2026-04-06T06:10:27.999Z</time></trkpt><trkpt lat="44.38522624932195" lon="9.01585654988909"><ele>13.0</ele><time>2026-04-06T06:10:28.999Z</time></trkpt><trkpt lat="44.38526212786956" lon="9.015698521600058"><ele>13.0</ele><time>2026-04-06T06:10:29.999Z</time></trkpt><trkpt lat="44.38529596066957" lon="9.015542503065781"><ele>13.0</ele><time>2026-04-06T06:10:30.999Z</time></trkpt><trkpt lat="44.38533704045197" lon="9.015383680192114"><ele>12.5</ele><time>2026-04-06T06:10:31.999Z</time></trkpt><trkpt lat="44.38535742328362" lon="9.01521456211417"><ele>12.0</ele><time>2026-04-06T06:10:32.999Z</time></trkpt><trkpt lat="44.38537616488188" lon="9.015050507042343"><ele>11.5</ele><time>2026-04-06T06:10:33.999Z</time></trkpt><trkpt lat="44.38538861765387" lon="9.014874318448708"><ele>11.0</ele><time>2026-04-06T06:10:34.999Z</time></trkpt><trkpt lat="44.38539440726979" lon="9.014700555864192"><ele>10.25</ele><time>2026-04-06T06:10:35.999Z</time></trkpt><trkpt lat="44.38539810859126" lon="9.014529609639412"><ele>9.5</ele><time>2026-04-06T06:10:36.999Z</time></trkpt><trkpt lat="44.38540533592556" lon="9.014365651671982"><ele>8.75</ele><time>2026-04-06T06:10:37.999Z</time></trkpt><trkpt lat="44.385399298071206" lon="9.014203029705937"><ele>8.0</ele><time>2026-04-06T06:10:38.999Z</time></trkpt><trkpt lat="44.385409194741335" lon="9.014031538316164"><ele>6.75</ele><time>2026-04-06T06:10:39.999Z</time></trkpt><trkpt lat="44.38543710672876" lon="9.013868522583627"><ele>5.5</ele><time>2026-04-06T06:10:40.999Z</time></trkpt><trkpt lat="44.38550553941048" lon="9.013720129979342"><ele>4.25</ele><time>2026-04-06T06:10:41.999Z</time></trkpt><trkpt lat="44.385571870436664" lon="9.013567281054682"><ele>3.0</ele><time>2026-04-06T06:10:42.999Z</time></trkpt><trkpt lat="44.38563122644745" lon="9.01341481714626"><ele>5.4</ele><time>2026-04-06T06:10:43.999Z</time></trkpt><trkpt lat="44.3856795780311" lon="9.01327106858108"><ele>7.8</ele><time>2026-04-06T06:10:44.999Z</time></trkpt><trkpt lat="44.38572071585397" lon="9.013142991011811"><ele>10.2</ele><time>2026-04-06T06:10:45.999Z</time></trkpt><trkpt lat="44.38574085661722" lon="9.013021567523937"><ele>12.6</ele><time>2026-04-06T06:10:47Z</time></trkpt><trkpt lat="44.38574803941099" lon="9.012908208949556"><ele>15.0</ele><time>2026-04-06T06:10:48Z</time></trkpt><trkpt lat="44.385738775461974" lon="9.012776594995922"><ele>15.0</ele><time>2026-04-06T06:10:49Z</time></trkpt><trkpt lat="44.385704798339084" lon="9.012649042433331"><ele>15.0</ele><time>2026-04-06T06:10:50Z</time></trkpt><trkpt lat="44.385662964341826" lon="9.012499108661995"><ele>15.0</ele><time>2026-04-06T06:10:51Z</time></trkpt><trkpt lat="44.3856200210893" lon="9.01234380738279"><ele>15.0</ele><time>2026-04-06T06:10:52Z</time></trkpt><trkpt lat="44.385582173528505" lon="9.012187664507143"><ele>15.0</ele><time>2026-04-06T06:10:53Z</time></trkpt><trkpt lat="44.385538712184534" lon="9.012034385767153"><ele>12.5</ele><time>2026-04-06T06:10:54Z</time></trkpt><trkpt lat="44.38551074595155" lon="9.011879379906215"><ele>10.0</ele><time>2026-04-06T06:10:55Z</time></trkpt><trkpt lat="44.38547129236598" lon="9.011712350494513"><ele>7.5</ele><time>2026-04-06T06:10:56Z</time></trkpt><trkpt lat="44.38543900097309" lon="9.011547823628876"><ele>5.0</ele><time>2026-04-06T06:10:57Z</time></trkpt><trkpt lat="44.38539454787857" lon="9.011393580565155"><ele>5.0</ele><time>2026-04-06T06:10:58Z</time></trkpt><trkpt lat="44.385368023301226" lon="9.011229830957815"><ele>5.0</ele><time>2026-04-06T06:10:59Z</time></trkpt><trkpt lat="44.385344411135776" lon="9.01106262196892"><ele>5.0</ele><time>2026-04-06T06:11:00Z</time></trkpt><trkpt lat="44.38533038984485" lon="9.010895962883632"><ele>5.0</ele><time>2026-04-06T06:11:01Z</time></trkpt><trkpt lat="44.38534599387698" lon="9.010721944406082"><ele>4.5</ele><time>2026-04-06T06:11:02Z</time></trkpt><trkpt lat="44.38538071681896" lon="9.01054471113926"><ele>4.0</ele><time>2026-04-06T06:11:03Z</time></trkpt><trkpt lat="44.38540815758481" lon="9.010371052782475"><ele>3.5</ele><time>2026-04-06T06:11:04Z</time></trkpt><trkpt lat="44.385435380952806" lon="9.010193928097102"><ele>3.0</ele><time>2026-04-06T06:11:05Z</time></trkpt><trkpt lat="44.38545195465983" lon="9.010012490648698"><ele>3.0</ele><time>2026-04-06T06:11:06Z</time></trkpt><trkpt lat="44.38548543648547" lon="9.009833630605057"><ele>3.0</ele><time>2026-04-06T06:11:07Z</time></trkpt><trkpt lat="44.38551806576425" lon="9.0096592767509"><ele>3.0</ele><time>2026-04-06T06:11:08Z</time></trkpt><trkpt lat="44.38556246212875" lon="9.009493047935957"><ele>3.0</ele><time>2026-04-06T06:11:09Z</time></trkpt><trkpt lat="44.38561615817899" lon="9.009332009008814"><ele>4.5</ele><time>2026-04-06T06:11:10Z</time></trkpt><trkpt lat="44.38567332932273" lon="9.009170340406325"><ele>6.0</ele><time>2026-04-06T06:11:11Z</time></trkpt><trkpt lat="44.38572863933567" lon="9.009006555027335"><ele>7.5</ele><time>2026-04-06T06:11:12Z</time></trkpt><trkpt lat="44.38577608491464" lon="9.00884383594082"><ele>9.0</ele><time>2026-04-06T06:11:13Z</time></trkpt><trkpt lat="44.3858212516633" lon="9.008686085633723"><ele>9.0</ele><time>2026-04-06T06:11:14Z</time></trkpt><trkpt lat="44.385865815193405" lon="9.008521325992836"><ele>9.0</ele><time>2026-04-06T06:11:15Z</time></trkpt><trkpt lat="44.385908084072405" lon="9.008348652877606"><ele>9.0</ele><time>2026-04-06T06:11:16Z</time></trkpt><trkpt lat="44.38593070746936" lon="9.00818056992701"><ele>9.0</ele><time>2026-04-06T06:11:17Z</time></trkpt><trkpt lat="44.38594945862745" lon="9.00801297160372"><ele>8.75</ele><time>2026-04-06T06:11:18Z</time></trkpt><trkpt lat="44.38597958643936" lon="9.007844804591349"><ele>8.5</ele><time>2026-04-06T06:11:19Z</time></trkpt><trkpt lat="44.38600646119154" lon="9.007678976536873"><ele>8.25</ele><time>2026-04-06T06:11:20Z</time></trkpt><trkpt lat="44.386017310952425" lon="9.007517556547665"><ele>8.0</ele><time>2026-04-06T06:11:21Z</time></trkpt><trkpt lat="44.38603405095056" lon="9.007362195560999"><ele>7.6000000000000005</ele><time>2026-04-06T06:11:22Z</time></trkpt><trkpt lat="44.386061927580904" lon="9.007203782391603"><ele>7.200000000000001</ele><time>2026-04-06T06:11:23Z</time></trkpt><trkpt lat="44.38608242950673" lon="9.007065978726898"><ele>6.8</ele><time>2026-04-06T06:11:24Z</time></trkpt><trkpt lat="44.386081330846466" lon="9.006911261249998"><ele>6.4</ele><time>2026-04-06T06:11:25Z</time></trkpt><trkpt lat="44.38606015543195" lon="9.006756149966696"><ele>6.0</ele><time>2026-04-06T06:11:26Z</time></trkpt><trkpt lat="44.386008389351986" lon="9.006605644019297"><ele>7.0</ele><time>2026-04-06T06:11:27Z</time></trkpt><trkpt lat="44.385943352240346" lon="9.006470211718419"><ele>8.0</ele><time>2026-04-06T06:11:28Z</time></trkpt><trkpt lat="44.385869189966215" lon="9.006334890438632"><ele>9.0</ele><time>2026-04-06T06:11:29Z</time></trkpt><trkpt lat="44.385802483637775" lon="9.0062029337875"><ele>10.0</ele><time>2026-04-06T06:11:30Z</time></trkpt><trkpt lat="44.385753330837154" lon="9.006057749558966"><ele>10.0</ele><time>2026-04-06T06:11:31Z</time></trkpt><trkpt lat="44.3857055382213" lon="9.005901682878525"><ele>10.0</ele><time>2026-04-06T06:11:32Z</time></trkpt><trkpt lat="44.38569371529369" lon="9.005730690866258"><ele>10.0</ele><time>2026-04-06T06:11:33Z</time></trkpt><trkpt lat="44.38572121255564" lon="9.005558731823173"><ele>10.0</ele><time>2026-04-06T06:11:34Z</time></trkpt><trkpt lat="44.385770492326145" lon="9.005386054542345"><ele>9.5</ele><time>2026-04-06T06:11:35Z</time></trkpt><trkpt lat="44.38584673539556" lon="9.00523719300654"><ele>9.0</ele><time>2026-04-06T06:11:36Z</time></trkpt><trkpt lat="44.38588678348689" lon="9.005071673974099"><ele>8.5</ele><time>2026-04-06T06:11:37Z</time></trkpt><trkpt lat="44.38590362704066" lon="9.004899502023337"><ele>8.0</ele><time>2026-04-06T06:11:38Z</time></trkpt><trkpt lat="44.38590523993379" lon="9.004720909734322"><ele>7.0</ele><time>2026-04-06T06:11:39Z</time></trkpt><trkpt lat="44.38589551575914" lon="9.00454883246221"><ele>6.0</ele><time>2026-04-06T06:11:40Z</time></trkpt><trkpt lat="44.38588869815784" lon="9.004381482939172"><ele>5.0</ele><time>2026-04-06T06:11:41Z</time></trkpt><trkpt lat="44.38591372765196" lon="9.004224846855198"><ele>4.0</ele><time>2026-04-06T06:11:42Z</time></trkpt><trkpt lat="44.38598556677209" lon="9.00407847411228"><ele>3.25</ele><time>2026-04-06T06:11:43Z</time></trkpt><trkpt lat="44.38609427876219" lon="9.00396430622572"><ele>2.5</ele><time>2026-04-06T06:11:44Z</time></trkpt><trkpt lat="44.38621369173508" lon="9.003889196214647"><ele>1.75</ele><time>2026-04-06T06:11:45Z</time></trkpt><trkpt lat="44.38634110501539" lon="9.003846614643075"><ele>1.0</ele><time>2026-04-06T06:11:46Z</time></trkpt><trkpt lat="44.386462040080296" lon="9.003817437355885"><ele>3.25</ele><time>2026-04-06T06:11:47Z</time></trkpt><trkpt lat="44.386564030518635" lon="9.003766211414844"><ele>5.5</ele><time>2026-04-06T06:11:48Z</time></trkpt><trkpt lat="44.38664698699051" lon="9.003655008742612"><ele>7.75</ele><time>2026-04-06T06:11:49Z</time></trkpt><trkpt lat="44.38670547152648" lon="9.00350866396371"><ele>10.0</ele><time>2026-04-06T06:11:50Z</time></trkpt><trkpt lat="44.38674021794123" lon="9.003337763900271"><ele>9.25</ele><time>2026-04-06T06:11:51Z</time></trkpt><trkpt lat="44.38676516752304" lon="9.003160479354046"><ele>8.5</ele><time>2026-04-06T06:11:52Z</time></trkpt><trkpt lat="44.38679544907795" lon="9.002999809805667"><ele>7.75</ele><time>2026-04-06T06:11:53Z</time></trkpt><trkpt lat="44.38679669886564" lon="9.002847131810956"><ele>7.0</ele><time>2026-04-06T06:11:54Z</time></trkpt><trkpt lat="44.386767510447186" lon="9.002696161343218"><ele>7.0</ele><time>2026-04-06T06:11:55Z</time></trkpt><trkpt lat="44.3867041859953" lon="9.002559110561315"><ele>7.0</ele><time>2026-04-06T06:11:56Z</time></trkpt><trkpt lat="44.386616466270446" lon="9.002441212731181"><ele>7.0</ele><time>2026-04-06T06:11:57Z</time></trkpt><trkpt lat="44.38652073552516" lon="9.002336848533924"><ele>7.0</ele><time>2026-04-06T06:11:58Z</time></trkpt><trkpt lat="44.38644753922924" lon="9.002214604854926"><ele>6.75</ele><time>2026-04-06T06:11:59Z</time></trkpt><trkpt lat="44.38639748683255" lon="9.002063646995838"><ele>6.5</ele><time>2026-04-06T06:12:00Z</time></trkpt><trkpt lat="44.38639736705883" lon="9.001898624441752"><ele>6.25</ele><time>2026-04-06T06:12:01Z</time></trkpt><trkpt lat="44.386441011001466" lon="9.00172894428133"><ele>6.0</ele><time>2026-04-06T06:12:02Z</time></trkpt><trkpt lat="44.386514315503554" lon="9.001587764837836"><ele>6.0</ele><time>2026-04-06T06:12:02.999Z</time></trkpt><trkpt lat="44.38660616214522" lon="9.001462985431308"><ele>6.0</ele><time>2026-04-06T06:12:03.999Z</time></trkpt><trkpt lat="44.38670411093519" lon="9.001345762865508"><ele>6.0</ele><time>2026-04-06T06:12:04.999Z</time></trkpt><trkpt lat="44.38679552822939" lon="9.001224628097711"><ele>6.0</ele><time>2026-04-06T06:12:05.999Z</time></trkpt><trkpt lat="44.3868805029794" lon="9.001089889646526"><ele>6.0</ele><time>2026-04-06T06:12:06.999Z</time></trkpt><trkpt lat="44.386967919238344" lon="9.000964490572636"><ele>6.0</ele><time>2026-04-06T06:12:07.999Z</time></trkpt><trkpt lat="44.38705217167967" lon="9.00083467484511"><ele>6.0</ele><time>2026-04-06T06:12:08.999Z</time></trkpt><trkpt lat="44.38712663603559" lon="9.000693154551083"><ele>6.0</ele><time>2026-04-06T06:12:09.999Z</time></trkpt><trkpt lat="44.38717412459042" lon="9.000529314300515"><ele>6.5</ele><time>2026-04-06T06:12:10.999Z</time></trkpt><trkpt lat="44.38720117192025" lon="9.00035668589707"><ele>7.0</ele><time>2026-04-06T06:12:11.999Z</time></trkpt><trkpt lat="44.3871904075514" lon="9.000180147372387"><ele>7.5</ele><time>2026-04-06T06:12:12.999Z</time></trkpt><trkpt lat="44.38715327683673" lon="9.000013203340083"><ele>8.0</ele><time>2026-04-06T06:12:13.999Z</time></trkpt><trkpt lat="44.387092401996114" lon="8.999855831963508"><ele>8.0</ele><time>2026-04-06T06:12:14.999Z</time></trkpt><trkpt lat="44.38701878393583" lon="8.999703093931545"><ele>8.0</ele><time>2026-04-06T06:12:15.999Z</time></trkpt><trkpt lat="44.386932418516004" lon="8.999566449196585"><ele>8.0</ele><time>2026-04-06T06:12:16.999Z</time></trkpt><trkpt lat="44.38684351787519" lon="8.999433068864727"><ele>8.0</ele><time>2026-04-06T06:12:17.999Z</time></trkpt><trkpt lat="44.38675827060885" lon="8.999298737824168"><ele>8.5</ele><time>2026-04-06T06:12:18.999Z</time></trkpt><trkpt lat="44.3866774805862" lon="8.999161352290606"><ele>9.0</ele><time>2026-04-06T06:12:19.999Z</time></trkpt><trkpt lat="44.386596262551976" lon="8.999029473449541"><ele>9.5</ele><time>2026-04-06T06:12:20.999Z</time></trkpt><trkpt lat="44.386517988854706" lon="8.998894834466935"><ele>10.0</ele><time>2026-04-06T06:12:21.999Z</time></trkpt><trkpt lat="44.386454888138026" lon="8.998743735317731"><ele>10.0</ele><time>2026-04-06T06:12:22.999Z</time></trkpt><trkpt lat="44.386412321804166" lon="8.998577209071566"><ele>10.0</ele><time>2026-04-06T06:12:23.999Z</time></trkpt><trkpt lat="44.386394188639926" lon="8.998425170440926"><ele>10.0</ele><time>2026-04-06T06:12:24.999Z</time></trkpt><trkpt lat="44.38640105803522" lon="8.998293993493949"><ele>10.0</ele><time>2026-04-06T06:12:25.999Z</time></trkpt><trkpt lat="44.38646769658141" lon="8.998190156570452"><ele>10.0</ele><time>2026-04-06T06:12:26.999Z</time></trkpt><trkpt lat="44.38656514599659" lon="8.998125027109428"><ele>10.25</ele><time>2026-04-06T06:12:27.999Z</time></trkpt><trkpt lat="44.386692463203055" lon="8.99810207600462"><ele>10.5</ele><time>2026-04-06T06:12:28.999Z</time></trkpt><trkpt lat="44.38681778460412" lon="8.998094769025197"><ele>10.75</ele><time>2026-04-06T06:12:29.999Z</time></trkpt><trkpt lat="44.38693956510168" lon="8.998074741701883"><ele>11.0</ele><time>2026-04-06T06:12:30.999Z</time></trkpt><trkpt lat="44.3870588830362" lon="8.998057094183563"><ele>11.0</ele><time>2026-04-06T06:12:31.999Z</time></trkpt><trkpt lat="44.387171505910636" lon="8.998032581809765"><ele>11.0</ele><time>2026-04-06T06:12:32.999Z</time></trkpt><trkpt lat="44.38728259673188" lon="8.99800691200913"><ele>11.0</ele><time>2026-04-06T06:12:33.999Z</time></trkpt><trkpt lat="44.38738549218663" lon="8.997959875665488"><ele>11.0</ele><time>2026-04-06T06:12:34.999Z</time></trkpt><trkpt lat="44.38747253584443" lon="8.997876613004406"><ele>11.0</ele><time>2026-04-06T06:12:35.999Z</time></trkpt><trkpt lat="44.38754378770341" lon="8.997763975126343"><ele>10.5</ele><time>2026-04-06T06:12:36.999Z</time></trkpt><trkpt lat="44.38760049934538" lon="8.997635644070428"><ele>10.0</ele><time>2026-04-06T06:12:37.999Z</time></trkpt><trkpt lat="44.38763253694493" lon="8.997487019797163"><ele>9.5</ele><time>2026-04-06T06:12:38.999Z</time></trkpt><trkpt lat="44.387653889269885" lon="8.997327691672396"><ele>9.0</ele><time>2026-04-06T06:12:39.999Z</time></trkpt><trkpt lat="44.387638910569" lon="8.997166858623226"><ele>9.0</ele><time>2026-04-06T06:12:40.999Z</time></trkpt><trkpt lat="44.38759887059101" lon="8.997007138142543"><ele>9.0</ele><time>2026-04-06T06:12:41.999Z</time></trkpt><trkpt lat="44.387520575042664" lon="8.996870395507914"><ele>9.0</ele><time>2026-04-06T06:12:42.999Z</time></trkpt><trkpt lat="44.38742904707232" lon="8.99674973902931"><ele>9.0</ele><time>2026-04-06T06:12:43.999Z</time></trkpt><trkpt lat="44.38734829934955" lon="8.996631712083742"><ele>9.5</ele><time>2026-04-06T06:12:44.999Z</time></trkpt><trkpt lat="44.38729136439632" lon="8.996493967641443"><ele>10.0</ele><time>2026-04-06T06:12:45.999Z</time></trkpt><trkpt lat="44.38727571193455" lon="8.996335791189411"><ele>10.5</ele><time>2026-04-06T06:12:46.999Z</time></trkpt><trkpt lat="44.38730751720686" lon="8.99618829000466"><ele>11.0</ele><time>2026-04-06T06:12:47.999Z</time></trkpt><trkpt lat="44.3873829840338" lon="8.99605436472805"><ele>11.0</ele><time>2026-04-06T06:12:48.999Z</time></trkpt><trkpt lat="44.38746899716948" lon="8.995915965496957"><ele>11.0</ele><time>2026-04-06T06:12:49.999Z</time></trkpt><trkpt lat="44.387558926570755" lon="8.995762470952315"><ele>11.0</ele><time>2026-04-06T06:12:50.999Z</time></trkpt><trkpt lat="44.38764207156429" lon="8.995605529071225"><ele>11.0</ele><time>2026-04-06T06:12:51.999Z</time></trkpt><trkpt lat="44.38772043936201" lon="8.995457996523255"><ele>12.0</ele><time>2026-04-06T06:12:53Z</time></trkpt><trkpt lat="44.3877922830309" lon="8.995317682913583"><ele>13.0</ele><time>2026-04-06T06:12:54Z</time></trkpt><trkpt lat="44.3878665461605" lon="8.995178926368382"><ele>14.0</ele><time>2026-04-06T06:12:55Z</time></trkpt><trkpt lat="44.38793992554445" lon="8.995040911763661"><ele>15.0</ele><time>2026-04-06T06:12:56Z</time></trkpt><trkpt lat="44.388019808644174" lon="8.994910798742211"><ele>15.0</ele><time>2026-04-06T06:12:57Z</time></trkpt><trkpt lat="44.38810286949497" lon="8.99478910165912"><ele>15.0</ele><time>2026-04-06T06:12:58Z</time></trkpt><trkpt lat="44.38818801145154" lon="8.99467066194438"><ele>15.0</ele><time>2026-04-06T06:12:59Z</time></trkpt><trkpt lat="44.38827379827701" lon="8.994550840786161"><ele>15.0</ele><time>2026-04-06T06:13:00Z</time></trkpt><trkpt lat="44.388365437391826" lon="8.99444453210537"><ele>15.0</ele><time>2026-04-06T06:13:01Z</time></trkpt><trkpt lat="44.388454663722044" lon="8.99434318835551"><ele>15.0</ele><time>2026-04-06T06:13:02Z</time></trkpt><trkpt lat="44.388554226386326" lon="8.994255312224302"><ele>15.0</ele><time>2026-04-06T06:13:03Z</time></trkpt><trkpt lat="44.38866656223447" lon="8.994196157385218"><ele>15.0</ele><time>2026-04-06T06:13:04Z</time></trkpt><trkpt lat="44.388789791472846" lon="8.99416222094681"><ele>15.0</ele><time>2026-04-06T06:13:05Z</time></trkpt><trkpt lat="44.38891583386588" lon="8.994147381041467"><ele>15.0</ele><time>2026-04-06T06:13:06Z</time></trkpt><trkpt lat="44.389028920098085" lon="8.994131687770864"><ele>15.0</ele><time>2026-04-06T06:13:07Z</time></trkpt><trkpt lat="44.389163729525734" lon="8.994093167921978"><ele>15.0</ele><time>2026-04-06T06:13:08Z</time></trkpt><trkpt lat="44.389276283506135" lon="8.994020008619435"><ele>15.0</ele><time>2026-04-06T06:13:09Z</time></trkpt><trkpt lat="44.38938648041327" lon="8.993932427909323"><ele>15.0</ele><time>2026-04-06T06:13:10Z</time></trkpt><trkpt lat="44.38948982576385" lon="8.993832577424511"><ele>15.0</ele><time>2026-04-06T06:13:11Z</time></trkpt><trkpt lat="44.389580426376156" lon="8.993722297441156"><ele>15.0</ele><time>2026-04-06T06:13:12Z</time></trkpt><trkpt lat="44.389664688943135" lon="8.99358975121791"><ele>15.5</ele><time>2026-04-06T06:13:13Z</time></trkpt><trkpt lat="44.389722978382274" lon="8.9934415395858"><ele>16.0</ele><time>2026-04-06T06:13:14Z</time></trkpt><trkpt lat="44.38975868773744" lon="8.993277546583075"><ele>16.5</ele><time>2026-04-06T06:13:15Z</time></trkpt><trkpt lat="44.38978337039106" lon="8.993109644179103"><ele>17.0</ele><time>2026-04-06T06:13:16Z</time></trkpt><trkpt lat="44.38978172446638" lon="8.992942379386891"><ele>17.0</ele><time>2026-04-06T06:13:17Z</time></trkpt><trkpt lat="44.389769736279945" lon="8.992771187637256"><ele>17.0</ele><time>2026-04-06T06:13:18Z</time></trkpt><trkpt lat="44.38975004332689" lon="8.992613849576458"><ele>17.0</ele><time>2026-04-06T06:13:19Z</time></trkpt><trkpt lat="44.3897217243055" lon="8.992460981851197"><ele>17.0</ele><time>2026-04-06T06:13:20Z</time></trkpt><trkpt lat="44.38968836244128" lon="8.992320467867906"><ele>17.0</ele><time>2026-04-06T06:13:21Z</time></trkpt><trkpt lat="44.38966041765998" lon="8.99217290061268"><ele>17.0</ele><time>2026-04-06T06:13:22Z</time></trkpt><trkpt lat="44.38965512857604" lon="8.992018772255074"><ele>17.0</ele><time>2026-04-06T06:13:23Z</time></trkpt><trkpt lat="44.38968090545377" lon="8.991861674155956"><ele>17.0</ele><time>2026-04-06T06:13:24Z</time></trkpt><trkpt lat="44.38973457163958" lon="8.991702226831471"><ele>16.75</ele><time>2026-04-06T06:13:25Z</time></trkpt><trkpt lat="44.38979826140897" lon="8.991547352907492"><ele>16.5</ele><time>2026-04-06T06:13:26Z</time></trkpt><trkpt lat="44.389884776173055" lon="8.991398874258124"><ele>16.25</ele><time>2026-04-06T06:13:27Z</time></trkpt><trkpt lat="44.38996565751502" lon="8.991255138340914"><ele>16.0</ele><time>2026-04-06T06:13:28Z</time></trkpt><trkpt lat="44.39002797851654" lon="8.991098651050587"><ele>16.0</ele><time>2026-04-06T06:13:29Z</time></trkpt><trkpt lat="44.39008644931584" lon="8.990963939658027"><ele>16.0</ele><time>2026-04-06T06:13:30Z</time></trkpt><trkpt lat="44.390148017534" lon="8.990833963497652"><ele>16.0</ele><time>2026-04-06T06:13:31Z</time></trkpt><trkpt lat="44.390218248121165" lon="8.990721774751158"><ele>16.0</ele><time>2026-04-06T06:13:32Z</time></trkpt><trkpt lat="44.3903129296289" lon="8.99065215972237"><ele>16.0</ele><time>2026-04-06T06:13:33Z</time></trkpt><trkpt lat="44.39043023245172" lon="8.99062307990696"><ele>17.25</ele><time>2026-04-06T06:13:34Z</time></trkpt><trkpt lat="44.39055319690436" lon="8.990597687230979"><ele>18.5</ele><time>2026-04-06T06:13:35Z</time></trkpt><trkpt lat="44.39066116636478" lon="8.990552082026287"><ele>19.75</ele><time>2026-04-06T06:13:36Z</time></trkpt><trkpt lat="44.390770025430704" lon="8.990454807943205"><ele>21.0</ele><time>2026-04-06T06:13:37Z</time></trkpt><trkpt lat="44.39084865968827" lon="8.990313118711885"><ele>21.0</ele><time>2026-04-06T06:13:38Z</time></trkpt><trkpt lat="44.39090229698697" lon="8.990141357151138"><ele>21.0</ele><time>2026-04-06T06:13:39Z</time></trkpt><trkpt lat="44.390945506822135" lon="8.98995527524385"><ele>21.0</ele><time>2026-04-06T06:13:40Z</time></trkpt><trkpt lat="44.39098218470801" lon="8.989775509710263"><ele>21.0</ele><time>2026-04-06T06:13:41Z</time></trkpt><trkpt lat="44.39102233197414" lon="8.989610182657902"><ele>18.75</ele><time>2026-04-06T06:13:42Z</time></trkpt><trkpt lat="44.39106386197713" lon="8.9894461129581"><ele>16.5</ele><time>2026-04-06T06:13:43Z</time></trkpt><trkpt lat="44.39110718980035" lon="8.989282772485824"><ele>14.25</ele><time>2026-04-06T06:13:44Z</time></trkpt><trkpt lat="44.3911499017871" lon="8.98912292870914"><ele>12.0</ele><time>2026-04-06T06:13:45Z</time></trkpt><trkpt lat="44.391184683344434" lon="8.988981029923465"><ele>11.5</ele><time>2026-04-06T06:13:46Z</time></trkpt><trkpt lat="44.39122022890949" lon="8.988850747130396"><ele>11.0</ele><time>2026-04-06T06:13:47Z</time></trkpt><trkpt lat="44.39124955493737" lon="8.988733651567903"><ele>10.5</ele><time>2026-04-06T06:13:48Z</time></trkpt><trkpt lat="44.39127444051384" lon="8.988645716782496"><ele>10.0</ele><time>2026-04-06T06:13:49Z</time></trkpt><trkpt lat="44.391319278231016" lon="8.988512125903739"><ele>9.5</ele><time>2026-04-06T06:13:51Z</time></trkpt><trkpt lat="44.39135762174857" lon="8.988422569540038"><ele>9.0</ele><time>2026-04-06T06:13:53Z</time></trkpt><trkpt lat="44.391384161173036" lon="8.988336730647402"><ele>11.2</ele><time>2026-04-06T06:13:55.999Z</time></trkpt><trkpt lat="44.39143677104717" lon="8.988198137233285"><ele>13.4</ele><time>2026-04-06T06:14:17.999Z</time></trkpt><trkpt lat="44.391465135788565" lon="8.988089452952796"><ele>15.6</ele><time>2026-04-06T06:14:18.999Z</time></trkpt><trkpt lat="44.39148788796133" lon="8.98796918227093"><ele>17.8</ele><time>2026-04-06T06:14:19.999Z</time></trkpt><trkpt lat="44.39150718776125" lon="8.987841122196246"><ele>20.0</ele><time>2026-04-06T06:14:20.999Z</time></trkpt><trkpt lat="44.39153379151314" lon="8.987707885067948"><ele>20.0</ele><time>2026-04-06T06:14:21.999Z</time></trkpt><trkpt lat="44.391570638507865" lon="8.987583322055713"><ele>20.0</ele><time>2026-04-06T06:14:22.999Z</time></trkpt><trkpt lat="44.391612180324934" lon="8.987451748170612"><ele>20.0</ele><time>2026-04-06T06:14:23.999Z</time></trkpt><trkpt lat="44.39165617837802" lon="8.98730713282314"><ele>20.0</ele><time>2026-04-06T06:14:24.999Z</time></trkpt><trkpt lat="44.39170341590036" lon="8.987165984935091"><ele>20.0</ele><time>2026-04-06T06:14:25.999Z</time></trkpt><trkpt lat="44.39175083743685" lon="8.987022574736189"><ele>19.75</ele><time>2026-04-06T06:14:26.999Z</time></trkpt><trkpt lat="44.391797749288656" lon="8.986877804556766"><ele>19.5</ele><time>2026-04-06T06:14:27.999Z</time></trkpt><trkpt lat="44.39184646128631" lon="8.98671778998377"><ele>19.25</ele><time>2026-04-06T06:14:28.999Z</time></trkpt><trkpt lat="44.391899634079685" lon="8.986562282574324"><ele>19.0</ele><time>2026-04-06T06:14:29.999Z</time></trkpt><trkpt lat="44.39196006756011" lon="8.986406861293059"><ele>17.25</ele><time>2026-04-06T06:14:30.999Z</time></trkpt><trkpt lat="44.392014407374134" lon="8.986248035848373"><ele>15.5</ele><time>2026-04-06T06:14:31.999Z</time></trkpt><trkpt lat="44.39207737980319" lon="8.98609375139277"><ele>13.75</ele><time>2026-04-06T06:14:32.999Z</time></trkpt><trkpt lat="44.392140890754625" lon="8.985936877583674"><ele>12.0</ele><time>2026-04-06T06:14:33.999Z</time></trkpt><trkpt lat="44.39220578711293" lon="8.985783114926221"><ele>12.0</ele><time>2026-04-06T06:14:34.999Z</time></trkpt><trkpt lat="44.39226989007254" lon="8.98563321704808"><ele>12.0</ele><time>2026-04-06T06:14:35.999Z</time></trkpt><trkpt lat="44.39233320566854" lon="8.985479388249196"><ele>12.0</ele><time>2026-04-06T06:14:36.999Z</time></trkpt><trkpt lat="44.39239847918089" lon="8.985330707036873"><ele>12.0</ele><time>2026-04-06T06:14:37.999Z</time></trkpt><trkpt lat="44.39246448674476" lon="8.98518295235225"><ele>12.0</ele><time>2026-04-06T06:14:38.999Z</time></trkpt><trkpt lat="44.392532731987636" lon="8.985036734939525"><ele>12.0</ele><time>2026-04-06T06:14:39.999Z</time></trkpt><trkpt lat="44.39260040536516" lon="8.984897951423395"><ele>12.0</ele><time>2026-04-06T06:14:40.999Z</time></trkpt><trkpt lat="44.39266849212082" lon="8.984761600946648"><ele>12.0</ele><time>2026-04-06T06:14:41.999Z</time></trkpt><trkpt lat="44.39273573901707" lon="8.98463436450499"><ele>10.75</ele><time>2026-04-06T06:14:42.999Z</time></trkpt><trkpt lat="44.39280058387791" lon="8.984498934917509"><ele>9.5</ele><time>2026-04-06T06:14:43.999Z</time></trkpt><trkpt lat="44.39286655357789" lon="8.98436189123813"><ele>8.25</ele><time>2026-04-06T06:14:44.999Z</time></trkpt><trkpt lat="44.39293617856927" lon="8.984222424395709"><ele>7.0</ele><time>2026-04-06T06:14:45.999Z</time></trkpt><trkpt lat="44.39300859536321" lon="8.984093574798054"><ele>7.0</ele><time>2026-04-06T06:14:46.999Z</time></trkpt><trkpt lat="44.393081355857724" lon="8.983967552098765"><ele>7.0</ele><time>2026-04-06T06:14:47.999Z</time></trkpt><trkpt lat="44.39315578090555" lon="8.983835328051164"><ele>7.0</ele><time>2026-04-06T06:14:48.999Z</time></trkpt><trkpt lat="44.39323218645607" lon="8.983695659231786"><ele>7.0</ele><time>2026-04-06T06:14:49.999Z</time></trkpt><trkpt lat="44.3933092533719" lon="8.983554960330634"><ele>7.0</ele><time>2026-04-06T06:14:50.999Z</time></trkpt><trkpt lat="44.39338773153815" lon="8.983418020708578"><ele>7.0</ele><time>2026-04-06T06:14:51.999Z</time></trkpt><trkpt lat="44.39346444654646" lon="8.983264539944367"><ele>7.0</ele><time>2026-04-06T06:14:52.999Z</time></trkpt><trkpt lat="44.39353633730976" lon="8.983118070771294"><ele>7.0</ele><time>2026-04-06T06:14:53.999Z</time></trkpt><trkpt lat="44.39360799287578" lon="8.982976907975905"><ele>7.199999999999999</ele><time>2026-04-06T06:14:54.999Z</time></trkpt><trkpt lat="44.393677034882295" lon="8.982845447121669"><ele>7.3999999999999995</ele><time>2026-04-06T06:14:55.999Z</time></trkpt><trkpt lat="44.3937262505987" lon="8.982710072565123"><ele>7.6000000000000005</ele><time>2026-04-06T06:14:56.999Z</time></trkpt><trkpt lat="44.39379088171854" lon="8.982598345497136"><ele>7.800000000000001</ele><time>2026-04-06T06:14:57.999Z</time></trkpt><trkpt lat="44.39383874624163" lon="8.982490958736447"><ele>8.0</ele><time>2026-04-06T06:14:59Z</time></trkpt><trkpt lat="44.393881282332295" lon="8.982403355969199"><ele>9.333333333333332</ele><time>2026-04-06T06:15:00Z</time></trkpt><trkpt lat="44.393915273751794" lon="8.982327057777603"><ele>10.666666666666666</ele><time>2026-04-06T06:15:01Z</time></trkpt><trkpt lat="44.393977671184295" lon="8.982198520071913"><ele>12.0</ele><time>2026-04-06T06:15:03Z</time></trkpt><trkpt lat="44.394022025032776" lon="8.98211068605924"><ele>13.333333333333332</ele><time>2026-04-06T06:15:05Z</time></trkpt><trkpt lat="44.394060686653205" lon="8.982034642643093"><ele>14.666666666666666</ele><time>2026-04-06T06:15:08Z</time></trkpt><trkpt lat="44.3941248805106" lon="8.981910021576537"><ele>16.0</ele><time>2026-04-06T06:15:22Z</time></trkpt><trkpt lat="44.39417046419285" lon="8.98182354783874"><ele>15.999999999999998</ele><time>2026-04-06T06:15:23Z</time></trkpt><trkpt lat="44.39421285627223" lon="8.981727757471075"><ele>16.0</ele><time>2026-04-06T06:15:24Z</time></trkpt><trkpt lat="44.39424741518238" lon="8.98163617268703"><ele>16.0</ele><time>2026-04-06T06:15:25Z</time></trkpt><trkpt lat="44.3942901955692" lon="8.981553180252904"><ele>16.0</ele><time>2026-04-06T06:15:26Z</time></trkpt><trkpt lat="44.39432971593069" lon="8.981482539393415"><ele>15.999999999999998</ele><time>2026-04-06T06:15:27Z</time></trkpt><trkpt lat="44.39439776140443" lon="8.98136335826497"><ele>16.0</ele><time>2026-04-06T06:15:29Z</time></trkpt><trkpt lat="44.394487110207635" lon="8.981244256400366"><ele>16.833333333333332</ele><time>2026-04-06T06:15:31Z</time></trkpt><trkpt lat="44.39453802539069" lon="8.981172426728982"><ele>17.666666666666664</ele><time>2026-04-06T06:15:32Z</time></trkpt><trkpt lat="44.39459340958542" lon="8.981093951420933"><ele>18.5</ele><time>2026-04-06T06:15:33Z</time></trkpt><trkpt lat="44.39463896488092" lon="8.981031671738927"><ele>19.333333333333332</ele><time>2026-04-06T06:15:34Z</time></trkpt><trkpt lat="44.39468437754865" lon="8.980957996075182"><ele>20.166666666666668</ele><time>2026-04-06T06:15:36Z</time></trkpt><trkpt lat="44.39473085306725" lon="8.980892781046721"><ele>21.0</ele><time>2026-04-06T06:15:45.999Z</time></trkpt><trkpt lat="44.39480798852822" lon="8.98073951261603"><ele>21.4</ele><time>2026-04-06T06:15:47.999Z</time></trkpt><trkpt lat="44.39485026560313" lon="8.980646548137338"><ele>21.8</ele><time>2026-04-06T06:15:48.999Z</time></trkpt><trkpt lat="44.394885714402356" lon="8.980529677539648"><ele>22.2</ele><time>2026-04-06T06:15:49.999Z</time></trkpt><trkpt lat="44.39492003331621" lon="8.980415828020726"><ele>22.599999999999998</ele><time>2026-04-06T06:15:50.999Z</time></trkpt><trkpt lat="44.39493547653243" lon="8.980294963760441"><ele>23.0</ele><time>2026-04-06T06:15:51.999Z</time></trkpt><trkpt lat="44.39494174233934" lon="8.980147959494856"><ele>21.0</ele><time>2026-04-06T06:15:52.999Z</time></trkpt><trkpt lat="44.394934065363806" lon="8.979987296506048"><ele>19.0</ele><time>2026-04-06T06:15:53.999Z</time></trkpt><trkpt lat="44.39492257795528" lon="8.979815194584074"><ele>17.0</ele><time>2026-04-06T06:15:54.999Z</time></trkpt><trkpt lat="44.39491345510869" lon="8.979635918265446"><ele>15.0</ele><time>2026-04-06T06:15:55.999Z</time></trkpt><trkpt lat="44.3949059677754" lon="8.97944668709729"><ele>15.0</ele><time>2026-04-06T06:15:56.999Z</time></trkpt><trkpt lat="44.39489430138449" lon="8.979252720194605"><ele>15.0</ele><time>2026-04-06T06:15:57.999Z</time></trkpt><trkpt lat="44.39488173560815" lon="8.979066162943171"><ele>15.0</ele><time>2026-04-06T06:15:58.999Z</time></trkpt><trkpt lat="44.39487012991836" lon="8.978883254654324"><ele>15.0</ele><time>2026-04-06T06:15:59.999Z</time></trkpt><trkpt lat="44.39485912999481" lon="8.97870616896578"><ele>15.25</ele><time>2026-04-06T06:16:00.999Z</time></trkpt><trkpt lat="44.39485171995291" lon="8.978532306262643"><ele>15.5</ele><time>2026-04-06T06:16:01.999Z</time></trkpt><trkpt lat="44.39484413977948" lon="8.978366656935044"><ele>15.75</ele><time>2026-04-06T06:16:02.999Z</time></trkpt><trkpt lat="44.39483219116377" lon="8.978207082659681"><ele>16.0</ele><time>2026-04-06T06:16:03.999Z</time></trkpt><trkpt lat="44.394820222578495" lon="8.978064022012983"><ele>18.4</ele><time>2026-04-06T06:16:04.999Z</time></trkpt><trkpt lat="44.3948133831577" lon="8.977912555476593"><ele>20.8</ele><time>2026-04-06T06:16:05.999Z</time></trkpt><trkpt lat="44.39480410251851" lon="8.97775408761757"><ele>23.199999999999996</ele><time>2026-04-06T06:16:06.999Z</time></trkpt><trkpt lat="44.39479922019988" lon="8.97760383526878"><ele>25.599999999999998</ele><time>2026-04-06T06:16:07.999Z</time></trkpt><trkpt lat="44.39479717377957" lon="8.977442635250023"><ele>28.0</ele><time>2026-04-06T06:16:08.999Z</time></trkpt><trkpt lat="44.39480246413011" lon="8.977286715111504"><ele>30.25</ele><time>2026-04-06T06:16:09.999Z</time></trkpt><trkpt lat="44.394810099293196" lon="8.97713349855964"><ele>32.5</ele><time>2026-04-06T06:16:10.999Z</time></trkpt><trkpt lat="44.39481866981582" lon="8.976966293699611"><ele>34.75</ele><time>2026-04-06T06:16:11.999Z</time></trkpt><trkpt lat="44.394845129399236" lon="8.976816615786184"><ele>37.0</ele><time>2026-04-06T06:16:12.999Z</time></trkpt><trkpt lat="44.394884724245266" lon="8.976653288235767"><ele>37.2</ele><time>2026-04-06T06:16:13.999Z</time></trkpt><trkpt lat="44.39492959894895" lon="8.976498489324623"><ele>37.400000000000006</ele><time>2026-04-06T06:16:14.999Z</time></trkpt><trkpt lat="44.39497683776072" lon="8.976359891536505"><ele>37.599999999999994</ele><time>2026-04-06T06:16:15.999Z</time></trkpt><trkpt lat="44.39502849892918" lon="8.976228030948523"><ele>37.8</ele><time>2026-04-06T06:16:16.999Z</time></trkpt><trkpt lat="44.39506773704985" lon="8.976098205461103"><ele>38.0</ele><time>2026-04-06T06:16:17.999Z</time></trkpt><trkpt lat="44.39509534774596" lon="8.975958645063686"><ele>37.199999999999996</ele><time>2026-04-06T06:16:18.999Z</time></trkpt><trkpt lat="44.3950935342502" lon="8.975816399491984"><ele>36.4</ele><time>2026-04-06T06:16:19.999Z</time></trkpt><trkpt lat="44.39505408440874" lon="8.975682673074987"><ele>35.599999999999994</ele><time>2026-04-06T06:16:20.999Z</time></trkpt><trkpt lat="44.39497989228749" lon="8.97556865568996"><ele>34.8</ele><time>2026-04-06T06:16:21.999Z</time></trkpt><trkpt lat="44.39487672465991" lon="8.975503228737537"><ele>34.0</ele><time>2026-04-06T06:16:22.999Z</time></trkpt><trkpt lat="44.39475333240708" lon="8.975483732184474"><ele>33.75</ele><time>2026-04-06T06:16:23.999Z</time></trkpt><trkpt lat="44.39462190301392" lon="8.975468285576405"><ele>33.5</ele><time>2026-04-06T06:16:24.999Z</time></trkpt><trkpt lat="44.39448228250309" lon="8.975443406216169"><ele>33.25</ele><time>2026-04-06T06:16:25.999Z</time></trkpt><trkpt lat="44.394350083698875" lon="8.975404291738744"><ele>33.0</ele><time>2026-04-06T06:16:26.999Z</time></trkpt><trkpt lat="44.39421780329883" lon="8.975362415763128"><ele>33.0</ele><time>2026-04-06T06:16:27.999Z</time></trkpt><trkpt lat="44.39408683050349" lon="8.97531501411483"><ele>33.0</ele><time>2026-04-06T06:16:28.999Z</time></trkpt><trkpt lat="44.39397746432521" lon="8.975267593166357"><ele>33.0</ele><time>2026-04-06T06:16:29.999Z</time></trkpt><trkpt lat="44.39386377134932" lon="8.975218718207271"><ele>33.0</ele><time>2026-04-06T06:16:30.999Z</time></trkpt><trkpt lat="44.39374661862951" lon="8.975176734357724"><ele>32.0</ele><time>2026-04-06T06:16:31.999Z</time></trkpt><trkpt lat="44.39363637156226" lon="8.975133949427807"><ele>30.999999999999996</ele><time>2026-04-06T06:16:32.999Z</time></trkpt><trkpt lat="44.39352916220663" lon="8.97509300627077"><ele>29.999999999999996</ele><time>2026-04-06T06:16:33.999Z</time></trkpt><trkpt lat="44.39344325716622" lon="8.975054246508751"><ele>29.0</ele><time>2026-04-06T06:16:34.999Z</time></trkpt><trkpt lat="44.39337496144469" lon="8.975023998752212"><ele>28.0</ele><time>2026-04-06T06:16:35.999Z</time></trkpt><trkpt lat="44.39328837912337" lon="8.974994152854746"><ele>28.0</ele><time>2026-04-06T06:16:37.999Z</time></trkpt><trkpt lat="44.39320318464254" lon="8.974976786517125"><ele>27.999999999999996</ele><time>2026-04-06T06:17:01.999Z</time></trkpt><trkpt lat="44.39307309249836" lon="8.974925494317766"><ele>27.999999999999996</ele><time>2026-04-06T06:17:03.999Z</time></trkpt><trkpt lat="44.39297997274561" lon="8.974901978775927"><ele>28.0</ele><time>2026-04-06T06:17:05Z</time></trkpt><trkpt lat="44.39287811120949" lon="8.974874595980422"><ele>28.0</ele><time>2026-04-06T06:17:06Z</time></trkpt><trkpt lat="44.39277838840173" lon="8.974842694340653"><ele>27.2</ele><time>2026-04-06T06:17:07Z</time></trkpt><trkpt lat="44.392676451274376" lon="8.97480993437062"><ele>26.4</ele><time>2026-04-06T06:17:08Z</time></trkpt><trkpt lat="44.39257013122083" lon="8.97477044208591"><ele>25.599999999999998</ele><time>2026-04-06T06:17:09Z</time></trkpt><trkpt lat="44.39245641035114" lon="8.974742492405486"><ele>24.799999999999997</ele><time>2026-04-06T06:17:10Z</time></trkpt><trkpt lat="44.392350390829094" lon="8.974703262971355"><ele>24.0</ele><time>2026-04-06T06:17:11Z</time></trkpt><trkpt lat="44.39225120554119" lon="8.974671338632177"><ele>23.0</ele><time>2026-04-06T06:17:12Z</time></trkpt><trkpt lat="44.392158219829135" lon="8.97463626349123"><ele>22.0</ele><time>2026-04-06T06:17:13Z</time></trkpt><trkpt lat="44.39206437540586" lon="8.974604928932198"><ele>21.0</ele><time>2026-04-06T06:17:14Z</time></trkpt><trkpt lat="44.39197967134791" lon="8.97457335688239"><ele>20.0</ele><time>2026-04-06T06:17:15Z</time></trkpt><trkpt lat="44.39189479008193" lon="8.974542112049694"><ele>19.0</ele><time>2026-04-06T06:17:16Z</time></trkpt><trkpt lat="44.39178693547012" lon="8.974511434750424"><ele>19.0</ele><time>2026-04-06T06:17:17Z</time></trkpt><trkpt lat="44.39167120491322" lon="8.974470648811684"><ele>19.0</ele><time>2026-04-06T06:17:18Z</time></trkpt><trkpt lat="44.391547176034045" lon="8.974421075869767"><ele>19.0</ele><time>2026-04-06T06:17:19Z</time></trkpt><trkpt lat="44.39142682755692" lon="8.974371839692612"><ele>19.0</ele><time>2026-04-06T06:17:20Z</time></trkpt><trkpt lat="44.39131429643773" lon="8.974326675105985"><ele>19.0</ele><time>2026-04-06T06:17:21Z</time></trkpt><trkpt lat="44.391203478964805" lon="8.974280551095939"><ele>19.0</ele><time>2026-04-06T06:17:22Z</time></trkpt><trkpt lat="44.39109734723016" lon="8.974239298642269"><ele>19.0</ele><time>2026-04-06T06:17:23Z</time></trkpt><trkpt lat="44.39098622892886" lon="8.97419260971434"><ele>19.0</ele><time>2026-04-06T06:17:24Z</time></trkpt><trkpt lat="44.390878127275634" lon="8.974153970586473"><ele>19.0</ele><time>2026-04-06T06:17:25Z</time></trkpt><trkpt lat="44.39076516858143" lon="8.974110174306091"><ele>19.0</ele><time>2026-04-06T06:17:26Z</time></trkpt><trkpt lat="44.39064893202475" lon="8.974065174396769"><ele>19.0</ele><time>2026-04-06T06:17:27Z</time></trkpt><trkpt lat="44.39053874035611" lon="8.974017779728479"><ele>19.0</ele><time>2026-04-06T06:17:28Z</time></trkpt><trkpt lat="44.39042175315192" lon="8.973958913222454"><ele>16.25</ele><time>2026-04-06T06:17:29Z</time></trkpt><trkpt lat="44.390330606867025" lon="8.973855090926364"><ele>13.5</ele><time>2026-04-06T06:17:30Z</time></trkpt><trkpt lat="44.39025986480633" lon="8.973708314293154"><ele>10.75</ele><time>2026-04-06T06:17:31Z</time></trkpt><trkpt lat="44.39021475676278" lon="8.973546779419888"><ele>8.0</ele><time>2026-04-06T06:17:32Z</time></trkpt><trkpt lat="44.39018033710162" lon="8.973377572400956"><ele>8.75</ele><time>2026-04-06T06:17:33Z</time></trkpt><trkpt lat="44.3901322882952" lon="8.973207234726317"><ele>9.5</ele><time>2026-04-06T06:17:34Z</time></trkpt><trkpt lat="44.390090504132516" lon="8.9730387352128"><ele>10.25</ele><time>2026-04-06T06:17:35Z</time></trkpt><trkpt lat="44.390063134538394" lon="8.972861937375432"><ele>11.0</ele><time>2026-04-06T06:17:36Z</time></trkpt><trkpt lat="44.39004967554516" lon="8.972679050102471"><ele>10.5</ele><time>2026-04-06T06:17:37Z</time></trkpt><trkpt lat="44.39005265793585" lon="8.972486590771757"><ele>10.0</ele><time>2026-04-06T06:17:38Z</time></trkpt><trkpt lat="44.39007017425373" lon="8.972294461651929"><ele>9.5</ele><time>2026-04-06T06:17:39Z</time></trkpt><trkpt lat="44.39009907639119" lon="8.972100658986514"><ele>9.0</ele><time>2026-04-06T06:17:40Z</time></trkpt><trkpt lat="44.390121689154824" lon="8.97191434106548"><ele>9.0</ele><time>2026-04-06T06:17:41Z</time></trkpt><trkpt lat="44.39014715246421" lon="8.971725698578458"><ele>9.0</ele><time>2026-04-06T06:17:42Z</time></trkpt><trkpt lat="44.39016764778505" lon="8.971542619970169"><ele>9.0</ele><time>2026-04-06T06:17:43Z</time></trkpt><trkpt lat="44.39018900801273" lon="8.971356487443432"><ele>9.0</ele><time>2026-04-06T06:17:44Z</time></trkpt><trkpt lat="44.39021221092954" lon="8.97117831264408"><ele>8.5</ele><time>2026-04-06T06:17:45Z</time></trkpt><trkpt lat="44.39023006411798" lon="8.971002519349376"><ele>8.0</ele><time>2026-04-06T06:17:46Z</time></trkpt><trkpt lat="44.390253324378946" lon="8.970829144504531"><ele>7.5</ele><time>2026-04-06T06:17:47Z</time></trkpt><trkpt lat="44.39028625820312" lon="8.970655390834885"><ele>7.0</ele><time>2026-04-06T06:17:48Z</time></trkpt><trkpt lat="44.39032994300735" lon="8.970488345628473"><ele>6.5</ele><time>2026-04-06T06:17:49Z</time></trkpt><trkpt lat="44.3903840636561" lon="8.970323654480245"><ele>6.0</ele><time>2026-04-06T06:17:50Z</time></trkpt><trkpt lat="44.39044515299603" lon="8.970166501112073"><ele>5.5</ele><time>2026-04-06T06:17:51Z</time></trkpt><trkpt lat="44.3905129789453" lon="8.970008408926594"><ele>5.0</ele><time>2026-04-06T06:17:52Z</time></trkpt><trkpt lat="44.390585189995356" lon="8.969846899898343"><ele>7.25</ele><time>2026-04-06T06:17:53Z</time></trkpt><trkpt lat="44.390652997228216" lon="8.969691994224826"><ele>9.5</ele><time>2026-04-06T06:17:54Z</time></trkpt><trkpt lat="44.39071928667634" lon="8.96954025214371"><ele>11.75</ele><time>2026-04-06T06:17:55Z</time></trkpt><trkpt lat="44.39078234406047" lon="8.969380229050254"><ele>14.0</ele><time>2026-04-06T06:17:56Z</time></trkpt><trkpt lat="44.390845436738466" lon="8.969226694013203"><ele>13.0</ele><time>2026-04-06T06:17:57Z</time></trkpt><trkpt lat="44.39090970990373" lon="8.969074603735297"><ele>12.0</ele><time>2026-04-06T06:17:58Z</time></trkpt><trkpt lat="44.390972605065585" lon="8.968915646387238"><ele>11.0</ele><time>2026-04-06T06:17:59Z</time></trkpt><trkpt lat="44.39103811181045" lon="8.968759297339254"><ele>10.0</ele><time>2026-04-06T06:18:00Z</time></trkpt><trkpt lat="44.391100823546665" lon="8.968603343758339"><ele>10.0</ele><time>2026-04-06T06:18:01Z</time></trkpt><trkpt lat="44.3911532963743" lon="8.968476080221212"><ele>10.0</ele><time>2026-04-06T06:18:01.999Z</time></trkpt><trkpt lat="44.39119939891299" lon="8.9683647064168"><ele>10.0</ele><time>2026-04-06T06:18:02.999Z</time></trkpt><trkpt lat="44.39123413121423" lon="8.968272610054777"><ele>10.0</ele><time>2026-04-06T06:18:03.999Z</time></trkpt><trkpt lat="44.39127940732275" lon="8.96814478310812"><ele>10.0</ele><time>2026-04-06T06:18:05.999Z</time></trkpt><trkpt lat="44.39130821504503" lon="8.968055767841152"><ele>10.0</ele><time>2026-04-06T06:18:09.999Z</time></trkpt><trkpt lat="44.39134419777834" lon="8.967898431844585"><ele>10.0</ele><time>2026-04-06T06:18:54.999Z</time></trkpt><trkpt lat="44.39137188589743" lon="8.967786983600323"><ele>10.0</ele><time>2026-04-06T06:18:55.999Z</time></trkpt><trkpt lat="44.391399758103766" lon="8.96765879696944"><ele>10.0</ele><time>2026-04-06T06:18:56.999Z</time></trkpt><trkpt lat="44.39142319117521" lon="8.96751740315757"><ele>10.0</ele><time>2026-04-06T06:18:57.999Z</time></trkpt><trkpt lat="44.3914449485656" lon="8.967360365904582"><ele>10.0</ele><time>2026-04-06T06:18:58.999Z</time></trkpt><trkpt lat="44.391463862620434" lon="8.967212796563969"><ele>9.75</ele><time>2026-04-06T06:18:59.999Z</time></trkpt><trkpt lat="44.39147878926108" lon="8.967055633045993"><ele>9.5</ele><time>2026-04-06T06:19:00.999Z</time></trkpt><trkpt lat="44.391487454298435" lon="8.966899619053091"><ele>9.25</ele><time>2026-04-06T06:19:01.999Z</time></trkpt><trkpt lat="44.39149019645351" lon="8.966735667759634"><ele>9.0</ele><time>2026-04-06T06:19:02.999Z</time></trkpt><trkpt lat="44.39148938773534" lon="8.966567503592488"><ele>10.0</ele><time>2026-04-06T06:19:03.999Z</time></trkpt><trkpt lat="44.39148649328314" lon="8.966395166849647"><ele>11.0</ele><time>2026-04-06T06:19:04.999Z</time></trkpt><trkpt lat="44.391490820539985" lon="8.966222646626537"><ele>12.0</ele><time>2026-04-06T06:19:05.999Z</time></trkpt><trkpt lat="44.391514849772854" lon="8.966055216822854"><ele>13.0</ele><time>2026-04-06T06:19:06.999Z</time></trkpt><trkpt lat="44.39155715767234" lon="8.965899905099043"><ele>13.0</ele><time>2026-04-06T06:19:07.999Z</time></trkpt><trkpt lat="44.39161271796549" lon="8.965744454924584"><ele>13.0</ele><time>2026-04-06T06:19:08.999Z</time></trkpt><trkpt lat="44.39169166956363" lon="8.965616122462864"><ele>13.0</ele><time>2026-04-06T06:19:09.999Z</time></trkpt><trkpt lat="44.39177395427613" lon="8.965488468510461"><ele>13.0</ele><time>2026-04-06T06:19:11Z</time></trkpt><trkpt lat="44.391866558668184" lon="8.96537677949113"><ele>13.0</ele><time>2026-04-06T06:19:12Z</time></trkpt><trkpt lat="44.391968674594864" lon="8.96527037050701"><ele>13.0</ele><time>2026-04-06T06:19:13Z</time></trkpt><trkpt lat="44.39207278135652" lon="8.965175570844451"><ele>13.0</ele><time>2026-04-06T06:19:14Z</time></trkpt><trkpt lat="44.39218745613776" lon="8.965095372839512"><ele>13.0</ele><time>2026-04-06T06:19:15Z</time></trkpt><trkpt lat="44.392303434683924" lon="8.965031097339173"><ele>15.25</ele><time>2026-04-06T06:19:16Z</time></trkpt><trkpt lat="44.39241683862958" lon="8.964971631971732"><ele>17.5</ele><time>2026-04-06T06:19:17Z</time></trkpt><trkpt lat="44.39252501188195" lon="8.964884780568099"><ele>19.75</ele><time>2026-04-06T06:19:18Z</time></trkpt><trkpt lat="44.39262181204622" lon="8.964779706522013"><ele>22.0</ele><time>2026-04-06T06:19:19Z</time></trkpt><trkpt lat="44.392714503032" lon="8.964660988772712"><ele>22.0</ele><time>2026-04-06T06:19:20Z</time></trkpt><trkpt lat="44.3927944690946" lon="8.964522249571896"><ele>22.0</ele><time>2026-04-06T06:19:21Z</time></trkpt><trkpt lat="44.39287018716804" lon="8.964374128031631"><ele>22.0</ele><time>2026-04-06T06:19:22Z</time></trkpt><trkpt lat="44.392934184325604" lon="8.964215522322814"><ele>22.0</ele><time>2026-04-06T06:19:23Z</time></trkpt><trkpt lat="44.39297824202225" lon="8.964044198536008"><ele>21.5</ele><time>2026-04-06T06:19:24Z</time></trkpt><trkpt lat="44.39301206553937" lon="8.96386985230963"><ele>21.0</ele><time>2026-04-06T06:19:25Z</time></trkpt><trkpt lat="44.393040907447705" lon="8.963689030774773"><ele>20.5</ele><time>2026-04-06T06:19:26Z</time></trkpt><trkpt lat="44.393051477098375" lon="8.963510454137683"><ele>20.0</ele><time>2026-04-06T06:19:27Z</time></trkpt><trkpt lat="44.393045551791175" lon="8.963339781932785"><ele>20.0</ele><time>2026-04-06T06:19:28Z</time></trkpt><trkpt lat="44.39303146167653" lon="8.963169248845519"><ele>20.0</ele><time>2026-04-06T06:19:29Z</time></trkpt><trkpt lat="44.393015917050064" lon="8.963001669211486"><ele>20.0</ele><time>2026-04-06T06:19:30Z</time></trkpt><trkpt lat="44.39300216309871" lon="8.962835890989139"><ele>20.0</ele><time>2026-04-06T06:19:31Z</time></trkpt><trkpt lat="44.392982133319855" lon="8.962680388131815"><ele>16.8</ele><time>2026-04-06T06:19:32Z</time></trkpt><trkpt lat="44.39296502321765" lon="8.962538880110053"><ele>13.6</ele><time>2026-04-06T06:19:33Z</time></trkpt><trkpt lat="44.39295169239652" lon="8.962413709473616"><ele>10.4</ele><time>2026-04-06T06:19:34Z</time></trkpt><trkpt lat="44.39294120902212" lon="8.962297260023053"><ele>7.2</ele><time>2026-04-06T06:19:35Z</time></trkpt><trkpt lat="44.392926737199325" lon="8.96215261246123"><ele>4.0</ele><time>2026-04-06T06:19:36Z</time></trkpt><trkpt lat="44.39290166621122" lon="8.961978157856171"><ele>4.0</ele><time>2026-04-06T06:19:37Z</time></trkpt><trkpt lat="44.39286751533794" lon="8.961790027441968"><ele>4.0</ele><time>2026-04-06T06:19:38Z</time></trkpt><trkpt lat="44.39282462749693" lon="8.961603070820349"><ele>4.0</ele><time>2026-04-06T06:19:39Z</time></trkpt><trkpt lat="44.39277981490036" lon="8.961420604573066"><ele>4.0</ele><time>2026-04-06T06:19:40Z</time></trkpt><trkpt lat="44.3927345996883" lon="8.961241061357828"><ele>4.5</ele><time>2026-04-06T06:19:41Z</time></trkpt><trkpt lat="44.39268712111689" lon="8.96105920347759"><ele>5.0</ele><time>2026-04-06T06:19:42Z</time></trkpt><trkpt lat="44.392639536605785" lon="8.960874939623912"><ele>5.5</ele><time>2026-04-06T06:19:43Z</time></trkpt><trkpt lat="44.39259699626447" lon="8.960699795000341"><ele>6.0</ele><time>2026-04-06T06:19:44Z</time></trkpt><trkpt lat="44.392556519033846" lon="8.960526106974314"><ele>7.25</ele><time>2026-04-06T06:19:45Z</time></trkpt><trkpt lat="44.39251840108656" lon="8.960355234510725"><ele>8.5</ele><time>2026-04-06T06:19:46Z</time></trkpt><trkpt lat="44.39248138198316" lon="8.96018468281946"><ele>9.75</ele><time>2026-04-06T06:19:47Z</time></trkpt><trkpt lat="44.39244235015344" lon="8.960017263520909"><ele>11.0</ele><time>2026-04-06T06:19:48Z</time></trkpt><trkpt lat="44.39240089927897" lon="8.959859566856007"><ele>12.5</ele><time>2026-04-06T06:19:49Z</time></trkpt><trkpt lat="44.39236508905143" lon="8.959692712194109"><ele>14.0</ele><time>2026-04-06T06:19:50Z</time></trkpt><trkpt lat="44.39232519742997" lon="8.959527039603511"><ele>15.5</ele><time>2026-04-06T06:19:51Z</time></trkpt><trkpt lat="44.39228403548411" lon="8.959362676885284"><ele>17.0</ele><time>2026-04-06T06:19:52Z</time></trkpt><trkpt lat="44.39224778756677" lon="8.959198194952346"><ele>17.25</ele><time>2026-04-06T06:19:53Z</time></trkpt><trkpt lat="44.39222021458471" lon="8.959032964397036"><ele>17.5</ele><time>2026-04-06T06:19:54Z</time></trkpt><trkpt lat="44.39218817779287" lon="8.9588630219608"><ele>17.75</ele><time>2026-04-06T06:19:55Z</time></trkpt><trkpt lat="44.39216135000153" lon="8.958694546548958"><ele>18.0</ele><time>2026-04-06T06:19:56Z</time></trkpt><trkpt lat="44.39213052488854" lon="8.958528630005134"><ele>15.8</ele><time>2026-04-06T06:19:57Z</time></trkpt><trkpt lat="44.39209573159714" lon="8.958369017542465"><ele>13.600000000000001</ele><time>2026-04-06T06:19:58Z</time></trkpt><trkpt lat="44.39205982495256" lon="8.958211719864186"><ele>11.399999999999999</ele><time>2026-04-06T06:19:59Z</time></trkpt><trkpt lat="44.39202820694816" lon="8.958073350539198"><ele>9.2</ele><time>2026-04-06T06:20:00Z</time></trkpt><trkpt lat="44.391998818384465" lon="8.957945587033272"><ele>7.0</ele><time>2026-04-06T06:20:01Z</time></trkpt><trkpt lat="44.39197838240635" lon="8.95783533607163"><ele>7.0</ele><time>2026-04-06T06:20:02Z</time></trkpt><trkpt lat="44.39196265480917" lon="8.957737604129965"><ele>6.999999999999999</ele><time>2026-04-06T06:20:03Z</time></trkpt><trkpt lat="44.39192890424243" lon="8.957620001054355"><ele>6.999999999999999</ele><time>2026-04-06T06:20:04Z</time></trkpt><trkpt lat="44.39190330317668" lon="8.95747518064244"><ele>7.0</ele><time>2026-04-06T06:20:05Z</time></trkpt><trkpt lat="44.391868724151735" lon="8.95732511783474"><ele>7.0</ele><time>2026-04-06T06:20:06Z</time></trkpt><trkpt lat="44.39182701667371" lon="8.957166570955232"><ele>8.25</ele><time>2026-04-06T06:20:07Z</time></trkpt><trkpt lat="44.39179088710062" lon="8.956985070549997"><ele>9.5</ele><time>2026-04-06T06:20:08Z</time></trkpt><trkpt lat="44.39175895057141" lon="8.956810659540317"><ele>10.75</ele><time>2026-04-06T06:20:09Z</time></trkpt><trkpt lat="44.391734218228045" lon="8.956632250902791"><ele>12.0</ele><time>2026-04-06T06:20:10Z</time></trkpt><trkpt lat="44.39171856120121" lon="8.956466732176091"><ele>12.0</ele><time>2026-04-06T06:20:11Z</time></trkpt><trkpt lat="44.391711090697044" lon="8.95629128121202"><ele>12.0</ele><time>2026-04-06T06:20:12Z</time></trkpt><trkpt lat="44.391720597270066" lon="8.95613824422766"><ele>12.0</ele><time>2026-04-06T06:20:13Z</time></trkpt><trkpt lat="44.39172827201099" lon="8.956014907454362"><ele>12.0</ele><time>2026-04-06T06:20:14Z</time></trkpt><trkpt lat="44.391739369011695" lon="8.955917712424746"><ele>12.0</ele><time>2026-04-06T06:20:15Z</time></trkpt><trkpt lat="44.39177408208539" lon="8.955752727779814"><ele>12.2</ele><time>2026-04-06T06:20:17Z</time></trkpt><trkpt lat="44.3917917711985" lon="8.955646820176993"><ele>12.399999999999999</ele><time>2026-04-06T06:20:18Z</time></trkpt><trkpt lat="44.391819602865255" lon="8.955520169843872"><ele>12.600000000000001</ele><time>2026-04-06T06:20:19Z</time></trkpt><trkpt lat="44.391871180140186" lon="8.955384429108749"><ele>12.8</ele><time>2026-04-06T06:20:20Z</time></trkpt><trkpt lat="44.391933983010155" lon="8.955239920392499"><ele>13.0</ele><time>2026-04-06T06:20:21Z</time></trkpt><trkpt lat="44.391996527504716" lon="8.9550890218584"><ele>12.5</ele><time>2026-04-06T06:20:22Z</time></trkpt><trkpt lat="44.392060266332244" lon="8.954933313124764"><ele>12.0</ele><time>2026-04-06T06:20:23Z</time></trkpt><trkpt lat="44.39213404554267" lon="8.954764720802602"><ele>11.5</ele><time>2026-04-06T06:20:24Z</time></trkpt><trkpt lat="44.39221099068407" lon="8.954600403519047"><ele>11.0</ele><time>2026-04-06T06:20:25Z</time></trkpt><trkpt lat="44.392275896031485" lon="8.954444737069958"><ele>12.5</ele><time>2026-04-06T06:20:26Z</time></trkpt><trkpt lat="44.39233481051251" lon="8.954294112542584"><ele>14.0</ele><time>2026-04-06T06:20:27Z</time></trkpt><trkpt lat="44.392391023501496" lon="8.954147203564867"><ele>15.5</ele><time>2026-04-06T06:20:28Z</time></trkpt><trkpt lat="44.39244007744197" lon="8.953990671840776"><ele>17.0</ele><time>2026-04-06T06:20:29Z</time></trkpt><trkpt lat="44.39248343913814" lon="8.953835411492221"><ele>17.0</ele><time>2026-04-06T06:20:30Z</time></trkpt><trkpt lat="44.39252473452659" lon="8.953668750501274"><ele>17.0</ele><time>2026-04-06T06:20:31Z</time></trkpt><trkpt lat="44.392560120252476" lon="8.953493418441498"><ele>17.0</ele><time>2026-04-06T06:20:32Z</time></trkpt><trkpt lat="44.39259277208956" lon="8.953311499183052"><ele>17.0</ele><time>2026-04-06T06:20:32.999Z</time></trkpt><trkpt lat="44.392623956839145" lon="8.9531221233151"><ele>16.75</ele><time>2026-04-06T06:20:33.999Z</time></trkpt><trkpt lat="44.39265319327002" lon="8.952926372461883"><ele>16.5</ele><time>2026-04-06T06:20:34.999Z</time></trkpt><trkpt lat="44.39268005912088" lon="8.952734444420091"><ele>16.25</ele><time>2026-04-06T06:20:35.999Z</time></trkpt><trkpt lat="44.39271162196443" lon="8.952540727300983"><ele>16.0</ele><time>2026-04-06T06:20:36.999Z</time></trkpt><trkpt lat="44.392746330329075" lon="8.952350544107054"><ele>15.5</ele><time>2026-04-06T06:20:37.999Z</time></trkpt><trkpt lat="44.39278677771812" lon="8.95216346391134"><ele>15.0</ele><time>2026-04-06T06:20:38.999Z</time></trkpt><trkpt lat="44.392840490958946" lon="8.951980782073354"><ele>14.5</ele><time>2026-04-06T06:20:39.999Z</time></trkpt><trkpt lat="44.392913728293344" lon="8.951809215823138"><ele>14.0</ele><time>2026-04-06T06:20:40.999Z</time></trkpt><trkpt lat="44.392997503511864" lon="8.951652934535733"><ele>15.75</ele><time>2026-04-06T06:20:41.999Z</time></trkpt><trkpt lat="44.39309775820088" lon="8.951510776631485"><ele>17.5</ele><time>2026-04-06T06:20:42.999Z</time></trkpt><trkpt lat="44.39321145203374" lon="8.95138338786184"><ele>19.25</ele><time>2026-04-06T06:20:43.999Z</time></trkpt><trkpt lat="44.393319777799555" lon="8.951259975893889"><ele>21.0</ele><time>2026-04-06T06:20:44.999Z</time></trkpt><trkpt lat="44.393427586125036" lon="8.95113518153476"><ele>21.0</ele><time>2026-04-06T06:20:45.999Z</time></trkpt><trkpt lat="44.3935408805248" lon="8.95101647575155"><ele>21.0</ele><time>2026-04-06T06:20:46.999Z</time></trkpt><trkpt lat="44.39364576273596" lon="8.950899272952002"><ele>21.0</ele><time>2026-04-06T06:20:47.999Z</time></trkpt><trkpt lat="44.39374385204955" lon="8.950786226623372"><ele>21.0</ele><time>2026-04-06T06:20:48.999Z</time></trkpt><trkpt lat="44.39384124646749" lon="8.950676973471332"><ele>21.75</ele><time>2026-04-06T06:20:49.999Z</time></trkpt><trkpt lat="44.39394272598998" lon="8.950568774361416"><ele>22.5</ele><time>2026-04-06T06:20:50.999Z</time></trkpt><trkpt lat="44.39404349953726" lon="8.950458337309609"><ele>23.25</ele><time>2026-04-06T06:20:51.999Z</time></trkpt><trkpt lat="44.39414925146331" lon="8.950347301131826"><ele>24.0</ele><time>2026-04-06T06:20:52.999Z</time></trkpt><trkpt lat="44.394252253923746" lon="8.950231510767766"><ele>24.0</ele><time>2026-04-06T06:20:53.999Z</time></trkpt><trkpt lat="44.3943553859531" lon="8.950118986182623"><ele>24.0</ele><time>2026-04-06T06:20:54.999Z</time></trkpt><trkpt lat="44.394452567543034" lon="8.950003545689253"><ele>24.0</ele><time>2026-04-06T06:20:55.999Z</time></trkpt><trkpt lat="44.39455140161147" lon="8.949893115765704"><ele>24.0</ele><time>2026-04-06T06:20:56.999Z</time></trkpt><trkpt lat="44.39465419439354" lon="8.949779083586822"><ele>25.75</ele><time>2026-04-06T06:20:57.999Z</time></trkpt><trkpt lat="44.394752682398874" lon="8.949659811634424"><ele>27.5</ele><time>2026-04-06T06:20:58.999Z</time></trkpt><trkpt lat="44.394853700173094" lon="8.949550447702224"><ele>29.25</ele><time>2026-04-06T06:20:59.999Z</time></trkpt><trkpt lat="44.39494339328788" lon="8.94944735023022"><ele>31.0</ele><time>2026-04-06T06:21:00.999Z</time></trkpt><trkpt lat="44.395021826391044" lon="8.949350009733877"><ele>31.0</ele><time>2026-04-06T06:21:01.999Z</time></trkpt><trkpt lat="44.395079172498576" lon="8.94926163560029"><ele>31.000000000000004</ele><time>2026-04-06T06:21:02.999Z</time></trkpt><trkpt lat="44.39511966968463" lon="8.949184433325563"><ele>31.0</ele><time>2026-04-06T06:21:03.999Z</time></trkpt><trkpt lat="44.39515993067324" lon="8.949083985877609"><ele>31.0</ele><time>2026-04-06T06:21:05.999Z</time></trkpt><trkpt lat="44.39518617246215" lon="8.948999580424017"><ele>31.000000000000004</ele><time>2026-04-06T06:21:09.999Z</time></trkpt><trkpt lat="44.39520684874078" lon="8.948896928131193"><ele>31.0</ele><time>2026-04-06T06:21:24.999Z</time></trkpt><trkpt lat="44.39523430363795" lon="8.948813359217455"><ele>31.0</ele><time>2026-04-06T06:21:25.999Z</time></trkpt><trkpt lat="44.39527062679501" lon="8.948655041455792"><ele>27.2</ele><time>2026-04-06T06:21:27.999Z</time></trkpt><trkpt lat="44.39529230887726" lon="8.948550715462787"><ele>23.400000000000002</ele><time>2026-04-06T06:21:29Z</time></trkpt><trkpt lat="44.39531989979769" lon="8.948440246640061"><ele>19.6</ele><time>2026-04-06T06:21:30Z</time></trkpt><trkpt lat="44.39535059060164" lon="8.948320495579596"><ele>15.8</ele><time>2026-04-06T06:21:31Z</time></trkpt><trkpt lat="44.39538521795198" lon="8.948193672618341"><ele>12.0</ele><time>2026-04-06T06:21:32Z</time></trkpt><trkpt lat="44.395415841649964" lon="8.948054240538397"><ele>12.0</ele><time>2026-04-06T06:21:33Z</time></trkpt><trkpt lat="44.395449889905834" lon="8.947926443828207"><ele>12.0</ele><time>2026-04-06T06:21:34Z</time></trkpt><trkpt lat="44.395488051356644" lon="8.947785557671793"><ele>12.0</ele><time>2026-04-06T06:21:35Z</time></trkpt><trkpt lat="44.39552000243271" lon="8.947641121129111"><ele>12.0</ele><time>2026-04-06T06:21:36Z</time></trkpt><trkpt lat="44.395558707454846" lon="8.947490009616747"><ele>12.0</ele><time>2026-04-06T06:21:37Z</time></trkpt><trkpt lat="44.3955946183304" lon="8.947328037629076"><ele>12.0</ele><time>2026-04-06T06:21:38Z</time></trkpt><trkpt lat="44.39563155174069" lon="8.947171994977797"><ele>12.0</ele><time>2026-04-06T06:21:39Z</time></trkpt><trkpt lat="44.39567876683885" lon="8.94700698914471"><ele>12.0</ele><time>2026-04-06T06:21:40Z</time></trkpt><trkpt lat="44.39572228424319" lon="8.946837705567521"><ele>12.0</ele><time>2026-04-06T06:21:41Z</time></trkpt><trkpt lat="44.3957588479643" lon="8.946663814213407"><ele>11.25</ele><time>2026-04-06T06:21:42Z</time></trkpt><trkpt lat="44.39580411893863" lon="8.946498775809461"><ele>10.5</ele><time>2026-04-06T06:21:43Z</time></trkpt><trkpt lat="44.39584708476095" lon="8.946335046127444"><ele>9.75</ele><time>2026-04-06T06:21:44Z</time></trkpt><trkpt lat="44.395887424956875" lon="8.946169525913108"><ele>9.0</ele><time>2026-04-06T06:21:45Z</time></trkpt><trkpt lat="44.39592304988082" lon="8.946003645452757"><ele>7.75</ele><time>2026-04-06T06:21:46Z</time></trkpt><trkpt lat="44.39596232883184" lon="8.945838614029576"><ele>6.5</ele><time>2026-04-06T06:21:47Z</time></trkpt><trkpt lat="44.39600147551021" lon="8.94568549359157"><ele>5.25</ele><time>2026-04-06T06:21:48Z</time></trkpt><trkpt lat="44.39603882422789" lon="8.945531679610149"><ele>4.0</ele><time>2026-04-06T06:21:49Z</time></trkpt><trkpt lat="44.39606995260958" lon="8.945390310637903"><ele>4.0</ele><time>2026-04-06T06:21:50Z</time></trkpt><trkpt lat="44.39609996085642" lon="8.945256971784925"><ele>4.0</ele><time>2026-04-06T06:21:51Z</time></trkpt><trkpt lat="44.39613107228757" lon="8.945127141730776"><ele>4.0</ele><time>2026-04-06T06:21:52Z</time></trkpt><trkpt lat="44.39616413115497" lon="8.944994231002033"><ele>4.0</ele><time>2026-04-06T06:21:53Z</time></trkpt><trkpt lat="44.39619567099668" lon="8.944859509980365"><ele>4.0</ele><time>2026-04-06T06:21:54Z</time></trkpt><trkpt lat="44.39623284150082" lon="8.944713813393387"><ele>4.6</ele><time>2026-04-06T06:21:55Z</time></trkpt><trkpt lat="44.39626893311538" lon="8.944561687059803"><ele>5.2</ele><time>2026-04-06T06:21:56Z</time></trkpt><trkpt lat="44.396307849975" lon="8.944422382177228"><ele>5.799999999999999</ele><time>2026-04-06T06:21:57Z</time></trkpt><trkpt lat="44.39632799035565" lon="8.944300588139342"><ele>6.3999999999999995</ele><time>2026-04-06T06:21:58Z</time></trkpt><trkpt lat="44.39634941269104" lon="8.944196455085526"><ele>7.0</ele><time>2026-04-06T06:21:59Z</time></trkpt><trkpt lat="44.39637881236179" lon="8.944036744597847"><ele>9.166666666666668</ele><time>2026-04-06T06:22:01Z</time></trkpt><trkpt lat="44.3964150796491" lon="8.943940479088567"><ele>11.333333333333334</ele><time>2026-04-06T06:22:03Z</time></trkpt><trkpt lat="44.39647026111529" lon="8.943868493952893"><ele>13.5</ele><time>2026-04-06T06:22:10Z</time></trkpt><trkpt lat="44.39653670166568" lon="8.943810481771848"><ele>15.666666666666668</ele><time>2026-04-06T06:22:11Z</time></trkpt><trkpt lat="44.396591589942055" lon="8.943707043255376"><ele>17.833333333333336</ele><time>2026-04-06T06:22:12Z</time></trkpt><trkpt lat="44.39659729224803" lon="8.943575472791757"><ele>20.0</ele><time>2026-04-06T06:22:13Z</time></trkpt><trkpt lat="44.396570872286794" lon="8.943440600469545"><ele>18.6</ele><time>2026-04-06T06:22:14Z</time></trkpt><trkpt lat="44.396510659982695" lon="8.943351486250208"><ele>17.2</ele><time>2026-04-06T06:22:15Z</time></trkpt><trkpt lat="44.39642467998164" lon="8.943307313476511"><ele>15.8</ele><time>2026-04-06T06:22:16Z</time></trkpt><trkpt lat="44.39633224568612" lon="8.943314316365429"><ele>14.4</ele><time>2026-04-06T06:22:17Z</time></trkpt><trkpt lat="44.39625317285228" lon="8.943369564714157"><ele>13.0</ele><time>2026-04-06T06:22:18Z</time></trkpt><trkpt lat="44.39619659556675" lon="8.943467431846113"><ele>12.999999999999998</ele><time>2026-04-06T06:22:19Z</time></trkpt><trkpt lat="44.39617325511553" lon="8.943581365524233"><ele>13.0</ele><time>2026-04-06T06:22:19.999Z</time></trkpt><trkpt lat="44.396182736270475" lon="8.943696737252354"><ele>13.0</ele><time>2026-04-06T06:22:20.999Z</time></trkpt><trkpt lat="44.39622695858854" lon="8.943779847676854"><ele>13.0</ele><time>2026-04-06T06:22:21.999Z</time></trkpt><trkpt lat="44.39628035865454" lon="8.943826696281498"><ele>12.999999999999998</ele><time>2026-04-06T06:22:22.999Z</time></trkpt><trkpt lat="44.396401748937755" lon="8.9438380234695"><ele>13.0</ele><time>2026-04-06T06:22:24.999Z</time></trkpt><trkpt lat="44.396464700150794" lon="8.943826479656252"><ele>14.166666666666666</ele><time>2026-04-06T06:22:25.999Z</time></trkpt><trkpt lat="44.396539101047075" lon="8.943829651134035"><ele>15.333333333333332</ele><time>2026-04-06T06:22:26.999Z</time></trkpt><trkpt lat="44.39660814766704" lon="8.943857026841636"><ele>16.5</ele><time>2026-04-06T06:22:27.999Z</time></trkpt><trkpt lat="44.3966788321318" lon="8.943893282738856"><ele>17.666666666666668</ele><time>2026-04-06T06:22:28.999Z</time></trkpt><trkpt lat="44.39675424730463" lon="8.943925910012657"><ele>18.833333333333336</ele><time>2026-04-06T06:22:29.999Z</time></trkpt><trkpt lat="44.39683004443465" lon="8.943967603880632"><ele>20.0</ele><time>2026-04-06T06:22:30.999Z</time></trkpt><trkpt lat="44.396909329602046" lon="8.94400423244659"><ele>20.0</ele><time>2026-04-06T06:22:31.999Z</time></trkpt><trkpt lat="44.396985691199596" lon="8.944039037843547"><ele>20.0</ele><time>2026-04-06T06:22:32.999Z</time></trkpt><trkpt lat="44.397057192959664" lon="8.944053789841247"><ele>20.0</ele><time>2026-04-06T06:22:33.999Z</time></trkpt><trkpt lat="44.3971522041904" lon="8.944099682731359"><ele>20.0</ele><time>2026-04-06T06:22:35.999Z</time></trkpt><trkpt lat="44.3972292689158" lon="8.944134512956886"><ele>20.0</ele><time>2026-04-06T06:22:37.999Z</time></trkpt><trkpt lat="44.39729377343995" lon="8.944162186887183"><ele>20.0</ele><time>2026-04-06T06:22:40.999Z</time></trkpt><trkpt lat="44.39737121513168" lon="8.944189930489994"><ele>18.666666666666668</ele><time>2026-04-06T06:26:41.999Z</time></trkpt><trkpt lat="44.39744062642327" lon="8.944226165135643"><ele>17.333333333333336</ele><time>2026-04-06T06:26:42.999Z</time></trkpt><trkpt lat="44.39752686748498" lon="8.944269320669124"><ele>16.0</ele><time>2026-04-06T06:26:43.999Z</time></trkpt><trkpt lat="44.397616108721664" lon="8.9443118307777"><ele>14.666666666666668</ele><time>2026-04-06T06:26:44.999Z</time></trkpt><trkpt lat="44.39769345179706" lon="8.94435113282765"><ele>13.333333333333334</ele><time>2026-04-06T06:26:45.999Z</time></trkpt><trkpt lat="44.397786169184926" lon="8.944396264200195"><ele>12.0</ele><time>2026-04-06T06:26:46.999Z</time></trkpt><trkpt lat="44.39788251416864" lon="8.944448844543771"><ele>12.0</ele><time>2026-04-06T06:26:47.999Z</time></trkpt><trkpt lat="44.39798160709431" lon="8.94449429664049"><ele>12.0</ele><time>2026-04-06T06:26:48.999Z</time></trkpt><trkpt lat="44.3980749919438" lon="8.944538965063554"><ele>12.0</ele><time>2026-04-06T06:26:49.999Z</time></trkpt><trkpt lat="44.39817194222755" lon="8.944588146160447"><ele>12.0</ele><time>2026-04-06T06:26:50.999Z</time></trkpt><trkpt lat="44.398267142338476" lon="8.944630729372339"><ele>12.0</ele><time>2026-04-06T06:26:51.999Z</time></trkpt><trkpt lat="44.39836012659743" lon="8.944687290402447"><ele>12.0</ele><time>2026-04-06T06:26:52.999Z</time></trkpt><trkpt lat="44.3984509613532" lon="8.94472954970934"><ele>12.0</ele><time>2026-04-06T06:26:53.999Z</time></trkpt><trkpt lat="44.39854408223136" lon="8.944778149400332"><ele>12.0</ele><time>2026-04-06T06:26:54.999Z</time></trkpt><trkpt lat="44.39864003312083" lon="8.944821530357517"><ele>12.0</ele><time>2026-04-06T06:26:55.999Z</time></trkpt><trkpt lat="44.39874617254836" lon="8.94487049240373"><ele>12.0</ele><time>2026-04-06T06:26:56.999Z</time></trkpt><trkpt lat="44.39885355415111" lon="8.944918351346283"><ele>12.0</ele><time>2026-04-06T06:26:57.999Z</time></trkpt><trkpt lat="44.39895743223829" lon="8.944968465557594"><ele>12.0</ele><time>2026-04-06T06:26:58.999Z</time></trkpt><trkpt lat="44.39906467274969" lon="8.945016941303832"><ele>12.0</ele><time>2026-04-06T06:26:59.999Z</time></trkpt><trkpt lat="44.39917825364436" lon="8.945067298076296"><ele>12.0</ele><time>2026-04-06T06:27:00.999Z</time></trkpt><trkpt lat="44.399295834331056" lon="8.945120824853257"><ele>11.8</ele><time>2026-04-06T06:27:01.999Z</time></trkpt><trkpt lat="44.39940615189581" lon="8.945174190631558"><ele>11.6</ele><time>2026-04-06T06:27:02.999Z</time></trkpt><trkpt lat="44.39951575261939" lon="8.945230217352567"><ele>11.4</ele><time>2026-04-06T06:27:03.999Z</time></trkpt><trkpt lat="44.399614920385034" lon="8.945275327993174"><ele>11.200000000000001</ele><time>2026-04-06T06:27:04.999Z</time></trkpt><trkpt lat="44.39969654008186" lon="8.945321529495384"><ele>11.0</ele><time>2026-04-06T06:27:05.999Z</time></trkpt><trkpt lat="44.399780240292294" lon="8.94535578182406"><ele>11.0</ele><time>2026-04-06T06:27:06.999Z</time></trkpt><trkpt lat="44.39985369518575" lon="8.945393745468758"><ele>11.0</ele><time>2026-04-06T06:27:07.999Z</time></trkpt><trkpt lat="44.39992621916756" lon="8.945425530771098"><ele>11.0</ele><time>2026-04-06T06:27:08.999Z</time></trkpt><trkpt lat="44.400011991123336" lon="8.945468843866767"><ele>11.0</ele><time>2026-04-06T06:27:10.999Z</time></trkpt><trkpt lat="44.40007581473463" lon="8.945524868297092"><ele>11.0</ele><time>2026-04-06T06:28:11Z</time></trkpt><trkpt lat="44.40013975034156" lon="8.945574898879523"><ele>11.0</ele><time>2026-04-06T06:28:12Z</time></trkpt><trkpt lat="44.40021299829283" lon="8.945629127837778"><ele>11.0</ele><time>2026-04-06T06:28:13Z</time></trkpt><trkpt lat="44.4002943725948" lon="8.945670456622867"><ele>11.0</ele><time>2026-04-06T06:28:14Z</time></trkpt><trkpt lat="44.40038453600917" lon="8.945714088588154"><ele>11.0</ele><time>2026-04-06T06:28:15Z</time></trkpt><trkpt lat="44.40048127124711" lon="8.94576133879897"><ele>11.0</ele><time>2026-04-06T06:28:16Z</time></trkpt><trkpt lat="44.40057479745031" lon="8.945804053088027"><ele>11.0</ele><time>2026-04-06T06:28:17Z</time></trkpt><trkpt lat="44.400652283021365" lon="8.945847824729086"><ele>11.0</ele><time>2026-04-06T06:28:18Z</time></trkpt><trkpt lat="44.4007192715412" lon="8.945881093794533"><ele>11.0</ele><time>2026-04-06T06:28:19Z</time></trkpt><trkpt lat="44.400776170020855" lon="8.945929032146303"><ele>11.0</ele><time>2026-04-06T06:28:20Z</time></trkpt><trkpt lat="44.40084599001864" lon="8.945960412529319"><ele>11.0</ele><time>2026-04-06T06:28:22Z</time></trkpt><trkpt lat="44.40078611719739" lon="8.946170642006123"><ele>11.0</ele><time>2026-04-06T06:28:23Z</time></trkpt><trkpt lat="44.40074800929323" lon="8.946341417215697"><ele>11.0</ele><time>2026-04-06T06:28:25Z</time></trkpt><trkpt lat="44.400702356713545" lon="8.946469929242706"><ele>11.0</ele><time>2026-04-06T06:28:27Z</time></trkpt><trkpt lat="44.40066767794735" lon="8.94657184701291"><ele>11.0</ele><time>2026-04-06T06:29:01Z</time></trkpt><trkpt lat="44.400647039952865" lon="8.946682723649033"><ele>11.0</ele><time>2026-04-06T06:29:03Z</time></trkpt><trkpt lat="44.400583924479335" lon="8.946772921647588"><ele>11.0</ele><time>2026-04-06T06:29:05Z</time></trkpt><trkpt lat="44.40046412443808" lon="8.946717259325002"><ele>11.166666666666666</ele><time>2026-04-06T06:29:07Z</time></trkpt><trkpt lat="44.40038340792617" lon="8.94668378310483"><ele>11.333333333333332</ele><time>2026-04-06T06:29:08Z</time></trkpt><trkpt lat="44.400299038526015" lon="8.946644104420544"><ele>11.5</ele><time>2026-04-06T06:29:09Z</time></trkpt><trkpt lat="44.400229468438766" lon="8.946611385818548"><ele>11.666666666666666</ele><time>2026-04-06T06:29:10Z</time></trkpt><trkpt lat="44.4001587435732" lon="8.946578124120647"><ele>11.833333333333334</ele><time>2026-04-06T06:29:11Z</time></trkpt><trkpt lat="44.400091020874406" lon="8.94654945386197"><ele>12.0</ele><time>2026-04-06T06:29:12Z</time></trkpt><trkpt lat="44.400023255709364" lon="8.946522745796866"><ele>12.0</ele><time>2026-04-06T06:29:14Z</time></trkpt><trkpt lat="44.40007771307766" lon="8.946321236781511"><ele>12.0</ele><time>2026-04-06T06:29:16Z</time></trkpt><trkpt lat="44.400104960853476" lon="8.946198353054651"><ele>12.0</ele><time>2026-04-06T06:29:17Z</time></trkpt><trkpt lat="44.400136969381784" lon="8.946070452183903"><ele>12.0</ele><time>2026-04-06T06:29:18Z</time></trkpt><trkpt lat="44.40017628642169" lon="8.945946336436455"><ele>12.0</ele><time>2026-04-06T06:29:19Z</time></trkpt><trkpt lat="44.400202410328376" lon="8.945830583770991"><ele>11.833333333333334</ele><time>2026-04-06T06:29:20Z</time></trkpt><trkpt lat="44.40023100157262" lon="8.945740439136486"><ele>11.666666666666666</ele><time>2026-04-06T06:29:21Z</time></trkpt><trkpt lat="44.400264193752115" lon="8.94559732289748"><ele>11.5</ele><time>2026-04-06T06:29:23Z</time></trkpt><trkpt lat="44.40025269989232" lon="8.945505842740841"><ele>11.333333333333332</ele><time>2026-04-06T06:29:24Z</time></trkpt><trkpt lat="44.40024724158217" lon="8.945405146042225"><ele>11.166666666666666</ele><time>2026-04-06T06:29:25Z</time></trkpt><trkpt lat="44.40027031098203" lon="8.945262246173547"><ele>11.0</ele><time>2026-04-06T06:29:27Z</time></trkpt><trkpt lat="44.40025385744855" lon="8.945176004844008"><ele>11.0</ele><time>2026-04-06T06:29:28.999Z</time></trkpt><trkpt lat="44.40011148176037" lon="8.945069006659637"><ele>11.0</ele><time>2026-04-06T06:29:30.999Z</time></trkpt><trkpt lat="44.4000242786659" lon="8.945037417603768"><ele>11.0</ele><time>2026-04-06T06:29:31.999Z</time></trkpt><trkpt lat="44.399940408646884" lon="8.945007125875897"><ele>11.0</ele><time>2026-04-06T06:29:32.999Z</time></trkpt><trkpt lat="44.399858085741094" lon="8.944964345085753"><ele>11.0</ele><time>2026-04-06T06:29:33.999Z</time></trkpt><trkpt lat="44.399778101263536" lon="8.94492564416472"><ele>10.833333333333332</ele><time>2026-04-06T06:29:34.999Z</time></trkpt><trkpt lat="44.399693618722765" lon="8.944891510000998"><ele>10.666666666666666</ele><time>2026-04-06T06:29:35.999Z</time></trkpt><trkpt lat="44.399603615211014" lon="8.944853064674104"><ele>10.5</ele><time>2026-04-06T06:29:36.999Z</time></trkpt><trkpt lat="44.39952629852129" lon="8.944816007906464"><ele>10.333333333333334</ele><time>2026-04-06T06:29:37.999Z</time></trkpt><trkpt lat="44.3994643416858" lon="8.944781930506627"><ele>10.166666666666668</ele><time>2026-04-06T06:29:38.999Z</time></trkpt><trkpt lat="44.39936906789792" lon="8.944739032023229"><ele>10.0</ele><time>2026-04-06T06:29:41Z</time></trkpt><trkpt lat="44.3992772620834" lon="8.944698345672824"><ele>10.4</ele><time>2026-04-06T06:30:00Z</time></trkpt><trkpt lat="44.39920246187664" lon="8.944664300799486"><ele>10.8</ele><time>2026-04-06T06:30:01Z</time></trkpt><trkpt lat="44.39910804748116" lon="8.94462014040812"><ele>11.2</ele><time>2026-04-06T06:30:02Z</time></trkpt><trkpt lat="44.399002357249515" lon="8.9445737517458"><ele>11.6</ele><time>2026-04-06T06:30:03Z</time></trkpt><trkpt lat="44.39890817501833" lon="8.944534203062394"><ele>12.0</ele><time>2026-04-06T06:30:04Z</time></trkpt><trkpt lat="44.39880312582437" lon="8.944490068357913"><ele>12.5</ele><time>2026-04-06T06:30:05Z</time></trkpt><trkpt lat="44.39868380745713" lon="8.944436490314622"><ele>13.0</ele><time>2026-04-06T06:30:06Z</time></trkpt><trkpt lat="44.39856125019985" lon="8.944379022129299"><ele>13.5</ele><time>2026-04-06T06:30:07Z</time></trkpt><trkpt lat="44.39843647026109" lon="8.94431828957357"><ele>14.0</ele><time>2026-04-06T06:30:08Z</time></trkpt><trkpt lat="44.39831821674513" lon="8.944263178527867"><ele>13.75</ele><time>2026-04-06T06:30:09Z</time></trkpt><trkpt lat="44.3982016785057" lon="8.944203005457494"><ele>13.5</ele><time>2026-04-06T06:30:10Z</time></trkpt><trkpt lat="44.39808795462934" lon="8.94414836066548"><ele>13.25</ele><time>2026-04-06T06:30:11Z</time></trkpt><trkpt lat="44.39797603741768" lon="8.944094535637749"><ele>13.0</ele><time>2026-04-06T06:30:12Z</time></trkpt><trkpt lat="44.3978679474808" lon="8.94404281812361"><ele>12.8</ele><time>2026-04-06T06:30:13Z</time></trkpt><trkpt lat="44.3977604070365" lon="8.94399888351522"><ele>12.600000000000001</ele><time>2026-04-06T06:30:14Z</time></trkpt><trkpt lat="44.39765207957878" lon="8.94394920226471"><ele>12.399999999999999</ele><time>2026-04-06T06:30:15Z</time></trkpt><trkpt lat="44.39755051299419" lon="8.943902509954267"><ele>12.2</ele><time>2026-04-06T06:30:16Z</time></trkpt><trkpt lat="44.39745035464392" lon="8.943858567803474"><ele>12.0</ele><time>2026-04-06T06:30:17Z</time></trkpt><trkpt lat="44.39734831897565" lon="8.943819500406528"><ele>12.0</ele><time>2026-04-06T06:30:18Z</time></trkpt><trkpt lat="44.397235777565065" lon="8.943774903676262"><ele>12.0</ele><time>2026-04-06T06:30:19Z</time></trkpt><trkpt lat="44.39712531982775" lon="8.943731667119163"><ele>12.0</ele><time>2026-04-06T06:30:20Z</time></trkpt><trkpt lat="44.39702118747293" lon="8.94369022739318"><ele>12.0</ele><time>2026-04-06T06:30:21Z</time></trkpt><trkpt lat="44.39691863900808" lon="8.943645852173567"><ele>12.0</ele><time>2026-04-06T06:30:22Z</time></trkpt><trkpt lat="44.396819015872616" lon="8.943599636169656"><ele>11.333333333333334</ele><time>2026-04-06T06:30:23Z</time></trkpt><trkpt lat="44.396729485082574" lon="8.943559026546433"><ele>10.666666666666666</ele><time>2026-04-06T06:30:24Z</time></trkpt><trkpt lat="44.396654293257434" lon="8.943516128805728"><ele>10.0</ele><time>2026-04-06T06:30:25Z</time></trkpt><trkpt lat="44.396590437357816" lon="8.943455686937112"><ele>9.333333333333332</ele><time>2026-04-06T06:30:26Z</time></trkpt><trkpt lat="44.39653919990502" lon="8.94335500971685"><ele>8.666666666666666</ele><time>2026-04-06T06:30:27Z</time></trkpt><trkpt lat="44.396502347137215" lon="8.943230255006306"><ele>8.0</ele><time>2026-04-06T06:30:28Z</time></trkpt><trkpt lat="44.39649565575443" lon="8.943087570847561"><ele>8.0</ele><time>2026-04-06T06:30:29Z</time></trkpt><trkpt lat="44.39651421840102" lon="8.942938304218172"><ele>8.0</ele><time>2026-04-06T06:30:30Z</time></trkpt><trkpt lat="44.39656129565044" lon="8.942765469698733"><ele>8.0</ele><time>2026-04-06T06:30:31Z</time></trkpt><trkpt lat="44.39659461457531" lon="8.942589940835672"><ele>8.0</ele><time>2026-04-06T06:30:32Z</time></trkpt><trkpt lat="44.3966138793998" lon="8.942426021855155"><ele>8.5</ele><time>2026-04-06T06:30:33Z</time></trkpt><trkpt lat="44.39662995779237" lon="8.942267841187203"><ele>9.0</ele><time>2026-04-06T06:30:34Z</time></trkpt><trkpt lat="44.39664928327798" lon="8.94211616085872"><ele>9.5</ele><time>2026-04-06T06:30:35Z</time></trkpt><trkpt lat="44.396666402112494" lon="8.941961712080886"><ele>10.0</ele><time>2026-04-06T06:30:36Z</time></trkpt><trkpt lat="44.39668659924978" lon="8.941796905154495"><ele>11.5</ele><time>2026-04-06T06:30:37Z</time></trkpt><trkpt lat="44.396710719386476" lon="8.941627938927416"><ele>13.0</ele><time>2026-04-06T06:30:38Z</time></trkpt><trkpt lat="44.396754378262145" lon="8.941468477975066"><ele>14.5</ele><time>2026-04-06T06:30:39Z</time></trkpt><trkpt lat="44.396783714933015" lon="8.941297396259117"><ele>16.0</ele><time>2026-04-06T06:30:40Z</time></trkpt><trkpt lat="44.39682821863773" lon="8.941146913408073"><ele>16.0</ele><time>2026-04-06T06:30:41Z</time></trkpt><trkpt lat="44.39685293030406" lon="8.94100655328133"><ele>16.0</ele><time>2026-04-06T06:30:42Z</time></trkpt><trkpt lat="44.39688164821953" lon="8.94085521541937"><ele>16.0</ele><time>2026-04-06T06:30:43Z</time></trkpt><trkpt lat="44.39691650283615" lon="8.94070692517239"><ele>16.0</ele><time>2026-04-06T06:30:44Z</time></trkpt><trkpt lat="44.396956510404976" lon="8.940548411497735"><ele>16.0</ele><time>2026-04-06T06:30:45Z</time></trkpt><trkpt lat="44.397011497781854" lon="8.940401130454065"><ele>15.600000000000001</ele><time>2026-04-06T06:30:46Z</time></trkpt><trkpt lat="44.39706774786645" lon="8.940262710080855"><ele>15.200000000000001</ele><time>2026-04-06T06:30:47Z</time></trkpt><trkpt lat="44.397130157110546" lon="8.940133930929719"><ele>14.799999999999999</ele><time>2026-04-06T06:30:48Z</time></trkpt><trkpt lat="44.39719455891588" lon="8.940006518853428"><ele>14.399999999999999</ele><time>2026-04-06T06:30:49Z</time></trkpt><trkpt lat="44.39726086810923" lon="8.939891234426682"><ele>14.0</ele><time>2026-04-06T06:30:50Z</time></trkpt><trkpt lat="44.39732873918944" lon="8.93977134816171"><ele>14.25</ele><time>2026-04-06T06:30:51Z</time></trkpt><trkpt lat="44.39739481009543" lon="8.939644824349996"><ele>14.5</ele><time>2026-04-06T06:30:52Z</time></trkpt><trkpt lat="44.39744606698162" lon="8.939501220097336"><ele>14.75</ele><time>2026-04-06T06:30:53Z</time></trkpt><trkpt lat="44.39749454704074" lon="8.939351993391625"><ele>15.0</ele><time>2026-04-06T06:30:54Z</time></trkpt><trkpt lat="44.397539803562765" lon="8.93919800691864"><ele>15.0</ele><time>2026-04-06T06:30:55Z</time></trkpt><trkpt lat="44.39758067223311" lon="8.93904477752432"><ele>15.0</ele><time>2026-04-06T06:30:56Z</time></trkpt><trkpt lat="44.39761425264361" lon="8.938883987529602"><ele>15.0</ele><time>2026-04-06T06:30:57Z</time></trkpt><trkpt lat="44.397649280901526" lon="8.938719925409645"><ele>15.0</ele><time>2026-04-06T06:30:58Z</time></trkpt><trkpt lat="44.39766903511258" lon="8.938551961846523"><ele>15.0</ele><time>2026-04-06T06:30:59Z</time></trkpt><trkpt lat="44.39769205267127" lon="8.938390864119365"><ele>15.0</ele><time>2026-04-06T06:31:00Z</time></trkpt><trkpt lat="44.39771259238663" lon="8.938224261127386"><ele>15.0</ele><time>2026-04-06T06:31:01Z</time></trkpt><trkpt lat="44.397731507405815" lon="8.938061912752087"><ele>15.0</ele><time>2026-04-06T06:31:02Z</time></trkpt><trkpt lat="44.39775361935732" lon="8.937887163460832"><ele>15.0</ele><time>2026-04-06T06:31:03Z</time></trkpt><trkpt lat="44.39777502043804" lon="8.937719738466889"><ele>15.0</ele><time>2026-04-06T06:31:04Z</time></trkpt><trkpt lat="44.397796986417084" lon="8.937553622813407"><ele>15.0</ele><time>2026-04-06T06:31:05Z</time></trkpt><trkpt lat="44.39781511171006" lon="8.937389023895731"><ele>15.0</ele><time>2026-04-06T06:31:06Z</time></trkpt><trkpt lat="44.39783396260613" lon="8.937217038484642"><ele>15.5</ele><time>2026-04-06T06:31:07Z</time></trkpt><trkpt lat="44.39785399216455" lon="8.937064285163828"><ele>16.0</ele><time>2026-04-06T06:31:08Z</time></trkpt><trkpt lat="44.39787105763352" lon="8.936913645521152"><ele>16.5</ele><time>2026-04-06T06:31:09Z</time></trkpt><trkpt lat="44.397888108982826" lon="8.936752468794152"><ele>17.0</ele><time>2026-04-06T06:31:10Z</time></trkpt><trkpt lat="44.397910483739736" lon="8.936591789354612"><ele>15.25</ele><time>2026-04-06T06:31:11Z</time></trkpt><trkpt lat="44.39793320427773" lon="8.936428549482741"><ele>13.5</ele><time>2026-04-06T06:31:12Z</time></trkpt><trkpt lat="44.39796863077514" lon="8.936268037206418"><ele>11.75</ele><time>2026-04-06T06:31:13Z</time></trkpt><trkpt lat="44.39799987336329" lon="8.936096541373564"><ele>10.0</ele><time>2026-04-06T06:31:14Z</time></trkpt><trkpt lat="44.39803631240909" lon="8.93592883034074"><ele>12.75</ele><time>2026-04-06T06:31:15Z</time></trkpt><trkpt lat="44.39807435790741" lon="8.935758862513168"><ele>15.5</ele><time>2026-04-06T06:31:16Z</time></trkpt><trkpt lat="44.39812134218319" lon="8.935596661088454"><ele>18.25</ele><time>2026-04-06T06:31:17Z</time></trkpt><trkpt lat="44.39816913286164" lon="8.935437911993352"><ele>21.0</ele><time>2026-04-06T06:31:18Z</time></trkpt><trkpt lat="44.39821972045073" lon="8.93527941790486"><ele>21.0</ele><time>2026-04-06T06:31:19Z</time></trkpt><trkpt lat="44.398276716111134" lon="8.935130120832333"><ele>21.0</ele><time>2026-04-06T06:31:20Z</time></trkpt><trkpt lat="44.398336370530295" lon="8.934978043102085"><ele>21.0</ele><time>2026-04-06T06:31:21Z</time></trkpt><trkpt lat="44.39839806903154" lon="8.934831994117676"><ele>21.0</ele><time>2026-04-06T06:31:22Z</time></trkpt><trkpt lat="44.39846475255131" lon="8.934685225237502"><ele>17.5</ele><time>2026-04-06T06:31:23Z</time></trkpt><trkpt lat="44.39853289072061" lon="8.934542270627107"><ele>14.0</ele><time>2026-04-06T06:31:24Z</time></trkpt><trkpt lat="44.39860462817696" lon="8.934401567782444"><ele>10.5</ele><time>2026-04-06T06:31:25Z</time></trkpt><trkpt lat="44.39867457074427" lon="8.9342626883042"><ele>7.0</ele><time>2026-04-06T06:31:26Z</time></trkpt><trkpt lat="44.39874597575187" lon="8.934128283022236"><ele>6.25</ele><time>2026-04-06T06:31:27Z</time></trkpt><trkpt lat="44.39881517538656" lon="8.933991446072357"><ele>5.5</ele><time>2026-04-06T06:31:28Z</time></trkpt><trkpt lat="44.398893856006765" lon="8.933860070204195"><ele>4.75</ele><time>2026-04-06T06:31:29Z</time></trkpt><trkpt lat="44.39898636402898" lon="8.933741140983527"><ele>4.0</ele><time>2026-04-06T06:31:30Z</time></trkpt><trkpt lat="44.39908635924977" lon="8.933628971496402"><ele>5.0</ele><time>2026-04-06T06:31:31Z</time></trkpt><trkpt lat="44.39918425024755" lon="8.933525721172977"><ele>6.0</ele><time>2026-04-06T06:31:32Z</time></trkpt><trkpt lat="44.399289952157424" lon="8.933428719715767"><ele>7.0</ele><time>2026-04-06T06:31:33Z</time></trkpt><trkpt lat="44.39939655558109" lon="8.933337719249813"><ele>8.0</ele><time>2026-04-06T06:31:34Z</time></trkpt><trkpt lat="44.399505346777445" lon="8.933251890149611"><ele>8.0</ele><time>2026-04-06T06:31:35Z</time></trkpt><trkpt lat="44.39961730808885" lon="8.933168734612924"><ele>8.0</ele><time>2026-04-06T06:31:36Z</time></trkpt><trkpt lat="44.39972845508721" lon="8.933082659791975"><ele>8.0</ele><time>2026-04-06T06:31:37Z</time></trkpt><trkpt lat="44.3998411996185" lon="8.932999179375315"><ele>8.0</ele><time>2026-04-06T06:31:38Z</time></trkpt><trkpt lat="44.39994906261466" lon="8.9329153041205"><ele>7.5</ele><time>2026-04-06T06:31:39Z</time></trkpt><trkpt lat="44.40005282538287" lon="8.932828034479742"><ele>7.0</ele><time>2026-04-06T06:31:40Z</time></trkpt><trkpt lat="44.40014690554261" lon="8.93273313650835"><ele>6.5</ele><time>2026-04-06T06:31:41Z</time></trkpt><trkpt lat="44.40023388324175" lon="8.932634358059733"><ele>6.0</ele><time>2026-04-06T06:31:42Z</time></trkpt><trkpt lat="44.40032243404289" lon="8.932529709360859"><ele>6.0</ele><time>2026-04-06T06:31:43Z</time></trkpt><trkpt lat="44.4004131838522" lon="8.932428152314763"><ele>6.0</ele><time>2026-04-06T06:31:44Z</time></trkpt><trkpt lat="44.40050185514058" lon="8.932325829040495"><ele>6.0</ele><time>2026-04-06T06:31:45Z</time></trkpt><trkpt lat="44.40059431734332" lon="8.932227519605261"><ele>6.0</ele><time>2026-04-06T06:31:46Z</time></trkpt><trkpt lat="44.4006869208512" lon="8.932133117996951"><ele>12.0</ele><time>2026-04-06T06:31:47Z</time></trkpt><trkpt lat="44.40078505053259" lon="8.932045335978538"><ele>18.0</ele><time>2026-04-06T06:31:48Z</time></trkpt><trkpt lat="44.400891284114806" lon="8.931961779054262"><ele>24.0</ele><time>2026-04-06T06:31:49Z</time></trkpt><trkpt lat="44.401001354733715" lon="8.931891452155138"><ele>30.0</ele><time>2026-04-06T06:31:50Z</time></trkpt><trkpt lat="44.40111085200574" lon="8.931825849989544"><ele>30.0</ele><time>2026-04-06T06:31:51Z</time></trkpt><trkpt lat="44.40121251956527" lon="8.931761468034724"><ele>30.0</ele><time>2026-04-06T06:31:52Z</time></trkpt><trkpt lat="44.40131476276152" lon="8.9317067682826"><ele>30.0</ele><time>2026-04-06T06:31:53Z</time></trkpt><trkpt lat="44.40141875770284" lon="8.931636289612394"><ele>30.0</ele><time>2026-04-06T06:31:54Z</time></trkpt><trkpt lat="44.40152425152044" lon="8.931567276936384"><ele>27.75</ele><time>2026-04-06T06:31:55Z</time></trkpt><trkpt lat="44.401632484930786" lon="8.93149872547015"><ele>25.5</ele><time>2026-04-06T06:31:56Z</time></trkpt><trkpt lat="44.40173920977759" lon="8.93143074766824"><ele>23.25</ele><time>2026-04-06T06:31:57Z</time></trkpt><trkpt lat="44.40184938450909" lon="8.931359349973524"><ele>21.0</ele><time>2026-04-06T06:31:58Z</time></trkpt><trkpt lat="44.401959859041476" lon="8.931287826383839"><ele>21.0</ele><time>2026-04-06T06:31:59Z</time></trkpt><trkpt lat="44.40207010275977" lon="8.93121410091018"><ele>21.0</ele><time>2026-04-06T06:32:00Z</time></trkpt><trkpt lat="44.402183889361304" lon="8.931139131470765"><ele>21.0</ele><time>2026-04-06T06:32:01Z</time></trkpt><trkpt lat="44.40229969645702" lon="8.93106205514497"><ele>21.0</ele><time>2026-04-06T06:32:02Z</time></trkpt><trkpt lat="44.40241126473095" lon="8.930983336335457"><ele>19.25</ele><time>2026-04-06T06:32:03Z</time></trkpt><trkpt lat="44.4025199276415" lon="8.9308955651593"><ele>17.5</ele><time>2026-04-06T06:32:04Z</time></trkpt><trkpt lat="44.402624315562534" lon="8.930799318837542"><ele>15.75</ele><time>2026-04-06T06:32:05Z</time></trkpt><trkpt lat="44.40272616759476" lon="8.930697819912266"><ele>14.0</ele><time>2026-04-06T06:32:06Z</time></trkpt><trkpt lat="44.402827579085454" lon="8.930597226472385"><ele>12.75</ele><time>2026-04-06T06:32:07Z</time></trkpt><trkpt lat="44.402925582255484" lon="8.930493286024163"><ele>11.5</ele><time>2026-04-06T06:32:08Z</time></trkpt><trkpt lat="44.403023650180536" lon="8.930391466527082"><ele>10.25</ele><time>2026-04-06T06:32:09Z</time></trkpt><trkpt lat="44.403124076281415" lon="8.930288884273375"><ele>9.0</ele><time>2026-04-06T06:32:10Z</time></trkpt><trkpt lat="44.40322814934905" lon="8.930189832329676"><ele>9.0</ele><time>2026-04-06T06:32:11Z</time></trkpt><trkpt lat="44.40333256281444" lon="8.930092436581933"><ele>9.0</ele><time>2026-04-06T06:32:12Z</time></trkpt><trkpt lat="44.4034444157608" lon="8.929995534287729"><ele>9.0</ele><time>2026-04-06T06:32:13Z</time></trkpt><trkpt lat="44.40355399305419" lon="8.92990069246223"><ele>9.0</ele><time>2026-04-06T06:32:14Z</time></trkpt><trkpt lat="44.40366052531496" lon="8.929808257484247"><ele>9.25</ele><time>2026-04-06T06:32:15Z</time></trkpt><trkpt lat="44.40376095722553" lon="8.929708895973818"><ele>9.5</ele><time>2026-04-06T06:32:16Z</time></trkpt><trkpt lat="44.40386034120991" lon="8.92960302652771"><ele>9.75</ele><time>2026-04-06T06:32:17Z</time></trkpt><trkpt lat="44.4039574049022" lon="8.929495747437421"><ele>10.0</ele><time>2026-04-06T06:32:18Z</time></trkpt><trkpt lat="44.40405215496232" lon="8.929390676506195"><ele>10.5</ele><time>2026-04-06T06:32:19Z</time></trkpt><trkpt lat="44.40414631583924" lon="8.929283682242241"><ele>11.0</ele><time>2026-04-06T06:32:20Z</time></trkpt><trkpt lat="44.40424026845311" lon="8.929179195447434"><ele>11.5</ele><time>2026-04-06T06:32:21Z</time></trkpt><trkpt lat="44.40433968682446" lon="8.929076774419821"><ele>12.0</ele><time>2026-04-06T06:32:22Z</time></trkpt><trkpt lat="44.40443240351702" lon="8.928972805452378"><ele>12.0</ele><time>2026-04-06T06:32:23Z</time></trkpt><trkpt lat="44.40452401424537" lon="8.928866655211909"><ele>12.0</ele><time>2026-04-06T06:32:24Z</time></trkpt><trkpt lat="44.40462255907059" lon="8.928762130883921"><ele>12.0</ele><time>2026-04-06T06:32:25Z</time></trkpt><trkpt lat="44.4047170740343" lon="8.928661429187821"><ele>12.0</ele><time>2026-04-06T06:32:26Z</time></trkpt><trkpt lat="44.40481398584327" lon="8.928557158381103"><ele>12.0</ele><time>2026-04-06T06:32:27Z</time></trkpt><trkpt lat="44.404909184012425" lon="8.928452442907394"><ele>12.0</ele><time>2026-04-06T06:32:28Z</time></trkpt><trkpt lat="44.40500360787468" lon="8.92835157053805"><ele>12.0</ele><time>2026-04-06T06:32:29Z</time></trkpt><trkpt lat="44.40510131226374" lon="8.928246597676551"><ele>12.0</ele><time>2026-04-06T06:32:30Z</time></trkpt><trkpt lat="44.40519920430147" lon="8.92814312772403"><ele>12.0</ele><time>2026-04-06T06:32:31Z</time></trkpt><trkpt lat="44.4053065661965" lon="8.928042948462197"><ele>12.0</ele><time>2026-04-06T06:32:32Z</time></trkpt><trkpt lat="44.40541411329579" lon="8.927960976061643"><ele>12.0</ele><time>2026-04-06T06:32:33Z</time></trkpt><trkpt lat="44.405523849574" lon="8.92788328658796"><ele>12.0</ele><time>2026-04-06T06:32:34Z</time></trkpt><trkpt lat="44.40563649097646" lon="8.92781500931072"><ele>14.5</ele><time>2026-04-06T06:32:35Z</time></trkpt><trkpt lat="44.40575023689682" lon="8.927757510937342"><ele>17.0</ele><time>2026-04-06T06:32:36Z</time></trkpt><trkpt lat="44.40586440027246" lon="8.927705703325852"><ele>19.5</ele><time>2026-04-06T06:32:37Z</time></trkpt><trkpt lat="44.40598447858418" lon="8.927666149150964"><ele>22.0</ele><time>2026-04-06T06:32:38Z</time></trkpt><trkpt lat="44.406101859895976" lon="8.927630624623218"><ele>22.0</ele><time>2026-04-06T06:32:39Z</time></trkpt><trkpt lat="44.40621932044193" lon="8.927605110596025"><ele>22.0</ele><time>2026-04-06T06:32:40Z</time></trkpt><trkpt lat="44.40634137569368" lon="8.927591788445318"><ele>22.0</ele><time>2026-04-06T06:32:41Z</time></trkpt><trkpt lat="44.40646271548854" lon="8.927582775934479"><ele>22.0</ele><time>2026-04-06T06:32:42Z</time></trkpt><trkpt lat="44.40658162140399" lon="8.927582722773131"><ele>21.25</ele><time>2026-04-06T06:32:43Z</time></trkpt><trkpt lat="44.40670088379898" lon="8.927596275813361"><ele>20.5</ele><time>2026-04-06T06:32:44Z</time></trkpt><trkpt lat="44.40681919522189" lon="8.927618565595589"><ele>19.75</ele><time>2026-04-06T06:32:45Z</time></trkpt><trkpt lat="44.406936215653" lon="8.927647492376764"><ele>19.0</ele><time>2026-04-06T06:32:46Z</time></trkpt><trkpt lat="44.407055775609464" lon="8.927679635617881"><ele>17.0</ele><time>2026-04-06T06:32:47Z</time></trkpt><trkpt lat="44.40717384262722" lon="8.927726828086904"><ele>15.0</ele><time>2026-04-06T06:32:48Z</time></trkpt><trkpt lat="44.407287167016186" lon="8.927783477115524"><ele>13.0</ele><time>2026-04-06T06:32:49Z</time></trkpt><trkpt lat="44.407405008794534" lon="8.927839142210413"><ele>11.0</ele><time>2026-04-06T06:32:50Z</time></trkpt><trkpt lat="44.407523787173744" lon="8.927898573223526"><ele>11.0</ele><time>2026-04-06T06:32:51Z</time></trkpt><trkpt lat="44.407641711922146" lon="8.927955330290313"><ele>11.0</ele><time>2026-04-06T06:32:52Z</time></trkpt><trkpt lat="44.40775639059161" lon="8.92801367662592"><ele>11.0</ele><time>2026-04-06T06:32:53Z</time></trkpt><trkpt lat="44.40787309402123" lon="8.928069005234075"><ele>11.0</ele><time>2026-04-06T06:32:54Z</time></trkpt><trkpt lat="44.40799069730344" lon="8.928122752346608"><ele>10.25</ele><time>2026-04-06T06:32:55Z</time></trkpt><trkpt lat="44.4081111753193" lon="8.928166147191089"><ele>9.5</ele><time>2026-04-06T06:32:56Z</time></trkpt><trkpt lat="44.40823222560472" lon="8.928203154343603"><ele>8.75</ele><time>2026-04-06T06:32:57Z</time></trkpt><trkpt lat="44.408355145193546" lon="8.928217581268077"><ele>8.0</ele><time>2026-04-06T06:32:58Z</time></trkpt><trkpt lat="44.40847615534204" lon="8.92821977463766"><ele>8.0</ele><time>2026-04-06T06:32:59Z</time></trkpt><trkpt lat="44.40860531379339" lon="8.928214687604498"><ele>8.0</ele><time>2026-04-06T06:33:00Z</time></trkpt><trkpt lat="44.40872733733804" lon="8.928214532530207"><ele>8.0</ele><time>2026-04-06T06:33:01Z</time></trkpt><trkpt lat="44.40885118248593" lon="8.928219131429902"><ele>8.0</ele><time>2026-04-06T06:33:02Z</time></trkpt><trkpt lat="44.4089807172301" lon="8.928221473769126"><ele>7.75</ele><time>2026-04-06T06:33:03Z</time></trkpt><trkpt lat="44.40909915784633" lon="8.928227916150533"><ele>7.5</ele><time>2026-04-06T06:33:04Z</time></trkpt><trkpt lat="44.40922283455555" lon="8.928233345370357"><ele>7.25</ele><time>2026-04-06T06:33:05Z</time></trkpt><trkpt lat="44.40934449983225" lon="8.928242304011762"><ele>7.0</ele><time>2026-04-06T06:33:06Z</time></trkpt><trkpt lat="44.40947059955207" lon="8.928242772327108"><ele>7.0</ele><time>2026-04-06T06:33:07Z</time></trkpt><trkpt lat="44.409598242731704" lon="8.928243132231524"><ele>7.0</ele><time>2026-04-06T06:33:08Z</time></trkpt><trkpt lat="44.40972189752166" lon="8.928246947046784"><ele>7.0</ele><time>2026-04-06T06:33:09Z</time></trkpt><trkpt lat="44.40984548141666" lon="8.928252748590634"><ele>7.0</ele><time>2026-04-06T06:33:10Z</time></trkpt><trkpt lat="44.40996757345558" lon="8.928261489641248"><ele>6.25</ele><time>2026-04-06T06:33:11Z</time></trkpt><trkpt lat="44.41009141584327" lon="8.928262086376096"><ele>5.5</ele><time>2026-04-06T06:33:12Z</time></trkpt><trkpt lat="44.410216772817485" lon="8.928263476275722"><ele>4.75</ele><time>2026-04-06T06:33:13Z</time></trkpt><trkpt lat="44.410341305385664" lon="8.928269399927645"><ele>4.0</ele><time>2026-04-06T06:33:14Z</time></trkpt><trkpt lat="44.41046905453135" lon="8.928271939658345"><ele>5.25</ele><time>2026-04-06T06:33:15Z</time></trkpt><trkpt lat="44.41059320902901" lon="8.928262135917016"><ele>6.5</ele><time>2026-04-06T06:33:16Z</time></trkpt><trkpt lat="44.41071909804638" lon="8.928237085304074"><ele>7.75</ele><time>2026-04-06T06:33:17Z</time></trkpt><trkpt lat="44.41084597897342" lon="8.928201359046643"><ele>9.0</ele><time>2026-04-06T06:33:18Z</time></trkpt><trkpt lat="44.41097235708129" lon="8.928165086876453"><ele>9.0</ele><time>2026-04-06T06:33:19Z</time></trkpt><trkpt lat="44.411093772128424" lon="8.928119633572658"><ele>9.0</ele><time>2026-04-06T06:33:20Z</time></trkpt><trkpt lat="44.41121562629306" lon="8.928064283781406"><ele>9.0</ele><time>2026-04-06T06:33:21Z</time></trkpt><trkpt lat="44.41133611263002" lon="8.928004838798094"><ele>9.0</ele><time>2026-04-06T06:33:22Z</time></trkpt><trkpt lat="44.41145395620493" lon="8.927933046875719"><ele>11.75</ele><time>2026-04-06T06:33:23Z</time></trkpt><trkpt lat="44.411570817606105" lon="8.927855381007825"><ele>14.5</ele><time>2026-04-06T06:33:24Z</time></trkpt><trkpt lat="44.411682815421926" lon="8.927769409029166"><ele>17.25</ele><time>2026-04-06T06:33:25Z</time></trkpt><trkpt lat="44.411790065895" lon="8.927684100068115"><ele>20.0</ele><time>2026-04-06T06:33:26Z</time></trkpt><trkpt lat="44.411899180829685" lon="8.927599848514669"><ele>19.0</ele><time>2026-04-06T06:33:27Z</time></trkpt><trkpt lat="44.4120076919497" lon="8.927520356747305"><ele>18.0</ele><time>2026-04-06T06:33:28Z</time></trkpt><trkpt lat="44.4121149443435" lon="8.927440477818534"><ele>17.0</ele><time>2026-04-06T06:33:29Z</time></trkpt><trkpt lat="44.41222282569967" lon="8.92735557557076"><ele>16.0</ele><time>2026-04-06T06:33:30Z</time></trkpt><trkpt lat="44.41232969506892" lon="8.927267579978176"><ele>16.0</ele><time>2026-04-06T06:33:31Z</time></trkpt><trkpt lat="44.41243892528949" lon="8.92717596311182"><ele>16.0</ele><time>2026-04-06T06:33:32Z</time></trkpt><trkpt lat="44.41254592900592" lon="8.927082891411441"><ele>16.0</ele><time>2026-04-06T06:33:33Z</time></trkpt><trkpt lat="44.41264982712882" lon="8.926982322754867"><ele>16.0</ele><time>2026-04-06T06:33:34Z</time></trkpt><trkpt lat="44.4127502467117" lon="8.926872935657679"><ele>16.0</ele><time>2026-04-06T06:33:35Z</time></trkpt><trkpt lat="44.412847260805684" lon="8.926760432150393"><ele>16.0</ele><time>2026-04-06T06:33:36Z</time></trkpt><trkpt lat="44.4129414513987" lon="8.92663882212351"><ele>16.0</ele><time>2026-04-06T06:33:37Z</time></trkpt><trkpt lat="44.41303400854916" lon="8.926516015482537"><ele>16.0</ele><time>2026-04-06T06:33:38Z</time></trkpt><trkpt lat="44.41312193992424" lon="8.926392904101922"><ele>15.25</ele><time>2026-04-06T06:33:39Z</time></trkpt><trkpt lat="44.41320822014211" lon="8.9262636163798"><ele>14.5</ele><time>2026-04-06T06:33:40Z</time></trkpt><trkpt lat="44.41329022925213" lon="8.926131107429164"><ele>13.75</ele><time>2026-04-06T06:33:41Z</time></trkpt><trkpt lat="44.413373865971494" lon="8.925996971133138"><ele>13.0</ele><time>2026-04-06T06:33:42Z</time></trkpt><trkpt lat="44.413453595426446" lon="8.925864155891002"><ele>11.25</ele><time>2026-04-06T06:33:43Z</time></trkpt><trkpt lat="44.4135366331736" lon="8.925729429387344"><ele>9.5</ele><time>2026-04-06T06:33:44Z</time></trkpt><trkpt lat="44.413619597860034" lon="8.925597616125021"><ele>7.75</ele><time>2026-04-06T06:33:45Z</time></trkpt><trkpt lat="44.413703353651734" lon="8.925467354161196"><ele>6.0</ele><time>2026-04-06T06:33:46Z</time></trkpt><trkpt lat="44.413783974782135" lon="8.925336324572928"><ele>6.5</ele><time>2026-04-06T06:33:47Z</time></trkpt><trkpt lat="44.41386475286766" lon="8.92520596958507"><ele>7.0</ele><time>2026-04-06T06:33:48Z</time></trkpt><trkpt lat="44.41394728184495" lon="8.925073877612267"><ele>7.5</ele><time>2026-04-06T06:33:49Z</time></trkpt><trkpt lat="44.414029824179174" lon="8.924940665010803"><ele>8.0</ele><time>2026-04-06T06:33:50Z</time></trkpt><trkpt lat="44.41411184174312" lon="8.924813715679798"><ele>8.0</ele><time>2026-04-06T06:33:51Z</time></trkpt><trkpt lat="44.41419213272347" lon="8.924680835490971"><ele>8.0</ele><time>2026-04-06T06:33:52Z</time></trkpt><trkpt lat="44.414272313633184" lon="8.924550951149326"><ele>8.0</ele><time>2026-04-06T06:33:52.999Z</time></trkpt><trkpt lat="44.41435086456537" lon="8.924425356074602"><ele>8.0</ele><time>2026-04-06T06:33:53.999Z</time></trkpt><trkpt lat="44.41443300522695" lon="8.92429699680692"><ele>7.25</ele><time>2026-04-06T06:33:54.999Z</time></trkpt><trkpt lat="44.414511842489354" lon="8.924164174953717"><ele>6.5</ele><time>2026-04-06T06:33:55.999Z</time></trkpt><trkpt lat="44.41459361013231" lon="8.9240318304429"><ele>5.75</ele><time>2026-04-06T06:33:56.999Z</time></trkpt><trkpt lat="44.4146768479307" lon="8.923895133273112"><ele>5.0</ele><time>2026-04-06T06:33:58Z</time></trkpt><trkpt lat="44.414753269962006" lon="8.923752593357944"><ele>6.25</ele><time>2026-04-06T06:33:59Z</time></trkpt><trkpt lat="44.41482480580552" lon="8.923604956300274"><ele>7.5</ele><time>2026-04-06T06:34:00Z</time></trkpt><trkpt lat="44.41489102989921" lon="8.923457044292592"><ele>8.75</ele><time>2026-04-06T06:34:01Z</time></trkpt><trkpt lat="44.41495650276219" lon="8.923305453155884"><ele>10.0</ele><time>2026-04-06T06:34:02Z</time></trkpt><trkpt lat="44.4150187084918" lon="8.923146641787131"><ele>10.0</ele><time>2026-04-06T06:34:03Z</time></trkpt><trkpt lat="44.415077082433776" lon="8.922988397168327"><ele>10.0</ele><time>2026-04-06T06:34:04Z</time></trkpt><trkpt lat="44.41513085668994" lon="8.92282712881932"><ele>10.0</ele><time>2026-04-06T06:34:05Z</time></trkpt><trkpt lat="44.41518308385331" lon="8.922662813631398"><ele>10.0</ele><time>2026-04-06T06:34:06Z</time></trkpt><trkpt lat="44.415226587670055" lon="8.922499310845705"><ele>9.25</ele><time>2026-04-06T06:34:07Z</time></trkpt><trkpt lat="44.41526488159256" lon="8.92232922523554"><ele>8.5</ele><time>2026-04-06T06:34:08Z</time></trkpt><trkpt lat="44.41530562832573" lon="8.922159457923033"><ele>7.75</ele><time>2026-04-06T06:34:09Z</time></trkpt><trkpt lat="44.415341355509824" lon="8.921997387991443"><ele>7.0</ele><time>2026-04-06T06:34:10Z</time></trkpt><trkpt lat="44.415369906747415" lon="8.921832408635769"><ele>7.25</ele><time>2026-04-06T06:34:11Z</time></trkpt><trkpt lat="44.415392308679266" lon="8.92167046767522"><ele>7.5</ele><time>2026-04-06T06:34:12Z</time></trkpt><trkpt lat="44.415420693101865" lon="8.921499976377614"><ele>7.75</ele><time>2026-04-06T06:34:13Z</time></trkpt><trkpt lat="44.41544845726946" lon="8.921333481228777"><ele>8.0</ele><time>2026-04-06T06:34:14Z</time></trkpt><trkpt lat="44.415473423172074" lon="8.921158837546779"><ele>9.75</ele><time>2026-04-06T06:34:15Z</time></trkpt><trkpt lat="44.415495353405355" lon="8.92098834196739"><ele>11.5</ele><time>2026-04-06T06:34:16Z</time></trkpt><trkpt lat="44.415508532396395" lon="8.920811415211201"><ele>13.25</ele><time>2026-04-06T06:34:17Z</time></trkpt><trkpt lat="44.41550447570485" lon="8.920630678425411"><ele>15.0</ele><time>2026-04-06T06:34:18Z</time></trkpt><trkpt lat="44.41548714243966" lon="8.920452169677345"><ele>13.75</ele><time>2026-04-06T06:34:19Z</time></trkpt><trkpt lat="44.41545832192655" lon="8.920278323628168"><ele>12.5</ele><time>2026-04-06T06:34:20Z</time></trkpt><trkpt lat="44.415424012487826" lon="8.920105042195088"><ele>11.25</ele><time>2026-04-06T06:34:21Z</time></trkpt><trkpt lat="44.41538305807303" lon="8.91993557799209"><ele>10.0</ele><time>2026-04-06T06:34:22Z</time></trkpt><trkpt lat="44.41534735945881" lon="8.919769346554197"><ele>9.0</ele><time>2026-04-06T06:34:23Z</time></trkpt><trkpt lat="44.415309150159516" lon="8.919596380933555"><ele>8.0</ele><time>2026-04-06T06:34:24Z</time></trkpt><trkpt lat="44.41527153408361" lon="8.919427411821209"><ele>7.0</ele><time>2026-04-06T06:34:25Z</time></trkpt><trkpt lat="44.41523412427661" lon="8.919255858185524"><ele>6.0</ele><time>2026-04-06T06:34:26Z</time></trkpt><trkpt lat="44.41520009058482" lon="8.919086212910566"><ele>6.0</ele><time>2026-04-06T06:34:27Z</time></trkpt><trkpt lat="44.41516600630585" lon="8.918918951809736"><ele>6.0</ele><time>2026-04-06T06:34:28Z</time></trkpt><trkpt lat="44.41512937042773" lon="8.918753458150666"><ele>6.0</ele><time>2026-04-06T06:34:29Z</time></trkpt><trkpt lat="44.4150987949534" lon="8.918583409469383"><ele>6.0</ele><time>2026-04-06T06:34:30Z</time></trkpt><trkpt lat="44.41506597560795" lon="8.918411916878224"><ele>6.5</ele><time>2026-04-06T06:34:31Z</time></trkpt><trkpt lat="44.41503938622998" lon="8.918239281347146"><ele>7.0</ele><time>2026-04-06T06:34:32Z</time></trkpt><trkpt lat="44.41501756579827" lon="8.918066085420534"><ele>7.5</ele><time>2026-04-06T06:34:33Z</time></trkpt><trkpt lat="44.4149959748957" lon="8.917883370827271"><ele>8.0</ele><time>2026-04-06T06:34:34Z</time></trkpt><trkpt lat="44.414970632868005" lon="8.917708253832645"><ele>7.75</ele><time>2026-04-06T06:34:35Z</time></trkpt><trkpt lat="44.414940659301934" lon="8.917535937110523"><ele>7.5</ele><time>2026-04-06T06:34:36Z</time></trkpt><trkpt lat="44.41490733543139" lon="8.917363942543615"><ele>7.25</ele><time>2026-04-06T06:34:37Z</time></trkpt><trkpt lat="44.414872931145325" lon="8.91719310316487"><ele>7.0</ele><time>2026-04-06T06:34:38Z</time></trkpt><trkpt lat="44.41483517140313" lon="8.917022788823378"><ele>7.0</ele><time>2026-04-06T06:34:39Z</time></trkpt><trkpt lat="44.414798756756475" lon="8.916855245230723"><ele>7.0</ele><time>2026-04-06T06:34:40Z</time></trkpt><trkpt lat="44.414763608970176" lon="8.916691742144318"><ele>7.0</ele><time>2026-04-06T06:34:41Z</time></trkpt><trkpt lat="44.41473220693093" lon="8.916523229724895"><ele>7.0</ele><time>2026-04-06T06:34:42Z</time></trkpt><trkpt lat="44.41470150312937" lon="8.916348224439943"><ele>7.5</ele><time>2026-04-06T06:34:43Z</time></trkpt><trkpt lat="44.414671530073804" lon="8.916175046618784"><ele>8.0</ele><time>2026-04-06T06:34:44Z</time></trkpt><trkpt lat="44.414641044380595" lon="8.916001298809507"><ele>8.5</ele><time>2026-04-06T06:34:45Z</time></trkpt><trkpt lat="44.414615544850435" lon="8.915827725689798"><ele>9.0</ele><time>2026-04-06T06:34:46Z</time></trkpt><trkpt lat="44.41459347896052" lon="8.9156525065075"><ele>7.0</ele><time>2026-04-06T06:34:47Z</time></trkpt><trkpt lat="44.414572911623786" lon="8.915472306787944"><ele>5.0</ele><time>2026-04-06T06:34:48Z</time></trkpt><trkpt lat="44.414553362325385" lon="8.915294994368562"><ele>3.0</ele><time>2026-04-06T06:34:49Z</time></trkpt><trkpt lat="44.41453893846486" lon="8.915112160021714"><ele>1.0</ele><time>2026-04-06T06:34:50Z</time></trkpt><trkpt lat="44.414522816200325" lon="8.914932799133348"><ele>1.0</ele><time>2026-04-06T06:34:51Z</time></trkpt><trkpt lat="44.41450478513095" lon="8.914756540083996"><ele>1.0</ele><time>2026-04-06T06:34:52Z</time></trkpt><trkpt lat="44.41448749713828" lon="8.914576283925237"><ele>1.0</ele><time>2026-04-06T06:34:53Z</time></trkpt><trkpt lat="44.414464885651554" lon="8.914398749459876"><ele>1.0</ele><time>2026-04-06T06:34:54Z</time></trkpt><trkpt lat="44.41443129942062" lon="8.914223973997949"><ele>2.0</ele><time>2026-04-06T06:34:55Z</time></trkpt><trkpt lat="44.41438127024105" lon="8.914049773866587"><ele>3.0</ele><time>2026-04-06T06:34:56Z</time></trkpt><trkpt lat="44.41432556839196" lon="8.913882151127545"><ele>4.0</ele><time>2026-04-06T06:34:57Z</time></trkpt><trkpt lat="44.41427093738962" lon="8.913716758477978"><ele>5.0</ele><time>2026-04-06T06:34:58Z</time></trkpt><trkpt lat="44.41421710514413" lon="8.91356168382755"><ele>5.5</ele><time>2026-04-06T06:34:59Z</time></trkpt><trkpt lat="44.41416565461937" lon="8.913405285484256"><ele>6.0</ele><time>2026-04-06T06:35:00Z</time></trkpt><trkpt lat="44.41411183641371" lon="8.91324884490064"><ele>6.5</ele><time>2026-04-06T06:35:01Z</time></trkpt><trkpt lat="44.414056101219074" lon="8.913094249193456"><ele>7.0</ele><time>2026-04-06T06:35:02Z</time></trkpt><trkpt lat="44.41399708644602" lon="8.912944471398328"><ele>7.0</ele><time>2026-04-06T06:35:03Z</time></trkpt><trkpt lat="44.413933853616456" lon="8.912800959208663"><ele>7.0</ele><time>2026-04-06T06:35:04Z</time></trkpt><trkpt lat="44.41386614125389" lon="8.912657762698206"><ele>7.0</ele><time>2026-04-06T06:35:05Z</time></trkpt><trkpt lat="44.41379927628022" lon="8.912512467240827"><ele>7.0</ele><time>2026-04-06T06:35:06Z</time></trkpt><trkpt lat="44.41373379408382" lon="8.912366890181438"><ele>5.5</ele><time>2026-04-06T06:35:07Z</time></trkpt><trkpt lat="44.41366374350788" lon="8.912216503478707"><ele>4.0</ele><time>2026-04-06T06:35:08Z</time></trkpt><trkpt lat="44.413595517659736" lon="8.912072360886846"><ele>2.5</ele><time>2026-04-06T06:35:09Z</time></trkpt><trkpt lat="44.41352829895895" lon="8.911921195028473"><ele>1.0</ele><time>2026-04-06T06:35:10Z</time></trkpt><trkpt lat="44.413460938624716" lon="8.911772775368656"><ele>1.25</ele><time>2026-04-06T06:35:11Z</time></trkpt><trkpt lat="44.41339189082819" lon="8.911628489599831"><ele>1.5</ele><time>2026-04-06T06:35:12Z</time></trkpt><trkpt lat="44.41332187362563" lon="8.911479983180346"><ele>1.75</ele><time>2026-04-06T06:35:13Z</time></trkpt><trkpt lat="44.413251947461895" lon="8.911328380226994"><ele>2.0</ele><time>2026-04-06T06:35:14Z</time></trkpt><trkpt lat="44.413184364617386" lon="8.911174257219452"><ele>2.0</ele><time>2026-04-06T06:35:15Z</time></trkpt><trkpt lat="44.41311458377888" lon="8.911021772230947"><ele>2.0</ele><time>2026-04-06T06:35:16Z</time></trkpt><trkpt lat="44.413044538612795" lon="8.910871809021987"><ele>2.0</ele><time>2026-04-06T06:35:17Z</time></trkpt><trkpt lat="44.41297495534914" lon="8.910723075508196"><ele>2.0</ele><time>2026-04-06T06:35:18Z</time></trkpt><trkpt lat="44.412903816523745" lon="8.91057137684809"><ele>2.5</ele><time>2026-04-06T06:35:19Z</time></trkpt><trkpt lat="44.41283628570012" lon="8.910427676727439"><ele>3.0</ele><time>2026-04-06T06:35:20Z</time></trkpt><trkpt lat="44.41276650738029" lon="8.910288055762118"><ele>3.5</ele><time>2026-04-06T06:35:21Z</time></trkpt><trkpt lat="44.41269381198731" lon="8.91014910927526"><ele>4.0</ele><time>2026-04-06T06:35:22Z</time></trkpt><trkpt lat="44.41261469494919" lon="8.910018990820557"><ele>5.25</ele><time>2026-04-06T06:35:23Z</time></trkpt><trkpt lat="44.41253094091803" lon="8.909892817606137"><ele>6.5</ele><time>2026-04-06T06:35:24Z</time></trkpt><trkpt lat="44.41243733948325" lon="8.90977979904157"><ele>7.75</ele><time>2026-04-06T06:35:25Z</time></trkpt><trkpt lat="44.41233704772762" lon="8.909666138019894"><ele>9.0</ele><time>2026-04-06T06:35:26Z</time></trkpt><trkpt lat="44.41223319292279" lon="8.909564211463499"><ele>8.75</ele><time>2026-04-06T06:35:27Z</time></trkpt><trkpt lat="44.412130540613525" lon="8.909470008125744"><ele>8.5</ele><time>2026-04-06T06:35:28Z</time></trkpt><trkpt lat="44.41202823644222" lon="8.9093718408283"><ele>8.25</ele><time>2026-04-06T06:35:29Z</time></trkpt><trkpt lat="44.41192668387056" lon="8.909273680175396"><ele>8.0</ele><time>2026-04-06T06:35:30Z</time></trkpt><trkpt lat="44.41182840635674" lon="8.909172034197072"><ele>8.0</ele><time>2026-04-06T06:35:31Z</time></trkpt><trkpt lat="44.411734901904595" lon="8.909060128773774"><ele>8.0</ele><time>2026-04-06T06:35:32Z</time></trkpt><trkpt lat="44.41164329032837" lon="8.908939140107817"><ele>8.0</ele><time>2026-04-06T06:35:33Z</time></trkpt><trkpt lat="44.41155395771104" lon="8.908815052232134"><ele>8.0</ele><time>2026-04-06T06:35:34Z</time></trkpt><trkpt lat="44.4114696031079" lon="8.908684648717577"><ele>8.0</ele><time>2026-04-06T06:35:35Z</time></trkpt><trkpt lat="44.4113897299588" lon="8.908548080721436"><ele>8.0</ele><time>2026-04-06T06:35:36Z</time></trkpt><trkpt lat="44.411311267156606" lon="8.908410018008391"><ele>8.0</ele><time>2026-04-06T06:35:37Z</time></trkpt><trkpt lat="44.41123734302565" lon="8.90826008019191"><ele>8.0</ele><time>2026-04-06T06:35:38Z</time></trkpt><trkpt lat="44.411166992189415" lon="8.908108433035148"><ele>8.5</ele><time>2026-04-06T06:35:39Z</time></trkpt><trkpt lat="44.41110170659705" lon="8.907952063604158"><ele>9.0</ele><time>2026-04-06T06:35:40Z</time></trkpt><trkpt lat="44.411038849090204" lon="8.907790069813913"><ele>9.5</ele><time>2026-04-06T06:35:41Z</time></trkpt><trkpt lat="44.41098650452616" lon="8.907629334506737"><ele>10.0</ele><time>2026-04-06T06:35:42Z</time></trkpt><trkpt lat="44.41093568421902" lon="8.907462023289494"><ele>10.25</ele><time>2026-04-06T06:35:43Z</time></trkpt><trkpt lat="44.41088721422627" lon="8.907292861583104"><ele>10.5</ele><time>2026-04-06T06:35:44Z</time></trkpt><trkpt lat="44.41084335931467" lon="8.907124210875924"><ele>10.75</ele><time>2026-04-06T06:35:45Z</time></trkpt><trkpt lat="44.41079752310764" lon="8.906959469140148"><ele>11.0</ele><time>2026-04-06T06:35:46Z</time></trkpt><trkpt lat="44.410751406237026" lon="8.906791482713762"><ele>12.0</ele><time>2026-04-06T06:35:47Z</time></trkpt><trkpt lat="44.41070580687039" lon="8.906624752364182"><ele>13.0</ele><time>2026-04-06T06:35:48Z</time></trkpt><trkpt lat="44.41066204570516" lon="8.906458128124104"><ele>14.0</ele><time>2026-04-06T06:35:49Z</time></trkpt><trkpt lat="44.410616051599874" lon="8.906293157841336"><ele>15.0</ele><time>2026-04-06T06:35:50Z</time></trkpt><trkpt lat="44.41057040641431" lon="8.906133060916739"><ele>15.0</ele><time>2026-04-06T06:35:51Z</time></trkpt><trkpt lat="44.41052247555142" lon="8.905965241080409"><ele>15.0</ele><time>2026-04-06T06:35:52Z</time></trkpt><trkpt lat="44.410474002933725" lon="8.905801992305049"><ele>15.0</ele><time>2026-04-06T06:35:53Z</time></trkpt><trkpt lat="44.41042492668994" lon="8.90563765329198"><ele>15.0</ele><time>2026-04-06T06:35:54Z</time></trkpt><trkpt lat="44.4103766565306" lon="8.905472683216782"><ele>14.75</ele><time>2026-04-06T06:35:55Z</time></trkpt><trkpt lat="44.41033548965924" lon="8.905311468280495"><ele>14.5</ele><time>2026-04-06T06:35:56Z</time></trkpt><trkpt lat="44.41029929275564" lon="8.905158861999183"><ele>14.25</ele><time>2026-04-06T06:35:57Z</time></trkpt><trkpt lat="44.4102696157318" lon="8.90500329314147"><ele>14.0</ele><time>2026-04-06T06:35:58Z</time></trkpt><trkpt lat="44.41024090507358" lon="8.904850116534297"><ele>14.0</ele><time>2026-04-06T06:35:58.999Z</time></trkpt><trkpt lat="44.41021112349675" lon="8.904699127298322"><ele>14.0</ele><time>2026-04-06T06:35:59.999Z</time></trkpt><trkpt lat="44.41017839588434" lon="8.90454694263901"><ele>14.0</ele><time>2026-04-06T06:36:00.999Z</time></trkpt><trkpt lat="44.41014436787694" lon="8.904389510925931"><ele>14.0</ele><time>2026-04-06T06:36:01.999Z</time></trkpt><trkpt lat="44.410103643695514" lon="8.904228268914498"><ele>14.75</ele><time>2026-04-06T06:36:02.999Z</time></trkpt><trkpt lat="44.41006439358035" lon="8.90407367876765"><ele>15.5</ele><time>2026-04-06T06:36:03.999Z</time></trkpt><trkpt lat="44.41003313523759" lon="8.903915254256898"><ele>16.25</ele><time>2026-04-06T06:36:04.999Z</time></trkpt><trkpt lat="44.41002263837972" lon="8.903754552232094"><ele>17.0</ele><time>2026-04-06T06:36:05.999Z</time></trkpt><trkpt lat="44.410038502859805" lon="8.903593089854112"><ele>17.0</ele><time>2026-04-06T06:36:06.999Z</time></trkpt><trkpt lat="44.41007841330236" lon="8.903422507934904"><ele>17.0</ele><time>2026-04-06T06:36:07.999Z</time></trkpt><trkpt lat="44.41012674370611" lon="8.90325208851569"><ele>17.0</ele><time>2026-04-06T06:36:08.999Z</time></trkpt><trkpt lat="44.41016512645321" lon="8.903100144361453"><ele>17.0</ele><time>2026-04-06T06:36:09.999Z</time></trkpt><trkpt lat="44.41019671069636" lon="8.902966116559297"><ele>19.2</ele><time>2026-04-06T06:36:10.999Z</time></trkpt><trkpt lat="44.41022091413064" lon="8.902837488673532"><ele>21.4</ele><time>2026-04-06T06:36:11.999Z</time></trkpt><trkpt lat="44.41025215881835" lon="8.902695811343474"><ele>23.599999999999998</ele><time>2026-04-06T06:36:12.999Z</time></trkpt><trkpt lat="44.41028099479385" lon="8.90254531527315"><ele>25.799999999999997</ele><time>2026-04-06T06:36:13.999Z</time></trkpt><trkpt lat="44.41030453942447" lon="8.902383151857801"><ele>28.0</ele><time>2026-04-06T06:36:14.999Z</time></trkpt><trkpt lat="44.41030483770937" lon="8.90222430816107"><ele>26.25</ele><time>2026-04-06T06:36:16Z</time></trkpt><trkpt lat="44.41028168792123" lon="8.902048078495326"><ele>24.5</ele><time>2026-04-06T06:36:17Z</time></trkpt><trkpt lat="44.4102776675696" lon="8.901886160645773"><ele>22.75</ele><time>2026-04-06T06:36:18Z</time></trkpt><trkpt lat="44.41026420770751" lon="8.901713447434291"><ele>21.0</ele><time>2026-04-06T06:36:19Z</time></trkpt><trkpt lat="44.410252821135465" lon="8.901542858724364"><ele>21.0</ele><time>2026-04-06T06:36:20Z</time></trkpt><trkpt lat="44.410240163391556" lon="8.9013759911967"><ele>21.0</ele><time>2026-04-06T06:36:21Z</time></trkpt><trkpt lat="44.410234844571946" lon="8.901204639120552"><ele>21.0</ele><time>2026-04-06T06:36:22Z</time></trkpt><trkpt lat="44.41024889947065" lon="8.901032603873325"><ele>21.0</ele><time>2026-04-06T06:36:23Z</time></trkpt><trkpt lat="44.41028642699919" lon="8.90086936306923"><ele>21.75</ele><time>2026-04-06T06:36:24Z</time></trkpt><trkpt lat="44.41034941697236" lon="8.900728739862652"><ele>22.5</ele><time>2026-04-06T06:36:25Z</time></trkpt><trkpt lat="44.410428940716095" lon="8.900605288260666"><ele>23.25</ele><time>2026-04-06T06:36:26Z</time></trkpt><trkpt lat="44.410507010765556" lon="8.90049384655023"><ele>24.0</ele><time>2026-04-06T06:36:27Z</time></trkpt><trkpt lat="44.41059386522385" lon="8.90039720556765"><ele>24.0</ele><time>2026-04-06T06:36:28Z</time></trkpt><trkpt lat="44.41070008399521" lon="8.900339344941228"><ele>24.0</ele><time>2026-04-06T06:36:29Z</time></trkpt><trkpt lat="44.41082041134995" lon="8.900312417685367"><ele>24.0</ele><time>2026-04-06T06:36:30Z</time></trkpt><trkpt lat="44.41093910679086" lon="8.900319575153784"><ele>24.0</ele><time>2026-04-06T06:36:31Z</time></trkpt><trkpt lat="44.41105734618057" lon="8.900358060228863"><ele>24.0</ele><time>2026-04-06T06:36:32Z</time></trkpt><trkpt lat="44.41118051526638" lon="8.900411554390866"><ele>24.0</ele><time>2026-04-06T06:36:33Z</time></trkpt><trkpt lat="44.41130041909033" lon="8.900460897510488"><ele>24.0</ele><time>2026-04-06T06:36:34Z</time></trkpt><trkpt lat="44.41142712295331" lon="8.900476866837382"><ele>24.0</ele><time>2026-04-06T06:36:35Z</time></trkpt><trkpt lat="44.41155758496622" lon="8.900453794603187"><ele>26.75</ele><time>2026-04-06T06:36:36Z</time></trkpt><trkpt lat="44.41168454569664" lon="8.900404100041857"><ele>29.5</ele><time>2026-04-06T06:36:37Z</time></trkpt><trkpt lat="44.411805033104756" lon="8.900345416471456"><ele>32.25</ele><time>2026-04-06T06:36:38Z</time></trkpt><trkpt lat="44.41192471688198" lon="8.900290977466735"><ele>35.0</ele><time>2026-04-06T06:36:39Z</time></trkpt><trkpt lat="44.41204344687239" lon="8.900240520465319"><ele>36.5</ele><time>2026-04-06T06:36:40Z</time></trkpt><trkpt lat="44.41216409445749" lon="8.900192126655897"><ele>38.0</ele><time>2026-04-06T06:36:41Z</time></trkpt><trkpt lat="44.4122782388779" lon="8.900151058671165"><ele>39.5</ele><time>2026-04-06T06:36:42Z</time></trkpt><trkpt lat="44.412401458155735" lon="8.900105573645634"><ele>41.0</ele><time>2026-04-06T06:36:43Z</time></trkpt><trkpt lat="44.41252189276397" lon="8.900091651813257"><ele>41.0</ele><time>2026-04-06T06:36:44Z</time></trkpt><trkpt lat="44.4126768973824" lon="8.900080547716655"><ele>41.0</ele><time>2026-04-06T06:36:45Z</time></trkpt><trkpt lat="44.41280018348652" lon="8.900112576923577"><ele>41.0</ele><time>2026-04-06T06:36:46Z</time></trkpt><trkpt lat="44.412930535329565" lon="8.900173789466086"><ele>41.0</ele><time>2026-04-06T06:36:47Z</time></trkpt><trkpt lat="44.41307433985099" lon="8.900230892940675"><ele>40.666666666666664</ele><time>2026-04-06T06:36:48Z</time></trkpt><trkpt lat="44.41322166970834" lon="8.900312815303746"><ele>40.333333333333336</ele><time>2026-04-06T06:36:49Z</time></trkpt><trkpt lat="44.413379828309985" lon="8.90041754484179"><ele>40.0</ele><time>2026-04-06T06:36:50Z</time></trkpt><trkpt lat="44.41356111996333" lon="8.900540106391071"><ele>40.0</ele><time>2026-04-06T06:36:51Z</time></trkpt><trkpt lat="44.413731850256305" lon="8.900652269235387"><ele>40.0</ele><time>2026-04-06T06:36:52Z</time></trkpt><trkpt lat="44.413926329681935" lon="8.900759800803447"><ele>40.0</ele><time>2026-04-06T06:36:53Z</time></trkpt><trkpt lat="44.41409482736514" lon="8.900871174584921"><ele>40.333333333333336</ele><time>2026-04-06T06:36:54Z</time></trkpt><trkpt lat="44.41425961873106" lon="8.90099334659972"><ele>40.666666666666664</ele><time>2026-04-06T06:36:55Z</time></trkpt><trkpt lat="44.41438894075789" lon="8.901136638554759"><ele>41.0</ele><time>2026-04-06T06:36:56Z</time></trkpt><trkpt lat="44.41450855850861" lon="8.90129876946483"><ele>41.0</ele><time>2026-04-06T06:36:57Z</time></trkpt><trkpt lat="44.41463193524341" lon="8.901426633543325"><ele>41.0</ele><time>2026-04-06T06:36:58Z</time></trkpt><trkpt lat="44.41474017768725" lon="8.901548108762682"><ele>41.0</ele><time>2026-04-06T06:36:59Z</time></trkpt><trkpt lat="44.41486280556207" lon="8.901657035270556"><ele>41.0</ele><time>2026-04-06T06:37:00Z</time></trkpt><trkpt lat="44.414952841207665" lon="8.901672691369399"><ele>40.25</ele><time>2026-04-06T06:37:01Z</time></trkpt><trkpt lat="44.415062551262494" lon="8.901785821175013"><ele>39.5</ele><time>2026-04-06T06:37:02Z</time></trkpt><trkpt lat="44.415146559820386" lon="8.901850814932242"><ele>38.75</ele><time>2026-04-06T06:37:03Z</time></trkpt><trkpt lat="44.41532197059231" lon="8.901934451456041"><ele>38.0</ele><time>2026-04-06T06:37:04Z</time></trkpt><trkpt lat="44.415465287347814" lon="8.90200250236311"><ele>41.0</ele><time>2026-04-06T06:37:05Z</time></trkpt><trkpt lat="44.41558052026747" lon="8.902122680488732"><ele>44.0</ele><time>2026-04-06T06:37:06Z</time></trkpt><trkpt lat="44.41577228886475" lon="8.902203625530468"><ele>47.0</ele><time>2026-04-06T06:37:07Z</time></trkpt><trkpt lat="44.41594622630021" lon="8.902287136034959"><ele>47.0</ele><time>2026-04-06T06:37:08Z</time></trkpt><trkpt lat="44.41610181218102" lon="8.902354538039122"><ele>47.0</ele><time>2026-04-06T06:37:09Z</time></trkpt><trkpt lat="44.4163256832551" lon="8.9024874753099"><ele>47.0</ele><time>2026-04-06T06:37:10Z</time></trkpt><trkpt lat="44.41647473454545" lon="8.902554088844171"><ele>52.25</ele><time>2026-04-06T06:37:11Z</time></trkpt><trkpt lat="44.41660027778383" lon="8.902607573123904"><ele>57.5</ele><time>2026-04-06T06:37:12Z</time></trkpt><trkpt lat="44.41672315604025" lon="8.902646539299258"><ele>62.75</ele><time>2026-04-06T06:37:13Z</time></trkpt><trkpt lat="44.41682909316865" lon="8.902679656803967"><ele>68.0</ele><time>2026-04-06T06:37:14Z</time></trkpt><trkpt lat="44.41693129699263" lon="8.902693195512994"><ele>68.0</ele><time>2026-04-06T06:37:15Z</time></trkpt><trkpt lat="44.41702329241237" lon="8.902711809467853"><ele>68.0</ele><time>2026-04-06T06:37:16Z</time></trkpt><trkpt lat="44.417118928616034" lon="8.9027257378627"><ele>68.0</ele><time>2026-04-06T06:37:17Z</time></trkpt><trkpt lat="44.41721194277491" lon="8.90274028207765"><ele>68.0</ele><time>2026-04-06T06:37:18Z</time></trkpt><trkpt lat="44.417292654501004" lon="8.902752833350544"><ele>68.0</ele><time>2026-04-06T06:37:19Z</time></trkpt><trkpt lat="44.41736322634747" lon="8.902767103812133"><ele>68.0</ele><time>2026-04-06T06:37:20Z</time></trkpt><trkpt lat="44.41743059643525" lon="8.902779648728357"><ele>69.6</ele><time>2026-04-06T06:37:21Z</time></trkpt><trkpt lat="44.41754084115489" lon="8.90278869715354"><ele>71.19999999999999</ele><time>2026-04-06T06:37:23Z</time></trkpt><trkpt lat="44.417627687061675" lon="8.902760578433206"><ele>72.8</ele><time>2026-04-06T06:37:25Z</time></trkpt><trkpt lat="44.41772679512524" lon="8.902709926094417"><ele>74.39999999999999</ele><time>2026-04-06T06:37:27Z</time></trkpt><trkpt lat="44.41780766009758" lon="8.902663461813525"><ele>76.0</ele><time>2026-04-06T06:37:29Z</time></trkpt><trkpt lat="44.41786262744025" lon="8.902609901947049"><ele>76.0</ele><time>2026-04-06T06:37:40Z</time></trkpt><trkpt lat="44.41793833539638" lon="8.90261538432402"><ele>76.0</ele><time>2026-04-06T06:37:54Z</time></trkpt><trkpt lat="44.41801912218024" lon="8.902579715546038"><ele>76.0</ele><time>2026-04-06T06:37:56Z</time></trkpt><trkpt lat="44.41809994230447" lon="8.902513478843865"><ele>76.0</ele><time>2026-04-06T06:37:59Z</time></trkpt><trkpt lat="44.41819925043399" lon="8.902407411622672"><ele>76.0</ele><time>2026-04-06T06:38:01Z</time></trkpt><trkpt lat="44.41826440104918" lon="8.902329757227863"><ele>74.8</ele><time>2026-04-06T06:38:02Z</time></trkpt><trkpt lat="44.41833638312071" lon="8.90224108352945"><ele>73.6</ele><time>2026-04-06T06:38:03Z</time></trkpt><trkpt lat="44.41841648033349" lon="8.902148228034337"><ele>72.4</ele><time>2026-04-06T06:38:04Z</time></trkpt><trkpt lat="44.41849524971945" lon="8.902064923544046"><ele>71.2</ele><time>2026-04-06T06:38:05Z</time></trkpt><trkpt lat="44.4185854450092" lon="8.901979422557368"><ele>70.0</ele><time>2026-04-06T06:38:06Z</time></trkpt><trkpt lat="44.41867259713814" lon="8.901904378290602"><ele>70.0</ele><time>2026-04-06T06:38:07Z</time></trkpt><trkpt lat="44.41876905399325" lon="8.901832649887819"><ele>70.0</ele><time>2026-04-06T06:38:08Z</time></trkpt><trkpt lat="44.418877998445076" lon="8.901756455869158"><ele>70.0</ele><time>2026-04-06T06:38:09Z</time></trkpt><trkpt lat="44.418982325882936" lon="8.901671200736942"><ele>70.0</ele><time>2026-04-06T06:38:10Z</time></trkpt><trkpt lat="44.41908363628963" lon="8.901581758101873"><ele>70.75</ele><time>2026-04-06T06:38:11Z</time></trkpt><trkpt lat="44.419186720155786" lon="8.901486314513201"><ele>71.5</ele><time>2026-04-06T06:38:12Z</time></trkpt><trkpt lat="44.419274664387025" lon="8.901384774960867"><ele>72.25</ele><time>2026-04-06T06:38:13Z</time></trkpt><trkpt lat="44.419348982031735" lon="8.901280441099901"><ele>73.0</ele><time>2026-04-06T06:38:14Z</time></trkpt><trkpt lat="44.4194233818524" lon="8.901165007083534"><ele>73.0</ele><time>2026-04-06T06:38:15Z</time></trkpt><trkpt lat="44.41950012035531" lon="8.901046485748495"><ele>73.0</ele><time>2026-04-06T06:38:16Z</time></trkpt><trkpt lat="44.41958051136003" lon="8.900921922433826"><ele>73.0</ele><time>2026-04-06T06:38:17.017Z</time></trkpt><trkpt lat="44.41965515099421" lon="8.9008089257483"><ele>73.0</ele><time>2026-04-06T06:38:18.021Z</time></trkpt><trkpt lat="44.419787555229426" lon="8.900557579668611"><ele>75.75</ele><time>2026-04-06T06:38:20.02Z</time></trkpt><trkpt lat="44.419859593784984" lon="8.900414589541372"><ele>78.5</ele><time>2026-04-06T06:38:21.014Z</time></trkpt><trkpt lat="44.41993342475281" lon="8.900265638757862"><ele>81.25</ele><time>2026-04-06T06:38:22.013Z</time></trkpt><trkpt lat="44.4200069301506" lon="8.90010865526632"><ele>84.0</ele><time>2026-04-06T06:38:23.021Z</time></trkpt><trkpt lat="44.42007709051418" lon="8.899981251189638"><ele>118.0</ele><time>2026-04-06T06:38:24.024Z</time></trkpt><trkpt lat="44.421052200602695" lon="8.897508635031159"><ele>125.0</ele><time>2026-04-06T06:38:27.188Z</time></trkpt><trkpt lat="44.42142150376198" lon="8.896646997437692"><ele>102.0</ele><time>2026-04-06T06:38:28.188Z</time></trkpt><trkpt lat="44.42179581995009" lon="8.895784064550776"><ele>73.0</ele><time>2026-04-06T06:38:29.192Z</time></trkpt><trkpt lat="44.42218429243858" lon="8.894943805685593"><ele>73.0</ele><time>2026-04-06T06:38:30.188Z</time></trkpt><trkpt lat="44.42235385071898" lon="8.894926942893205"><ele>73.0</ele><time>2026-04-06T06:38:54Z</time></trkpt><trkpt lat="44.42251427082645" lon="8.894706025786585"><ele>73.0</ele><time>2026-04-06T06:38:56Z</time></trkpt><trkpt lat="44.422587710540675" lon="8.894612106621071"><ele>73.0</ele><time>2026-04-06T06:38:57Z</time></trkpt><trkpt lat="44.42269139920164" lon="8.894530428022316"><ele>73.0</ele><time>2026-04-06T06:38:58Z</time></trkpt><trkpt lat="44.42280968467135" lon="8.894448467782697"><ele>73.0</ele><time>2026-04-06T06:38:59Z</time></trkpt><trkpt lat="44.422942548268956" lon="8.894380043201558"><ele>73.0</ele><time>2026-04-06T06:39:00Z</time></trkpt><trkpt lat="44.423076542385026" lon="8.894311409857135"><ele>71.75</ele><time>2026-04-06T06:39:01Z</time></trkpt><trkpt lat="44.4232102173579" lon="8.894266463283206"><ele>70.5</ele><time>2026-04-06T06:39:02Z</time></trkpt><trkpt lat="44.4233485122877" lon="8.89423599342747"><ele>69.25</ele><time>2026-04-06T06:39:03Z</time></trkpt><trkpt lat="44.423474309967915" lon="8.894206433642358"><ele>68.0</ele><time>2026-04-06T06:39:04Z</time></trkpt><trkpt lat="44.423586879114424" lon="8.894137649476907"><ele>68.0</ele><time>2026-04-06T06:39:05Z</time></trkpt><trkpt lat="44.423685736847375" lon="8.894026826471348"><ele>68.0</ele><time>2026-04-06T06:39:06Z</time></trkpt><trkpt lat="44.423754102295305" lon="8.89389594324387"><ele>68.0</ele><time>2026-04-06T06:39:07Z</time></trkpt><trkpt lat="44.423827398274135" lon="8.893762923673409"><ele>68.0</ele><time>2026-04-06T06:39:08Z</time></trkpt><trkpt lat="44.42388596640377" lon="8.89351732642234"><ele>65.33333333333334</ele><time>2026-04-06T06:39:09Z</time></trkpt><trkpt lat="44.42395837664514" lon="8.893332329218829"><ele>62.66666666666667</ele><time>2026-04-06T06:39:10Z</time></trkpt><trkpt lat="44.42404080409571" lon="8.89314833533533"><ele>60.0</ele><time>2026-04-06T06:39:11Z</time></trkpt><trkpt lat="44.42412182379221" lon="8.892955816670122"><ele>60.0</ele><time>2026-04-06T06:39:12Z</time></trkpt><trkpt lat="44.42419914930703" lon="8.892759459217777"><ele>60.0</ele><time>2026-04-06T06:39:13Z</time></trkpt><trkpt lat="44.42428438325077" lon="8.89255752357848"><ele>60.0</ele><time>2026-04-06T06:39:14Z</time></trkpt><trkpt lat="44.42437122297739" lon="8.89235286228835"><ele>51.0</ele><time>2026-04-06T06:39:15Z</time></trkpt><trkpt lat="44.424454373202" lon="8.892152887699584"><ele>42.0</ele><time>2026-04-06T06:39:16Z</time></trkpt><trkpt lat="44.42453631536745" lon="8.8919523762941"><ele>33.0</ele><time>2026-04-06T06:39:17Z</time></trkpt><trkpt lat="44.42462475231075" lon="8.89174272704059"><ele>28.0</ele><time>2026-04-06T06:39:18Z</time></trkpt><trkpt lat="44.424725078969445" lon="8.891520876230397"><ele>23.0</ele><time>2026-04-06T06:39:19Z</time></trkpt><trkpt lat="44.42481809849137" lon="8.891308500263372"><ele>18.0</ele><time>2026-04-06T06:39:20Z</time></trkpt><trkpt lat="44.424917745634716" lon="8.891085076110565"><ele>17.666666666666668</ele><time>2026-04-06T06:39:21Z</time></trkpt><trkpt lat="44.425019274351385" lon="8.890854157958518"><ele>17.333333333333336</ele><time>2026-04-06T06:39:22Z</time></trkpt><trkpt lat="44.4251135625426" lon="8.890625418793704"><ele>17.0</ele><time>2026-04-06T06:39:23Z</time></trkpt><trkpt lat="44.42521158127015" lon="8.890391084234844"><ele>17.0</ele><time>2026-04-06T06:39:24Z</time></trkpt><trkpt lat="44.42530597193751" lon="8.890159416911638"><ele>17.0</ele><time>2026-04-06T06:39:25Z</time></trkpt><trkpt lat="44.4254040027232" lon="8.889926114433264"><ele>17.0</ele><time>2026-04-06T06:39:26Z</time></trkpt><trkpt lat="44.425508644682104" lon="8.889682982514389"><ele>16.0</ele><time>2026-04-06T06:39:27Z</time></trkpt><trkpt lat="44.42560328517193" lon="8.889435857633982"><ele>15.0</ele><time>2026-04-06T06:39:28Z</time></trkpt><trkpt lat="44.42570711895998" lon="8.889186363794323"><ele>14.0</ele><time>2026-04-06T06:39:29Z</time></trkpt><trkpt lat="44.42581020704288" lon="8.888934625735242"><ele>14.0</ele><time>2026-04-06T06:39:30Z</time></trkpt><trkpt lat="44.425916306821186" lon="8.888677192104778"><ele>14.0</ele><time>2026-04-06T06:39:31Z</time></trkpt><trkpt lat="44.42602064820146" lon="8.888414955196255"><ele>14.0</ele><time>2026-04-06T06:39:32Z</time></trkpt><trkpt lat="44.426127992753564" lon="8.888146337895824"><ele>13.5</ele><time>2026-04-06T06:39:33Z</time></trkpt><trkpt lat="44.426239084714446" lon="8.887875407857775"><ele>13.0</ele><time>2026-04-06T06:39:34Z</time></trkpt><trkpt lat="44.42635244123844" lon="8.887599831903437"><ele>14.5</ele><time>2026-04-06T06:39:35Z</time></trkpt><trkpt lat="44.42646333100058" lon="8.887327549660432"><ele>16.0</ele><time>2026-04-06T06:39:36Z</time></trkpt><trkpt lat="44.426580821712434" lon="8.887048073349327"><ele>16.0</ele><time>2026-04-06T06:39:37Z</time></trkpt><trkpt lat="44.42669451020738" lon="8.88676640664102"><ele>16.0</ele><time>2026-04-06T06:39:38Z</time></trkpt><trkpt lat="44.42680608404909" lon="8.886491129535115"><ele>15.666666666666666</ele><time>2026-04-06T06:39:39Z</time></trkpt><trkpt lat="44.42691258760486" lon="8.886231970352439"><ele>15.333333333333332</ele><time>2026-04-06T06:39:40Z</time></trkpt><trkpt lat="44.42701601639654" lon="8.885982546691947"><ele>15.0</ele><time>2026-04-06T06:39:41Z</time></trkpt><trkpt lat="44.42712020151548" lon="8.885733783213142"><ele>15.666666666666668</ele><time>2026-04-06T06:39:42Z</time></trkpt><trkpt lat="44.427226042202484" lon="8.885484408896437"><ele>16.333333333333336</ele><time>2026-04-06T06:39:43Z</time></trkpt><trkpt lat="44.4273234380052" lon="8.885238624919769"><ele>17.0</ele><time>2026-04-06T06:39:44Z</time></trkpt><trkpt lat="44.42742109085439" lon="8.884991995723894"><ele>17.0</ele><time>2026-04-06T06:39:45Z</time></trkpt><trkpt lat="44.42752024774252" lon="8.884745974968023"><ele>17.0</ele><time>2026-04-06T06:39:46Z</time></trkpt><trkpt lat="44.427615121506584" lon="8.884501061724972"><ele>17.0</ele><time>2026-04-06T06:39:47Z</time></trkpt><trkpt lat="44.42770346209754" lon="8.884251155230391"><ele>16.666666666666668</ele><time>2026-04-06T06:39:48Z</time></trkpt><trkpt lat="44.42777863905093" lon="8.883993741537228"><ele>16.333333333333332</ele><time>2026-04-06T06:39:49Z</time></trkpt><trkpt lat="44.427843017228916" lon="8.883724813660562"><ele>16.0</ele><time>2026-04-06T06:39:50Z</time></trkpt><trkpt lat="44.42789440788183" lon="8.883453004065803"><ele>16.0</ele><time>2026-04-06T06:39:51Z</time></trkpt><trkpt lat="44.42793006351142" lon="8.883175775518149"><ele>16.0</ele><time>2026-04-06T06:39:52Z</time></trkpt><trkpt lat="44.427951199983376" lon="8.882891320143383"><ele>16.0</ele><time>2026-04-06T06:39:53Z</time></trkpt><trkpt lat="44.42795727104443" lon="8.882609938545698"><ele>17.0</ele><time>2026-04-06T06:39:54Z</time></trkpt><trkpt lat="44.42794754087163" lon="8.882324210022423"><ele>18.0</ele><time>2026-04-06T06:39:55Z</time></trkpt><trkpt lat="44.427923090267036" lon="8.88204003899455"><ele>19.0</ele><time>2026-04-06T06:39:56Z</time></trkpt><trkpt lat="44.42788070268748" lon="8.881757853364064"><ele>26.333333333333332</ele><time>2026-04-06T06:39:57Z</time></trkpt><trkpt lat="44.427823234761945" lon="8.88147882299943"><ele>33.666666666666664</ele><time>2026-04-06T06:39:58Z</time></trkpt><trkpt lat="44.42775190223827" lon="8.881207486748107"><ele>41.0</ele><time>2026-04-06T06:39:59Z</time></trkpt><trkpt lat="44.427674365574575" lon="8.880932070881935"><ele>47.666666666666664</ele><time>2026-04-06T06:40:00Z</time></trkpt><trkpt lat="44.427605832207014" lon="8.880655535748087"><ele>54.33333333333333</ele><time>2026-04-06T06:40:01Z</time></trkpt><trkpt lat="44.42754051838805" lon="8.880361294981322"><ele>61.0</ele><time>2026-04-06T06:40:02Z</time></trkpt><trkpt lat="44.42746585079473" lon="8.880076876137208"><ele>70.33333333333333</ele><time>2026-04-06T06:40:03Z</time></trkpt><trkpt lat="44.427387355719134" lon="8.879786768101155"><ele>79.66666666666667</ele><time>2026-04-06T06:40:04.022Z</time></trkpt><trkpt lat="44.42731377989187" lon="8.879511295860407"><ele>89.0</ele><time>2026-04-06T06:40:05.024Z</time></trkpt><trkpt lat="44.42724219683558" lon="8.879255073205647"><ele>94.0</ele><time>2026-04-06T06:40:06.014Z</time></trkpt><trkpt lat="44.427160358688155" lon="8.878984556626884"><ele>99.0</ele><time>2026-04-06T06:40:07.021Z</time></trkpt><trkpt lat="44.42708116930393" lon="8.878717006318707"><ele>104.0</ele><time>2026-04-06T06:40:08.021Z</time></trkpt><trkpt lat="44.42416303739424" lon="8.868880137710345"><ele>89.0</ele><time>2026-04-06T06:40:40Z</time></trkpt><trkpt lat="44.424193388415226" lon="8.868565916923792"><ele>74.0</ele><time>2026-04-06T06:40:41Z</time></trkpt><trkpt lat="44.42421954211547" lon="8.86825406372047"><ele>71.0</ele><time>2026-04-06T06:40:42Z</time></trkpt><trkpt lat="44.42428710675356" lon="8.867953186259646"><ele>68.0</ele><time>2026-04-06T06:40:43Z</time></trkpt><trkpt lat="44.42437968959893" lon="8.86765391999074"><ele>72.66666666666667</ele><time>2026-04-06T06:40:44Z</time></trkpt><trkpt lat="44.42449731900429" lon="8.867399287684393"><ele>77.33333333333333</ele><time>2026-04-06T06:40:45.001Z</time></trkpt><trkpt lat="44.42462787441661" lon="8.867145112350762"><ele>82.0</ele><time>2026-04-06T06:40:46.001Z</time></trkpt><trkpt lat="44.42476049802072" lon="8.866890218869193"><ele>99.5</ele><time>2026-04-06T06:40:47.001Z</time></trkpt><trkpt lat="44.42488417174392" lon="8.866622945434637"><ele>117.0</ele><time>2026-04-06T06:40:48.027Z</time></trkpt><trkpt lat="44.42500959710378" lon="8.866353543329911"><ele>117.0</ele><time>2026-04-06T06:40:49.022Z</time></trkpt><trkpt lat="44.42513832935899" lon="8.866081158714948"><ele>117.0</ele><time>2026-04-06T06:40:50.022Z</time></trkpt><trkpt lat="44.42525978169786" lon="8.86581011763847"><ele>117.5</ele><time>2026-04-06T06:40:51.027Z</time></trkpt><trkpt lat="44.42537638279182" lon="8.86554835677726"><ele>118.0</ele><time>2026-04-06T06:40:52.017Z</time></trkpt><trkpt lat="44.42727444697584" lon="8.861629329630045"><ele>98.66666666666667</ele><time>2026-04-06T06:41:09Z</time></trkpt><trkpt lat="44.4273848910849" lon="8.861385940726063"><ele>79.33333333333334</ele><time>2026-04-06T06:41:10Z</time></trkpt><trkpt lat="44.427501632498014" lon="8.861158181180297"><ele>60.0</ele><time>2026-04-06T06:41:11Z</time></trkpt><trkpt lat="44.42762054457634" lon="8.860909717827015"><ele>58.66666666666667</ele><time>2026-04-06T06:41:12Z</time></trkpt><trkpt lat="44.42773747597182" lon="8.860666735003914"><ele>57.333333333333336</ele><time>2026-04-06T06:41:13Z</time></trkpt><trkpt lat="44.42786195524087" lon="8.860431550590313"><ele>56.0</ele><time>2026-04-06T06:41:14Z</time></trkpt><trkpt lat="44.427989245198894" lon="8.86019315903493"><ele>46.0</ele><time>2026-04-06T06:41:15Z</time></trkpt><trkpt lat="44.42811302187339" lon="8.859953280616969"><ele>36.0</ele><time>2026-04-06T06:41:16Z</time></trkpt><trkpt lat="44.42823969203821" lon="8.859712211467146"><ele>26.0</ele><time>2026-04-06T06:41:17Z</time></trkpt><trkpt lat="44.428366990365966" lon="8.8594751696956"><ele>23.0</ele><time>2026-04-06T06:41:18Z</time></trkpt><trkpt lat="44.42849369242043" lon="8.859232343326346"><ele>20.0</ele><time>2026-04-06T06:41:19Z</time></trkpt><trkpt lat="44.42862161844789" lon="8.85898932133783"><ele>17.0</ele><time>2026-04-06T06:41:20Z</time></trkpt><trkpt lat="44.42875100488219" lon="8.858746756551058"><ele>17.666666666666668</ele><time>2026-04-06T06:41:21Z</time></trkpt><trkpt lat="44.428879016922025" lon="8.858504854583783"><ele>18.333333333333332</ele><time>2026-04-06T06:41:22Z</time></trkpt><trkpt lat="44.42900680240205" lon="8.858260270160402"><ele>19.0</ele><time>2026-04-06T06:41:23Z</time></trkpt><trkpt lat="44.42913361186299" lon="8.858018441839938"><ele>19.0</ele><time>2026-04-06T06:41:24Z</time></trkpt><trkpt lat="44.429257658048854" lon="8.85777278890701"><ele>19.0</ele><time>2026-04-06T06:41:25Z</time></trkpt><trkpt lat="44.42936973790221" lon="8.857523484006505"><ele>19.0</ele><time>2026-04-06T06:41:26Z</time></trkpt><trkpt lat="44.42946468732368" lon="8.857256928827836"><ele>21.0</ele><time>2026-04-06T06:41:27Z</time></trkpt><trkpt lat="44.429541569480335" lon="8.856974257984898"><ele>23.0</ele><time>2026-04-06T06:41:28Z</time></trkpt><trkpt lat="44.42959954897709" lon="8.856690123866054"><ele>25.0</ele><time>2026-04-06T06:41:29Z</time></trkpt><trkpt lat="44.42964046490365" lon="8.85640455973817"><ele>27.666666666666668</ele><time>2026-04-06T06:41:30Z</time></trkpt><trkpt lat="44.42968816309766" lon="8.85611718479685"><ele>30.333333333333336</ele><time>2026-04-06T06:41:31Z</time></trkpt><trkpt lat="44.429728089019775" lon="8.855830183491333"><ele>33.0</ele><time>2026-04-06T06:41:32Z</time></trkpt><trkpt lat="44.42977191705368" lon="8.855544973002283"><ele>33.0</ele><time>2026-04-06T06:41:33Z</time></trkpt><trkpt lat="44.42982436988614" lon="8.855270083061052"><ele>33.0</ele><time>2026-04-06T06:41:34Z</time></trkpt><trkpt lat="44.42986960634025" lon="8.854984956303928"><ele>33.0</ele><time>2026-04-06T06:41:35Z</time></trkpt><trkpt lat="44.429924198044525" lon="8.854708873627377"><ele>29.333333333333332</ele><time>2026-04-06T06:41:36Z</time></trkpt><trkpt lat="44.429972301243126" lon="8.854433582105367"><ele>25.666666666666664</ele><time>2026-04-06T06:41:37Z</time></trkpt><trkpt lat="44.43002124823609" lon="8.854146082031539"><ele>22.0</ele><time>2026-04-06T06:41:38Z</time></trkpt><trkpt lat="44.43006898367174" lon="8.853854851248677"><ele>22.0</ele><time>2026-04-06T06:41:39Z</time></trkpt><trkpt lat="44.43012164142997" lon="8.853566867809285"><ele>22.0</ele><time>2026-04-06T06:41:40Z</time></trkpt><trkpt lat="44.43017175502374" lon="8.85327804043255"><ele>22.0</ele><time>2026-04-06T06:41:41Z</time></trkpt><trkpt lat="44.430223310221905" lon="8.853003411283709"><ele>24.0</ele><time>2026-04-06T06:41:42Z</time></trkpt><trkpt lat="44.43026706677887" lon="8.852727672365951"><ele>26.0</ele><time>2026-04-06T06:41:43Z</time></trkpt><trkpt lat="44.430316242375405" lon="8.852466101482044"><ele>28.0</ele><time>2026-04-06T06:41:44Z</time></trkpt><trkpt lat="44.430362036865354" lon="8.852214200771353"><ele>32.0</ele><time>2026-04-06T06:41:45Z</time></trkpt><trkpt lat="44.43039422916465" lon="8.851960415488985"><ele>36.0</ele><time>2026-04-06T06:41:46Z</time></trkpt><trkpt lat="44.4304279719995" lon="8.851704746909846"><ele>40.0</ele><time>2026-04-06T06:41:47.017Z</time></trkpt><trkpt lat="44.43046045221675" lon="8.851461616744404"><ele>46.333333333333336</ele><time>2026-04-06T06:41:48.024Z</time></trkpt><trkpt lat="44.430478212433044" lon="8.851215845498473"><ele>52.66666666666667</ele><time>2026-04-06T06:41:49.019Z</time></trkpt><trkpt lat="44.430504729901344" lon="8.850964523235298"><ele>59.0</ele><time>2026-04-06T06:41:50.016Z</time></trkpt><trkpt lat="44.43054376628049" lon="8.850712035805442"><ele>59.0</ele><time>2026-04-06T06:41:51.017Z</time></trkpt><trkpt lat="44.430584773339206" lon="8.85045929858311"><ele>59.0</ele><time>2026-04-06T06:41:52.024Z</time></trkpt><trkpt lat="44.4308867897221" lon="8.846963054079552"><ele>34.0</ele><time>2026-04-06T06:42:04.621Z</time></trkpt><trkpt lat="44.43034717722559" lon="8.8465337608003"><ele>34.0</ele><time>2026-04-06T06:42:06Z</time></trkpt><trkpt lat="44.430253160191306" lon="8.846458827004444"><ele>34.0</ele><time>2026-04-06T06:42:07Z</time></trkpt><trkpt lat="44.43028496907008" lon="8.84617449597175"><ele>34.0</ele><time>2026-04-06T06:42:08Z</time></trkpt><trkpt lat="44.43031489490508" lon="8.84589143587615"><ele>35.66666666666667</ele><time>2026-04-06T06:42:09Z</time></trkpt><trkpt lat="44.43033380624894" lon="8.845590627634513"><ele>37.333333333333336</ele><time>2026-04-06T06:42:10Z</time></trkpt><trkpt lat="44.43037432571" lon="8.845333190874863"><ele>39.0</ele><time>2026-04-06T06:42:11Z</time></trkpt><trkpt lat="44.430428139424265" lon="8.84508489900336"><ele>40.666666666666664</ele><time>2026-04-06T06:42:12Z</time></trkpt><trkpt lat="44.43047754247666" lon="8.84484511391796"><ele>42.33333333333333</ele><time>2026-04-06T06:42:13Z</time></trkpt><trkpt lat="44.430518576467314" lon="8.844602986796378"><ele>44.0</ele><time>2026-04-06T06:42:14Z</time></trkpt><trkpt lat="44.43056999210287" lon="8.844354089196623"><ele>45.33333333333333</ele><time>2026-04-06T06:42:15Z</time></trkpt><trkpt lat="44.43061976189452" lon="8.84409845917042"><ele>46.666666666666664</ele><time>2026-04-06T06:42:16Z</time></trkpt><trkpt lat="44.430689562115646" lon="8.84385574105525"><ele>48.0</ele><time>2026-04-06T06:42:17Z</time></trkpt><trkpt lat="44.43074590381413" lon="8.84358938203233"><ele>49.33333333333333</ele><time>2026-04-06T06:42:18Z</time></trkpt><trkpt lat="44.43075250042267" lon="8.843333222198241"><ele>50.666666666666664</ele><time>2026-04-06T06:42:19Z</time></trkpt><trkpt lat="44.430839016967404" lon="8.843081607748601"><ele>52.0</ele><time>2026-04-06T06:42:20Z</time></trkpt><trkpt lat="44.43087001963941" lon="8.842842980171957"><ele>54.666666666666664</ele><time>2026-04-06T06:42:21Z</time></trkpt><trkpt lat="44.43089852185083" lon="8.84259617379681"><ele>57.33333333333333</ele><time>2026-04-06T06:42:22.023Z</time></trkpt><trkpt lat="44.43093177868564" lon="8.84235429792055"><ele>60.0</ele><time>2026-04-06T06:42:23.015Z</time></trkpt><trkpt lat="44.430959901958786" lon="8.842102924729561"><ele>60.0</ele><time>2026-04-06T06:42:24.02Z</time></trkpt><trkpt lat="44.43098354244377" lon="8.841850875426175"><ele>60.0</ele><time>2026-04-06T06:42:25.022Z</time></trkpt><trkpt lat="44.43101434739394" lon="8.841601722847287"><ele>60.0</ele><time>2026-04-06T06:42:26.023Z</time></trkpt><trkpt lat="44.43046673670823" lon="8.83951233700741"><ele>49.5</ele><time>2026-04-06T06:42:34Z</time></trkpt><trkpt lat="44.43042194315259" lon="8.839275162467667"><ele>39.0</ele><time>2026-04-06T06:42:35Z</time></trkpt><trkpt lat="44.43013465770245" lon="8.83937513707589"><ele>37.25</ele><time>2026-04-06T06:42:36Z</time></trkpt><trkpt lat="44.43009629068255" lon="8.839200135021349"><ele>35.5</ele><time>2026-04-06T06:42:37Z</time></trkpt><trkpt lat="44.430078172424714" lon="8.839009070190398"><ele>33.75</ele><time>2026-04-06T06:42:38Z</time></trkpt><trkpt lat="44.43006599523304" lon="8.838789423465409"><ele>32.0</ele><time>2026-04-06T06:42:39Z</time></trkpt><trkpt lat="44.43004736854029" lon="8.838557704304613"><ele>34.33333333333333</ele><time>2026-04-06T06:42:40Z</time></trkpt><trkpt lat="44.430055360045664" lon="8.838307197272632"><ele>36.666666666666664</ele><time>2026-04-06T06:42:41Z</time></trkpt><trkpt lat="44.430070241466076" lon="8.838065335511418"><ele>39.0</ele><time>2026-04-06T06:42:42Z</time></trkpt><trkpt lat="44.43011441495358" lon="8.837814193773722"><ele>41.666666666666664</ele><time>2026-04-06T06:42:43Z</time></trkpt><trkpt lat="44.430170635270464" lon="8.837534152341524"><ele>44.33333333333333</ele><time>2026-04-06T06:42:44Z</time></trkpt><trkpt lat="44.43023522410911" lon="8.837242745466952"><ele>47.0</ele><time>2026-04-06T06:42:45Z</time></trkpt><trkpt lat="44.43029112148217" lon="8.836952140009988"><ele>48.0</ele><time>2026-04-06T06:42:46Z</time></trkpt><trkpt lat="44.430335775150986" lon="8.836670781846877"><ele>49.0</ele><time>2026-04-06T06:42:47Z</time></trkpt><trkpt lat="44.43036507568044" lon="8.836410338422672"><ele>50.0</ele><time>2026-04-06T06:42:48Z</time></trkpt><trkpt lat="44.43037330603952" lon="8.836187872588573"><ele>49.75</ele><time>2026-04-06T06:42:49Z</time></trkpt><trkpt lat="44.430368582012164" lon="8.835949630729045"><ele>49.5</ele><time>2026-04-06T06:42:50Z</time></trkpt><trkpt lat="44.43033612487357" lon="8.83576805688317"><ele>49.25</ele><time>2026-04-06T06:42:51.001Z</time></trkpt><trkpt lat="44.43036250684857" lon="8.835667275576293"><ele>49.0</ele><time>2026-04-06T06:42:52.001Z</time></trkpt><trkpt lat="44.43012803236678" lon="8.835176101610429"><ele>49.5</ele><time>2026-04-06T06:42:53.001Z</time></trkpt><trkpt lat="44.42994115772146" lon="8.834803772003239"><ele>50.0</ele><time>2026-04-06T06:42:54.001Z</time></trkpt><trkpt lat="44.429861485525144" lon="8.83452085042574"><ele>50.333333333333336</ele><time>2026-04-06T06:42:55.001Z</time></trkpt><trkpt lat="44.42978800764117" lon="8.834229037558059"><ele>50.66666666666667</ele><time>2026-04-06T06:42:56.001Z</time></trkpt><trkpt lat="44.429718408098296" lon="8.833927712745384"><ele>51.0</ele><time>2026-04-06T06:42:57.001Z</time></trkpt><trkpt lat="44.42967061159632" lon="8.833607646339832"><ele>48.0</ele><time>2026-04-06T06:42:58.001Z</time></trkpt><trkpt lat="44.429635521882794" lon="8.833291552892808"><ele>45.0</ele><time>2026-04-06T06:42:59.001Z</time></trkpt><trkpt lat="44.429590224783944" lon="8.832990336612095"><ele>42.0</ele><time>2026-04-06T06:43:00.001Z</time></trkpt><trkpt lat="44.4295822884834" lon="8.832672134446101"><ele>45.5</ele><time>2026-04-06T06:43:01.001Z</time></trkpt><trkpt lat="44.429574986782505" lon="8.832355067498117"><ele>49.0</ele><time>2026-04-06T06:43:02.001Z</time></trkpt><trkpt lat="44.42958868491575" lon="8.832028507391936"><ele>58.0</ele><time>2026-04-06T06:43:03.001Z</time></trkpt><trkpt lat="44.42959642855708" lon="8.83171593926203"><ele>67.0</ele><time>2026-04-06T06:43:04.001Z</time></trkpt><trkpt lat="44.4296056248192" lon="8.831394996297256"><ele>67.0</ele><time>2026-04-06T06:43:05.001Z</time></trkpt><trkpt lat="44.42961059435457" lon="8.831069507750504"><ele>67.0</ele><time>2026-04-06T06:43:06.014Z</time></trkpt><trkpt lat="44.429615876277424" lon="8.830745809431697"><ele>73.5</ele><time>2026-04-06T06:43:07.016Z</time></trkpt><trkpt lat="44.42961773621506" lon="8.83043648175342"><ele>80.0</ele><time>2026-04-06T06:43:08.016Z</time></trkpt><trkpt lat="44.42962119819629" lon="8.830110848430586"><ele>56.0</ele><time>2026-04-06T06:43:09.02Z</time></trkpt><trkpt lat="44.429837926332304" lon="8.827557312332864"><ele>56.0</ele><time>2026-04-06T06:43:17.001Z</time></trkpt><trkpt lat="44.42985459544042" lon="8.827241940585093"><ele>56.0</ele><time>2026-04-06T06:43:18.001Z</time></trkpt><trkpt lat="44.42980126975532" lon="8.826968116434225"><ele>56.0</ele><time>2026-04-06T06:43:19.001Z</time></trkpt><trkpt lat="44.42977252063025" lon="8.826686754630854"><ele>56.0</ele><time>2026-04-06T06:43:20.001Z</time></trkpt><trkpt lat="44.42970442205572" lon="8.826410976576806"><ele>56.0</ele><time>2026-04-06T06:43:21.001Z</time></trkpt><trkpt lat="44.42963203008239" lon="8.82614256230349"><ele>56.0</ele><time>2026-04-06T06:43:22.001Z</time></trkpt><trkpt lat="44.42957386268047" lon="8.825959643391844"><ele>47.5</ele><time>2026-04-06T06:43:23.001Z</time></trkpt><trkpt lat="44.42945350490716" lon="8.825645359280658"><ele>39.0</ele><time>2026-04-06T06:43:24.001Z</time></trkpt><trkpt lat="44.42936560184719" lon="8.82537484122351"><ele>38.0</ele><time>2026-04-06T06:43:25.001Z</time></trkpt><trkpt lat="44.42929457297292" lon="8.82508260523016"><ele>37.0</ele><time>2026-04-06T06:43:26.001Z</time></trkpt><trkpt lat="44.42924376442973" lon="8.824795682570423"><ele>36.0</ele><time>2026-04-06T06:43:27.001Z</time></trkpt><trkpt lat="44.42921185757856" lon="8.824502466853689"><ele>35.666666666666664</ele><time>2026-04-06T06:43:28.001Z</time></trkpt><trkpt lat="44.42921384451289" lon="8.824197938097472"><ele>35.33333333333333</ele><time>2026-04-06T06:43:29.001Z</time></trkpt><trkpt lat="44.429239931541574" lon="8.823904402278687"><ele>35.0</ele><time>2026-04-06T06:43:30.001Z</time></trkpt><trkpt lat="44.429273595914125" lon="8.823613295593338"><ele>33.0</ele><time>2026-04-06T06:43:31.001Z</time></trkpt><trkpt lat="44.42933478252452" lon="8.823326137413773"><ele>31.0</ele><time>2026-04-06T06:43:32.001Z</time></trkpt><trkpt lat="44.42942151077964" lon="8.82304891995649"><ele>29.0</ele><time>2026-04-06T06:43:33Z</time></trkpt><trkpt lat="44.42951712784586" lon="8.822779917805956"><ele>28.0</ele><time>2026-04-06T06:43:34Z</time></trkpt><trkpt lat="44.429608010369456" lon="8.822502617098841"><ele>27.0</ele><time>2026-04-06T06:43:35Z</time></trkpt><trkpt lat="44.42969438683286" lon="8.822194835878586"><ele>27.0</ele><time>2026-04-06T06:43:36Z</time></trkpt><trkpt lat="44.429771810931136" lon="8.821858666361383"><ele>27.0</ele><time>2026-04-06T06:43:37Z</time></trkpt><trkpt lat="44.429857780403594" lon="8.821509342225271"><ele>23.5</ele><time>2026-04-06T06:43:38Z</time></trkpt><trkpt lat="44.42995028870133" lon="8.82116053262613"><ele>20.0</ele><time>2026-04-06T06:43:39Z</time></trkpt><trkpt lat="44.430039953845316" lon="8.82081702645246"><ele>19.0</ele><time>2026-04-06T06:43:40Z</time></trkpt><trkpt lat="44.43013274527503" lon="8.820479549224078"><ele>18.0</ele><time>2026-04-06T06:43:41Z</time></trkpt><trkpt lat="44.43022321797977" lon="8.820140317091639"><ele>18.0</ele><time>2026-04-06T06:43:42Z</time></trkpt><trkpt lat="44.43031213630366" lon="8.819809631747537"><ele>18.0</ele><time>2026-04-06T06:43:43Z</time></trkpt><trkpt lat="44.43040536065622" lon="8.8194752227985"><ele>24.5</ele><time>2026-04-06T06:43:44Z</time></trkpt><trkpt lat="44.43049809582501" lon="8.819156416444226"><ele>31.0</ele><time>2026-04-06T06:43:45Z</time></trkpt><trkpt lat="44.43058977809164" lon="8.818834476387599"><ele>31.0</ele><time>2026-04-06T06:43:46Z</time></trkpt><trkpt lat="44.430678593537884" lon="8.818515065205965"><ele>31.0</ele><time>2026-04-06T06:43:47Z</time></trkpt><trkpt lat="44.430765829843686" lon="8.818193081703921"><ele>36.0</ele><time>2026-04-06T06:43:48Z</time></trkpt><trkpt lat="44.430857957308646" lon="8.817863514477635"><ele>41.0</ele><time>2026-04-06T06:43:49Z</time></trkpt><trkpt lat="44.43095655676553" lon="8.817543163632127"><ele>46.0</ele><time>2026-04-06T06:43:50Z</time></trkpt><trkpt lat="44.43108448166364" lon="8.81723337068934"><ele>51.0</ele><time>2026-04-06T06:43:51Z</time></trkpt><trkpt lat="44.431231401778895" lon="8.816923984557612"><ele>69.0</ele><time>2026-04-06T06:43:52Z</time></trkpt><trkpt lat="44.43137993767327" lon="8.816609409960387"><ele>87.0</ele><time>2026-04-06T06:43:53.015Z</time></trkpt><trkpt lat="44.43152929161117" lon="8.81629809560766"><ele>87.0</ele><time>2026-04-06T06:43:54.025Z</time></trkpt><trkpt lat="44.43167524290616" lon="8.815988410173714"><ele>87.0</ele><time>2026-04-06T06:43:55.024Z</time></trkpt><trkpt lat="44.43183275296427" lon="8.815685144344341"><ele>92.5</ele><time>2026-04-06T06:43:56.023Z</time></trkpt><trkpt lat="44.43198523970949" lon="8.815379674493942"><ele>98.0</ele><time>2026-04-06T06:43:57.023Z</time></trkpt><trkpt lat="44.43249297019827" lon="8.812705652867615"><ele>72.0</ele><time>2026-04-06T06:44:00.191Z</time></trkpt><trkpt lat="44.43222454753186" lon="8.80860063248203"><ele>71.33333333333333</ele><time>2026-04-06T06:44:20Z</time></trkpt><trkpt lat="44.43220663469925" lon="8.808287900831376"><ele>70.66666666666666</ele><time>2026-04-06T06:44:21Z</time></trkpt><trkpt lat="44.43212224921237" lon="8.808008816374585"><ele>70.0</ele><time>2026-04-06T06:44:22Z</time></trkpt><trkpt lat="44.432085843867696" lon="8.807699060564525"><ele>70.5</ele><time>2026-04-06T06:44:23Z</time></trkpt><trkpt lat="44.43206409960953" lon="8.807391994789668"><ele>71.0</ele><time>2026-04-06T06:44:24Z</time></trkpt><trkpt lat="44.43202614202315" lon="8.80707546158701"><ele>78.0</ele><time>2026-04-06T06:44:25Z</time></trkpt><trkpt lat="44.43200099608532" lon="8.806773297004304"><ele>85.0</ele><time>2026-04-06T06:44:26Z</time></trkpt><trkpt lat="44.431975998687825" lon="8.80646207227528"><ele>92.0</ele><time>2026-04-06T06:44:27Z</time></trkpt><trkpt lat="44.43195127384938" lon="8.806150503921568"><ele>95.0</ele><time>2026-04-06T06:44:28Z</time></trkpt><trkpt lat="44.43192548001574" lon="8.805832840259145"><ele>98.0</ele><time>2026-04-06T06:44:29.023Z</time></trkpt><trkpt lat="44.43189944058245" lon="8.805517752010747"><ele>98.0</ele><time>2026-04-06T06:44:30.019Z</time></trkpt><trkpt lat="44.43186850430233" lon="8.805199189394067"><ele>98.0</ele><time>2026-04-06T06:44:31.02Z</time></trkpt><trkpt lat="44.431839686568864" lon="8.804883317379584"><ele>124.0</ele><time>2026-04-06T06:44:32.022Z</time></trkpt><trkpt lat="44.43156849385783" lon="8.802083906774431"><ele>96.0</ele><time>2026-04-06T06:44:35.19Z</time></trkpt><trkpt lat="44.43154674693085" lon="8.800709232451618"><ele>108.0</ele><time>2026-04-06T06:44:36.186Z</time></trkpt><trkpt lat="44.43162982951774" lon="8.79932986958145"><ele>118.0</ele><time>2026-04-06T06:44:37.189Z</time></trkpt><trkpt lat="44.431824689222985" lon="8.79797634696488"><ele>90.0</ele><time>2026-04-06T06:44:38.189Z</time></trkpt><trkpt lat="44.43209909517853" lon="8.796647071797048"><ele>85.0</ele><time>2026-04-06T06:44:39.19Z</time></trkpt><trkpt lat="44.432400238595356" lon="8.795330790085808"><ele>93.0</ele><time>2026-04-06T06:44:40.191Z</time></trkpt><trkpt lat="44.432695195868334" lon="8.794013704702174"><ele>88.0</ele><time>2026-04-06T06:44:41.189Z</time></trkpt><trkpt lat="44.432942941754526" lon="8.7926828242093"><ele>49.0</ele><time>2026-04-06T06:44:42.186Z</time></trkpt><trkpt lat="44.432535893325166" lon="8.791159568362675"><ele>48.0</ele><time>2026-04-06T06:45:13Z</time></trkpt><trkpt lat="44.433069401462035" lon="8.791551087059817"><ele>48.0</ele><time>2026-04-06T06:45:14Z</time></trkpt><trkpt lat="44.43319984506094" lon="8.79160146745508"><ele>48.0</ele><time>2026-04-06T06:45:15Z</time></trkpt><trkpt lat="44.4330051056059" lon="8.790662453353105"><ele>45.5</ele><time>2026-04-06T06:45:16Z</time></trkpt><trkpt lat="44.43296055635858" lon="8.79032352122698"><ele>43.0</ele><time>2026-04-06T06:45:17Z</time></trkpt><trkpt lat="44.43290161569031" lon="8.789989053418427"><ele>43.0</ele><time>2026-04-06T06:45:18Z</time></trkpt><trkpt lat="44.43283818345376" lon="8.78966244708384"><ele>43.0</ele><time>2026-04-06T06:45:19.001Z</time></trkpt><trkpt lat="44.432762998876605" lon="8.78933232368003"><ele>53.0</ele><time>2026-04-06T06:45:20.001Z</time></trkpt><trkpt lat="44.43268421022159" lon="8.789001912323215"><ele>63.0</ele><time>2026-04-06T06:45:21.001Z</time></trkpt><trkpt lat="44.43257595857142" lon="8.788685292932072"><ele>58.5</ele><time>2026-04-06T06:45:22.022Z</time></trkpt><trkpt lat="44.43247244669764" lon="8.788371335174537"><ele>54.0</ele><time>2026-04-06T06:45:23.022Z</time></trkpt><trkpt lat="44.43236790936381" lon="8.788058422764426"><ele>54.0</ele><time>2026-04-06T06:45:24.023Z</time></trkpt><trkpt lat="44.4322659710807" lon="8.787742971834996"><ele>54.0</ele><time>2026-04-06T06:45:25.018Z</time></trkpt><trkpt lat="44.43213846538629" lon="8.787450576209265"><ele>40.0</ele><time>2026-04-06T06:45:26.001Z</time></trkpt><trkpt lat="44.43203447211927" lon="8.787133715514823"><ele>26.0</ele><time>2026-04-06T06:45:27.001Z</time></trkpt><trkpt lat="44.4319367431394" lon="8.786822554865623"><ele>25.5</ele><time>2026-04-06T06:45:28.001Z</time></trkpt><trkpt lat="44.431830844141224" lon="8.78652123747542"><ele>25.0</ele><time>2026-04-06T06:45:29.001Z</time></trkpt><trkpt lat="44.43172644896871" lon="8.786199377391272"><ele>29.0</ele><time>2026-04-06T06:45:30.001Z</time></trkpt><trkpt lat="44.43163184146325" lon="8.785889710541191"><ele>33.0</ele><time>2026-04-06T06:45:31.001Z</time></trkpt><trkpt lat="44.43152852496444" lon="8.785578265431754"><ele>33.0</ele><time>2026-04-06T06:45:32.001Z</time></trkpt><trkpt lat="44.43142597704545" lon="8.785265186441563"><ele>33.0</ele><time>2026-04-06T06:45:33.001Z</time></trkpt><trkpt lat="44.43133478123754" lon="8.784950985988331"><ele>50.5</ele><time>2026-04-06T06:45:34.001Z</time></trkpt><trkpt lat="44.43124668881156" lon="8.784650113834308"><ele>68.0</ele><time>2026-04-06T06:45:35.001Z</time></trkpt><trkpt lat="44.43115625468798" lon="8.78434232853306"><ele>77.0</ele><time>2026-04-06T06:45:36.023Z</time></trkpt><trkpt lat="44.43106654293459" lon="8.784040202597017"><ele>86.0</ele><time>2026-04-06T06:45:37.024Z</time></trkpt><trkpt lat="44.43097696792553" lon="8.78374155750955"><ele>91.0</ele><time>2026-04-06T06:45:38.019Z</time></trkpt><trkpt lat="44.430888278886265" lon="8.78344436677205"><ele>96.0</ele><time>2026-04-06T06:45:39.025Z</time></trkpt><trkpt lat="44.43080083737118" lon="8.783145831776004"><ele>67.0</ele><time>2026-04-06T06:45:40.022Z</time></trkpt><trkpt lat="44.43036556112737" lon="8.780403041766357"><ele>47.0</ele><time>2026-04-06T06:45:43.187Z</time></trkpt><trkpt lat="44.430311037774494" lon="8.779020690373521"><ele>17.0</ele><time>2026-04-06T06:45:44.189Z</time></trkpt><trkpt lat="44.43028765734697" lon="8.777391705670187"><ele>17.0</ele><time>2026-04-06T06:45:56Z</time></trkpt><trkpt lat="44.43027547403619" lon="8.777045625305842"><ele>17.0</ele><time>2026-04-06T06:45:57Z</time></trkpt><trkpt lat="44.43026117611901" lon="8.776741541607182"><ele>13.5</ele><time>2026-04-06T06:45:58Z</time></trkpt><trkpt lat="44.43023421559964" lon="8.77640545010535"><ele>10.0</ele><time>2026-04-06T06:45:59Z</time></trkpt><trkpt lat="44.43021544028439" lon="8.776069933568378"><ele>12.0</ele><time>2026-04-06T06:46:00Z</time></trkpt><trkpt lat="44.43019557186952" lon="8.775725849467651"><ele>14.0</ele><time>2026-04-06T06:46:01Z</time></trkpt><trkpt lat="44.430184547277065" lon="8.77536600217436"><ele>18.5</ele><time>2026-04-06T06:46:02Z</time></trkpt><trkpt lat="44.43018110921648" lon="8.77501227305956"><ele>23.0</ele><time>2026-04-06T06:46:03Z</time></trkpt><trkpt lat="44.430186166244944" lon="8.774664168328757"><ele>25.0</ele><time>2026-04-06T06:46:04Z</time></trkpt><trkpt lat="44.43020860165649" lon="8.774337333760375"><ele>27.0</ele><time>2026-04-06T06:46:05Z</time></trkpt><trkpt lat="44.43023671282432" lon="8.77400344608584"><ele>27.0</ele><time>2026-04-06T06:46:06Z</time></trkpt><trkpt lat="44.430241321468955" lon="8.773682926547895"><ele>27.0</ele><time>2026-04-06T06:46:07Z</time></trkpt><trkpt lat="44.43027734921935" lon="8.773344193822059"><ele>28.0</ele><time>2026-04-06T06:46:08Z</time></trkpt><trkpt lat="44.430304243939034" lon="8.773013085278075"><ele>29.0</ele><time>2026-04-06T06:46:09Z</time></trkpt><trkpt lat="44.43031637899156" lon="8.772680431413146"><ele>30.0</ele><time>2026-04-06T06:46:10Z</time></trkpt><trkpt lat="44.43031469366906" lon="8.772348644118368"><ele>31.0</ele><time>2026-04-06T06:46:11Z</time></trkpt><trkpt lat="44.43030485665153" lon="8.772007484780007"><ele>31.5</ele><time>2026-04-06T06:46:12Z</time></trkpt><trkpt lat="44.43029894407936" lon="8.77167780145259"><ele>32.0</ele><time>2026-04-06T06:46:13Z</time></trkpt><trkpt lat="44.4303017550444" lon="8.771360206304964"><ele>32.0</ele><time>2026-04-06T06:46:14Z</time></trkpt><trkpt lat="44.43030899380422" lon="8.771051988504723"><ele>32.0</ele><time>2026-04-06T06:46:15Z</time></trkpt><trkpt lat="44.430315242319026" lon="8.770757303975316"><ele>32.0</ele><time>2026-04-06T06:46:16Z</time></trkpt><trkpt lat="44.43032823112615" lon="8.77047643676616"><ele>30.666666666666664</ele><time>2026-04-06T06:46:17Z</time></trkpt><trkpt lat="44.43035147433786" lon="8.77021013743945"><ele>29.333333333333336</ele><time>2026-04-06T06:46:18Z</time></trkpt><trkpt lat="44.43034738600953" lon="8.769956924817063"><ele>28.0</ele><time>2026-04-06T06:46:19Z</time></trkpt><trkpt lat="44.43028762524848" lon="8.769716325924522"><ele>28.0</ele><time>2026-04-06T06:46:20Z</time></trkpt><trkpt lat="44.43029493945906" lon="8.769489850408936"><ele>28.0</ele><time>2026-04-06T06:46:21Z</time></trkpt><trkpt lat="44.430268621358906" lon="8.769270620992417"><ele>28.0</ele><time>2026-04-06T06:46:22Z</time></trkpt><trkpt lat="44.43026355358022" lon="8.769050746160081"><ele>24.666666666666668</ele><time>2026-04-06T06:46:23Z</time></trkpt><trkpt lat="44.43025112136241" lon="8.768840059402937"><ele>21.333333333333336</ele><time>2026-04-06T06:46:24Z</time></trkpt><trkpt lat="44.430250079235876" lon="8.768424376613499"><ele>18.0</ele><time>2026-04-06T06:46:26Z</time></trkpt><trkpt lat="44.430272302979866" lon="8.768220371447272"><ele>17.75</ele><time>2026-04-06T06:46:27Z</time></trkpt><trkpt lat="44.43030094717699" lon="8.768015181113437"><ele>17.5</ele><time>2026-04-06T06:46:28Z</time></trkpt><trkpt lat="44.43032692258628" lon="8.767817224120538"><ele>17.25</ele><time>2026-04-06T06:46:29Z</time></trkpt><trkpt lat="44.430345748552035" lon="8.767624602692258"><ele>17.0</ele><time>2026-04-06T06:46:30Z</time></trkpt><trkpt lat="44.430371477331825" lon="8.767439983070226"><ele>16.75</ele><time>2026-04-06T06:46:31Z</time></trkpt><trkpt lat="44.430390223828944" lon="8.767258343365764"><ele>16.5</ele><time>2026-04-06T06:46:32Z</time></trkpt><trkpt lat="44.43040710012493" lon="8.7670899452894"><ele>16.25</ele><time>2026-04-06T06:46:33Z</time></trkpt><trkpt lat="44.43042042350451" lon="8.76691969409811"><ele>16.0</ele><time>2026-04-06T06:46:34Z</time></trkpt><trkpt lat="44.43042882761663" lon="8.766749761826377"><ele>16.5</ele><time>2026-04-06T06:46:35Z</time></trkpt><trkpt lat="44.43043279404559" lon="8.766570363695509"><ele>17.0</ele><time>2026-04-06T06:46:36Z</time></trkpt><trkpt lat="44.4304170902432" lon="8.76640417142563"><ele>17.5</ele><time>2026-04-06T06:46:37Z</time></trkpt><trkpt lat="44.43038257158876" lon="8.766239608999095"><ele>18.0</ele><time>2026-04-06T06:46:38Z</time></trkpt><trkpt lat="44.43034128881971" lon="8.766078891347094"><ele>18.75</ele><time>2026-04-06T06:46:39Z</time></trkpt><trkpt lat="44.4303045241661" lon="8.765911757479163"><ele>19.5</ele><time>2026-04-06T06:46:40.019Z</time></trkpt><trkpt lat="44.43026634553358" lon="8.765745843665785"><ele>20.25</ele><time>2026-04-06T06:46:41.02Z</time></trkpt><trkpt lat="44.43022135342269" lon="8.765582704306208"><ele>21.0</ele><time>2026-04-06T06:46:42.016Z</time></trkpt><trkpt lat="44.43017056865954" lon="8.765427222298843"><ele>21.0</ele><time>2026-04-06T06:46:43.02Z</time></trkpt><trkpt lat="44.43013144143303" lon="8.765270154487249"><ele>21.0</ele><time>2026-04-06T06:46:44.02Z</time></trkpt><trkpt lat="44.42942830272431" lon="8.764462703847107"><ele>19.0</ele><time>2026-04-06T06:46:51Z</time></trkpt><trkpt lat="44.429333055389534" lon="8.764334588166577"><ele>17.0</ele><time>2026-04-06T06:46:52Z</time></trkpt><trkpt lat="44.42912826907368" lon="8.764562071287509"><ele>15.0</ele><time>2026-04-06T06:46:53Z</time></trkpt><trkpt lat="44.42903432816785" lon="8.764648415737897"><ele>14.6</ele><time>2026-04-06T06:46:54Z</time></trkpt><trkpt lat="44.428961797973535" lon="8.764761140463124"><ele>14.2</ele><time>2026-04-06T06:46:55Z</time></trkpt><trkpt lat="44.42891061024765" lon="8.764908535876119"><ele>13.8</ele><time>2026-04-06T06:46:56Z</time></trkpt><trkpt lat="44.42889226230501" lon="8.765065146972068"><ele>13.4</ele><time>2026-04-06T06:46:57Z</time></trkpt><trkpt lat="44.428890223485446" lon="8.765214367890824"><ele>13.0</ele><time>2026-04-06T06:46:58Z</time></trkpt><trkpt lat="44.428889286866905" lon="8.765358098198096"><ele>12.999999999999998</ele><time>2026-04-06T06:46:59Z</time></trkpt><trkpt lat="44.42889152913281" lon="8.765494813368102"><ele>13.0</ele><time>2026-04-06T06:47:00Z</time></trkpt><trkpt lat="44.42889679396002" lon="8.7656174706513"><ele>13.0</ele><time>2026-04-06T06:47:01Z</time></trkpt><trkpt lat="44.428902672430695" lon="8.765733473169764"><ele>13.0</ele><time>2026-04-06T06:47:02Z</time></trkpt><trkpt lat="44.42891141383531" lon="8.765847580594269"><ele>12.999999999999998</ele><time>2026-04-06T06:47:03Z</time></trkpt><trkpt lat="44.42892441707981" lon="8.765969282504646"><ele>13.0</ele><time>2026-04-06T06:47:04Z</time></trkpt><trkpt lat="44.42893945795933" lon="8.766089692524588"><ele>13.0</ele><time>2026-04-06T06:47:05Z</time></trkpt><trkpt lat="44.42894874771168" lon="8.766203132683543"><ele>13.0</ele><time>2026-04-06T06:47:06Z</time></trkpt><trkpt lat="44.4289510589393" lon="8.766305129362534"><ele>13.0</ele><time>2026-04-06T06:47:07Z</time></trkpt><trkpt lat="44.42896152177107" lon="8.76639979282766"><ele>13.0</ele><time>2026-04-06T06:47:08Z</time></trkpt><trkpt lat="44.428965269164294" lon="8.766490398991408"><ele>13.0</ele><time>2026-04-06T06:47:09Z</time></trkpt><trkpt lat="44.428961076332506" lon="8.766599770374125"><ele>13.0</ele><time>2026-04-06T06:47:11Z</time></trkpt><trkpt lat="44.42892153243656" lon="8.766677809899749"><ele>13.0</ele><time>2026-04-06T06:47:50Z</time></trkpt><trkpt lat="44.428930188088664" lon="8.766787669345533"><ele>12.999999999999998</ele><time>2026-04-06T06:47:52Z</time></trkpt><trkpt lat="44.428919260830256" lon="8.76689036251292"><ele>13.0</ele><time>2026-04-06T06:47:53Z</time></trkpt><trkpt lat="44.42890852893027" lon="8.767006606403706"><ele>13.0</ele><time>2026-04-06T06:47:54Z</time></trkpt><trkpt lat="44.42889868310256" lon="8.767125684714673"><ele>13.0</ele><time>2026-04-06T06:47:55Z</time></trkpt><trkpt lat="44.42888108766" lon="8.767242275915821"><ele>12.999999999999998</ele><time>2026-04-06T06:47:56Z</time></trkpt><trkpt lat="44.42885228930418" lon="8.76740409162813"><ele>13.0</ele><time>2026-04-06T06:47:57Z</time></trkpt><trkpt lat="44.42882094058735" lon="8.767595977649572"><ele>12.8</ele><time>2026-04-06T06:47:58Z</time></trkpt><trkpt lat="44.42879068746323" lon="8.767765117758033"><ele>12.600000000000001</ele><time>2026-04-06T06:47:59Z</time></trkpt><trkpt lat="44.428766458762816" lon="8.767914792389558"><ele>12.399999999999999</ele><time>2026-04-06T06:48:00Z</time></trkpt><trkpt lat="44.428738514779205" lon="8.768055425444633"><ele>12.2</ele><time>2026-04-06T06:48:01Z</time></trkpt><trkpt lat="44.42870923431014" lon="8.768186497623136"><ele>12.0</ele><time>2026-04-06T06:48:02Z</time></trkpt><trkpt lat="44.42866868286883" lon="8.768308444660224"><ele>12.0</ele><time>2026-04-06T06:48:03Z</time></trkpt><trkpt lat="44.428628508796685" lon="8.768432720639378"><ele>12.0</ele><time>2026-04-06T06:48:04Z</time></trkpt><trkpt lat="44.42858109092856" lon="8.768554076157603"><ele>12.0</ele><time>2026-04-06T06:48:05Z</time></trkpt><trkpt lat="44.42852261118123" lon="8.768661546185768"><ele>12.0</ele><time>2026-04-06T06:48:06Z</time></trkpt><trkpt lat="44.42846096086905" lon="8.768752565407496"><ele>12.0</ele><time>2026-04-06T06:48:07Z</time></trkpt><trkpt lat="44.4283937123424" lon="8.76883886770688"><ele>11.5</ele><time>2026-04-06T06:48:08Z</time></trkpt><trkpt lat="44.428324929030836" lon="8.768918234059994"><ele>11.0</ele><time>2026-04-06T06:48:09Z</time></trkpt><trkpt lat="44.428253059947586" lon="8.768984361965904"><ele>10.5</ele><time>2026-04-06T06:48:10Z</time></trkpt><trkpt lat="44.4281784455562" lon="8.769040446680723"><ele>10.0</ele><time>2026-04-06T06:48:11Z</time></trkpt><trkpt lat="44.42811490666636" lon="8.769077249584184"><ele>9.5</ele><time>2026-04-06T06:48:12Z</time></trkpt><trkpt lat="44.42801474231291" lon="8.769078610317784"><ele>9.0</ele><time>2026-04-06T06:48:14Z</time></trkpt><trkpt lat="44.42796002944146" lon="8.768921479149755"><ele>9.0</ele><time>2026-04-06T06:48:16Z</time></trkpt><trkpt lat="44.42797350231071" lon="8.768797667265416"><ele>9.0</ele><time>2026-04-06T06:48:17Z</time></trkpt><trkpt lat="44.42800835702974" lon="8.768665197246245"><ele>9.0</ele><time>2026-04-06T06:48:18Z</time></trkpt><trkpt lat="44.42800059083082" lon="8.7685248855029"><ele>9.0</ele><time>2026-04-06T06:48:19Z</time></trkpt><trkpt lat="44.42801927873275" lon="8.768369028341558"><ele>9.0</ele><time>2026-04-06T06:48:20Z</time></trkpt><trkpt lat="44.4280244553241" lon="8.768220204553247"><ele>9.0</ele><time>2026-04-06T06:48:21Z</time></trkpt><trkpt lat="44.42803541523329" lon="8.768078654163178"><ele>9.0</ele><time>2026-04-06T06:48:22Z</time></trkpt><trkpt lat="44.428043948979095" lon="8.76791798315263"><ele>9.0</ele><time>2026-04-06T06:48:23Z</time></trkpt><trkpt lat="44.42805319132074" lon="8.767754633919699"><ele>9.0</ele><time>2026-04-06T06:48:24Z</time></trkpt><trkpt lat="44.428064009860705" lon="8.767580967881495"><ele>9.0</ele><time>2026-04-06T06:48:25Z</time></trkpt><trkpt lat="44.42807499739017" lon="8.767401992898723"><ele>9.0</ele><time>2026-04-06T06:48:26Z</time></trkpt><trkpt lat="44.42808545477066" lon="8.767228732702492"><ele>9.0</ele><time>2026-04-06T06:48:27Z</time></trkpt><trkpt lat="44.42809398507542" lon="8.767044752452632"><ele>9.0</ele><time>2026-04-06T06:48:28Z</time></trkpt><trkpt lat="44.42810443496526" lon="8.766863083717606"><ele>8.5</ele><time>2026-04-06T06:48:29Z</time></trkpt><trkpt lat="44.42811451591293" lon="8.766679151118096"><ele>8.0</ele><time>2026-04-06T06:48:30Z</time></trkpt><trkpt lat="44.42812414321" lon="8.76649807056514"><ele>7.5</ele><time>2026-04-06T06:48:31Z</time></trkpt><trkpt lat="44.428131665215325" lon="8.766311604835533"><ele>7.0</ele><time>2026-04-06T06:48:32Z</time></trkpt><trkpt lat="44.428134858125276" lon="8.766125606831038"><ele>7.0</ele><time>2026-04-06T06:48:33Z</time></trkpt><trkpt lat="44.428141284933794" lon="8.765942503250129"><ele>7.0</ele><time>2026-04-06T06:48:34Z</time></trkpt><trkpt lat="44.42815150466187" lon="8.765760389381239"><ele>7.0</ele><time>2026-04-06T06:48:35Z</time></trkpt><trkpt lat="44.428161792733455" lon="8.765576871993577"><ele>7.0</ele><time>2026-04-06T06:48:36Z</time></trkpt><trkpt lat="44.42816861360754" lon="8.76539414863993"><ele>7.0</ele><time>2026-04-06T06:48:37Z</time></trkpt><trkpt lat="44.428175353611095" lon="8.765214788400929"><ele>7.0</ele><time>2026-04-06T06:48:38Z</time></trkpt><trkpt lat="44.42818540466769" lon="8.765030170778049"><ele>7.0</ele><time>2026-04-06T06:48:39Z</time></trkpt><trkpt lat="44.4281963385427" lon="8.764846818281923"><ele>7.0</ele><time>2026-04-06T06:48:40Z</time></trkpt><trkpt lat="44.4282053577758" lon="8.764660713729887"><ele>7.0</ele><time>2026-04-06T06:48:41Z</time></trkpt><trkpt lat="44.428210378701266" lon="8.764474691074993"><ele>7.0</ele><time>2026-04-06T06:48:42Z</time></trkpt><trkpt lat="44.428218677807195" lon="8.764290369665867"><ele>7.0</ele><time>2026-04-06T06:48:43Z</time></trkpt><trkpt lat="44.42822624186329" lon="8.764100183079327"><ele>7.0</ele><time>2026-04-06T06:48:44Z</time></trkpt><trkpt lat="44.428234312933114" lon="8.76391181775407"><ele>7.0</ele><time>2026-04-06T06:48:45Z</time></trkpt><trkpt lat="44.42824211913259" lon="8.763727059382827"><ele>7.0</ele><time>2026-04-06T06:48:46Z</time></trkpt><trkpt lat="44.42824871400107" lon="8.763539299733985"><ele>7.0</ele><time>2026-04-06T06:48:47Z</time></trkpt><trkpt lat="44.42825346667263" lon="8.763358262350408"><ele>7.0</ele><time>2026-04-06T06:48:48Z</time></trkpt><trkpt lat="44.42826053761548" lon="8.763179441457163"><ele>6.75</ele><time>2026-04-06T06:48:49Z</time></trkpt><trkpt lat="44.4282672718288" lon="8.763002345756357"><ele>6.5</ele><time>2026-04-06T06:48:50Z</time></trkpt><trkpt lat="44.428282113853776" lon="8.76283204624563"><ele>6.25</ele><time>2026-04-06T06:48:51Z</time></trkpt><trkpt lat="44.428307105360446" lon="8.762669146944047"><ele>6.0</ele><time>2026-04-06T06:48:52Z</time></trkpt><trkpt lat="44.42833987992384" lon="8.762503650528762"><ele>6.4</ele><time>2026-04-06T06:48:53Z</time></trkpt><trkpt lat="44.428375010213884" lon="8.762340262335425"><ele>6.8</ele><time>2026-04-06T06:48:54Z</time></trkpt><trkpt lat="44.428409588680616" lon="8.762181220636652"><ele>7.200000000000001</ele><time>2026-04-06T06:48:55Z</time></trkpt><trkpt lat="44.42844115152816" lon="8.762036850418077"><ele>7.6000000000000005</ele><time>2026-04-06T06:48:56Z</time></trkpt><trkpt lat="44.42846711503834" lon="8.761900196771725"><ele>8.0</ele><time>2026-04-06T06:48:57Z</time></trkpt><trkpt lat="44.42849186931977" lon="8.761764717489049"><ele>8.0</ele><time>2026-04-06T06:48:58Z</time></trkpt><trkpt lat="44.428527789833055" lon="8.761628016205925"><ele>8.0</ele><time>2026-04-06T06:48:59Z</time></trkpt><trkpt lat="44.42855874148911" lon="8.761482580163937"><ele>8.0</ele><time>2026-04-06T06:49:00Z</time></trkpt><trkpt lat="44.428583731859966" lon="8.761325223100382"><ele>8.0</ele><time>2026-04-06T06:49:01Z</time></trkpt><trkpt lat="44.42860374865518" lon="8.761175647295355"><ele>8.0</ele><time>2026-04-06T06:49:02Z</time></trkpt><trkpt lat="44.428623235876415" lon="8.761009485261532"><ele>7.5</ele><time>2026-04-06T06:49:03Z</time></trkpt><trkpt lat="44.42865307553642" lon="8.760850820512141"><ele>7.0</ele><time>2026-04-06T06:49:04Z</time></trkpt><trkpt lat="44.42867767968298" lon="8.760698994018727"><ele>6.5</ele><time>2026-04-06T06:49:04.999Z</time></trkpt><trkpt lat="44.42869886680698" lon="8.760534721661879"><ele>6.0</ele><time>2026-04-06T06:49:05.999Z</time></trkpt><trkpt lat="44.428724595742025" lon="8.76037322086836"><ele>6.0</ele><time>2026-04-06T06:49:06.999Z</time></trkpt><trkpt lat="44.428750025598575" lon="8.76021752927016"><ele>6.0</ele><time>2026-04-06T06:49:07.999Z</time></trkpt><trkpt lat="44.42880048046151" lon="8.759912101064891"><ele>6.0</ele><time>2026-04-06T06:49:09.999Z</time></trkpt><trkpt lat="44.42881633914465" lon="8.759754760110331"><ele>9.0</ele><time>2026-04-06T06:49:10.999Z</time></trkpt><trkpt lat="44.42883732662432" lon="8.759595070433676"><ele>12.0</ele><time>2026-04-06T06:49:11.999Z</time></trkpt><trkpt lat="44.428872693091066" lon="8.759448204247567"><ele>15.000000000000002</ele><time>2026-04-06T06:49:12.999Z</time></trkpt><trkpt lat="44.428898576324485" lon="8.759340463058361"><ele>18.0</ele><time>2026-04-06T06:49:13.999Z</time></trkpt><trkpt lat="44.42891069579721" lon="8.759222701655382"><ele>21.0</ele><time>2026-04-06T06:49:14.999Z</time></trkpt><trkpt lat="44.42890624841226" lon="8.759096246750458"><ele>21.0</ele><time>2026-04-06T06:49:15.999Z</time></trkpt><trkpt lat="44.428902886880145" lon="8.758988609285911"><ele>21.0</ele><time>2026-04-06T06:49:16.999Z</time></trkpt><trkpt lat="44.428900793904525" lon="8.75889278539531"><ele>21.0</ele><time>2026-04-06T06:49:17.999Z</time></trkpt><trkpt lat="44.4289075776268" lon="8.758801848749568"><ele>21.0</ele><time>2026-04-06T06:49:18.999Z</time></trkpt><trkpt lat="44.4289393885827" lon="8.75861937793951"><ele>21.0</ele><time>2026-04-06T06:49:20.999Z</time></trkpt><trkpt lat="44.42899444412536" lon="8.75852617678569"><ele>21.0</ele><time>2026-04-06T06:49:21.999Z</time></trkpt><trkpt lat="44.42906625401334" lon="8.758460259213564"><ele>20.333333333333332</ele><time>2026-04-06T06:49:22.999Z</time></trkpt><trkpt lat="44.42914094573473" lon="8.75841152138595"><ele>19.666666666666668</ele><time>2026-04-06T06:49:23.999Z</time></trkpt><trkpt lat="44.42921186420802" lon="8.758351409272016"><ele>19.0</ele><time>2026-04-06T06:49:24.999Z</time></trkpt><trkpt lat="44.429263279367795" lon="8.758265190771347"><ele>18.333333333333336</ele><time>2026-04-06T06:49:25.999Z</time></trkpt><trkpt lat="44.429296675623746" lon="8.758154060947774"><ele>17.666666666666668</ele><time>2026-04-06T06:49:26.999Z</time></trkpt><trkpt lat="44.42931439985627" lon="8.758027250956243"><ele>17.0</ele><time>2026-04-06T06:49:27.999Z</time></trkpt><trkpt lat="44.42932967913911" lon="8.757900546062753"><ele>17.0</ele><time>2026-04-06T06:49:28.999Z</time></trkpt><trkpt lat="44.429332738272215" lon="8.75777988786084"><ele>17.0</ele><time>2026-04-06T06:49:29.999Z</time></trkpt><trkpt lat="44.42934674097176" lon="8.757650567853437"><ele>17.0</ele><time>2026-04-06T06:49:31Z</time></trkpt><trkpt lat="44.429352168603664" lon="8.757503446807426"><ele>17.0</ele><time>2026-04-06T06:49:32Z</time></trkpt><trkpt lat="44.42936934666327" lon="8.757366219946382"><ele>17.0</ele><time>2026-04-06T06:49:33Z</time></trkpt><trkpt lat="44.42938568247856" lon="8.757237177082816"><ele>17.0</ele><time>2026-04-06T06:49:34Z</time></trkpt><trkpt lat="44.42939242212994" lon="8.757106326826918"><ele>17.0</ele><time>2026-04-06T06:49:35Z</time></trkpt><trkpt lat="44.42940131729755" lon="8.75696015501488"><ele>17.0</ele><time>2026-04-06T06:49:36Z</time></trkpt><trkpt lat="44.429410552168235" lon="8.756814241845845"><ele>17.0</ele><time>2026-04-06T06:49:37Z</time></trkpt><trkpt lat="44.42942245633413" lon="8.756652861837363"><ele>17.0</ele><time>2026-04-06T06:49:38Z</time></trkpt><trkpt lat="44.429436077881356" lon="8.75649280434604"><ele>17.0</ele><time>2026-04-06T06:49:39Z</time></trkpt><trkpt lat="44.42944321388614" lon="8.756339672881282"><ele>17.0</ele><time>2026-04-06T06:49:40Z</time></trkpt><trkpt lat="44.42944887845488" lon="8.756187019922734"><ele>17.0</ele><time>2026-04-06T06:49:41Z</time></trkpt><trkpt lat="44.42946188396705" lon="8.756035199969324"><ele>17.0</ele><time>2026-04-06T06:49:42Z</time></trkpt><trkpt lat="44.42946428335522" lon="8.75588203575469"><ele>17.0</ele><time>2026-04-06T06:49:43Z</time></trkpt><trkpt lat="44.42947499379068" lon="8.755738730134016"><ele>17.0</ele><time>2026-04-06T06:49:44Z</time></trkpt><trkpt lat="44.42947157759013" lon="8.755585443730716"><ele>17.0</ele><time>2026-04-06T06:49:45Z</time></trkpt><trkpt lat="44.42947931471365" lon="8.75544530590923"><ele>17.0</ele><time>2026-04-06T06:49:46Z</time></trkpt><trkpt lat="44.42948594471648" lon="8.755300440586321"><ele>17.0</ele><time>2026-04-06T06:49:47Z</time></trkpt><trkpt lat="44.4294962085652" lon="8.755142832167802"><ele>17.0</ele><time>2026-04-06T06:49:48Z</time></trkpt><trkpt lat="44.42950095262307" lon="8.75498472549777"><ele>16.8</ele><time>2026-04-06T06:49:49Z</time></trkpt><trkpt lat="44.429508256098494" lon="8.754835014136109"><ele>16.6</ele><time>2026-04-06T06:49:50Z</time></trkpt><trkpt lat="44.42950862799449" lon="8.754693483721454"><ele>16.400000000000002</ele><time>2026-04-06T06:49:51Z</time></trkpt><trkpt lat="44.42952315212861" lon="8.754549811318405"><ele>16.2</ele><time>2026-04-06T06:49:52Z</time></trkpt><trkpt lat="44.42953150758114" lon="8.754411938472181"><ele>16.0</ele><time>2026-04-06T06:49:53Z</time></trkpt><trkpt lat="44.4295466683423" lon="8.754268127852063"><ele>15.200000000000001</ele><time>2026-04-06T06:49:54Z</time></trkpt><trkpt lat="44.429570997439484" lon="8.754124107555402"><ele>14.400000000000002</ele><time>2026-04-06T06:49:55Z</time></trkpt><trkpt lat="44.42960555354976" lon="8.753986483782539"><ele>13.6</ele><time>2026-04-06T06:49:56Z</time></trkpt><trkpt lat="44.429640371017285" lon="8.753856733448668"><ele>12.8</ele><time>2026-04-06T06:49:57Z</time></trkpt><trkpt lat="44.429669137173676" lon="8.753729828478427"><ele>12.0</ele><time>2026-04-06T06:49:58Z</time></trkpt><trkpt lat="44.42970673529277" lon="8.75360474105214"><ele>12.833333333333334</ele><time>2026-04-06T06:49:59Z</time></trkpt><trkpt lat="44.429737812939415" lon="8.75347660669736"><ele>13.666666666666668</ele><time>2026-04-06T06:50:00Z</time></trkpt><trkpt lat="44.429767445586215" lon="8.753354894375393"><ele>14.5</ele><time>2026-04-06T06:50:01Z</time></trkpt><trkpt lat="44.42979129289281" lon="8.753228673199798"><ele>15.333333333333334</ele><time>2026-04-06T06:50:02Z</time></trkpt><trkpt lat="44.429820311046605" lon="8.753129048868782"><ele>16.166666666666668</ele><time>2026-04-06T06:50:03Z</time></trkpt><trkpt lat="44.42984761117618" lon="8.753031842598235"><ele>17.0</ele><time>2026-04-06T06:50:04Z</time></trkpt><trkpt lat="44.429864700931255" lon="8.752941081139983"><ele>17.0</ele><time>2026-04-06T06:50:05Z</time></trkpt><trkpt lat="44.42991804407847" lon="8.752780134965946"><ele>17.0</ele><time>2026-04-06T06:50:07Z</time></trkpt><trkpt lat="44.429945720099916" lon="8.75266908549198"><ele>17.0</ele><time>2026-04-06T06:50:08Z</time></trkpt><trkpt lat="44.42998374923573" lon="8.752581565494648"><ele>17.0</ele><time>2026-04-06T06:50:09Z</time></trkpt><trkpt lat="44.43006265941818" lon="8.752531766884372"><ele>17.0</ele><time>2026-04-06T06:50:10Z</time></trkpt><trkpt lat="44.43014529417137" lon="8.752539117903142"><ele>16.8</ele><time>2026-04-06T06:50:11Z</time></trkpt><trkpt lat="44.43022932758662" lon="8.752571734181886"><ele>16.6</ele><time>2026-04-06T06:50:12Z</time></trkpt><trkpt lat="44.43032005799347" lon="8.752578168200548"><ele>16.400000000000002</ele><time>2026-04-06T06:50:13Z</time></trkpt><trkpt lat="44.43041100793294" lon="8.752551069484511"><ele>16.2</ele><time>2026-04-06T06:50:14Z</time></trkpt><trkpt lat="44.43050334165459" lon="8.752514356009568"><ele>16.0</ele><time>2026-04-06T06:50:15Z</time></trkpt><trkpt lat="44.43059257703745" lon="8.752465889403528"><ele>15.999999999999998</ele><time>2026-04-06T06:50:16Z</time></trkpt><trkpt lat="44.430679430696024" lon="8.752422160442224"><ele>16.0</ele><time>2026-04-06T06:50:17Z</time></trkpt><trkpt lat="44.43074900114534" lon="8.752367368004144"><ele>16.0</ele><time>2026-04-06T06:50:18Z</time></trkpt><trkpt lat="44.430808637299" lon="8.752300978237498"><ele>16.0</ele><time>2026-04-06T06:50:19Z</time></trkpt><trkpt lat="44.43085965003158" lon="8.752233168023876"><ele>15.999999999999998</ele><time>2026-04-06T06:50:20Z</time></trkpt><trkpt lat="44.43090292066134" lon="8.752159727034286"><ele>16.0</ele><time>2026-04-06T06:50:21Z</time></trkpt><trkpt lat="44.43096623894068" lon="8.752024723465572"><ele>15.999999999999998</ele><time>2026-04-06T06:50:23Z</time></trkpt><trkpt lat="44.431041045661395" lon="8.751914415556318"><ele>16.0</ele><time>2026-04-06T06:50:25Z</time></trkpt><trkpt lat="44.43110904779133" lon="8.751805475686385"><ele>16.0</ele><time>2026-04-06T06:50:27Z</time></trkpt><trkpt lat="44.43116382808835" lon="8.751720604902786"><ele>16.0</ele><time>2026-04-06T06:50:29Z</time></trkpt><trkpt lat="44.43121508247404" lon="8.751637949792299"><ele>15.999999999999998</ele><time>2026-04-06T06:50:31Z</time></trkpt><trkpt lat="44.431262505743106" lon="8.751577111058973"><ele>16.0</ele><time>2026-04-06T06:50:33Z</time></trkpt><trkpt lat="44.43132567859264" lon="8.751532507410698"><ele>15.4</ele><time>2026-04-06T06:50:35Z</time></trkpt><trkpt lat="44.43138732063883" lon="8.751465503237968"><ele>14.8</ele><time>2026-04-06T06:50:38Z</time></trkpt><trkpt lat="44.43144998216751" lon="8.751401639969146"><ele>14.200000000000001</ele><time>2026-04-06T06:59:52.999Z</time></trkpt><trkpt lat="44.431472813408725" lon="8.751309495392608"><ele>13.600000000000001</ele><time>2026-04-06T06:59:55.999Z</time></trkpt><trkpt lat="44.431492540404605" lon="8.75107296861818"><ele>13.0</ele><time>2026-04-06T07:00:06.001Z</time></trkpt><trkpt lat="44.43155233832051" lon="8.750968177744584"><ele>12.999999999999998</ele><time>2026-04-06T07:00:07.001Z</time></trkpt><trkpt lat="44.431594926040816" lon="8.750874029016863"><ele>13.0</ele><time>2026-04-06T07:00:08.001Z</time></trkpt><trkpt lat="44.43164403326077" lon="8.7507844065682"><ele>13.0</ele><time>2026-04-06T07:00:09.001Z</time></trkpt><trkpt lat="44.43169279907096" lon="8.75069906715337"><ele>13.0</ele><time>2026-04-06T07:00:10.001Z</time></trkpt><trkpt lat="44.43174506064677" lon="8.750607648353235"><ele>12.999999999999998</ele><time>2026-04-06T07:00:11.001Z</time></trkpt><trkpt lat="44.43179023605987" lon="8.750510770690937"><ele>13.0</ele><time>2026-04-06T07:00:12.001Z</time></trkpt><trkpt lat="44.43183119496784" lon="8.750409126993565"><ele>12.999999999999998</ele><time>2026-04-06T07:00:13.001Z</time></trkpt><trkpt lat="44.431885668319666" lon="8.750307790413286"><ele>13.0</ele><time>2026-04-06T07:00:14.001Z</time></trkpt><trkpt lat="44.43193990099161" lon="8.750200305952758"><ele>13.0</ele><time>2026-04-06T07:00:15.001Z</time></trkpt><trkpt lat="44.43199194139934" lon="8.75009327895017"><ele>13.0</ele><time>2026-04-06T07:00:16.001Z</time></trkpt><trkpt lat="44.43203714348464" lon="8.749988803901402"><ele>12.999999999999998</ele><time>2026-04-06T07:00:17.001Z</time></trkpt><trkpt lat="44.43207927880139" lon="8.74989076491706"><ele>13.0</ele><time>2026-04-06T07:00:18.001Z</time></trkpt><trkpt lat="44.43212267009289" lon="8.749776848897678"><ele>13.2</ele><time>2026-04-06T07:00:19.001Z</time></trkpt><trkpt lat="44.43216940342359" lon="8.749682270886327"><ele>13.4</ele><time>2026-04-06T07:00:20Z</time></trkpt><trkpt lat="44.43222287021912" lon="8.749591174307884"><ele>13.599999999999998</ele><time>2026-04-06T07:00:21Z</time></trkpt><trkpt lat="44.43228441366737" lon="8.74948617706537"><ele>13.799999999999999</ele><time>2026-04-06T07:00:22Z</time></trkpt><trkpt lat="44.43234909663293" lon="8.749374752981662"><ele>14.0</ele><time>2026-04-06T07:00:23Z</time></trkpt><trkpt lat="44.432418146523155" lon="8.749257600769672"><ele>14.0</ele><time>2026-04-06T07:00:24Z</time></trkpt><trkpt lat="44.43249007212269" lon="8.749136174107887"><ele>14.0</ele><time>2026-04-06T07:00:25Z</time></trkpt><trkpt lat="44.432561261120725" lon="8.749020708209658"><ele>14.0</ele><time>2026-04-06T07:00:26Z</time></trkpt><trkpt lat="44.432649181357235" lon="8.748903971469609"><ele>14.0</ele><time>2026-04-06T07:00:27Z</time></trkpt><trkpt lat="44.4327452825677" lon="8.748785056121134"><ele>14.0</ele><time>2026-04-06T07:00:28Z</time></trkpt><trkpt lat="44.43282819931036" lon="8.748648691243169"><ele>14.0</ele><time>2026-04-06T07:00:29Z</time></trkpt><trkpt lat="44.43291072180295" lon="8.748513357957679"><ele>14.0</ele><time>2026-04-06T07:00:30Z</time></trkpt><trkpt lat="44.432995257395184" lon="8.748372387920874"><ele>14.0</ele><time>2026-04-06T07:00:31Z</time></trkpt><trkpt lat="44.433080915354836" lon="8.748241294717694"><ele>16.5</ele><time>2026-04-06T07:00:32Z</time></trkpt><trkpt lat="44.433167506966655" lon="8.748124645021349"><ele>19.0</ele><time>2026-04-06T07:00:33Z</time></trkpt><trkpt lat="44.433261291872455" lon="8.748000514249057"><ele>21.5</ele><time>2026-04-06T07:00:34Z</time></trkpt><trkpt lat="44.43336000833702" lon="8.747889700858334"><ele>24.0</ele><time>2026-04-06T07:00:35Z</time></trkpt><trkpt lat="44.43345962671188" lon="8.747793489225606"><ele>24.0</ele><time>2026-04-06T07:00:36Z</time></trkpt><trkpt lat="44.433544559152374" lon="8.747702686276355"><ele>24.0</ele><time>2026-04-06T07:00:37Z</time></trkpt><trkpt lat="44.43363049008602" lon="8.747632886070111"><ele>24.0</ele><time>2026-04-06T07:00:38Z</time></trkpt><trkpt lat="44.43371949867169" lon="8.747570673553891"><ele>24.0</ele><time>2026-04-06T07:00:39Z</time></trkpt><trkpt lat="44.43381682246178" lon="8.747549776904965"><ele>24.0</ele><time>2026-04-06T07:00:40Z</time></trkpt><trkpt lat="44.43394251183232" lon="8.747597639390243"><ele>22.75</ele><time>2026-04-06T07:00:41Z</time></trkpt><trkpt lat="44.43405385379153" lon="8.74765267942522"><ele>21.5</ele><time>2026-04-06T07:00:42Z</time></trkpt><trkpt lat="44.43416536511079" lon="8.747709255927022"><ele>20.25</ele><time>2026-04-06T07:00:43Z</time></trkpt><trkpt lat="44.434277647506" lon="8.747751274797446"><ele>19.0</ele><time>2026-04-06T07:00:44Z</time></trkpt><trkpt lat="44.4344008341482" lon="8.747767876754315"><ele>21.75</ele><time>2026-04-06T07:00:45Z</time></trkpt><trkpt lat="44.43450706064024" lon="8.747762074158333"><ele>24.5</ele><time>2026-04-06T07:00:46Z</time></trkpt><trkpt lat="44.4346312073347" lon="8.747735451414439"><ele>27.25</ele><time>2026-04-06T07:00:47Z</time></trkpt><trkpt lat="44.43473907720612" lon="8.747650297003306"><ele>30.0</ele><time>2026-04-06T07:00:48Z</time></trkpt><trkpt lat="44.43482131501668" lon="8.747520923732383"><ele>30.0</ele><time>2026-04-06T07:00:49Z</time></trkpt><trkpt lat="44.43489015373681" lon="8.7473585710406"><ele>30.0</ele><time>2026-04-06T07:00:50Z</time></trkpt><trkpt lat="44.434941270032255" lon="8.747178553143282"><ele>30.0</ele><time>2026-04-06T07:00:51Z</time></trkpt><trkpt lat="44.43498569905362" lon="8.746994919310165"><ele>30.0</ele><time>2026-04-06T07:00:52Z</time></trkpt><trkpt lat="44.43504884462546" lon="8.746832959805714"><ele>26.5</ele><time>2026-04-06T07:00:53Z</time></trkpt><trkpt lat="44.435099273348655" lon="8.746673113540238"><ele>23.0</ele><time>2026-04-06T07:00:54Z</time></trkpt><trkpt lat="44.43515106660576" lon="8.746516702551302"><ele>19.5</ele><time>2026-04-06T07:00:55Z</time></trkpt><trkpt lat="44.43521240435593" lon="8.746370528290807"><ele>16.0</ele><time>2026-04-06T07:00:56Z</time></trkpt><trkpt lat="44.43529874793877" lon="8.7462514896064"><ele>16.0</ele><time>2026-04-06T07:00:57Z</time></trkpt><trkpt lat="44.43539745518803" lon="8.746147057185873"><ele>16.0</ele><time>2026-04-06T07:00:58Z</time></trkpt><trkpt lat="44.435507833527105" lon="8.746090426807461"><ele>16.0</ele><time>2026-04-06T07:00:59Z</time></trkpt><trkpt lat="44.43562725818571" lon="8.74606568897988"><ele>16.0</ele><time>2026-04-06T07:01:00Z</time></trkpt><trkpt lat="44.43575073235484" lon="8.746093324299109"><ele>18.0</ele><time>2026-04-06T07:01:01Z</time></trkpt><trkpt lat="44.43587685000402" lon="8.746129339991592"><ele>20.0</ele><time>2026-04-06T07:01:02Z</time></trkpt><trkpt lat="44.436005466107055" lon="8.746165593098025"><ele>22.0</ele><time>2026-04-06T07:01:03Z</time></trkpt><trkpt lat="44.436129552919766" lon="8.746175793976436"><ele>24.0</ele><time>2026-04-06T07:01:04Z</time></trkpt><trkpt lat="44.43626487854829" lon="8.746191719230186"><ele>27.5</ele><time>2026-04-06T07:01:05Z</time></trkpt><trkpt lat="44.43639712528351" lon="8.746204776222429"><ele>31.0</ele><time>2026-04-06T07:01:06Z</time></trkpt><trkpt lat="44.436525487440356" lon="8.746222317766494"><ele>34.5</ele><time>2026-04-06T07:01:07Z</time></trkpt><trkpt lat="44.43666089372604" lon="8.746221288791348"><ele>38.0</ele><time>2026-04-06T07:01:08Z</time></trkpt><trkpt lat="44.436798712387414" lon="8.7462129667038"><ele>38.0</ele><time>2026-04-06T07:01:09Z</time></trkpt><trkpt lat="44.43693696575811" lon="8.746205734847305"><ele>38.0</ele><time>2026-04-06T07:01:10Z</time></trkpt><trkpt lat="44.43707817687666" lon="8.746200520866864"><ele>38.0</ele><time>2026-04-06T07:01:11Z</time></trkpt><trkpt lat="44.43722580201283" lon="8.746195563424076"><ele>38.0</ele><time>2026-04-06T07:01:12Z</time></trkpt><trkpt lat="44.43736784363178" lon="8.746191049139622"><ele>36.25</ele><time>2026-04-06T07:01:13Z</time></trkpt><trkpt lat="44.4375077183066" lon="8.746189420048905"><ele>34.5</ele><time>2026-04-06T07:01:14Z</time></trkpt><trkpt lat="44.43764705373688" lon="8.746185462164979"><ele>32.75</ele><time>2026-04-06T07:01:15Z</time></trkpt><trkpt lat="44.43778892253125" lon="8.746181677638365"><ele>31.0</ele><time>2026-04-06T07:01:16Z</time></trkpt><trkpt lat="44.437939305699224" lon="8.746178790614731"><ele>31.333333333333336</ele><time>2026-04-06T07:01:17Z</time></trkpt><trkpt lat="44.438095159919285" lon="8.74617586450193"><ele>31.666666666666664</ele><time>2026-04-06T07:01:18Z</time></trkpt><trkpt lat="44.43825064668069" lon="8.746156914589228"><ele>32.0</ele><time>2026-04-06T07:01:19Z</time></trkpt><trkpt lat="44.438399472183754" lon="8.746150411316796"><ele>32.0</ele><time>2026-04-06T07:01:20Z</time></trkpt><trkpt lat="44.438551030172185" lon="8.74612714147845"><ele>32.0</ele><time>2026-04-06T07:01:21Z</time></trkpt><trkpt lat="44.43868975400909" lon="8.74611507145832"><ele>32.0</ele><time>2026-04-06T07:01:22Z</time></trkpt><trkpt lat="44.438825184628065" lon="8.746110085630992"><ele>32.0</ele><time>2026-04-06T07:01:23Z</time></trkpt><trkpt lat="44.43895271166556" lon="8.746096732658177"><ele>31.5</ele><time>2026-04-06T07:01:24Z</time></trkpt><trkpt lat="44.4390872007595" lon="8.74609213518567"><ele>31.0</ele><time>2026-04-06T07:01:25Z</time></trkpt><trkpt lat="44.43922304351726" lon="8.746085782752333"><ele>30.5</ele><time>2026-04-06T07:01:26Z</time></trkpt><trkpt lat="44.43935341881777" lon="8.746075330483091"><ele>30.0</ele><time>2026-04-06T07:01:27Z</time></trkpt><trkpt lat="44.4394789354317" lon="8.746063555946252"><ele>30.0</ele><time>2026-04-06T07:01:28Z</time></trkpt><trkpt lat="44.439603363905995" lon="8.746065656333744"><ele>30.0</ele><time>2026-04-06T07:01:29Z</time></trkpt><trkpt lat="44.43973368724702" lon="8.7460866428661"><ele>30.0</ele><time>2026-04-06T07:01:30Z</time></trkpt><trkpt lat="44.43983887059277" lon="8.746129814136914"><ele>30.0</ele><time>2026-04-06T07:01:31Z</time></trkpt><trkpt lat="44.43994776581435" lon="8.74618682307144"><ele>30.5</ele><time>2026-04-06T07:01:32Z</time></trkpt><trkpt lat="44.4400631053584" lon="8.746260806470207"><ele>31.0</ele><time>2026-04-06T07:01:33Z</time></trkpt><trkpt lat="44.440169920564124" lon="8.74636499795259"><ele>31.5</ele><time>2026-04-06T07:01:34Z</time></trkpt><trkpt lat="44.4402685717238" lon="8.746477923230918"><ele>32.0</ele><time>2026-04-06T07:01:35Z</time></trkpt><trkpt lat="44.44036476470529" lon="8.746591476196832"><ele>32.0</ele><time>2026-04-06T07:01:36Z</time></trkpt><trkpt lat="44.440465779940546" lon="8.746699475728883"><ele>32.0</ele><time>2026-04-06T07:01:37Z</time></trkpt><trkpt lat="44.44056137118912" lon="8.746808233176784"><ele>32.0</ele><time>2026-04-06T07:01:38Z</time></trkpt><trkpt lat="44.44062598715366" lon="8.746951134624542"><ele>32.0</ele><time>2026-04-06T07:01:39Z</time></trkpt><trkpt lat="44.44067239886413" lon="8.747096140550289"><ele>34.75</ele><time>2026-04-06T07:01:40Z</time></trkpt><trkpt lat="44.44074240202829" lon="8.747228310468861"><ele>37.5</ele><time>2026-04-06T07:01:41Z</time></trkpt><trkpt lat="44.44084802885381" lon="8.747317328834825"><ele>40.25</ele><time>2026-04-06T07:01:42Z</time></trkpt><trkpt lat="44.44097881829851" lon="8.747340694102048"><ele>43.0</ele><time>2026-04-06T07:01:43Z</time></trkpt><trkpt lat="44.4411162245808" lon="8.74730119845701"><ele>43.0</ele><time>2026-04-06T07:01:44Z</time></trkpt><trkpt lat="44.441250698609494" lon="8.747265679908715"><ele>43.0</ele><time>2026-04-06T07:01:45Z</time></trkpt><trkpt lat="44.44137058585557" lon="8.74723731700064"><ele>43.0</ele><time>2026-04-06T07:01:46Z</time></trkpt><trkpt lat="44.44149475634393" lon="8.747225488293978"><ele>43.0</ele><time>2026-04-06T07:01:47Z</time></trkpt><trkpt lat="44.441621121478974" lon="8.747218600260673"><ele>43.2</ele><time>2026-04-06T07:01:48Z</time></trkpt><trkpt lat="44.44173556967262" lon="8.747228431265436"><ele>43.4</ele><time>2026-04-06T07:01:49Z</time></trkpt><trkpt lat="44.441855929958585" lon="8.74724520026744"><ele>43.6</ele><time>2026-04-06T07:01:50Z</time></trkpt><trkpt lat="44.44195728287883" lon="8.747272649091483"><ele>43.800000000000004</ele><time>2026-04-06T07:01:51Z</time></trkpt><trkpt lat="44.44204961867479" lon="8.747299047679212"><ele>44.0</ele><time>2026-04-06T07:01:52Z</time></trkpt><trkpt lat="44.44212507403873" lon="8.747308308809506"><ele>42.400000000000006</ele><time>2026-04-06T07:01:53Z</time></trkpt><trkpt lat="44.44219066729846" lon="8.747317559513348"><ele>40.800000000000004</ele><time>2026-04-06T07:01:54Z</time></trkpt><trkpt lat="44.44225666283562" lon="8.747352520694767"><ele>39.2</ele><time>2026-04-06T07:01:55Z</time></trkpt><trkpt lat="44.442362364918736" lon="8.74737645438436"><ele>37.6</ele><time>2026-04-06T07:01:56Z</time></trkpt><trkpt lat="44.4424704143731" lon="8.747382900394202"><ele>36.0</ele><time>2026-04-06T07:01:57Z</time></trkpt><trkpt lat="44.442574744543855" lon="8.747402800425817"><ele>36.0</ele><time>2026-04-06T07:01:58Z</time></trkpt><trkpt lat="44.44267157126842" lon="8.747411399931309"><ele>36.0</ele><time>2026-04-06T07:01:59Z</time></trkpt><trkpt lat="44.44275877239982" lon="8.747429871056804"><ele>36.0</ele><time>2026-04-06T07:02:00Z</time></trkpt><trkpt lat="44.44283421213964" lon="8.747484595807347"><ele>36.0</ele><time>2026-04-06T07:02:01Z</time></trkpt><trkpt lat="44.44287079979449" lon="8.747587910874197"><ele>36.0</ele><time>2026-04-06T07:02:02Z</time></trkpt><trkpt lat="44.44288788675926" lon="8.747736949066"><ele>36.8</ele><time>2026-04-06T07:02:03Z</time></trkpt><trkpt lat="44.44285306056183" lon="8.747921990754335"><ele>37.6</ele><time>2026-04-06T07:02:04Z</time></trkpt><trkpt lat="44.44286161810218" lon="8.748078749700001"><ele>38.4</ele><time>2026-04-06T07:02:05Z</time></trkpt><trkpt lat="44.442868561179935" lon="8.748225658171162"><ele>39.2</ele><time>2026-04-06T07:02:06Z</time></trkpt><trkpt lat="44.442863633726155" lon="8.748355712502446"><ele>40.0</ele><time>2026-04-06T07:02:07Z</time></trkpt><trkpt lat="44.44286865665614" lon="8.74846604630418"><ele>40.333333333333336</ele><time>2026-04-06T07:02:08Z</time></trkpt><trkpt lat="44.442914261858675" lon="8.748544969901156"><ele>40.66666666666667</ele><time>2026-04-06T07:02:09Z</time></trkpt><trkpt lat="44.44299557994942" lon="8.7485574887815"><ele>41.0</ele><time>2026-04-06T07:02:10Z</time></trkpt><trkpt lat="44.44307347821993" lon="8.748495651621797"><ele>41.333333333333336</ele><time>2026-04-06T07:02:11Z</time></trkpt><trkpt lat="44.443110160407215" lon="8.748377922993123"><ele>41.666666666666664</ele><time>2026-04-06T07:02:12Z</time></trkpt><trkpt lat="44.44309750795817" lon="8.748221699073554"><ele>42.0</ele><time>2026-04-06T07:02:13Z</time></trkpt><trkpt lat="44.44306146975819" lon="8.748073061050437"><ele>43.6</ele><time>2026-04-06T07:02:14Z</time></trkpt><trkpt lat="44.443033976036176" lon="8.74792274944899"><ele>45.2</ele><time>2026-04-06T07:02:15Z</time></trkpt><trkpt lat="44.44301295600038" lon="8.74777039466093"><ele>46.8</ele><time>2026-04-06T07:02:16Z</time></trkpt><trkpt lat="44.44300480068622" lon="8.747631425446608"><ele>48.4</ele><time>2026-04-06T07:02:17Z</time></trkpt><trkpt lat="44.4429982010017" lon="8.747498186223309"><ele>50.0</ele><time>2026-04-06T07:02:18Z</time></trkpt><trkpt lat="44.442998840507926" lon="8.747366927995763"><ele>50.00000000000001</ele><time>2026-04-06T07:02:19Z</time></trkpt><trkpt lat="44.443029472549384" lon="8.747274369695349"><ele>50.0</ele><time>2026-04-06T07:02:20Z</time></trkpt><trkpt lat="44.44308514600449" lon="8.747223526888408"><ele>50.0</ele><time>2026-04-06T07:02:21Z</time></trkpt><trkpt lat="44.443154108813275" lon="8.74726935417968"><ele>50.0</ele><time>2026-04-06T07:02:22Z</time></trkpt><trkpt lat="44.44319312487653" lon="8.747368783195721"><ele>50.00000000000001</ele><time>2026-04-06T07:02:23Z</time></trkpt><trkpt lat="44.443180472363686" lon="8.74748659294468"><ele>50.0</ele><time>2026-04-06T07:02:24Z</time></trkpt><trkpt lat="44.443152357851446" lon="8.747625052197767"><ele>50.75</ele><time>2026-04-06T07:02:25Z</time></trkpt><trkpt lat="44.44312168692632" lon="8.747789899736752"><ele>51.5</ele><time>2026-04-06T07:02:26Z</time></trkpt><trkpt lat="44.443122030860664" lon="8.74796622277928"><ele>52.25</ele><time>2026-04-06T07:02:27Z</time></trkpt><trkpt lat="44.44315824128805" lon="8.748154904739867"><ele>53.0</ele><time>2026-04-06T07:02:28Z</time></trkpt><trkpt lat="44.44320339510927" lon="8.748342349826366"><ele>53.0</ele><time>2026-04-06T07:02:29Z</time></trkpt><trkpt lat="44.44325752197966" lon="8.748522251113666"><ele>53.0</ele><time>2026-04-06T07:02:30Z</time></trkpt><trkpt lat="44.443316213583735" lon="8.748698419471065"><ele>53.0</ele><time>2026-04-06T07:02:31Z</time></trkpt><trkpt lat="44.44338697109107" lon="8.748856012677136"><ele>53.0</ele><time>2026-04-06T07:02:32Z</time></trkpt><trkpt lat="44.44345686346957" lon="8.748991472423226"><ele>52.75</ele><time>2026-04-06T07:02:33Z</time></trkpt><trkpt lat="44.44349573998217" lon="8.749140202130073"><ele>52.5</ele><time>2026-04-06T07:02:34Z</time></trkpt><trkpt lat="44.443485256077814" lon="8.74931699910055"><ele>52.25</ele><time>2026-04-06T07:02:35Z</time></trkpt><trkpt lat="44.44346191186157" lon="8.74949957813441"><ele>52.0</ele><time>2026-04-06T07:02:36Z</time></trkpt><trkpt lat="44.44345102826891" lon="8.74967274974512"><ele>50.5</ele><time>2026-04-06T07:02:37Z</time></trkpt><trkpt lat="44.44345013106262" lon="8.749838181317713"><ele>49.0</ele><time>2026-04-06T07:02:38Z</time></trkpt><trkpt lat="44.443476467551584" lon="8.750011229209445"><ele>47.5</ele><time>2026-04-06T07:02:39Z</time></trkpt><trkpt lat="44.443546639716814" lon="8.75016967502788"><ele>46.0</ele><time>2026-04-06T07:02:40Z</time></trkpt><trkpt lat="44.44363339617141" lon="8.750321494681984"><ele>45.75</ele><time>2026-04-06T07:02:41Z</time></trkpt><trkpt lat="44.443731411374934" lon="8.750468010182622"><ele>45.5</ele><time>2026-04-06T07:02:42Z</time></trkpt><trkpt lat="44.443836926830315" lon="8.750598111142283"><ele>45.25</ele><time>2026-04-06T07:02:43Z</time></trkpt><trkpt lat="44.44395193519038" lon="8.750710350389713"><ele>45.0</ele><time>2026-04-06T07:02:44Z</time></trkpt><trkpt lat="44.44407065632541" lon="8.7508165560702"><ele>49.0</ele><time>2026-04-06T07:02:45Z</time></trkpt><trkpt lat="44.44418377226605" lon="8.750904450364796"><ele>53.0</ele><time>2026-04-06T07:02:46Z</time></trkpt><trkpt lat="44.444307252969686" lon="8.750949584290574"><ele>57.0</ele><time>2026-04-06T07:02:47Z</time></trkpt><trkpt lat="44.444443032234325" lon="8.75092905118016"><ele>61.0</ele><time>2026-04-06T07:02:48Z</time></trkpt><trkpt lat="44.44458022860363" lon="8.75087971580813"><ele>63.5</ele><time>2026-04-06T07:02:49Z</time></trkpt><trkpt lat="44.444708743105075" lon="8.750815931324697"><ele>66.0</ele><time>2026-04-06T07:02:50Z</time></trkpt><trkpt lat="44.4448325834091" lon="8.750728008766863"><ele>68.5</ele><time>2026-04-06T07:02:51Z</time></trkpt><trkpt lat="44.444951897316805" lon="8.75064439119443"><ele>71.0</ele><time>2026-04-06T07:02:52Z</time></trkpt><trkpt lat="44.44507242749976" lon="8.750576502394066"><ele>71.0</ele><time>2026-04-06T07:02:53Z</time></trkpt><trkpt lat="44.445187498242426" lon="8.750566400421262"><ele>71.0</ele><time>2026-04-06T07:02:54Z</time></trkpt><trkpt lat="44.44530340522234" lon="8.750608921118888"><ele>71.0</ele><time>2026-04-06T07:02:55Z</time></trkpt><trkpt lat="44.44541983633526" lon="8.750683274793916"><ele>71.0</ele><time>2026-04-06T07:02:56Z</time></trkpt><trkpt lat="44.44552590691991" lon="8.750759395915454"><ele>71.25</ele><time>2026-04-06T07:02:57Z</time></trkpt><trkpt lat="44.445633076520245" lon="8.750798509044934"><ele>71.5</ele><time>2026-04-06T07:02:58Z</time></trkpt><trkpt lat="44.4457520813471" lon="8.75077321356149"><ele>71.75</ele><time>2026-04-06T07:02:59Z</time></trkpt><trkpt lat="44.44586902368628" lon="8.750662346465543"><ele>72.0</ele><time>2026-04-06T07:03:00Z</time></trkpt><trkpt lat="44.44599076979843" lon="8.750536025703997"><ele>72.0</ele><time>2026-04-06T07:03:01Z</time></trkpt><trkpt lat="44.44611135513934" lon="8.750410405564486"><ele>72.0</ele><time>2026-04-06T07:03:02Z</time></trkpt><trkpt lat="44.4462339892706" lon="8.750285209736495"><ele>72.0</ele><time>2026-04-06T07:03:03Z</time></trkpt><trkpt lat="44.44634378635923" lon="8.750156362304425"><ele>72.0</ele><time>2026-04-06T07:03:04Z</time></trkpt><trkpt lat="44.446438043043614" lon="8.750013385037176"><ele>73.0</ele><time>2026-04-06T07:03:05Z</time></trkpt><trkpt lat="44.4465088322047" lon="8.749853314716654"><ele>74.0</ele><time>2026-04-06T07:03:06Z</time></trkpt><trkpt lat="44.44656593376128" lon="8.749693955633417"><ele>75.0</ele><time>2026-04-06T07:03:07Z</time></trkpt><trkpt lat="44.44664074934503" lon="8.749554810141417"><ele>76.0</ele><time>2026-04-06T07:03:08Z</time></trkpt><trkpt lat="44.446751848939165" lon="8.749475226749283"><ele>76.0</ele><time>2026-04-06T07:03:09Z</time></trkpt><trkpt lat="44.44689194070465" lon="8.749427852936769"><ele>76.0</ele><time>2026-04-06T07:03:10Z</time></trkpt><trkpt lat="44.44702715608456" lon="8.74940295762665"><ele>76.0</ele><time>2026-04-06T07:03:11Z</time></trkpt><trkpt lat="44.44715563219258" lon="8.749352473770122"><ele>76.0</ele><time>2026-04-06T07:03:12Z</time></trkpt><trkpt lat="44.44725722419932" lon="8.749243158273362"><ele>78.5</ele><time>2026-04-06T07:03:13Z</time></trkpt><trkpt lat="44.447348072664624" lon="8.749088902292328"><ele>81.0</ele><time>2026-04-06T07:03:14Z</time></trkpt><trkpt lat="44.44743954245694" lon="8.74894124357249"><ele>83.5</ele><time>2026-04-06T07:03:15Z</time></trkpt><trkpt lat="44.44754467232467" lon="8.748824392815811"><ele>86.0</ele><time>2026-04-06T07:03:16Z</time></trkpt><trkpt lat="44.4476687271346" lon="8.74873250068425"><ele>86.0</ele><time>2026-04-06T07:03:17Z</time></trkpt><trkpt lat="44.44778601639832" lon="8.74864821223712"><ele>86.0</ele><time>2026-04-06T07:03:18Z</time></trkpt><trkpt lat="44.44789356657675" lon="8.748553520357062"><ele>86.0</ele><time>2026-04-06T07:03:19Z</time></trkpt><trkpt lat="44.447969640767774" lon="8.748411509046912"><ele>86.0</ele><time>2026-04-06T07:03:20Z</time></trkpt><trkpt lat="44.448022432204844" lon="8.748239597510596"><ele>87.0</ele><time>2026-04-06T07:03:21Z</time></trkpt><trkpt lat="44.44807046568522" lon="8.748087560097272"><ele>88.0</ele><time>2026-04-06T07:03:22Z</time></trkpt><trkpt lat="44.448152579521754" lon="8.747968180510322"><ele>89.0</ele><time>2026-04-06T07:03:23Z</time></trkpt><trkpt lat="44.448274872742246" lon="8.747876006347111"><ele>90.0</ele><time>2026-04-06T07:03:24Z</time></trkpt><trkpt lat="44.44841600850574" lon="8.747821984774724"><ele>90.0</ele><time>2026-04-06T07:03:25Z</time></trkpt><trkpt lat="44.44856322544129" lon="8.747797267014185"><ele>90.0</ele><time>2026-04-06T07:03:26Z</time></trkpt><trkpt lat="44.44870223395428" lon="8.747777279434207"><ele>90.0</ele><time>2026-04-06T07:03:27Z</time></trkpt><trkpt lat="44.448834346964844" lon="8.747747703170052"><ele>90.0</ele><time>2026-04-06T07:03:28Z</time></trkpt><trkpt lat="44.4489786647302" lon="8.747719636907137"><ele>89.25</ele><time>2026-04-06T07:03:29Z</time></trkpt><trkpt lat="44.449129394169375" lon="8.747719579948651"><ele>88.5</ele><time>2026-04-06T07:03:30Z</time></trkpt><trkpt lat="44.449271747794555" lon="8.74775866619354"><ele>87.75</ele><time>2026-04-06T07:03:31Z</time></trkpt><trkpt lat="44.44941260769278" lon="8.747794182112308"><ele>87.0</ele><time>2026-04-06T07:03:32Z</time></trkpt><trkpt lat="44.44955000198495" lon="8.74784652359909"><ele>92.75</ele><time>2026-04-06T07:03:33Z</time></trkpt><trkpt lat="44.44966919315391" lon="8.747934873097115"><ele>98.5</ele><time>2026-04-06T07:03:34Z</time></trkpt><trkpt lat="44.44978638997269" lon="8.748064840794019"><ele>104.25</ele><time>2026-04-06T07:03:35Z</time></trkpt><trkpt lat="44.44990705008413" lon="8.74821236124796"><ele>110.0</ele><time>2026-04-06T07:03:36Z</time></trkpt><trkpt lat="44.450026796896665" lon="8.748349039536723"><ele>110.0</ele><time>2026-04-06T07:03:37Z</time></trkpt><trkpt lat="44.450124885690954" lon="8.748468878222274"><ele>110.0</ele><time>2026-04-06T07:03:38Z</time></trkpt><trkpt lat="44.450213002158065" lon="8.748570754972668"><ele>110.0</ele><time>2026-04-06T07:03:39Z</time></trkpt><trkpt lat="44.45029462092257" lon="8.748652021334214"><ele>110.0</ele><time>2026-04-06T07:03:40Z</time></trkpt><trkpt lat="44.45038118625643" lon="8.748687661029384"><ele>110.0</ele><time>2026-04-06T07:03:41Z</time></trkpt><trkpt lat="44.45046119940743" lon="8.748649254875186"><ele>110.0</ele><time>2026-04-06T07:03:42Z</time></trkpt><trkpt lat="44.450514739772224" lon="8.748545630280292"><ele>110.0</ele><time>2026-04-06T07:03:43Z</time></trkpt><trkpt lat="44.45051445389079" lon="8.74841773679777"><ele>110.0</ele><time>2026-04-06T07:03:44Z</time></trkpt><trkpt lat="44.45046122397987" lon="8.74829189828468"><ele>110.0</ele><time>2026-04-06T07:03:45Z</time></trkpt><trkpt lat="44.45036574659655" lon="8.748191335967203"><ele>110.0</ele><time>2026-04-06T07:03:46Z</time></trkpt><trkpt lat="44.45024257707132" lon="8.748141275078323"><ele>110.0</ele><time>2026-04-06T07:03:47Z</time></trkpt><trkpt lat="44.45011798249691" lon="8.748116491968272"><ele>110.0</ele><time>2026-04-06T07:03:48Z</time></trkpt><trkpt lat="44.450016414748134" lon="8.748086612032052"><ele>110.0</ele><time>2026-04-06T07:03:49Z</time></trkpt><trkpt lat="44.449904998472505" lon="8.747993144461967"><ele>110.0</ele><time>2026-04-06T07:03:50Z</time></trkpt><trkpt lat="44.44979764386203" lon="8.747890459302816"><ele>110.0</ele><time>2026-04-06T07:03:51Z</time></trkpt><trkpt lat="44.44970077915743" lon="8.74778292558"><ele>110.0</ele><time>2026-04-06T07:03:51.999Z</time></trkpt><trkpt lat="44.44962156651069" lon="8.747655953288733"><ele>110.0</ele><time>2026-04-06T07:03:52.999Z</time></trkpt><trkpt lat="44.449545033322245" lon="8.747533249180567"><ele>110.0</ele><time>2026-04-06T07:03:53.999Z</time></trkpt><trkpt lat="44.44944321409898" lon="8.747452156276516"><ele>112.5</ele><time>2026-04-06T07:03:54.999Z</time></trkpt><trkpt lat="44.44931557908804" lon="8.747414069025478"><ele>115.0</ele><time>2026-04-06T07:03:55.999Z</time></trkpt><trkpt lat="44.449188874589936" lon="8.747391208498051"><ele>117.5</ele><time>2026-04-06T07:03:56.999Z</time></trkpt><trkpt lat="44.44906615423185" lon="8.747362906142493"><ele>120.0</ele><time>2026-04-06T07:03:57.999Z</time></trkpt><trkpt lat="44.448947124149356" lon="8.747324379082348"><ele>120.0</ele><time>2026-04-06T07:03:58.999Z</time></trkpt><trkpt lat="44.448826222927615" lon="8.747299656900022"><ele>120.0</ele><time>2026-04-06T07:03:59.999Z</time></trkpt><trkpt lat="44.448700532949495" lon="8.747300588914806"><ele>120.0</ele><time>2026-04-06T07:04:00.999Z</time></trkpt><trkpt lat="44.44858113297764" lon="8.74732372155437"><ele>120.0</ele><time>2026-04-06T07:04:01.999Z</time></trkpt><trkpt lat="44.4484678839903" lon="8.747367713663944"><ele>120.25</ele><time>2026-04-06T07:04:02.999Z</time></trkpt><trkpt lat="44.44835695457623" lon="8.74741640293694"><ele>120.5</ele><time>2026-04-06T07:04:03.999Z</time></trkpt><trkpt lat="44.44825021622359" lon="8.747392195942988"><ele>120.75</ele><time>2026-04-06T07:04:04.999Z</time></trkpt><trkpt lat="44.448141850713775" lon="8.74729447872224"><ele>121.0</ele><time>2026-04-06T07:04:05.999Z</time></trkpt><trkpt lat="44.448057227861" lon="8.747157776565937"><ele>121.0</ele><time>2026-04-06T07:04:06.999Z</time></trkpt><trkpt lat="44.447992878627964" lon="8.74700557041778"><ele>121.0</ele><time>2026-04-06T07:04:07.999Z</time></trkpt><trkpt lat="44.44795780800328" lon="8.746823537493404"><ele>121.0</ele><time>2026-04-06T07:04:08.999Z</time></trkpt><trkpt lat="44.4479178156612" lon="8.74665271043186"><ele>121.0</ele><time>2026-04-06T07:04:09.999Z</time></trkpt><trkpt lat="44.447883734622614" lon="8.746505632907771"><ele>120.5</ele><time>2026-04-06T07:04:10.999Z</time></trkpt><trkpt lat="44.44785474828561" lon="8.746356774568472"><ele>120.0</ele><time>2026-04-06T07:04:11.999Z</time></trkpt><trkpt lat="44.447877429584196" lon="8.746199831076442"><ele>119.5</ele><time>2026-04-06T07:04:12.999Z</time></trkpt><trkpt lat="44.4479514555057" lon="8.746071489271666"><ele>119.0</ele><time>2026-04-06T07:04:13.999Z</time></trkpt><trkpt lat="44.448061506638815" lon="8.745988563212354"><ele>121.5</ele><time>2026-04-06T07:04:14.999Z</time></trkpt><trkpt lat="44.44817874526703" lon="8.745948342243624"><ele>124.0</ele><time>2026-04-06T07:04:15.999Z</time></trkpt><trkpt lat="44.44831167260734" lon="8.745944620485647"><ele>126.5</ele><time>2026-04-06T07:04:16.999Z</time></trkpt><trkpt lat="44.448433257773786" lon="8.745942404552915"><ele>129.0</ele><time>2026-04-06T07:04:17.999Z</time></trkpt><trkpt lat="44.44855294164684" lon="8.745925529004234"><ele>129.0</ele><time>2026-04-06T07:04:18.999Z</time></trkpt><trkpt lat="44.44867319847438" lon="8.745891071421163"><ele>129.0</ele><time>2026-04-06T07:04:19.999Z</time></trkpt><trkpt lat="44.448794141433666" lon="8.745831450980095"><ele>129.0</ele><time>2026-04-06T07:04:20.999Z</time></trkpt><trkpt lat="44.44891173209871" lon="8.745751698131993"><ele>129.0</ele><time>2026-04-06T07:04:21.999Z</time></trkpt><trkpt lat="44.44901262065978" lon="8.745672528089779"><ele>133.5</ele><time>2026-04-06T07:04:22.999Z</time></trkpt><trkpt lat="44.449142975817544" lon="8.74561711699961"><ele>138.0</ele><time>2026-04-06T07:04:23.999Z</time></trkpt><trkpt lat="44.44927416078657" lon="8.74558305635728"><ele>142.5</ele><time>2026-04-06T07:04:24.999Z</time></trkpt><trkpt lat="44.44939527435566" lon="8.745536894108355"><ele>147.0</ele><time>2026-04-06T07:04:25.999Z</time></trkpt><trkpt lat="44.44947823284243" lon="8.745433726697652"><ele>147.0</ele><time>2026-04-06T07:04:27Z</time></trkpt><trkpt lat="44.44961131571813" lon="8.745328110006456"><ele>147.0</ele><time>2026-04-06T07:04:28Z</time></trkpt><trkpt lat="44.4497167999688" lon="8.745192671590303"><ele>147.0</ele><time>2026-04-06T07:04:29Z</time></trkpt><trkpt lat="44.449816555817186" lon="8.745048576656432"><ele>147.0</ele><time>2026-04-06T07:04:30Z</time></trkpt><trkpt lat="44.449927458472736" lon="8.744906875500913"><ele>146.75</ele><time>2026-04-06T07:04:31Z</time></trkpt><trkpt lat="44.45003839277432" lon="8.744780858733696"><ele>146.5</ele><time>2026-04-06T07:04:32Z</time></trkpt><trkpt lat="44.45015116510055" lon="8.744663735973814"><ele>146.25</ele><time>2026-04-06T07:04:33Z</time></trkpt><trkpt lat="44.45026901392953" lon="8.744560909407461"><ele>146.0</ele><time>2026-04-06T07:04:34Z</time></trkpt><trkpt lat="44.45037519682942" lon="8.744455425799677"><ele>143.75</ele><time>2026-04-06T07:04:35Z</time></trkpt><trkpt lat="44.450481091385086" lon="8.74434111244488"><ele>141.5</ele><time>2026-04-06T07:04:36Z</time></trkpt><trkpt lat="44.450599083444985" lon="8.744252414707807"><ele>139.25</ele><time>2026-04-06T07:04:37Z</time></trkpt><trkpt lat="44.450725813958414" lon="8.744190056549177"><ele>137.0</ele><time>2026-04-06T07:04:38Z</time></trkpt><trkpt lat="44.4508686176097" lon="8.744149134161445"><ele>137.0</ele><time>2026-04-06T07:04:39Z</time></trkpt><trkpt lat="44.451005234378094" lon="8.744105121031827"><ele>137.0</ele><time>2026-04-06T07:04:40Z</time></trkpt><trkpt lat="44.45112951157647" lon="8.744027490240743"><ele>137.0</ele><time>2026-04-06T07:04:41Z</time></trkpt><trkpt lat="44.45125371058467" lon="8.743921102990337"><ele>137.0</ele><time>2026-04-06T07:04:42Z</time></trkpt><trkpt lat="44.451374011510545" lon="8.743825637148873"><ele>148.25</ele><time>2026-04-06T07:04:43Z</time></trkpt><trkpt lat="44.45150102196653" lon="8.743745452136803"><ele>159.5</ele><time>2026-04-06T07:04:44Z</time></trkpt><trkpt lat="44.45163601367593" lon="8.743693745479066"><ele>170.75</ele><time>2026-04-06T07:04:45Z</time></trkpt><trkpt lat="44.45177660244003" lon="8.743668819411258"><ele>182.0</ele><time>2026-04-06T07:04:46Z</time></trkpt><trkpt lat="44.45192088397633" lon="8.74366629038745"><ele>182.0</ele><time>2026-04-06T07:04:47Z</time></trkpt><trkpt lat="44.45205572035321" lon="8.743639829275988"><ele>182.0</ele><time>2026-04-06T07:04:48Z</time></trkpt><trkpt lat="44.45219025390868" lon="8.743573926257728"><ele>182.0</ele><time>2026-04-06T07:04:49Z</time></trkpt><trkpt lat="44.45230810960649" lon="8.743447910926463"><ele>182.0</ele><time>2026-04-06T07:04:50Z</time></trkpt><trkpt lat="44.45242302389991" lon="8.743311142467244"><ele>182.5</ele><time>2026-04-06T07:04:51Z</time></trkpt><trkpt lat="44.45253258568972" lon="8.743168390906593"><ele>183.0</ele><time>2026-04-06T07:04:52Z</time></trkpt><trkpt lat="44.45263724683989" lon="8.743059378115799"><ele>183.5</ele><time>2026-04-06T07:04:53Z</time></trkpt><trkpt lat="44.45274522496885" lon="8.742971624419331"><ele>184.0</ele><time>2026-04-06T07:04:54Z</time></trkpt><trkpt lat="44.452864512886855" lon="8.742929246434766"><ele>190.25</ele><time>2026-04-06T07:04:55Z</time></trkpt><trkpt lat="44.452993741288196" lon="8.7429495510537"><ele>196.5</ele><time>2026-04-06T07:04:56Z</time></trkpt><trkpt lat="44.45312702337262" lon="8.742940361270284"><ele>202.75</ele><time>2026-04-06T07:04:57Z</time></trkpt><trkpt lat="44.45323987312205" lon="8.742861750908805"><ele>209.0</ele><time>2026-04-06T07:04:58Z</time></trkpt><trkpt lat="44.45333386560198" lon="8.742723634552657"><ele>200.0</ele><time>2026-04-06T07:04:59Z</time></trkpt><trkpt lat="44.4533545821557" lon="8.742549732847362"><ele>191.0</ele><time>2026-04-06T07:05:00Z</time></trkpt><trkpt lat="44.45338381957222" lon="8.742393494564142"><ele>182.0</ele><time>2026-04-06T07:05:01Z</time></trkpt><trkpt lat="44.45344733159545" lon="8.742243056041481"><ele>173.0</ele><time>2026-04-06T07:05:02Z</time></trkpt><trkpt lat="44.45354193052096" lon="8.742123759009889"><ele>173.0</ele><time>2026-04-06T07:05:03Z</time></trkpt><trkpt lat="44.4536561538053" lon="8.742051031364543"><ele>173.0</ele><time>2026-04-06T07:05:04Z</time></trkpt><trkpt lat="44.453781844563565" lon="8.742020381997072"><ele>173.0</ele><time>2026-04-06T07:05:05Z</time></trkpt><trkpt lat="44.453921884502364" lon="8.742013469525386"><ele>173.0</ele><time>2026-04-06T07:05:06Z</time></trkpt><trkpt lat="44.45405560808805" lon="8.742030888931579"><ele>169.0</ele><time>2026-04-06T07:05:07Z</time></trkpt><trkpt lat="44.45419585421915" lon="8.742023985649707"><ele>165.0</ele><time>2026-04-06T07:05:08Z</time></trkpt><trkpt lat="44.454339037170215" lon="8.74195486767539"><ele>161.0</ele><time>2026-04-06T07:05:09Z</time></trkpt><trkpt lat="44.45449253563751" lon="8.741877013556524"><ele>163.33333333333331</ele><time>2026-04-06T07:05:10Z</time></trkpt><trkpt lat="44.45468242244158" lon="8.741826057289984"><ele>165.66666666666666</ele><time>2026-04-06T07:05:11Z</time></trkpt><trkpt lat="44.45489071496272" lon="8.741817783358924"><ele>168.0</ele><time>2026-04-06T07:05:12Z</time></trkpt><trkpt lat="44.45498328298169" lon="8.741857765000962"><ele>168.0</ele><time>2026-04-06T07:05:14Z</time></trkpt><trkpt lat="44.4551019953438" lon="8.741934538581226"><ele>168.0</ele><time>2026-04-06T07:05:15Z</time></trkpt><trkpt lat="44.455230863360505" lon="8.741943965010163"><ele>168.0</ele><time>2026-04-06T07:05:16Z</time></trkpt><trkpt lat="44.455353513342466" lon="8.741863543699726"><ele>168.0</ele><time>2026-04-06T07:05:17Z</time></trkpt><trkpt lat="44.4554685995302" lon="8.741761167392111"><ele>169.25</ele><time>2026-04-06T07:05:18Z</time></trkpt><trkpt lat="44.45560866672133" lon="8.74175439875201"><ele>170.5</ele><time>2026-04-06T07:05:19Z</time></trkpt><trkpt lat="44.4557516321208" lon="8.7417949460767"><ele>171.75</ele><time>2026-04-06T07:05:20Z</time></trkpt><trkpt lat="44.45587793374618" lon="8.741866713041194"><ele>173.0</ele><time>2026-04-06T07:05:21Z</time></trkpt><trkpt lat="44.45600075608525" lon="8.741899741611062"><ele>173.0</ele><time>2026-04-06T07:05:22Z</time></trkpt><trkpt lat="44.45612600660432" lon="8.741855558042719"><ele>173.0</ele><time>2026-04-06T07:05:23Z</time></trkpt><trkpt lat="44.45624746988022" lon="8.74175706335799"><ele>173.0</ele><time>2026-04-06T07:05:24Z</time></trkpt><trkpt lat="44.45637989236073" lon="8.741684546216323"><ele>173.0</ele><time>2026-04-06T07:05:25Z</time></trkpt><trkpt lat="44.45648884126486" lon="8.741626718967273"><ele>178.0</ele><time>2026-04-06T07:05:26Z</time></trkpt><trkpt lat="44.45657181310652" lon="8.74148179216951"><ele>183.0</ele><time>2026-04-06T07:05:27Z</time></trkpt><trkpt lat="44.456640432643475" lon="8.741323017920342"><ele>188.0</ele><time>2026-04-06T07:05:28Z</time></trkpt><trkpt lat="44.456743471089894" lon="8.741235103884618"><ele>193.0</ele><time>2026-04-06T07:05:29Z</time></trkpt><trkpt lat="44.45689608355545" lon="8.741194745839186"><ele>193.0</ele><time>2026-04-06T07:05:30Z</time></trkpt><trkpt lat="44.45704157234789" lon="8.74113833736616"><ele>193.0</ele><time>2026-04-06T07:05:31Z</time></trkpt><trkpt lat="44.45717011076194" lon="8.741078000188246"><ele>193.0</ele><time>2026-04-06T07:05:32Z</time></trkpt><trkpt lat="44.45728889279677" lon="8.74102976186701"><ele>193.0</ele><time>2026-04-06T07:05:33Z</time></trkpt><trkpt lat="44.457403640072975" lon="8.741014473121597"><ele>190.75</ele><time>2026-04-06T07:05:34Z</time></trkpt><trkpt lat="44.457516363755836" lon="8.74101318246702"><ele>188.5</ele><time>2026-04-06T07:05:35Z</time></trkpt><trkpt lat="44.457616993595025" lon="8.740925778650977"><ele>186.25</ele><time>2026-04-06T07:05:36Z</time></trkpt><trkpt lat="44.457717045076784" lon="8.740791051781812"><ele>184.0</ele><time>2026-04-06T07:05:37Z</time></trkpt><trkpt lat="44.45780543023414" lon="8.740666726496585"><ele>184.0</ele><time>2026-04-06T07:05:38Z</time></trkpt><trkpt lat="44.4579169659406" lon="8.740577506331237"><ele>184.0</ele><time>2026-04-06T07:05:39Z</time></trkpt><trkpt lat="44.45804935024578" lon="8.740531442260789"><ele>184.0</ele><time>2026-04-06T07:05:40Z</time></trkpt><trkpt lat="44.45818728357143" lon="8.7405068336687"><ele>184.0</ele><time>2026-04-06T07:05:41Z</time></trkpt><trkpt lat="44.458323464377855" lon="8.740481469784646"><ele>189.0</ele><time>2026-04-06T07:05:42Z</time></trkpt><trkpt lat="44.458448986769916" lon="8.740459049154227"><ele>194.0</ele><time>2026-04-06T07:05:43Z</time></trkpt><trkpt lat="44.45857052908648" lon="8.740472196035558"><ele>199.0</ele><time>2026-04-06T07:05:44Z</time></trkpt><trkpt lat="44.45869329590265" lon="8.740547486400615"><ele>204.0</ele><time>2026-04-06T07:05:45Z</time></trkpt><trkpt lat="44.45880949107726" lon="8.74066566706572"><ele>204.0</ele><time>2026-04-06T07:05:46Z</time></trkpt><trkpt lat="44.45890453279432" lon="8.740803247221574"><ele>204.0</ele><time>2026-04-06T07:05:47Z</time></trkpt><trkpt lat="44.459001553427825" lon="8.740931745307014"><ele>204.0</ele><time>2026-04-06T07:05:48Z</time></trkpt><trkpt lat="44.459114151102014" lon="8.741001366100079"><ele>204.0</ele><time>2026-04-06T07:05:49Z</time></trkpt><trkpt lat="44.45926470007814" lon="8.740998651813044"><ele>204.0</ele><time>2026-04-06T07:05:49.999Z</time></trkpt><trkpt lat="44.459420078158544" lon="8.74096361774078"><ele>204.0</ele><time>2026-04-06T07:05:50.999Z</time></trkpt><trkpt lat="44.45957676350557" lon="8.740950664239485"><ele>204.0</ele><time>2026-04-06T07:05:51.999Z</time></trkpt><trkpt lat="44.45972814351465" lon="8.740948073962546"><ele>205.5</ele><time>2026-04-06T07:05:52.999Z</time></trkpt><trkpt lat="44.459875605864745" lon="8.740929196709908"><ele>207.0</ele><time>2026-04-06T07:05:53.999Z</time></trkpt><trkpt lat="44.46002082064964" lon="8.740896202752738"><ele>208.5</ele><time>2026-04-06T07:05:54.999Z</time></trkpt><trkpt lat="44.46016380620768" lon="8.740871096297646"><ele>210.0</ele><time>2026-04-06T07:05:55.999Z</time></trkpt><trkpt lat="44.46030021248087" lon="8.74083659016456"><ele>210.0</ele><time>2026-04-06T07:05:56.999Z</time></trkpt><trkpt lat="44.46042307820132" lon="8.740773607025545"><ele>210.0</ele><time>2026-04-06T07:05:57.999Z</time></trkpt><trkpt lat="44.46052606663988" lon="8.740651951910138"><ele>210.0</ele><time>2026-04-06T07:05:58.999Z</time></trkpt><trkpt lat="44.46062836933884" lon="8.74053524484806"><ele>210.0</ele><time>2026-04-06T07:05:59.999Z</time></trkpt><trkpt lat="44.46074899432362" lon="8.740448898282207"><ele>215.0</ele><time>2026-04-06T07:06:00.999Z</time></trkpt><trkpt lat="44.46089202661125" lon="8.740401797394957"><ele>220.0</ele><time>2026-04-06T07:06:01.999Z</time></trkpt><trkpt lat="44.46101985785589" lon="8.740395451210189"><ele>225.0</ele><time>2026-04-06T07:06:02.999Z</time></trkpt><trkpt lat="44.461123433160616" lon="8.740374315771636"><ele>230.0</ele><time>2026-04-06T07:06:03.999Z</time></trkpt><trkpt lat="44.461205527431524" lon="8.740326044713017"><ele>230.25</ele><time>2026-04-06T07:06:04.999Z</time></trkpt><trkpt lat="44.461272949747844" lon="8.740199758620193"><ele>230.5</ele><time>2026-04-06T07:06:05.999Z</time></trkpt><trkpt lat="44.461288767242046" lon="8.740015891923374"><ele>230.75</ele><time>2026-04-06T07:06:06.999Z</time></trkpt><trkpt lat="44.46127129685034" lon="8.739826439552902"><ele>231.0</ele><time>2026-04-06T07:06:07.999Z</time></trkpt><trkpt lat="44.46128647137519" lon="8.739643453082406"><ele>231.0</ele><time>2026-04-06T07:06:08.999Z</time></trkpt><trkpt lat="44.46136338724013" lon="8.739462846449761"><ele>231.0</ele><time>2026-04-06T07:06:09.999Z</time></trkpt><trkpt lat="44.46144864870257" lon="8.739313409212649"><ele>231.0</ele><time>2026-04-06T07:06:10.999Z</time></trkpt><trkpt lat="44.46155864799057" lon="8.739185387272643"><ele>231.0</ele><time>2026-04-06T07:06:11.999Z</time></trkpt><trkpt lat="44.46168066188733" lon="8.739094131978414"><ele>228.5</ele><time>2026-04-06T07:06:12.999Z</time></trkpt><trkpt lat="44.461816076308914" lon="8.739045413600685"><ele>226.0</ele><time>2026-04-06T07:06:13.999Z</time></trkpt><trkpt lat="44.46195750413141" lon="8.739006406671876"><ele>223.5</ele><time>2026-04-06T07:06:14.999Z</time></trkpt><trkpt lat="44.46210710690608" lon="8.73900369256206"><ele>221.0</ele><time>2026-04-06T07:06:15.999Z</time></trkpt><trkpt lat="44.46223573056209" lon="8.73898663110618"><ele>221.0</ele><time>2026-04-06T07:06:16.999Z</time></trkpt><trkpt lat="44.46236391573856" lon="8.738997202722883"><ele>221.0</ele><time>2026-04-06T07:06:17.999Z</time></trkpt><trkpt lat="44.46248956866364" lon="8.739073831788803"><ele>221.0</ele><time>2026-04-06T07:06:19Z</time></trkpt><trkpt lat="44.46260701116489" lon="8.739206588461025"><ele>221.0</ele><time>2026-04-06T07:06:20Z</time></trkpt><trkpt lat="44.46270715095487" lon="8.739348356854013"><ele>230.0</ele><time>2026-04-06T07:06:21Z</time></trkpt><trkpt lat="44.46281231100661" lon="8.739446924694752"><ele>239.0</ele><time>2026-04-06T07:06:22Z</time></trkpt><trkpt lat="44.46294126246392" lon="8.739495742908773"><ele>248.0</ele><time>2026-04-06T07:06:23Z</time></trkpt><trkpt lat="44.46307655485143" lon="8.739509711460597"><ele>257.0</ele><time>2026-04-06T07:06:24Z</time></trkpt><trkpt lat="44.46321448049125" lon="8.739501703354996"><ele>257.0</ele><time>2026-04-06T07:06:25Z</time></trkpt><trkpt lat="44.46334581777277" lon="8.739471750172918"><ele>257.0</ele><time>2026-04-06T07:06:26Z</time></trkpt><trkpt lat="44.46345543668067" lon="8.739392673171553"><ele>257.0</ele><time>2026-04-06T07:06:27Z</time></trkpt><trkpt lat="44.46355000018016" lon="8.739270518453884"><ele>257.0</ele><time>2026-04-06T07:06:28Z</time></trkpt><trkpt lat="44.463647629087156" lon="8.739197767354309"><ele>256.0</ele><time>2026-04-06T07:06:29Z</time></trkpt><trkpt lat="44.463756004285074" lon="8.739207251317158"><ele>255.0</ele><time>2026-04-06T07:06:30Z</time></trkpt><trkpt lat="44.4638775522854" lon="8.739305721021884"><ele>254.0</ele><time>2026-04-06T07:06:31Z</time></trkpt><trkpt lat="44.46397774353606" lon="8.73945712313281"><ele>253.0</ele><time>2026-04-06T07:06:32Z</time></trkpt><trkpt lat="44.46406120985326" lon="8.739571192257818"><ele>253.0</ele><time>2026-04-06T07:06:33Z</time></trkpt><trkpt lat="44.464187337684464" lon="8.73963494888384"><ele>253.0</ele><time>2026-04-06T07:06:34Z</time></trkpt><trkpt lat="44.46431683251491" lon="8.739654896281147"><ele>253.0</ele><time>2026-04-06T07:06:35Z</time></trkpt><trkpt lat="44.46444079843419" lon="8.739663566785945"><ele>253.0</ele><time>2026-04-06T07:06:36Z</time></trkpt><trkpt lat="44.46456201620547" lon="8.73962914398878"><ele>254.75</ele><time>2026-04-06T07:06:37Z</time></trkpt><trkpt lat="44.46466920241701" lon="8.739525591896331"><ele>256.5</ele><time>2026-04-06T07:06:38Z</time></trkpt><trkpt lat="44.464757924935284" lon="8.739380566401268"><ele>258.25</ele><time>2026-04-06T07:06:39Z</time></trkpt><trkpt lat="44.46483167049402" lon="8.739221693250608"><ele>260.0</ele><time>2026-04-06T07:06:40Z</time></trkpt><trkpt lat="44.46491669100905" lon="8.739096824769554"><ele>253.25</ele><time>2026-04-06T07:06:41Z</time></trkpt><trkpt lat="44.46501935759121" lon="8.739038636781657"><ele>246.5</ele><time>2026-04-06T07:06:42Z</time></trkpt><trkpt lat="44.46513958905684" lon="8.739063851739635"><ele>239.75</ele><time>2026-04-06T07:06:43Z</time></trkpt><trkpt lat="44.46524397966691" lon="8.739178755396834"><ele>233.0</ele><time>2026-04-06T07:06:44Z</time></trkpt><trkpt lat="44.465349109834996" lon="8.73932459268477"><ele>240.25</ele><time>2026-04-06T07:06:45Z</time></trkpt><trkpt lat="44.46545030886669" lon="8.739465922694105"><ele>247.5</ele><time>2026-04-06T07:06:46Z</time></trkpt><trkpt lat="44.46554008274348" lon="8.73960654327793"><ele>254.75</ele><time>2026-04-06T07:06:47Z</time></trkpt><trkpt lat="44.46560827127621" lon="8.739738293482818"><ele>262.0</ele><time>2026-04-06T07:06:48Z</time></trkpt><trkpt lat="44.465686596407664" lon="8.739834646014351"><ele>262.0</ele><time>2026-04-06T07:06:49Z</time></trkpt><trkpt lat="44.46580279279776" lon="8.73987427232049"><ele>262.0</ele><time>2026-04-06T07:06:50Z</time></trkpt><trkpt lat="44.46594163794761" lon="8.739834545953029"><ele>262.0</ele><time>2026-04-06T07:06:51Z</time></trkpt><trkpt lat="44.46607651791047" lon="8.739763640513125"><ele>262.0</ele><time>2026-04-06T07:06:52Z</time></trkpt><trkpt lat="44.46618117162176" lon="8.739661592367362"><ele>262.0</ele><time>2026-04-06T07:06:53Z</time></trkpt><trkpt lat="44.46624292922603" lon="8.739519065538905"><ele>262.0</ele><time>2026-04-06T07:06:54Z</time></trkpt><trkpt lat="44.466298797904926" lon="8.739382303954068"><ele>262.0</ele><time>2026-04-06T07:06:55Z</time></trkpt><trkpt lat="44.46639558759136" lon="8.739294897007964"><ele>262.0</ele><time>2026-04-06T07:06:56Z</time></trkpt><trkpt lat="44.466536632336386" lon="8.739231770278542"><ele>259.0</ele><time>2026-04-06T07:06:57Z</time></trkpt><trkpt lat="44.46667417636794" lon="8.739165870171266"><ele>256.0</ele><time>2026-04-06T07:06:58Z</time></trkpt><trkpt lat="44.466791942741345" lon="8.739088353213159"><ele>253.0</ele><time>2026-04-06T07:06:59Z</time></trkpt><trkpt lat="44.46689967724788" lon="8.739017646816775"><ele>250.0</ele><time>2026-04-06T07:07:00Z</time></trkpt><trkpt lat="44.46700807550532" lon="8.738964665208313"><ele>253.5</ele><time>2026-04-06T07:07:01Z</time></trkpt><trkpt lat="44.46712018571115" lon="8.7389777345725"><ele>257.0</ele><time>2026-04-06T07:07:02Z</time></trkpt><trkpt lat="44.46720337540049" lon="8.739092272862926"><ele>260.5</ele><time>2026-04-06T07:07:03Z</time></trkpt><trkpt lat="44.46725507988865" lon="8.73925897159759"><ele>264.0</ele><time>2026-04-06T07:07:04Z</time></trkpt><trkpt lat="44.4672697071857" lon="8.739434759857101"><ele>265.6666666666667</ele><time>2026-04-06T07:07:05Z</time></trkpt><trkpt lat="44.467269868017446" lon="8.73956633371876"><ele>267.3333333333333</ele><time>2026-04-06T07:07:06Z</time></trkpt><trkpt lat="44.4672987044416" lon="8.73966949420962"><ele>269.0</ele><time>2026-04-06T07:07:07Z</time></trkpt><trkpt lat="44.46735501281718" lon="8.739790151901968"><ele>270.66666666666663</ele><time>2026-04-06T07:07:09Z</time></trkpt><trkpt lat="44.46739862635229" lon="8.739859090501575"><ele>272.3333333333333</ele><time>2026-04-06T07:07:11Z</time></trkpt><trkpt lat="44.46744665245012" lon="8.739965283052857"><ele>274.0</ele><time>2026-04-06T07:07:21Z</time></trkpt><trkpt lat="44.46745807946292" lon="8.740137524714646"><ele>277.00000000000006</ele><time>2026-04-06T07:07:23Z</time></trkpt><trkpt lat="44.46744968084611" lon="8.74023302179088"><ele>280.0</ele><time>2026-04-06T07:07:24Z</time></trkpt><trkpt lat="44.46744703722369" lon="8.740327119598318"><ele>283.0</ele><time>2026-04-06T07:07:25Z</time></trkpt><trkpt lat="44.46746739697473" lon="8.740418648714307"><ele>286.0</ele><time>2026-04-06T07:07:26Z</time></trkpt><trkpt lat="44.46750599108415" lon="8.740506201677167"><ele>289.0</ele><time>2026-04-06T07:07:27Z</time></trkpt><trkpt lat="44.46754291291811" lon="8.740594688537243"><ele>292.00000000000006</ele><time>2026-04-06T07:07:28Z</time></trkpt><trkpt lat="44.467568150902515" lon="8.740679888522408"><ele>295.0</ele><time>2026-04-06T07:07:29Z</time></trkpt><trkpt lat="44.46757228935609" lon="8.740779827022793"><ele>295.0</ele><time>2026-04-06T07:07:31Z</time></trkpt><trkpt lat="44.467512170505955" lon="8.7408391890699"><ele>295.0</ele><time>2026-04-06T07:07:34Z</time></trkpt><trkpt lat="44.46756358291575" lon="8.740731679803455"><ele>295.0</ele><time>2026-04-06T07:10:20Z</time></trkpt><trkpt lat="44.46755072991076" lon="8.740634133529472"><ele>295.0</ele><time>2026-04-06T07:10:22Z</time></trkpt><trkpt lat="44.46750480075596" lon="8.740491781415603"><ele>295.0</ele><time>2026-04-06T07:10:24Z</time></trkpt><trkpt lat="44.46747628495806" lon="8.740413132051824"><ele>295.0</ele><time>2026-04-06T07:10:25Z</time></trkpt><trkpt lat="44.46745600193728" lon="8.740249995058413"><ele>290.8</ele><time>2026-04-06T07:10:27Z</time></trkpt><trkpt lat="44.46746316047456" lon="8.74013476434794"><ele>286.6</ele><time>2026-04-06T07:10:28Z</time></trkpt><trkpt lat="44.467464658437876" lon="8.740025874827527"><ele>282.4</ele><time>2026-04-06T07:10:29Z</time></trkpt><trkpt lat="44.46748145485057" lon="8.73989713692797"><ele>278.2</ele><time>2026-04-06T07:10:31.002Z</time></trkpt><trkpt lat="44.467542907997355" lon="8.739805793803276"><ele>274.0</ele><time>2026-04-06T07:10:33.002Z</time></trkpt><trkpt lat="44.467670631525735" lon="8.73972392471486"><ele>274.0</ele><time>2026-04-06T07:10:35.002Z</time></trkpt><trkpt lat="44.467747611112394" lon="8.739671407777998"><ele>274.0</ele><time>2026-04-06T07:10:36.001Z</time></trkpt><trkpt lat="44.46782042842964" lon="8.739620829580863"><ele>274.0</ele><time>2026-04-06T07:10:37.001Z</time></trkpt><trkpt lat="44.46789729251456" lon="8.739574833430844"><ele>274.0</ele><time>2026-04-06T07:10:38.001Z</time></trkpt><trkpt lat="44.46797620542895" lon="8.739524196502169"><ele>274.0</ele><time>2026-04-06T07:10:39.001Z</time></trkpt><trkpt lat="44.468052506835825" lon="8.73947510526757"><ele>274.0</ele><time>2026-04-06T07:10:40.021Z</time></trkpt><trkpt lat="44.46812692748817" lon="8.739426182063399"><ele>275.16666666666663</ele><time>2026-04-06T07:10:41.021Z</time></trkpt><trkpt lat="44.46819216476359" lon="8.73937477108933"><ele>276.3333333333333</ele><time>2026-04-06T07:10:42.024Z</time></trkpt><trkpt lat="44.46826703266493" lon="8.739325601451542"><ele>277.5</ele><time>2026-04-06T07:10:43.024Z</time></trkpt><trkpt lat="44.468340570119324" lon="8.73926810962901"><ele>278.6666666666667</ele><time>2026-04-06T07:10:44.028Z</time></trkpt><trkpt lat="44.46841091665031" lon="8.73921906679809"><ele>279.83333333333337</ele><time>2026-04-06T07:10:45.025Z</time></trkpt><trkpt lat="44.468478540728796" lon="8.739181386246"><ele>281.0</ele><time>2026-04-06T07:10:46.026Z</time></trkpt><trkpt lat="44.468581858879375" lon="8.739074409799342"><ele>288.6666666666667</ele><time>2026-04-06T07:10:47.001Z</time></trkpt><trkpt lat="44.46881793255523" lon="8.7388902532669"><ele>296.3333333333333</ele><time>2026-04-06T07:10:48.001Z</time></trkpt><trkpt lat="44.468891525394994" lon="8.738776241639712"><ele>304.0</ele><time>2026-04-06T07:10:49.001Z</time></trkpt><trkpt lat="44.468978379990695" lon="8.738667159506258"><ele>304.0</ele><time>2026-04-06T07:10:50.001Z</time></trkpt><trkpt lat="44.469077604300885" lon="8.738563505467688"><ele>304.0</ele><time>2026-04-06T07:10:51.001Z</time></trkpt><trkpt lat="44.46919383255459" lon="8.738481338165682"><ele>304.0</ele><time>2026-04-06T07:10:52.001Z</time></trkpt><trkpt lat="44.46930514839472" lon="8.738412007967264"><ele>304.0</ele><time>2026-04-06T07:10:53.001Z</time></trkpt><trkpt lat="44.469418528400915" lon="8.738356274026073"><ele>303.59999999999997</ele><time>2026-04-06T07:10:54.001Z</time></trkpt><trkpt lat="44.46953703184066" lon="8.738368103295633"><ele>303.2</ele><time>2026-04-06T07:10:55.001Z</time></trkpt><trkpt lat="44.46963538671803" lon="8.73843090749529"><ele>302.79999999999995</ele><time>2026-04-06T07:10:56.001Z</time></trkpt><trkpt lat="44.469710774903135" lon="8.73853708324382"><ele>302.4</ele><time>2026-04-06T07:10:57.001Z</time></trkpt><trkpt lat="44.469724529197144" lon="8.738687984140313"><ele>302.0</ele><time>2026-04-06T07:10:58.001Z</time></trkpt><trkpt lat="44.469759257634024" lon="8.738830515742729"><ele>302.0</ele><time>2026-04-06T07:10:59.001Z</time></trkpt><trkpt lat="44.46979930982002" lon="8.738954519430365"><ele>302.0</ele><time>2026-04-06T07:11:00.001Z</time></trkpt><trkpt lat="44.469882459883024" lon="8.739045189455945"><ele>302.0</ele><time>2026-04-06T07:11:01.001Z</time></trkpt><trkpt lat="44.4699832926599" lon="8.739079817078524"><ele>302.0</ele><time>2026-04-06T07:11:02.001Z</time></trkpt><trkpt lat="44.4700993529116" lon="8.739033351922831"><ele>302.0</ele><time>2026-04-06T07:11:03.001Z</time></trkpt><trkpt lat="44.470208296145586" lon="8.738927545128313"><ele>302.0</ele><time>2026-04-06T07:11:04.001Z</time></trkpt><trkpt lat="44.47031236876347" lon="8.738805110045806"><ele>302.0</ele><time>2026-04-06T07:11:05.001Z</time></trkpt><trkpt lat="44.47041554893601" lon="8.738694002678328"><ele>302.0</ele><time>2026-04-06T07:11:06.001Z</time></trkpt><trkpt lat="44.470510005497985" lon="8.738596238173448"><ele>302.0</ele><time>2026-04-06T07:11:07.001Z</time></trkpt><trkpt lat="44.470576777309056" lon="8.73846588424462"><ele>304.5</ele><time>2026-04-06T07:11:08.001Z</time></trkpt><trkpt lat="44.470601399561325" lon="8.738299575774237"><ele>307.0</ele><time>2026-04-06T07:11:09Z</time></trkpt><trkpt lat="44.47058363207626" lon="8.738120993100532"><ele>309.5</ele><time>2026-04-06T07:11:10Z</time></trkpt><trkpt lat="44.47054787371295" lon="8.73794905520071"><ele>312.0</ele><time>2026-04-06T07:11:11Z</time></trkpt><trkpt lat="44.47053671673529" lon="8.737789160725539"><ele>307.25</ele><time>2026-04-06T07:11:12Z</time></trkpt><trkpt lat="44.47059693048384" lon="8.737636596957126"><ele>302.5</ele><time>2026-04-06T07:11:13Z</time></trkpt><trkpt lat="44.47068626105949" lon="8.73751479507907"><ele>297.75</ele><time>2026-04-06T07:11:14Z</time></trkpt><trkpt lat="44.47079970144952" lon="8.737410597033277"><ele>293.0</ele><time>2026-04-06T07:11:15Z</time></trkpt><trkpt lat="44.47092687445139" lon="8.737299377205812"><ele>293.0</ele><time>2026-04-06T07:11:16Z</time></trkpt><trkpt lat="44.47105776538608" lon="8.737213153850611"><ele>293.0</ele><time>2026-04-06T07:11:17Z</time></trkpt><trkpt lat="44.47118634021317" lon="8.73711193316898"><ele>293.0</ele><time>2026-04-06T07:11:18Z</time></trkpt><trkpt lat="44.471307312126946" lon="8.73700364706781"><ele>293.0</ele><time>2026-04-06T07:11:19Z</time></trkpt><trkpt lat="44.47142095686722" lon="8.736881584293076"><ele>295.75</ele><time>2026-04-06T07:11:20Z</time></trkpt><trkpt lat="44.47151816677304" lon="8.736740119283827"><ele>298.5</ele><time>2026-04-06T07:11:21Z</time></trkpt><trkpt lat="44.47160094522126" lon="8.736569467537318"><ele>301.25</ele><time>2026-04-06T07:11:22Z</time></trkpt><trkpt lat="44.47166889068565" lon="8.736401188520496"><ele>304.0</ele><time>2026-04-06T07:11:23Z</time></trkpt><trkpt lat="44.471747501956024" lon="8.736243622483018"><ele>304.0</ele><time>2026-04-06T07:11:24Z</time></trkpt><trkpt lat="44.47182614537229" lon="8.736097550904415"><ele>304.0</ele><time>2026-04-06T07:11:25Z</time></trkpt><trkpt lat="44.471900382963376" lon="8.73596439920996"><ele>304.0</ele><time>2026-04-06T07:11:26Z</time></trkpt><trkpt lat="44.47198460446309" lon="8.735866990108757"><ele>304.0</ele><time>2026-04-06T07:11:27Z</time></trkpt><trkpt lat="44.47207620000749" lon="8.735779607630942"><ele>305.5</ele><time>2026-04-06T07:11:28Z</time></trkpt><trkpt lat="44.47217085363412" lon="8.73581994967745"><ele>307.0</ele><time>2026-04-06T07:11:29Z</time></trkpt><trkpt lat="44.47224327881476" lon="8.735914458146997"><ele>308.5</ele><time>2026-04-06T07:11:30Z</time></trkpt><trkpt lat="44.47234795561752" lon="8.736024349031611"><ele>310.0</ele><time>2026-04-06T07:11:31Z</time></trkpt><trkpt lat="44.47243386297412" lon="8.736159480815838"><ele>314.2</ele><time>2026-04-06T07:11:32Z</time></trkpt><trkpt lat="44.47251913944245" lon="8.736258687924613"><ele>318.4</ele><time>2026-04-06T07:11:33Z</time></trkpt><trkpt lat="44.472613077980995" lon="8.73631638101059"><ele>322.6</ele><time>2026-04-06T07:11:34Z</time></trkpt><trkpt lat="44.47272526345698" lon="8.736300560193083"><ele>326.8</ele><time>2026-04-06T07:11:35Z</time></trkpt><trkpt lat="44.47281823566748" lon="8.736214198551275"><ele>331.0</ele><time>2026-04-06T07:11:36Z</time></trkpt><trkpt lat="44.472871627572516" lon="8.73606273459314"><ele>325.75</ele><time>2026-04-06T07:11:37Z</time></trkpt><trkpt lat="44.47287742187459" lon="8.735875028848582"><ele>320.5</ele><time>2026-04-06T07:11:38Z</time></trkpt><trkpt lat="44.472883497207356" lon="8.735682945259208"><ele>315.25</ele><time>2026-04-06T07:11:39Z</time></trkpt><trkpt lat="44.47290162718936" lon="8.73550664720696"><ele>310.0</ele><time>2026-04-06T07:11:40Z</time></trkpt><trkpt lat="44.47282238318387" lon="8.735324578491376"><ele>313.0</ele><time>2026-04-06T07:11:41Z</time></trkpt><trkpt lat="44.47283741712836" lon="8.735166518367357"><ele>316.0</ele><time>2026-04-06T07:11:42Z</time></trkpt><trkpt lat="44.472891813197755" lon="8.735033090821915"><ele>319.0</ele><time>2026-04-06T07:11:43Z</time></trkpt><trkpt lat="44.47299218322877" lon="8.734920530022425"><ele>322.0</ele><time>2026-04-06T07:11:44Z</time></trkpt><trkpt lat="44.473119758424254" lon="8.734844472183287"><ele>322.0</ele><time>2026-04-06T07:11:45Z</time></trkpt><trkpt lat="44.47325829710565" lon="8.734793396698317"><ele>322.0</ele><time>2026-04-06T07:11:46Z</time></trkpt><trkpt lat="44.47339153604363" lon="8.734747542284785"><ele>322.0</ele><time>2026-04-06T07:11:47Z</time></trkpt><trkpt lat="44.47351952739547" lon="8.734688077827837"><ele>322.0</ele><time>2026-04-06T07:11:48Z</time></trkpt><trkpt lat="44.47363439511169" lon="8.734598805704156"><ele>322.0</ele><time>2026-04-06T07:11:49Z</time></trkpt><trkpt lat="44.473745949071635" lon="8.73448378310587"><ele>322.0</ele><time>2026-04-06T07:11:50Z</time></trkpt><trkpt lat="44.47385705804964" lon="8.734359351973346"><ele>322.0</ele><time>2026-04-06T07:11:51Z</time></trkpt><trkpt lat="44.47397808259844" lon="8.734251404593456"><ele>322.0</ele><time>2026-04-06T07:11:52Z</time></trkpt><trkpt lat="44.474102774482574" lon="8.734149301905202"><ele>321.75</ele><time>2026-04-06T07:11:53Z</time></trkpt><trkpt lat="44.474228629297656" lon="8.734053268939862"><ele>321.5</ele><time>2026-04-06T07:11:54Z</time></trkpt><trkpt lat="44.47436767146972" lon="8.733981849020063"><ele>321.25</ele><time>2026-04-06T07:11:55Z</time></trkpt><trkpt lat="44.474510802280484" lon="8.73393525208243"><ele>321.0</ele><time>2026-04-06T07:11:56Z</time></trkpt><trkpt lat="44.47465141746424" lon="8.73390276146231"><ele>326.0</ele><time>2026-04-06T07:11:57Z</time></trkpt><trkpt lat="44.47480086492558" lon="8.733877920240818"><ele>331.0</ele><time>2026-04-06T07:11:58Z</time></trkpt><trkpt lat="44.47494611290395" lon="8.733864692473281"><ele>336.0</ele><time>2026-04-06T07:11:59Z</time></trkpt><trkpt lat="44.47508618426294" lon="8.733873029807283"><ele>341.0</ele><time>2026-04-06T07:12:00Z</time></trkpt><trkpt lat="44.47522041221305" lon="8.733905153468056"><ele>341.0</ele><time>2026-04-06T07:12:01Z</time></trkpt><trkpt lat="44.47534854909432" lon="8.733987706319006"><ele>341.0</ele><time>2026-04-06T07:12:02Z</time></trkpt><trkpt lat="44.47547819000711" lon="8.734118023597755"><ele>341.0</ele><time>2026-04-06T07:12:03Z</time></trkpt><trkpt lat="44.47560433576828" lon="8.734218868245534"><ele>341.0</ele><time>2026-04-06T07:12:04Z</time></trkpt><trkpt lat="44.47574062747587" lon="8.734287552796452"><ele>339.75</ele><time>2026-04-06T07:12:05Z</time></trkpt><trkpt lat="44.47587597871936" lon="8.734314846485361"><ele>338.5</ele><time>2026-04-06T07:12:06Z</time></trkpt><trkpt lat="44.476000124106086" lon="8.734324064438155"><ele>337.25</ele><time>2026-04-06T07:12:07Z</time></trkpt><trkpt lat="44.476121971828604" lon="8.73431215366366"><ele>336.0</ele><time>2026-04-06T07:12:08Z</time></trkpt><trkpt lat="44.4762372362976" lon="8.734288781355655"><ele>336.8</ele><time>2026-04-06T07:12:09Z</time></trkpt><trkpt lat="44.47635378155175" lon="8.734265262251666"><ele>337.6</ele><time>2026-04-06T07:12:10Z</time></trkpt><trkpt lat="44.47645569776699" lon="8.734237078139891"><ele>338.4</ele><time>2026-04-06T07:12:11Z</time></trkpt><trkpt lat="44.476551247972" lon="8.734213663532524"><ele>339.2</ele><time>2026-04-06T07:12:12Z</time></trkpt><trkpt lat="44.47664395764299" lon="8.734190781379967"><ele>340.0</ele><time>2026-04-06T07:12:13Z</time></trkpt><trkpt lat="44.47673720724587" lon="8.734171145921728"><ele>340.0</ele><time>2026-04-06T07:12:14Z</time></trkpt><trkpt lat="44.476837702984" lon="8.734172471395446"><ele>340.0</ele><time>2026-04-06T07:12:15Z</time></trkpt><trkpt lat="44.4769424931958" lon="8.734212803646786"><ele>340.0</ele><time>2026-04-06T07:12:16Z</time></trkpt><trkpt lat="44.47704083662441" lon="8.734289934843808"><ele>340.0</ele><time>2026-04-06T07:12:17Z</time></trkpt><trkpt lat="44.47712380223634" lon="8.734363510433353"><ele>340.0</ele><time>2026-04-06T07:12:18Z</time></trkpt><trkpt lat="44.4772029056562" lon="8.734395591587552"><ele>341.16666666666663</ele><time>2026-04-06T07:12:19Z</time></trkpt><trkpt lat="44.47727395541075" lon="8.734395517970263"><ele>342.3333333333333</ele><time>2026-04-06T07:12:20Z</time></trkpt><trkpt lat="44.477350989091626" lon="8.734332108107555"><ele>343.5</ele><time>2026-04-06T07:12:21Z</time></trkpt><trkpt lat="44.47741586367914" lon="8.734238788960191"><ele>344.6666666666667</ele><time>2026-04-06T07:12:22Z</time></trkpt><trkpt lat="44.477464248791144" lon="8.734137381778558"><ele>345.83333333333337</ele><time>2026-04-06T07:12:23Z</time></trkpt><trkpt lat="44.47752512583436" lon="8.734057441114192"><ele>347.0</ele><time>2026-04-06T07:12:24Z</time></trkpt><trkpt lat="44.47762088063508" lon="8.734024554644137"><ele>347.0</ele><time>2026-04-06T07:12:25Z</time></trkpt><trkpt lat="44.477728914329845" lon="8.734027071105846"><ele>347.0</ele><time>2026-04-06T07:12:26Z</time></trkpt><trkpt lat="44.47784769394118" lon="8.734064548139036"><ele>347.0</ele><time>2026-04-06T07:12:27Z</time></trkpt><trkpt lat="44.47795872183781" lon="8.734124322760907"><ele>347.0</ele><time>2026-04-06T07:12:28Z</time></trkpt><trkpt lat="44.47806070471116" lon="8.734173440663298"><ele>348.0</ele><time>2026-04-06T07:12:29Z</time></trkpt><trkpt lat="44.47818881669925" lon="8.73421539722936"><ele>349.0</ele><time>2026-04-06T07:12:30Z</time></trkpt><trkpt lat="44.47831463174223" lon="8.734230166333498"><ele>350.0</ele><time>2026-04-06T07:12:31Z</time></trkpt><trkpt lat="44.47842810950733" lon="8.7342209751549"><ele>351.0</ele><time>2026-04-06T07:12:32Z</time></trkpt><trkpt lat="44.478538092345254" lon="8.734209332199441"><ele>351.0</ele><time>2026-04-06T07:12:33Z</time></trkpt><trkpt lat="44.47863483830979" lon="8.734208749516418"><ele>351.0</ele><time>2026-04-06T07:12:34Z</time></trkpt><trkpt lat="44.47872593866602" lon="8.734210106078883"><ele>351.0</ele><time>2026-04-06T07:12:35Z</time></trkpt><trkpt lat="44.47881657757082" lon="8.734205792009943"><ele>351.0</ele><time>2026-04-06T07:12:36Z</time></trkpt><trkpt lat="44.478914292148566" lon="8.734186085507924"><ele>351.0</ele><time>2026-04-06T07:12:37.001Z</time></trkpt><trkpt lat="44.479007372029216" lon="8.734107008981814"><ele>351.8</ele><time>2026-04-06T07:12:38.001Z</time></trkpt><trkpt lat="44.479072536255075" lon="8.733983596495351"><ele>352.6</ele><time>2026-04-06T07:12:39.001Z</time></trkpt><trkpt lat="44.47909931644033" lon="8.733832418035176"><ele>353.4</ele><time>2026-04-06T07:12:40.001Z</time></trkpt><trkpt lat="44.47907809050141" lon="8.733672306219477"><ele>354.2</ele><time>2026-04-06T07:12:41.001Z</time></trkpt><trkpt lat="44.47901738512646" lon="8.733543691513724"><ele>355.0</ele><time>2026-04-06T07:12:42.001Z</time></trkpt><trkpt lat="44.478918727342496" lon="8.733456737821376"><ele>354.4</ele><time>2026-04-06T07:12:43.001Z</time></trkpt><trkpt lat="44.47881226243634" lon="8.733408640984171"><ele>353.8</ele><time>2026-04-06T07:12:44.001Z</time></trkpt><trkpt lat="44.47871306093723" lon="8.733374667237825"><ele>353.20000000000005</ele><time>2026-04-06T07:12:45.001Z</time></trkpt><trkpt lat="44.478607232031344" lon="8.733348508348246"><ele>352.6</ele><time>2026-04-06T07:12:46Z</time></trkpt><trkpt lat="44.47850455074406" lon="8.733326306403834"><ele>352.0</ele><time>2026-04-06T07:12:47Z</time></trkpt><trkpt lat="44.478401645394605" lon="8.733301631343188"><ele>352.0</ele><time>2026-04-06T07:12:48Z</time></trkpt><trkpt lat="44.478310238757146" lon="8.73322328986633"><ele>352.0</ele><time>2026-04-06T07:12:49Z</time></trkpt><trkpt lat="44.478235761734496" lon="8.733101516987722"><ele>352.0</ele><time>2026-04-06T07:12:50Z</time></trkpt><trkpt lat="44.47816199482738" lon="8.732983431316017"><ele>352.0</ele><time>2026-04-06T07:12:51Z</time></trkpt><trkpt lat="44.47807005527818" lon="8.732875682773134"><ele>352.0</ele><time>2026-04-06T07:12:52Z</time></trkpt><trkpt lat="44.47799802633819" lon="8.73278610702584"><ele>352.0</ele><time>2026-04-06T07:12:53Z</time></trkpt><trkpt lat="44.47793773102316" lon="8.732677394953363"><ele>352.0</ele><time>2026-04-06T07:12:54Z</time></trkpt><trkpt lat="44.47791767417416" lon="8.732553863756852"><ele>352.0</ele><time>2026-04-06T07:12:55Z</time></trkpt><trkpt lat="44.477928544542635" lon="8.732438105594925"><ele>352.0</ele><time>2026-04-06T07:12:56Z</time></trkpt><trkpt lat="44.47791160516687" lon="8.732300630612654"><ele>351.20000000000005</ele><time>2026-04-06T07:12:58Z</time></trkpt><trkpt lat="44.477869014251546" lon="8.732199207450629"><ele>350.4</ele><time>2026-04-06T07:12:59Z</time></trkpt><trkpt lat="44.477790789117535" lon="8.732105965334826"><ele>349.6</ele><time>2026-04-06T07:13:00Z</time></trkpt><trkpt lat="44.47767511098652" lon="8.732065483976681"><ele>348.79999999999995</ele><time>2026-04-06T07:13:01Z</time></trkpt><trkpt lat="44.477560024591085" lon="8.732023000501368"><ele>348.0</ele><time>2026-04-06T07:13:02Z</time></trkpt><trkpt lat="44.47744385406511" lon="8.731964935127653"><ele>348.0</ele><time>2026-04-06T07:13:03Z</time></trkpt><trkpt lat="44.47732813118801" lon="8.731905556397136"><ele>348.0</ele><time>2026-04-06T07:13:04Z</time></trkpt><trkpt lat="44.47720890005861" lon="8.73187381850662"><ele>348.0</ele><time>2026-04-06T07:13:05Z</time></trkpt><trkpt lat="44.47708717416632" lon="8.731909696317107"><ele>348.0</ele><time>2026-04-06T07:13:06Z</time></trkpt><trkpt lat="44.476973067472755" lon="8.731948889312653"><ele>345.75</ele><time>2026-04-06T07:13:07Z</time></trkpt><trkpt lat="44.47684998812403" lon="8.731941786666862"><ele>343.5</ele><time>2026-04-06T07:13:08Z</time></trkpt><trkpt lat="44.476735196815156" lon="8.73186229443228"><ele>341.25</ele><time>2026-04-06T07:13:09Z</time></trkpt><trkpt lat="44.47664713258756" lon="8.73174418905032"><ele>339.0</ele><time>2026-04-06T07:13:10Z</time></trkpt><trkpt lat="44.47660896372647" lon="8.73162807594829"><ele>345.25</ele><time>2026-04-06T07:13:11Z</time></trkpt><trkpt lat="44.47665511585442" lon="8.731502893615943"><ele>351.5</ele><time>2026-04-06T07:13:12Z</time></trkpt><trkpt lat="44.47673401549684" lon="8.731384108668358"><ele>357.75</ele><time>2026-04-06T07:13:13Z</time></trkpt><trkpt lat="44.47682223597132" lon="8.731258204289153"><ele>364.0</ele><time>2026-04-06T07:13:14Z</time></trkpt><trkpt lat="44.47690393789925" lon="8.73111943013784"><ele>361.25</ele><time>2026-04-06T07:13:15Z</time></trkpt><trkpt lat="44.47699167023305" lon="8.731023225055857"><ele>358.5</ele><time>2026-04-06T07:13:16Z</time></trkpt><trkpt lat="44.477095816301336" lon="8.730968055203638"><ele>355.75</ele><time>2026-04-06T07:13:17Z</time></trkpt><trkpt lat="44.47723032899387" lon="8.730966928352979"><ele>353.0</ele><time>2026-04-06T07:13:18Z</time></trkpt><trkpt lat="44.47738071431548" lon="8.730962823489719"><ele>358.75</ele><time>2026-04-06T07:13:19Z</time></trkpt><trkpt lat="44.477516118129685" lon="8.73092047124073"><ele>364.5</ele><time>2026-04-06T07:13:20Z</time></trkpt><trkpt lat="44.47764223029407" lon="8.730866236462846"><ele>370.25</ele><time>2026-04-06T07:13:21Z</time></trkpt><trkpt lat="44.47775855509118" lon="8.730792533208747"><ele>376.0</ele><time>2026-04-06T07:13:22Z</time></trkpt><trkpt lat="44.477854388457324" lon="8.730679163796731"><ele>376.0</ele><time>2026-04-06T07:13:23Z</time></trkpt><trkpt lat="44.47791162932294" lon="8.730510117273383"><ele>376.0</ele><time>2026-04-06T07:13:24Z</time></trkpt><trkpt lat="44.47793856091733" lon="8.730312884476946"><ele>376.0</ele><time>2026-04-06T07:13:25Z</time></trkpt><trkpt lat="44.477969306291186" lon="8.730117774935042"><ele>376.0</ele><time>2026-04-06T07:13:26Z</time></trkpt><trkpt lat="44.478005557126934" lon="8.72991265937547"><ele>379.75</ele><time>2026-04-06T07:13:27Z</time></trkpt><trkpt lat="44.47804815735652" lon="8.729716226628282"><ele>383.5</ele><time>2026-04-06T07:13:28Z</time></trkpt><trkpt lat="44.47809385341322" lon="8.729526424760806"><ele>387.25</ele><time>2026-04-06T07:13:29Z</time></trkpt><trkpt lat="44.47816480715083" lon="8.72933527319968"><ele>391.0</ele><time>2026-04-06T07:13:30Z</time></trkpt><trkpt lat="44.47824216819256" lon="8.729196622118538"><ele>391.0</ele><time>2026-04-06T07:13:31Z</time></trkpt><trkpt lat="44.478305062686516" lon="8.729076014071165"><ele>391.0</ele><time>2026-04-06T07:13:32Z</time></trkpt><trkpt lat="44.47830754329432" lon="8.728893285587594"><ele>391.0</ele><time>2026-04-06T07:13:33Z</time></trkpt><trkpt lat="44.47828092449462" lon="8.728700032043161"><ele>391.0</ele><time>2026-04-06T07:13:34Z</time></trkpt><trkpt lat="44.4782694858479" lon="8.728524260781308"><ele>388.25</ele><time>2026-04-06T07:13:35Z</time></trkpt><trkpt lat="44.478310410935954" lon="8.728355500886497"><ele>385.5</ele><time>2026-04-06T07:13:36Z</time></trkpt><trkpt lat="44.47840909671806" lon="8.728221133947562"><ele>382.75</ele><time>2026-04-06T07:13:37Z</time></trkpt><trkpt lat="44.478530234969185" lon="8.728112914036467"><ele>380.0</ele><time>2026-04-06T07:13:38Z</time></trkpt><trkpt lat="44.478661544363426" lon="8.728042919619371"><ele>387.75</ele><time>2026-04-06T07:13:39Z</time></trkpt><trkpt lat="44.47879245844582" lon="8.728011671483147"><ele>395.5</ele><time>2026-04-06T07:13:40Z</time></trkpt><trkpt lat="44.47893064350686" lon="8.728042296982906"><ele>403.25</ele><time>2026-04-06T07:13:41Z</time></trkpt><trkpt lat="44.479064905338554" lon="8.728002462515548"><ele>411.0</ele><time>2026-04-06T07:13:42Z</time></trkpt><trkpt lat="44.47919138507642" lon="8.727948850112448"><ele>411.0</ele><time>2026-04-06T07:13:43Z</time></trkpt><trkpt lat="44.47931537343422" lon="8.727881692889419"><ele>411.0</ele><time>2026-04-06T07:13:44Z</time></trkpt><trkpt lat="44.47944151575461" lon="8.727839047975364"><ele>411.0</ele><time>2026-04-06T07:13:45Z</time></trkpt><trkpt lat="44.479579492778676" lon="8.727835757962142"><ele>411.0</ele><time>2026-04-06T07:13:46Z</time></trkpt><trkpt lat="44.4797050586167" lon="8.727838064720638"><ele>413.0</ele><time>2026-04-06T07:13:47Z</time></trkpt><trkpt lat="44.479823360844804" lon="8.727894138157744"><ele>415.0</ele><time>2026-04-06T07:13:48Z</time></trkpt><trkpt lat="44.47993077537645" lon="8.727978237063423"><ele>417.0</ele><time>2026-04-06T07:13:49Z</time></trkpt><trkpt lat="44.48001320563527" lon="8.728090032058352"><ele>419.0</ele><time>2026-04-06T07:13:50Z</time></trkpt><trkpt lat="44.4800816230087" lon="8.728188179790589"><ele>419.0</ele><time>2026-04-06T07:13:51Z</time></trkpt><trkpt lat="44.4801549728814" lon="8.72826788073974"><ele>419.0</ele><time>2026-04-06T07:13:52Z</time></trkpt><trkpt lat="44.48021639006554" lon="8.728330304561387"><ele>419.0</ele><time>2026-04-06T07:13:53Z</time></trkpt><trkpt lat="44.48030013051633" lon="8.72832768064036"><ele>419.0</ele><time>2026-04-06T07:13:54Z</time></trkpt><trkpt lat="44.48038750053981" lon="8.728254190205362"><ele>419.0</ele><time>2026-04-06T07:13:55Z</time></trkpt><trkpt lat="44.48042944126909" lon="8.728109018951692"><ele>417.4</ele><time>2026-04-06T07:13:56Z</time></trkpt><trkpt lat="44.480444709347715" lon="8.727947045053684"><ele>415.79999999999995</ele><time>2026-04-06T07:13:57Z</time></trkpt><trkpt lat="44.48046684214938" lon="8.7278002181215"><ele>414.20000000000005</ele><time>2026-04-06T07:13:57.999Z</time></trkpt><trkpt lat="44.48053455678443" lon="8.727662432757253"><ele>412.6</ele><time>2026-04-06T07:13:58.999Z</time></trkpt><trkpt lat="44.480621142241944" lon="8.727582250666647"><ele>411.0</ele><time>2026-04-06T07:13:59.999Z</time></trkpt><trkpt lat="44.4807134602407" lon="8.727527179653833"><ele>411.0</ele><time>2026-04-06T07:14:00.999Z</time></trkpt><trkpt lat="44.480794216199335" lon="8.727442805940159"><ele>411.0</ele><time>2026-04-06T07:14:01.999Z</time></trkpt><trkpt lat="44.480862096304165" lon="8.727328763607035"><ele>411.0</ele><time>2026-04-06T07:14:02.999Z</time></trkpt><trkpt lat="44.480933742201984" lon="8.727218792019539"><ele>411.0</ele><time>2026-04-06T07:14:03.999Z</time></trkpt><trkpt lat="44.481009699284485" lon="8.727104249305578"><ele>411.0</ele><time>2026-04-06T07:14:04.999Z</time></trkpt><trkpt lat="44.48107756880756" lon="8.72698685214207"><ele>412.8</ele><time>2026-04-06T07:14:05.999Z</time></trkpt><trkpt lat="44.48114907689094" lon="8.726883917662816"><ele>414.6</ele><time>2026-04-06T07:14:06.999Z</time></trkpt><trkpt lat="44.48122223911315" lon="8.726808844316967"><ele>416.4</ele><time>2026-04-06T07:14:07.999Z</time></trkpt><trkpt lat="44.48133140652296" lon="8.72676024684317"><ele>418.2</ele><time>2026-04-06T07:14:08.999Z</time></trkpt><trkpt lat="44.48143185244015" lon="8.726724483531804"><ele>420.0</ele><time>2026-04-06T07:14:09.999Z</time></trkpt><trkpt lat="44.48152634971049" lon="8.726665268851042"><ele>420.0</ele><time>2026-04-06T07:14:10.999Z</time></trkpt><trkpt lat="44.481609755747776" lon="8.726572873430392"><ele>420.0</ele><time>2026-04-06T07:14:11.999Z</time></trkpt><trkpt lat="44.48169072572779" lon="8.726458568620282"><ele>420.0</ele><time>2026-04-06T07:14:12.999Z</time></trkpt><trkpt lat="44.481767850606445" lon="8.726363733047396"><ele>420.0</ele><time>2026-04-06T07:14:13.999Z</time></trkpt><trkpt lat="44.481842735235375" lon="8.72626952215178"><ele>420.0</ele><time>2026-04-06T07:14:14.999Z</time></trkpt><trkpt lat="44.48191346000215" lon="8.726174450759128"><ele>420.0</ele><time>2026-04-06T07:14:15.999Z</time></trkpt><trkpt lat="44.481981891322775" lon="8.726068580983698"><ele>420.0</ele><time>2026-04-06T07:14:16.999Z</time></trkpt><trkpt lat="44.48203981841691" lon="8.725946830330605"><ele>420.0</ele><time>2026-04-06T07:14:17.999Z</time></trkpt><trkpt lat="44.48208642166452" lon="8.725818165813493"><ele>420.0</ele><time>2026-04-06T07:14:18.999Z</time></trkpt><trkpt lat="44.48212142240083" lon="8.725679066765137"><ele>420.0</ele><time>2026-04-06T07:14:19.999Z</time></trkpt><trkpt lat="44.482149009982265" lon="8.72552857401418"><ele>421.3333333333333</ele><time>2026-04-06T07:14:20.999Z</time></trkpt><trkpt lat="44.482169963312266" lon="8.725383820412855"><ele>422.66666666666663</ele><time>2026-04-06T07:14:21.999Z</time></trkpt><trkpt lat="44.48218673085659" lon="8.725243389637262"><ele>424.0</ele><time>2026-04-06T07:14:22.999Z</time></trkpt><trkpt lat="44.482205501853215" lon="8.725121379123534"><ele>425.3333333333333</ele><time>2026-04-06T07:14:23.999Z</time></trkpt><trkpt lat="44.482229885794055" lon="8.725013128089655"><ele>426.66666666666663</ele><time>2026-04-06T07:14:24.999Z</time></trkpt><trkpt lat="44.48224784138258" lon="8.724919388595138"><ele>428.0</ele><time>2026-04-06T07:14:25.999Z</time></trkpt><trkpt lat="44.482280111490965" lon="8.724777546319949"><ele>427.99999999999994</ele><time>2026-04-06T07:14:27.999Z</time></trkpt><trkpt lat="44.48233517153651" lon="8.724728670356589"><ele>428.0</ele><time>2026-04-06T07:14:28.999Z</time></trkpt><trkpt lat="44.48240038650841" lon="8.72473284908009"><ele>428.0</ele><time>2026-04-06T07:14:29.999Z</time></trkpt><trkpt lat="44.48244668564957" lon="8.724804415949126"><ele>428.0</ele><time>2026-04-06T07:14:30.999Z</time></trkpt><trkpt lat="44.48244073868069" lon="8.724907425107018"><ele>427.99999999999994</ele><time>2026-04-06T07:14:31.999Z</time></trkpt><trkpt lat="44.482398860237936" lon="8.725027026707664"><ele>428.0</ele><time>2026-04-06T07:14:32.999Z</time></trkpt><trkpt lat="44.48233942371524" lon="8.725121243865745"><ele>430.0</ele><time>2026-04-06T07:14:33.999Z</time></trkpt><trkpt lat="44.48228594740627" lon="8.725235710240366"><ele>431.99999999999994</ele><time>2026-04-06T07:14:34.999Z</time></trkpt><trkpt lat="44.48224589376709" lon="8.725362422305466"><ele>433.99999999999994</ele><time>2026-04-06T07:14:35.999Z</time></trkpt><trkpt lat="44.48222148809725" lon="8.7255143422661"><ele>436.0</ele><time>2026-04-06T07:14:36.999Z</time></trkpt><trkpt lat="44.48218926031242" lon="8.725679061491423"><ele>438.0</ele><time>2026-04-06T07:14:37.999Z</time></trkpt><trkpt lat="44.4821568427523" lon="8.725837036000442"><ele>438.0</ele><time>2026-04-06T07:14:38.999Z</time></trkpt><trkpt lat="44.48212055956638" lon="8.725989006190881"><ele>438.0</ele><time>2026-04-06T07:14:39.999Z</time></trkpt><trkpt lat="44.48206499676338" lon="8.726144433331417"><ele>438.0</ele><time>2026-04-06T07:14:40.999Z</time></trkpt><trkpt lat="44.4819946524007" lon="8.726270833259472"><ele>438.0</ele><time>2026-04-06T07:14:41.999Z</time></trkpt><trkpt lat="44.48191599710932" lon="8.726391538349866"><ele>439.75</ele><time>2026-04-06T07:14:43Z</time></trkpt><trkpt lat="44.48184546883122" lon="8.726525777410659"><ele>441.5</ele><time>2026-04-06T07:14:44Z</time></trkpt><trkpt lat="44.481791485664694" lon="8.726678712633168"><ele>443.25</ele><time>2026-04-06T07:14:45Z</time></trkpt><trkpt lat="44.48175667968349" lon="8.726847323352148"><ele>445.0</ele><time>2026-04-06T07:14:46Z</time></trkpt><trkpt lat="44.4817056254341" lon="8.726991236803899"><ele>445.0</ele><time>2026-04-06T07:14:47Z</time></trkpt><trkpt lat="44.48160963877203" lon="8.72707299795009"><ele>445.0</ele><time>2026-04-06T07:14:48Z</time></trkpt><trkpt lat="44.48149161486265" lon="8.727124177406834"><ele>445.0</ele><time>2026-04-06T07:14:49Z</time></trkpt><trkpt lat="44.48137343266958" lon="8.72717899690128"><ele>445.0</ele><time>2026-04-06T07:14:50Z</time></trkpt><trkpt lat="44.48127144397913" lon="8.727268462333832"><ele>443.0</ele><time>2026-04-06T07:14:51Z</time></trkpt><trkpt lat="44.48118566802355" lon="8.727379639677496"><ele>441.0</ele><time>2026-04-06T07:14:52Z</time></trkpt><trkpt lat="44.48110649587149" lon="8.727484675239648"><ele>439.0</ele><time>2026-04-06T07:14:53Z</time></trkpt><trkpt lat="44.481043864788894" lon="8.727596484411869"><ele>437.0</ele><time>2026-04-06T07:14:54Z</time></trkpt><trkpt lat="44.480987758330436" lon="8.727730774357749"><ele>435.0</ele><time>2026-04-06T07:14:55Z</time></trkpt><trkpt lat="44.48092895843056" lon="8.727856182021425"><ele>435.0</ele><time>2026-04-06T07:14:56Z</time></trkpt><trkpt lat="44.48085886439667" lon="8.72796750902067"><ele>435.0</ele><time>2026-04-06T07:14:57Z</time></trkpt><trkpt lat="44.480785727709694" lon="8.72808004540903"><ele>435.0</ele><time>2026-04-06T07:14:58Z</time></trkpt><trkpt lat="44.48072920999553" lon="8.728234141659948"><ele>435.0</ele><time>2026-04-06T07:14:59Z</time></trkpt><trkpt lat="44.4807078822939" lon="8.728404237466377"><ele>435.0</ele><time>2026-04-06T07:15:00Z</time></trkpt><trkpt lat="44.48069234984593" lon="8.728552290046732"><ele>435.0</ele><time>2026-04-06T07:15:01Z</time></trkpt><trkpt lat="44.480662417408645" lon="8.72868426538539"><ele>435.0</ele><time>2026-04-06T07:15:02Z</time></trkpt><trkpt lat="44.480623977852034" lon="8.728807772472866"><ele>435.0</ele><time>2026-04-06T07:15:03Z</time></trkpt><trkpt lat="44.480601551036074" lon="8.728930850775413"><ele>435.0</ele><time>2026-04-06T07:15:04Z</time></trkpt><trkpt lat="44.48059839986606" lon="8.729049933723056"><ele>436.0</ele><time>2026-04-06T07:15:05Z</time></trkpt><trkpt lat="44.48058596178711" lon="8.729151431384725"><ele>437.0</ele><time>2026-04-06T07:15:06Z</time></trkpt><trkpt lat="44.4805498670749" lon="8.72924158948335"><ele>438.0</ele><time>2026-04-06T07:15:07Z</time></trkpt><trkpt lat="44.480484635250825" lon="8.729302060990284"><ele>439.0</ele><time>2026-04-06T07:15:08Z</time></trkpt><trkpt lat="44.48039846705647" lon="8.729310719017086"><ele>440.0</ele><time>2026-04-06T07:15:09Z</time></trkpt><trkpt lat="44.480314964585055" lon="8.729271272673104"><ele>441.0</ele><time>2026-04-06T07:15:10Z</time></trkpt><trkpt lat="44.480243322240554" lon="8.729232264195796"><ele>441.0</ele><time>2026-04-06T07:15:11Z</time></trkpt><trkpt lat="44.48015863763458" lon="8.72919053549045"><ele>441.0</ele><time>2026-04-06T07:15:12Z</time></trkpt><trkpt lat="44.480073617056256" lon="8.729161377241534"><ele>441.0</ele><time>2026-04-06T07:15:13Z</time></trkpt><trkpt lat="44.47998885495541" lon="8.7291299663044"><ele>441.0</ele><time>2026-04-06T07:15:14Z</time></trkpt><trkpt lat="44.479900982346706" lon="8.729097928856248"><ele>441.0</ele><time>2026-04-06T07:15:15Z</time></trkpt><trkpt lat="44.47980895381166" lon="8.729078152810558"><ele>441.0</ele><time>2026-04-06T07:15:16Z</time></trkpt><trkpt lat="44.479709122873274" lon="8.729088428094684"><ele>441.0</ele><time>2026-04-06T07:15:17Z</time></trkpt><trkpt lat="44.479609233819104" lon="8.729133209510676"><ele>441.0</ele><time>2026-04-06T07:15:18Z</time></trkpt><trkpt lat="44.47952522278626" lon="8.729221281202912"><ele>441.0</ele><time>2026-04-06T07:15:19Z</time></trkpt><trkpt lat="44.47945404408063" lon="8.729339191697456"><ele>441.0</ele><time>2026-04-06T07:15:20Z</time></trkpt><trkpt lat="44.47939234121637" lon="8.729464377299037"><ele>441.0</ele><time>2026-04-06T07:15:21Z</time></trkpt><trkpt lat="44.47933069865302" lon="8.729587926966706"><ele>443.0</ele><time>2026-04-06T07:15:22Z</time></trkpt><trkpt lat="44.47926709437234" lon="8.729713048140646"><ele>445.0</ele><time>2026-04-06T07:15:23Z</time></trkpt><trkpt lat="44.47919967994882" lon="8.729839755824075"><ele>447.0</ele><time>2026-04-06T07:15:24Z</time></trkpt><trkpt lat="44.47912908716766" lon="8.729972194930635"><ele>449.0</ele><time>2026-04-06T07:15:25Z</time></trkpt><trkpt lat="44.47906292297016" lon="8.730102458803616"><ele>448.2</ele><time>2026-04-06T07:15:26Z</time></trkpt><trkpt lat="44.4790094586895" lon="8.73023260470675"><ele>447.4</ele><time>2026-04-06T07:15:27Z</time></trkpt><trkpt lat="44.47899300389611" lon="8.73036703101793"><ele>446.6</ele><time>2026-04-06T07:15:28Z</time></trkpt><trkpt lat="44.47901610009261" lon="8.730503555731145"><ele>445.8</ele><time>2026-04-06T07:15:29Z</time></trkpt><trkpt lat="44.47908351066873" lon="8.730618140282644"><ele>445.0</ele><time>2026-04-06T07:15:30Z</time></trkpt><trkpt lat="44.47917387044775" lon="8.730709563667663"><ele>445.0</ele><time>2026-04-06T07:15:31Z</time></trkpt><trkpt lat="44.479275077434856" lon="8.730776208650537"><ele>445.0</ele><time>2026-04-06T07:15:32Z</time></trkpt><trkpt lat="44.479368618751515" lon="8.730844908378744"><ele>445.0</ele><time>2026-04-06T07:15:33Z</time></trkpt><trkpt lat="44.479459270385334" lon="8.730928766896014"><ele>445.0</ele><time>2026-04-06T07:15:34Z</time></trkpt><trkpt lat="44.479554591458374" lon="8.731036570659649"><ele>445.0</ele><time>2026-04-06T07:15:35Z</time></trkpt><trkpt lat="44.47964601680024" lon="8.731136450496042"><ele>444.0</ele><time>2026-04-06T07:15:36Z</time></trkpt><trkpt lat="44.479745312930596" lon="8.73121823935028"><ele>443.0</ele><time>2026-04-06T07:15:37Z</time></trkpt><trkpt lat="44.479861274379" lon="8.731271142359905"><ele>442.0</ele><time>2026-04-06T07:15:38Z</time></trkpt><trkpt lat="44.47998090826276" lon="8.73129885490932"><ele>441.0</ele><time>2026-04-06T07:15:39Z</time></trkpt><trkpt lat="44.48010104319818" lon="8.731304617025177"><ele>441.0</ele><time>2026-04-06T07:15:40Z</time></trkpt><trkpt lat="44.48022393135512" lon="8.731296923023809"><ele>441.0</ele><time>2026-04-06T07:15:41Z</time></trkpt><trkpt lat="44.480345399142834" lon="8.731294699362623"><ele>441.0</ele><time>2026-04-06T07:15:42Z</time></trkpt><trkpt lat="44.48046544471829" lon="8.73128258367274"><ele>441.0</ele><time>2026-04-06T07:15:43Z</time></trkpt><trkpt lat="44.48058179749865" lon="8.731267740425658"><ele>441.6</ele><time>2026-04-06T07:15:44Z</time></trkpt><trkpt lat="44.48069155145685" lon="8.731245703570465"><ele>442.20000000000005</ele><time>2026-04-06T07:15:45Z</time></trkpt><trkpt lat="44.480786319271836" lon="8.731230298256644"><ele>442.79999999999995</ele><time>2026-04-06T07:15:45.999Z</time></trkpt><trkpt lat="44.4808776516678" lon="8.731222669727293"><ele>443.4</ele><time>2026-04-06T07:15:46.999Z</time></trkpt><trkpt lat="44.48098529662198" lon="8.73120432219937"><ele>444.0</ele><time>2026-04-06T07:15:47.999Z</time></trkpt><trkpt lat="44.48108957954055" lon="8.731186199595284"><ele>444.0</ele><time>2026-04-06T07:15:48.999Z</time></trkpt><trkpt lat="44.481190239385036" lon="8.73117170709056"><ele>444.0</ele><time>2026-04-06T07:15:49.999Z</time></trkpt><trkpt lat="44.4812905521549" lon="8.731163639636272"><ele>444.0</ele><time>2026-04-06T07:15:50.999Z</time></trkpt><trkpt lat="44.48138738589814" lon="8.731167811219068"><ele>444.0</ele><time>2026-04-06T07:15:51.999Z</time></trkpt><trkpt lat="44.48148044565668" lon="8.73120848947705"><ele>444.0</ele><time>2026-04-06T07:15:52.999Z</time></trkpt><trkpt lat="44.48156363193402" lon="8.731296374994603"><ele>443.0</ele><time>2026-04-06T07:15:53.999Z</time></trkpt><trkpt lat="44.48162808252856" lon="8.731405140234576"><ele>442.0</ele><time>2026-04-06T07:15:54.999Z</time></trkpt><trkpt lat="44.48165527636765" lon="8.73154851462862"><ele>441.0</ele><time>2026-04-06T07:15:55.999Z</time></trkpt><trkpt lat="44.48167285473031" lon="8.731704680218618"><ele>440.0</ele><time>2026-04-06T07:15:56.999Z</time></trkpt><trkpt lat="44.48171691794443" lon="8.731861775757178"><ele>439.0</ele><time>2026-04-06T07:15:57.999Z</time></trkpt><trkpt lat="44.481805992395856" lon="8.731976095022366"><ele>439.0</ele><time>2026-04-06T07:15:58.999Z</time></trkpt><trkpt lat="44.48192875420934" lon="8.732032873200358"><ele>439.0</ele><time>2026-04-06T07:15:59.999Z</time></trkpt><trkpt lat="44.482046774472835" lon="8.732074366839305"><ele>439.0</ele><time>2026-04-06T07:16:00.999Z</time></trkpt><trkpt lat="44.482164419577884" lon="8.732102043401419"><ele>439.0</ele><time>2026-04-06T07:16:01.999Z</time></trkpt><trkpt lat="44.482290840687185" lon="8.732098762605062"><ele>442.4</ele><time>2026-04-06T07:16:02.999Z</time></trkpt><trkpt lat="44.4824072476779" lon="8.732081602487892"><ele>445.79999999999995</ele><time>2026-04-06T07:16:03.999Z</time></trkpt><trkpt lat="44.48251207782208" lon="8.732067577540382"><ele>449.20000000000005</ele><time>2026-04-06T07:16:04.999Z</time></trkpt><trkpt lat="44.48261658357336" lon="8.73205549219323"><ele>452.6</ele><time>2026-04-06T07:16:05.999Z</time></trkpt><trkpt lat="44.482715135834155" lon="8.732044851419058"><ele>456.0</ele><time>2026-04-06T07:16:06.999Z</time></trkpt><trkpt lat="44.48280853382039" lon="8.732032794348612"><ele>456.0</ele><time>2026-04-06T07:16:07.999Z</time></trkpt><trkpt lat="44.48289931512209" lon="8.732046594331711"><ele>456.0</ele><time>2026-04-06T07:16:08.999Z</time></trkpt><trkpt lat="44.48298356069119" lon="8.732111031918457"><ele>456.0</ele><time>2026-04-06T07:16:09.999Z</time></trkpt><trkpt lat="44.48306959300926" lon="8.732205483560081"><ele>456.0</ele><time>2026-04-06T07:16:10.999Z</time></trkpt><trkpt lat="44.48316173382254" lon="8.732284178730021"><ele>456.0</ele><time>2026-04-06T07:16:11.999Z</time></trkpt><trkpt lat="44.48325741939731" lon="8.732336108282501"><ele>459.6666666666667</ele><time>2026-04-06T07:16:12.999Z</time></trkpt><trkpt lat="44.483358463235625" lon="8.73237574410481"><ele>463.33333333333337</ele><time>2026-04-06T07:16:13.999Z</time></trkpt><trkpt lat="44.48345493480858" lon="8.732420853370929"><ele>467.0</ele><time>2026-04-06T07:16:14.999Z</time></trkpt><trkpt lat="44.48352831719719" lon="8.732467425742671"><ele>470.6666666666667</ele><time>2026-04-06T07:16:15.999Z</time></trkpt><trkpt lat="44.48359913633082" lon="8.73249851471669"><ele>474.33333333333337</ele><time>2026-04-06T07:16:16.999Z</time></trkpt><trkpt lat="44.48366406307142" lon="8.732523694787599"><ele>478.0</ele><time>2026-04-06T07:16:17.999Z</time></trkpt><trkpt lat="44.483767190251676" lon="8.732557034083642"><ele>476.79999999999995</ele><time>2026-04-06T07:16:19.999Z</time></trkpt><trkpt lat="44.48386521597277" lon="8.732606982419583"><ele>475.59999999999997</ele><time>2026-04-06T07:16:21.999Z</time></trkpt><trkpt lat="44.48391978602445" lon="8.732757794213521"><ele>474.40000000000003</ele><time>2026-04-06T07:16:23.999Z</time></trkpt><trkpt lat="44.483902519176446" lon="8.732846319255087"><ele>473.20000000000005</ele><time>2026-04-06T07:16:24.999Z</time></trkpt><trkpt lat="44.48384056959608" lon="8.732918913155597"><ele>472.0</ele><time>2026-04-06T07:16:25.999Z</time></trkpt><trkpt lat="44.483758391857634" lon="8.732972442709748"><ele>472.0</ele><time>2026-04-06T07:16:26.999Z</time></trkpt><trkpt lat="44.48367460283165" lon="8.733030415723505"><ele>472.00000000000006</ele><time>2026-04-06T07:16:27.999Z</time></trkpt><trkpt lat="44.48358892006505" lon="8.733101121783394"><ele>472.00000000000006</ele><time>2026-04-06T07:16:28.999Z</time></trkpt><trkpt lat="44.48349725161864" lon="8.733172984005375"><ele>472.0</ele><time>2026-04-06T07:16:29.999Z</time></trkpt><trkpt lat="44.48341312090594" lon="8.733269623313591"><ele>472.0</ele><time>2026-04-06T07:16:30.999Z</time></trkpt><trkpt lat="44.48335526659394" lon="8.733374677958262"><ele>472.0</ele><time>2026-04-06T07:16:31.999Z</time></trkpt><trkpt lat="44.48331027849731" lon="8.733495069636007"><ele>472.00000000000006</ele><time>2026-04-06T07:16:32.999Z</time></trkpt><trkpt lat="44.48329278846157" lon="8.73362051215017"><ele>472.00000000000006</ele><time>2026-04-06T07:16:33.999Z</time></trkpt><trkpt lat="44.48331393458665" lon="8.733740943847899"><ele>472.0</ele><time>2026-04-06T07:16:34.999Z</time></trkpt><trkpt lat="44.48339428383966" lon="8.733844013169744"><ele>472.0</ele><time>2026-04-06T07:16:35.999Z</time></trkpt><trkpt lat="44.48348347010977" lon="8.733928975137124"><ele>471.8</ele><time>2026-04-06T07:16:36.999Z</time></trkpt><trkpt lat="44.483568866900214" lon="8.734003173603172"><ele>471.6</ele><time>2026-04-06T07:16:37.999Z</time></trkpt><trkpt lat="44.483649775054204" lon="8.734075953244005"><ele>471.40000000000003</ele><time>2026-04-06T07:16:38.999Z</time></trkpt><trkpt lat="44.4837277928703" lon="8.734156889835472"><ele>471.20000000000005</ele><time>2026-04-06T07:16:39.999Z</time></trkpt><trkpt lat="44.48381697224886" lon="8.734239710538578"><ele>471.0</ele><time>2026-04-06T07:16:40.999Z</time></trkpt><trkpt lat="44.48391394616469" lon="8.734328096102223"><ele>473.8</ele><time>2026-04-06T07:16:41.999Z</time></trkpt><trkpt lat="44.48400686762973" lon="8.734412023261465"><ele>476.6</ele><time>2026-04-06T07:16:42.999Z</time></trkpt><trkpt lat="44.48410352894266" lon="8.734478044815841"><ele>479.4</ele><time>2026-04-06T07:16:43.999Z</time></trkpt><trkpt lat="44.48419305046311" lon="8.734539651636734"><ele>482.2</ele><time>2026-04-06T07:16:44.999Z</time></trkpt><trkpt lat="44.48427930489772" lon="8.734600676931311"><ele>485.0</ele><time>2026-04-06T07:16:45.999Z</time></trkpt><trkpt lat="44.484351331925176" lon="8.734666575953693"><ele>485.0</ele><time>2026-04-06T07:16:46.999Z</time></trkpt><trkpt lat="44.48441222642607" lon="8.734745021596295"><ele>485.0</ele><time>2026-04-06T07:16:47.999Z</time></trkpt><trkpt lat="44.48443275879045" lon="8.734872567640569"><ele>485.0</ele><time>2026-04-06T07:16:49Z</time></trkpt><trkpt lat="44.48440781503208" lon="8.735027797993254"><ele>485.0</ele><time>2026-04-06T07:16:50Z</time></trkpt><trkpt lat="44.48439576411736" lon="8.735165891833564"><ele>485.0</ele><time>2026-04-06T07:16:51Z</time></trkpt><trkpt lat="44.48432487326934" lon="8.73527521426187"><ele>489.4</ele><time>2026-04-06T07:16:52Z</time></trkpt><trkpt lat="44.48422431523329" lon="8.735332933707179"><ele>493.8</ele><time>2026-04-06T07:16:53Z</time></trkpt><trkpt lat="44.48412286563172" lon="8.735373432421051"><ele>498.20000000000005</ele><time>2026-04-06T07:16:54Z</time></trkpt><trkpt lat="44.48402808187514" lon="8.73542260185512"><ele>502.6</ele><time>2026-04-06T07:16:55Z</time></trkpt><trkpt lat="44.483939261323954" lon="8.735485713095414"><ele>507.0</ele><time>2026-04-06T07:16:56Z</time></trkpt><trkpt lat="44.483846557548674" lon="8.735527982824937"><ele>502.8</ele><time>2026-04-06T07:16:57Z</time></trkpt><trkpt lat="44.48376288977697" lon="8.735579613278123"><ele>498.6</ele><time>2026-04-06T07:16:58Z</time></trkpt><trkpt lat="44.483687049534474" lon="8.735649891492624"><ele>494.40000000000003</ele><time>2026-04-06T07:16:59Z</time></trkpt><trkpt lat="44.48362362755198" lon="8.73576596317585"><ele>490.20000000000005</ele><time>2026-04-06T07:17:00Z</time></trkpt><trkpt lat="44.483583124468396" lon="8.735905294633664"><ele>486.0</ele><time>2026-04-06T07:17:01Z</time></trkpt><trkpt lat="44.48356036110138" lon="8.736045659515034"><ele>490.6666666666667</ele><time>2026-04-06T07:17:02Z</time></trkpt><trkpt lat="44.483525457868744" lon="8.736172414263466"><ele>495.33333333333337</ele><time>2026-04-06T07:17:03Z</time></trkpt><trkpt lat="44.483466387223245" lon="8.736298040202024"><ele>500.0</ele><time>2026-04-06T07:17:04Z</time></trkpt><trkpt lat="44.4833991189534" lon="8.736381271577137"><ele>504.6666666666667</ele><time>2026-04-06T07:17:05Z</time></trkpt><trkpt lat="44.48334019949714" lon="8.736417596903399"><ele>509.33333333333337</ele><time>2026-04-06T07:17:06Z</time></trkpt><trkpt lat="44.48325488225149" lon="8.736460584055301"><ele>514.0</ele><time>2026-04-06T07:17:08Z</time></trkpt><trkpt lat="44.48319918759665" lon="8.736542423518921"><ele>514.0</ele><time>2026-04-06T07:17:40Z</time></trkpt><trkpt lat="44.483151465337464" lon="8.73665581039846"><ele>514.0</ele><time>2026-04-06T07:17:42Z</time></trkpt><trkpt lat="44.4830964923758" lon="8.736714292799642"><ele>514.0</ele><time>2026-04-06T07:17:43Z</time></trkpt><trkpt lat="44.48302017879576" lon="8.736734805289414"><ele>514.0</ele><time>2026-04-06T07:17:44Z</time></trkpt><trkpt lat="44.48294330929615" lon="8.736674200552185"><ele>514.0</ele><time>2026-04-06T07:17:45Z</time></trkpt><trkpt lat="44.482865234565686" lon="8.736590093441574"><ele>514.0</ele><time>2026-04-06T07:17:46Z</time></trkpt><trkpt lat="44.48278235003099" lon="8.736505938042633"><ele>514.2</ele><time>2026-04-06T07:17:47Z</time></trkpt><trkpt lat="44.48269454107" lon="8.736429218687329"><ele>514.4</ele><time>2026-04-06T07:17:48Z</time></trkpt><trkpt lat="44.48261337791159" lon="8.736354055974187"><ele>514.6</ele><time>2026-04-06T07:17:49Z</time></trkpt><trkpt lat="44.482527400502136" lon="8.736275159739524"><ele>514.8</ele><time>2026-04-06T07:17:50Z</time></trkpt><trkpt lat="44.48244483203694" lon="8.73620965870334"><ele>515.0</ele><time>2026-04-06T07:17:51Z</time></trkpt><trkpt lat="44.48236617057597" lon="8.73618794975563"><ele>515.0</ele><time>2026-04-06T07:17:51.999Z</time></trkpt><trkpt lat="44.48229768059019" lon="8.736235058265816"><ele>515.0</ele><time>2026-04-06T07:17:52.999Z</time></trkpt><trkpt lat="44.48226537088845" lon="8.736334248947491"><ele>515.0</ele><time>2026-04-06T07:17:53.999Z</time></trkpt><trkpt lat="44.48228405646556" lon="8.736445351206594"><ele>515.0</ele><time>2026-04-06T07:17:54.999Z</time></trkpt><trkpt lat="44.48234793789564" lon="8.736519317159617"><ele>515.0</ele><time>2026-04-06T07:17:55.999Z</time></trkpt><trkpt lat="44.482452999957125" lon="8.73654671296041"><ele>515.0</ele><time>2026-04-06T07:17:56.999Z</time></trkpt><trkpt lat="44.4825588495064" lon="8.736575349892089"><ele>515.0</ele><time>2026-04-06T07:17:57.999Z</time></trkpt><trkpt lat="44.48265915284546" lon="8.736657732512992"><ele>515.0</ele><time>2026-04-06T07:17:58.999Z</time></trkpt><trkpt lat="44.48274332696006" lon="8.736780634718354"><ele>515.0</ele><time>2026-04-06T07:17:59.999Z</time></trkpt><trkpt lat="44.48283312967498" lon="8.736897534270327"><ele>515.0</ele><time>2026-04-06T07:18:00.999Z</time></trkpt><trkpt lat="44.48291449774323" lon="8.737004982752644"><ele>522.5</ele><time>2026-04-06T07:18:01.999Z</time></trkpt><trkpt lat="44.4829958702074" lon="8.73710884637862"><ele>530.0</ele><time>2026-04-06T07:18:02.999Z</time></trkpt><trkpt lat="44.483099232041646" lon="8.737146838414565"><ele>537.5</ele><time>2026-04-06T07:18:03.999Z</time></trkpt><trkpt lat="44.48322028868913" lon="8.73710557989695"><ele>545.0</ele><time>2026-04-06T07:18:04.999Z</time></trkpt><trkpt lat="44.48333126159368" lon="8.736991477596643"><ele>541.0</ele><time>2026-04-06T07:18:05.999Z</time></trkpt><trkpt lat="44.48344308667909" lon="8.73688487147697"><ele>537.0</ele><time>2026-04-06T07:18:06.999Z</time></trkpt><trkpt lat="44.483569005312816" lon="8.73683683649785"><ele>533.0</ele><time>2026-04-06T07:18:07.999Z</time></trkpt><trkpt lat="44.483690451120985" lon="8.736754948303053"><ele>529.0</ele><time>2026-04-06T07:18:08.999Z</time></trkpt><trkpt lat="44.4838075904393" lon="8.736667385955997"><ele>529.0</ele><time>2026-04-06T07:18:09.999Z</time></trkpt><trkpt lat="44.48390434381191" lon="8.736524348353349"><ele>529.0</ele><time>2026-04-06T07:18:10.999Z</time></trkpt><trkpt lat="44.4839814359222" lon="8.736378344745221"><ele>529.0</ele><time>2026-04-06T07:18:11.999Z</time></trkpt><trkpt lat="44.48406736066387" lon="8.73624476198585"><ele>529.0</ele><time>2026-04-06T07:18:12.999Z</time></trkpt><trkpt lat="44.48416825833592" lon="8.736151067640646"><ele>529.0</ele><time>2026-04-06T07:18:13.999Z</time></trkpt><trkpt lat="44.48427451769238" lon="8.736088175334165"><ele>529.0</ele><time>2026-04-06T07:18:14.999Z</time></trkpt><trkpt lat="44.484381692325165" lon="8.736033965838002"><ele>529.0</ele><time>2026-04-06T07:18:15.999Z</time></trkpt><trkpt lat="44.48448779117176" lon="8.735996936856752"><ele>529.0</ele><time>2026-04-06T07:18:16.999Z</time></trkpt><trkpt lat="44.48458615884917" lon="8.735985797074736"><ele>529.0</ele><time>2026-04-06T07:18:17.999Z</time></trkpt><trkpt lat="44.484670506658794" lon="8.735987505987541"><ele>528.6</ele><time>2026-04-06T07:18:18.999Z</time></trkpt><trkpt lat="44.48475016124264" lon="8.73603395747191"><ele>528.2</ele><time>2026-04-06T07:18:19.999Z</time></trkpt><trkpt lat="44.484826751455024" lon="8.736075001124235"><ele>527.8000000000001</ele><time>2026-04-06T07:18:20.999Z</time></trkpt><trkpt lat="44.48491331783993" lon="8.736089397812224"><ele>527.4</ele><time>2026-04-06T07:18:21.999Z</time></trkpt><trkpt lat="44.484979764700256" lon="8.735971976531275"><ele>527.0</ele><time>2026-04-06T07:18:22.999Z</time></trkpt><trkpt lat="44.4850244197132" lon="8.735844482341822"><ele>527.0</ele><time>2026-04-06T07:18:23.999Z</time></trkpt><trkpt lat="44.48506698757121" lon="8.735698276223921"><ele>527.0</ele><time>2026-04-06T07:18:24.999Z</time></trkpt><trkpt lat="44.48512906715336" lon="8.735565842363936"><ele>527.0</ele><time>2026-04-06T07:18:25.999Z</time></trkpt><trkpt lat="44.48520975990876" lon="8.735448467363053"><ele>527.0</ele><time>2026-04-06T07:18:26.999Z</time></trkpt><trkpt lat="44.48531457201553" lon="8.735336050134373"><ele>527.0</ele><time>2026-04-06T07:18:27.999Z</time></trkpt><trkpt lat="44.48541749370799" lon="8.735236497963099"><ele>527.0</ele><time>2026-04-06T07:18:28.999Z</time></trkpt><trkpt lat="44.485513577099034" lon="8.73514777745539"><ele>527.0</ele><time>2026-04-06T07:18:29.999Z</time></trkpt><trkpt lat="44.48559421945393" lon="8.735048874415561"><ele>527.0</ele><time>2026-04-06T07:18:30.999Z</time></trkpt><trkpt lat="44.48564098461215" lon="8.734926306016728"><ele>527.0</ele><time>2026-04-06T07:18:31.999Z</time></trkpt><trkpt lat="44.48562856990848" lon="8.734793080607732"><ele>529.25</ele><time>2026-04-06T07:18:32.999Z</time></trkpt><trkpt lat="44.4855714697719" lon="8.734641317242156"><ele>531.5</ele><time>2026-04-06T07:18:33.999Z</time></trkpt><trkpt lat="44.4854909822866" lon="8.73449460624338"><ele>533.75</ele><time>2026-04-06T07:18:34.999Z</time></trkpt><trkpt lat="44.48540305856499" lon="8.73436152375599"><ele>536.0</ele><time>2026-04-06T07:18:35.999Z</time></trkpt><trkpt lat="44.485303077287625" lon="8.734251388001827"><ele>536.0</ele><time>2026-04-06T07:18:36.999Z</time></trkpt><trkpt lat="44.48519414780172" lon="8.734157907659327"><ele>536.0</ele><time>2026-04-06T07:18:37.999Z</time></trkpt><trkpt lat="44.48509481332115" lon="8.734051094687135"><ele>536.0</ele><time>2026-04-06T07:18:38.999Z</time></trkpt><trkpt lat="44.48499593458892" lon="8.733947532333499"><ele>536.0</ele><time>2026-04-06T07:18:39.999Z</time></trkpt><trkpt lat="44.48491893848548" lon="8.73381803267914"><ele>536.0</ele><time>2026-04-06T07:18:40.999Z</time></trkpt><trkpt lat="44.48484545430894" lon="8.73369075476944"><ele>536.0</ele><time>2026-04-06T07:18:41.999Z</time></trkpt><trkpt lat="44.48478276833809" lon="8.733577744850491"><ele>536.0</ele><time>2026-04-06T07:18:42.999Z</time></trkpt><trkpt lat="44.48474586971193" lon="8.733463431082589"><ele>536.0</ele><time>2026-04-06T07:18:43.999Z</time></trkpt><trkpt lat="44.484763224807644" lon="8.733353276452267"><ele>536.0</ele><time>2026-04-06T07:18:44.999Z</time></trkpt><trkpt lat="44.48479891032199" lon="8.733203611182589"><ele>534.75</ele><time>2026-04-06T07:18:45.999Z</time></trkpt><trkpt lat="44.484861520001054" lon="8.73306407410653"><ele>533.5</ele><time>2026-04-06T07:18:46.999Z</time></trkpt><trkpt lat="44.48494510923091" lon="8.73294108468778"><ele>532.25</ele><time>2026-04-06T07:18:47.999Z</time></trkpt><trkpt lat="44.485042370958766" lon="8.732806774816407"><ele>531.0</ele><time>2026-04-06T07:18:48.999Z</time></trkpt><trkpt lat="44.485134876902194" lon="8.732679428960418"><ele>531.0</ele><time>2026-04-06T07:18:49.999Z</time></trkpt><trkpt lat="44.485224108882" lon="8.732574801438274"><ele>531.0</ele><time>2026-04-06T07:18:50.999Z</time></trkpt><trkpt lat="44.48531253526504" lon="8.732511411157397"><ele>531.0</ele><time>2026-04-06T07:18:51.999Z</time></trkpt><trkpt lat="44.48540851442572" lon="8.732488982458051"><ele>531.0</ele><time>2026-04-06T07:18:52.999Z</time></trkpt><trkpt lat="44.485494310585906" lon="8.73242773082599"><ele>531.0</ele><time>2026-04-06T07:18:53.999Z</time></trkpt><trkpt lat="44.4855435497158" lon="8.732299357327939"><ele>541.0</ele><time>2026-04-06T07:18:55Z</time></trkpt><trkpt lat="44.485540385542976" lon="8.732127857611975"><ele>551.0</ele><time>2026-04-06T07:18:56Z</time></trkpt><trkpt lat="44.48556007877668" lon="8.731988414035051"><ele>561.0</ele><time>2026-04-06T07:18:57Z</time></trkpt><trkpt lat="44.48560880863127" lon="8.731859980386625"><ele>571.0</ele><time>2026-04-06T07:18:58Z</time></trkpt><trkpt lat="44.48562368371033" lon="8.731733393669106"><ele>581.0</ele><time>2026-04-06T07:18:59Z</time></trkpt><trkpt lat="44.48558279457269" lon="8.731617208454693"><ele>581.25</ele><time>2026-04-06T07:19:00Z</time></trkpt><trkpt lat="44.48548076993164" lon="8.731539933469739"><ele>581.5</ele><time>2026-04-06T07:19:01Z</time></trkpt><trkpt lat="44.485378424719826" lon="8.731473643015157"><ele>581.75</ele><time>2026-04-06T07:19:02Z</time></trkpt><trkpt lat="44.48528583247796" lon="8.73138305153545"><ele>582.0</ele><time>2026-04-06T07:19:03Z</time></trkpt><trkpt lat="44.48516941957501" lon="8.731308008644326"><ele>574.0</ele><time>2026-04-06T07:19:04Z</time></trkpt><trkpt lat="44.48504855840806" lon="8.73127602489842"><ele>566.0</ele><time>2026-04-06T07:19:05Z</time></trkpt><trkpt lat="44.48490988843404" lon="8.731299724659813"><ele>558.0</ele><time>2026-04-06T07:19:06Z</time></trkpt><trkpt lat="44.48477025645826" lon="8.731283988441103"><ele>550.0</ele><time>2026-04-06T07:19:07Z</time></trkpt><trkpt lat="44.484641214583384" lon="8.73124766428268"><ele>545.5</ele><time>2026-04-06T07:19:08Z</time></trkpt><trkpt lat="44.48450723749977" lon="8.731186374519659"><ele>541.0</ele><time>2026-04-06T07:19:09Z</time></trkpt><trkpt lat="44.48437956444746" lon="8.731119518616307"><ele>536.5</ele><time>2026-04-06T07:19:10Z</time></trkpt><trkpt lat="44.48426406249378" lon="8.73105627158035"><ele>532.0</ele><time>2026-04-06T07:19:11Z</time></trkpt><trkpt lat="44.484139018060226" lon="8.730987625108883"><ele>541.25</ele><time>2026-04-06T07:19:12Z</time></trkpt><trkpt lat="44.48402439511124" lon="8.73091753324325"><ele>550.5</ele><time>2026-04-06T07:19:13Z</time></trkpt><trkpt lat="44.48392530221936" lon="8.730829336170418"><ele>559.75</ele><time>2026-04-06T07:19:14Z</time></trkpt><trkpt lat="44.48384350499856" lon="8.730710378171633"><ele>569.0</ele><time>2026-04-06T07:19:15Z</time></trkpt><trkpt lat="44.4837845157305" lon="8.730565389925289"><ele>569.0</ele><time>2026-04-06T07:19:16Z</time></trkpt><trkpt lat="44.483708193930745" lon="8.73042183106834"><ele>569.0</ele><time>2026-04-06T07:19:17Z</time></trkpt><trkpt lat="44.48361136477832" lon="8.730323068291597"><ele>569.0</ele><time>2026-04-06T07:19:18Z</time></trkpt><trkpt lat="44.48348773500524" lon="8.730236858082254"><ele>569.0</ele><time>2026-04-06T07:19:19Z</time></trkpt><trkpt lat="44.48335652562366" lon="8.730172670867335"><ele>569.0</ele><time>2026-04-06T07:19:20Z</time></trkpt><trkpt lat="44.48324590850066" lon="8.730106847416394"><ele>569.0</ele><time>2026-04-06T07:19:21Z</time></trkpt><trkpt lat="44.48314204185181" lon="8.730055929674533"><ele>569.0</ele><time>2026-04-06T07:19:22Z</time></trkpt><trkpt lat="44.48306598007378" lon="8.730020766331375"><ele>569.0</ele><time>2026-04-06T07:19:23Z</time></trkpt><trkpt lat="44.48305932026021" lon="8.72991582586953"><ele>569.0</ele><time>2026-04-06T07:19:24Z</time></trkpt><trkpt lat="44.48310099146998" lon="8.729834350135183"><ele>569.0</ele><time>2026-04-06T07:19:25Z</time></trkpt><trkpt lat="44.483162282829554" lon="8.729763044891962"><ele>569.0</ele><time>2026-04-06T07:19:26Z</time></trkpt><trkpt lat="44.48326157236486" lon="8.72973741534997"><ele>569.0</ele><time>2026-04-06T07:19:27Z</time></trkpt><trkpt lat="44.48335078954856" lon="8.729642769644432"><ele>569.0</ele><time>2026-04-06T07:19:28Z</time></trkpt><trkpt lat="44.48343473909662" lon="8.729564631071419"><ele>569.0</ele><time>2026-04-06T07:19:29Z</time></trkpt><trkpt lat="44.483502803640306" lon="8.729495362378769"><ele>569.0</ele><time>2026-04-06T07:19:30Z</time></trkpt><trkpt lat="44.48356296194177" lon="8.729431589278745"><ele>569.0</ele><time>2026-04-06T07:19:31Z</time></trkpt><trkpt lat="44.48365459153672" lon="8.729306808665843"><ele>569.0</ele><time>2026-04-06T07:19:33Z</time></trkpt><trkpt lat="44.483720112865925" lon="8.729216044369577"><ele>569.0</ele><time>2026-04-06T07:19:34Z</time></trkpt><trkpt lat="44.48379661822728" lon="8.729124175108074"><ele>569.0</ele><time>2026-04-06T07:19:35Z</time></trkpt><trkpt lat="44.483868811828884" lon="8.729034599508738"><ele>572.6666666666666</ele><time>2026-04-06T07:19:36Z</time></trkpt><trkpt lat="44.483929649382134" lon="8.72895234730499"><ele>576.3333333333333</ele><time>2026-04-06T07:19:37Z</time></trkpt><trkpt lat="44.4839998552585" lon="8.728892256411017"><ele>580.0</ele><time>2026-04-06T07:19:38Z</time></trkpt><trkpt lat="44.484079263284976" lon="8.728868992469014"><ele>583.6666666666666</ele><time>2026-04-06T07:19:39Z</time></trkpt><trkpt lat="44.48416660309555" lon="8.728869896411808"><ele>587.3333333333334</ele><time>2026-04-06T07:19:40Z</time></trkpt><trkpt lat="44.48426028342515" lon="8.728888094998013"><ele>591.0</ele><time>2026-04-06T07:19:41Z</time></trkpt><trkpt lat="44.48435106642065" lon="8.72889069012404"><ele>591.0</ele><time>2026-04-06T07:19:42Z</time></trkpt><trkpt lat="44.484451074854285" lon="8.72887584151952"><ele>591.0</ele><time>2026-04-06T07:19:43Z</time></trkpt><trkpt lat="44.4845489038383" lon="8.72885137050631"><ele>591.0</ele><time>2026-04-06T07:19:44Z</time></trkpt><trkpt lat="44.484646443709295" lon="8.728807337126888"><ele>591.0</ele><time>2026-04-06T07:19:45Z</time></trkpt><trkpt lat="44.484759519886374" lon="8.728750205639296"><ele>591.0</ele><time>2026-04-06T07:19:46Z</time></trkpt><trkpt lat="44.48486148128081" lon="8.728696202506457"><ele>590.0</ele><time>2026-04-06T07:19:47Z</time></trkpt><trkpt lat="44.48495674864745" lon="8.728593285259668"><ele>589.0</ele><time>2026-04-06T07:19:48Z</time></trkpt><trkpt lat="44.485054644279735" lon="8.728507660823267"><ele>588.0</ele><time>2026-04-06T07:19:49Z</time></trkpt><trkpt lat="44.48515205798319" lon="8.728419447762048"><ele>587.0</ele><time>2026-04-06T07:19:50Z</time></trkpt><trkpt lat="44.48525645922708" lon="8.728323492207547"><ele>587.0</ele><time>2026-04-06T07:19:51Z</time></trkpt><trkpt lat="44.48536070140474" lon="8.728222731191433"><ele>587.0</ele><time>2026-04-06T07:19:52Z</time></trkpt><trkpt lat="44.48546780716675" lon="8.728139733988735"><ele>587.0</ele><time>2026-04-06T07:19:53Z</time></trkpt><trkpt lat="44.48554930418925" lon="8.728050823453565"><ele>587.0</ele><time>2026-04-06T07:19:54Z</time></trkpt><trkpt lat="44.4856102601893" lon="8.72793916578383"><ele>595.75</ele><time>2026-04-06T07:19:55Z</time></trkpt><trkpt lat="44.48563442617132" lon="8.72780411574459"><ele>604.5</ele><time>2026-04-06T07:19:56Z</time></trkpt><trkpt lat="44.4855992458565" lon="8.72765505732595"><ele>613.25</ele><time>2026-04-06T07:19:57Z</time></trkpt><trkpt lat="44.48554468221583" lon="8.7275069329456"><ele>622.0</ele><time>2026-04-06T07:19:58Z</time></trkpt><trkpt lat="44.48550495370103" lon="8.72734406373374"><ele>622.0</ele><time>2026-04-06T07:19:59Z</time></trkpt><trkpt lat="44.48548955352943" lon="8.727193969807146"><ele>622.0</ele><time>2026-04-06T07:20:00Z</time></trkpt><trkpt lat="44.48552694192919" lon="8.727050911616976"><ele>622.0</ele><time>2026-04-06T07:20:01Z</time></trkpt><trkpt lat="44.48557399117921" lon="8.726892462648202"><ele>622.0</ele><time>2026-04-06T07:20:02Z</time></trkpt><trkpt lat="44.485578870613686" lon="8.726719693581012"><ele>621.75</ele><time>2026-04-06T07:20:03Z</time></trkpt><trkpt lat="44.485551328067345" lon="8.726549713741655"><ele>621.5</ele><time>2026-04-06T07:20:03.999Z</time></trkpt><trkpt lat="44.48551232359886" lon="8.726386641781152"><ele>621.25</ele><time>2026-04-06T07:20:04.999Z</time></trkpt><trkpt lat="44.48551686164821" lon="8.726239664164437"><ele>621.0</ele><time>2026-04-06T07:20:05.999Z</time></trkpt><trkpt lat="44.48557325686905" lon="8.72610866715359"><ele>615.75</ele><time>2026-04-06T07:20:06.999Z</time></trkpt><trkpt lat="44.48565764781708" lon="8.726010814634423"><ele>610.5</ele><time>2026-04-06T07:20:07.999Z</time></trkpt><trkpt lat="44.48576308646249" lon="8.725912702497519"><ele>605.25</ele><time>2026-04-06T07:20:08.999Z</time></trkpt><trkpt lat="44.485880408002785" lon="8.725799725832845"><ele>600.0</ele><time>2026-04-06T07:20:09.999Z</time></trkpt><trkpt lat="44.48600865521164" lon="8.725718099359984"><ele>600.0</ele><time>2026-04-06T07:20:10.999Z</time></trkpt><trkpt lat="44.48613702050735" lon="8.725644385629698"><ele>600.0</ele><time>2026-04-06T07:20:11.999Z</time></trkpt><trkpt lat="44.486269129863395" lon="8.725578735276269"><ele>600.0</ele><time>2026-04-06T07:20:12.999Z</time></trkpt><trkpt lat="44.486404139798324" lon="8.725515547376641"><ele>600.0</ele><time>2026-04-06T07:20:13.999Z</time></trkpt><trkpt lat="44.48653569023816" lon="8.725431737654656"><ele>603.25</ele><time>2026-04-06T07:20:14.999Z</time></trkpt><trkpt lat="44.486648489052" lon="8.725340509660905"><ele>606.5</ele><time>2026-04-06T07:20:15.999Z</time></trkpt><trkpt lat="44.48674873934374" lon="8.725218731244398"><ele>609.75</ele><time>2026-04-06T07:20:16.999Z</time></trkpt><trkpt lat="44.48681447733969" lon="8.725053618159494"><ele>613.0</ele><time>2026-04-06T07:20:17.999Z</time></trkpt><trkpt lat="44.48685044469587" lon="8.724860233618978"><ele>613.0</ele><time>2026-04-06T07:20:18.999Z</time></trkpt><trkpt lat="44.48686595951311" lon="8.724656228962393"><ele>613.0</ele><time>2026-04-06T07:20:19.999Z</time></trkpt><trkpt lat="44.48685733176125" lon="8.724453862180148"><ele>613.0</ele><time>2026-04-06T07:20:20.999Z</time></trkpt><trkpt lat="44.4868239903221" lon="8.72427681741465"><ele>613.0</ele><time>2026-04-06T07:20:21.999Z</time></trkpt><trkpt lat="44.48677164480607" lon="8.724134684084166"><ele>612.75</ele><time>2026-04-06T07:20:22.999Z</time></trkpt><trkpt lat="44.48676889674316" lon="8.72396425116171"><ele>612.5</ele><time>2026-04-06T07:20:23.999Z</time></trkpt><trkpt lat="44.48679293656733" lon="8.723814204474893"><ele>612.25</ele><time>2026-04-06T07:20:24.999Z</time></trkpt><trkpt lat="44.48685027459305" lon="8.723663401101142"><ele>612.0</ele><time>2026-04-06T07:20:25.999Z</time></trkpt><trkpt lat="44.4869316619742" lon="8.723531364810531"><ele>608.75</ele><time>2026-04-06T07:20:26.999Z</time></trkpt><trkpt lat="44.48702333924849" lon="8.723386783169092"><ele>605.5</ele><time>2026-04-06T07:20:27.999Z</time></trkpt><trkpt lat="44.48709454811594" lon="8.72324321309759"><ele>602.25</ele><time>2026-04-06T07:20:28.999Z</time></trkpt><trkpt lat="44.48718146922923" lon="8.72313969533116"><ele>599.0</ele><time>2026-04-06T07:20:29.999Z</time></trkpt><trkpt lat="44.4872683946834" lon="8.723042542968704"><ele>602.0</ele><time>2026-04-06T07:20:30.999Z</time></trkpt><trkpt lat="44.48734940495215" lon="8.722950929915466"><ele>605.0</ele><time>2026-04-06T07:20:31.999Z</time></trkpt><trkpt lat="44.48741305963579" lon="8.722826966882545"><ele>608.0</ele><time>2026-04-06T07:20:32.999Z</time></trkpt><trkpt lat="44.487446714061825" lon="8.722681826721493"><ele>611.0</ele><time>2026-04-06T07:20:33.999Z</time></trkpt><trkpt lat="44.48743675043346" lon="8.722512430201114"><ele>614.0</ele><time>2026-04-06T07:20:34.999Z</time></trkpt><trkpt lat="44.4874377656532" lon="8.722369468777769"><ele>614.0</ele><time>2026-04-06T07:20:35.999Z</time></trkpt><trkpt lat="44.48744569847212" lon="8.722255303137862"><ele>614.0</ele><time>2026-04-06T07:20:36.999Z</time></trkpt><trkpt lat="44.48744427965378" lon="8.722154208209501"><ele>614.0</ele><time>2026-04-06T07:20:37.999Z</time></trkpt><trkpt lat="44.48741124348323" lon="8.72205190724972"><ele>614.0</ele><time>2026-04-06T07:20:38.999Z</time></trkpt><trkpt lat="44.48732865550887" lon="8.721976586469184"><ele>614.0</ele><time>2026-04-06T07:20:39.999Z</time></trkpt><trkpt lat="44.48722740413008" lon="8.721935145897449"><ele>614.0</ele><time>2026-04-06T07:20:40.999Z</time></trkpt><trkpt lat="44.48712163157836" lon="8.721918328645424"><ele>615.4</ele><time>2026-04-06T07:20:41.999Z</time></trkpt><trkpt lat="44.48702164548461" lon="8.721873265624623"><ele>616.8</ele><time>2026-04-06T07:20:42.999Z</time></trkpt><trkpt lat="44.48692740623223" lon="8.721800154195096"><ele>618.2</ele><time>2026-04-06T07:20:43.999Z</time></trkpt><trkpt lat="44.486838020754405" lon="8.721723583532963"><ele>619.6</ele><time>2026-04-06T07:20:44.999Z</time></trkpt><trkpt lat="44.48675888307803" lon="8.721660863066043"><ele>621.0</ele><time>2026-04-06T07:20:45.999Z</time></trkpt><trkpt lat="44.486676762013204" lon="8.721599446941593"><ele>621.0</ele><time>2026-04-06T07:20:46.999Z</time></trkpt><trkpt lat="44.48659352945077" lon="8.721532926195108"><ele>621.0</ele><time>2026-04-06T07:20:47.999Z</time></trkpt><trkpt lat="44.48651402102019" lon="8.72146865375189"><ele>621.0</ele><time>2026-04-06T07:20:48.999Z</time></trkpt><trkpt lat="44.486437983426256" lon="8.721405600154059"><ele>621.0</ele><time>2026-04-06T07:20:49.999Z</time></trkpt><trkpt lat="44.48637265234476" lon="8.721326911872671"><ele>621.0</ele><time>2026-04-06T07:20:50.999Z</time></trkpt><trkpt lat="44.486328134881475" lon="8.721228655208725"><ele>621.0</ele><time>2026-04-06T07:20:51.999Z</time></trkpt><trkpt lat="44.48632246604277" lon="8.721101530502745"><ele>625.4</ele><time>2026-04-06T07:20:52.999Z</time></trkpt><trkpt lat="44.48631615417121" lon="8.720968323496674"><ele>629.8</ele><time>2026-04-06T07:20:53.999Z</time></trkpt><trkpt lat="44.486309148149466" lon="8.720865720318407"><ele>634.1999999999999</ele><time>2026-04-06T07:20:54.999Z</time></trkpt><trkpt lat="44.4862974682373" lon="8.720705652492196"><ele>638.6</ele><time>2026-04-06T07:20:56.999Z</time></trkpt><trkpt lat="44.486289681674414" lon="8.720585839826288"><ele>643.0</ele><time>2026-04-06T07:20:58.999Z</time></trkpt><trkpt lat="44.48629196616292" lon="8.720416722950487"><ele>643.0</ele><time>2026-04-06T07:21:01Z</time></trkpt><trkpt lat="44.48631716814016" lon="8.720307715538539"><ele>643.0</ele><time>2026-04-06T07:21:02Z</time></trkpt><trkpt lat="44.48637664839575" lon="8.720174855677945"><ele>643.0</ele><time>2026-04-06T07:21:03Z</time></trkpt><trkpt lat="44.48644138849963" lon="8.720016076076845"><ele>643.0</ele><time>2026-04-06T07:21:04Z</time></trkpt><trkpt lat="44.48651271082301" lon="8.71984238975935"><ele>643.6666666666667</ele><time>2026-04-06T07:21:05Z</time></trkpt><trkpt lat="44.48657130086072" lon="8.719659894387272"><ele>644.3333333333334</ele><time>2026-04-06T07:21:06Z</time></trkpt><trkpt lat="44.48664378276256" lon="8.71946179737854"><ele>645.0</ele><time>2026-04-06T07:21:07Z</time></trkpt><trkpt lat="44.48674548250839" lon="8.719260814184176"><ele>641.5</ele><time>2026-04-06T07:21:08Z</time></trkpt><trkpt lat="44.48684632312299" lon="8.71908417522946"><ele>638.0</ele><time>2026-04-06T07:21:09Z</time></trkpt><trkpt lat="44.486906478715106" lon="8.718941799322659"><ele>634.5</ele><time>2026-04-06T07:21:10Z</time></trkpt><trkpt lat="44.48691221448132" lon="8.71878608546149"><ele>631.0</ele><time>2026-04-06T07:21:11Z</time></trkpt><trkpt lat="44.48689264472818" lon="8.718635535896135"><ele>631.8</ele><time>2026-04-06T07:21:12Z</time></trkpt><trkpt lat="44.48683651662789" lon="8.718500665290197"><ele>632.6</ele><time>2026-04-06T07:21:13Z</time></trkpt><trkpt lat="44.486773407546835" lon="8.718385318959225"><ele>633.4</ele><time>2026-04-06T07:21:14Z</time></trkpt><trkpt lat="44.48673542944529" lon="8.718241921644168"><ele>634.2</ele><time>2026-04-06T07:21:15Z</time></trkpt><trkpt lat="44.486730353304644" lon="8.718087928575926"><ele>635.0</ele><time>2026-04-06T07:21:16Z</time></trkpt><trkpt lat="44.48673656151465" lon="8.717930598176128"><ele>635.0</ele><time>2026-04-06T07:21:17Z</time></trkpt><trkpt lat="44.48676050930407" lon="8.717784900600922"><ele>635.0</ele><time>2026-04-06T07:21:18Z</time></trkpt><trkpt lat="44.48678264997958" lon="8.717637272585272"><ele>635.0</ele><time>2026-04-06T07:21:19Z</time></trkpt><trkpt lat="44.48679686640787" lon="8.717486181810331"><ele>635.0</ele><time>2026-04-06T07:21:20Z</time></trkpt><trkpt lat="44.48680238674504" lon="8.71733802052395"><ele>635.0</ele><time>2026-04-06T07:21:21Z</time></trkpt><trkpt lat="44.48681547468612" lon="8.717203465665971"><ele>636.6</ele><time>2026-04-06T07:21:22Z</time></trkpt><trkpt lat="44.48681668394022" lon="8.71708014679234"><ele>638.2</ele><time>2026-04-06T07:21:23Z</time></trkpt><trkpt lat="44.486791600602515" lon="8.716961081292318"><ele>639.8</ele><time>2026-04-06T07:21:24Z</time></trkpt><trkpt lat="44.48672390332541" lon="8.716850924401134"><ele>641.4</ele><time>2026-04-06T07:21:25Z</time></trkpt><trkpt lat="44.48662707770074" lon="8.71678304847231"><ele>643.0</ele><time>2026-04-06T07:21:26Z</time></trkpt><trkpt lat="44.48649973220102" lon="8.716754183738054"><ele>645.0</ele><time>2026-04-06T07:21:27Z</time></trkpt><trkpt lat="44.48635329265948" lon="8.716752968317738"><ele>647.0</ele><time>2026-04-06T07:21:28Z</time></trkpt><trkpt lat="44.48620522671255" lon="8.716740736826607"><ele>649.0</ele><time>2026-04-06T07:21:29Z</time></trkpt><trkpt lat="44.48608544255733" lon="8.716714737488555"><ele>651.0</ele><time>2026-04-06T07:21:30Z</time></trkpt><trkpt lat="44.48594162036338" lon="8.716680020775186"><ele>651.0</ele><time>2026-04-06T07:21:31Z</time></trkpt><trkpt lat="44.485811614335994" lon="8.716655274470016"><ele>651.0</ele><time>2026-04-06T07:21:32Z</time></trkpt><trkpt lat="44.485683122139875" lon="8.716646923072041"><ele>651.0</ele><time>2026-04-06T07:21:33Z</time></trkpt><trkpt lat="44.485567778861494" lon="8.716632216178432"><ele>651.0</ele><time>2026-04-06T07:21:34Z</time></trkpt><trkpt lat="44.48547652061158" lon="8.716576886325887"><ele>651.0</ele><time>2026-04-06T07:21:35Z</time></trkpt><trkpt lat="44.485434711959876" lon="8.716458272098388"><ele>651.0</ele><time>2026-04-06T07:21:36Z</time></trkpt><trkpt lat="44.485446850332934" lon="8.71632825744378"><ele>651.0</ele><time>2026-04-06T07:21:37Z</time></trkpt><trkpt lat="44.4855109660066" lon="8.716225920313354"><ele>651.0</ele><time>2026-04-06T07:21:38Z</time></trkpt><trkpt lat="44.48560993846379" lon="8.716127210457984"><ele>651.0</ele><time>2026-04-06T07:21:39Z</time></trkpt><trkpt lat="44.485716209282195" lon="8.716020403331333"><ele>653.0</ele><time>2026-04-06T07:21:40Z</time></trkpt><trkpt lat="44.485815863637036" lon="8.715899076847924"><ele>655.0</ele><time>2026-04-06T07:21:41Z</time></trkpt><trkpt lat="44.485911533200934" lon="8.715791842227821"><ele>657.0</ele><time>2026-04-06T07:21:42Z</time></trkpt><trkpt lat="44.48599211451989" lon="8.715669614660436"><ele>659.0</ele><time>2026-04-06T07:21:43Z</time></trkpt><trkpt lat="44.48604690433737" lon="8.71552366114915"><ele>659.0</ele><time>2026-04-06T07:21:44Z</time></trkpt><trkpt lat="44.48605789657534" lon="8.715350010035566"><ele>659.0</ele><time>2026-04-06T07:21:45Z</time></trkpt><trkpt lat="44.48602680587036" lon="8.715174403016958"><ele>659.0</ele><time>2026-04-06T07:21:46Z</time></trkpt><trkpt lat="44.48595627570156" lon="8.715006702006574"><ele>659.0</ele><time>2026-04-06T07:21:47Z</time></trkpt><trkpt lat="44.48585039769255" lon="8.71488480627276"><ele>658.5</ele><time>2026-04-06T07:21:48Z</time></trkpt><trkpt lat="44.48572081984761" lon="8.71480966497732"><ele>658.0</ele><time>2026-04-06T07:21:49Z</time></trkpt><trkpt lat="44.48557699772676" lon="8.714797894947859"><ele>657.5</ele><time>2026-04-06T07:21:50Z</time></trkpt><trkpt lat="44.48544622676274" lon="8.714780268940219"><ele>657.0</ele><time>2026-04-06T07:21:51Z</time></trkpt><trkpt lat="44.48533025242716" lon="8.714750094931096"><ele>657.0</ele><time>2026-04-06T07:21:52Z</time></trkpt><trkpt lat="44.4852231013657" lon="8.714680827637306"><ele>657.0</ele><time>2026-04-06T07:21:53Z</time></trkpt><trkpt lat="44.48513561155526" lon="8.714569458546086"><ele>657.0</ele><time>2026-04-06T07:21:54Z</time></trkpt><trkpt lat="44.48505658635211" lon="8.714429346560499"><ele>657.0</ele><time>2026-04-06T07:21:55Z</time></trkpt><trkpt lat="44.484953753928124" lon="8.714308775667712"><ele>658.0</ele><time>2026-04-06T07:21:56Z</time></trkpt><trkpt lat="44.48483930765765" lon="8.714236912543793"><ele>659.0</ele><time>2026-04-06T07:21:57Z</time></trkpt><trkpt lat="44.48472548281095" lon="8.714170612240153"><ele>660.0</ele><time>2026-04-06T07:21:58Z</time></trkpt><trkpt lat="44.48463464376269" lon="8.714073969078894"><ele>661.0</ele><time>2026-04-06T07:21:59Z</time></trkpt><trkpt lat="44.484570553695605" lon="8.71391141065109"><ele>661.0</ele><time>2026-04-06T07:21:59.999Z</time></trkpt><trkpt lat="44.48452242733747" lon="8.71373411483444"><ele>661.0</ele><time>2026-04-06T07:22:00.999Z</time></trkpt><trkpt lat="44.48450454872975" lon="8.713566764693901"><ele>661.0</ele><time>2026-04-06T07:22:01.999Z</time></trkpt><trkpt lat="44.484470799555545" lon="8.713424126675859"><ele>661.0</ele><time>2026-04-06T07:22:02.999Z</time></trkpt><trkpt lat="44.48438015538744" lon="8.713319290210846"><ele>667.75</ele><time>2026-04-06T07:22:03.999Z</time></trkpt><trkpt lat="44.48424071894897" lon="8.713271597834106"><ele>674.5</ele><time>2026-04-06T07:22:04.999Z</time></trkpt><trkpt lat="44.48410129857743" lon="8.713230669436912"><ele>681.25</ele><time>2026-04-06T07:22:05.999Z</time></trkpt><trkpt lat="44.48396644153361" lon="8.713186544326794"><ele>688.0</ele><time>2026-04-06T07:22:06.999Z</time></trkpt><trkpt lat="44.48383821478621" lon="8.713175010539699"><ele>687.25</ele><time>2026-04-06T07:22:07.999Z</time></trkpt><trkpt lat="44.483721174606046" lon="8.713180696753803"><ele>686.5</ele><time>2026-04-06T07:22:08.999Z</time></trkpt><trkpt lat="44.48361351328589" lon="8.71315857354758"><ele>685.75</ele><time>2026-04-06T07:22:09.999Z</time></trkpt><trkpt lat="44.483495347988956" lon="8.713120180021376"><ele>685.0</ele><time>2026-04-06T07:22:10.999Z</time></trkpt><trkpt lat="44.48338210344461" lon="8.713054383340387"><ele>685.0</ele><time>2026-04-06T07:22:11.999Z</time></trkpt><trkpt lat="44.48326640108409" lon="8.712999059753653"><ele>685.0</ele><time>2026-04-06T07:22:12.999Z</time></trkpt><trkpt lat="44.48313806046076" lon="8.713003275804898"><ele>685.0</ele><time>2026-04-06T07:22:13.999Z</time></trkpt><trkpt lat="44.48299049413451" lon="8.713056022597602"><ele>685.0</ele><time>2026-04-06T07:22:14.999Z</time></trkpt><trkpt lat="44.48281418372978" lon="8.713140748219606"><ele>689.6666666666667</ele><time>2026-04-06T07:22:15.999Z</time></trkpt><trkpt lat="44.482634060313885" lon="8.713207824529228"><ele>694.3333333333334</ele><time>2026-04-06T07:22:16.999Z</time></trkpt><trkpt lat="44.48248240724873" lon="8.713243645044964"><ele>699.0</ele><time>2026-04-06T07:22:17.999Z</time></trkpt><trkpt lat="44.482348097149824" lon="8.713275061373597"><ele>699.0</ele><time>2026-04-06T07:22:18.999Z</time></trkpt><trkpt lat="44.48222981579334" lon="8.713317843521196"><ele>699.0</ele><time>2026-04-06T07:22:19.999Z</time></trkpt><trkpt lat="44.482105960844166" lon="8.713347791272511"><ele>699.0</ele><time>2026-04-06T07:22:20.999Z</time></trkpt><trkpt lat="44.48199081928998" lon="8.713345339128098"><ele>699.0</ele><time>2026-04-06T07:22:21.999Z</time></trkpt><trkpt lat="44.481885424891004" lon="8.71328729503027"><ele>697.75</ele><time>2026-04-06T07:22:22.999Z</time></trkpt><trkpt lat="44.481784204366505" lon="8.713176606547174"><ele>696.5</ele><time>2026-04-06T07:22:23.999Z</time></trkpt><trkpt lat="44.48170892433049" lon="8.71303154866172"><ele>695.25</ele><time>2026-04-06T07:22:24.999Z</time></trkpt><trkpt lat="44.481654478388826" lon="8.712872807602787"><ele>694.0</ele><time>2026-04-06T07:22:25.999Z</time></trkpt><trkpt lat="44.48158971450651" lon="8.712729622875862"><ele>696.5</ele><time>2026-04-06T07:22:26.999Z</time></trkpt><trkpt lat="44.48149669608149" lon="8.712623365525596"><ele>699.0</ele><time>2026-04-06T07:22:27.999Z</time></trkpt><trkpt lat="44.48136859141782" lon="8.712595836277732"><ele>701.5</ele><time>2026-04-06T07:22:28.999Z</time></trkpt><trkpt lat="44.4812440568653" lon="8.712559762105412"><ele>704.0</ele><time>2026-04-06T07:22:29.999Z</time></trkpt><trkpt lat="44.481130307241266" lon="8.712456411278962"><ele>704.0</ele><time>2026-04-06T07:22:30.999Z</time></trkpt><trkpt lat="44.481035833069" lon="8.712329853112928"><ele>704.0</ele><time>2026-04-06T07:22:31.999Z</time></trkpt><trkpt lat="44.48092529584361" lon="8.71222094507582"><ele>704.0</ele><time>2026-04-06T07:22:32.999Z</time></trkpt><trkpt lat="44.48080316571988" lon="8.712156224974805"><ele>704.0</ele><time>2026-04-06T07:22:33.999Z</time></trkpt><trkpt lat="44.48067488674407" lon="8.712100481569063"><ele>704.0</ele><time>2026-04-06T07:22:34.999Z</time></trkpt><trkpt lat="44.48055959228626" lon="8.712043035513176"><ele>704.0</ele><time>2026-04-06T07:22:35.999Z</time></trkpt><trkpt lat="44.48046427979712" lon="8.711958519368691"><ele>704.0</ele><time>2026-04-06T07:22:36.999Z</time></trkpt><trkpt lat="44.48039923715329" lon="8.711823166582235"><ele>704.0</ele><time>2026-04-06T07:22:37.999Z</time></trkpt><trkpt lat="44.480356821286364" lon="8.711662856386841"><ele>708.75</ele><time>2026-04-06T07:22:38.999Z</time></trkpt><trkpt lat="44.48028295397959" lon="8.711545462218124"><ele>713.5</ele><time>2026-04-06T07:22:39.999Z</time></trkpt><trkpt lat="44.48016380058775" lon="8.711465064724509"><ele>718.25</ele><time>2026-04-06T07:22:40.999Z</time></trkpt><trkpt lat="44.48002990420812" lon="8.711405037829246"><ele>723.0</ele><time>2026-04-06T07:22:41.999Z</time></trkpt><trkpt lat="44.47990874665155" lon="8.711358025398834"><ele>723.0</ele><time>2026-04-06T07:22:42.999Z</time></trkpt><trkpt lat="44.47978854807585" lon="8.711317225860737"><ele>723.0</ele><time>2026-04-06T07:22:43.999Z</time></trkpt><trkpt lat="44.479667238515766" lon="8.71130855483738"><ele>723.0</ele><time>2026-04-06T07:22:44.999Z</time></trkpt><trkpt lat="44.479555715697124" lon="8.71137327784241"><ele>723.0</ele><time>2026-04-06T07:22:45.999Z</time></trkpt><trkpt lat="44.47945596265513" lon="8.71150926209422"><ele>719.75</ele><time>2026-04-06T07:22:46.999Z</time></trkpt><trkpt lat="44.47936125666702" lon="8.711672480461251"><ele>716.5</ele><time>2026-04-06T07:22:47.999Z</time></trkpt><trkpt lat="44.479265936931405" lon="8.711810599142526"><ele>713.25</ele><time>2026-04-06T07:22:48.999Z</time></trkpt><trkpt lat="44.479172287034324" lon="8.711933906536126"><ele>710.0</ele><time>2026-04-06T07:22:49.999Z</time></trkpt><trkpt lat="44.479085493344655" lon="8.712049162683837"><ele>710.0</ele><time>2026-04-06T07:22:50.999Z</time></trkpt><trkpt lat="44.47899503555813" lon="8.71213809698902"><ele>710.0</ele><time>2026-04-06T07:22:51.999Z</time></trkpt><trkpt lat="44.478886543022575" lon="8.712200006456781"><ele>710.0</ele><time>2026-04-06T07:22:52.999Z</time></trkpt><trkpt lat="44.47876884660029" lon="8.712223445978124"><ele>710.0</ele><time>2026-04-06T07:22:53.999Z</time></trkpt><trkpt lat="44.478634115946974" lon="8.712213315245082"><ele>712.5</ele><time>2026-04-06T07:22:54.999Z</time></trkpt><trkpt lat="44.47850795703219" lon="8.71221446799823"><ele>715.0</ele><time>2026-04-06T07:22:55.999Z</time></trkpt><trkpt lat="44.47838669322347" lon="8.712229542066872"><ele>717.5</ele><time>2026-04-06T07:22:56.999Z</time></trkpt><trkpt lat="44.478278898746936" lon="8.712225742648972"><ele>720.0</ele><time>2026-04-06T07:22:57.999Z</time></trkpt><trkpt lat="44.47817214109216" lon="8.7122063821108"><ele>720.0</ele><time>2026-04-06T07:22:58.999Z</time></trkpt><trkpt lat="44.47806913059757" lon="8.712131660578486"><ele>720.0</ele><time>2026-04-06T07:22:59.999Z</time></trkpt><trkpt lat="44.47799088018124" lon="8.711999929871054"><ele>720.0</ele><time>2026-04-06T07:23:00.999Z</time></trkpt><trkpt lat="44.47794291538609" lon="8.71185711880953"><ele>720.0</ele><time>2026-04-06T07:23:01.999Z</time></trkpt><trkpt lat="44.477863382886994" lon="8.711769566523948"><ele>720.8</ele><time>2026-04-06T07:23:02.999Z</time></trkpt><trkpt lat="44.477762573253926" lon="8.711793716222132"><ele>721.6</ele><time>2026-04-06T07:23:03.999Z</time></trkpt><trkpt lat="44.47765795180686" lon="8.7118798398598"><ele>722.4000000000001</ele><time>2026-04-06T07:23:04.999Z</time></trkpt><trkpt lat="44.47756477089331" lon="8.711957267503228"><ele>723.2</ele><time>2026-04-06T07:23:05.999Z</time></trkpt><trkpt lat="44.47745813652606" lon="8.711985285139486"><ele>724.0</ele><time>2026-04-06T07:23:07Z</time></trkpt><trkpt lat="44.47736939666706" lon="8.711902296500252"><ele>728.0</ele><time>2026-04-06T07:23:08Z</time></trkpt><trkpt lat="44.4772944333501" lon="8.711772487208647"><ele>732.0</ele><time>2026-04-06T07:23:09Z</time></trkpt><trkpt lat="44.47724821676649" lon="8.711652973129853"><ele>736.0</ele><time>2026-04-06T07:23:10Z</time></trkpt><trkpt lat="44.477266999479056" lon="8.711548067556661"><ele>740.0</ele><time>2026-04-06T07:23:11Z</time></trkpt><trkpt lat="44.47730126505821" lon="8.711448628990151"><ele>744.0</ele><time>2026-04-06T07:23:12Z</time></trkpt><trkpt lat="44.477410921233535" lon="8.711311843143609"><ele>744.0</ele><time>2026-04-06T07:23:13Z</time></trkpt><trkpt lat="44.477493792784365" lon="8.711186321954443"><ele>744.0</ele><time>2026-04-06T07:23:14Z</time></trkpt><trkpt lat="44.47758218382414" lon="8.711106065659793"><ele>744.0</ele><time>2026-04-06T07:23:15Z</time></trkpt><trkpt lat="44.47767808125221" lon="8.711039312654847"><ele>744.0</ele><time>2026-04-06T07:23:16Z</time></trkpt><trkpt lat="44.47777546856093" lon="8.71097590436689"><ele>744.0</ele><time>2026-04-06T07:23:17Z</time></trkpt><trkpt lat="44.4778488996149" lon="8.710858947234248"><ele>742.75</ele><time>2026-04-06T07:23:18Z</time></trkpt><trkpt lat="44.47787910611556" lon="8.710696946683225"><ele>741.5</ele><time>2026-04-06T07:23:19Z</time></trkpt><trkpt lat="44.47790859792633" lon="8.710526744687282"><ele>740.25</ele><time>2026-04-06T07:23:20Z</time></trkpt><trkpt lat="44.47795452129585" lon="8.710369949879759"><ele>739.0</ele><time>2026-04-06T07:23:21Z</time></trkpt><trkpt lat="44.478014455318046" lon="8.710222144988549"><ele>742.75</ele><time>2026-04-06T07:23:22Z</time></trkpt><trkpt lat="44.47807378721519" lon="8.710080262889125"><ele>746.5</ele><time>2026-04-06T07:23:23Z</time></trkpt><trkpt lat="44.478132512557316" lon="8.709942450819332"><ele>750.25</ele><time>2026-04-06T07:23:24Z</time></trkpt><trkpt lat="44.47819806832968" lon="8.70981681642611"><ele>754.0</ele><time>2026-04-06T07:23:25Z</time></trkpt><trkpt lat="44.47828074493949" lon="8.709704604093835"><ele>754.0</ele><time>2026-04-06T07:23:26Z</time></trkpt><trkpt lat="44.478378887201806" lon="8.7096102703738"><ele>754.0</ele><time>2026-04-06T07:23:27Z</time></trkpt><trkpt lat="44.47847470925464" lon="8.709517126207507"><ele>754.0</ele><time>2026-04-06T07:23:28Z</time></trkpt><trkpt lat="44.47856087942664" lon="8.709417911195459"><ele>754.0</ele><time>2026-04-06T07:23:29Z</time></trkpt><trkpt lat="44.47863994457475" lon="8.709318274432484"><ele>751.2</ele><time>2026-04-06T07:23:30Z</time></trkpt><trkpt lat="44.478720215379376" lon="8.709227879757414"><ele>748.4000000000001</ele><time>2026-04-06T07:23:31Z</time></trkpt><trkpt lat="44.47879683852801" lon="8.70914645232677"><ele>745.6</ele><time>2026-04-06T07:23:32Z</time></trkpt><trkpt lat="44.478854219150044" lon="8.709036572011437"><ele>742.8</ele><time>2026-04-06T07:23:33Z</time></trkpt><trkpt lat="44.47889973173399" lon="8.708909904923994"><ele>740.0</ele><time>2026-04-06T07:23:34Z</time></trkpt><trkpt lat="44.478901212380066" lon="8.708753104018431"><ele>746.2</ele><time>2026-04-06T07:23:35Z</time></trkpt><trkpt lat="44.47884349760342" lon="8.708599234013976"><ele>752.4</ele><time>2026-04-06T07:23:36Z</time></trkpt><trkpt lat="44.478794409898825" lon="8.70845440293325"><ele>758.5999999999999</ele><time>2026-04-06T07:23:37Z</time></trkpt><trkpt lat="44.47877853418852" lon="8.708315241697168"><ele>764.8</ele><time>2026-04-06T07:23:38Z</time></trkpt><trkpt lat="44.47881017817862" lon="8.708177721874002"><ele>771.0</ele><time>2026-04-06T07:23:39Z</time></trkpt><trkpt lat="44.47889527549534" lon="8.708048161851579"><ele>771.0</ele><time>2026-04-06T07:23:40Z</time></trkpt><trkpt lat="44.47898025364404" lon="8.707934246664369"><ele>771.0</ele><time>2026-04-06T07:23:41Z</time></trkpt><trkpt lat="44.479025193585784" lon="8.707812358186844"><ele>771.0</ele><time>2026-04-06T07:23:42Z</time></trkpt><trkpt lat="44.47901426671781" lon="8.707663482256097"><ele>771.0</ele><time>2026-04-06T07:23:43Z</time></trkpt><trkpt lat="44.47895488888321" lon="8.707507002508555"><ele>771.0</ele><time>2026-04-06T07:23:44Z</time></trkpt><trkpt lat="44.478912025725755" lon="8.70735974666771"><ele>771.5</ele><time>2026-04-06T07:23:45Z</time></trkpt><trkpt lat="44.47891347893639" lon="8.707213198837074"><ele>772.0</ele><time>2026-04-06T07:23:46Z</time></trkpt><trkpt lat="44.47895620792107" lon="8.70705343818667"><ele>772.5</ele><time>2026-04-06T07:23:47Z</time></trkpt><trkpt lat="44.479031175605606" lon="8.706895047534056"><ele>773.0</ele><time>2026-04-06T07:23:48Z</time></trkpt><trkpt lat="44.479083621854635" lon="8.706739802400177"><ele>773.0</ele><time>2026-04-06T07:23:49Z</time></trkpt><trkpt lat="44.479109071309715" lon="8.706586392301451"><ele>773.0</ele><time>2026-04-06T07:23:50Z</time></trkpt><trkpt lat="44.47910168773359" lon="8.706417390901581"><ele>773.0</ele><time>2026-04-06T07:23:51Z</time></trkpt><trkpt lat="44.47907163540396" lon="8.706255111365824"><ele>773.0</ele><time>2026-04-06T07:23:52Z</time></trkpt><trkpt lat="44.47901474732095" lon="8.70610331714717"><ele>774.75</ele><time>2026-04-06T07:23:53Z</time></trkpt><trkpt lat="44.47891882742368" lon="8.70598465680874"><ele>776.5</ele><time>2026-04-06T07:23:54Z</time></trkpt><trkpt lat="44.478812905655396" lon="8.705889877794451"><ele>778.25</ele><time>2026-04-06T07:23:55Z</time></trkpt><trkpt lat="44.47871647928863" lon="8.705803398542887"><ele>780.0</ele><time>2026-04-06T07:23:56Z</time></trkpt><trkpt lat="44.478634519651756" lon="8.705719138752743"><ele>775.6</ele><time>2026-04-06T07:23:57Z</time></trkpt><trkpt lat="44.47856666305071" lon="8.705630902362683"><ele>771.2</ele><time>2026-04-06T07:23:58Z</time></trkpt><trkpt lat="44.478522612621724" lon="8.705525271119068"><ele>766.8</ele><time>2026-04-06T07:23:59Z</time></trkpt><trkpt lat="44.47853458121981" lon="8.705412798303433"><ele>762.4</ele><time>2026-04-06T07:24:00Z</time></trkpt><trkpt lat="44.478594072062926" lon="8.705342066967578"><ele>758.0</ele><time>2026-04-06T07:24:01Z</time></trkpt><trkpt lat="44.4786973412084" lon="8.705228486577553"><ele>759.75</ele><time>2026-04-06T07:24:02Z</time></trkpt><trkpt lat="44.478813121715774" lon="8.705171180544758"><ele>761.5</ele><time>2026-04-06T07:24:03Z</time></trkpt><trkpt lat="44.478931826154685" lon="8.705123488697435"><ele>763.25</ele><time>2026-04-06T07:24:04Z</time></trkpt><trkpt lat="44.47904171832332" lon="8.705067506172913"><ele>765.0</ele><time>2026-04-06T07:24:05Z</time></trkpt><trkpt lat="44.47915792488426" lon="8.70499704619902"><ele>765.0</ele><time>2026-04-06T07:24:05.999Z</time></trkpt><trkpt lat="44.479279125400836" lon="8.704915527049412"><ele>765.0</ele><time>2026-04-06T07:24:06.999Z</time></trkpt><trkpt lat="44.47938941026659" lon="8.70483030633074"><ele>765.0</ele><time>2026-04-06T07:24:07.999Z</time></trkpt><trkpt lat="44.47949899164542" lon="8.704735496534521"><ele>765.0</ele><time>2026-04-06T07:24:08.999Z</time></trkpt><trkpt lat="44.47960558309809" lon="8.704637565914274"><ele>766.75</ele><time>2026-04-06T07:24:09.999Z</time></trkpt><trkpt lat="44.47971000350529" lon="8.70452561908489"><ele>768.5</ele><time>2026-04-06T07:24:10.999Z</time></trkpt><trkpt lat="44.47980750040922" lon="8.704401243254306"><ele>770.25</ele><time>2026-04-06T07:24:11.999Z</time></trkpt><trkpt lat="44.479904154507516" lon="8.704268391658895"><ele>772.0</ele><time>2026-04-06T07:24:12.999Z</time></trkpt><trkpt lat="44.47999970276016" lon="8.704136971387554"><ele>772.0</ele><time>2026-04-06T07:24:13.999Z</time></trkpt><trkpt lat="44.48009639123973" lon="8.704007728670403"><ele>772.0</ele><time>2026-04-06T07:24:14.999Z</time></trkpt><trkpt lat="44.48018843371287" lon="8.703873848251503"><ele>772.0</ele><time>2026-04-06T07:24:15.999Z</time></trkpt><trkpt lat="44.480270895107616" lon="8.703738935735032"><ele>772.0</ele><time>2026-04-06T07:24:16.999Z</time></trkpt><trkpt lat="44.48034790131589" lon="8.703608516119518"><ele>774.25</ele><time>2026-04-06T07:24:17.999Z</time></trkpt><trkpt lat="44.4804189911508" lon="8.703480338274634"><ele>776.5</ele><time>2026-04-06T07:24:18.999Z</time></trkpt><trkpt lat="44.48048772943244" lon="8.703348534151889"><ele>778.75</ele><time>2026-04-06T07:24:19.999Z</time></trkpt><trkpt lat="44.48052086369551" lon="8.703201274620138"><ele>781.0</ele><time>2026-04-06T07:24:20.999Z</time></trkpt><trkpt lat="44.48052099136813" lon="8.703045536632883"><ele>781.0</ele><time>2026-04-06T07:24:21.999Z</time></trkpt><trkpt lat="44.4805337811759" lon="8.702895478916895"><ele>781.0</ele><time>2026-04-06T07:24:22.999Z</time></trkpt><trkpt lat="44.48059120937477" lon="8.702755129559938"><ele>781.0</ele><time>2026-04-06T07:24:23.999Z</time></trkpt><trkpt lat="44.48068769862417" lon="8.702625341650316"><ele>781.0</ele><time>2026-04-06T07:24:24.999Z</time></trkpt><trkpt lat="44.48079284243383" lon="8.702517443329823"><ele>776.25</ele><time>2026-04-06T07:24:25.999Z</time></trkpt><trkpt lat="44.48089243324333" lon="8.702408287667312"><ele>771.5</ele><time>2026-04-06T07:24:26.999Z</time></trkpt><trkpt lat="44.4809713440767" lon="8.702267007187835"><ele>766.75</ele><time>2026-04-06T07:24:27.999Z</time></trkpt><trkpt lat="44.48101970685307" lon="8.702103369885227"><ele>762.0</ele><time>2026-04-06T07:24:28.999Z</time></trkpt><trkpt lat="44.481028186924846" lon="8.701915092181732"><ele>760.5</ele><time>2026-04-06T07:24:29.999Z</time></trkpt><trkpt lat="44.48102349514228" lon="8.701724635265577"><ele>759.0</ele><time>2026-04-06T07:24:30.999Z</time></trkpt><trkpt lat="44.4810266450728" lon="8.701535773938202"><ele>757.5</ele><time>2026-04-06T07:24:31.999Z</time></trkpt><trkpt lat="44.48102935502319" lon="8.70135697115857"><ele>756.0</ele><time>2026-04-06T07:24:32.999Z</time></trkpt><trkpt lat="44.48103216456194" lon="8.701178158885387"><ele>758.5</ele><time>2026-04-06T07:24:33.999Z</time></trkpt><trkpt lat="44.481029480155726" lon="8.701001452294328"><ele>761.0</ele><time>2026-04-06T07:24:34.999Z</time></trkpt><trkpt lat="44.48101644189028" lon="8.700822782746826"><ele>763.5</ele><time>2026-04-06T07:24:35.999Z</time></trkpt><trkpt lat="44.48099008154019" lon="8.700647136255101"><ele>766.0</ele><time>2026-04-06T07:24:36.999Z</time></trkpt><trkpt lat="44.48094348323614" lon="8.700477020556185"><ele>766.0</ele><time>2026-04-06T07:24:37.999Z</time></trkpt><trkpt lat="44.48089310325408" lon="8.70031544322684"><ele>766.0</ele><time>2026-04-06T07:24:38.999Z</time></trkpt><trkpt lat="44.48085267280785" lon="8.700151915306167"><ele>766.0</ele><time>2026-04-06T07:24:39.999Z</time></trkpt><trkpt lat="44.48083825122754" lon="8.699977755852606"><ele>766.0</ele><time>2026-04-06T07:24:40.999Z</time></trkpt><trkpt lat="44.480868438577986" lon="8.69980339149164"><ele>767.0</ele><time>2026-04-06T07:24:41.999Z</time></trkpt><trkpt lat="44.48092157400118" lon="8.699637561457143"><ele>768.0</ele><time>2026-04-06T07:24:42.999Z</time></trkpt><trkpt lat="44.48096927275194" lon="8.699482139422656"><ele>769.0</ele><time>2026-04-06T07:24:43.999Z</time></trkpt><trkpt lat="44.48097416049123" lon="8.69930701380243"><ele>770.0</ele><time>2026-04-06T07:24:44.999Z</time></trkpt><trkpt lat="44.48092583680235" lon="8.699137569049475"><ele>772.75</ele><time>2026-04-06T07:24:45.999Z</time></trkpt><trkpt lat="44.48084287347997" lon="8.698986775649415"><ele>775.5</ele><time>2026-04-06T07:24:46.999Z</time></trkpt><trkpt lat="44.48073574421941" lon="8.698873957791115"><ele>778.25</ele><time>2026-04-06T07:24:47.999Z</time></trkpt><trkpt lat="44.48062350024839" lon="8.698771928521516"><ele>781.0</ele><time>2026-04-06T07:24:48.999Z</time></trkpt><trkpt lat="44.48052201480974" lon="8.698667779049893"><ele>784.75</ele><time>2026-04-06T07:24:49.999Z</time></trkpt><trkpt lat="44.48045429767687" lon="8.698528662632897"><ele>788.5</ele><time>2026-04-06T07:24:50.999Z</time></trkpt><trkpt lat="44.48044047667892" lon="8.698359638616688"><ele>792.25</ele><time>2026-04-06T07:24:51.999Z</time></trkpt><trkpt lat="44.48046267422932" lon="8.698193757544216"><ele>796.0</ele><time>2026-04-06T07:24:52.999Z</time></trkpt><trkpt lat="44.48052914888932" lon="8.698032253508849"><ele>796.0</ele><time>2026-04-06T07:24:53.999Z</time></trkpt><trkpt lat="44.48061763184301" lon="8.697880588036869"><ele>796.0</ele><time>2026-04-06T07:24:54.999Z</time></trkpt><trkpt lat="44.480709380138" lon="8.697737196915748"><ele>796.0</ele><time>2026-04-06T07:24:55.999Z</time></trkpt><trkpt lat="44.480791016629816" lon="8.697591775514354"><ele>796.0</ele><time>2026-04-06T07:24:56.999Z</time></trkpt><trkpt lat="44.4808589486758" lon="8.697438095441271"><ele>796.75</ele><time>2026-04-06T07:24:57.999Z</time></trkpt><trkpt lat="44.48088949506052" lon="8.697269021237588"><ele>797.5</ele><time>2026-04-06T07:24:58.999Z</time></trkpt><trkpt lat="44.48088191964917" lon="8.6970884654273"><ele>798.25</ele><time>2026-04-06T07:24:59.999Z</time></trkpt><trkpt lat="44.48085255128549" lon="8.696910608751935"><ele>799.0</ele><time>2026-04-06T07:25:00.999Z</time></trkpt><trkpt lat="44.48082464805121" lon="8.696740055028057"><ele>799.25</ele><time>2026-04-06T07:25:01.999Z</time></trkpt><trkpt lat="44.48082896449653" lon="8.696566090356496"><ele>799.5</ele><time>2026-04-06T07:25:02.999Z</time></trkpt><trkpt lat="44.480868693710825" lon="8.696384436068788"><ele>799.75</ele><time>2026-04-06T07:25:03.999Z</time></trkpt><trkpt lat="44.48093246957747" lon="8.696206723464773"><ele>800.0</ele><time>2026-04-06T07:25:04.999Z</time></trkpt><trkpt lat="44.48099936632931" lon="8.69603891068189"><ele>797.5</ele><time>2026-04-06T07:25:05.999Z</time></trkpt><trkpt lat="44.48108180906878" lon="8.695879581683146"><ele>795.0</ele><time>2026-04-06T07:25:06.999Z</time></trkpt><trkpt lat="44.48117990702117" lon="8.695740948416175"><ele>792.5</ele><time>2026-04-06T07:25:07.999Z</time></trkpt><trkpt lat="44.48128776735236" lon="8.69561082979932"><ele>790.0</ele><time>2026-04-06T07:25:08.999Z</time></trkpt><trkpt lat="44.48139411926529" lon="8.69549421393421"><ele>793.0</ele><time>2026-04-06T07:25:09.999Z</time></trkpt><trkpt lat="44.48150657295173" lon="8.695370676481028"><ele>796.0</ele><time>2026-04-06T07:25:10.999Z</time></trkpt><trkpt lat="44.481623456469634" lon="8.695251586987457"><ele>799.0</ele><time>2026-04-06T07:25:11.999Z</time></trkpt><trkpt lat="44.48174543927811" lon="8.69514464530509"><ele>802.0</ele><time>2026-04-06T07:25:13Z</time></trkpt><trkpt lat="44.481867995526365" lon="8.6950435768068"><ele>802.0</ele><time>2026-04-06T07:25:14Z</time></trkpt><trkpt lat="44.48198750122045" lon="8.694937808040551"><ele>802.0</ele><time>2026-04-06T07:25:15Z</time></trkpt><trkpt lat="44.482104830662834" lon="8.694821580960243"><ele>802.0</ele><time>2026-04-06T07:25:16Z</time></trkpt><trkpt lat="44.48221740147383" lon="8.694705343144985"><ele>802.0</ele><time>2026-04-06T07:25:17Z</time></trkpt><trkpt lat="44.48233091720393" lon="8.694589731693222"><ele>806.75</ele><time>2026-04-06T07:25:18Z</time></trkpt><trkpt lat="44.48244427854151" lon="8.69447829523835"><ele>811.5</ele><time>2026-04-06T07:25:19Z</time></trkpt><trkpt lat="44.482548626440405" lon="8.694372877439289"><ele>816.25</ele><time>2026-04-06T07:25:20Z</time></trkpt><trkpt lat="44.48264277557465" lon="8.694270339310432"><ele>821.0</ele><time>2026-04-06T07:25:21Z</time></trkpt><trkpt lat="44.48272195369014" lon="8.694170873584762"><ele>821.0</ele><time>2026-04-06T07:25:22Z</time></trkpt><trkpt lat="44.48278368543735" lon="8.69404454423338"><ele>821.0</ele><time>2026-04-06T07:25:23Z</time></trkpt><trkpt lat="44.48280613579722" lon="8.693891368588117"><ele>821.0</ele><time>2026-04-06T07:25:24Z</time></trkpt><trkpt lat="44.48277765069247" lon="8.69372308988397"><ele>821.0</ele><time>2026-04-06T07:25:25Z</time></trkpt><trkpt lat="44.482699877326304" lon="8.693566868145782"><ele>823.75</ele><time>2026-04-06T07:25:26Z</time></trkpt><trkpt lat="44.48260095945608" lon="8.693436474333762"><ele>826.5</ele><time>2026-04-06T07:25:27Z</time></trkpt><trkpt lat="44.48248947828535" lon="8.693320118053022"><ele>829.25</ele><time>2026-04-06T07:25:28Z</time></trkpt><trkpt lat="44.48238795840183" lon="8.693190698162168"><ele>832.0</ele><time>2026-04-06T07:25:29Z</time></trkpt><trkpt lat="44.482295068634265" lon="8.693054180276501"><ele>832.0</ele><time>2026-04-06T07:25:30Z</time></trkpt><trkpt lat="44.48220471547087" lon="8.69291648184619"><ele>832.0</ele><time>2026-04-06T07:25:31Z</time></trkpt><trkpt lat="44.48211937528078" lon="8.692778380040139"><ele>832.0</ele><time>2026-04-06T07:25:32Z</time></trkpt><trkpt lat="44.48204594653354" lon="8.69261690976247"><ele>832.0</ele><time>2026-04-06T07:25:33Z</time></trkpt><trkpt lat="44.48199148776847" lon="8.692439099935813"><ele>831.5</ele><time>2026-04-06T07:25:34Z</time></trkpt><trkpt lat="44.48194813057665" lon="8.692256236335519"><ele>831.0</ele><time>2026-04-06T07:25:35Z</time></trkpt><trkpt lat="44.48189772378886" lon="8.692061839802458"><ele>830.5</ele><time>2026-04-06T07:25:36Z</time></trkpt><trkpt lat="44.481848251914705" lon="8.691878159403554"><ele>830.0</ele><time>2026-04-06T07:25:37Z</time></trkpt><trkpt lat="44.48179532168026" lon="8.691700349953898"><ele>830.0</ele><time>2026-04-06T07:25:38Z</time></trkpt><trkpt lat="44.48173570517162" lon="8.69154053717794"><ele>830.0</ele><time>2026-04-06T07:25:39Z</time></trkpt><trkpt lat="44.4816700131368" lon="8.691392559468301"><ele>830.0</ele><time>2026-04-06T07:25:40Z</time></trkpt><trkpt lat="44.48161543090767" lon="8.691246723125127"><ele>830.0</ele><time>2026-04-06T07:25:41Z</time></trkpt><trkpt lat="44.48158509791363" lon="8.69107876954148"><ele>833.0</ele><time>2026-04-06T07:25:42Z</time></trkpt><trkpt lat="44.481581570906" lon="8.69089426667825"><ele>836.0</ele><time>2026-04-06T07:25:43Z</time></trkpt><trkpt lat="44.48161033830883" lon="8.690707388659321"><ele>839.0</ele><time>2026-04-06T07:25:44Z</time></trkpt><trkpt lat="44.481662746222824" lon="8.690525752832588"><ele>842.0</ele><time>2026-04-06T07:25:45Z</time></trkpt><trkpt lat="44.48174242041071" lon="8.690368188201727"><ele>838.75</ele><time>2026-04-06T07:25:46Z</time></trkpt><trkpt lat="44.48184312193091" lon="8.690234388321171"><ele>835.5</ele><time>2026-04-06T07:25:47Z</time></trkpt><trkpt lat="44.4819595435631" lon="8.690123105231347"><ele>832.25</ele><time>2026-04-06T07:25:48Z</time></trkpt><trkpt lat="44.48208010328468" lon="8.69002344966021"><ele>829.0</ele><time>2026-04-06T07:25:49Z</time></trkpt><trkpt lat="44.482199600393145" lon="8.689914902002975"><ele>837.0</ele><time>2026-04-06T07:25:50Z</time></trkpt><trkpt lat="44.4823035483196" lon="8.689792137022565"><ele>845.0</ele><time>2026-04-06T07:25:51Z</time></trkpt><trkpt lat="44.48237938393317" lon="8.689657382965713"><ele>853.0</ele><time>2026-04-06T07:25:52Z</time></trkpt><trkpt lat="44.48243602751685" lon="8.689482291681374"><ele>861.0</ele><time>2026-04-06T07:25:53Z</time></trkpt><trkpt lat="44.48246501730488" lon="8.689298414663826"><ele>861.0</ele><time>2026-04-06T07:25:54Z</time></trkpt><trkpt lat="44.48249486391138" lon="8.689113484712259"><ele>861.0</ele><time>2026-04-06T07:25:55Z</time></trkpt><trkpt lat="44.482523389725905" lon="8.688940207704725"><ele>861.0</ele><time>2026-04-06T07:25:56Z</time></trkpt><trkpt lat="44.48256331395587" lon="8.68877576296444"><ele>861.0</ele><time>2026-04-06T07:25:57Z</time></trkpt><trkpt lat="44.48262348581336" lon="8.688642905468328"><ele>858.5</ele><time>2026-04-06T07:25:58Z</time></trkpt><trkpt lat="44.48270728596621" lon="8.688520123416659"><ele>856.0</ele><time>2026-04-06T07:25:59Z</time></trkpt><trkpt lat="44.48277573319264" lon="8.688376312744827"><ele>853.5</ele><time>2026-04-06T07:26:00Z</time></trkpt><trkpt lat="44.48278926485028" lon="8.688197096190919"><ele>851.0</ele><time>2026-04-06T07:26:01Z</time></trkpt><trkpt lat="44.4827589619152" lon="8.688008285761965"><ele>851.0</ele><time>2026-04-06T07:26:02Z</time></trkpt><trkpt lat="44.482691979541656" lon="8.687827050070105"><ele>851.0</ele><time>2026-04-06T07:26:03Z</time></trkpt><trkpt lat="44.48259571167897" lon="8.687659735090511"><ele>851.0</ele><time>2026-04-06T07:26:04Z</time></trkpt><trkpt lat="44.48252132115755" lon="8.68751253086592"><ele>851.0</ele><time>2026-04-06T07:26:05Z</time></trkpt><trkpt lat="44.48246969766491" lon="8.687362494022425"><ele>851.75</ele><time>2026-04-06T07:26:06Z</time></trkpt><trkpt lat="44.48244694299469" lon="8.687188273416076"><ele>852.5</ele><time>2026-04-06T07:26:07Z</time></trkpt><trkpt lat="44.48246313573686" lon="8.686998287128848"><ele>853.25</ele><time>2026-04-06T07:26:08Z</time></trkpt><trkpt lat="44.48251342633186" lon="8.686806496563907"><ele>854.0</ele><time>2026-04-06T07:26:09Z</time></trkpt><trkpt lat="44.48259048585501" lon="8.686644718775524"><ele>854.0</ele><time>2026-04-06T07:26:10Z</time></trkpt><trkpt lat="44.48268927183766" lon="8.686486992723749"><ele>854.0</ele><time>2026-04-06T07:26:11Z</time></trkpt><trkpt lat="44.48278338737967" lon="8.686344753604372"><ele>854.0</ele><time>2026-04-06T07:26:12Z</time></trkpt><trkpt lat="44.48286081570891" lon="8.686206802319496"><ele>854.0</ele><time>2026-04-06T07:26:13Z</time></trkpt><trkpt lat="44.48291987169001" lon="8.686061382888742"><ele>852.5</ele><time>2026-04-06T07:26:14Z</time></trkpt><trkpt lat="44.482949581102645" lon="8.685895844876603"><ele>851.0</ele><time>2026-04-06T07:26:15Z</time></trkpt><trkpt lat="44.48293821832499" lon="8.68571166428875"><ele>849.5</ele><time>2026-04-06T07:26:16Z</time></trkpt><trkpt lat="44.48289248593251" lon="8.685536212356533"><ele>848.0</ele><time>2026-04-06T07:26:17Z</time></trkpt><trkpt lat="44.48280986391278" lon="8.685376699413869"><ele>857.0</ele><time>2026-04-06T07:26:17.999Z</time></trkpt><trkpt lat="44.48269644211335" lon="8.68524077002546"><ele>866.0</ele><time>2026-04-06T07:26:18.999Z</time></trkpt><trkpt lat="44.48258329641073" lon="8.685106901725513"><ele>875.0</ele><time>2026-04-06T07:26:19.999Z</time></trkpt><trkpt lat="44.482473519749774" lon="8.684957473519798"><ele>875.0</ele><time>2026-04-06T07:26:20.999Z</time></trkpt><trkpt lat="44.482367640786464" lon="8.684806546237352"><ele>875.0</ele><time>2026-04-06T07:26:21.999Z</time></trkpt><trkpt lat="44.48226217560543" lon="8.68465807768907"><ele>875.0</ele><time>2026-04-06T07:26:22.999Z</time></trkpt><trkpt lat="44.482165988744555" lon="8.684522824898455"><ele>875.0</ele><time>2026-04-06T07:26:23.999Z</time></trkpt><trkpt lat="44.48207635232065" lon="8.684392744717426"><ele>871.75</ele><time>2026-04-06T07:26:24.999Z</time></trkpt><trkpt lat="44.48199286088765" lon="8.684264593840348"><ele>868.5</ele><time>2026-04-06T07:26:25.999Z</time></trkpt><trkpt lat="44.48192124466051" lon="8.684118092816826"><ele>865.25</ele><time>2026-04-06T07:26:26.999Z</time></trkpt><trkpt lat="44.4818599261493" lon="8.683951526521982"><ele>862.0</ele><time>2026-04-06T07:26:27.999Z</time></trkpt><trkpt lat="44.481789485157854" lon="8.683778268620296"><ele>862.0</ele><time>2026-04-06T07:26:28.999Z</time></trkpt><trkpt lat="44.4817241151353" lon="8.683611138396836"><ele>862.0</ele><time>2026-04-06T07:26:29.999Z</time></trkpt><trkpt lat="44.48166911097639" lon="8.683442316058969"><ele>862.0</ele><time>2026-04-06T07:26:30.999Z</time></trkpt><trkpt lat="44.48164549216732" lon="8.683267383811284"><ele>862.0</ele><time>2026-04-06T07:26:31.999Z</time></trkpt><trkpt lat="44.48163806425673" lon="8.683096072148896"><ele>864.8</ele><time>2026-04-06T07:26:32.999Z</time></trkpt><trkpt lat="44.48166292582029" lon="8.682946464309174"><ele>867.6</ele><time>2026-04-06T07:26:33.999Z</time></trkpt><trkpt lat="44.48169173184772" lon="8.682836401663264"><ele>870.3999999999999</ele><time>2026-04-06T07:26:34.999Z</time></trkpt><trkpt lat="44.48172950490244" lon="8.682742991818284"><ele>873.1999999999999</ele><time>2026-04-06T07:26:36.999Z</time></trkpt><trkpt lat="44.48170731852271" lon="8.682581246607072"><ele>876.0</ele><time>2026-04-06T07:26:48.999Z</time></trkpt><trkpt lat="44.481695255722954" lon="8.682455752027066"><ele>877.0</ele><time>2026-04-06T07:26:49.999Z</time></trkpt><trkpt lat="44.481671468990314" lon="8.682326279500332"><ele>877.9999999999999</ele><time>2026-04-06T07:26:50.999Z</time></trkpt><trkpt lat="44.48163932318282" lon="8.682189208267394"><ele>878.9999999999999</ele><time>2026-04-06T07:26:51.999Z</time></trkpt><trkpt lat="44.481613038972306" lon="8.682045508228098"><ele>880.0</ele><time>2026-04-06T07:26:52.999Z</time></trkpt><trkpt lat="44.48158032579084" lon="8.681906844868974"><ele>881.0</ele><time>2026-04-06T07:26:53.999Z</time></trkpt><trkpt lat="44.481543124294454" lon="8.681749106253083"><ele>884.75</ele><time>2026-04-06T07:26:54.999Z</time></trkpt><trkpt lat="44.48150283078332" lon="8.681574829061368"><ele>888.5</ele><time>2026-04-06T07:26:55.999Z</time></trkpt><trkpt lat="44.48146962187523" lon="8.681396355481581"><ele>892.25</ele><time>2026-04-06T07:26:56.999Z</time></trkpt><trkpt lat="44.481440838039624" lon="8.68122210824813"><ele>896.0</ele><time>2026-04-06T07:26:57.999Z</time></trkpt><trkpt lat="44.481408355775514" lon="8.681055971921468"><ele>894.75</ele><time>2026-04-06T07:26:58.999Z</time></trkpt><trkpt lat="44.48136425026548" lon="8.6808935952203"><ele>893.5</ele><time>2026-04-06T07:26:59.999Z</time></trkpt><trkpt lat="44.48128686125192" lon="8.68074963809488"><ele>892.25</ele><time>2026-04-06T07:27:00.999Z</time></trkpt><trkpt lat="44.481195522321194" lon="8.680618573805623"><ele>891.0</ele><time>2026-04-06T07:27:01.999Z</time></trkpt><trkpt lat="44.48108590077166" lon="8.68051650831911"><ele>891.0</ele><time>2026-04-06T07:27:02.999Z</time></trkpt><trkpt lat="44.480963276634185" lon="8.68046209886656"><ele>891.0</ele><time>2026-04-06T07:27:03.999Z</time></trkpt><trkpt lat="44.480838957854445" lon="8.680429014577964"><ele>891.0</ele><time>2026-04-06T07:27:04.999Z</time></trkpt><trkpt lat="44.48073549585613" lon="8.680360360076742"><ele>891.0</ele><time>2026-04-06T07:27:05.999Z</time></trkpt><trkpt lat="44.48065861415423" lon="8.680248679555353"><ele>898.25</ele><time>2026-04-06T07:27:06.999Z</time></trkpt><trkpt lat="44.48060132507613" lon="8.680099654815274"><ele>905.5</ele><time>2026-04-06T07:27:07.999Z</time></trkpt><trkpt lat="44.48057068475352" lon="8.679915903591663"><ele>912.75</ele><time>2026-04-06T07:27:08.999Z</time></trkpt><trkpt lat="44.480569020594764" lon="8.679712830830217"><ele>920.0</ele><time>2026-04-06T07:27:09.999Z</time></trkpt><trkpt lat="44.48058021113345" lon="8.6795072777947"><ele>924.5</ele><time>2026-04-06T07:27:10.999Z</time></trkpt><trkpt lat="44.480580994636355" lon="8.679325000310149"><ele>929.0</ele><time>2026-04-06T07:27:11.999Z</time></trkpt><trkpt lat="44.48055685203248" lon="8.679140186390933"><ele>933.5</ele><time>2026-04-06T07:27:12.999Z</time></trkpt><trkpt lat="44.480492695009275" lon="8.678978981734625"><ele>938.0</ele><time>2026-04-06T07:27:13.999Z</time></trkpt><trkpt lat="44.480406092530465" lon="8.678818356245268"><ele>934.5</ele><time>2026-04-06T07:27:14.999Z</time></trkpt><trkpt lat="44.48030189570207" lon="8.678668281640103"><ele>931.0</ele><time>2026-04-06T07:27:15.999Z</time></trkpt><trkpt lat="44.48020273913709" lon="8.67851434480302"><ele>927.5</ele><time>2026-04-06T07:27:16.999Z</time></trkpt><trkpt lat="44.480096710386846" lon="8.678379241693955"><ele>924.0</ele><time>2026-04-06T07:27:17.999Z</time></trkpt><trkpt lat="44.47998153762467" lon="8.678263097062999"><ele>924.0</ele><time>2026-04-06T07:27:19.001Z</time></trkpt><trkpt lat="44.47985170377154" lon="8.67817054964657"><ele>924.0</ele><time>2026-04-06T07:27:20.001Z</time></trkpt><trkpt lat="44.47972477129754" lon="8.678094347814042"><ele>924.0</ele><time>2026-04-06T07:27:21.001Z</time></trkpt><trkpt lat="44.47960792520647" lon="8.67802411092754"><ele>924.0</ele><time>2026-04-06T07:27:22.001Z</time></trkpt><trkpt lat="44.47950861491867" lon="8.677943709055674"><ele>921.75</ele><time>2026-04-06T07:27:23.001Z</time></trkpt><trkpt lat="44.47942316853881" lon="8.677828673133854"><ele>919.5</ele><time>2026-04-06T07:27:24.001Z</time></trkpt><trkpt lat="44.479365355946754" lon="8.677664624152253"><ele>917.25</ele><time>2026-04-06T07:27:25.001Z</time></trkpt><trkpt lat="44.47934273712809" lon="8.677480557033059"><ele>915.0</ele><time>2026-04-06T07:27:26.001Z</time></trkpt><trkpt lat="44.479349379894465" lon="8.677281748802134"><ele>915.0</ele><time>2026-04-06T07:27:27Z</time></trkpt><trkpt lat="44.47937678134561" lon="8.677087725362796"><ele>915.0</ele><time>2026-04-06T07:27:28Z</time></trkpt><trkpt lat="44.47941129128531" lon="8.676885674625645"><ele>915.0</ele><time>2026-04-06T07:27:29Z</time></trkpt><trkpt lat="44.47943051152392" lon="8.676711308919499"><ele>915.0</ele><time>2026-04-06T07:27:30Z</time></trkpt><trkpt lat="44.47944382320899" lon="8.676538184944945"><ele>916.5</ele><time>2026-04-06T07:27:31Z</time></trkpt><trkpt lat="44.4794598615576" lon="8.676366185201962"><ele>918.0</ele><time>2026-04-06T07:27:32Z</time></trkpt><trkpt lat="44.4794698967458" lon="8.676188569436036"><ele>919.5</ele><time>2026-04-06T07:27:33Z</time></trkpt><trkpt lat="44.47946402679109" lon="8.676006567045034"><ele>921.0</ele><time>2026-04-06T07:27:34Z</time></trkpt><trkpt lat="44.479428280620944" lon="8.67581230384383"><ele>924.5</ele><time>2026-04-06T07:27:35Z</time></trkpt><trkpt lat="44.479363039315785" lon="8.67564578718815"><ele>928.0</ele><time>2026-04-06T07:27:36Z</time></trkpt><trkpt lat="44.479282375779015" lon="8.67550631327306"><ele>931.5</ele><time>2026-04-06T07:27:37Z</time></trkpt><trkpt lat="44.479219167275865" lon="8.675384631252975"><ele>935.0</ele><time>2026-04-06T07:27:38Z</time></trkpt><trkpt lat="44.47920341651031" lon="8.675234787069286"><ele>936.25</ele><time>2026-04-06T07:27:39Z</time></trkpt><trkpt lat="44.47924096324884" lon="8.675073169254873"><ele>937.5</ele><time>2026-04-06T07:27:40Z</time></trkpt><trkpt lat="44.47932593219381" lon="8.674920797125255"><ele>938.75</ele><time>2026-04-06T07:27:41Z</time></trkpt><trkpt lat="44.47941776996003" lon="8.67479092099297"><ele>940.0</ele><time>2026-04-06T07:27:42Z</time></trkpt><trkpt lat="44.47948759180196" lon="8.67464532051464"><ele>940.0</ele><time>2026-04-06T07:27:43Z</time></trkpt><trkpt lat="44.479494516995786" lon="8.674474556620353"><ele>940.0</ele><time>2026-04-06T07:27:44Z</time></trkpt><trkpt lat="44.47945644461498" lon="8.674304484314245"><ele>940.0</ele><time>2026-04-06T07:27:45Z</time></trkpt><trkpt lat="44.479375372694165" lon="8.67414623390959"><ele>940.0</ele><time>2026-04-06T07:27:46Z</time></trkpt><trkpt lat="44.479275097343226" lon="8.674018958396681"><ele>943.5</ele><time>2026-04-06T07:27:47Z</time></trkpt><trkpt lat="44.479173931572944" lon="8.673927335464702"><ele>947.0</ele><time>2026-04-06T07:27:48Z</time></trkpt><trkpt lat="44.4790851711117" lon="8.673827068615129"><ele>950.5</ele><time>2026-04-06T07:27:49Z</time></trkpt><trkpt lat="44.479021587016206" lon="8.673702973112484"><ele>954.0</ele><time>2026-04-06T07:27:50Z</time></trkpt><trkpt lat="44.478982816352655" lon="8.673554408239765"><ele>959.25</ele><time>2026-04-06T07:27:51Z</time></trkpt><trkpt lat="44.47896917547153" lon="8.673397786439239"><ele>964.5</ele><time>2026-04-06T07:27:52Z</time></trkpt><trkpt lat="44.47896622519864" lon="8.673240864917085"><ele>969.75</ele><time>2026-04-06T07:27:53Z</time></trkpt><trkpt lat="44.47896098770825" lon="8.673080109382543"><ele>975.0</ele><time>2026-04-06T07:27:54Z</time></trkpt><trkpt lat="44.47892117524943" lon="8.672924161597875"><ele>975.0</ele><time>2026-04-06T07:27:55Z</time></trkpt><trkpt lat="44.47884455465626" lon="8.672790321572188"><ele>975.0</ele><time>2026-04-06T07:27:56Z</time></trkpt><trkpt lat="44.47875366434304" lon="8.672674396316006"><ele>975.0</ele><time>2026-04-06T07:27:57Z</time></trkpt><trkpt lat="44.47865336522092" lon="8.67256283615867"><ele>975.0</ele><time>2026-04-06T07:27:58Z</time></trkpt><trkpt lat="44.47855637698638" lon="8.672460110654983"><ele>972.25</ele><time>2026-04-06T07:27:59Z</time></trkpt><trkpt lat="44.4784535191002" lon="8.672366644841878"><ele>969.5</ele><time>2026-04-06T07:28:00Z</time></trkpt><trkpt lat="44.47834992127341" lon="8.672276653548975"><ele>966.75</ele><time>2026-04-06T07:28:01Z</time></trkpt><trkpt lat="44.47824021271322" lon="8.6721963238018"><ele>964.0</ele><time>2026-04-06T07:28:02Z</time></trkpt><trkpt lat="44.478127189916265" lon="8.672123647584511"><ele>964.0</ele><time>2026-04-06T07:28:03Z</time></trkpt><trkpt lat="44.47800389544691" lon="8.672078319155837"><ele>964.0</ele><time>2026-04-06T07:28:04Z</time></trkpt><trkpt lat="44.47788768223206" lon="8.672034695671469"><ele>964.0</ele><time>2026-04-06T07:28:05Z</time></trkpt><trkpt lat="44.477764337174456" lon="8.67200424620702"><ele>964.0</ele><time>2026-04-06T07:28:06Z</time></trkpt><trkpt lat="44.47764815293225" lon="8.671977640558266"><ele>969.0</ele><time>2026-04-06T07:28:07Z</time></trkpt><trkpt lat="44.47754150139233" lon="8.671950648587567"><ele>974.0000000000001</ele><time>2026-04-06T07:28:08Z</time></trkpt><trkpt lat="44.47744444913421" lon="8.671901859671847"><ele>979.0000000000001</ele><time>2026-04-06T07:28:09Z</time></trkpt><trkpt lat="44.47735723876756" lon="8.671813412912657"><ele>984.0</ele><time>2026-04-06T07:28:10Z</time></trkpt><trkpt lat="44.477279897877914" lon="8.671692937329253"><ele>989.0</ele><time>2026-04-06T07:28:11Z</time></trkpt><trkpt lat="44.47719713235901" lon="8.671599958610328"><ele>986.8000000000001</ele><time>2026-04-06T07:28:12Z</time></trkpt><trkpt lat="44.477092030286634" lon="8.671540990044711"><ele>984.6000000000001</ele><time>2026-04-06T07:28:13Z</time></trkpt><trkpt lat="44.47697980289647" lon="8.6715469043648"><ele>982.4</ele><time>2026-04-06T07:28:14Z</time></trkpt><trkpt lat="44.47687195092435" lon="8.671574848763608"><ele>980.2</ele><time>2026-04-06T07:28:15Z</time></trkpt><trkpt lat="44.47677589827348" lon="8.671610762563727"><ele>978.0</ele><time>2026-04-06T07:28:16Z</time></trkpt><trkpt lat="44.47667485428469" lon="8.67164239394929"><ele>978.0</ele><time>2026-04-06T07:28:17Z</time></trkpt><trkpt lat="44.47656929091971" lon="8.671652232775958"><ele>978.0</ele><time>2026-04-06T07:28:18Z</time></trkpt><trkpt lat="44.47646026597347" lon="8.671634978399247"><ele>978.0</ele><time>2026-04-06T07:28:19Z</time></trkpt><trkpt lat="44.47634971987991" lon="8.671588671752787"><ele>978.0</ele><time>2026-04-06T07:28:20Z</time></trkpt><trkpt lat="44.47624168859357" lon="8.671545352621902"><ele>978.0</ele><time>2026-04-06T07:28:21Z</time></trkpt><trkpt lat="44.476136037037456" lon="8.671500736889953"><ele>974.2</ele><time>2026-04-06T07:28:22Z</time></trkpt><trkpt lat="44.47603759611057" lon="8.67146262433814"><ele>970.4</ele><time>2026-04-06T07:28:23Z</time></trkpt><trkpt lat="44.475947496476444" lon="8.67141914470454"><ele>966.6000000000001</ele><time>2026-04-06T07:28:24Z</time></trkpt><trkpt lat="44.47585842793554" lon="8.671353261177645"><ele>962.8000000000001</ele><time>2026-04-06T07:28:25Z</time></trkpt><trkpt lat="44.47577851708189" lon="8.671252606414805"><ele>959.0</ele><time>2026-04-06T07:28:26Z</time></trkpt><trkpt lat="44.475704446949585" lon="8.671133573246037"><ele>967.25</ele><time>2026-04-06T07:28:27Z</time></trkpt><trkpt lat="44.47564210627147" lon="8.670994108063319"><ele>975.5</ele><time>2026-04-06T07:28:28Z</time></trkpt><trkpt lat="44.47558477531043" lon="8.670848329142443"><ele>983.75</ele><time>2026-04-06T07:28:29Z</time></trkpt><trkpt lat="44.47552896161944" lon="8.670697207899238"><ele>992.0</ele><time>2026-04-06T07:28:30Z</time></trkpt><trkpt lat="44.47546525948539" lon="8.670548474226155"><ele>985.25</ele><time>2026-04-06T07:28:31Z</time></trkpt><trkpt lat="44.47539721300291" lon="8.670398445702485"><ele>978.5</ele><time>2026-04-06T07:28:32Z</time></trkpt><trkpt lat="44.47533501996733" lon="8.670255324224895"><ele>971.75</ele><time>2026-04-06T07:28:33Z</time></trkpt><trkpt lat="44.47527732694222" lon="8.67011160850538"><ele>965.0</ele><time>2026-04-06T07:28:33.999Z</time></trkpt><trkpt lat="44.47522527245081" lon="8.669974665271265"><ele>965.0</ele><time>2026-04-06T07:28:34.999Z</time></trkpt><trkpt lat="44.47517351745432" lon="8.669846550796336"><ele>965.0</ele><time>2026-04-06T07:28:35.999Z</time></trkpt><trkpt lat="44.475126382116585" lon="8.669719457560472"><ele>965.0</ele><time>2026-04-06T07:28:36.999Z</time></trkpt><trkpt lat="44.475110990640594" lon="8.669578312728877"><ele>965.0</ele><time>2026-04-06T07:28:37.999Z</time></trkpt><trkpt lat="44.47513405623892" lon="8.669430411442935"><ele>965.0</ele><time>2026-04-06T07:28:38.999Z</time></trkpt><trkpt lat="44.475186637768495" lon="8.669283240317611"><ele>965.25</ele><time>2026-04-06T07:28:39.999Z</time></trkpt><trkpt lat="44.475249578080614" lon="8.669145026218926"><ele>965.5</ele><time>2026-04-06T07:28:40.999Z</time></trkpt><trkpt lat="44.47532845828021" lon="8.66902647733069"><ele>965.75</ele><time>2026-04-06T07:28:41.999Z</time></trkpt><trkpt lat="44.475419031310764" lon="8.668914269022924"><ele>966.0</ele><time>2026-04-06T07:28:42.999Z</time></trkpt><trkpt lat="44.47551285656013" lon="8.668819363201782"><ele>965.8</ele><time>2026-04-06T07:28:43.999Z</time></trkpt><trkpt lat="44.47560420720851" lon="8.668729673362627"><ele>965.5999999999999</ele><time>2026-04-06T07:28:44.999Z</time></trkpt><trkpt lat="44.47569305345861" lon="8.668637024973558"><ele>965.4</ele><time>2026-04-06T07:28:45.999Z</time></trkpt><trkpt lat="44.47578053314579" lon="8.668540421945746"><ele>965.2</ele><time>2026-04-06T07:28:46.999Z</time></trkpt><trkpt lat="44.47586707005852" lon="8.668445246158047"><ele>965.0</ele><time>2026-04-06T07:28:47.999Z</time></trkpt><trkpt lat="44.4759564548832" lon="8.668343497984468"><ele>965.0</ele><time>2026-04-06T07:28:48.999Z</time></trkpt><trkpt lat="44.476048717317234" lon="8.668243520603818"><ele>965.0</ele><time>2026-04-06T07:28:49.999Z</time></trkpt><trkpt lat="44.47614000359291" lon="8.6681407730412"><ele>965.0</ele><time>2026-04-06T07:28:50.999Z</time></trkpt><trkpt lat="44.476236198344765" lon="8.668037210406416"><ele>965.0</ele><time>2026-04-06T07:28:51.999Z</time></trkpt><trkpt lat="44.47633224541293" lon="8.667934350307997"><ele>964.0</ele><time>2026-04-06T07:28:52.999Z</time></trkpt><trkpt lat="44.4764157571813" lon="8.667830636652019"><ele>963.0</ele><time>2026-04-06T07:28:53.999Z</time></trkpt><trkpt lat="44.47646793561813" lon="8.667728360107851"><ele>962.0</ele><time>2026-04-06T07:28:54.999Z</time></trkpt><trkpt lat="44.476464992047894" lon="8.667608560916555"><ele>961.0</ele><time>2026-04-06T07:28:55.999Z</time></trkpt><trkpt lat="44.4764176247614" lon="8.667495288335127"><ele>960.0</ele><time>2026-04-06T07:28:56.999Z</time></trkpt><trkpt lat="44.476331354704904" lon="8.667427447949125"><ele>957.0</ele><time>2026-04-06T07:28:57.999Z</time></trkpt><trkpt lat="44.476235445412314" lon="8.667412163280222"><ele>954.0</ele><time>2026-04-06T07:28:58.999Z</time></trkpt><trkpt lat="44.47614514054928" lon="8.667460693174425"><ele>951.0</ele><time>2026-04-06T07:28:59.999Z</time></trkpt><trkpt lat="44.476067394245966" lon="8.667557645872595"><ele>948.0</ele><time>2026-04-06T07:29:00.999Z</time></trkpt><trkpt lat="44.47599667270473" lon="8.667662809890945"><ele>945.0</ele><time>2026-04-06T07:29:01.999Z</time></trkpt><trkpt lat="44.47592121525093" lon="8.667752272281458"><ele>948.3333333333334</ele><time>2026-04-06T07:29:02.999Z</time></trkpt><trkpt lat="44.47584111050757" lon="8.66784327632808"><ele>951.6666666666667</ele><time>2026-04-06T07:29:03.999Z</time></trkpt><trkpt lat="44.47575967316658" lon="8.667935511804432"><ele>955.0</ele><time>2026-04-06T07:29:04.999Z</time></trkpt><trkpt lat="44.47570153281059" lon="8.667988943380706"><ele>958.3333333333334</ele><time>2026-04-06T07:29:05.999Z</time></trkpt><trkpt lat="44.47566187216007" lon="8.667897511467235"><ele>961.6666666666667</ele><time>2026-04-06T07:29:10.999Z</time></trkpt><trkpt lat="44.47563539312171" lon="8.667998053782773"><ele>965.0</ele><time>2026-04-06T07:36:50.999Z</time></trkpt><trkpt lat="44.47559658755138" lon="8.668092576416365"><ele>965.0</ele><time>2026-04-06T07:36:57.999Z</time></trkpt><trkpt lat="44.47547727638188" lon="8.668165723021472"><ele>965.0</ele><time>2026-04-06T07:36:59.999Z</time></trkpt><trkpt lat="44.475398219435164" lon="8.668208723197733"><ele>965.0</ele><time>2026-04-06T07:37:00.999Z</time></trkpt><trkpt lat="44.47530753950664" lon="8.66823818498369"><ele>965.0</ele><time>2026-04-06T07:37:01.999Z</time></trkpt><trkpt lat="44.475218457266585" lon="8.668261463254641"><ele>965.0</ele><time>2026-04-06T07:37:02.999Z</time></trkpt><trkpt lat="44.47512361797947" lon="8.668271459858"><ele>962.4</ele><time>2026-04-06T07:37:03.999Z</time></trkpt><trkpt lat="44.47503426224996" lon="8.668279605469333"><ele>959.8</ele><time>2026-04-06T07:37:04.999Z</time></trkpt><trkpt lat="44.47494662007359" lon="8.668274951131536"><ele>957.2</ele><time>2026-04-06T07:37:05.999Z</time></trkpt><trkpt lat="44.47485558054571" lon="8.66826110533016"><ele>954.6</ele><time>2026-04-06T07:37:06.999Z</time></trkpt><trkpt lat="44.47476825254373" lon="8.668228841781742"><ele>952.0</ele><time>2026-04-06T07:37:07.999Z</time></trkpt><trkpt lat="44.47467384277014" lon="8.668180793932052"><ele>950.8</ele><time>2026-04-06T07:37:08.999Z</time></trkpt><trkpt lat="44.47458098628863" lon="8.66813259054781"><ele>949.6</ele><time>2026-04-06T07:37:09.998Z</time></trkpt><trkpt lat="44.47448534306004" lon="8.6680785566863"><ele>948.3999999999999</ele><time>2026-04-06T07:37:10.998Z</time></trkpt><trkpt lat="44.4743892618525" lon="8.668034638156247"><ele>947.1999999999999</ele><time>2026-04-06T07:37:11.998Z</time></trkpt><trkpt lat="44.47428820892304" lon="8.668014204303226"><ele>946.0</ele><time>2026-04-06T07:37:12.998Z</time></trkpt><trkpt lat="44.47418440605232" lon="8.668030028467781"><ele>946.0</ele><time>2026-04-06T07:37:13.998Z</time></trkpt><trkpt lat="44.474085042159956" lon="8.668087992542773"><ele>946.0</ele><time>2026-04-06T07:37:14.998Z</time></trkpt><trkpt lat="44.473994415146116" lon="8.668188804863936"><ele>946.0</ele><time>2026-04-06T07:37:15.998Z</time></trkpt><trkpt lat="44.47392273034236" lon="8.668318793037256"><ele>946.0</ele><time>2026-04-06T07:37:16.998Z</time></trkpt><trkpt lat="44.47386471906188" lon="8.6684632028867"><ele>947.0</ele><time>2026-04-06T07:37:17.998Z</time></trkpt><trkpt lat="44.47381103881648" lon="8.668612511697296"><ele>948.0</ele><time>2026-04-06T07:37:18.998Z</time></trkpt><trkpt lat="44.47374894732359" lon="8.668759848512266"><ele>949.0</ele><time>2026-04-06T07:37:19.998Z</time></trkpt><trkpt lat="44.47367459955954" lon="8.668892314529613"><ele>950.0</ele><time>2026-04-06T07:37:20.998Z</time></trkpt><trkpt lat="44.473593736379634" lon="8.6690060828435"><ele>946.8</ele><time>2026-04-06T07:37:21.998Z</time></trkpt><trkpt lat="44.47350536188996" lon="8.669107636958724"><ele>943.6</ele><time>2026-04-06T07:37:22.998Z</time></trkpt><trkpt lat="44.47341184319408" lon="8.669193873603918"><ele>940.4000000000001</ele><time>2026-04-06T07:37:23.998Z</time></trkpt><trkpt lat="44.473313954831504" lon="8.669262519265184"><ele>937.2</ele><time>2026-04-06T07:37:24.998Z</time></trkpt><trkpt lat="44.47321288790625" lon="8.669325866843884"><ele>934.0</ele><time>2026-04-06T07:37:25.998Z</time></trkpt><trkpt lat="44.47310938090678" lon="8.669377223437928"><ele>934.0</ele><time>2026-04-06T07:37:26.998Z</time></trkpt><trkpt lat="44.473001577409164" lon="8.669415697061694"><ele>934.0</ele><time>2026-04-06T07:37:27.998Z</time></trkpt><trkpt lat="44.47289107735872" lon="8.66943983900187"><ele>934.0</ele><time>2026-04-06T07:37:28.998Z</time></trkpt><trkpt lat="44.472777474807664" lon="8.669446612836595"><ele>934.0</ele><time>2026-04-06T07:37:29.998Z</time></trkpt><trkpt lat="44.47266216272272" lon="8.669439554532516"><ele>934.25</ele><time>2026-04-06T07:37:30.998Z</time></trkpt><trkpt lat="44.472548379730576" lon="8.669431695132701"><ele>934.5</ele><time>2026-04-06T07:37:31.998Z</time></trkpt><trkpt lat="44.47243251990201" lon="8.6694222410973"><ele>934.75</ele><time>2026-04-06T07:37:32.998Z</time></trkpt><trkpt lat="44.47231478573594" lon="8.669408213339038"><ele>935.0</ele><time>2026-04-06T07:37:33.998Z</time></trkpt><trkpt lat="44.47219716056239" lon="8.66939895266958"><ele>936.0</ele><time>2026-04-06T07:37:34.998Z</time></trkpt><trkpt lat="44.472073994915384" lon="8.66938863520211"><ele>937.0</ele><time>2026-04-06T07:37:35.998Z</time></trkpt><trkpt lat="44.471957195884116" lon="8.669378335225149"><ele>938.0</ele><time>2026-04-06T07:37:36.998Z</time></trkpt><trkpt lat="44.471839109995976" lon="8.669371164414995"><ele>939.0</ele><time>2026-04-06T07:37:37.998Z</time></trkpt><trkpt lat="44.47172387327198" lon="8.669363908726481"><ele>939.0</ele><time>2026-04-06T07:37:38.998Z</time></trkpt><trkpt lat="44.47160861158384" lon="8.669355369635"><ele>939.0</ele><time>2026-04-06T07:37:39.998Z</time></trkpt><trkpt lat="44.471492103213485" lon="8.66935125261667"><ele>939.0</ele><time>2026-04-06T07:37:40.998Z</time></trkpt><trkpt lat="44.47137496864918" lon="8.669346016703026"><ele>939.0</ele><time>2026-04-06T07:37:41.998Z</time></trkpt><trkpt lat="44.47125885556677" lon="8.669334274858423"><ele>937.75</ele><time>2026-04-06T07:37:42.998Z</time></trkpt><trkpt lat="44.47114418425181" lon="8.669325353636179"><ele>936.5</ele><time>2026-04-06T07:37:43.998Z</time></trkpt><trkpt lat="44.471027124040766" lon="8.669323173521269"><ele>935.25</ele><time>2026-04-06T07:37:44.998Z</time></trkpt><trkpt lat="44.470911416494545" lon="8.66931769770737"><ele>934.0</ele><time>2026-04-06T07:37:45.998Z</time></trkpt><trkpt lat="44.470795562564106" lon="8.66930973986601"><ele>934.0</ele><time>2026-04-06T07:37:46.998Z</time></trkpt><trkpt lat="44.470679440618085" lon="8.669301794654498"><ele>934.0</ele><time>2026-04-06T07:37:47.998Z</time></trkpt><trkpt lat="44.47056001716008" lon="8.66929602076457"><ele>934.0</ele><time>2026-04-06T07:37:49Z</time></trkpt><trkpt lat="44.4704416129685" lon="8.669285689517885"><ele>934.0</ele><time>2026-04-06T07:37:50Z</time></trkpt><trkpt lat="44.470324888329834" lon="8.669273750403807"><ele>935.25</ele><time>2026-04-06T07:37:51Z</time></trkpt><trkpt lat="44.470207266509576" lon="8.669264612053018"><ele>936.5</ele><time>2026-04-06T07:37:52Z</time></trkpt><trkpt lat="44.4700892127529" lon="8.66926866301375"><ele>937.75</ele><time>2026-04-06T07:37:53Z</time></trkpt><trkpt lat="44.46997409051786" lon="8.669299153590895"><ele>939.0</ele><time>2026-04-06T07:37:54Z</time></trkpt><trkpt lat="44.4698586676943" lon="8.669357367447155"><ele>936.5</ele><time>2026-04-06T07:37:55Z</time></trkpt><trkpt lat="44.4697559443597" lon="8.669442500861027"><ele>934.0</ele><time>2026-04-06T07:37:56Z</time></trkpt><trkpt lat="44.46966156539632" lon="8.669542536764682"><ele>931.5</ele><time>2026-04-06T07:37:57Z</time></trkpt><trkpt lat="44.46957401933805" lon="8.669650196072231"><ele>929.0</ele><time>2026-04-06T07:37:58Z</time></trkpt><trkpt lat="44.46948594018942" lon="8.66974829691203"><ele>934.5</ele><time>2026-04-06T07:37:59Z</time></trkpt><trkpt lat="44.469394292899736" lon="8.669829425653608"><ele>940.0</ele><time>2026-04-06T07:38:00Z</time></trkpt><trkpt lat="44.469296926194126" lon="8.669906641631723"><ele>945.5</ele><time>2026-04-06T07:38:01Z</time></trkpt><trkpt lat="44.469190389000275" lon="8.66997705903614"><ele>951.0</ele><time>2026-04-06T07:38:02Z</time></trkpt><trkpt lat="44.469085010324484" lon="8.670046392945505"><ele>951.0</ele><time>2026-04-06T07:38:03Z</time></trkpt><trkpt lat="44.468968318879256" lon="8.670117755455932"><ele>951.0</ele><time>2026-04-06T07:38:04Z</time></trkpt><trkpt lat="44.46883759094934" lon="8.67018172841954"><ele>951.0</ele><time>2026-04-06T07:38:05Z</time></trkpt><trkpt lat="44.4687027229105" lon="8.670251906893718"><ele>951.0</ele><time>2026-04-06T07:38:06Z</time></trkpt><trkpt lat="44.468566933763476" lon="8.670335656913636"><ele>948.75</ele><time>2026-04-06T07:38:07Z</time></trkpt><trkpt lat="44.46842703048992" lon="8.670405244328348"><ele>946.5</ele><time>2026-04-06T07:38:08Z</time></trkpt><trkpt lat="44.46829225257138" lon="8.670461579225519"><ele>944.25</ele><time>2026-04-06T07:38:09Z</time></trkpt><trkpt lat="44.468158557302345" lon="8.670517904196377"><ele>942.0</ele><time>2026-04-06T07:38:10Z</time></trkpt><trkpt lat="44.46802656224663" lon="8.670573716153855"><ele>947.0</ele><time>2026-04-06T07:38:11Z</time></trkpt><trkpt lat="44.4678956047046" lon="8.670630787861615"><ele>952.0</ele><time>2026-04-06T07:38:12Z</time></trkpt><trkpt lat="44.467761891325154" lon="8.670688922978254"><ele>957.0</ele><time>2026-04-06T07:38:13Z</time></trkpt><trkpt lat="44.46763279783045" lon="8.670750059256278"><ele>962.0</ele><time>2026-04-06T07:38:14Z</time></trkpt><trkpt lat="44.46750693829227" lon="8.670813305706563"><ele>962.0</ele><time>2026-04-06T07:38:15Z</time></trkpt><trkpt lat="44.46738773400484" lon="8.670869698055137"><ele>962.0</ele><time>2026-04-06T07:38:16Z</time></trkpt><trkpt lat="44.467272296448186" lon="8.67092667318799"><ele>962.0</ele><time>2026-04-06T07:38:17Z</time></trkpt><trkpt lat="44.467159287853654" lon="8.67097648859559"><ele>962.0</ele><time>2026-04-06T07:38:18Z</time></trkpt><trkpt lat="44.467043286991235" lon="8.671000441172023"><ele>962.25</ele><time>2026-04-06T07:38:19Z</time></trkpt><trkpt lat="44.4669252658491" lon="8.670989042750824"><ele>962.5</ele><time>2026-04-06T07:38:20Z</time></trkpt><trkpt lat="44.466807272816084" lon="8.670949950304886"><ele>962.75</ele><time>2026-04-06T07:38:21Z</time></trkpt><trkpt lat="44.46670804495137" lon="8.67086261319377"><ele>963.0</ele><time>2026-04-06T07:38:22Z</time></trkpt><trkpt lat="44.46664065042681" lon="8.670751100396755"><ele>963.0</ele><time>2026-04-06T07:38:23Z</time></trkpt><trkpt lat="44.46660705332336" lon="8.67060351491698"><ele>963.0</ele><time>2026-04-06T07:38:24Z</time></trkpt><trkpt lat="44.46660663145967" lon="8.670438052692198"><ele>963.0</ele><time>2026-04-06T07:38:25Z</time></trkpt><trkpt lat="44.46665118366258" lon="8.67027594104086"><ele>963.0</ele><time>2026-04-06T07:38:25.999Z</time></trkpt><trkpt lat="44.46672593102487" lon="8.670117120159642"><ele>966.25</ele><time>2026-04-06T07:38:26.999Z</time></trkpt><trkpt lat="44.466818057267226" lon="8.669954612217866"><ele>969.5</ele><time>2026-04-06T07:38:27.999Z</time></trkpt><trkpt lat="44.46690151413619" lon="8.669785148626348"><ele>972.75</ele><time>2026-04-06T07:38:28.999Z</time></trkpt><trkpt lat="44.46697906283382" lon="8.669616627561883"><ele>976.0</ele><time>2026-04-06T07:38:29.999Z</time></trkpt><trkpt lat="44.467054933465064" lon="8.669447945245325"><ele>977.75</ele><time>2026-04-06T07:38:30.999Z</time></trkpt><trkpt lat="44.46713645424495" lon="8.669279336855944"><ele>979.5</ele><time>2026-04-06T07:38:31.999Z</time></trkpt><trkpt lat="44.46721494801715" lon="8.66910118374988"><ele>981.25</ele><time>2026-04-06T07:38:32.999Z</time></trkpt><trkpt lat="44.4672948425026" lon="8.668926256369625"><ele>983.0</ele><time>2026-04-06T07:38:33.999Z</time></trkpt><trkpt lat="44.46737348889896" lon="8.668759206039141"><ele>985.0</ele><time>2026-04-06T07:38:34.999Z</time></trkpt><trkpt lat="44.46744937924304" lon="8.668597658922307"><ele>987.0</ele><time>2026-04-06T07:38:35.999Z</time></trkpt><trkpt lat="44.46751099716498" lon="8.668432859110027"><ele>989.0</ele><time>2026-04-06T07:38:36.999Z</time></trkpt><trkpt lat="44.46756006613934" lon="8.668270064405352"><ele>991.0</ele><time>2026-04-06T07:38:37.999Z</time></trkpt><trkpt lat="44.467597992552164" lon="8.668108759906415"><ele>991.0</ele><time>2026-04-06T07:38:38.999Z</time></trkpt><trkpt lat="44.46763355124062" lon="8.667953191760212"><ele>991.0</ele><time>2026-04-06T07:38:39.999Z</time></trkpt><trkpt lat="44.467671332232634" lon="8.66780189014014"><ele>991.0</ele><time>2026-04-06T07:38:40.999Z</time></trkpt><trkpt lat="44.46771694701838" lon="8.66765358365188"><ele>991.0</ele><time>2026-04-06T07:38:41.999Z</time></trkpt><trkpt lat="44.46776378028062" lon="8.667500903998443"><ele>990.5</ele><time>2026-04-06T07:38:42.999Z</time></trkpt><trkpt lat="44.467825875791554" lon="8.667352175851727"><ele>990.0</ele><time>2026-04-06T07:38:43.999Z</time></trkpt><trkpt lat="44.467895869165154" lon="8.667210481449578"><ele>989.5</ele><time>2026-04-06T07:38:44.999Z</time></trkpt><trkpt lat="44.46798297686522" lon="8.667068598296389"><ele>989.0</ele><time>2026-04-06T07:38:45.999Z</time></trkpt><trkpt lat="44.4680682341664" lon="8.66692376354575"><ele>992.5</ele><time>2026-04-06T07:38:46.999Z</time></trkpt><trkpt lat="44.46815866174335" lon="8.666781139654608"><ele>996.0</ele><time>2026-04-06T07:38:47.999Z</time></trkpt><trkpt lat="44.46824887804634" lon="8.666634758906985"><ele>999.5</ele><time>2026-04-06T07:38:48.999Z</time></trkpt><trkpt lat="44.46833744165554" lon="8.6664847941878"><ele>1003.0</ele><time>2026-04-06T07:38:49.999Z</time></trkpt><trkpt lat="44.46842938039997" lon="8.666326711355934"><ele>1003.0</ele><time>2026-04-06T07:38:50.999Z</time></trkpt><trkpt lat="44.46852459577389" lon="8.666175682695828"><ele>1003.0</ele><time>2026-04-06T07:38:51.999Z</time></trkpt><trkpt lat="44.46863515679314" lon="8.666049449683351"><ele>1003.0</ele><time>2026-04-06T07:38:52.999Z</time></trkpt><trkpt lat="44.46875033534281" lon="8.665922116272476"><ele>1003.0</ele><time>2026-04-06T07:38:53.999Z</time></trkpt><trkpt lat="44.46887907556519" lon="8.66580573052845"><ele>1003.0</ele><time>2026-04-06T07:38:54.999Z</time></trkpt><trkpt lat="44.46900325723564" lon="8.665714649641673"><ele>1003.0</ele><time>2026-04-06T07:38:55.999Z</time></trkpt><trkpt lat="44.46911428544035" lon="8.665642369475465"><ele>1003.0</ele><time>2026-04-06T07:38:56.999Z</time></trkpt><trkpt lat="44.469214254544625" lon="8.665573219673576"><ele>1003.0</ele><time>2026-04-06T07:38:57.999Z</time></trkpt><trkpt lat="44.46928853944796" lon="8.665471157442441"><ele>1003.0</ele><time>2026-04-06T07:38:58.999Z</time></trkpt><trkpt lat="44.469325209961404" lon="8.665332506207493"><ele>1003.0</ele><time>2026-04-06T07:38:59.999Z</time></trkpt><trkpt lat="44.46930251221387" lon="8.665178433478578"><ele>1003.0</ele><time>2026-04-06T07:39:00.999Z</time></trkpt><trkpt lat="44.46922933310858" lon="8.665047865201656"><ele>1003.0</ele><time>2026-04-06T07:39:01.999Z</time></trkpt><trkpt lat="44.469129784384194" lon="8.664969639525063"><ele>1004.0</ele><time>2026-04-06T07:39:02.999Z</time></trkpt><trkpt lat="44.46901586615849" lon="8.664954014233693"><ele>1005.0</ele><time>2026-04-06T07:39:03.999Z</time></trkpt><trkpt lat="44.46890584871339" lon="8.665016044536705"><ele>1006.0</ele><time>2026-04-06T07:39:04.999Z</time></trkpt><trkpt lat="44.468805535652336" lon="8.665136427234057"><ele>1007.0</ele><time>2026-04-06T07:39:05.999Z</time></trkpt><trkpt lat="44.46871273715544" lon="8.665243281504582"><ele>1009.5</ele><time>2026-04-06T07:39:06.999Z</time></trkpt><trkpt lat="44.46860872504746" lon="8.665345675956837"><ele>1012.0</ele><time>2026-04-06T07:39:07.999Z</time></trkpt><trkpt lat="44.468502619876766" lon="8.66544527923355"><ele>1014.5</ele><time>2026-04-06T07:39:08.999Z</time></trkpt><trkpt lat="44.46839561024049" lon="8.665543158706994"><ele>1017.0</ele><time>2026-04-06T07:39:09.999Z</time></trkpt><trkpt lat="44.46828544846875" lon="8.665635634309709"><ele>1017.0</ele><time>2026-04-06T07:39:10.999Z</time></trkpt><trkpt lat="44.46817486109722" lon="8.665735975685243"><ele>1017.0</ele><time>2026-04-06T07:39:11.999Z</time></trkpt><trkpt lat="44.46806264275809" lon="8.665838927183378"><ele>1017.0</ele><time>2026-04-06T07:39:12.999Z</time></trkpt><trkpt lat="44.46794714008606" lon="8.665935156958978"><ele>1017.0</ele><time>2026-04-06T07:39:13.999Z</time></trkpt><trkpt lat="44.46782471756249" lon="8.66602758340222"><ele>1018.75</ele><time>2026-04-06T07:39:14.999Z</time></trkpt><trkpt lat="44.467702242429475" lon="8.666109160052109"><ele>1020.5</ele><time>2026-04-06T07:39:15.999Z</time></trkpt><trkpt lat="44.46757946434084" lon="8.666176421451542"><ele>1022.25</ele><time>2026-04-06T07:39:16.999Z</time></trkpt><trkpt lat="44.46745300176606" lon="8.666227376207358"><ele>1024.0</ele><time>2026-04-06T07:39:17.999Z</time></trkpt><trkpt lat="44.46732641511457" lon="8.66627835567236"><ele>1024.0</ele><time>2026-04-06T07:39:18.999Z</time></trkpt><trkpt lat="44.46720253307192" lon="8.666323498333426"><ele>1024.0</ele><time>2026-04-06T07:39:19.999Z</time></trkpt><trkpt lat="44.46707165081588" lon="8.666352916755374"><ele>1024.0</ele><time>2026-04-06T07:39:20.999Z</time></trkpt><trkpt lat="44.466946775739764" lon="8.666381474472429"><ele>1024.0</ele><time>2026-04-06T07:39:21.999Z</time></trkpt><trkpt lat="44.466818071073526" lon="8.666418477346948"><ele>1028.5</ele><time>2026-04-06T07:39:22.999Z</time></trkpt><trkpt lat="44.466692946968394" lon="8.666484517781536"><ele>1033.0</ele><time>2026-04-06T07:39:23.999Z</time></trkpt><trkpt lat="44.466574563267265" lon="8.666560603837269"><ele>1037.5</ele><time>2026-04-06T07:39:24.999Z</time></trkpt><trkpt lat="44.46645461569248" lon="8.666644592403243"><ele>1042.0</ele><time>2026-04-06T07:39:25.999Z</time></trkpt><trkpt lat="44.46634304497443" lon="8.6667454951175"><ele>1040.75</ele><time>2026-04-06T07:39:26.999Z</time></trkpt><trkpt lat="44.466236869414544" lon="8.666846578681268"><ele>1039.5</ele><time>2026-04-06T07:39:27.999Z</time></trkpt><trkpt lat="44.46613624198389" lon="8.666953449517509"><ele>1038.25</ele><time>2026-04-06T07:39:28.999Z</time></trkpt><trkpt lat="44.4660318041776" lon="8.667034449064143"><ele>1037.0</ele><time>2026-04-06T07:39:29.999Z</time></trkpt><trkpt lat="44.4659324336277" lon="8.66708456418185"><ele>1037.0</ele><time>2026-04-06T07:39:30.999Z</time></trkpt><trkpt lat="44.46581295579771" lon="8.66709603947883"><ele>1037.0</ele><time>2026-04-06T07:39:31.998Z</time></trkpt><trkpt lat="44.465683470655634" lon="8.66707718927061"><ele>1037.0</ele><time>2026-04-06T07:39:32.998Z</time></trkpt><trkpt lat="44.46555300673645" lon="8.667021561937284"><ele>1037.0</ele><time>2026-04-06T07:39:33.998Z</time></trkpt><trkpt lat="44.46542349513922" lon="8.666949514486888"><ele>1043.75</ele><time>2026-04-06T07:39:34.998Z</time></trkpt><trkpt lat="44.465299377881486" lon="8.666898337286947"><ele>1050.5</ele><time>2026-04-06T07:39:35.998Z</time></trkpt><trkpt lat="44.465167465315716" lon="8.666863569499617"><ele>1057.25</ele><time>2026-04-06T07:39:36.998Z</time></trkpt><trkpt lat="44.46503435165966" lon="8.666868305882433"><ele>1064.0</ele><time>2026-04-06T07:39:37.998Z</time></trkpt><trkpt lat="44.46490611853152" lon="8.666893594301198"><ele>1064.0</ele><time>2026-04-06T07:39:38.998Z</time></trkpt><trkpt lat="44.46477183499195" lon="8.666938472660322"><ele>1064.0</ele><time>2026-04-06T07:39:39.998Z</time></trkpt><trkpt lat="44.464635869942505" lon="8.666982674932358"><ele>1064.0</ele><time>2026-04-06T07:39:40.998Z</time></trkpt><trkpt lat="44.46451115036041" lon="8.667017937178324"><ele>1064.0</ele><time>2026-04-06T07:39:41.998Z</time></trkpt><trkpt lat="44.46437484826432" lon="8.667062754536017"><ele>1059.75</ele><time>2026-04-06T07:39:42.998Z</time></trkpt><trkpt lat="44.464243494837014" lon="8.667097558190017"><ele>1055.5</ele><time>2026-04-06T07:39:43.998Z</time></trkpt><trkpt lat="44.46410892386356" lon="8.667130866109098"><ele>1051.25</ele><time>2026-04-06T07:39:44.998Z</time></trkpt><trkpt lat="44.46397885539627" lon="8.667172850556984"><ele>1047.0</ele><time>2026-04-06T07:39:45.998Z</time></trkpt><trkpt lat="44.46385072895452" lon="8.667218524014078"><ele>1049.25</ele><time>2026-04-06T07:39:46.998Z</time></trkpt><trkpt lat="44.46372004284315" lon="8.66726030612066"><ele>1051.5</ele><time>2026-04-06T07:39:47.998Z</time></trkpt><trkpt lat="44.463590555268965" lon="8.667306123933926"><ele>1053.75</ele><time>2026-04-06T07:39:48.998Z</time></trkpt><trkpt lat="44.46342415172158" lon="8.667334854754747"><ele>1056.0</ele><time>2026-04-06T07:39:49.998Z</time></trkpt><trkpt lat="44.46332072141219" lon="8.667389845017304"><ele>1056.0</ele><time>2026-04-06T07:39:50.998Z</time></trkpt><trkpt lat="44.46320769309582" lon="8.667443150972618"><ele>1056.0</ele><time>2026-04-06T07:39:51.998Z</time></trkpt><trkpt lat="44.4630755310339" lon="8.667484292790474"><ele>1056.0</ele><time>2026-04-06T07:39:52.998Z</time></trkpt><trkpt lat="44.462944833679465" lon="8.667522944245848"><ele>1056.0</ele><time>2026-04-06T07:39:53.998Z</time></trkpt><trkpt lat="44.462812574272796" lon="8.66755515343743"><ele>1056.5</ele><time>2026-04-06T07:39:55Z</time></trkpt><trkpt lat="44.46268256070103" lon="8.667585519625144"><ele>1057.0</ele><time>2026-04-06T07:39:56Z</time></trkpt><trkpt lat="44.46256436497273" lon="8.66761126774212"><ele>1057.5</ele><time>2026-04-06T07:39:57Z</time></trkpt><trkpt lat="44.46245149593117" lon="8.667629965846173"><ele>1058.0</ele><time>2026-04-06T07:39:58Z</time></trkpt><trkpt lat="44.462342628455026" lon="8.66764987427977"><ele>1058.0</ele><time>2026-04-06T07:39:59Z</time></trkpt><trkpt lat="44.46223843452427" lon="8.667667103774567"><ele>1058.0</ele><time>2026-04-06T07:40:00Z</time></trkpt><trkpt lat="44.46213093518221" lon="8.667692115027018"><ele>1058.0</ele><time>2026-04-06T07:40:01Z</time></trkpt><trkpt lat="44.46203022276272" lon="8.667715661447673"><ele>1058.0</ele><time>2026-04-06T07:40:02Z</time></trkpt><trkpt lat="44.46192871017508" lon="8.66771693405735"><ele>1058.0</ele><time>2026-04-06T07:40:03Z</time></trkpt><trkpt lat="44.46186032665038" lon="8.667696394753465"><ele>1056.6</ele><time>2026-04-06T07:40:04Z</time></trkpt><trkpt lat="44.46176568124402" lon="8.66762835903948"><ele>1055.1999999999998</ele><time>2026-04-06T07:40:05Z</time></trkpt><trkpt lat="44.46169049821929" lon="8.66752202003056"><ele>1053.8</ele><time>2026-04-06T07:40:06Z</time></trkpt><trkpt lat="44.461630484945736" lon="8.667378755687269"><ele>1052.3999999999999</ele><time>2026-04-06T07:40:07Z</time></trkpt><trkpt lat="44.46159509014346" lon="8.667230602385507"><ele>1051.0</ele><time>2026-04-06T07:40:08Z</time></trkpt><trkpt lat="44.461583593160874" lon="8.667070305221252"><ele>1051.0</ele><time>2026-04-06T07:40:09Z</time></trkpt><trkpt lat="44.461599159829916" lon="8.666910149614159"><ele>1051.0</ele><time>2026-04-06T07:40:10Z</time></trkpt><trkpt lat="44.461613917117305" lon="8.666743213283109"><ele>1051.0</ele><time>2026-04-06T07:40:11Z</time></trkpt><trkpt lat="44.46163433475918" lon="8.666534507131395"><ele>1051.0</ele><time>2026-04-06T07:40:12Z</time></trkpt><trkpt lat="44.46162512076479" lon="8.66639558022972"><ele>1051.0</ele><time>2026-04-06T07:40:13Z</time></trkpt><trkpt lat="44.46162906760599" lon="8.666228496800251"><ele>1051.0</ele><time>2026-04-06T07:40:14Z</time></trkpt><trkpt lat="44.4616300234083" lon="8.666053860247018"><ele>1051.0</ele><time>2026-04-06T07:40:15Z</time></trkpt><trkpt lat="44.461634938366565" lon="8.665886208995959"><ele>1051.0</ele><time>2026-04-06T07:40:16Z</time></trkpt><trkpt lat="44.46163721252589" lon="8.66571767423462"><ele>1050.25</ele><time>2026-04-06T07:40:17Z</time></trkpt><trkpt lat="44.46164027042713" lon="8.665542203212121"><ele>1049.5</ele><time>2026-04-06T07:40:18Z</time></trkpt><trkpt lat="44.4616516771722" lon="8.665363968372665"><ele>1048.75</ele><time>2026-04-06T07:40:19Z</time></trkpt><trkpt lat="44.46165645320969" lon="8.665182340460644"><ele>1048.0</ele><time>2026-04-06T07:40:20Z</time></trkpt><trkpt lat="44.461657515919406" lon="8.664997979996551"><ele>1047.5</ele><time>2026-04-06T07:40:21Z</time></trkpt><trkpt lat="44.46166062641232" lon="8.664811796593513"><ele>1047.0</ele><time>2026-04-06T07:40:22Z</time></trkpt><trkpt lat="44.461681175991494" lon="8.664624290877736"><ele>1046.5</ele><time>2026-04-06T07:40:23Z</time></trkpt><trkpt lat="44.46172631434427" lon="8.664445812404335"><ele>1046.0</ele><time>2026-04-06T07:40:24Z</time></trkpt><trkpt lat="44.461786481489376" lon="8.664276168147401"><ele>1044.0</ele><time>2026-04-06T07:40:25Z</time></trkpt><trkpt lat="44.461844593186676" lon="8.664107455862002"><ele>1042.0</ele><time>2026-04-06T07:40:26Z</time></trkpt><trkpt lat="44.46189852614875" lon="8.663940483357369"><ele>1040.0</ele><time>2026-04-06T07:40:27Z</time></trkpt><trkpt lat="44.46194526711051" lon="8.663775641446307"><ele>1038.0</ele><time>2026-04-06T07:40:28Z</time></trkpt><trkpt lat="44.46198231587322" lon="8.663607287589274"><ele>1035.75</ele><time>2026-04-06T07:40:29Z</time></trkpt><trkpt lat="44.462022464432955" lon="8.663436207643787"><ele>1033.5</ele><time>2026-04-06T07:40:30Z</time></trkpt><trkpt lat="44.462073340075435" lon="8.663274423356876"><ele>1031.25</ele><time>2026-04-06T07:40:31Z</time></trkpt><trkpt lat="44.462130668715496" lon="8.663115819480876"><ele>1029.0</ele><time>2026-04-06T07:40:32Z</time></trkpt><trkpt lat="44.46217933203634" lon="8.662954226267317"><ele>1033.75</ele><time>2026-04-06T07:40:33Z</time></trkpt><trkpt lat="44.46221783867476" lon="8.662785193229377"><ele>1038.5</ele><time>2026-04-06T07:40:34Z</time></trkpt><trkpt lat="44.46223955467186" lon="8.662611457393698"><ele>1043.25</ele><time>2026-04-06T07:40:35Z</time></trkpt><trkpt lat="44.46223955141244" lon="8.662432932176372"><ele>1048.0</ele><time>2026-04-06T07:40:36Z</time></trkpt><trkpt lat="44.4622298088893" lon="8.662256042811832"><ele>1048.0</ele><time>2026-04-06T07:40:37Z</time></trkpt><trkpt lat="44.46219883288119" lon="8.662073391967771"><ele>1048.0</ele><time>2026-04-06T07:40:37.999Z</time></trkpt><trkpt lat="44.46215160846487" lon="8.66189340076902"><ele>1048.0</ele><time>2026-04-06T07:40:38.999Z</time></trkpt><trkpt lat="44.462109384495434" lon="8.661715298722543"><ele>1048.0</ele><time>2026-04-06T07:40:39.999Z</time></trkpt><trkpt lat="44.46206449509583" lon="8.661560685409121"><ele>1046.6</ele><time>2026-04-06T07:40:40.999Z</time></trkpt><trkpt lat="44.46203787976059" lon="8.661407264258884"><ele>1045.1999999999998</ele><time>2026-04-06T07:40:41.999Z</time></trkpt><trkpt lat="44.462049036561" lon="8.661266597635791"><ele>1043.8</ele><time>2026-04-06T07:40:42.999Z</time></trkpt><trkpt lat="44.46209928438109" lon="8.661151693727044"><ele>1042.3999999999999</ele><time>2026-04-06T07:40:43.999Z</time></trkpt><trkpt lat="44.46217402855777" lon="8.661081122725353"><ele>1041.0</ele><time>2026-04-06T07:40:44.999Z</time></trkpt><trkpt lat="44.46227308134722" lon="8.661056108995403"><ele>1041.0</ele><time>2026-04-06T07:40:45.999Z</time></trkpt><trkpt lat="44.46238080960152" lon="8.661006770067143"><ele>1041.0</ele><time>2026-04-06T07:40:46.999Z</time></trkpt><trkpt lat="44.462482988903524" lon="8.660915888570445"><ele>1041.0</ele><time>2026-04-06T07:40:47.999Z</time></trkpt><trkpt lat="44.462563150618024" lon="8.66078865188331"><ele>1041.0</ele><time>2026-04-06T07:40:48.999Z</time></trkpt><trkpt lat="44.46261589425825" lon="8.660629685536746"><ele>1041.0</ele><time>2026-04-06T07:40:49.999Z</time></trkpt><trkpt lat="44.46264184419908" lon="8.660462228907985"><ele>1041.0</ele><time>2026-04-06T07:40:50.999Z</time></trkpt><trkpt lat="44.462627729715756" lon="8.660301812361395"><ele>1041.0</ele><time>2026-04-06T07:40:51.999Z</time></trkpt><trkpt lat="44.462588971436304" lon="8.660137806509905"><ele>1041.0</ele><time>2026-04-06T07:40:52.999Z</time></trkpt><trkpt lat="44.46254491399144" lon="8.659955005288891"><ele>1040.25</ele><time>2026-04-06T07:40:53.999Z</time></trkpt><trkpt lat="44.46250905099427" lon="8.659772051985975"><ele>1039.5</ele><time>2026-04-06T07:40:54.999Z</time></trkpt><trkpt lat="44.46247775904566" lon="8.659600866796778"><ele>1038.75</ele><time>2026-04-06T07:40:55.999Z</time></trkpt><trkpt lat="44.46244802787017" lon="8.659426705754333"><ele>1038.0</ele><time>2026-04-06T07:40:56.999Z</time></trkpt><trkpt lat="44.4624317691149" lon="8.659257099790603"><ele>1038.0</ele><time>2026-04-06T07:40:57.999Z</time></trkpt><trkpt lat="44.46242304523352" lon="8.659078358549683"><ele>1038.0</ele><time>2026-04-06T07:40:58.999Z</time></trkpt><trkpt lat="44.46242737917777" lon="8.658894615748103"><ele>1038.0</ele><time>2026-04-06T07:40:59.999Z</time></trkpt><trkpt lat="44.462429726070134" lon="8.658696757627375"><ele>1038.0</ele><time>2026-04-06T07:41:00.999Z</time></trkpt><trkpt lat="44.46243161701821" lon="8.658521248662506"><ele>1036.0</ele><time>2026-04-06T07:41:01.999Z</time></trkpt><trkpt lat="44.46243663866581" lon="8.65835258161514"><ele>1034.0</ele><time>2026-04-06T07:41:02.999Z</time></trkpt><trkpt lat="44.46247438130336" lon="8.658236528761371"><ele>1032.0</ele><time>2026-04-06T07:41:03.999Z</time></trkpt><trkpt lat="44.462538767712616" lon="8.658093148589122"><ele>1030.0</ele><time>2026-04-06T07:41:04.999Z</time></trkpt><trkpt lat="44.4626446852732" lon="8.657990176264477"><ele>1030.0</ele><time>2026-04-06T07:41:05.999Z</time></trkpt><trkpt lat="44.4627549517217" lon="8.657923590896203"><ele>1030.0</ele><time>2026-04-06T07:41:06.999Z</time></trkpt><trkpt lat="44.46287054867568" lon="8.657896220994955"><ele>1030.0</ele><time>2026-04-06T07:41:07.999Z</time></trkpt><trkpt lat="44.46300301268933" lon="8.657891077224091"><ele>1030.0</ele><time>2026-04-06T07:41:08.999Z</time></trkpt><trkpt lat="44.463129066000924" lon="8.657881032213714"><ele>1030.5</ele><time>2026-04-06T07:41:09.999Z</time></trkpt><trkpt lat="44.46324396405372" lon="8.657842440680131"><ele>1031.0</ele><time>2026-04-06T07:41:10.999Z</time></trkpt><trkpt lat="44.46335918203104" lon="8.65776244467337"><ele>1031.5</ele><time>2026-04-06T07:41:11.999Z</time></trkpt><trkpt lat="44.46345265301976" lon="8.657629286999383"><ele>1032.0</ele><time>2026-04-06T07:41:12.999Z</time></trkpt><trkpt lat="44.46353779716542" lon="8.65743464674995"><ele>1032.0</ele><time>2026-04-06T07:41:13.999Z</time></trkpt><trkpt lat="44.46362503537424" lon="8.657217652947727"><ele>1032.0</ele><time>2026-04-06T07:41:14.999Z</time></trkpt><trkpt lat="44.463714031145194" lon="8.657016351487204"><ele>1032.0</ele><time>2026-04-06T07:41:15.999Z</time></trkpt><trkpt lat="44.46380652753359" lon="8.656830459337693"><ele>1031.75</ele><time>2026-04-06T07:41:16.999Z</time></trkpt><trkpt lat="44.46388859564344" lon="8.656669195625957"><ele>1031.5</ele><time>2026-04-06T07:41:17.999Z</time></trkpt><trkpt lat="44.46396512931277" lon="8.65649443446382"><ele>1031.25</ele><time>2026-04-06T07:41:18.999Z</time></trkpt><trkpt lat="44.46401016282752" lon="8.656301973168622"><ele>1031.0</ele><time>2026-04-06T07:41:19.999Z</time></trkpt><trkpt lat="44.46402226091397" lon="8.656098360425057"><ele>1030.0</ele><time>2026-04-06T07:41:20.999Z</time></trkpt><trkpt lat="44.464023216544064" lon="8.655892834490063"><ele>1029.0</ele><time>2026-04-06T07:41:21.999Z</time></trkpt><trkpt lat="44.464030003513024" lon="8.655680314594514"><ele>1028.0</ele><time>2026-04-06T07:41:22.999Z</time></trkpt><trkpt lat="44.464044034332716" lon="8.65548148097954"><ele>1027.0</ele><time>2026-04-06T07:41:23.999Z</time></trkpt><trkpt lat="44.46403986410771" lon="8.655288122413397"><ele>1028.0</ele><time>2026-04-06T07:41:24.999Z</time></trkpt><trkpt lat="44.46401992197231" lon="8.655111484347524"><ele>1029.0</ele><time>2026-04-06T07:41:25.999Z</time></trkpt><trkpt lat="44.46397880641141" lon="8.654939803639248"><ele>1030.0</ele><time>2026-04-06T07:41:26.999Z</time></trkpt><trkpt lat="44.463901215178" lon="8.654795075263452"><ele>1031.0</ele><time>2026-04-06T07:41:27.999Z</time></trkpt><trkpt lat="44.46378742145173" lon="8.654696362527764"><ele>1026.5</ele><time>2026-04-06T07:41:28.999Z</time></trkpt><trkpt lat="44.46365736436617" lon="8.654644441537316"><ele>1022.0</ele><time>2026-04-06T07:41:29.999Z</time></trkpt><trkpt lat="44.46352070607581" lon="8.65459918335193"><ele>1017.5</ele><time>2026-04-06T07:41:30.999Z</time></trkpt><trkpt lat="44.463380762586624" lon="8.654556017079832"><ele>1013.0</ele><time>2026-04-06T07:41:31.999Z</time></trkpt><trkpt lat="44.46323675041896" lon="8.654510704200865"><ele>1013.0</ele><time>2026-04-06T07:41:32.999Z</time></trkpt><trkpt lat="44.46309880873959" lon="8.654472052141488"><ele>1013.0</ele><time>2026-04-06T07:41:33.999Z</time></trkpt><trkpt lat="44.46296730703817" lon="8.654438680719725"><ele>1013.0</ele><time>2026-04-06T07:41:34.999Z</time></trkpt><trkpt lat="44.46283899969205" lon="8.65439316653186"><ele>1013.0</ele><time>2026-04-06T07:41:35.999Z</time></trkpt><trkpt lat="44.4627129253086" lon="8.654329300050728"><ele>1013.25</ele><time>2026-04-06T07:41:36.999Z</time></trkpt><trkpt lat="44.46259178597341" lon="8.654233747474327"><ele>1013.5</ele><time>2026-04-06T07:41:37.999Z</time></trkpt><trkpt lat="44.46247951350818" lon="8.654129891532255"><ele>1013.75</ele><time>2026-04-06T07:41:38.999Z</time></trkpt><trkpt lat="44.462379079015555" lon="8.653984459878114"><ele>1014.0</ele><time>2026-04-06T07:41:39.999Z</time></trkpt><trkpt lat="44.462290661723685" lon="8.653825177475689"><ele>1014.0</ele><time>2026-04-06T07:41:40.999Z</time></trkpt><trkpt lat="44.462230759303516" lon="8.653664520752658"><ele>1014.0</ele><time>2026-04-06T07:41:41.999Z</time></trkpt><trkpt lat="44.462195747898605" lon="8.653491053687"><ele>1014.0</ele><time>2026-04-06T07:41:42.999Z</time></trkpt><trkpt lat="44.46218335719363" lon="8.653293151773248"><ele>1014.0</ele><time>2026-04-06T07:41:43.999Z</time></trkpt><trkpt lat="44.46217622509792" lon="8.653094737650248"><ele>1016.5</ele><time>2026-04-06T07:41:44.999Z</time></trkpt><trkpt lat="44.46214015099422" lon="8.652898882372346"><ele>1019.0</ele><time>2026-04-06T07:41:45.999Z</time></trkpt><trkpt lat="44.46207479804022" lon="8.652704215142887"><ele>1021.5</ele><time>2026-04-06T07:41:46.999Z</time></trkpt><trkpt lat="44.46200077063844" lon="8.65254204455187"><ele>1024.0</ele><time>2026-04-06T07:41:47.999Z</time></trkpt><trkpt lat="44.46192447635291" lon="8.652386027703496"><ele>1019.25</ele><time>2026-04-06T07:41:48.999Z</time></trkpt><trkpt lat="44.461851095518675" lon="8.652230294665088"><ele>1014.5</ele><time>2026-04-06T07:41:49.998Z</time></trkpt><trkpt lat="44.46179412999428" lon="8.652058690691838"><ele>1009.75</ele><time>2026-04-06T07:41:50.998Z</time></trkpt><trkpt lat="44.46177086907667" lon="8.651860976838492"><ele>1005.0</ele><time>2026-04-06T07:41:51.998Z</time></trkpt><trkpt lat="44.461771844277266" lon="8.651666296142269"><ele>1005.0</ele><time>2026-04-06T07:41:52.998Z</time></trkpt><trkpt lat="44.461757317079176" lon="8.65146826699937"><ele>1005.0</ele><time>2026-04-06T07:41:53.998Z</time></trkpt><trkpt lat="44.46172624241759" lon="8.651270679434603"><ele>1005.0</ele><time>2026-04-06T07:41:54.998Z</time></trkpt><trkpt lat="44.461682761041885" lon="8.651073183006812"><ele>1005.0</ele><time>2026-04-06T07:41:55.998Z</time></trkpt><trkpt lat="44.461638081391946" lon="8.650871622069694"><ele>1003.6666666666667</ele><time>2026-04-06T07:41:56.998Z</time></trkpt><trkpt lat="44.46158373146767" lon="8.650675242961423"><ele>1002.3333333333334</ele><time>2026-04-06T07:41:57.998Z</time></trkpt><trkpt lat="44.46151487321006" lon="8.650487967833392"><ele>1001.0</ele><time>2026-04-06T07:41:58.998Z</time></trkpt><trkpt lat="44.461422058734804" lon="8.650315758749882"><ele>1013.0</ele><time>2026-04-06T07:42:00Z</time></trkpt><trkpt lat="44.46365736436617" lon="8.654644441537316"><ele>1013.0</ele><time>2026-04-06T07:41:29.999Z</time></trkpt><trkpt lat="44.46352070607581" lon="8.65459918335193"><ele>1013.0</ele><time>2026-04-06T07:41:30.999Z</time></trkpt><trkpt lat="44.463380762586624" lon="8.654556017079832"><ele>1013.0</ele><time>2026-04-06T07:41:31.999Z</time></trkpt><trkpt lat="44.46323675041896" lon="8.654510704200865"><ele>1013.0</ele><time>2026-04-06T07:41:32.999Z</time></trkpt><trkpt lat="44.46309880873959" lon="8.654472052141488"><ele>1013.25</ele><time>2026-04-06T07:41:33.999Z</time></trkpt><trkpt lat="44.46296730703817" lon="8.654438680719725"><ele>1013.5</ele><time>2026-04-06T07:41:34.999Z</time></trkpt><trkpt lat="44.46283899969205" lon="8.65439316653186"><ele>1013.75</ele><time>2026-04-06T07:41:35.999Z</time></trkpt><trkpt lat="44.4627129253086" lon="8.654329300050728"><ele>1014.0</ele><time>2026-04-06T07:41:36.999Z</time></trkpt><trkpt lat="44.46259178597341" lon="8.654233747474327"><ele>1014.0</ele><time>2026-04-06T07:41:37.999Z</time></trkpt><trkpt lat="44.46247951350818" lon="8.654129891532255"><ele>1014.0</ele><time>2026-04-06T07:41:38.999Z</time></trkpt><trkpt lat="44.462379079015555" lon="8.653984459878114"><ele>1014.0</ele><time>2026-04-06T07:41:39.999Z</time></trkpt><trkpt lat="44.462290661723685" lon="8.653825177475689"><ele>1014.0</ele><time>2026-04-06T07:41:40.999Z</time></trkpt><trkpt lat="44.462230759303516" lon="8.653664520752658"><ele>1016.5</ele><time>2026-04-06T07:41:41.999Z</time></trkpt><trkpt lat="44.462195747898605" lon="8.653491053687"><ele>1019.0</ele><time>2026-04-06T07:41:42.999Z</time></trkpt><trkpt lat="44.46218335719363" lon="8.653293151773248"><ele>1021.5</ele><time>2026-04-06T07:41:43.999Z</time></trkpt><trkpt lat="44.46217622509792" lon="8.653094737650248"><ele>1024.0</ele><time>2026-04-06T07:41:44.999Z</time></trkpt><trkpt lat="44.46214015099422" lon="8.652898882372346"><ele>1018.5</ele><time>2026-04-06T07:41:45.999Z</time></trkpt><trkpt lat="44.46207479804022" lon="8.652704215142887"><ele>1013.0</ele><time>2026-04-06T07:41:46.999Z</time></trkpt><trkpt lat="44.46200077063844" lon="8.65254204455187"><ele>1007.5</ele><time>2026-04-06T07:41:47.999Z</time></trkpt><trkpt lat="44.46192447635291" lon="8.652386027703496"><ele>1002.0</ele><time>2026-04-06T07:41:48.999Z</time></trkpt><trkpt lat="44.461851095518675" lon="8.652230294665088"><ele>1002.0</ele><time>2026-04-06T07:41:49.998Z</time></trkpt><trkpt lat="44.46179412999428" lon="8.652058690691838"><ele>1002.0</ele><time>2026-04-06T07:41:50.998Z</time></trkpt><trkpt lat="44.46177086907667" lon="8.651860976838492"><ele>1002.0</ele><time>2026-04-06T07:41:51.998Z</time></trkpt><trkpt lat="44.461771844277266" lon="8.651666296142269"><ele>1002.0</ele><time>2026-04-06T07:41:52.998Z</time></trkpt><trkpt lat="44.461757317079176" lon="8.65146826699937"><ele>1001.75</ele><time>2026-04-06T07:41:53.998Z</time></trkpt><trkpt lat="44.46172624241759" lon="8.651270679434603"><ele>1001.5</ele><time>2026-04-06T07:41:54.998Z</time></trkpt><trkpt lat="44.461682761041885" lon="8.651073183006812"><ele>1001.25</ele><time>2026-04-06T07:41:55.998Z</time></trkpt><trkpt lat="44.461638081391946" lon="8.650871622069694"><ele>1001.0</ele><time>2026-04-06T07:41:56.998Z</time></trkpt><trkpt lat="44.46158373146767" lon="8.650675242961423"><ele>1001.0</ele><time>2026-04-06T07:41:57.998Z</time></trkpt><trkpt lat="44.46151487321006" lon="8.650487967833392"><ele>1001.0</ele><time>2026-04-06T07:41:58.998Z</time></trkpt><trkpt lat="44.461422058734804" lon="8.650315758749882"><ele>1001.0</ele><time>2026-04-06T07:42:00Z</time></trkpt><trkpt lat="44.46131227152026" lon="8.650158164313554"><ele>995.6666666666667</ele><time>2026-04-06T07:42:01Z</time></trkpt><trkpt lat="44.461201542607654" lon="8.650004643034038"><ele>990.3333333333333</ele><time>2026-04-06T07:42:02Z</time></trkpt><trkpt lat="44.461092943159144" lon="8.649858567857326"><ele>985.0</ele><time>2026-04-06T07:42:03Z</time></trkpt><trkpt lat="44.460986447088324" lon="8.649708391913851"><ele>985.0</ele><time>2026-04-06T07:42:04Z</time></trkpt><trkpt lat="44.46088380869389" lon="8.649565153019857"><ele>985.0</ele><time>2026-04-06T07:42:05Z</time></trkpt><trkpt lat="44.46078084218777" lon="8.649421419593095"><ele>985.0</ele><time>2026-04-06T07:42:06Z</time></trkpt><trkpt lat="44.46068109078458" lon="8.649276421971434"><ele>985.0</ele><time>2026-04-06T07:42:07Z</time></trkpt><trkpt lat="44.46058485764557" lon="8.649120703405329"><ele>984.6666666666666</ele><time>2026-04-06T07:42:08Z</time></trkpt><trkpt lat="44.46049669445443" lon="8.648951630374512"><ele>984.3333333333333</ele><time>2026-04-06T07:42:09Z</time></trkpt><trkpt lat="44.46041854115352" lon="8.648768586116146"><ele>984.0</ele><time>2026-04-06T07:42:10Z</time></trkpt><trkpt lat="44.4603477793636" lon="8.648576204458458"><ele>984.0</ele><time>2026-04-06T07:42:11Z</time></trkpt><trkpt lat="44.46028369191032" lon="8.64838076112975"><ele>984.0</ele><time>2026-04-06T07:42:12Z</time></trkpt><trkpt lat="44.460227638239935" lon="8.648188413152395"><ele>984.0</ele><time>2026-04-06T07:42:13Z</time></trkpt><trkpt lat="44.46018704236774" lon="8.647991794643152"><ele>984.0</ele><time>2026-04-06T07:42:14Z</time></trkpt><trkpt lat="44.46016204344663" lon="8.647783351626643"><ele>986.3333333333333</ele><time>2026-04-06T07:42:15Z</time></trkpt><trkpt lat="44.460142662924255" lon="8.647567445601881"><ele>988.6666666666666</ele><time>2026-04-06T07:42:16Z</time></trkpt><trkpt lat="44.460107623077995" lon="8.647353330855438"><ele>991.0</ele><time>2026-04-06T07:42:17Z</time></trkpt><trkpt lat="44.460048175603" lon="8.647146438391966"><ele>992.25</ele><time>2026-04-06T07:42:18Z</time></trkpt><trkpt lat="44.45998568020452" lon="8.64694982936276"><ele>993.5</ele><time>2026-04-06T07:42:19Z</time></trkpt><trkpt lat="44.4599310566405" lon="8.646757310761313"><ele>994.75</ele><time>2026-04-06T07:42:20Z</time></trkpt><trkpt lat="44.45989260330153" lon="8.646562671579737"><ele>996.0</ele><time>2026-04-06T07:42:21Z</time></trkpt><trkpt lat="44.45985034544883" lon="8.646369382051773"><ele>996.0</ele><time>2026-04-06T07:42:22Z</time></trkpt><trkpt lat="44.45979679023164" lon="8.646187564880853"><ele>996.0</ele><time>2026-04-06T07:42:23Z</time></trkpt><trkpt lat="44.45973693746123" lon="8.646015904589317"><ele>996.0</ele><time>2026-04-06T07:42:24Z</time></trkpt><trkpt lat="44.45966725587682" lon="8.645838848287125"><ele>996.0</ele><time>2026-04-06T07:42:25Z</time></trkpt><trkpt lat="44.45957983202909" lon="8.645671962666068"><ele>993.0</ele><time>2026-04-06T07:42:26Z</time></trkpt><trkpt lat="44.45948612090642" lon="8.645517850325918"><ele>990.0</ele><time>2026-04-06T07:42:27Z</time></trkpt><trkpt lat="44.459391961750256" lon="8.64536784357432"><ele>987.0</ele><time>2026-04-06T07:42:28Z</time></trkpt><trkpt lat="44.45929796178445" lon="8.645219184385537"><ele>984.0</ele><time>2026-04-06T07:42:29Z</time></trkpt><trkpt lat="44.4592135165924" lon="8.64506879579551"><ele>984.0</ele><time>2026-04-06T07:42:30Z</time></trkpt><trkpt lat="44.459138236158786" lon="8.644920873758343"><ele>984.0</ele><time>2026-04-06T07:42:31Z</time></trkpt><trkpt lat="44.45906821487449" lon="8.644772754232635"><ele>984.0</ele><time>2026-04-06T07:42:32Z</time></trkpt><trkpt lat="44.45900107399728" lon="8.644611135955799"><ele>984.0</ele><time>2026-04-06T07:42:33Z</time></trkpt><trkpt lat="44.45894360700252" lon="8.644441926690142"><ele>987.75</ele><time>2026-04-06T07:42:34Z</time></trkpt><trkpt lat="44.458893188811054" lon="8.644267337258903"><ele>991.5</ele><time>2026-04-06T07:42:35Z</time></trkpt><trkpt lat="44.45883870808034" lon="8.644102166492422"><ele>995.25</ele><time>2026-04-06T07:42:36Z</time></trkpt><trkpt lat="44.45877511803709" lon="8.643952886043433"><ele>999.0</ele><time>2026-04-06T07:42:37Z</time></trkpt><trkpt lat="44.45871056408812" lon="8.643814797571844"><ele>994.0</ele><time>2026-04-06T07:42:38Z</time></trkpt><trkpt lat="44.45865012168078" lon="8.643678560010915"><ele>989.0000000000001</ele><time>2026-04-06T07:42:39Z</time></trkpt><trkpt lat="44.45859193819896" lon="8.643539814823145"><ele>984.0000000000001</ele><time>2026-04-06T07:42:40Z</time></trkpt><trkpt lat="44.45854514933683" lon="8.643410403457654"><ele>979.0</ele><time>2026-04-06T07:42:41Z</time></trkpt><trkpt lat="44.45851707554873" lon="8.64327670053053"><ele>974.0</ele><time>2026-04-06T07:42:42Z</time></trkpt><trkpt lat="44.458506815814516" lon="8.643140821486968"><ele>974.0</ele><time>2026-04-06T07:42:43Z</time></trkpt><trkpt lat="44.45850571972759" lon="8.643007862975294"><ele>974.0000000000001</ele><time>2026-04-06T07:42:44Z</time></trkpt><trkpt lat="44.45849906521549" lon="8.642884539121372"><ele>974.0000000000001</ele><time>2026-04-06T07:42:45Z</time></trkpt><trkpt lat="44.458480295134514" lon="8.64275214738893"><ele>974.0</ele><time>2026-04-06T07:42:46Z</time></trkpt><trkpt lat="44.45845803609259" lon="8.642604630221893"><ele>974.0</ele><time>2026-04-06T07:42:47Z</time></trkpt><trkpt lat="44.458436314044846" lon="8.642450557329914"><ele>975.5</ele><time>2026-04-06T07:42:48Z</time></trkpt><trkpt lat="44.45840294749953" lon="8.64228428889308"><ele>977.0</ele><time>2026-04-06T07:42:49Z</time></trkpt><trkpt lat="44.458350937417585" lon="8.642120553756925"><ele>978.5</ele><time>2026-04-06T07:42:50Z</time></trkpt><trkpt lat="44.45828365399662" lon="8.641959109104404"><ele>980.0</ele><time>2026-04-06T07:42:50.999Z</time></trkpt><trkpt lat="44.45820988318498" lon="8.641782498271818"><ele>982.3333333333334</ele><time>2026-04-06T07:42:51.999Z</time></trkpt><trkpt lat="44.45813682406351" lon="8.641595120943759"><ele>984.6666666666667</ele><time>2026-04-06T07:42:52.999Z</time></trkpt><trkpt lat="44.4580634073789" lon="8.641404222002377"><ele>987.0</ele><time>2026-04-06T07:42:53.999Z</time></trkpt><trkpt lat="44.457997722226544" lon="8.641215886465018"><ele>981.75</ele><time>2026-04-06T07:42:54.999Z</time></trkpt><trkpt lat="44.45794286070003" lon="8.64102246568479"><ele>976.5</ele><time>2026-04-06T07:42:55.999Z</time></trkpt><trkpt lat="44.457904327978405" lon="8.640827890258377"><ele>971.25</ele><time>2026-04-06T07:42:56.999Z</time></trkpt><trkpt lat="44.457867936461874" lon="8.640643475813942"><ele>966.0</ele><time>2026-04-06T07:42:57.999Z</time></trkpt><trkpt lat="44.457805404376316" lon="8.64046542276897"><ele>966.0</ele><time>2026-04-06T07:42:58.999Z</time></trkpt><trkpt lat="44.45771118578471" lon="8.640307564583493"><ele>966.0</ele><time>2026-04-06T07:42:59.999Z</time></trkpt><trkpt lat="44.45760248329875" lon="8.640173208837645"><ele>966.0</ele><time>2026-04-06T07:43:00.999Z</time></trkpt><trkpt lat="44.4575048693977" lon="8.640043030528995"><ele>966.0</ele><time>2026-04-06T07:43:01.999Z</time></trkpt><trkpt lat="44.457432514811224" lon="8.639902929482576"><ele>967.5</ele><time>2026-04-06T07:43:02.999Z</time></trkpt><trkpt lat="44.4573894400718" lon="8.639735192447148"><ele>969.0</ele><time>2026-04-06T07:43:03.999Z</time></trkpt><trkpt lat="44.457372504388196" lon="8.639547195284129"><ele>970.5</ele><time>2026-04-06T07:43:04.999Z</time></trkpt><trkpt lat="44.457355323533925" lon="8.639348345183292"><ele>972.0</ele><time>2026-04-06T07:43:05.999Z</time></trkpt><trkpt lat="44.45732475728089" lon="8.63914940294337"><ele>973.5</ele><time>2026-04-06T07:43:06.999Z</time></trkpt><trkpt lat="44.457281033139935" lon="8.638970438232551"><ele>975.0</ele><time>2026-04-06T07:43:07.999Z</time></trkpt><trkpt lat="44.45722459888371" lon="8.638796454542863"><ele>976.5</ele><time>2026-04-06T07:43:08.999Z</time></trkpt><trkpt lat="44.45715159676223" lon="8.638650827665918"><ele>978.0</ele><time>2026-04-06T07:43:09.999Z</time></trkpt><trkpt lat="44.45707362854084" lon="8.638520922488368"><ele>974.5999999999999</ele><time>2026-04-06T07:43:10.999Z</time></trkpt><trkpt lat="44.45700129669758" lon="8.638400033450043"><ele>971.1999999999999</ele><time>2026-04-06T07:43:11.999Z</time></trkpt><trkpt lat="44.45692977860991" lon="8.638278345078419"><ele>967.8</ele><time>2026-04-06T07:43:12.999Z</time></trkpt><trkpt lat="44.456858747418295" lon="8.638161255898273"><ele>964.4</ele><time>2026-04-06T07:43:13.999Z</time></trkpt><trkpt lat="44.45679024068833" lon="8.638036268094197"><ele>961.0</ele><time>2026-04-06T07:43:14.999Z</time></trkpt><trkpt lat="44.45671826253481" lon="8.63791267779743"><ele>962.4</ele><time>2026-04-06T07:43:15.999Z</time></trkpt><trkpt lat="44.45664377907024" lon="8.637796272354668"><ele>963.8</ele><time>2026-04-06T07:43:16.999Z</time></trkpt><trkpt lat="44.45656769956605" lon="8.637682517478677"><ele>965.1999999999999</ele><time>2026-04-06T07:43:17.999Z</time></trkpt><trkpt lat="44.45651018902939" lon="8.637550150573142"><ele>966.5999999999999</ele><time>2026-04-06T07:43:18.999Z</time></trkpt><trkpt lat="44.456487817719605" lon="8.637394785853628"><ele>968.0</ele><time>2026-04-06T07:43:19.999Z</time></trkpt><trkpt lat="44.456475294642665" lon="8.63721540045483"><ele>968.0</ele><time>2026-04-06T07:43:20.999Z</time></trkpt><trkpt lat="44.45647545764579" lon="8.637032464360116"><ele>968.0</ele><time>2026-04-06T07:43:21.999Z</time></trkpt><trkpt lat="44.45645137605043" lon="8.636858848428739"><ele>968.0</ele><time>2026-04-06T07:43:22.999Z</time></trkpt><trkpt lat="44.456382639512896" lon="8.636697753222428"><ele>968.0</ele><time>2026-04-06T07:43:23.999Z</time></trkpt><trkpt lat="44.45629401311099" lon="8.636555398707284"><ele>966.0</ele><time>2026-04-06T07:43:24.999Z</time></trkpt><trkpt lat="44.456202364335546" lon="8.636424427898946"><ele>964.0</ele><time>2026-04-06T07:43:25.999Z</time></trkpt><trkpt lat="44.45611029286065" lon="8.63630390525743"><ele>962.0</ele><time>2026-04-06T07:43:26.999Z</time></trkpt><trkpt lat="44.45602059869652" lon="8.63619311335472"><ele>960.0</ele><time>2026-04-06T07:43:27.999Z</time></trkpt><trkpt lat="44.45593367235713" lon="8.636092620208682"><ele>960.0</ele><time>2026-04-06T07:43:28.999Z</time></trkpt><trkpt lat="44.45585241994913" lon="8.635996930631705"><ele>960.0</ele><time>2026-04-06T07:43:29.999Z</time></trkpt><trkpt lat="44.45577737444321" lon="8.635900810920512"><ele>960.0</ele><time>2026-04-06T07:43:30.999Z</time></trkpt><trkpt lat="44.4557092872938" lon="8.635811600353318"><ele>960.0</ele><time>2026-04-06T07:43:31.999Z</time></trkpt><trkpt lat="44.45566008545581" lon="8.635704815584505"><ele>960.0</ele><time>2026-04-06T07:43:32.999Z</time></trkpt><trkpt lat="44.45563314838075" lon="8.635576725682244"><ele>960.0</ele><time>2026-04-06T07:43:33.999Z</time></trkpt><trkpt lat="44.45562336985696" lon="8.635428876412046"><ele>960.0</ele><time>2026-04-06T07:43:34.999Z</time></trkpt><trkpt lat="44.45562894073946" lon="8.635275461963559"><ele>960.0</ele><time>2026-04-06T07:43:35.999Z</time></trkpt><trkpt lat="44.455659311445615" lon="8.63513252099974"><ele>960.0</ele><time>2026-04-06T07:43:36.999Z</time></trkpt><trkpt lat="44.455710241401945" lon="8.635007264227392"><ele>960.0</ele><time>2026-04-06T07:43:37.999Z</time></trkpt><trkpt lat="44.45578205503889" lon="8.634916440954035"><ele>959.2</ele><time>2026-04-06T07:43:38.999Z</time></trkpt><trkpt lat="44.45585846336656" lon="8.634857580926099"><ele>958.4</ele><time>2026-04-06T07:43:39.999Z</time></trkpt><trkpt lat="44.45596466509085" lon="8.634814108658507"><ele>957.5999999999999</ele><time>2026-04-06T07:43:40.999Z</time></trkpt><trkpt lat="44.4560905524454" lon="8.634791259320025"><ele>956.8</ele><time>2026-04-06T07:43:41.999Z</time></trkpt><trkpt lat="44.45620494117979" lon="8.634756555533325"><ele>956.0</ele><time>2026-04-06T07:43:42.999Z</time></trkpt><trkpt lat="44.45631372654885" lon="8.634718494567734"><ele>955.5</ele><time>2026-04-06T07:43:43.999Z</time></trkpt><trkpt lat="44.45642657627836" lon="8.634681207803308"><ele>955.0</ele><time>2026-04-06T07:43:44.999Z</time></trkpt><trkpt lat="44.456536311592046" lon="8.634650211040018"><ele>954.5</ele><time>2026-04-06T07:43:45.999Z</time></trkpt><trkpt lat="44.456658752589526" lon="8.634618773374912"><ele>954.0</ele><time>2026-04-06T07:43:46.999Z</time></trkpt><trkpt lat="44.456793140897446" lon="8.634581266500346"><ele>954.0</ele><time>2026-04-06T07:43:47.999Z</time></trkpt><trkpt lat="44.45691909095557" lon="8.634548364008289"><ele>954.0</ele><time>2026-04-06T07:43:48.999Z</time></trkpt><trkpt lat="44.45703613469734" lon="8.634511288144688"><ele>954.0</ele><time>2026-04-06T07:43:49.999Z</time></trkpt><trkpt lat="44.45715392844685" lon="8.634479396613084"><ele>954.0</ele><time>2026-04-06T07:43:50.999Z</time></trkpt><trkpt lat="44.457267169729356" lon="8.63445619444075"><ele>948.25</ele><time>2026-04-06T07:43:51.999Z</time></trkpt><trkpt lat="44.457390250814385" lon="8.63446080921595"><ele>942.5</ele><time>2026-04-06T07:43:52.999Z</time></trkpt><trkpt lat="44.45752414140222" lon="8.634464481953193"><ele>936.75</ele><time>2026-04-06T07:43:53.999Z</time></trkpt><trkpt lat="44.45766185982772" lon="8.63446269873698"><ele>931.0</ele><time>2026-04-06T07:43:54.999Z</time></trkpt><trkpt lat="44.45780295066711" lon="8.634471256984375"><ele>936.6666666666666</ele><time>2026-04-06T07:43:55.999Z</time></trkpt><trkpt lat="44.45795320824744" lon="8.634486397036978"><ele>942.3333333333333</ele><time>2026-04-06T07:43:56.999Z</time></trkpt><trkpt lat="44.458106896795414" lon="8.63450443993703"><ele>948.0</ele><time>2026-04-06T07:43:57.999Z</time></trkpt><trkpt lat="44.4582651178029" lon="8.634510785505558"><ele>948.0</ele><time>2026-04-06T07:43:58.998Z</time></trkpt><trkpt lat="44.45842769706741" lon="8.634514682355157"><ele>948.0</ele><time>2026-04-06T07:43:59.998Z</time></trkpt><trkpt lat="44.458590049601774" lon="8.634526745784811"><ele>948.0</ele><time>2026-04-06T07:44:00.998Z</time></trkpt><trkpt lat="44.45873833854422" lon="8.634529478866192"><ele>946.0</ele><time>2026-04-06T07:44:01.998Z</time></trkpt><trkpt lat="44.458886328065255" lon="8.634531689015759"><ele>944.0</ele><time>2026-04-06T07:44:02.998Z</time></trkpt><trkpt lat="44.459028349644264" lon="8.63453937258372"><ele>942.0</ele><time>2026-04-06T07:44:03.998Z</time></trkpt><trkpt lat="44.45917115677231" lon="8.634549317695477"><ele>940.0</ele><time>2026-04-06T07:44:04.998Z</time></trkpt><trkpt lat="44.459305247856115" lon="8.634554293478551"><ele>940.0</ele><time>2026-04-06T07:44:06Z</time></trkpt><trkpt lat="44.459431128922944" lon="8.63455293098343"><ele>940.0</ele><time>2026-04-06T07:44:07Z</time></trkpt><trkpt lat="44.45955251782724" lon="8.634554571040853"><ele>940.0</ele><time>2026-04-06T07:44:08Z</time></trkpt><trkpt lat="44.459664087852" lon="8.634559427573919"><ele>940.0</ele><time>2026-04-06T07:44:09Z</time></trkpt><trkpt lat="44.45977418717158" lon="8.634560398526554"><ele>936.0</ele><time>2026-04-06T07:44:10Z</time></trkpt><trkpt lat="44.45987677234755" lon="8.63456718738344"><ele>932.0</ele><time>2026-04-06T07:44:11Z</time></trkpt><trkpt lat="44.459976129224096" lon="8.634602523249205"><ele>928.0</ele><time>2026-04-06T07:44:12Z</time></trkpt><trkpt lat="44.46005856598443" lon="8.634686159611038"><ele>924.0</ele><time>2026-04-06T07:44:13Z</time></trkpt><trkpt lat="44.46012072877653" lon="8.634829787157319"><ele>920.0</ele><time>2026-04-06T07:44:14Z</time></trkpt><trkpt lat="44.46016103532471" lon="8.634988679732222"><ele>920.0</ele><time>2026-04-06T07:44:15Z</time></trkpt><trkpt lat="44.46019832461152" lon="8.63515598373189"><ele>920.0</ele><time>2026-04-06T07:44:16Z</time></trkpt><trkpt lat="44.46024247746212" lon="8.635310204708954"><ele>920.0</ele><time>2026-04-06T07:44:17Z</time></trkpt><trkpt lat="44.460290237441306" lon="8.635458017111015"><ele>920.0</ele><time>2026-04-06T07:44:18Z</time></trkpt><trkpt lat="44.46033397410879" lon="8.635595822514096"><ele>918.4</ele><time>2026-04-06T07:44:19Z</time></trkpt><trkpt lat="44.46037153877427" lon="8.635732539193473"><ele>916.8</ele><time>2026-04-06T07:44:20Z</time></trkpt><trkpt lat="44.4604047514837" lon="8.635862482890357"><ele>915.2</ele><time>2026-04-06T07:44:21Z</time></trkpt><trkpt lat="44.46045580229663" lon="8.635965197980925"><ele>913.6</ele><time>2026-04-06T07:44:22Z</time></trkpt><trkpt lat="44.460539544316205" lon="8.636043203015761"><ele>912.0</ele><time>2026-04-06T07:44:23Z</time></trkpt><trkpt lat="44.46064798351889" lon="8.636064405573281"><ele>912.0</ele><time>2026-04-06T07:44:24Z</time></trkpt><trkpt lat="44.46077094183136" lon="8.636034775018912"><ele>912.0</ele><time>2026-04-06T07:44:25Z</time></trkpt><trkpt lat="44.460895328215265" lon="8.635983468864948"><ele>912.0</ele><time>2026-04-06T07:44:26Z</time></trkpt><trkpt lat="44.461029963156264" lon="8.635959086515063"><ele>912.0</ele><time>2026-04-06T07:44:27Z</time></trkpt><trkpt lat="44.46117385625053" lon="8.635926625283284"><ele>912.0</ele><time>2026-04-06T07:44:28Z</time></trkpt><trkpt lat="44.46130953585403" lon="8.635893734806553"><ele>912.0</ele><time>2026-04-06T07:44:29Z</time></trkpt><trkpt lat="44.46143988234904" lon="8.635863409400624"><ele>912.0</ele><time>2026-04-06T07:44:30Z</time></trkpt><trkpt lat="44.46155918632717" lon="8.635824369982638"><ele>912.0</ele><time>2026-04-06T07:44:31Z</time></trkpt><trkpt lat="44.461655901294094" lon="8.635754361369056"><ele>912.0</ele><time>2026-04-06T07:44:32Z</time></trkpt><trkpt lat="44.46173264511014" lon="8.635627505098542"><ele>912.0</ele><time>2026-04-06T07:44:33Z</time></trkpt><trkpt lat="44.461794760117336" lon="8.635480027648612"><ele>912.0</ele><time>2026-04-06T07:44:34Z</time></trkpt><trkpt lat="44.46185959827895" lon="8.635334311530388"><ele>912.0</ele><time>2026-04-06T07:44:35Z</time></trkpt><trkpt lat="44.461939189066115" lon="8.635214890620569"><ele>909.75</ele><time>2026-04-06T07:44:36Z</time></trkpt><trkpt lat="44.462032520575654" lon="8.635112351315833"><ele>907.5</ele><time>2026-04-06T07:44:37Z</time></trkpt><trkpt lat="44.46214686596836" lon="8.635036955116112"><ele>905.25</ele><time>2026-04-06T07:44:38Z</time></trkpt><trkpt lat="44.46226958431787" lon="8.634973981595548"><ele>903.0</ele><time>2026-04-06T07:44:39Z</time></trkpt><trkpt lat="44.46240371286167" lon="8.634920250506484"><ele>903.0</ele><time>2026-04-06T07:44:40Z</time></trkpt><trkpt lat="44.46254621485465" lon="8.634881048690662"><ele>903.0</ele><time>2026-04-06T07:44:41Z</time></trkpt><trkpt lat="44.46269456714256" lon="8.63485212448337"><ele>903.0</ele><time>2026-04-06T07:44:42Z</time></trkpt><trkpt lat="44.46282465982249" lon="8.634826326432679"><ele>903.0</ele><time>2026-04-06T07:44:43Z</time></trkpt><trkpt lat="44.4629575685037" lon="8.634808381377173"><ele>904.75</ele><time>2026-04-06T07:44:44Z</time></trkpt><trkpt lat="44.463083668880024" lon="8.634776974546234"><ele>906.5</ele><time>2026-04-06T07:44:45Z</time></trkpt><trkpt lat="44.463208701614555" lon="8.6347264944786"><ele>908.25</ele><time>2026-04-06T07:44:46Z</time></trkpt><trkpt lat="44.46333421515662" lon="8.634651318078479"><ele>910.0</ele><time>2026-04-06T07:44:47Z</time></trkpt><trkpt lat="44.46345224019576" lon="8.634525421039163"><ele>906.75</ele><time>2026-04-06T07:44:48Z</time></trkpt><trkpt lat="44.463561237541924" lon="8.634379237982694"><ele>903.5</ele><time>2026-04-06T07:44:49Z</time></trkpt><trkpt lat="44.46364999257098" lon="8.634228847354258"><ele>900.25</ele><time>2026-04-06T07:44:50Z</time></trkpt><trkpt lat="44.46372849427721" lon="8.634091303709932"><ele>897.0</ele><time>2026-04-06T07:44:51Z</time></trkpt><trkpt lat="44.463811996648346" lon="8.633974950361274"><ele>897.0</ele><time>2026-04-06T07:44:52Z</time></trkpt><trkpt lat="44.46391626890021" lon="8.633890508382887"><ele>897.0</ele><time>2026-04-06T07:44:53Z</time></trkpt><trkpt lat="44.46404166557357" lon="8.633851624036826"><ele>897.0</ele><time>2026-04-06T07:44:54Z</time></trkpt><trkpt lat="44.46416905856371" lon="8.633831676839725"><ele>897.0</ele><time>2026-04-06T07:44:55Z</time></trkpt><trkpt lat="44.464291731257916" lon="8.63377558306836"><ele>897.0</ele><time>2026-04-06T07:44:56Z</time></trkpt><trkpt lat="44.464397520542676" lon="8.633647182145943"><ele>897.0</ele><time>2026-04-06T07:44:57Z</time></trkpt><trkpt lat="44.464485972633646" lon="8.633466631068975"><ele>897.0</ele><time>2026-04-06T07:44:57.999Z</time></trkpt><trkpt lat="44.464551328379336" lon="8.633310717670637"><ele>897.0</ele><time>2026-04-06T07:44:58.999Z</time></trkpt><trkpt lat="44.46459931151301" lon="8.63317844205853"><ele>893.8</ele><time>2026-04-06T07:44:59.999Z</time></trkpt><trkpt lat="44.464653078557745" lon="8.63306996262394"><ele>890.6</ele><time>2026-04-06T07:45:00.999Z</time></trkpt><trkpt lat="44.464732889787" lon="8.632987750664133"><ele>887.3999999999999</ele><time>2026-04-06T07:45:01.999Z</time></trkpt><trkpt lat="44.46483384135578" lon="8.632963141175876"><ele>884.1999999999999</ele><time>2026-04-06T07:45:02.999Z</time></trkpt><trkpt lat="44.46495066665169" lon="8.632971396212849"><ele>881.0</ele><time>2026-04-06T07:45:03.999Z</time></trkpt><trkpt lat="44.46506899588209" lon="8.63300650825965"><ele>881.0</ele><time>2026-04-06T07:45:04.999Z</time></trkpt><trkpt lat="44.46519004882773" lon="8.633061762348461"><ele>880.9999999999999</ele><time>2026-04-06T07:45:05.999Z</time></trkpt><trkpt lat="44.4652981742703" lon="8.633109552938436"><ele>880.9999999999999</ele><time>2026-04-06T07:45:06.999Z</time></trkpt><trkpt lat="44.465390813568014" lon="8.633173636716453"><ele>881.0</ele><time>2026-04-06T07:45:07.999Z</time></trkpt><trkpt lat="44.46544432247699" lon="8.633271733124918"><ele>881.0</ele><time>2026-04-06T07:45:08.999Z</time></trkpt><trkpt lat="44.46546420911956" lon="8.633421897164204"><ele>879.0</ele><time>2026-04-06T07:45:09.999Z</time></trkpt><trkpt lat="44.46548534815591" lon="8.633562567180606"><ele>876.9999999999999</ele><time>2026-04-06T07:45:10.999Z</time></trkpt><trkpt lat="44.46552548968595" lon="8.633690169865483"><ele>874.9999999999999</ele><time>2026-04-06T07:45:11.999Z</time></trkpt><trkpt lat="44.46559164205947" lon="8.633772437930864"><ele>873.0</ele><time>2026-04-06T07:45:12.999Z</time></trkpt><trkpt lat="44.46567951792327" lon="8.633802119078355"><ele>871.0</ele><time>2026-04-06T07:45:13.999Z</time></trkpt><trkpt lat="44.46576972752653" lon="8.633733236602955"><ele>871.0</ele><time>2026-04-06T07:45:14.999Z</time></trkpt><trkpt lat="44.46585799582555" lon="8.633617926792251"><ele>871.0</ele><time>2026-04-06T07:45:15.999Z</time></trkpt><trkpt lat="44.465946158476854" lon="8.633478659140163"><ele>871.0</ele><time>2026-04-06T07:45:16.999Z</time></trkpt><trkpt lat="44.4660307048267" lon="8.633321250863975"><ele>871.0</ele><time>2026-04-06T07:45:17.999Z</time></trkpt><trkpt lat="44.466092707955404" lon="8.633151271684918"><ele>871.0</ele><time>2026-04-06T07:45:18.999Z</time></trkpt><trkpt lat="44.46611930872025" lon="8.632980900128139"><ele>871.0</ele><time>2026-04-06T07:45:19.999Z</time></trkpt><trkpt lat="44.46613300213156" lon="8.632791753357356"><ele>871.0</ele><time>2026-04-06T07:45:20.999Z</time></trkpt><trkpt lat="44.46615299159725" lon="8.63259450648457"><ele>871.0</ele><time>2026-04-06T07:45:21.999Z</time></trkpt><trkpt lat="44.46617929579543" lon="8.632412224762227"><ele>871.4</ele><time>2026-04-06T07:45:22.999Z</time></trkpt><trkpt lat="44.46620369926634" lon="8.632240623754747"><ele>871.8</ele><time>2026-04-06T07:45:23.999Z</time></trkpt><trkpt lat="44.46623331543036" lon="8.632092102094404"><ele>872.1999999999999</ele><time>2026-04-06T07:45:24.999Z</time></trkpt><trkpt lat="44.4662855341766" lon="8.631978165944487"><ele>872.5999999999999</ele><time>2026-04-06T07:45:25.999Z</time></trkpt><trkpt lat="44.46636737823769" lon="8.631885138026254"><ele>873.0</ele><time>2026-04-06T07:45:26.999Z</time></trkpt><trkpt lat="44.46646533838896" lon="8.631799884475317"><ele>868.0</ele><time>2026-04-06T07:45:27.999Z</time></trkpt><trkpt lat="44.46656736046411" lon="8.631702500099228"><ele>863.0</ele><time>2026-04-06T07:45:28.999Z</time></trkpt><trkpt lat="44.46664999542248" lon="8.631583776979701"><ele>858.0</ele><time>2026-04-06T07:45:29.999Z</time></trkpt><trkpt lat="44.46672761365363" lon="8.631446639691056"><ele>853.0</ele><time>2026-04-06T07:45:30.999Z</time></trkpt><trkpt lat="44.46680360590622" lon="8.631320801464256"><ele>853.0</ele><time>2026-04-06T07:45:31.999Z</time></trkpt><trkpt lat="44.46688068900621" lon="8.631205019408643"><ele>853.0</ele><time>2026-04-06T07:45:32.999Z</time></trkpt><trkpt lat="44.46695893907387" lon="8.631106719975183"><ele>853.0</ele><time>2026-04-06T07:45:33.999Z</time></trkpt><trkpt lat="44.46703688097352" lon="8.631042952387832"><ele>853.0</ele><time>2026-04-06T07:45:34.999Z</time></trkpt><trkpt lat="44.46712962004577" lon="8.631010560324421"><ele>853.0</ele><time>2026-04-06T07:45:35.999Z</time></trkpt><trkpt lat="44.46722477133246" lon="8.631036231116807"><ele>853.75</ele><time>2026-04-06T07:45:36.999Z</time></trkpt><trkpt lat="44.46732407699992" lon="8.631097922137098"><ele>854.5</ele><time>2026-04-06T07:45:37.999Z</time></trkpt><trkpt lat="44.467425729333506" lon="8.631156763932609"><ele>855.25</ele><time>2026-04-06T07:45:38.999Z</time></trkpt><trkpt lat="44.46754703834166" lon="8.631204045083715"><ele>856.0</ele><time>2026-04-06T07:45:39.999Z</time></trkpt><trkpt lat="44.467662112606625" lon="8.631248138321837"><ele>856.0</ele><time>2026-04-06T07:45:40.999Z</time></trkpt><trkpt lat="44.46777669617686" lon="8.631293673552209"><ele>856.0</ele><time>2026-04-06T07:45:41.999Z</time></trkpt><trkpt lat="44.46788676078581" lon="8.63133196130384"><ele>856.0</ele><time>2026-04-06T07:45:42.999Z</time></trkpt><trkpt lat="44.46799792491715" lon="8.631380133940668"><ele>856.0</ele><time>2026-04-06T07:45:43.999Z</time></trkpt><trkpt lat="44.46810351670483" lon="8.631409836470613"><ele>853.5999999999999</ele><time>2026-04-06T07:45:44.999Z</time></trkpt><trkpt lat="44.46820762692043" lon="8.631444777867028"><ele>851.1999999999999</ele><time>2026-04-06T07:45:45.999Z</time></trkpt><trkpt lat="44.468311063306274" lon="8.63149038691086"><ele>848.8</ele><time>2026-04-06T07:45:46.999Z</time></trkpt><trkpt lat="44.468401920995795" lon="8.631535596328657"><ele>846.4000000000001</ele><time>2026-04-06T07:45:47.999Z</time></trkpt><trkpt lat="44.46850037683536" lon="8.631591270062376"><ele>844.0</ele><time>2026-04-06T07:45:48.999Z</time></trkpt><trkpt lat="44.468600393228606" lon="8.631641436628538"><ele>844.0</ele><time>2026-04-06T07:45:49.999Z</time></trkpt><trkpt lat="44.468692397634754" lon="8.631667334889014"><ele>844.0</ele><time>2026-04-06T07:45:50.999Z</time></trkpt><trkpt lat="44.46878513712634" lon="8.631644295542134"><ele>844.0</ele><time>2026-04-06T07:45:51.999Z</time></trkpt><trkpt lat="44.468868853917456" lon="8.631573949175014"><ele>844.0</ele><time>2026-04-06T07:45:52.999Z</time></trkpt><trkpt lat="44.46893202037621" lon="8.6314541747914"><ele>844.0</ele><time>2026-04-06T07:45:53.999Z</time></trkpt><trkpt lat="44.46899459867729" lon="8.63132314266328"><ele>845.4000000000001</ele><time>2026-04-06T07:45:54.999Z</time></trkpt><trkpt lat="44.469071595456434" lon="8.631212865622476"><ele>846.8</ele><time>2026-04-06T07:45:55.999Z</time></trkpt><trkpt lat="44.469148744035834" lon="8.63110097134814"><ele>848.2</ele><time>2026-04-06T07:45:56.999Z</time></trkpt><trkpt lat="44.46922924952798" lon="8.630989478674957"><ele>849.5999999999999</ele><time>2026-04-06T07:45:57.999Z</time></trkpt><trkpt lat="44.46930153976315" lon="8.63088479646457"><ele>851.0</ele><time>2026-04-06T07:45:58.999Z</time></trkpt><trkpt lat="44.46935719476613" lon="8.630762152980653"><ele>848.0</ele><time>2026-04-06T07:45:59.999Z</time></trkpt><trkpt lat="44.469398047760585" lon="8.630625234541855"><ele>845.0</ele><time>2026-04-06T07:46:00.999Z</time></trkpt><trkpt lat="44.469433835236316" lon="8.630481002074445"><ele>842.0</ele><time>2026-04-06T07:46:01.999Z</time></trkpt><trkpt lat="44.46946831667414" lon="8.630335969575164"><ele>839.0</ele><time>2026-04-06T07:46:02.999Z</time></trkpt><trkpt lat="44.46949564708427" lon="8.630181507014436"><ele>836.0</ele><time>2026-04-06T07:46:03.998Z</time></trkpt><trkpt lat="44.46952779670106" lon="8.630024140034074"><ele>834.8</ele><time>2026-04-06T07:46:04.998Z</time></trkpt><trkpt lat="44.46955850359968" lon="8.629874418648923"><ele>833.5999999999999</ele><time>2026-04-06T07:46:05.998Z</time></trkpt><trkpt lat="44.469587927827625" lon="8.629727507756604"><ele>832.4</ele><time>2026-04-06T07:46:06.998Z</time></trkpt><trkpt lat="44.46961773185854" lon="8.6295859214873"><ele>831.2</ele><time>2026-04-06T07:46:07.998Z</time></trkpt><trkpt lat="44.46964500145076" lon="8.62944142383911"><ele>830.0</ele><time>2026-04-06T07:46:08.998Z</time></trkpt><trkpt lat="44.46967740371298" lon="8.629292091806589"><ele>830.0</ele><time>2026-04-06T07:46:09.998Z</time></trkpt><trkpt lat="44.46970785148552" lon="8.629150036954696"><ele>830.0</ele><time>2026-04-06T07:46:10.998Z</time></trkpt><trkpt lat="44.469738924017676" lon="8.629015760431168"><ele>830.0</ele><time>2026-04-06T07:46:12Z</time></trkpt><trkpt lat="44.46976861117852" lon="8.628886147665968"><ele>830.0</ele><time>2026-04-06T07:46:13Z</time></trkpt><trkpt lat="44.4698164018303" lon="8.628765869788152"><ele>830.0</ele><time>2026-04-06T07:46:14Z</time></trkpt><trkpt lat="44.46988204925817" lon="8.628644315398997"><ele>827.8</ele><time>2026-04-06T07:46:15Z</time></trkpt><trkpt lat="44.469954910558585" lon="8.628530510629206"><ele>825.6</ele><time>2026-04-06T07:46:16Z</time></trkpt><trkpt lat="44.470026622914844" lon="8.62840817467991"><ele>823.4000000000001</ele><time>2026-04-06T07:46:17Z</time></trkpt><trkpt lat="44.47008801692426" lon="8.628290465809664"><ele>821.2</ele><time>2026-04-06T07:46:18Z</time></trkpt><trkpt lat="44.47013596734193" lon="8.628190127997193"><ele>819.0</ele><time>2026-04-06T07:46:19Z</time></trkpt><trkpt lat="44.470168158911555" lon="8.628084623150054"><ele>819.0</ele><time>2026-04-06T07:46:20Z</time></trkpt><trkpt lat="44.47018073696762" lon="8.627968014976553"><ele>819.0</ele><time>2026-04-06T07:46:21Z</time></trkpt><trkpt lat="44.4701518967855" lon="8.627861133399689"><ele>819.0</ele><time>2026-04-06T07:46:22Z</time></trkpt><trkpt lat="44.470076024588195" lon="8.627787018659891"><ele>819.0</ele><time>2026-04-06T07:46:23Z</time></trkpt><trkpt lat="44.469992008078215" lon="8.62777832660567"><ele>819.0</ele><time>2026-04-06T07:46:24Z</time></trkpt><trkpt lat="44.469905059567424" lon="8.627834313059406"><ele>819.0</ele><time>2026-04-06T07:46:25Z</time></trkpt><trkpt lat="44.4698328881766" lon="8.627927837148777"><ele>819.0</ele><time>2026-04-06T07:46:26Z</time></trkpt><trkpt lat="44.46977987685159" lon="8.628043649835561"><ele>819.0</ele><time>2026-04-06T07:46:27Z</time></trkpt><trkpt lat="44.469730933099584" lon="8.628135121831813"><ele>819.0</ele><time>2026-04-06T07:46:28Z</time></trkpt><trkpt lat="44.46967121583943" lon="8.62822686231893"><ele>819.0</ele><time>2026-04-06T07:46:29Z</time></trkpt><trkpt lat="44.46961208998705" lon="8.628317095543837"><ele>819.0</ele><time>2026-04-06T07:46:30Z</time></trkpt><trkpt lat="44.469553817037074" lon="8.628408300620563"><ele>819.0</ele><time>2026-04-06T07:46:31Z</time></trkpt><trkpt lat="44.46948582557937" lon="8.628506395843555"><ele>818.2</ele><time>2026-04-06T07:46:32Z</time></trkpt><trkpt lat="44.469406607305245" lon="8.62860161505406"><ele>817.4000000000001</ele><time>2026-04-06T07:46:33Z</time></trkpt><trkpt lat="44.46933084740098" lon="8.628692913672024"><ele>816.6</ele><time>2026-04-06T07:46:34Z</time></trkpt><trkpt lat="44.469248609251935" lon="8.62878390780272"><ele>815.8</ele><time>2026-04-06T07:46:35Z</time></trkpt><trkpt lat="44.469161975037046" lon="8.62886100576928"><ele>815.0</ele><time>2026-04-06T07:46:36Z</time></trkpt><trkpt lat="44.46907459079221" lon="8.62893904788749"><ele>815.0</ele><time>2026-04-06T07:46:37Z</time></trkpt><trkpt lat="44.46898870073411" lon="8.629018583100677"><ele>815.0</ele><time>2026-04-06T07:46:38Z</time></trkpt><trkpt lat="44.46890473892042" lon="8.629098594893117"><ele>815.0</ele><time>2026-04-06T07:46:39Z</time></trkpt><trkpt lat="44.46882377706824" lon="8.62917408350424"><ele>815.0</ele><time>2026-04-06T07:46:40Z</time></trkpt><trkpt lat="44.46874191153386" lon="8.62925176553943"><ele>815.0</ele><time>2026-04-06T07:46:41Z</time></trkpt><trkpt lat="44.468662976910466" lon="8.629330182854098"><ele>814.8333333333334</ele><time>2026-04-06T07:46:42Z</time></trkpt><trkpt lat="44.46858015597809" lon="8.629402412376006"><ele>814.6666666666667</ele><time>2026-04-06T07:46:43Z</time></trkpt><trkpt lat="44.46849900078127" lon="8.629450930881672"><ele>814.5</ele><time>2026-04-06T07:46:44Z</time></trkpt><trkpt lat="44.468420293416166" lon="8.62947688513634"><ele>814.3333333333333</ele><time>2026-04-06T07:46:45Z</time></trkpt><trkpt lat="44.46834170009659" lon="8.629473231146317"><ele>814.1666666666666</ele><time>2026-04-06T07:46:46Z</time></trkpt><trkpt lat="44.468266821558984" lon="8.629429851044536"><ele>814.0</ele><time>2026-04-06T07:46:47Z</time></trkpt><trkpt lat="44.468194960852244" lon="8.629349771420886"><ele>812.6</ele><time>2026-04-06T07:46:48Z</time></trkpt><trkpt lat="44.46812806468797" lon="8.629266842834953"><ele>811.2</ele><time>2026-04-06T07:46:49Z</time></trkpt><trkpt lat="44.46808725223421" lon="8.62910728676622"><ele>809.8000000000001</ele><time>2026-04-06T07:46:51Z</time></trkpt><trkpt lat="44.4681234031469" lon="8.629011081768484"><ele>808.4000000000001</ele><time>2026-04-06T07:46:52Z</time></trkpt><trkpt lat="44.46820338281633" lon="8.628949999951981"><ele>807.0</ele><time>2026-04-06T07:46:53Z</time></trkpt><trkpt lat="44.46828756231539" lon="8.628915144899642"><ele>807.0</ele><time>2026-04-06T07:46:54Z</time></trkpt><trkpt lat="44.46838064578279" lon="8.628876376433979"><ele>807.0</ele><time>2026-04-06T07:46:56Z</time></trkpt><trkpt lat="44.468455506246265" lon="8.62883220140716"><ele>807.0</ele><time>2026-04-06T07:46:57Z</time></trkpt><trkpt lat="44.468529166949594" lon="8.628753737808754"><ele>807.0</ele><time>2026-04-06T07:46:58Z</time></trkpt><trkpt lat="44.46858809018979" lon="8.628655740323222"><ele>807.0</ele><time>2026-04-06T07:46:59Z</time></trkpt><trkpt lat="44.46863833140674" lon="8.628537929161832"><ele>807.25</ele><time>2026-04-06T07:46:59.999Z</time></trkpt><trkpt lat="44.46867705411438" lon="8.628399550066606"><ele>807.5</ele><time>2026-04-06T07:47:00.999Z</time></trkpt><trkpt lat="44.46871816538753" lon="8.628251220466186"><ele>807.75</ele><time>2026-04-06T07:47:01.999Z</time></trkpt><trkpt lat="44.46876106273159" lon="8.628095787573592"><ele>808.0</ele><time>2026-04-06T07:47:02.999Z</time></trkpt><trkpt lat="44.468805120557796" lon="8.627937070210951"><ele>806.0</ele><time>2026-04-06T07:47:03.999Z</time></trkpt><trkpt lat="44.46885578718149" lon="8.627767889529055"><ele>804.0</ele><time>2026-04-06T07:47:04.999Z</time></trkpt><trkpt lat="44.468906252548884" lon="8.62759816733249"><ele>802.0</ele><time>2026-04-06T07:47:05.999Z</time></trkpt><trkpt lat="44.46894986414273" lon="8.627427790810593"><ele>800.0</ele><time>2026-04-06T07:47:06.999Z</time></trkpt><trkpt lat="44.46900197396172" lon="8.627256796174319"><ele>800.0</ele><time>2026-04-06T07:47:07.999Z</time></trkpt><trkpt lat="44.469048211213355" lon="8.62708769477254"><ele>800.0</ele><time>2026-04-06T07:47:08.999Z</time></trkpt><trkpt lat="44.46909290731027" lon="8.626925074536375"><ele>800.0</ele><time>2026-04-06T07:47:09.999Z</time></trkpt><trkpt lat="44.46914268879537" lon="8.626766872222538"><ele>800.0</ele><time>2026-04-06T07:47:10.999Z</time></trkpt><trkpt lat="44.46918674561003" lon="8.626602239861093"><ele>798.5</ele><time>2026-04-06T07:47:11.999Z</time></trkpt><trkpt lat="44.46922783441063" lon="8.626443160600097"><ele>797.0</ele><time>2026-04-06T07:47:12.999Z</time></trkpt><trkpt lat="44.46926027762431" lon="8.626281716414738"><ele>795.5</ele><time>2026-04-06T07:47:13.999Z</time></trkpt><trkpt lat="44.46927747183163" lon="8.626112757686641"><ele>794.0</ele><time>2026-04-06T07:47:14.999Z</time></trkpt><trkpt lat="44.46928646317151" lon="8.625939895033172"><ele>793.75</ele><time>2026-04-06T07:47:15.999Z</time></trkpt><trkpt lat="44.46929717301308" lon="8.625767122419916"><ele>793.5</ele><time>2026-04-06T07:47:16.999Z</time></trkpt><trkpt lat="44.469314101862004" lon="8.625593246960563"><ele>793.25</ele><time>2026-04-06T07:47:17.999Z</time></trkpt><trkpt lat="44.4693274306366" lon="8.625418407108093"><ele>793.0</ele><time>2026-04-06T07:47:18.999Z</time></trkpt><trkpt lat="44.46934043357793" lon="8.625240591512002"><ele>793.0</ele><time>2026-04-06T07:47:19.999Z</time></trkpt><trkpt lat="44.46935522348817" lon="8.625062396971781"><ele>793.0</ele><time>2026-04-06T07:47:20.999Z</time></trkpt><trkpt lat="44.4693725156734" lon="8.624885743445812"><ele>793.0</ele><time>2026-04-06T07:47:21.999Z</time></trkpt><trkpt lat="44.46938889436384" lon="8.624719121719611"><ele>793.0</ele><time>2026-04-06T07:47:22.999Z</time></trkpt><trkpt lat="44.4694003231321" lon="8.624566552241937"><ele>792.4</ele><time>2026-04-06T07:47:23.999Z</time></trkpt><trkpt lat="44.46941052932027" lon="8.624418098586865"><ele>791.8</ele><time>2026-04-06T07:47:24.999Z</time></trkpt><trkpt lat="44.46941973844706" lon="8.624267826721498"><ele>791.2</ele><time>2026-04-06T07:47:25.999Z</time></trkpt><trkpt lat="44.46942263882139" lon="8.624112686394342"><ele>790.6</ele><time>2026-04-06T07:47:26.999Z</time></trkpt><trkpt lat="44.46941220708618" lon="8.623947872425836"><ele>790.0</ele><time>2026-04-06T07:47:27.999Z</time></trkpt><trkpt lat="44.469385700014435" lon="8.623785737157144"><ele>789.75</ele><time>2026-04-06T07:47:28.999Z</time></trkpt><trkpt lat="44.4693534930304" lon="8.623626930051413"><ele>789.5</ele><time>2026-04-06T07:47:29.999Z</time></trkpt><trkpt lat="44.469330176563396" lon="8.62346609307243"><ele>789.25</ele><time>2026-04-06T07:47:30.999Z</time></trkpt><trkpt lat="44.46932112992805" lon="8.623303806316088"><ele>789.0</ele><time>2026-04-06T07:47:31.999Z</time></trkpt><trkpt lat="44.469330152367114" lon="8.623142383900879"><ele>789.0</ele><time>2026-04-06T07:47:32.999Z</time></trkpt><trkpt lat="44.46936173266908" lon="8.622990421955244"><ele>789.0</ele><time>2026-04-06T07:47:33.999Z</time></trkpt><trkpt lat="44.46940287850221" lon="8.622851192428788"><ele>789.0</ele><time>2026-04-06T07:47:34.999Z</time></trkpt><trkpt lat="44.46944449454874" lon="8.622724325477318"><ele>789.0</ele><time>2026-04-06T07:47:35.999Z</time></trkpt><trkpt lat="44.46947739627354" lon="8.622599647149606"><ele>789.0</ele><time>2026-04-06T07:47:36.999Z</time></trkpt><trkpt lat="44.46950160561638" lon="8.62248290796824"><ele>788.2</ele><time>2026-04-06T07:47:37.999Z</time></trkpt><trkpt lat="44.469522101232556" lon="8.6223721307538"><ele>787.4000000000001</ele><time>2026-04-06T07:47:38.999Z</time></trkpt><trkpt lat="44.469546334691515" lon="8.622254909205312"><ele>786.6</ele><time>2026-04-06T07:47:39.999Z</time></trkpt><trkpt lat="44.469555342503725" lon="8.62211677852248"><ele>785.8</ele><time>2026-04-06T07:47:40.999Z</time></trkpt><trkpt lat="44.4695388620222" lon="8.621959725816067"><ele>785.0</ele><time>2026-04-06T07:47:41.999Z</time></trkpt><trkpt lat="44.46949191065567" lon="8.621804989513938"><ele>785.0</ele><time>2026-04-06T07:47:42.999Z</time></trkpt><trkpt lat="44.46940708028242" lon="8.621663346603244"><ele>785.0</ele><time>2026-04-06T07:47:43.999Z</time></trkpt><trkpt lat="44.469295507239735" lon="8.621556412290648"><ele>785.0</ele><time>2026-04-06T07:47:44.999Z</time></trkpt><trkpt lat="44.46917291910613" lon="8.621475150141885"><ele>785.0</ele><time>2026-04-06T07:47:45.999Z</time></trkpt><trkpt lat="44.46907523694546" lon="8.62136607469827"><ele>785.0</ele><time>2026-04-06T07:47:46.999Z</time></trkpt><trkpt lat="44.46902404173647" lon="8.621209299546935"><ele>785.0</ele><time>2026-04-06T07:47:47.999Z</time></trkpt><trkpt lat="44.46900776473344" lon="8.621032945515973"><ele>785.0</ele><time>2026-04-06T07:47:48.999Z</time></trkpt><trkpt lat="44.468993417314095" lon="8.620878409811615"><ele>785.0</ele><time>2026-04-06T07:47:49.999Z</time></trkpt><trkpt lat="44.468969421298425" lon="8.620727756976168"><ele>785.75</ele><time>2026-04-06T07:47:50.999Z</time></trkpt><trkpt lat="44.46894588717805" lon="8.620565648475042"><ele>786.5</ele><time>2026-04-06T07:47:51.999Z</time></trkpt><trkpt lat="44.468925887191375" lon="8.620402799949227"><ele>787.25</ele><time>2026-04-06T07:47:52.999Z</time></trkpt><trkpt lat="44.46890474286449" lon="8.620240031228203"><ele>788.0</ele><time>2026-04-06T07:47:53.999Z</time></trkpt><trkpt lat="44.46889789453809" lon="8.620086770477494"><ele>788.75</ele><time>2026-04-06T07:47:54.999Z</time></trkpt><trkpt lat="44.46892566202334" lon="8.619937947059386"><ele>789.5</ele><time>2026-04-06T07:47:55.999Z</time></trkpt><trkpt lat="44.46898978652077" lon="8.619788867139881"><ele>790.25</ele><time>2026-04-06T07:47:56.999Z</time></trkpt><trkpt lat="44.46906715329705" lon="8.619650102416385"><ele>791.0</ele><time>2026-04-06T07:47:57.999Z</time></trkpt><trkpt lat="44.46914862081526" lon="8.61951154040401"><ele>790.0</ele><time>2026-04-06T07:47:58.999Z</time></trkpt><trkpt lat="44.469203852671924" lon="8.61935059625981"><ele>789.0</ele><time>2026-04-06T07:47:59.999Z</time></trkpt><trkpt lat="44.469233326915344" lon="8.619167123873078"><ele>788.0</ele><time>2026-04-06T07:48:00.999Z</time></trkpt><trkpt lat="44.46924751268466" lon="8.618975120060663"><ele>787.0</ele><time>2026-04-06T07:48:01.999Z</time></trkpt><trkpt lat="44.469244691256556" lon="8.618779559194843"><ele>785.75</ele><time>2026-04-06T07:48:02.999Z</time></trkpt><trkpt lat="44.46924781719465" lon="8.618580897918015"><ele>784.5</ele><time>2026-04-06T07:48:03.999Z</time></trkpt><trkpt lat="44.46926330939755" lon="8.61838193693054"><ele>783.25</ele><time>2026-04-06T07:48:04.998Z</time></trkpt><trkpt lat="44.46929237240863" lon="8.618179972413763"><ele>782.0</ele><time>2026-04-06T07:48:05.998Z</time></trkpt><trkpt lat="44.46932397923084" lon="8.617981995090705"><ele>781.0</ele><time>2026-04-06T07:48:06.998Z</time></trkpt><trkpt lat="44.46935181638316" lon="8.61778526222535"><ele>780.0</ele><time>2026-04-06T07:48:07.998Z</time></trkpt><trkpt lat="44.46937945222652" lon="8.617597863813254"><ele>779.0</ele><time>2026-04-06T07:48:08.998Z</time></trkpt><trkpt lat="44.469394626443425" lon="8.61742485634035"><ele>778.0</ele><time>2026-04-06T07:48:09.998Z</time></trkpt><trkpt lat="44.469370389774774" lon="8.61725606541972"><ele>778.0</ele><time>2026-04-06T07:48:10.998Z</time></trkpt><trkpt lat="44.46929473031414" lon="8.617108240675053"><ele>778.0</ele><time>2026-04-06T07:48:11.998Z</time></trkpt><trkpt lat="44.46918216702076" lon="8.616992812358493"><ele>778.0</ele><time>2026-04-06T07:48:12.998Z</time></trkpt><trkpt lat="44.46905810670951" lon="8.616897226028401"><ele>778.0</ele><time>2026-04-06T07:48:13.998Z</time></trkpt><trkpt lat="44.46894171881732" lon="8.616794689333078"><ele>780.25</ele><time>2026-04-06T07:48:14.998Z</time></trkpt><trkpt lat="44.46883747472197" lon="8.616664438730608"><ele>782.5</ele><time>2026-04-06T07:48:15.998Z</time></trkpt><trkpt lat="44.46876205666493" lon="8.616498763942174"><ele>784.75</ele><time>2026-04-06T07:48:16.998Z</time></trkpt><trkpt lat="44.468715511704374" lon="8.616294652627287"><ele>787.0</ele><time>2026-04-06T07:48:18Z</time></trkpt><trkpt lat="44.468679084622984" lon="8.616087505124188"><ele>782.0</ele><time>2026-04-06T07:48:19Z</time></trkpt><trkpt lat="44.468652046772256" lon="8.615866757519665"><ele>777.0</ele><time>2026-04-06T07:48:20Z</time></trkpt><trkpt lat="44.46863394237703" lon="8.615670512294573"><ele>772.0</ele><time>2026-04-06T07:48:21Z</time></trkpt><trkpt lat="44.468617281554955" lon="8.615489560424528"><ele>767.0</ele><time>2026-04-06T07:48:22Z</time></trkpt><trkpt lat="44.468622306785726" lon="8.615325239795277"><ele>765.0</ele><time>2026-04-06T07:48:23Z</time></trkpt><trkpt lat="44.46866982819596" lon="8.615194743777122"><ele>763.0</ele><time>2026-04-06T07:48:24Z</time></trkpt><trkpt lat="44.46875940065614" lon="8.615099098186171"><ele>761.0</ele><time>2026-04-06T07:48:25Z</time></trkpt><trkpt lat="44.468880906046955" lon="8.615029558744618"><ele>759.0</ele><time>2026-04-06T07:48:26Z</time></trkpt><trkpt lat="44.46899773851364" lon="8.614959818646513"><ele>757.0</ele><time>2026-04-06T07:48:27Z</time></trkpt><trkpt lat="44.46911861708111" lon="8.614863082595424"><ele>755.0</ele><time>2026-04-06T07:48:28Z</time></trkpt><trkpt lat="44.46923467212331" lon="8.61474097295327"><ele>753.0</ele><time>2026-04-06T07:48:29Z</time></trkpt><trkpt lat="44.46934447281802" lon="8.614607263921418"><ele>751.0</ele><time>2026-04-06T07:48:30Z</time></trkpt><trkpt lat="44.469451212140875" lon="8.614476750885194"><ele>751.0</ele><time>2026-04-06T07:48:31Z</time></trkpt><trkpt lat="44.4695741649835" lon="8.61437442848617"><ele>751.0</ele><time>2026-04-06T07:48:32Z</time></trkpt><trkpt lat="44.46972253624354" lon="8.61430637516388"><ele>751.0</ele><time>2026-04-06T07:48:33Z</time></trkpt><trkpt lat="44.469879531120455" lon="8.614274169254442"><ele>753.5</ele><time>2026-04-06T07:48:34Z</time></trkpt><trkpt lat="44.47001953892562" lon="8.61422604061899"><ele>756.0</ele><time>2026-04-06T07:48:35Z</time></trkpt><trkpt lat="44.47014892854497" lon="8.61416932715581"><ele>758.5</ele><time>2026-04-06T07:48:36Z</time></trkpt><trkpt lat="44.470260486739754" lon="8.614093594120156"><ele>761.0</ele><time>2026-04-06T07:48:37Z</time></trkpt><trkpt lat="44.47035156299899" lon="8.613977879436938"><ele>761.0</ele><time>2026-04-06T07:48:38Z</time></trkpt><trkpt lat="44.470403443294714" lon="8.61382291029619"><ele>761.0</ele><time>2026-04-06T07:48:39Z</time></trkpt><trkpt lat="44.47039992322357" lon="8.613655605916954"><ele>761.0</ele><time>2026-04-06T07:48:40Z</time></trkpt><trkpt lat="44.470342907283786" lon="8.613504641945013"><ele>761.0</ele><time>2026-04-06T07:48:41Z</time></trkpt><trkpt lat="44.47022415337606" lon="8.613400619669664"><ele>760.0</ele><time>2026-04-06T07:48:42Z</time></trkpt><trkpt lat="44.47010146581761" lon="8.613307549200742"><ele>759.0</ele><time>2026-04-06T07:48:43Z</time></trkpt><trkpt lat="44.47001662790034" lon="8.613162387927028"><ele>758.0</ele><time>2026-04-06T07:48:44Z</time></trkpt><trkpt lat="44.46995894956207" lon="8.612976385454916"><ele>757.0</ele><time>2026-04-06T07:48:45Z</time></trkpt><trkpt lat="44.46991287266734" lon="8.612781360571214"><ele>757.0</ele><time>2026-04-06T07:48:46Z</time></trkpt><trkpt lat="44.46985867820316" lon="8.61258695885224"><ele>757.0</ele><time>2026-04-06T07:48:47Z</time></trkpt><trkpt lat="44.46979909822269" lon="8.612402548124638"><ele>757.0</ele><time>2026-04-06T07:48:48Z</time></trkpt><trkpt lat="44.469735101391464" lon="8.61221400284827"><ele>757.0</ele><time>2026-04-06T07:48:49Z</time></trkpt><trkpt lat="44.469677706063905" lon="8.612022096364834"><ele>759.0</ele><time>2026-04-06T07:48:50Z</time></trkpt><trkpt lat="44.46961557217156" lon="8.6118332238846"><ele>761.0</ele><time>2026-04-06T07:48:51Z</time></trkpt><trkpt lat="44.46955602564493" lon="8.611652426369288"><ele>763.0</ele><time>2026-04-06T07:48:52Z</time></trkpt><trkpt lat="44.46950603104156" lon="8.6114708770954"><ele>765.0</ele><time>2026-04-06T07:48:53Z</time></trkpt><trkpt lat="44.46946385964293" lon="8.611285604734977"><ele>757.5</ele><time>2026-04-06T07:48:54Z</time></trkpt><trkpt lat="44.46942437512618" lon="8.611101324992095"><ele>750.0</ele><time>2026-04-06T07:48:55Z</time></trkpt><trkpt lat="44.46938478775003" lon="8.610913266804452"><ele>742.5</ele><time>2026-04-06T07:48:56Z</time></trkpt><trkpt lat="44.46935465608404" lon="8.610727854865281"><ele>735.0</ele><time>2026-04-06T07:48:57Z</time></trkpt><trkpt lat="44.469320278335154" lon="8.610561674860177"><ele>735.0</ele><time>2026-04-06T07:48:58Z</time></trkpt><trkpt lat="44.469287428823876" lon="8.610417319408382"><ele>735.0</ele><time>2026-04-06T07:48:59Z</time></trkpt><trkpt lat="44.46923146033166" lon="8.61029193324688"><ele>735.0</ele><time>2026-04-06T07:49:00Z</time></trkpt><trkpt lat="44.46913933726617" lon="8.610209939092064"><ele>735.0</ele><time>2026-04-06T07:49:01Z</time></trkpt><trkpt lat="44.46902264097564" lon="8.610196319277055"><ele>735.0</ele><time>2026-04-06T07:49:02Z</time></trkpt><trkpt lat="44.46890175427154" lon="8.61024588582124"><ele>735.0</ele><time>2026-04-06T07:49:03Z</time></trkpt><trkpt lat="44.46880855870956" lon="8.610327121174075"><ele>735.0</ele><time>2026-04-06T07:49:04Z</time></trkpt><trkpt lat="44.46876104502909" lon="8.610468096773728"><ele>735.0</ele><time>2026-04-06T07:49:05Z</time></trkpt><trkpt lat="44.468754967936775" lon="8.610642878403906"><ele>735.0</ele><time>2026-04-06T07:49:05.999Z</time></trkpt><trkpt lat="44.468778718136804" lon="8.610831370097042"><ele>735.0</ele><time>2026-04-06T07:49:06.999Z</time></trkpt><trkpt lat="44.46882462586452" lon="8.611004449512278"><ele>735.0</ele><time>2026-04-06T07:49:07.999Z</time></trkpt><trkpt lat="44.46887246571471" lon="8.611165525925093"><ele>735.0</ele><time>2026-04-06T07:49:08.999Z</time></trkpt><trkpt lat="44.468900453296506" lon="8.611316552241982"><ele>735.0</ele><time>2026-04-06T07:49:09.999Z</time></trkpt><trkpt lat="44.46888687195931" lon="8.611468480063886"><ele>734.8</ele><time>2026-04-06T07:49:10.999Z</time></trkpt><trkpt lat="44.46882796891834" lon="8.611597421813439"><ele>734.6</ele><time>2026-04-06T07:49:11.999Z</time></trkpt><trkpt lat="44.46875873807441" lon="8.611684518802859"><ele>734.4000000000001</ele><time>2026-04-06T07:49:12.999Z</time></trkpt><trkpt lat="44.46866844295069" lon="8.61174786449998"><ele>734.2</ele><time>2026-04-06T07:49:13.999Z</time></trkpt><trkpt lat="44.468566935128834" lon="8.611764431311622"><ele>734.0</ele><time>2026-04-06T07:49:14.999Z</time></trkpt><trkpt lat="44.46845859344359" lon="8.611717919743132"><ele>730.0</ele><time>2026-04-06T07:49:15.999Z</time></trkpt><trkpt lat="44.46836136080388" lon="8.611612118907622"><ele>726.0</ele><time>2026-04-06T07:49:16.999Z</time></trkpt><trkpt lat="44.468305532303766" lon="8.611496470375062"><ele>722.0</ele><time>2026-04-06T07:49:17.999Z</time></trkpt><trkpt lat="44.46829577438322" lon="8.611342320318998"><ele>718.0</ele><time>2026-04-06T07:49:18.999Z</time></trkpt><trkpt lat="44.4683074479687" lon="8.61116705278894"><ele>716.5</ele><time>2026-04-06T07:49:19.999Z</time></trkpt><trkpt lat="44.468336000335206" lon="8.610991655943062"><ele>715.0</ele><time>2026-04-06T07:49:20.999Z</time></trkpt><trkpt lat="44.46835895272281" lon="8.61081661505197"><ele>713.5</ele><time>2026-04-06T07:49:21.999Z</time></trkpt><trkpt lat="44.46837616377437" lon="8.610637031898152"><ele>712.0</ele><time>2026-04-06T07:49:22.999Z</time></trkpt><trkpt lat="44.468386990317335" lon="8.610455588269389"><ele>712.75</ele><time>2026-04-06T07:49:23.999Z</time></trkpt><trkpt lat="44.46839598535985" lon="8.610277848344031"><ele>713.5</ele><time>2026-04-06T07:49:24.999Z</time></trkpt><trkpt lat="44.468398570999895" lon="8.610103579398585"><ele>714.25</ele><time>2026-04-06T07:49:25.999Z</time></trkpt><trkpt lat="44.46836282675253" lon="8.609951284012554"><ele>715.0</ele><time>2026-04-06T07:49:26.999Z</time></trkpt><trkpt lat="44.46829383353206" lon="8.609825201303092"><ele>715.0</ele><time>2026-04-06T07:49:27.999Z</time></trkpt><trkpt lat="44.46821019738573" lon="8.609716165694497"><ele>715.0</ele><time>2026-04-06T07:49:28.999Z</time></trkpt><trkpt lat="44.468131247349646" lon="8.60965367378272"><ele>715.0</ele><time>2026-04-06T07:49:29.999Z</time></trkpt><trkpt lat="44.46804337410525" lon="8.609577657170085"><ele>715.0</ele><time>2026-04-06T07:49:30.999Z</time></trkpt><trkpt lat="44.467969864028866" lon="8.609502197783014"><ele>715.0</ele><time>2026-04-06T07:49:31.999Z</time></trkpt><trkpt lat="44.46789666801439" lon="8.609422807482302"><ele>710.6</ele><time>2026-04-06T07:49:32.999Z</time></trkpt><trkpt lat="44.46782147206176" lon="8.609346628767547"><ele>706.2</ele><time>2026-04-06T07:49:33.999Z</time></trkpt><trkpt lat="44.46774298798316" lon="8.609239752675798"><ele>701.8</ele><time>2026-04-06T07:49:34.999Z</time></trkpt><trkpt lat="44.46766441848716" lon="8.60914453215161"><ele>697.4</ele><time>2026-04-06T07:49:35.999Z</time></trkpt><trkpt lat="44.46759044758735" lon="8.609068008305888"><ele>693.0</ele><time>2026-04-06T07:49:36.999Z</time></trkpt><trkpt lat="44.46753232189172" lon="8.608978410421857"><ele>693.0</ele><time>2026-04-06T07:49:37.999Z</time></trkpt><trkpt lat="44.46748010167489" lon="8.608870079701985"><ele>693.0</ele><time>2026-04-06T07:49:38.999Z</time></trkpt><trkpt lat="44.46745646756801" lon="8.608748219306396"><ele>693.0</ele><time>2026-04-06T07:49:39.999Z</time></trkpt><trkpt lat="44.46746021167679" lon="8.608616901073622"><ele>693.0</ele><time>2026-04-06T07:49:40.999Z</time></trkpt><trkpt lat="44.46749325794757" lon="8.608492588838658"><ele>693.0</ele><time>2026-04-06T07:49:41.999Z</time></trkpt><trkpt lat="44.46753442777532" lon="8.608384529012053"><ele>694.8</ele><time>2026-04-06T07:49:42.999Z</time></trkpt><trkpt lat="44.467583314783795" lon="8.608281218162702"><ele>696.5999999999999</ele><time>2026-04-06T07:49:43.999Z</time></trkpt><trkpt lat="44.46760813916357" lon="8.60816691187831"><ele>698.4000000000001</ele><time>2026-04-06T07:49:44.999Z</time></trkpt><trkpt lat="44.46759978197143" lon="8.608044514096681"><ele>700.2</ele><time>2026-04-06T07:49:45.999Z</time></trkpt><trkpt lat="44.467553749146944" lon="8.60793321205349"><ele>702.0</ele><time>2026-04-06T07:49:46.999Z</time></trkpt><trkpt lat="44.46748424338002" lon="8.607838891840952"><ele>703.6666666666666</ele><time>2026-04-06T07:49:47.999Z</time></trkpt><trkpt lat="44.467409052085614" lon="8.607771548544164"><ele>705.3333333333334</ele><time>2026-04-06T07:49:48.999Z</time></trkpt><trkpt lat="44.4673332473415" lon="8.607714026583801"><ele>707.0</ele><time>2026-04-06T07:49:49.999Z</time></trkpt><trkpt lat="44.467251902828174" lon="8.607675978131867"><ele>708.6666666666667</ele><time>2026-04-06T07:49:50.999Z</time></trkpt><trkpt lat="44.4671633123816" lon="8.607673784589169"><ele>710.3333333333334</ele><time>2026-04-06T07:49:51.999Z</time></trkpt><trkpt lat="44.46707277177305" lon="8.607680075540571"><ele>712.0</ele><time>2026-04-06T07:49:52.999Z</time></trkpt><trkpt lat="44.466986037873745" lon="8.607695603012978"><ele>707.8333333333334</ele><time>2026-04-06T07:49:53.999Z</time></trkpt><trkpt lat="44.466909232761026" lon="8.607732511817698"><ele>703.6666666666667</ele><time>2026-04-06T07:49:54.999Z</time></trkpt><trkpt lat="44.46682627893542" lon="8.607782663921757"><ele>699.5</ele><time>2026-04-06T07:49:55.999Z</time></trkpt><trkpt lat="44.466750755694434" lon="8.607844117152526"><ele>695.3333333333334</ele><time>2026-04-06T07:49:56.999Z</time></trkpt><trkpt lat="44.466683536491075" lon="8.607925546731233"><ele>691.1666666666666</ele><time>2026-04-06T07:49:57.999Z</time></trkpt><trkpt lat="44.46663940355866" lon="8.608024354018456"><ele>687.0</ele><time>2026-04-06T07:49:58.999Z</time></trkpt><trkpt lat="44.46662260385282" lon="8.608132581830484"><ele>686.3333333333334</ele><time>2026-04-06T07:49:59.999Z</time></trkpt><trkpt lat="44.466634539367156" lon="8.608247408795377"><ele>685.6666666666666</ele><time>2026-04-06T07:50:00.999Z</time></trkpt><trkpt lat="44.46666124937449" lon="8.608359119668991"><ele>685.0</ele><time>2026-04-06T07:50:01.999Z</time></trkpt><trkpt lat="44.466701291377504" lon="8.60845754842853"><ele>684.3333333333333</ele><time>2026-04-06T07:50:02.999Z</time></trkpt><trkpt lat="44.46672647728669" lon="8.608569460411166"><ele>683.6666666666666</ele><time>2026-04-06T07:50:03.999Z</time></trkpt><trkpt lat="44.46680171475638" lon="8.608649615649979"><ele>683.0</ele><time>2026-04-06T07:50:04.999Z</time></trkpt><trkpt lat="44.466876473504115" lon="8.608722382206789"><ele>681.4</ele><time>2026-04-06T07:50:05.999Z</time></trkpt><trkpt lat="44.46694721033125" lon="8.60880337169892"><ele>679.8</ele><time>2026-04-06T07:50:06.999Z</time></trkpt><trkpt lat="44.46701667151825" lon="8.60888743365523"><ele>678.2</ele><time>2026-04-06T07:50:07.999Z</time></trkpt><trkpt lat="44.467083472128785" lon="8.608970187869527"><ele>676.6</ele><time>2026-04-06T07:50:08.999Z</time></trkpt><trkpt lat="44.46715393411035" lon="8.609058601119802"><ele>675.0</ele><time>2026-04-06T07:50:09.999Z</time></trkpt><trkpt lat="44.467216035308475" lon="8.609155684928536"><ele>677.4</ele><time>2026-04-06T07:50:10.998Z</time></trkpt><trkpt lat="44.46727172535547" lon="8.609263226353674"><ele>679.8</ele><time>2026-04-06T07:50:11.998Z</time></trkpt><trkpt lat="44.46731881366424" lon="8.609375436257537"><ele>682.2</ele><time>2026-04-06T07:50:12.998Z</time></trkpt><trkpt lat="44.46735814397829" lon="8.60948815556917"><ele>684.6</ele><time>2026-04-06T07:50:13.998Z</time></trkpt><trkpt lat="44.467355802868504" lon="8.6096071596996"><ele>687.0</ele><time>2026-04-06T07:50:14.998Z</time></trkpt><trkpt lat="44.4673135715834" lon="8.6097163587243"><ele>687.0</ele><time>2026-04-06T07:50:15.998Z</time></trkpt><trkpt lat="44.46723742579371" lon="8.609787662534993"><ele>687.0</ele><time>2026-04-06T07:50:16.998Z</time></trkpt><trkpt lat="44.467141830978264" lon="8.60982635735906"><ele>687.0</ele><time>2026-04-06T07:50:17.998Z</time></trkpt><trkpt lat="44.46704760789679" lon="8.609826852749547"><ele>687.0</ele><time>2026-04-06T07:50:18.998Z</time></trkpt><trkpt lat="44.466957403769264" lon="8.609770611684935"><ele>687.0</ele><time>2026-04-06T07:50:19.998Z</time></trkpt><trkpt lat="44.46689488039763" lon="8.609672173194632"><ele>684.6</ele><time>2026-04-06T07:50:20.998Z</time></trkpt><trkpt lat="44.4668311587792" lon="8.609572213180064"><ele>682.2</ele><time>2026-04-06T07:50:21.998Z</time></trkpt><trkpt lat="44.466765475669035" lon="8.609476039090142"><ele>679.8</ele><time>2026-04-06T07:50:22.998Z</time></trkpt><trkpt lat="44.466694104814515" lon="8.609381601317308"><ele>677.4</ele><time>2026-04-06T07:50:24Z</time></trkpt><trkpt lat="44.46662689660994" lon="8.609288113253118"><ele>675.0</ele><time>2026-04-06T07:50:25Z</time></trkpt><trkpt lat="44.466553911139485" lon="8.609194958498689"><ele>675.0</ele><time>2026-04-06T07:50:26Z</time></trkpt><trkpt lat="44.46649087957397" lon="8.60911125671024"><ele>675.0</ele><time>2026-04-06T07:50:27Z</time></trkpt><trkpt lat="44.4664223018108" lon="8.609026263701448"><ele>675.0</ele><time>2026-04-06T07:50:28Z</time></trkpt><trkpt lat="44.46635191728278" lon="8.608943540848959"><ele>675.0</ele><time>2026-04-06T07:50:29Z</time></trkpt><trkpt lat="44.46628484743022" lon="8.608858657463433"><ele>675.0</ele><time>2026-04-06T07:50:30Z</time></trkpt><trkpt lat="44.46622231434364" lon="8.60878431159224"><ele>675.0</ele><time>2026-04-06T07:50:31Z</time></trkpt><trkpt lat="44.46616003572319" lon="8.608709140470719"><ele>674.0</ele><time>2026-04-06T07:50:32Z</time></trkpt><trkpt lat="44.466101246704724" lon="8.608628543952184"><ele>673.0</ele><time>2026-04-06T07:50:33Z</time></trkpt><trkpt lat="44.46605487596426" lon="8.608534273851431"><ele>672.0</ele><time>2026-04-06T07:50:34Z</time></trkpt><trkpt lat="44.46602100436068" lon="8.608440930558505"><ele>671.0</ele><time>2026-04-06T07:50:35Z</time></trkpt><trkpt lat="44.46602442130405" lon="8.60831013690267"><ele>670.0</ele><time>2026-04-06T07:50:36Z</time></trkpt><trkpt lat="44.466024503347676" lon="8.608170436902418"><ele>669.0</ele><time>2026-04-06T07:50:37Z</time></trkpt><trkpt lat="44.46601930372508" lon="8.608044562774717"><ele>669.0</ele><time>2026-04-06T07:50:38Z</time></trkpt><trkpt lat="44.46602512886908" lon="8.607923834849942"><ele>669.0</ele><time>2026-04-06T07:50:39Z</time></trkpt><trkpt lat="44.46602744358212" lon="8.60780135317555"><ele>669.0</ele><time>2026-04-06T07:50:40Z</time></trkpt><trkpt lat="44.46603584906028" lon="8.607683737449719"><ele>669.0</ele><time>2026-04-06T07:50:41Z</time></trkpt><trkpt lat="44.466038153588116" lon="8.607563510787251"><ele>669.0</ele><time>2026-04-06T07:50:42Z</time></trkpt><trkpt lat="44.46603069873139" lon="8.607445015745261"><ele>669.0</ele><time>2026-04-06T07:50:43Z</time></trkpt><trkpt lat="44.46600606874232" lon="8.607335778251754"><ele>669.0</ele><time>2026-04-06T07:50:44Z</time></trkpt><trkpt lat="44.46598250540402" lon="8.607224796658103"><ele>669.0</ele><time>2026-04-06T07:50:45Z</time></trkpt><trkpt lat="44.46595921037251" lon="8.607123194427317"><ele>669.0</ele><time>2026-04-06T07:50:46Z</time></trkpt><trkpt lat="44.46593059063135" lon="8.607020584770902"><ele>669.0</ele><time>2026-04-06T07:50:47Z</time></trkpt><trkpt lat="44.465897841261594" lon="8.606925832139225"><ele>669.0</ele><time>2026-04-06T07:50:48Z</time></trkpt><trkpt lat="44.46586132926225" lon="8.60683590994525"><ele>669.0</ele><time>2026-04-06T07:50:49Z</time></trkpt><trkpt lat="44.465820156838255" lon="8.606732082491519"><ele>670.4000000000001</ele><time>2026-04-06T07:50:50Z</time></trkpt><trkpt lat="44.46577651511615" lon="8.606609953010157"><ele>671.8</ele><time>2026-04-06T07:50:51Z</time></trkpt><trkpt lat="44.46573672750166" lon="8.606468619764666"><ele>673.2</ele><time>2026-04-06T07:50:52Z</time></trkpt><trkpt lat="44.465710533765" lon="8.606317365562745"><ele>674.5999999999999</ele><time>2026-04-06T07:50:53Z</time></trkpt><trkpt lat="44.46573095877537" lon="8.6061631529646"><ele>676.0</ele><time>2026-04-06T07:50:54Z</time></trkpt><trkpt lat="44.46576096808137" lon="8.606017475887517"><ele>676.1999999999999</ele><time>2026-04-06T07:50:55Z</time></trkpt><trkpt lat="44.465780213824004" lon="8.605883370135805"><ele>676.4</ele><time>2026-04-06T07:50:56Z</time></trkpt><trkpt lat="44.46579698123033" lon="8.60574917107861"><ele>676.6</ele><time>2026-04-06T07:50:56.999Z</time></trkpt><trkpt lat="44.465805787128424" lon="8.605620788523657"><ele>676.8</ele><time>2026-04-06T07:50:57.999Z</time></trkpt><trkpt lat="44.46581425837934" lon="8.60549852291367"><ele>677.0</ele><time>2026-04-06T07:50:58.999Z</time></trkpt><trkpt lat="44.465832900308" lon="8.60538733161164"><ele>674.3333333333333</ele><time>2026-04-06T07:50:59.999Z</time></trkpt><trkpt lat="44.46585241686989" lon="8.605275656571886"><ele>671.6666666666666</ele><time>2026-04-06T07:51:00.999Z</time></trkpt><trkpt lat="44.465898335533026" lon="8.60518124157651"><ele>669.0</ele><time>2026-04-06T07:51:01.999Z</time></trkpt><trkpt lat="44.46597084543853" lon="8.605110419110119"><ele>666.3333333333334</ele><time>2026-04-06T07:51:02.999Z</time></trkpt><trkpt lat="44.46604584096402" lon="8.605056865265864"><ele>663.6666666666667</ele><time>2026-04-06T07:51:03.999Z</time></trkpt><trkpt lat="44.46612270260953" lon="8.604996071795505"><ele>661.0</ele><time>2026-04-06T07:51:04.999Z</time></trkpt><trkpt lat="44.466181423767175" lon="8.60486292683202"><ele>661.0</ele><time>2026-04-06T07:51:05.999Z</time></trkpt><trkpt lat="44.46622717888499" lon="8.604693242766341"><ele>661.0</ele><time>2026-04-06T07:51:06.999Z</time></trkpt><trkpt lat="44.46628253290001" lon="8.604529839482785"><ele>661.0</ele><time>2026-04-06T07:51:07.999Z</time></trkpt><trkpt lat="44.46634077652423" lon="8.60437580007344"><ele>661.0</ele><time>2026-04-06T07:51:08.999Z</time></trkpt><trkpt lat="44.46640163362649" lon="8.604225198236758"><ele>658.5</ele><time>2026-04-06T07:51:09.999Z</time></trkpt><trkpt lat="44.4664547485576" lon="8.604081008675482"><ele>656.0</ele><time>2026-04-06T07:51:10.999Z</time></trkpt><trkpt lat="44.46650360146384" lon="8.603939536137059"><ele>653.5</ele><time>2026-04-06T07:51:11.999Z</time></trkpt><trkpt lat="44.4665511780218" lon="8.603797659028908"><ele>651.0</ele><time>2026-04-06T07:51:12.999Z</time></trkpt><trkpt lat="44.46659419033637" lon="8.603655524967662"><ele>651.0</ele><time>2026-04-06T07:51:13.999Z</time></trkpt><trkpt lat="44.466643674490136" lon="8.603524505128748"><ele>651.0</ele><time>2026-04-06T07:51:14.999Z</time></trkpt><trkpt lat="44.46670425997547" lon="8.603407606111045"><ele>651.0</ele><time>2026-04-06T07:51:15.999Z</time></trkpt><trkpt lat="44.466784004241696" lon="8.603308261812304"><ele>651.0</ele><time>2026-04-06T07:51:16.999Z</time></trkpt><trkpt lat="44.466889682530514" lon="8.60322640565596"><ele>651.0</ele><time>2026-04-06T07:51:17.999Z</time></trkpt><trkpt lat="44.46700969625592" lon="8.603153235222505"><ele>652.0</ele><time>2026-04-06T07:51:18.999Z</time></trkpt><trkpt lat="44.467123616887875" lon="8.603062352074023"><ele>653.0</ele><time>2026-04-06T07:51:19.999Z</time></trkpt><trkpt lat="44.467229790851825" lon="8.602952626585589"><ele>654.0</ele><time>2026-04-06T07:51:20.999Z</time></trkpt><trkpt lat="44.46732409638809" lon="8.602830090991025"><ele>655.0</ele><time>2026-04-06T07:51:21.999Z</time></trkpt><trkpt lat="44.467419763021276" lon="8.602707458366142"><ele>655.0</ele><time>2026-04-06T07:51:22.999Z</time></trkpt><trkpt lat="44.46752139370086" lon="8.602598989314437"><ele>655.0</ele><time>2026-04-06T07:51:23.999Z</time></trkpt><trkpt lat="44.46763362853561" lon="8.60250102600017"><ele>655.0</ele><time>2026-04-06T07:51:24.999Z</time></trkpt><trkpt lat="44.4677456773537" lon="8.602406131022262"><ele>655.0</ele><time>2026-04-06T07:51:25.999Z</time></trkpt><trkpt lat="44.467862654482694" lon="8.602320924462406"><ele>658.0</ele><time>2026-04-06T07:51:26.999Z</time></trkpt><trkpt lat="44.467985346330956" lon="8.602258540669693"><ele>661.0</ele><time>2026-04-06T07:51:27.999Z</time></trkpt><trkpt lat="44.468108560646485" lon="8.602227931014184"><ele>664.0</ele><time>2026-04-06T07:51:28.999Z</time></trkpt><trkpt lat="44.468237782746314" lon="8.602223505504277"><ele>667.0</ele><time>2026-04-06T07:51:29.999Z</time></trkpt><trkpt lat="44.4683608036339" lon="8.602198327487983"><ele>667.0</ele><time>2026-04-06T07:51:30.999Z</time></trkpt><trkpt lat="44.46847836492239" lon="8.602153383342865"><ele>667.0</ele><time>2026-04-06T07:51:31.999Z</time></trkpt><trkpt lat="44.46858118280274" lon="8.602081233936174"><ele>667.0</ele><time>2026-04-06T07:51:32.999Z</time></trkpt><trkpt lat="44.46866648657951" lon="8.60197856128164"><ele>667.0</ele><time>2026-04-06T07:51:33.999Z</time></trkpt><trkpt lat="44.468735096784904" lon="8.601836025535807"><ele>665.5</ele><time>2026-04-06T07:51:34.999Z</time></trkpt><trkpt lat="44.46878513397424" lon="8.601699227999612"><ele>664.0</ele><time>2026-04-06T07:51:35.999Z</time></trkpt><trkpt lat="44.46886399955094" lon="8.601590294878102"><ele>662.5</ele><time>2026-04-06T07:51:36.999Z</time></trkpt><trkpt lat="44.46898072388583" lon="8.601534518520744"><ele>661.0</ele><time>2026-04-06T07:51:37.999Z</time></trkpt><trkpt lat="44.46911592132723" lon="8.601489709938722"><ele>661.0</ele><time>2026-04-06T07:51:38.999Z</time></trkpt><trkpt lat="44.469246158114444" lon="8.601424799795842"><ele>661.0</ele><time>2026-04-06T07:51:39.999Z</time></trkpt><trkpt lat="44.46936453589964" lon="8.601324033034537"><ele>661.0</ele><time>2026-04-06T07:51:40.999Z</time></trkpt><trkpt lat="44.46946995366534" lon="8.601189065749278"><ele>661.0</ele><time>2026-04-06T07:51:41.999Z</time></trkpt><trkpt lat="44.469570788718414" lon="8.601048998282433"><ele>656.75</ele><time>2026-04-06T07:51:42.999Z</time></trkpt><trkpt lat="44.46968234539794" lon="8.600942606104738"><ele>652.5</ele><time>2026-04-06T07:51:43.999Z</time></trkpt><trkpt lat="44.46981654912209" lon="8.600893860683193"><ele>648.25</ele><time>2026-04-06T07:51:44.999Z</time></trkpt><trkpt lat="44.46995413625086" lon="8.600876129073962"><ele>644.0</ele><time>2026-04-06T07:51:45.999Z</time></trkpt><trkpt lat="44.47009624897325" lon="8.600895271722429"><ele>644.0</ele><time>2026-04-06T07:51:46.999Z</time></trkpt><trkpt lat="44.47023403655405" lon="8.60089442922742"><ele>644.0</ele><time>2026-04-06T07:51:47.999Z</time></trkpt><trkpt lat="44.47038097352468" lon="8.600894081372807"><ele>644.0</ele><time>2026-04-06T07:51:48.999Z</time></trkpt><trkpt lat="44.470515812347244" lon="8.600880486993535"><ele>644.0</ele><time>2026-04-06T07:51:49.999Z</time></trkpt><trkpt lat="44.47065900221009" lon="8.600870608690188"><ele>643.75</ele><time>2026-04-06T07:51:50.999Z</time></trkpt><trkpt lat="44.47080294477072" lon="8.600888397536291"><ele>643.5</ele><time>2026-04-06T07:51:51.999Z</time></trkpt><trkpt lat="44.47095008683956" lon="8.600910376544034"><ele>643.25</ele><time>2026-04-06T07:51:52.999Z</time></trkpt><trkpt lat="44.471100760452245" lon="8.600921699861667"><ele>643.0</ele><time>2026-04-06T07:51:53.999Z</time></trkpt><trkpt lat="44.47124709513505" lon="8.60093050748777"><ele>643.0</ele><time>2026-04-06T07:51:54.999Z</time></trkpt><trkpt lat="44.471386875649316" lon="8.60093898396609"><ele>643.0</ele><time>2026-04-06T07:51:55.999Z</time></trkpt><trkpt lat="44.47152939990935" lon="8.600941466318798"><ele>643.0</ele><time>2026-04-06T07:51:56.999Z</time></trkpt><trkpt lat="44.471674739741665" lon="8.600898397359268"><ele>643.0</ele><time>2026-04-06T07:51:57.999Z</time></trkpt><trkpt lat="44.47181727577936" lon="8.600838151818774"><ele>643.0</ele><time>2026-04-06T07:51:58.999Z</time></trkpt><trkpt lat="44.47195863003982" lon="8.600781536463932"><ele>643.0</ele><time>2026-04-06T07:51:59.999Z</time></trkpt><trkpt lat="44.47210165733792" lon="8.600742467263176"><ele>643.0</ele><time>2026-04-06T07:52:00.999Z</time></trkpt><trkpt lat="44.472238084996576" lon="8.600684251438029"><ele>643.0</ele><time>2026-04-06T07:52:01.999Z</time></trkpt><trkpt lat="44.47237414803961" lon="8.600592709241043"><ele>645.5</ele><time>2026-04-06T07:52:02.999Z</time></trkpt><trkpt lat="44.4725062363944" lon="8.600497744109273"><ele>648.0</ele><time>2026-04-06T07:52:03.999Z</time></trkpt><trkpt lat="44.47261407647805" lon="8.600377775608727"><ele>650.5</ele><time>2026-04-06T07:52:04.999Z</time></trkpt><trkpt lat="44.47269870334056" lon="8.600226300060866"><ele>653.0</ele><time>2026-04-06T07:52:05.999Z</time></trkpt><trkpt lat="44.4727632499103" lon="8.60004981467356"><ele>654.0</ele><time>2026-04-06T07:52:06.999Z</time></trkpt><trkpt lat="44.472821167777894" lon="8.599925721637218"><ele>655.0</ele><time>2026-04-06T07:52:07.999Z</time></trkpt><trkpt lat="44.4729290860433" lon="8.599753385742"><ele>656.0</ele><time>2026-04-06T07:52:08.998Z</time></trkpt><trkpt lat="44.473056373036144" lon="8.599622941430722"><ele>657.0</ele><time>2026-04-06T07:52:09.998Z</time></trkpt><trkpt lat="44.47318503361642" lon="8.599507120348868"><ele>643.6666666666666</ele><time>2026-04-06T07:52:10.998Z</time></trkpt><trkpt lat="44.473315912404644" lon="8.599388221803512"><ele>630.3333333333333</ele><time>2026-04-06T07:52:11.998Z</time></trkpt><trkpt lat="44.47344689966442" lon="8.59926303867281"><ele>617.0</ele><time>2026-04-06T07:52:12.998Z</time></trkpt><trkpt lat="44.47357726601279" lon="8.599129721702218"><ele>617.0</ele><time>2026-04-06T07:52:13.998Z</time></trkpt><trkpt lat="44.47370581364712" lon="8.59898950711171"><ele>617.0</ele><time>2026-04-06T07:52:14.998Z</time></trkpt><trkpt lat="44.473837766622836" lon="8.598844066469235"><ele>617.0</ele><time>2026-04-06T07:52:15.998Z</time></trkpt><trkpt lat="44.473966639335245" lon="8.598727938017532"><ele>616.3333333333333</ele><time>2026-04-06T07:52:16.998Z</time></trkpt><trkpt lat="44.47411060557206" lon="8.59861999151213"><ele>615.6666666666666</ele><time>2026-04-06T07:52:17.998Z</time></trkpt><trkpt lat="44.474261754662464" lon="8.598514266847479"><ele>615.0</ele><time>2026-04-06T07:52:18.998Z</time></trkpt><trkpt lat="44.474413936036385" lon="8.598399547644428"><ele>615.0</ele><time>2026-04-06T07:52:19.998Z</time></trkpt><trkpt lat="44.47456322494847" lon="8.59827355026758"><ele>615.0</ele><time>2026-04-06T07:52:20.998Z</time></trkpt><trkpt lat="44.47471458875461" lon="8.598148850572484"><ele>615.0</ele><time>2026-04-06T07:52:21.998Z</time></trkpt><trkpt lat="44.474871706085594" lon="8.598026535645536"><ele>613.0</ele><time>2026-04-06T07:52:22.998Z</time></trkpt><trkpt lat="44.47502142890056" lon="8.597907603603021"><ele>611.0</ele><time>2026-04-06T07:52:23.998Z</time></trkpt><trkpt lat="44.475166412231495" lon="8.5977923109234"><ele>609.0</ele><time>2026-04-06T07:52:24.998Z</time></trkpt><trkpt lat="44.47530774327484" lon="8.597665783308223"><ele>614.6666666666666</ele><time>2026-04-06T07:52:25.998Z</time></trkpt><trkpt lat="44.47544900253032" lon="8.597553545912119"><ele>620.3333333333333</ele><time>2026-04-06T07:52:26.998Z</time></trkpt><trkpt lat="44.47559023221999" lon="8.597458298916045"><ele>626.0</ele><time>2026-04-06T07:52:27.998Z</time></trkpt><trkpt lat="44.475731608795826" lon="8.59737589799463"><ele>626.0</ele><time>2026-04-06T07:52:28.998Z</time></trkpt><trkpt lat="44.47587642326385" lon="8.597318047196774"><ele>626.0</ele><time>2026-04-06T07:52:29.999Z</time></trkpt><trkpt lat="44.47601358074575" lon="8.597279186350136"><ele>626.0</ele><time>2026-04-06T07:52:30.999Z</time></trkpt><trkpt lat="44.47616178276925" lon="8.59725211879674"><ele>626.0</ele><time>2026-04-06T07:52:31.999Z</time></trkpt><trkpt lat="44.4763228252689" lon="8.597230299816733"><ele>625.6666666666666</ele><time>2026-04-06T07:52:32.999Z</time></trkpt><trkpt lat="44.47647011787685" lon="8.597240720841205"><ele>625.3333333333334</ele><time>2026-04-06T07:52:33.999Z</time></trkpt><trkpt lat="44.4766230393024" lon="8.597311672507361"><ele>625.0</ele><time>2026-04-06T07:52:34.999Z</time></trkpt><trkpt lat="44.47677117375323" lon="8.597402470489786"><ele>625.0</ele><time>2026-04-06T07:52:35.999Z</time></trkpt><trkpt lat="44.47690967994888" lon="8.597466990912388"><ele>625.0</ele><time>2026-04-06T07:52:36.999Z</time></trkpt><trkpt lat="44.47703781447531" lon="8.597561676231317"><ele>625.0</ele><time>2026-04-06T07:52:37.999Z</time></trkpt><trkpt lat="44.47718725694486" lon="8.597719111224649"><ele>624.5</ele><time>2026-04-06T07:52:38.999Z</time></trkpt><trkpt lat="44.477290915232125" lon="8.597819356948147"><ele>624.0</ele><time>2026-04-06T07:52:39.999Z</time></trkpt><trkpt lat="44.47739751400537" lon="8.597944448356051"><ele>623.5</ele><time>2026-04-06T07:52:40.999Z</time></trkpt><trkpt lat="44.477510739770075" lon="8.598061467605792"><ele>623.0</ele><time>2026-04-06T07:52:41.999Z</time></trkpt><trkpt lat="44.47762180740212" lon="8.598180889018424"><ele>623.0</ele><time>2026-04-06T07:52:42.999Z</time></trkpt><trkpt lat="44.47773412030756" lon="8.598298622018527"><ele>623.0</ele><time>2026-04-06T07:52:43.999Z</time></trkpt><trkpt lat="44.47783014005934" lon="8.598440231681007"><ele>623.0</ele><time>2026-04-06T07:52:44.999Z</time></trkpt><trkpt lat="44.477902830968" lon="8.59862475166274"><ele>623.0</ele><time>2026-04-06T07:52:45.999Z</time></trkpt><trkpt lat="44.477971499165065" lon="8.598823505810902"><ele>612.0</ele><time>2026-04-06T07:52:46.999Z</time></trkpt><trkpt lat="44.478031494390876" lon="8.599027912459876"><ele>601.0</ele><time>2026-04-06T07:52:47.999Z</time></trkpt><trkpt lat="44.47809497232056" lon="8.599231109238056"><ele>590.0</ele><time>2026-04-06T07:52:48.999Z</time></trkpt><trkpt lat="44.478162298905744" lon="8.599432577728114"><ele>597.6666666666666</ele><time>2026-04-06T07:52:49.999Z</time></trkpt><trkpt lat="44.478225879600465" lon="8.599622209353704"><ele>605.3333333333334</ele><time>2026-04-06T07:52:50.999Z</time></trkpt><trkpt lat="44.4783087077647" lon="8.599827017907327"><ele>613.0</ele><time>2026-04-06T07:52:51.999Z</time></trkpt><trkpt lat="44.478415473259105" lon="8.599990805291005"><ele>613.0</ele><time>2026-04-06T07:52:52.999Z</time></trkpt><trkpt lat="44.47852384101493" lon="8.600149281515415"><ele>613.0</ele><time>2026-04-06T07:52:53.999Z</time></trkpt><trkpt lat="44.4786364177182" lon="8.600308332411089"><ele>613.0</ele><time>2026-04-06T07:52:54.999Z</time></trkpt><trkpt lat="44.47875483772367" lon="8.600460685558353"><ele>612.0</ele><time>2026-04-06T07:52:55.999Z</time></trkpt><trkpt lat="44.47885957499299" lon="8.600594696838705"><ele>611.0</ele><time>2026-04-06T07:52:56.999Z</time></trkpt><trkpt lat="44.47895864005876" lon="8.600715050114449"><ele>610.0</ele><time>2026-04-06T07:52:57.999Z</time></trkpt><trkpt lat="44.4790662663318" lon="8.600768277212705"><ele>609.0</ele><time>2026-04-06T07:52:58.999Z</time></trkpt><trkpt lat="44.47918250232684" lon="8.600748266571564"><ele>609.0</ele><time>2026-04-06T07:52:59.999Z</time></trkpt><trkpt lat="44.47930653703493" lon="8.600679640529545"><ele>609.0</ele><time>2026-04-06T07:53:00.999Z</time></trkpt><trkpt lat="44.47943866096589" lon="8.600637739532718"><ele>609.0</ele><time>2026-04-06T07:53:01.999Z</time></trkpt><trkpt lat="44.47958253063169" lon="8.600631949204038"><ele>609.0</ele><time>2026-04-06T07:53:02.999Z</time></trkpt><trkpt lat="44.47973095066591" lon="8.600627480432115"><ele>611.3333333333334</ele><time>2026-04-06T07:53:03.999Z</time></trkpt><trkpt lat="44.47988508643753" lon="8.600577817427135"><ele>613.6666666666667</ele><time>2026-04-06T07:53:04.999Z</time></trkpt><trkpt lat="44.480040177278894" lon="8.60051403432832"><ele>616.0</ele><time>2026-04-06T07:53:05.999Z</time></trkpt><trkpt lat="44.48019263160098" lon="8.600421614836542"><ele>612.6666666666667</ele><time>2026-04-06T07:53:06.999Z</time></trkpt><trkpt lat="44.48033601875279" lon="8.600307727708493"><ele>609.3333333333334</ele><time>2026-04-06T07:53:07.999Z</time></trkpt><trkpt lat="44.4804635871162" lon="8.600178876421058"><ele>606.0</ele><time>2026-04-06T07:53:08.999Z</time></trkpt><trkpt lat="44.48057878834351" lon="8.600032126811127"><ele>606.0</ele><time>2026-04-06T07:53:09.999Z</time></trkpt><trkpt lat="44.48068634913795" lon="8.599866728759636"><ele>606.0</ele><time>2026-04-06T07:53:10.999Z</time></trkpt><trkpt lat="44.48077966019263" lon="8.599683841068892"><ele>606.0</ele><time>2026-04-06T07:53:11.999Z</time></trkpt><trkpt lat="44.48086471120425" lon="8.59949070287758"><ele>595.6666666666666</ele><time>2026-04-06T07:53:12.999Z</time></trkpt><trkpt lat="44.48095147955645" lon="8.599294109595347"><ele>585.3333333333333</ele><time>2026-04-06T07:53:13.999Z</time></trkpt><trkpt lat="44.48104661641491" lon="8.59909989997704"><ele>575.0</ele><time>2026-04-06T07:53:14.999Z</time></trkpt><trkpt lat="44.48114877399393" lon="8.598942410249736"><ele>575.0</ele><time>2026-04-06T07:53:15.999Z</time></trkpt><trkpt lat="44.48125231286608" lon="8.59877348507899"><ele>575.0</ele><time>2026-04-06T07:53:16.999Z</time></trkpt><trkpt lat="44.48135407242178" lon="8.598594794527061"><ele>575.0</ele><time>2026-04-06T07:53:17.999Z</time></trkpt><trkpt lat="44.48144679207062" lon="8.598399466945118"><ele>577.0</ele><time>2026-04-06T07:53:18.999Z</time></trkpt><trkpt lat="44.48151438555225" lon="8.598185158212685"><ele>579.0</ele><time>2026-04-06T07:53:19.999Z</time></trkpt><trkpt lat="44.48154985680612" lon="8.597962389403548"><ele>581.0</ele><time>2026-04-06T07:53:20.999Z</time></trkpt><trkpt lat="44.48158522773675" lon="8.597747548309663"><ele>581.0</ele><time>2026-04-06T07:53:21.999Z</time></trkpt><trkpt lat="44.48163220194997" lon="8.597532665299617"><ele>581.0</ele><time>2026-04-06T07:53:22.999Z</time></trkpt><trkpt lat="44.48169085076253" lon="8.597320973693252"><ele>581.0</ele><time>2026-04-06T07:53:23.999Z</time></trkpt><trkpt lat="44.48176538261901" lon="8.597117861336526"><ele>577.6666666666666</ele><time>2026-04-06T07:53:24.999Z</time></trkpt><trkpt lat="44.481839117939316" lon="8.596909912438278"><ele>574.3333333333334</ele><time>2026-04-06T07:53:25.999Z</time></trkpt><trkpt lat="44.48188927805154" lon="8.596697276072367"><ele>571.0</ele><time>2026-04-06T07:53:26.999Z</time></trkpt><trkpt lat="44.481940724334336" lon="8.59649616143422"><ele>571.0</ele><time>2026-04-06T07:53:27.999Z</time></trkpt><trkpt lat="44.48201187593995" lon="8.596290583753772"><ele>571.0</ele><time>2026-04-06T07:53:28.999Z</time></trkpt><trkpt lat="44.482093948137184" lon="8.596100633232481"><ele>571.0</ele><time>2026-04-06T07:53:29.999Z</time></trkpt><trkpt lat="44.48218102740016" lon="8.595927764483628"><ele>570.75</ele><time>2026-04-06T07:53:30.999Z</time></trkpt><trkpt lat="44.48227680901374" lon="8.59577086249634"><ele>570.5</ele><time>2026-04-06T07:53:31.999Z</time></trkpt><trkpt lat="44.48238844604971" lon="8.595642304181172"><ele>570.25</ele><time>2026-04-06T07:53:32.999Z</time></trkpt><trkpt lat="44.4824930415825" lon="8.595508770329552"><ele>570.0</ele><time>2026-04-06T07:53:33.999Z</time></trkpt><trkpt lat="44.482560312485695" lon="8.595329331783836"><ele>570.0</ele><time>2026-04-06T07:53:34.999Z</time></trkpt><trkpt lat="44.48258672470587" lon="8.595125874874926"><ele>570.0</ele><time>2026-04-06T07:53:35.999Z</time></trkpt><trkpt lat="44.482612758992914" lon="8.594911096205456"><ele>570.0</ele><time>2026-04-06T07:53:36.999Z</time></trkpt><trkpt lat="44.48262113639014" lon="8.59470326738599"><ele>570.0</ele><time>2026-04-06T07:53:37.999Z</time></trkpt><trkpt lat="44.48260085758554" lon="8.5945013060423"><ele>570.0</ele><time>2026-04-06T07:53:38.999Z</time></trkpt><trkpt lat="44.482527695385535" lon="8.59431450903983"><ele>570.0</ele><time>2026-04-06T07:53:39.999Z</time></trkpt><trkpt lat="44.48243225757695" lon="8.594167166771376"><ele>570.0</ele><time>2026-04-06T07:53:40.999Z</time></trkpt><trkpt lat="44.48233128065489" lon="8.594033464453416"><ele>570.0</ele><time>2026-04-06T07:53:41.999Z</time></trkpt><trkpt lat="44.48224830746309" lon="8.593877648847652"><ele>570.0</ele><time>2026-04-06T07:53:42.999Z</time></trkpt><trkpt lat="44.48219225309169" lon="8.593695572596191"><ele>570.0</ele><time>2026-04-06T07:53:43.999Z</time></trkpt><trkpt lat="44.48216094272146" lon="8.593519030052548"><ele>570.0</ele><time>2026-04-06T07:53:44.999Z</time></trkpt><trkpt lat="44.48216202944097" lon="8.593351065176995"><ele>570.0</ele><time>2026-04-06T07:53:45.999Z</time></trkpt><trkpt lat="44.48221175714104" lon="8.593195429595683"><ele>570.0</ele><time>2026-04-06T07:53:46.999Z</time></trkpt><trkpt lat="44.48228882470037" lon="8.593048241036234"><ele>570.0</ele><time>2026-04-06T07:53:47.999Z</time></trkpt><trkpt lat="44.482379972771916" lon="8.59291730246493"><ele>570.0</ele><time>2026-04-06T07:53:48.999Z</time></trkpt><trkpt lat="44.48248911195977" lon="8.59282219670387"><ele>570.0</ele><time>2026-04-06T07:53:49.999Z</time></trkpt><trkpt lat="44.48262237354279" lon="8.59279038848089"><ele>570.0</ele><time>2026-04-06T07:53:50.999Z</time></trkpt><trkpt lat="44.482767060155325" lon="8.592807853825233"><ele>570.0</ele><time>2026-04-06T07:53:51.999Z</time></trkpt><trkpt lat="44.482898280450705" lon="8.592843043315641"><ele>570.0</ele><time>2026-04-06T07:53:52.999Z</time></trkpt><trkpt lat="44.483005045375236" lon="8.59280296474944"><ele>567.5</ele><time>2026-04-06T07:53:53.999Z</time></trkpt><trkpt lat="44.483123955729155" lon="8.592707755871471"><ele>565.0</ele><time>2026-04-06T07:53:54.999Z</time></trkpt><trkpt lat="44.48323188627643" lon="8.592585254659202"><ele>562.5</ele><time>2026-04-06T07:53:55.999Z</time></trkpt><trkpt lat="44.48333795687965" lon="8.592464823577824"><ele>560.0</ele><time>2026-04-06T07:53:56.999Z</time></trkpt><trkpt lat="44.483451671423786" lon="8.592343296643717"><ele>560.0</ele><time>2026-04-06T07:53:57.999Z</time></trkpt><trkpt lat="44.483568862938014" lon="8.592228912599094"><ele>560.0</ele><time>2026-04-06T07:53:58.999Z</time></trkpt><trkpt lat="44.48378633824088" lon="8.592041437353636"><ele>560.0</ele><time>2026-04-06T07:54:00.999Z</time></trkpt><trkpt lat="44.48389580141493" lon="8.592016644957337"><ele>560.5</ele><time>2026-04-06T07:54:01.999Z</time></trkpt><trkpt lat="44.48400529400246" lon="8.592062566298821"><ele>561.0</ele><time>2026-04-06T07:54:02.999Z</time></trkpt><trkpt lat="44.48412380457619" lon="8.592144299293821"><ele>561.5</ele><time>2026-04-06T07:54:03.999Z</time></trkpt><trkpt lat="44.4842476048675" lon="8.59221762958377"><ele>562.0</ele><time>2026-04-06T07:54:04.999Z</time></trkpt><trkpt lat="44.48437730399475" lon="8.59225362791223"><ele>562.0</ele><time>2026-04-06T07:54:05.999Z</time></trkpt><trkpt lat="44.484511228518585" lon="8.592259716376748"><ele>562.0</ele><time>2026-04-06T07:54:06.999Z</time></trkpt><trkpt lat="44.48464934812551" lon="8.592212574955994"><ele>562.0</ele><time>2026-04-06T07:54:07.999Z</time></trkpt><trkpt lat="44.48476556282338" lon="8.592136866909238"><ele>562.0</ele><time>2026-04-06T07:54:08.999Z</time></trkpt><trkpt lat="44.48488792994868" lon="8.592065769365005"><ele>561.0</ele><time>2026-04-06T07:54:09.999Z</time></trkpt><trkpt lat="44.485014874519464" lon="8.592009202739007"><ele>560.0</ele><time>2026-04-06T07:54:10.999Z</time></trkpt><trkpt lat="44.485140451793995" lon="8.591978263849715"><ele>559.0</ele><time>2026-04-06T07:54:11.999Z</time></trkpt><trkpt lat="44.48526235494963" lon="8.591978626523955"><ele>558.0</ele><time>2026-04-06T07:54:12.999Z</time></trkpt><trkpt lat="44.48537127434656" lon="8.591999154466553"><ele>557.6</ele><time>2026-04-06T07:54:13.999Z</time></trkpt><trkpt lat="44.485468062643335" lon="8.592022810683066"><ele>557.1999999999999</ele><time>2026-04-06T07:54:14.999Z</time></trkpt><trkpt lat="44.4855659431587" lon="8.592048483338948"><ele>556.8</ele><time>2026-04-06T07:54:15.999Z</time></trkpt><trkpt lat="44.485659528787316" lon="8.592040778801218"><ele>556.4</ele><time>2026-04-06T07:54:16.999Z</time></trkpt><trkpt lat="44.48573479361259" lon="8.591960655027318"><ele>556.0</ele><time>2026-04-06T07:54:17.999Z</time></trkpt><trkpt lat="44.48577505699036" lon="8.591833442965678"><ele>553.4</ele><time>2026-04-06T07:54:18.999Z</time></trkpt><trkpt lat="44.485782366829056" lon="8.591691557752112"><ele>550.8</ele><time>2026-04-06T07:54:19.998Z</time></trkpt><trkpt lat="44.48581155054212" lon="8.591550526061159"><ele>548.1999999999999</ele><time>2026-04-06T07:54:20.998Z</time></trkpt><trkpt lat="44.48585374568869" lon="8.591401716915707"><ele>545.6</ele><time>2026-04-06T07:54:21.998Z</time></trkpt><trkpt lat="44.485913416170504" lon="8.591269350268943"><ele>543.0</ele><time>2026-04-06T07:54:22.998Z</time></trkpt><trkpt lat="44.48597614752939" lon="8.591136023372828"><ele>541.1666666666666</ele><time>2026-04-06T07:54:23.998Z</time></trkpt><trkpt lat="44.486032882296875" lon="8.59100772430771"><ele>539.3333333333334</ele><time>2026-04-06T07:54:24.998Z</time></trkpt><trkpt lat="44.486079879848596" lon="8.590902777889594"><ele>537.5</ele><time>2026-04-06T07:54:25.998Z</time></trkpt><trkpt lat="44.48612148635868" lon="8.590820316733199"><ele>535.6666666666667</ele><time>2026-04-06T07:54:26.998Z</time></trkpt><trkpt lat="44.48618927994108" lon="8.590708477065627"><ele>533.8333333333334</ele><time>2026-04-06T07:54:28.998Z</time></trkpt><trkpt lat="44.486209793811625" lon="8.590618773086037"><ele>532.0</ele><time>2026-04-06T07:54:35.999Z</time></trkpt><trkpt lat="44.486140181849485" lon="8.590524178929012"><ele>532.0</ele><time>2026-04-06T07:54:37.999Z</time></trkpt><trkpt lat="44.48605750036012" lon="8.59048650192983"><ele>532.0</ele><time>2026-04-06T07:54:38.999Z</time></trkpt><trkpt lat="44.48596937070344" lon="8.590432569884968"><ele>532.0</ele><time>2026-04-06T07:54:39.999Z</time></trkpt><trkpt lat="44.48589050484516" lon="8.590399487102397"><ele>532.0</ele><time>2026-04-06T07:54:40.999Z</time></trkpt><trkpt lat="44.485805585121625" lon="8.590345360881747"><ele>532.0</ele><time>2026-04-06T07:54:41.999Z</time></trkpt><trkpt lat="44.485718147723574" lon="8.590291662629939"><ele>531.8000000000001</ele><time>2026-04-06T07:54:42.999Z</time></trkpt><trkpt lat="44.48563705965829" lon="8.590241789889175"><ele>531.6</ele><time>2026-04-06T07:54:43.999Z</time></trkpt><trkpt lat="44.48557961403721" lon="8.590199178132503"><ele>531.4000000000001</ele><time>2026-04-06T07:54:45Z</time></trkpt><trkpt lat="44.48549521217686" lon="8.590043350521986"><ele>531.2</ele><time>2026-04-06T07:54:47Z</time></trkpt><trkpt lat="44.485467474740645" lon="8.589925743978016"><ele>531.0</ele><time>2026-04-06T07:54:48Z</time></trkpt><trkpt lat="44.485433578482635" lon="8.589788154867655"><ele>537.0</ele><time>2026-04-06T07:54:49Z</time></trkpt><trkpt lat="44.485393549914896" lon="8.58964780136837"><ele>543.0</ele><time>2026-04-06T07:54:50Z</time></trkpt><trkpt lat="44.48534993998683" lon="8.589500675262714"><ele>549.0</ele><time>2026-04-06T07:54:51Z</time></trkpt><trkpt lat="44.48529809110216" lon="8.589342422547057"><ele>555.0</ele><time>2026-04-06T07:54:52Z</time></trkpt><trkpt lat="44.48524818342251" lon="8.589174811644481"><ele>556.75</ele><time>2026-04-06T07:54:53Z</time></trkpt><trkpt lat="44.48521970214475" lon="8.588987182080142"><ele>558.5</ele><time>2026-04-06T07:54:54Z</time></trkpt><trkpt lat="44.48521398599895" lon="8.588794719403218"><ele>560.25</ele><time>2026-04-06T07:54:55Z</time></trkpt><trkpt lat="44.48523871739143" lon="8.58858532622666"><ele>562.0</ele><time>2026-04-06T07:54:56Z</time></trkpt><trkpt lat="44.48528153700229" lon="8.58837749697832"><ele>563.0</ele><time>2026-04-06T07:54:57Z</time></trkpt><trkpt lat="44.48533390124949" lon="8.588187193255958"><ele>564.0</ele><time>2026-04-06T07:54:58Z</time></trkpt><trkpt lat="44.48539356569479" lon="8.588002095788273"><ele>565.0</ele><time>2026-04-06T07:54:59Z</time></trkpt><trkpt lat="44.48545833975399" lon="8.587814377390291"><ele>566.0</ele><time>2026-04-06T07:55:00Z</time></trkpt><trkpt lat="44.48552112953458" lon="8.587634465343289"><ele>561.0</ele><time>2026-04-06T07:55:01Z</time></trkpt><trkpt lat="44.485585940757126" lon="8.587465068882992"><ele>556.0</ele><time>2026-04-06T07:55:02Z</time></trkpt><trkpt lat="44.48566915178609" lon="8.587314792778725"><ele>551.0</ele><time>2026-04-06T07:55:03Z</time></trkpt><trkpt lat="44.48576840729786" lon="8.587180488311045"><ele>546.0</ele><time>2026-04-06T07:55:04Z</time></trkpt><trkpt lat="44.485878356954615" lon="8.587043695096282"><ele>547.75</ele><time>2026-04-06T07:55:05Z</time></trkpt><trkpt lat="44.48598395574914" lon="8.586935541849707"><ele>549.5</ele><time>2026-04-06T07:55:06Z</time></trkpt><trkpt lat="44.4860853917166" lon="8.586823452365175"><ele>551.25</ele><time>2026-04-06T07:55:07Z</time></trkpt><trkpt lat="44.48617949166725" lon="8.586747765008035"><ele>553.0</ele><time>2026-04-06T07:55:08Z</time></trkpt><trkpt lat="44.48627315332352" lon="8.586698133196567"><ele>553.0</ele><time>2026-04-06T07:55:09Z</time></trkpt><trkpt lat="44.48636762036514" lon="8.586686321904905"><ele>553.0</ele><time>2026-04-06T07:55:10Z</time></trkpt><trkpt lat="44.48645736038213" lon="8.586731280799091"><ele>553.0</ele><time>2026-04-06T07:55:11Z</time></trkpt><trkpt lat="44.48653523394255" lon="8.586811565716207"><ele>553.0</ele><time>2026-04-06T07:55:11.999Z</time></trkpt><trkpt lat="44.486610536119656" lon="8.5868892267862"><ele>553.0</ele><time>2026-04-06T07:55:12.999Z</time></trkpt><trkpt lat="44.48669873082201" lon="8.586952920952275"><ele>553.0</ele><time>2026-04-06T07:55:13.999Z</time></trkpt><trkpt lat="44.48678717622897" lon="8.58698812163772"><ele>553.0</ele><time>2026-04-06T07:55:14.999Z</time></trkpt><trkpt lat="44.486885988203646" lon="8.586990244203804"><ele>553.0</ele><time>2026-04-06T07:55:15.999Z</time></trkpt><trkpt lat="44.48697541464732" lon="8.58698844820305"><ele>553.0</ele><time>2026-04-06T07:55:16.999Z</time></trkpt><trkpt lat="44.48705165024069" lon="8.58701590407167"><ele>553.0</ele><time>2026-04-06T07:55:17.999Z</time></trkpt><trkpt lat="44.48712135812669" lon="8.58705610717084"><ele>553.0</ele><time>2026-04-06T07:55:18.999Z</time></trkpt><trkpt lat="44.487193507235304" lon="8.587080620760743"><ele>553.3333333333334</ele><time>2026-04-06T07:55:19.999Z</time></trkpt><trkpt lat="44.4872708111074" lon="8.587072293833312"><ele>553.6666666666667</ele><time>2026-04-06T07:55:20.999Z</time></trkpt><trkpt lat="44.487355402159935" lon="8.587035590695589"><ele>554.0</ele><time>2026-04-06T07:55:21.999Z</time></trkpt><trkpt lat="44.4874310928048" lon="8.586972305718133"><ele>554.3333333333334</ele><time>2026-04-06T07:55:22.999Z</time></trkpt><trkpt lat="44.48748856845156" lon="8.586918097798213"><ele>554.6666666666666</ele><time>2026-04-06T07:55:23.999Z</time></trkpt><trkpt lat="44.48753680673731" lon="8.586848073103504"><ele>555.0</ele><time>2026-04-06T07:55:24.999Z</time></trkpt><trkpt lat="44.48756113877584" lon="8.586726742221702"><ele>555.0</ele><time>2026-04-06T07:55:25.999Z</time></trkpt><trkpt lat="44.48755447741393" lon="8.58657898709442"><ele>555.0</ele><time>2026-04-06T07:55:26.999Z</time></trkpt><trkpt lat="44.48755540135516" lon="8.586438111723645"><ele>555.0</ele><time>2026-04-06T07:55:27.999Z</time></trkpt><trkpt lat="44.48757766387628" lon="8.58631449663999"><ele>555.0</ele><time>2026-04-06T07:55:28.999Z</time></trkpt><trkpt lat="44.48758675333508" lon="8.586194598665196"><ele>555.0</ele><time>2026-04-06T07:55:29.999Z</time></trkpt><trkpt lat="44.487554233498635" lon="8.586075298389037"><ele>556.4</ele><time>2026-04-06T07:55:30.999Z</time></trkpt><trkpt lat="44.48748654149236" lon="8.585974860630325"><ele>557.8</ele><time>2026-04-06T07:55:31.999Z</time></trkpt><trkpt lat="44.487388762801906" lon="8.585925085725178"><ele>559.2</ele><time>2026-04-06T07:55:32.999Z</time></trkpt><trkpt lat="44.487287084919515" lon="8.585944183463232"><ele>560.6</ele><time>2026-04-06T07:55:33.999Z</time></trkpt><trkpt lat="44.487206382906585" lon="8.586017399405407"><ele>562.0</ele><time>2026-04-06T07:55:34.999Z</time></trkpt><trkpt lat="44.487128958754134" lon="8.586093866418535"><ele>563.75</ele><time>2026-04-06T07:55:35.999Z</time></trkpt><trkpt lat="44.48703039195385" lon="8.586147859094634"><ele>565.5</ele><time>2026-04-06T07:55:36.999Z</time></trkpt><trkpt lat="44.48691691119954" lon="8.586174975777148"><ele>567.25</ele><time>2026-04-06T07:55:37.999Z</time></trkpt><trkpt lat="44.4867989046032" lon="8.586153575606193"><ele>569.0</ele><time>2026-04-06T07:55:38.999Z</time></trkpt><trkpt lat="44.48666807308461" lon="8.586156306123828"><ele>569.0</ele><time>2026-04-06T07:55:39.999Z</time></trkpt><trkpt lat="44.48654299018666" lon="8.586171251341444"><ele>569.0</ele><time>2026-04-06T07:55:40.999Z</time></trkpt><trkpt lat="44.48642753823445" lon="8.586204887153732"><ele>569.0</ele><time>2026-04-06T07:55:41.999Z</time></trkpt><trkpt lat="44.48633393571342" lon="8.586274597861026"><ele>569.0</ele><time>2026-04-06T07:55:42.999Z</time></trkpt><trkpt lat="44.48625272967474" lon="8.586330104782352"><ele>569.0</ele><time>2026-04-06T07:55:43.999Z</time></trkpt><trkpt lat="44.48615746217774" lon="8.586333553519436"><ele>567.8</ele><time>2026-04-06T07:55:44.999Z</time></trkpt><trkpt lat="44.486075086627686" lon="8.586273065525518"><ele>566.5999999999999</ele><time>2026-04-06T07:55:45.999Z</time></trkpt><trkpt lat="44.48602873484659" lon="8.586165413402178"><ele>565.4</ele><time>2026-04-06T07:55:46.999Z</time></trkpt><trkpt lat="44.48603542607229" lon="8.586015676851396"><ele>564.1999999999999</ele><time>2026-04-06T07:55:47.999Z</time></trkpt><trkpt lat="44.48610465710799" lon="8.585885881003836"><ele>563.0</ele><time>2026-04-06T07:55:48.999Z</time></trkpt><trkpt lat="44.4862135244262" lon="8.585800050021014"><ele>564.5</ele><time>2026-04-06T07:55:49.999Z</time></trkpt><trkpt lat="44.486347711619835" lon="8.58576784356299"><ele>566.0</ele><time>2026-04-06T07:55:50.999Z</time></trkpt><trkpt lat="44.48648433797915" lon="8.585800070319308"><ele>567.5</ele><time>2026-04-06T07:55:51.999Z</time></trkpt><trkpt lat="44.48660356107703" lon="8.58585455180087"><ele>569.0</ele><time>2026-04-06T07:55:52.999Z</time></trkpt><trkpt lat="44.486716251902436" lon="8.585880440079679"><ele>569.0</ele><time>2026-04-06T07:55:53.999Z</time></trkpt><trkpt lat="44.48682843607603" lon="8.585851977732695"><ele>569.0</ele><time>2026-04-06T07:55:54.999Z</time></trkpt><trkpt lat="44.486943814127635" lon="8.585779026276489"><ele>569.0</ele><time>2026-04-06T07:55:55.999Z</time></trkpt><trkpt lat="44.48705161176535" lon="8.585713110096375"><ele>569.0</ele><time>2026-04-06T07:55:56.999Z</time></trkpt><trkpt lat="44.48715025966161" lon="8.585653949890466"><ele>567.25</ele><time>2026-04-06T07:55:57.999Z</time></trkpt><trkpt lat="44.48724770437197" lon="8.585573986314893"><ele>565.5</ele><time>2026-04-06T07:55:58.999Z</time></trkpt><trkpt lat="44.487341031457206" lon="8.58546313370895"><ele>563.75</ele><time>2026-04-06T07:55:59.999Z</time></trkpt><trkpt lat="44.48742652645483" lon="8.585327833869862"><ele>562.0</ele><time>2026-04-06T07:56:00.999Z</time></trkpt><trkpt lat="44.487523644056694" lon="8.585218563079419"><ele>566.25</ele><time>2026-04-06T07:56:01.999Z</time></trkpt><trkpt lat="44.48763202111887" lon="8.585129325512884"><ele>570.5</ele><time>2026-04-06T07:56:02.999Z</time></trkpt><trkpt lat="44.48774693656118" lon="8.585034854540316"><ele>574.75</ele><time>2026-04-06T07:56:03.999Z</time></trkpt><trkpt lat="44.4878498292509" lon="8.584923864468692"><ele>579.0</ele><time>2026-04-06T07:56:04.999Z</time></trkpt><trkpt lat="44.48792438784093" lon="8.584785495327095"><ele>577.5</ele><time>2026-04-06T07:56:05.999Z</time></trkpt><trkpt lat="44.487990471477005" lon="8.584658246434776"><ele>576.0</ele><time>2026-04-06T07:56:06.999Z</time></trkpt><trkpt lat="44.488097733364114" lon="8.584578177297736"><ele>574.5</ele><time>2026-04-06T07:56:07.999Z</time></trkpt><trkpt lat="44.48821941129673" lon="8.584528405695751"><ele>573.0</ele><time>2026-04-06T07:56:08.999Z</time></trkpt><trkpt lat="44.488346138998786" lon="8.584515854814383"><ele>573.0</ele><time>2026-04-06T07:56:09.999Z</time></trkpt><trkpt lat="44.48847292971847" lon="8.584584422422116"><ele>573.0</ele><time>2026-04-06T07:56:10.999Z</time></trkpt><trkpt lat="44.48860309259603" lon="8.584658055130285"><ele>573.0</ele><time>2026-04-06T07:56:11.999Z</time></trkpt><trkpt lat="44.48872885260268" lon="8.584717862149404"><ele>573.0</ele><time>2026-04-06T07:56:12.999Z</time></trkpt><trkpt lat="44.488834534874904" lon="8.584775687456487"><ele>576.5</ele><time>2026-04-06T07:56:13.999Z</time></trkpt><trkpt lat="44.48890671240905" lon="8.584873255260463"><ele>580.0</ele><time>2026-04-06T07:56:14.999Z</time></trkpt><trkpt lat="44.48893006772141" lon="8.585034635339614"><ele>583.5</ele><time>2026-04-06T07:56:15.999Z</time></trkpt><trkpt lat="44.488925880308344" lon="8.585223062281973"><ele>587.0</ele><time>2026-04-06T07:56:16.999Z</time></trkpt><trkpt lat="44.48894237909313" lon="8.585422873429332"><ele>587.0</ele><time>2026-04-06T07:56:17.999Z</time></trkpt><trkpt lat="44.48899901714621" lon="8.585602499234835"><ele>587.0</ele><time>2026-04-06T07:56:18.999Z</time></trkpt><trkpt lat="44.48907186889181" lon="8.585765215448978"><ele>587.0</ele><time>2026-04-06T07:56:19.999Z</time></trkpt><trkpt lat="44.48914394945212" lon="8.585942276522461"><ele>587.0</ele><time>2026-04-06T07:56:20.999Z</time></trkpt><trkpt lat="44.48921500564186" lon="8.586114958256978"><ele>583.0</ele><time>2026-04-06T07:56:21.999Z</time></trkpt><trkpt lat="44.48927630172373" lon="8.586274931851381"><ele>579.0</ele><time>2026-04-06T07:56:22.999Z</time></trkpt><trkpt lat="44.48931634672393" lon="8.586438547826846"><ele>575.0</ele><time>2026-04-06T07:56:23.999Z</time></trkpt><trkpt lat="44.48933845054067" lon="8.586595720882366"><ele>571.0</ele><time>2026-04-06T07:56:24.999Z</time></trkpt><trkpt lat="44.48939565862276" lon="8.586732593611282"><ele>571.0</ele><time>2026-04-06T07:56:25.999Z</time></trkpt><trkpt lat="44.489490705207025" lon="8.586827042709015"><ele>571.0</ele><time>2026-04-06T07:56:26.999Z</time></trkpt><trkpt lat="44.48961574664441" lon="8.586862828119166"><ele>571.0</ele><time>2026-04-06T07:56:27.999Z</time></trkpt><trkpt lat="44.48974330350804" lon="8.586858874434308"><ele>571.0</ele><time>2026-04-06T07:56:28.999Z</time></trkpt><trkpt lat="44.48986102623594" lon="8.58678268919154"><ele>576.5</ele><time>2026-04-06T07:56:29.999Z</time></trkpt><trkpt lat="44.489959645120386" lon="8.5866772417593"><ele>582.0</ele><time>2026-04-06T07:56:30.999Z</time></trkpt><trkpt lat="44.4900629184977" lon="8.586618920737848"><ele>587.5</ele><time>2026-04-06T07:56:31.999Z</time></trkpt><trkpt lat="44.490183741315874" lon="8.586583322184461"><ele>593.0</ele><time>2026-04-06T07:56:32.999Z</time></trkpt><trkpt lat="44.49030719396022" lon="8.586628581047838"><ele>593.0</ele><time>2026-04-06T07:56:33.999Z</time></trkpt><trkpt lat="44.49041880916428" lon="8.586710679835708"><ele>593.0</ele><time>2026-04-06T07:56:34.999Z</time></trkpt><trkpt lat="44.4905233173516" lon="8.586764683715883"><ele>593.0</ele><time>2026-04-06T07:56:35.999Z</time></trkpt><trkpt lat="44.49062217504314" lon="8.586808178857769"><ele>593.0</ele><time>2026-04-06T07:56:36.999Z</time></trkpt><trkpt lat="44.490725851528794" lon="8.586792325564646"><ele>593.0</ele><time>2026-04-06T07:56:37.999Z</time></trkpt><trkpt lat="44.49080959056221" lon="8.586682820687658"><ele>593.25</ele><time>2026-04-06T07:56:38.999Z</time></trkpt><trkpt lat="44.490869707241295" lon="8.58652801387226"><ele>593.5</ele><time>2026-04-06T07:56:39.999Z</time></trkpt><trkpt lat="44.49093460404904" lon="8.586376824267589"><ele>593.75</ele><time>2026-04-06T07:56:40.999Z</time></trkpt><trkpt lat="44.491035936444234" lon="8.586253555547593"><ele>594.0</ele><time>2026-04-06T07:56:42Z</time></trkpt><trkpt lat="44.49113725456985" lon="8.586142255874249"><ele>595.25</ele><time>2026-04-06T07:56:43Z</time></trkpt><trkpt lat="44.491220449800416" lon="8.586001267936846"><ele>596.5</ele><time>2026-04-06T07:56:44Z</time></trkpt><trkpt lat="44.49127833168265" lon="8.585846661880819"><ele>597.75</ele><time>2026-04-06T07:56:45Z</time></trkpt><trkpt lat="44.49133340737713" lon="8.585704949535483"><ele>599.0</ele><time>2026-04-06T07:56:46Z</time></trkpt><trkpt lat="44.49141107257757" lon="8.585576759425377"><ele>599.0</ele><time>2026-04-06T07:56:47Z</time></trkpt><trkpt lat="44.49151748263325" lon="8.585482154027064"><ele>599.0</ele><time>2026-04-06T07:56:48Z</time></trkpt><trkpt lat="44.49163976385955" lon="8.585416476764525"><ele>599.0</ele><time>2026-04-06T07:56:49Z</time></trkpt><trkpt lat="44.491764961544675" lon="8.585366287470194"><ele>599.0</ele><time>2026-04-06T07:56:50Z</time></trkpt><trkpt lat="44.49188614073475" lon="8.585310370758977"><ele>600.0</ele><time>2026-04-06T07:56:51Z</time></trkpt><trkpt lat="44.49199909361336" lon="8.585254418520638"><ele>601.0</ele><time>2026-04-06T07:56:52Z</time></trkpt><trkpt lat="44.492114450334476" lon="8.585237017135501"><ele>602.0</ele><time>2026-04-06T07:56:53Z</time></trkpt><trkpt lat="44.49222503632278" lon="8.585284224549051"><ele>603.0</ele><time>2026-04-06T07:56:54Z</time></trkpt><trkpt lat="44.4923335378797" lon="8.585375464850811"><ele>603.0</ele><time>2026-04-06T07:56:55Z</time></trkpt><trkpt lat="44.492434343996266" lon="8.585495660360907"><ele>603.0</ele><time>2026-04-06T07:56:56Z</time></trkpt><trkpt lat="44.49254015733069" lon="8.585621184636175"><ele>603.0</ele><time>2026-04-06T07:56:57Z</time></trkpt><trkpt lat="44.4926510238517" lon="8.585721480638428"><ele>603.0</ele><time>2026-04-06T07:56:58Z</time></trkpt><trkpt lat="44.49276437501137" lon="8.58582817889182"><ele>603.0</ele><time>2026-04-06T07:56:59Z</time></trkpt><trkpt lat="44.492883248400894" lon="8.585941128085345"><ele>603.0</ele><time>2026-04-06T07:57:00Z</time></trkpt><trkpt lat="44.49300425469059" lon="8.586053415195568"><ele>603.0</ele><time>2026-04-06T07:57:01Z</time></trkpt><trkpt lat="44.493129490445355" lon="8.586163420012731"><ele>603.0</ele><time>2026-04-06T07:57:02Z</time></trkpt><trkpt lat="44.493255286535984" lon="8.58627494050325"><ele>604.0</ele><time>2026-04-06T07:57:03Z</time></trkpt><trkpt lat="44.49336667119472" lon="8.586376380975567"><ele>605.0</ele><time>2026-04-06T07:57:04Z</time></trkpt><trkpt lat="44.4934710106415" lon="8.586482759861061"><ele>606.0</ele><time>2026-04-06T07:57:05Z</time></trkpt><trkpt lat="44.4935702351734" lon="8.586593236376423"><ele>607.0</ele><time>2026-04-06T07:57:06Z</time></trkpt><trkpt lat="44.49366878916213" lon="8.586704012642077"><ele>608.75</ele><time>2026-04-06T07:57:07Z</time></trkpt><trkpt lat="44.493763875503205" lon="8.58682809246984"><ele>610.5</ele><time>2026-04-06T07:57:08Z</time></trkpt><trkpt lat="44.49384547010106" lon="8.586968690612244"><ele>612.25</ele><time>2026-04-06T07:57:09Z</time></trkpt><trkpt lat="44.49389085388243" lon="8.587144233879023"><ele>614.0</ele><time>2026-04-06T07:57:10Z</time></trkpt><trkpt lat="44.493905049516485" lon="8.587338897542507"><ele>614.0</ele><time>2026-04-06T07:57:11Z</time></trkpt><trkpt lat="44.49392191645688" lon="8.587507108442159"><ele>614.0</ele><time>2026-04-06T07:57:12Z</time></trkpt><trkpt lat="44.49396051419698" lon="8.587667515141204"><ele>614.0</ele><time>2026-04-06T07:57:13Z</time></trkpt><trkpt lat="44.49402056284733" lon="8.587790917807038"><ele>614.0</ele><time>2026-04-06T07:57:14Z</time></trkpt><trkpt lat="44.494117539373164" lon="8.587854982044725"><ele>614.0</ele><time>2026-04-06T07:57:15Z</time></trkpt><trkpt lat="44.4942272218743" lon="8.587847949507335"><ele>614.0</ele><time>2026-04-06T07:57:16Z</time></trkpt><trkpt lat="44.49431656899876" lon="8.587770658052802"><ele>614.0</ele><time>2026-04-06T07:57:17Z</time></trkpt><trkpt lat="44.494365271570196" lon="8.587610056198615"><ele>614.0</ele><time>2026-04-06T07:57:18Z</time></trkpt><trkpt lat="44.49437465912914" lon="8.587442638244738"><ele>614.0</ele><time>2026-04-06T07:57:19Z</time></trkpt><trkpt lat="44.494345967566076" lon="8.587279693430185"><ele>614.0</ele><time>2026-04-06T07:57:20Z</time></trkpt><trkpt lat="44.49430499556062" lon="8.58711729839263"><ele>614.0</ele><time>2026-04-06T07:57:21Z</time></trkpt><trkpt lat="44.49428010827354" lon="8.58694450689298"><ele>614.0</ele><time>2026-04-06T07:57:22Z</time></trkpt><trkpt lat="44.494252191708966" lon="8.586773579759582"><ele>616.25</ele><time>2026-04-06T07:57:23Z</time></trkpt><trkpt lat="44.49419914036709" lon="8.586613014356479"><ele>618.5</ele><time>2026-04-06T07:57:24Z</time></trkpt><trkpt lat="44.494102335450805" lon="8.586484100884817"><ele>620.75</ele><time>2026-04-06T07:57:25Z</time></trkpt><trkpt lat="44.49397830806869" lon="8.586399147377444"><ele>623.0</ele><time>2026-04-06T07:57:26Z</time></trkpt><trkpt lat="44.493853608615524" lon="8.586344188720817"><ele>621.75</ele><time>2026-04-06T07:57:26.999Z</time></trkpt><trkpt lat="44.49375142845537" lon="8.586281038590434"><ele>620.5</ele><time>2026-04-06T07:57:27.999Z</time></trkpt><trkpt lat="44.493666466701264" lon="8.58614603593428"><ele>619.25</ele><time>2026-04-06T07:57:28.999Z</time></trkpt><trkpt lat="44.493632548819534" lon="8.585975446153796"><ele>618.0</ele><time>2026-04-06T07:57:29.999Z</time></trkpt><trkpt lat="44.49363802378219" lon="8.585796209283531"><ele>618.0</ele><time>2026-04-06T07:57:30.999Z</time></trkpt><trkpt lat="44.493682370382544" lon="8.585627462540145"><ele>618.0</ele><time>2026-04-06T07:57:31.999Z</time></trkpt><trkpt lat="44.49374077184028" lon="8.58546050194057"><ele>618.0</ele><time>2026-04-06T07:57:32.999Z</time></trkpt><trkpt lat="44.49378811675644" lon="8.585303971611278"><ele>618.0</ele><time>2026-04-06T07:57:33.999Z</time></trkpt><trkpt lat="44.493818418441435" lon="8.585172978314484"><ele>620.25</ele><time>2026-04-06T07:57:34.999Z</time></trkpt><trkpt lat="44.493798972228916" lon="8.585029791415657"><ele>622.5</ele><time>2026-04-06T07:57:35.999Z</time></trkpt><trkpt lat="44.49372032970518" lon="8.584883277879218"><ele>624.75</ele><time>2026-04-06T07:57:36.999Z</time></trkpt><trkpt lat="44.49360597194819" lon="8.584775469091293"><ele>627.0</ele><time>2026-04-06T07:57:37.999Z</time></trkpt><trkpt lat="44.49348116213973" lon="8.584680476935086"><ele>627.0</ele><time>2026-04-06T07:57:38.999Z</time></trkpt><trkpt lat="44.49337372797248" lon="8.584562361783444"><ele>627.0</ele><time>2026-04-06T07:57:39.999Z</time></trkpt><trkpt lat="44.49328777011549" lon="8.58440583486115"><ele>627.0</ele><time>2026-04-06T07:57:40.999Z</time></trkpt><trkpt lat="44.493204689339585" lon="8.584250107822953"><ele>627.0</ele><time>2026-04-06T07:57:41.999Z</time></trkpt><trkpt lat="44.49311270884254" lon="8.584103314001828"><ele>628.5</ele><time>2026-04-06T07:57:42.999Z</time></trkpt><trkpt lat="44.493022556366356" lon="8.583957017899007"><ele>630.0</ele><time>2026-04-06T07:57:43.999Z</time></trkpt><trkpt lat="44.492926687253735" lon="8.583824682093178"><ele>631.5</ele><time>2026-04-06T07:57:44.999Z</time></trkpt><trkpt lat="44.49281052345563" lon="8.583760312802216"><ele>633.0</ele><time>2026-04-06T07:57:45.999Z</time></trkpt><trkpt lat="44.49268321316174" lon="8.58380141013939"><ele>633.0</ele><time>2026-04-06T07:57:46.999Z</time></trkpt><trkpt lat="44.49255979507398" lon="8.583852926974343"><ele>633.0</ele><time>2026-04-06T07:57:47.999Z</time></trkpt><trkpt lat="44.49240794959146" lon="8.583859057601437"><ele>633.0</ele><time>2026-04-06T07:57:48.999Z</time></trkpt><trkpt lat="44.49230050020907" lon="8.583830038634492"><ele>633.0</ele><time>2026-04-06T07:57:49.999Z</time></trkpt><trkpt lat="44.49219722463518" lon="8.583786992848097"><ele>633.0</ele><time>2026-04-06T07:57:50.999Z</time></trkpt><trkpt lat="44.492117305324896" lon="8.583684586265473"><ele>633.0</ele><time>2026-04-06T07:57:51.999Z</time></trkpt><trkpt lat="44.492050539963074" lon="8.58354036483456"><ele>633.0</ele><time>2026-04-06T07:57:52.999Z</time></trkpt><trkpt lat="44.49200831634281" lon="8.583375484791004"><ele>633.0</ele><time>2026-04-06T07:57:53.999Z</time></trkpt><trkpt lat="44.49193884850426" lon="8.583219632386351"><ele>637.0</ele><time>2026-04-06T07:57:54.999Z</time></trkpt><trkpt lat="44.49186037487702" lon="8.583086009772051"><ele>641.0</ele><time>2026-04-06T07:57:55.999Z</time></trkpt><trkpt lat="44.49175452328699" lon="8.582998698703115"><ele>645.0</ele><time>2026-04-06T07:57:56.999Z</time></trkpt><trkpt lat="44.49161377757195" lon="8.582962836863373"><ele>649.0</ele><time>2026-04-06T07:57:57.999Z</time></trkpt><trkpt lat="44.49146086450083" lon="8.582972125752871"><ele>649.0</ele><time>2026-04-06T07:57:58.999Z</time></trkpt><trkpt lat="44.491327202330325" lon="8.582983205702556"><ele>649.0</ele><time>2026-04-06T07:57:59.999Z</time></trkpt><trkpt lat="44.49118241680841" lon="8.582991401319967"><ele>649.0</ele><time>2026-04-06T07:58:00.999Z</time></trkpt><trkpt lat="44.49105205200112" lon="8.58296482674568"><ele>649.0</ele><time>2026-04-06T07:58:01.999Z</time></trkpt><trkpt lat="44.49092528426225" lon="8.582939400365492"><ele>649.25</ele><time>2026-04-06T07:58:02.999Z</time></trkpt><trkpt lat="44.49078485043324" lon="8.58291341407302"><ele>649.5</ele><time>2026-04-06T07:58:03.999Z</time></trkpt><trkpt lat="44.490660127961696" lon="8.58290077088002"><ele>649.75</ele><time>2026-04-06T07:58:04.999Z</time></trkpt><trkpt lat="44.490541701452926" lon="8.582882079938653"><ele>650.0</ele><time>2026-04-06T07:58:05.999Z</time></trkpt><trkpt lat="44.49041238223361" lon="8.582855101875463"><ele>652.5</ele><time>2026-04-06T07:58:06.999Z</time></trkpt><trkpt lat="44.490284084869415" lon="8.582819015304196"><ele>655.0</ele><time>2026-04-06T07:58:07.999Z</time></trkpt><trkpt lat="44.49015827476164" lon="8.58278743858261"><ele>657.5</ele><time>2026-04-06T07:58:08.999Z</time></trkpt><trkpt lat="44.49004033288385" lon="8.582739127674408"><ele>660.0</ele><time>2026-04-06T07:58:09.999Z</time></trkpt><trkpt lat="44.48994329621285" lon="8.582701483288162"><ele>660.0</ele><time>2026-04-06T07:58:10.999Z</time></trkpt><trkpt lat="44.48984633676687" lon="8.582630994562397"><ele>660.0</ele><time>2026-04-06T07:58:11.999Z</time></trkpt><trkpt lat="44.48976459629412" lon="8.58251359355593"><ele>660.0</ele><time>2026-04-06T07:58:12.999Z</time></trkpt><trkpt lat="44.48970017949498" lon="8.582341212931228"><ele>660.0</ele><time>2026-04-06T07:58:13.999Z</time></trkpt><trkpt lat="44.4896380384019" lon="8.582177308388054"><ele>660.0</ele><time>2026-04-06T07:58:14.999Z</time></trkpt><trkpt lat="44.48959245113784" lon="8.582019169757462"><ele>660.0</ele><time>2026-04-06T07:58:15.999Z</time></trkpt><trkpt lat="44.48954489239089" lon="8.581869943070377"><ele>660.0</ele><time>2026-04-06T07:58:16.999Z</time></trkpt><trkpt lat="44.489467533372874" lon="8.581776310251255"><ele>660.0</ele><time>2026-04-06T07:58:17.999Z</time></trkpt><trkpt lat="44.48934689203294" lon="8.581756652002595"><ele>660.8</ele><time>2026-04-06T07:58:18.999Z</time></trkpt><trkpt lat="44.48920982140266" lon="8.581792684501536"><ele>661.6</ele><time>2026-04-06T07:58:19.999Z</time></trkpt><trkpt lat="44.48909451962237" lon="8.581805293683823"><ele>662.4000000000001</ele><time>2026-04-06T07:58:20.999Z</time></trkpt><trkpt lat="44.48900313285227" lon="8.581761312146591"><ele>663.2</ele><time>2026-04-06T07:58:21.999Z</time></trkpt><trkpt lat="44.488952628682426" lon="8.581653409809945"><ele>664.0</ele><time>2026-04-06T07:58:22.999Z</time></trkpt><trkpt lat="44.488934791685324" lon="8.581506186811364"><ele>664.0</ele><time>2026-04-06T07:58:23.999Z</time></trkpt><trkpt lat="44.48893103074761" lon="8.581329050883193"><ele>664.0</ele><time>2026-04-06T07:58:24.999Z</time></trkpt><trkpt lat="44.48894774592886" lon="8.581172913474031"><ele>664.0</ele><time>2026-04-06T07:58:25.999Z</time></trkpt><trkpt lat="44.48897947777834" lon="8.581020785474053"><ele>664.0</ele><time>2026-04-06T07:58:26.999Z</time></trkpt><trkpt lat="44.48900614616384" lon="8.580867549558912"><ele>664.25</ele><time>2026-04-06T07:58:27.999Z</time></trkpt><trkpt lat="44.48903808757095" lon="8.580703207287513"><ele>664.5</ele><time>2026-04-06T07:58:28.999Z</time></trkpt><trkpt lat="44.48903882762141" lon="8.580532176131845"><ele>664.75</ele><time>2026-04-06T07:58:29.999Z</time></trkpt><trkpt lat="44.48901257574007" lon="8.580358092270588"><ele>665.0</ele><time>2026-04-06T07:58:30.999Z</time></trkpt><trkpt lat="44.48896700331465" lon="8.58018909318251"><ele>665.0</ele><time>2026-04-06T07:58:31.999Z</time></trkpt><trkpt lat="44.48893432820688" lon="8.580026478412963"><ele>665.0</ele><time>2026-04-06T07:58:32.999Z</time></trkpt><trkpt lat="44.488930909707356" lon="8.579855177683422"><ele>665.0</ele><time>2026-04-06T07:58:33.999Z</time></trkpt><trkpt lat="44.48896550926442" lon="8.57969053686498"><ele>665.0</ele><time>2026-04-06T07:58:34.999Z</time></trkpt><trkpt lat="44.48902450254516" lon="8.57952206565834"><ele>666.0</ele><time>2026-04-06T07:58:35.999Z</time></trkpt><trkpt lat="44.48910856591695" lon="8.579371866812542"><ele>667.0</ele><time>2026-04-06T07:58:36.999Z</time></trkpt><trkpt lat="44.48920969768746" lon="8.579255468439477"><ele>668.0</ele><time>2026-04-06T07:58:37.999Z</time></trkpt><trkpt lat="44.489318767511605" lon="8.579140711274384"><ele>669.0</ele><time>2026-04-06T07:58:38.999Z</time></trkpt><trkpt lat="44.48942917238933" lon="8.579044135558291"><ele>669.0</ele><time>2026-04-06T07:58:39.999Z</time></trkpt><trkpt lat="44.489543091294486" lon="8.578953114104552"><ele>669.0</ele><time>2026-04-06T07:58:40.999Z</time></trkpt><trkpt lat="44.489651103895106" lon="8.578854987913521"><ele>669.0</ele><time>2026-04-06T07:58:41.999Z</time></trkpt><trkpt lat="44.48973807288132" lon="8.578727005624923"><ele>669.0</ele><time>2026-04-06T07:58:42.999Z</time></trkpt><trkpt lat="44.489779043120095" lon="8.578563135698756"><ele>668.5</ele><time>2026-04-06T07:58:43.999Z</time></trkpt><trkpt lat="44.48979002847235" lon="8.578382621266757"><ele>668.0</ele><time>2026-04-06T07:58:44.999Z</time></trkpt><trkpt lat="44.489764574722756" lon="8.578194087977607"><ele>667.5</ele><time>2026-04-06T07:58:45.999Z</time></trkpt><trkpt lat="44.48970190328248" lon="8.578010994025366"><ele>667.0</ele><time>2026-04-06T07:58:46.999Z</time></trkpt><trkpt lat="44.48960498296453" lon="8.577864127322345"><ele>668.6666666666667</ele><time>2026-04-06T07:58:48Z</time></trkpt><trkpt lat="44.489488973598334" lon="8.577728926065864"><ele>670.3333333333334</ele><time>2026-04-06T07:58:49Z</time></trkpt><trkpt lat="44.48936701412507" lon="8.57760825983284"><ele>672.0</ele><time>2026-04-06T07:58:50Z</time></trkpt><trkpt lat="44.4892386251869" lon="8.577488401801041"><ele>672.0</ele><time>2026-04-06T07:58:51Z</time></trkpt><trkpt lat="44.48910620887823" lon="8.577378792355079"><ele>672.0</ele><time>2026-04-06T07:58:52Z</time></trkpt><trkpt lat="44.48896883263799" lon="8.57728684758645"><ele>672.0</ele><time>2026-04-06T07:58:53Z</time></trkpt><trkpt lat="44.488822334698085" lon="8.577195129893845"><ele>673.0</ele><time>2026-04-06T07:58:54Z</time></trkpt><trkpt lat="44.48867046343548" lon="8.577102348891046"><ele>674.0</ele><time>2026-04-06T07:58:55Z</time></trkpt><trkpt lat="44.488524011305906" lon="8.577008794192784"><ele>675.0</ele><time>2026-04-06T07:58:56Z</time></trkpt><trkpt lat="44.48838625205607" lon="8.576925044632913"><ele>675.0</ele><time>2026-04-06T07:58:57Z</time></trkpt><trkpt lat="44.48823141821769" lon="8.576884632657386"><ele>675.0</ele><time>2026-04-06T07:58:58Z</time></trkpt><trkpt lat="44.4880643158812" lon="8.576903283564228"><ele>675.0</ele><time>2026-04-06T07:58:59Z</time></trkpt><trkpt lat="44.48790416052213" lon="8.576961885962396"><ele>679.0</ele><time>2026-04-06T07:59:00Z</time></trkpt><trkpt lat="44.48775442583744" lon="8.577055740972725"><ele>683.0</ele><time>2026-04-06T07:59:01Z</time></trkpt><trkpt lat="44.48761922753769" lon="8.577180534362801"><ele>687.0</ele><time>2026-04-06T07:59:02Z</time></trkpt><trkpt lat="44.487498066909836" lon="8.577313576287018"><ele>687.0</ele><time>2026-04-06T07:59:03Z</time></trkpt><trkpt lat="44.4873532615441" lon="8.577433611640759"><ele>687.0</ele><time>2026-04-06T07:59:04Z</time></trkpt><trkpt lat="44.487216569515645" lon="8.577511826695185"><ele>687.0</ele><time>2026-04-06T07:59:05Z</time></trkpt><trkpt lat="44.48709010278985" lon="8.577569676337516"><ele>687.0</ele><time>2026-04-06T07:59:06Z</time></trkpt><trkpt lat="44.48696253940018" lon="8.577626621181906"><ele>687.5</ele><time>2026-04-06T07:59:07Z</time></trkpt><trkpt lat="44.486815739224745" lon="8.577647017761786"><ele>688.0</ele><time>2026-04-06T07:59:08Z</time></trkpt><trkpt lat="44.48666308816168" lon="8.5776416797965"><ele>688.5</ele><time>2026-04-06T07:59:09Z</time></trkpt><trkpt lat="44.486520331251185" lon="8.57763720371545"><ele>689.0</ele><time>2026-04-06T07:59:10Z</time></trkpt><trkpt lat="44.48639220906155" lon="8.577652094044828"><ele>689.0</ele><time>2026-04-06T07:59:11Z</time></trkpt><trkpt lat="44.486275353654094" lon="8.577681802109192"><ele>689.0</ele><time>2026-04-06T07:59:12Z</time></trkpt><trkpt lat="44.48618286641725" lon="8.577667576629947"><ele>689.0</ele><time>2026-04-06T07:59:13Z</time></trkpt><trkpt lat="44.48609046911923" lon="8.57764591917989"><ele>689.0</ele><time>2026-04-06T07:59:14Z</time></trkpt><trkpt lat="44.48604533448108" lon="8.577542526416268"><ele>689.0</ele><time>2026-04-06T07:59:15Z</time></trkpt><trkpt lat="44.48601999300281" lon="8.577402026807274"><ele>689.0</ele><time>2026-04-06T07:59:16Z</time></trkpt><trkpt lat="44.486030208416835" lon="8.577263285940116"><ele>689.0</ele><time>2026-04-06T07:59:17Z</time></trkpt><trkpt lat="44.48609094207952" lon="8.577149710921049"><ele>689.0</ele><time>2026-04-06T07:59:18Z</time></trkpt><trkpt lat="44.48619229542332" lon="8.577080298558807"><ele>689.0</ele><time>2026-04-06T07:59:19Z</time></trkpt><trkpt lat="44.48630227574677" lon="8.577032480034754"><ele>689.0</ele><time>2026-04-06T07:59:20Z</time></trkpt><trkpt lat="44.486423357928246" lon="8.576989706151911"><ele>690.0</ele><time>2026-04-06T07:59:21Z</time></trkpt><trkpt lat="44.48653364079365" lon="8.576928434505326"><ele>691.0</ele><time>2026-04-06T07:59:22Z</time></trkpt><trkpt lat="44.48663830782963" lon="8.576847538991737"><ele>692.0</ele><time>2026-04-06T07:59:23Z</time></trkpt><trkpt lat="44.48673239477979" lon="8.576739375508394"><ele>693.0</ele><time>2026-04-06T07:59:24Z</time></trkpt><trkpt lat="44.48678613990479" lon="8.576597686896335"><ele>693.0</ele><time>2026-04-06T07:59:25Z</time></trkpt><trkpt lat="44.48681447770252" lon="8.576434842261378"><ele>693.0</ele><time>2026-04-06T07:59:26Z</time></trkpt><trkpt lat="44.48680630306971" lon="8.576261806347897"><ele>693.0</ele><time>2026-04-06T07:59:27Z</time></trkpt><trkpt lat="44.48675580361698" lon="8.576097964732705"><ele>693.0</ele><time>2026-04-06T07:59:28Z</time></trkpt><trkpt lat="44.48666864625222" lon="8.575954218765174"><ele>693.25</ele><time>2026-04-06T07:59:29Z</time></trkpt><trkpt lat="44.48655630145389" lon="8.57584336424785"><ele>693.5</ele><time>2026-04-06T07:59:30Z</time></trkpt><trkpt lat="44.48641805928777" lon="8.575814753985373"><ele>693.75</ele><time>2026-04-06T07:59:31Z</time></trkpt><trkpt lat="44.4862698054325" lon="8.575835185367353"><ele>694.0</ele><time>2026-04-06T07:59:32Z</time></trkpt><trkpt lat="44.48612082408195" lon="8.575875392801294"><ele>695.6666666666667</ele><time>2026-04-06T07:59:33Z</time></trkpt><trkpt lat="44.4859732992643" lon="8.575907551967665"><ele>697.3333333333334</ele><time>2026-04-06T07:59:34Z</time></trkpt><trkpt lat="44.48582336250887" lon="8.575933473563923"><ele>699.0</ele><time>2026-04-06T07:59:35Z</time></trkpt><trkpt lat="44.48566903512544" lon="8.575950168863224"><ele>699.0</ele><time>2026-04-06T07:59:36Z</time></trkpt><trkpt lat="44.485526134517194" lon="8.575908856520227"><ele>699.0</ele><time>2026-04-06T07:59:37Z</time></trkpt><trkpt lat="44.48537898562253" lon="8.57588051679723"><ele>699.0</ele><time>2026-04-06T07:59:38Z</time></trkpt><trkpt lat="44.48523666727155" lon="8.575825774787482"><ele>699.0</ele><time>2026-04-06T07:59:39Z</time></trkpt><trkpt lat="44.48510798151307" lon="8.575741739343817"><ele>701.0</ele><time>2026-04-06T07:59:40Z</time></trkpt><trkpt lat="44.48499141391775" lon="8.575619654088348"><ele>703.0</ele><time>2026-04-06T07:59:41Z</time></trkpt><trkpt lat="44.48487853016981" lon="8.575466431490762"><ele>705.0</ele><time>2026-04-06T07:59:42Z</time></trkpt><trkpt lat="44.484776819279325" lon="8.57534709614793"><ele>707.0</ele><time>2026-04-06T07:59:42.999Z</time></trkpt><trkpt lat="44.48468063325454" lon="8.575238838643315"><ele>707.0</ele><time>2026-04-06T07:59:43.999Z</time></trkpt><trkpt lat="44.48460232653576" lon="8.575107266112958"><ele>707.0</ele><time>2026-04-06T07:59:44.999Z</time></trkpt><trkpt lat="44.4845823894501" lon="8.574960350397445"><ele>707.0</ele><time>2026-04-06T07:59:45.999Z</time></trkpt><trkpt lat="44.48460955916303" lon="8.574820294949783"><ele>707.0</ele><time>2026-04-06T07:59:46.999Z</time></trkpt><trkpt lat="44.484669258100375" lon="8.57467300625671"><ele>707.0</ele><time>2026-04-06T07:59:47.999Z</time></trkpt><trkpt lat="44.484770963086596" lon="8.574533205434637"><ele>707.0</ele><time>2026-04-06T07:59:48.999Z</time></trkpt><trkpt lat="44.48488712949974" lon="8.574415079518637"><ele>707.0</ele><time>2026-04-06T07:59:49.999Z</time></trkpt><trkpt lat="44.484984332815074" lon="8.574278983475304"><ele>707.0</ele><time>2026-04-06T07:59:50.999Z</time></trkpt><trkpt lat="44.48503968093358" lon="8.574120116078301"><ele>709.25</ele><time>2026-04-06T07:59:51.999Z</time></trkpt><trkpt lat="44.485054297559834" lon="8.573938026974597"><ele>711.5</ele><time>2026-04-06T07:59:52.999Z</time></trkpt><trkpt lat="44.485028019784" lon="8.573753348039698"><ele>713.75</ele><time>2026-04-06T07:59:53.999Z</time></trkpt><trkpt lat="44.48495263651428" lon="8.573567068337978"><ele>716.0</ele><time>2026-04-06T07:59:54.999Z</time></trkpt><trkpt lat="44.484861957143735" lon="8.57341402368409"><ele>717.0</ele><time>2026-04-06T07:59:55.999Z</time></trkpt><trkpt lat="44.484771632797326" lon="8.573268023092751"><ele>718.0</ele><time>2026-04-06T07:59:56.999Z</time></trkpt><trkpt lat="44.48468769985604" lon="8.573125150600019"><ele>719.0</ele><time>2026-04-06T07:59:57.999Z</time></trkpt><trkpt lat="44.484621703749056" lon="8.572976233059611"><ele>720.0</ele><time>2026-04-06T07:59:58.999Z</time></trkpt><trkpt lat="44.4846062042051" lon="8.572786370417536"><ele>720.75</ele><time>2026-04-06T07:59:59.999Z</time></trkpt><trkpt lat="44.48461646447784" lon="8.572584947502303"><ele>721.5</ele><time>2026-04-06T08:00:00.999Z</time></trkpt><trkpt lat="44.4846497022202" lon="8.572393345439643"><ele>722.25</ele><time>2026-04-06T08:00:01.999Z</time></trkpt><trkpt lat="44.48464524135101" lon="8.572203749031804"><ele>723.0</ele><time>2026-04-06T08:00:02.999Z</time></trkpt><trkpt lat="44.48466351702376" lon="8.572024249630383"><ele>723.25</ele><time>2026-04-06T08:00:03.999Z</time></trkpt><trkpt lat="44.4846976886645" lon="8.57184560081178"><ele>723.5</ele><time>2026-04-06T08:00:04.999Z</time></trkpt><trkpt lat="44.4847395850908" lon="8.571673336869834"><ele>723.75</ele><time>2026-04-06T08:00:05.999Z</time></trkpt><trkpt lat="44.48474063894859" lon="8.571503444076269"><ele>724.0</ele><time>2026-04-06T08:00:06.999Z</time></trkpt><trkpt lat="44.48468782264903" lon="8.571356903079714"><ele>724.0</ele><time>2026-04-06T08:00:07.999Z</time></trkpt><trkpt lat="44.48459785957951" lon="8.571255451137011"><ele>724.0</ele><time>2026-04-06T08:00:08.999Z</time></trkpt><trkpt lat="44.484477376934315" lon="8.571221026726535"><ele>724.0</ele><time>2026-04-06T08:00:09.999Z</time></trkpt><trkpt lat="44.48434752105115" lon="8.571216844898906"><ele>724.0</ele><time>2026-04-06T08:00:10.999Z</time></trkpt><trkpt lat="44.48420514380921" lon="8.57120699267125"><ele>724.0</ele><time>2026-04-06T08:00:11.999Z</time></trkpt><trkpt lat="44.484061498685726" lon="8.571174810819638"><ele>724.0</ele><time>2026-04-06T08:00:12.999Z</time></trkpt><trkpt lat="44.48393293834598" lon="8.571125693584808"><ele>724.0</ele><time>2026-04-06T08:00:13.999Z</time></trkpt><trkpt lat="44.483812248555665" lon="8.571083827785381"><ele>724.0</ele><time>2026-04-06T08:00:14.999Z</time></trkpt><trkpt lat="44.48371823290423" lon="8.571024414984086"><ele>728.2</ele><time>2026-04-06T08:00:15.999Z</time></trkpt><trkpt lat="44.48365165822084" lon="8.570933254751683"><ele>732.4000000000001</ele><time>2026-04-06T08:00:16.999Z</time></trkpt><trkpt lat="44.48362459799789" lon="8.57079462474132"><ele>736.6</ele><time>2026-04-06T08:00:17.999Z</time></trkpt><trkpt lat="44.483636923203775" lon="8.57063499234916"><ele>740.8</ele><time>2026-04-06T08:00:18.999Z</time></trkpt><trkpt lat="44.483696922842704" lon="8.570475361425972"><ele>745.0</ele><time>2026-04-06T08:00:19.999Z</time></trkpt><trkpt lat="44.483735120233355" lon="8.570294045158104"><ele>745.0</ele><time>2026-04-06T08:00:20.999Z</time></trkpt><trkpt lat="44.48374153296995" lon="8.570112356046913"><ele>745.0</ele><time>2026-04-06T08:00:21.999Z</time></trkpt><trkpt lat="44.48373036403938" lon="8.569930388654868"><ele>745.0</ele><time>2026-04-06T08:00:22.999Z</time></trkpt><trkpt lat="44.48370210380282" lon="8.569747644692667"><ele>745.0</ele><time>2026-04-06T08:00:23.999Z</time></trkpt><trkpt lat="44.48363174833539" lon="8.569577361069477"><ele>744.0</ele><time>2026-04-06T08:00:24.999Z</time></trkpt><trkpt lat="44.48355512264324" lon="8.569408936395336"><ele>743.0</ele><time>2026-04-06T08:00:25.999Z</time></trkpt><trkpt lat="44.4834969453641" lon="8.569229135722258"><ele>742.0</ele><time>2026-04-06T08:00:26.999Z</time></trkpt><trkpt lat="44.48346001465469" lon="8.56902501070659"><ele>741.0</ele><time>2026-04-06T08:00:27.999Z</time></trkpt><trkpt lat="44.48341683760827" lon="8.568830725618747"><ele>740.8</ele><time>2026-04-06T08:00:28.999Z</time></trkpt><trkpt lat="44.48335840311259" lon="8.5686647782967"><ele>740.5999999999999</ele><time>2026-04-06T08:00:29.999Z</time></trkpt><trkpt lat="44.48327543297481" lon="8.568542543627713"><ele>740.4</ele><time>2026-04-06T08:00:30.999Z</time></trkpt><trkpt lat="44.48322205199568" lon="8.56843611362422"><ele>740.2</ele><time>2026-04-06T08:00:31.999Z</time></trkpt><trkpt lat="44.483211124750135" lon="8.568323221728873"><ele>740.0</ele><time>2026-04-06T08:00:32.999Z</time></trkpt><trkpt lat="44.483242977564096" lon="8.568208082329058"><ele>740.0</ele><time>2026-04-06T08:00:33.999Z</time></trkpt><trkpt lat="44.48331354661432" lon="8.568117923033697"><ele>740.0</ele><time>2026-04-06T08:00:34.999Z</time></trkpt><trkpt lat="44.48341732646663" lon="8.568074322582397"><ele>740.0</ele><time>2026-04-06T08:00:35.999Z</time></trkpt><trkpt lat="44.483537700070215" lon="8.568081435223204"><ele>740.0</ele><time>2026-04-06T08:00:36.999Z</time></trkpt><trkpt lat="44.48365158984658" lon="8.56806840370799"><ele>740.0</ele><time>2026-04-06T08:00:37.999Z</time></trkpt><trkpt lat="44.483767463180726" lon="8.56799073537845"><ele>739.0</ele><time>2026-04-06T08:00:38.999Z</time></trkpt><trkpt lat="44.48386672942988" lon="8.567884928528587"><ele>738.0</ele><time>2026-04-06T08:00:39.999Z</time></trkpt><trkpt lat="44.48393707915678" lon="8.56776384977232"><ele>737.0</ele><time>2026-04-06T08:00:40.999Z</time></trkpt><trkpt lat="44.4839643464043" lon="8.567617522020484"><ele>736.0</ele><time>2026-04-06T08:00:41.999Z</time></trkpt><trkpt lat="44.48394748867304" lon="8.567453258727463"><ele>736.0</ele><time>2026-04-06T08:00:42.999Z</time></trkpt><trkpt lat="44.483886973793744" lon="8.567282346438379"><ele>736.0</ele><time>2026-04-06T08:00:43.999Z</time></trkpt><trkpt lat="44.48382621665773" lon="8.567100819849445"><ele>736.0</ele><time>2026-04-06T08:00:44.999Z</time></trkpt><trkpt lat="44.48379643497518" lon="8.56691409489283"><ele>736.0</ele><time>2026-04-06T08:00:45.999Z</time></trkpt><trkpt lat="44.48378970407845" lon="8.566730362280357"><ele>736.5</ele><time>2026-04-06T08:00:46.999Z</time></trkpt><trkpt lat="44.483812635901145" lon="8.566552498550458"><ele>737.0</ele><time>2026-04-06T08:00:47.999Z</time></trkpt><trkpt lat="44.48384173256785" lon="8.56639071621744"><ele>737.5</ele><time>2026-04-06T08:00:48.999Z</time></trkpt><trkpt lat="44.48385908068104" lon="8.566222261617556"><ele>738.0</ele><time>2026-04-06T08:00:49.999Z</time></trkpt><trkpt lat="44.48382239861011" lon="8.566052251272934"><ele>741.5</ele><time>2026-04-06T08:00:50.999Z</time></trkpt><trkpt lat="44.48374938736515" lon="8.565887603266587"><ele>745.0</ele><time>2026-04-06T08:00:51.999Z</time></trkpt><trkpt lat="44.48367420472637" lon="8.565735746999646"><ele>748.5</ele><time>2026-04-06T08:00:52.999Z</time></trkpt><trkpt lat="44.483617902855265" lon="8.56559033335571"><ele>752.0</ele><time>2026-04-06T08:00:54Z</time></trkpt><trkpt lat="44.48357375996009" lon="8.565448096732178"><ele>750.25</ele><time>2026-04-06T08:00:55Z</time></trkpt><trkpt lat="44.48353997270755" lon="8.565285225226187"><ele>748.5</ele><time>2026-04-06T08:00:56Z</time></trkpt><trkpt lat="44.48351228194485" lon="8.565120312348897"><ele>746.75</ele><time>2026-04-06T08:00:57Z</time></trkpt><trkpt lat="44.48348554321508" lon="8.564961037704263"><ele>745.0</ele><time>2026-04-06T08:00:58Z</time></trkpt><trkpt lat="44.48344197320935" lon="8.564819137704504"><ele>745.0</ele><time>2026-04-06T08:00:59Z</time></trkpt><trkpt lat="44.483364924280025" lon="8.564697856697242"><ele>745.0</ele><time>2026-04-06T08:01:00Z</time></trkpt><trkpt lat="44.48324766751445" lon="8.564615433793355"><ele>745.0</ele><time>2026-04-06T08:01:01Z</time></trkpt><trkpt lat="44.48311086117522" lon="8.564576723270543"><ele>745.0</ele><time>2026-04-06T08:01:02Z</time></trkpt><trkpt lat="44.4829733840671" lon="8.56452289612176"><ele>744.25</ele><time>2026-04-06T08:01:03Z</time></trkpt><trkpt lat="44.48284085471821" lon="8.564478894736736"><ele>743.5</ele><time>2026-04-06T08:01:04Z</time></trkpt><trkpt lat="44.482697192189214" lon="8.56445207154176"><ele>742.75</ele><time>2026-04-06T08:01:05Z</time></trkpt><trkpt lat="44.48256743452005" lon="8.564440641616086"><ele>742.0</ele><time>2026-04-06T08:01:06Z</time></trkpt><trkpt lat="44.48244102939452" lon="8.564390193358856"><ele>742.0</ele><time>2026-04-06T08:01:07Z</time></trkpt><trkpt lat="44.4823427162359" lon="8.564278989864746"><ele>742.0</ele><time>2026-04-06T08:01:08Z</time></trkpt><trkpt lat="44.48225129405141" lon="8.56412175930968"><ele>742.0</ele><time>2026-04-06T08:01:09Z</time></trkpt><trkpt lat="44.482172747806025" lon="8.563946649481451"><ele>742.0</ele><time>2026-04-06T08:01:10Z</time></trkpt><trkpt lat="44.48209020460113" lon="8.563786836442516"><ele>743.25</ele><time>2026-04-06T08:01:11Z</time></trkpt><trkpt lat="44.482013213631916" lon="8.563648799964279"><ele>744.5</ele><time>2026-04-06T08:01:12Z</time></trkpt><trkpt lat="44.48193117185347" lon="8.563520401884466"><ele>745.75</ele><time>2026-04-06T08:01:13Z</time></trkpt><trkpt lat="44.48185092232999" lon="8.563395733852992"><ele>747.0</ele><time>2026-04-06T08:01:14Z</time></trkpt><trkpt lat="44.48178240863852" lon="8.563270891548147"><ele>747.0</ele><time>2026-04-06T08:01:15Z</time></trkpt><trkpt lat="44.48174567064092" lon="8.563132704789616"><ele>747.0</ele><time>2026-04-06T08:01:16Z</time></trkpt><trkpt lat="44.48172484529811" lon="8.56295400828625"><ele>747.0</ele><time>2026-04-06T08:01:17Z</time></trkpt><trkpt lat="44.48174576221543" lon="8.562793971375939"><ele>747.0</ele><time>2026-04-06T08:01:18Z</time></trkpt><trkpt lat="44.48179340675386" lon="8.562619627128822"><ele>748.0</ele><time>2026-04-06T08:01:19Z</time></trkpt><trkpt lat="44.481879930100234" lon="8.562468610495507"><ele>749.0</ele><time>2026-04-06T08:01:20Z</time></trkpt><trkpt lat="44.4819966006124" lon="8.562353394192911"><ele>750.0</ele><time>2026-04-06T08:01:21Z</time></trkpt><trkpt lat="44.482122607005" lon="8.562232029184267"><ele>751.0</ele><time>2026-04-06T08:01:22Z</time></trkpt><trkpt lat="44.48224009852273" lon="8.562114184549872"><ele>747.5</ele><time>2026-04-06T08:01:23Z</time></trkpt><trkpt lat="44.48232905734734" lon="8.561962177700781"><ele>744.0</ele><time>2026-04-06T08:01:24Z</time></trkpt><trkpt lat="44.4823889935429" lon="8.56177195308718"><ele>740.5</ele><time>2026-04-06T08:01:25Z</time></trkpt><trkpt lat="44.48242867263564" lon="8.561567513809042"><ele>737.0</ele><time>2026-04-06T08:01:26Z</time></trkpt><trkpt lat="44.48247063463122" lon="8.561368253079932"><ele>738.25</ele><time>2026-04-06T08:01:27Z</time></trkpt><trkpt lat="44.482512607626674" lon="8.561176539838316"><ele>739.5</ele><time>2026-04-06T08:01:28Z</time></trkpt><trkpt lat="44.482542846578845" lon="8.56097669638265"><ele>740.75</ele><time>2026-04-06T08:01:29Z</time></trkpt><trkpt lat="44.48254982864551" lon="8.560760885334854"><ele>742.0</ele><time>2026-04-06T08:01:30Z</time></trkpt><trkpt lat="44.48253303955509" lon="8.560548483695243"><ele>742.0</ele><time>2026-04-06T08:01:31Z</time></trkpt><trkpt lat="44.48251341895434" lon="8.560339061519786"><ele>742.0</ele><time>2026-04-06T08:01:32Z</time></trkpt><trkpt lat="44.48251453501607" lon="8.560115570969137"><ele>742.0</ele><time>2026-04-06T08:01:33Z</time></trkpt><trkpt lat="44.482543935695446" lon="8.559904777952038"><ele>742.0</ele><time>2026-04-06T08:01:34Z</time></trkpt><trkpt lat="44.4825916353177" lon="8.559706202172123"><ele>742.0</ele><time>2026-04-06T08:01:35Z</time></trkpt><trkpt lat="44.48264518694376" lon="8.559519648258147"><ele>742.0</ele><time>2026-04-06T08:01:36Z</time></trkpt><trkpt lat="44.482714984188384" lon="8.559348832231347"><ele>742.0</ele><time>2026-04-06T08:01:37Z</time></trkpt><trkpt lat="44.482818300792346" lon="8.559209213567208"><ele>743.25</ele><time>2026-04-06T08:01:38Z</time></trkpt><trkpt lat="44.48292588917628" lon="8.559085558534075"><ele>744.5</ele><time>2026-04-06T08:01:39Z</time></trkpt><trkpt lat="44.48298447193889" lon="8.558935523155965"><ele>745.75</ele><time>2026-04-06T08:01:40Z</time></trkpt><trkpt lat="44.48300142820336" lon="8.55875354160878"><ele>747.0</ele><time>2026-04-06T08:01:41Z</time></trkpt><trkpt lat="44.48302175803788" lon="8.558571699713218"><ele>741.25</ele><time>2026-04-06T08:01:42Z</time></trkpt><trkpt lat="44.48304030023424" lon="8.55838179569847"><ele>735.5</ele><time>2026-04-06T08:01:43Z</time></trkpt><trkpt lat="44.48303848068904" lon="8.558179364704108"><ele>729.75</ele><time>2026-04-06T08:01:44Z</time></trkpt><trkpt lat="44.48299836533347" lon="8.557980102986388"><ele>724.0</ele><time>2026-04-06T08:01:45Z</time></trkpt><trkpt lat="44.48295119994313" lon="8.557796206402138"><ele>721.25</ele><time>2026-04-06T08:01:46Z</time></trkpt><trkpt lat="44.48291376101818" lon="8.557615890061914"><ele>718.5</ele><time>2026-04-06T08:01:47Z</time></trkpt><trkpt lat="44.48289152247988" lon="8.557428092647081"><ele>715.75</ele><time>2026-04-06T08:01:48Z</time></trkpt><trkpt lat="44.482905556723075" lon="8.557240998414422"><ele>713.0</ele><time>2026-04-06T08:01:49Z</time></trkpt><trkpt lat="44.48296085893214" lon="8.557072859212488"><ele>711.4</ele><time>2026-04-06T08:01:50Z</time></trkpt><trkpt lat="44.48301123980928" lon="8.556960942220163"><ele>709.8</ele><time>2026-04-06T08:01:51Z</time></trkpt><trkpt lat="44.48305081186784" lon="8.556813549231942"><ele>708.2</ele><time>2026-04-06T08:01:52Z</time></trkpt><trkpt lat="44.48305402794362" lon="8.556674401069682"><ele>706.6</ele><time>2026-04-06T08:01:53Z</time></trkpt><trkpt lat="44.483002559405314" lon="8.556546418992708"><ele>705.0</ele><time>2026-04-06T08:01:54Z</time></trkpt><trkpt lat="44.4829099366487" lon="8.556466883203912"><ele>710.25</ele><time>2026-04-06T08:01:55Z</time></trkpt><trkpt lat="44.48280315675027" lon="8.556444917138965"><ele>715.5</ele><time>2026-04-06T08:01:56Z</time></trkpt><trkpt lat="44.48268564166291" lon="8.556455921956713"><ele>720.75</ele><time>2026-04-06T08:01:56.999Z</time></trkpt><trkpt lat="44.482567094568786" lon="8.556472468252798"><ele>726.0</ele><time>2026-04-06T08:01:57.999Z</time></trkpt><trkpt lat="44.482445083923096" lon="8.556479552086756"><ele>726.0</ele><time>2026-04-06T08:01:58.999Z</time></trkpt><trkpt lat="44.482315806548065" lon="8.55646155501834"><ele>726.0</ele><time>2026-04-06T08:01:59.999Z</time></trkpt><trkpt lat="44.482191254471424" lon="8.556415455112207"><ele>726.0</ele><time>2026-04-06T08:02:00.999Z</time></trkpt><trkpt lat="44.482070217717975" lon="8.556359718386496"><ele>726.0</ele><time>2026-04-06T08:02:01.999Z</time></trkpt><trkpt lat="44.481967263227745" lon="8.556304508040656"><ele>728.0</ele><time>2026-04-06T08:02:02.999Z</time></trkpt><trkpt lat="44.48188616442782" lon="8.556253683811509"><ele>730.0</ele><time>2026-04-06T08:02:03.999Z</time></trkpt><trkpt lat="44.48180224036267" lon="8.556185848621409"><ele>732.0</ele><time>2026-04-06T08:02:04.999Z</time></trkpt><trkpt lat="44.48173769369139" lon="8.556090037979263"><ele>734.0</ele><time>2026-04-06T08:02:05.999Z</time></trkpt><trkpt lat="44.48170014019162" lon="8.555967797606312"><ele>736.0</ele><time>2026-04-06T08:02:06.999Z</time></trkpt><trkpt lat="44.4816832979838" lon="8.555804336593654"><ele>731.0</ele><time>2026-04-06T08:02:07.999Z</time></trkpt><trkpt lat="44.48172590291113" lon="8.555645234000231"><ele>726.0</ele><time>2026-04-06T08:02:08.999Z</time></trkpt><trkpt lat="44.481763877762404" lon="8.55546815003764"><ele>721.0</ele><time>2026-04-06T08:02:09.999Z</time></trkpt><trkpt lat="44.48180288532416" lon="8.555283272578174"><ele>716.0</ele><time>2026-04-06T08:02:10.999Z</time></trkpt><trkpt lat="44.4818294672959" lon="8.555098890045672"><ele>714.75</ele><time>2026-04-06T08:02:11.999Z</time></trkpt><trkpt lat="44.4818557173928" lon="8.554911806862961"><ele>713.5</ele><time>2026-04-06T08:02:12.999Z</time></trkpt><trkpt lat="44.481886827137174" lon="8.554732007174813"><ele>712.25</ele><time>2026-04-06T08:02:13.999Z</time></trkpt><trkpt lat="44.48191849981463" lon="8.554561956931554"><ele>711.0</ele><time>2026-04-06T08:02:14.999Z</time></trkpt><trkpt lat="44.48197478356815" lon="8.554402999310277"><ele>708.25</ele><time>2026-04-06T08:02:15.999Z</time></trkpt><trkpt lat="44.48206925692798" lon="8.554287638251916"><ele>705.5</ele><time>2026-04-06T08:02:16.999Z</time></trkpt><trkpt lat="44.48218989523662" lon="8.554223918793655"><ele>702.75</ele><time>2026-04-06T08:02:17.999Z</time></trkpt><trkpt lat="44.48231758908223" lon="8.554162558642764"><ele>700.0</ele><time>2026-04-06T08:02:18.999Z</time></trkpt><trkpt lat="44.482434217707194" lon="8.554085400483704"><ele>700.0</ele><time>2026-04-06T08:02:19.999Z</time></trkpt><trkpt lat="44.48254240819729" lon="8.553969927120562"><ele>700.0</ele><time>2026-04-06T08:02:20.999Z</time></trkpt><trkpt lat="44.48263426028292" lon="8.553814363431004"><ele>700.0</ele><time>2026-04-06T08:02:21.999Z</time></trkpt><trkpt lat="44.482718704211656" lon="8.553655682597668"><ele>700.0</ele><time>2026-04-06T08:02:22.999Z</time></trkpt><trkpt lat="44.48281576115717" lon="8.553517564790772"><ele>698.5</ele><time>2026-04-06T08:02:23.999Z</time></trkpt><trkpt lat="44.48294092904612" lon="8.553432351414136"><ele>697.0</ele><time>2026-04-06T08:02:24.999Z</time></trkpt><trkpt lat="44.483079835454674" lon="8.55338242029764"><ele>695.5</ele><time>2026-04-06T08:02:25.999Z</time></trkpt><trkpt lat="44.48321231007832" lon="8.553333277965196"><ele>694.0</ele><time>2026-04-06T08:02:26.999Z</time></trkpt><trkpt lat="44.48333403987746" lon="8.553266922443447"><ele>694.0</ele><time>2026-04-06T08:02:27.999Z</time></trkpt><trkpt lat="44.48343808021497" lon="8.553189415725942"><ele>694.0</ele><time>2026-04-06T08:02:28.999Z</time></trkpt><trkpt lat="44.48352058843292" lon="8.553063006756686"><ele>694.0</ele><time>2026-04-06T08:02:29.999Z</time></trkpt><trkpt lat="44.48359854321196" lon="8.552919638103521"><ele>694.0</ele><time>2026-04-06T08:02:30.999Z</time></trkpt><trkpt lat="44.483690695965414" lon="8.552817711715537"><ele>690.2</ele><time>2026-04-06T08:02:31.999Z</time></trkpt><trkpt lat="44.483779915637555" lon="8.552737035640648"><ele>686.4000000000001</ele><time>2026-04-06T08:02:32.999Z</time></trkpt><trkpt lat="44.483823570547706" lon="8.552619189969983"><ele>682.6</ele><time>2026-04-06T08:02:33.999Z</time></trkpt><trkpt lat="44.4838237281076" lon="8.55246867489733"><ele>678.8</ele><time>2026-04-06T08:02:34.999Z</time></trkpt><trkpt lat="44.483790000187604" lon="8.552297260145671"><ele>675.0</ele><time>2026-04-06T08:02:35.999Z</time></trkpt><trkpt lat="44.48380641231765" lon="8.552125551284073"><ele>676.0</ele><time>2026-04-06T08:02:36.999Z</time></trkpt><trkpt lat="44.48385656249188" lon="8.551962952870966"><ele>677.0</ele><time>2026-04-06T08:02:37.999Z</time></trkpt><trkpt lat="44.48387949574084" lon="8.551799558297212"><ele>678.0</ele><time>2026-04-06T08:02:38.999Z</time></trkpt><trkpt lat="44.48386555647746" lon="8.551599073617878"><ele>679.0</ele><time>2026-04-06T08:02:39.999Z</time></trkpt><trkpt lat="44.483827123363554" lon="8.551419428202932"><ele>679.0</ele><time>2026-04-06T08:02:40.999Z</time></trkpt><trkpt lat="44.48377206008739" lon="8.55122813183289"><ele>679.0</ele><time>2026-04-06T08:02:41.999Z</time></trkpt><trkpt lat="44.48371027295994" lon="8.551055940017898"><ele>679.0</ele><time>2026-04-06T08:02:42.999Z</time></trkpt><trkpt lat="44.48364880078786" lon="8.550914897447704"><ele>679.0</ele><time>2026-04-06T08:02:43.999Z</time></trkpt><trkpt lat="44.48354327356445" lon="8.550821964630684"><ele>680.5</ele><time>2026-04-06T08:02:44.999Z</time></trkpt><trkpt lat="44.48341148215585" lon="8.55078265660653"><ele>682.0</ele><time>2026-04-06T08:02:45.999Z</time></trkpt><trkpt lat="44.483264054594656" lon="8.550759710675814"><ele>683.5</ele><time>2026-04-06T08:02:46.999Z</time></trkpt><trkpt lat="44.48312544372949" lon="8.550738702524303"><ele>685.0</ele><time>2026-04-06T08:02:47.999Z</time></trkpt><trkpt lat="44.48295588635502" lon="8.550740769395325"><ele>685.5</ele><time>2026-04-06T08:02:48.999Z</time></trkpt><trkpt lat="44.48281095401848" lon="8.550754065769182"><ele>686.0</ele><time>2026-04-06T08:02:49.999Z</time></trkpt><trkpt lat="44.48266798843824" lon="8.550747533366456"><ele>686.5</ele><time>2026-04-06T08:02:50.999Z</time></trkpt><trkpt lat="44.48254840026149" lon="8.550681984069714"><ele>687.0</ele><time>2026-04-06T08:02:51.999Z</time></trkpt><trkpt lat="44.48242829361226" lon="8.550637145591416"><ele>687.0</ele><time>2026-04-06T08:02:52.999Z</time></trkpt><trkpt lat="44.482293042146196" lon="8.550667989688918"><ele>687.0</ele><time>2026-04-06T08:02:53.999Z</time></trkpt><trkpt lat="44.482162004765904" lon="8.550697667166615"><ele>687.0</ele><time>2026-04-06T08:02:54.999Z</time></trkpt><trkpt lat="44.4820269147489" lon="8.550716916532666"><ele>687.0</ele><time>2026-04-06T08:02:55.999Z</time></trkpt><trkpt lat="44.48189727472549" lon="8.550725176686408"><ele>685.25</ele><time>2026-04-06T08:02:56.999Z</time></trkpt><trkpt lat="44.481767738621485" lon="8.550786185230537"><ele>683.5</ele><time>2026-04-06T08:02:57.999Z</time></trkpt><trkpt lat="44.48163553098291" lon="8.550903648012069"><ele>681.75</ele><time>2026-04-06T08:02:58.999Z</time></trkpt><trkpt lat="44.48151013155952" lon="8.551006305359197"><ele>680.0</ele><time>2026-04-06T08:03:00Z</time></trkpt><trkpt lat="44.48137521959301" lon="8.551104003035025"><ele>680.25</ele><time>2026-04-06T08:03:01Z</time></trkpt><trkpt lat="44.48123735663314" lon="8.551201859316706"><ele>680.5</ele><time>2026-04-06T08:03:02Z</time></trkpt><trkpt lat="44.481106691568314" lon="8.551285732886324"><ele>680.75</ele><time>2026-04-06T08:03:03Z</time></trkpt><trkpt lat="44.48099735738692" lon="8.551361691783802"><ele>681.0</ele><time>2026-04-06T08:03:04Z</time></trkpt><trkpt lat="44.4808732123527" lon="8.551361040111917"><ele>681.0</ele><time>2026-04-06T08:03:05Z</time></trkpt><trkpt lat="44.48074984497731" lon="8.551329133763783"><ele>681.0</ele><time>2026-04-06T08:03:06Z</time></trkpt><trkpt lat="44.48063107934993" lon="8.55125782352542"><ele>681.0</ele><time>2026-04-06T08:03:07Z</time></trkpt><trkpt lat="44.48051200429178" lon="8.551160127091215"><ele>681.0</ele><time>2026-04-06T08:03:08Z</time></trkpt><trkpt lat="44.480404931259" lon="8.551070513958972"><ele>682.5999999999999</ele><time>2026-04-06T08:03:09Z</time></trkpt><trkpt lat="44.480318902071815" lon="8.550964461525096"><ele>684.2</ele><time>2026-04-06T08:03:10Z</time></trkpt><trkpt lat="44.48026070655185" lon="8.550835147805264"><ele>685.8</ele><time>2026-04-06T08:03:11Z</time></trkpt><trkpt lat="44.48024609622028" lon="8.55068468048065"><ele>687.4000000000001</ele><time>2026-04-06T08:03:12Z</time></trkpt><trkpt lat="44.48023931628255" lon="8.550533057987373"><ele>689.0</ele><time>2026-04-06T08:03:13Z</time></trkpt><trkpt lat="44.480249171476196" lon="8.550403607049633"><ele>688.8000000000001</ele><time>2026-04-06T08:03:14Z</time></trkpt><trkpt lat="44.48029744937637" lon="8.550287479173118"><ele>688.6</ele><time>2026-04-06T08:03:15Z</time></trkpt><trkpt lat="44.48038890195561" lon="8.550225622292267"><ele>688.4</ele><time>2026-04-06T08:03:16Z</time></trkpt><trkpt lat="44.480497667334305" lon="8.550240231693179"><ele>688.2</ele><time>2026-04-06T08:03:17Z</time></trkpt><trkpt lat="44.480594520683" lon="8.550339555034094"><ele>688.0</ele><time>2026-04-06T08:03:18Z</time></trkpt><trkpt lat="44.480740041775945" lon="8.550393813851194"><ele>687.75</ele><time>2026-04-06T08:03:19Z</time></trkpt><trkpt lat="44.48088736203119" lon="8.550395179430154"><ele>687.5</ele><time>2026-04-06T08:03:20Z</time></trkpt><trkpt lat="44.481022953915065" lon="8.550383769192441"><ele>687.25</ele><time>2026-04-06T08:03:21Z</time></trkpt><trkpt lat="44.48113893661726" lon="8.55037879554503"><ele>687.0</ele><time>2026-04-06T08:03:22Z</time></trkpt><trkpt lat="44.48124223962292" lon="8.550304407900915"><ele>684.0</ele><time>2026-04-06T08:03:23Z</time></trkpt><trkpt lat="44.481343433875935" lon="8.55017183203141"><ele>681.0</ele><time>2026-04-06T08:03:24Z</time></trkpt><trkpt lat="44.4814411037525" lon="8.550033126841647"><ele>678.0</ele><time>2026-04-06T08:03:25Z</time></trkpt><trkpt lat="44.481526765618455" lon="8.549901781366302"><ele>675.0</ele><time>2026-04-06T08:03:26Z</time></trkpt><trkpt lat="44.48157413923738" lon="8.549746129695686"><ele>675.0</ele><time>2026-04-06T08:03:27Z</time></trkpt><trkpt lat="44.48159550738254" lon="8.549587811833517"><ele>675.0</ele><time>2026-04-06T08:03:28Z</time></trkpt><trkpt lat="44.481617520639574" lon="8.549442807640869"><ele>675.0</ele><time>2026-04-06T08:03:29Z</time></trkpt><trkpt lat="44.481688683193404" lon="8.549316839049638"><ele>675.0</ele><time>2026-04-06T08:03:30Z</time></trkpt><trkpt lat="44.48179726555056" lon="8.5492433013775"><ele>676.5</ele><time>2026-04-06T08:03:31Z</time></trkpt><trkpt lat="44.48193689922932" lon="8.54923005867924"><ele>678.0</ele><time>2026-04-06T08:03:32Z</time></trkpt><trkpt lat="44.482071639817256" lon="8.54920912162602"><ele>679.5</ele><time>2026-04-06T08:03:33Z</time></trkpt><trkpt lat="44.482206399708524" lon="8.549215034681286"><ele>681.0</ele><time>2026-04-06T08:03:34Z</time></trkpt><trkpt lat="44.48234080796493" lon="8.549250815339002"><ele>681.0</ele><time>2026-04-06T08:03:35Z</time></trkpt><trkpt lat="44.48248549954023" lon="8.549315929949568"><ele>681.0</ele><time>2026-04-06T08:03:36Z</time></trkpt><trkpt lat="44.48262546259138" lon="8.549359388336596"><ele>681.0</ele><time>2026-04-06T08:03:37Z</time></trkpt><trkpt lat="44.48276386088169" lon="8.549384028038794"><ele>681.0</ele><time>2026-04-06T08:03:38Z</time></trkpt><trkpt lat="44.48290206347297" lon="8.54939124194974"><ele>679.0</ele><time>2026-04-06T08:03:39Z</time></trkpt><trkpt lat="44.48304438769398" lon="8.549429857254696"><ele>677.0</ele><time>2026-04-06T08:03:40Z</time></trkpt><trkpt lat="44.48317495253165" lon="8.549438628643383"><ele>675.0</ele><time>2026-04-06T08:03:41Z</time></trkpt><trkpt lat="44.48329591665748" lon="8.549440258790472"><ele>673.0</ele><time>2026-04-06T08:03:42Z</time></trkpt><trkpt lat="44.48338891030876" lon="8.549375256081888"><ele>673.0</ele><time>2026-04-06T08:03:43Z</time></trkpt><trkpt lat="44.48349998763624" lon="8.549253127693824"><ele>673.0</ele><time>2026-04-06T08:03:44Z</time></trkpt><trkpt lat="44.483594052928375" lon="8.549133824445237"><ele>673.0</ele><time>2026-04-06T08:03:45Z</time></trkpt><trkpt lat="44.48367889478269" lon="8.548988118877398"><ele>673.0</ele><time>2026-04-06T08:03:46Z</time></trkpt><trkpt lat="44.48374621416881" lon="8.548804725553499"><ele>674.25</ele><time>2026-04-06T08:03:47Z</time></trkpt><trkpt lat="44.48379243197038" lon="8.548638578350024"><ele>675.5</ele><time>2026-04-06T08:03:48Z</time></trkpt><trkpt lat="44.48379844704869" lon="8.548484535765718"><ele>676.75</ele><time>2026-04-06T08:03:49Z</time></trkpt><trkpt lat="44.483764591118494" lon="8.548338378143427"><ele>678.0</ele><time>2026-04-06T08:03:50Z</time></trkpt><trkpt lat="44.48369916642543" lon="8.548180072999582"><ele>678.0</ele><time>2026-04-06T08:03:51Z</time></trkpt><trkpt lat="44.48362298194519" lon="8.54801612888838"><ele>678.0</ele><time>2026-04-06T08:03:52Z</time></trkpt><trkpt lat="44.483539932787174" lon="8.547860093732302"><ele>678.0</ele><time>2026-04-06T08:03:53Z</time></trkpt><trkpt lat="44.483434614928676" lon="8.547715309260116"><ele>678.0</ele><time>2026-04-06T08:03:54Z</time></trkpt><trkpt lat="44.48333453457568" lon="8.547562107906849"><ele>680.75</ele><time>2026-04-06T08:03:55Z</time></trkpt><trkpt lat="44.48323301777326" lon="8.547410972141892"><ele>683.5</ele><time>2026-04-06T08:03:56Z</time></trkpt><trkpt lat="44.483135943485756" lon="8.54727174439057"><ele>686.25</ele><time>2026-04-06T08:03:57Z</time></trkpt><trkpt lat="44.48302543289239" lon="8.547180726957157"><ele>689.0</ele><time>2026-04-06T08:03:58Z</time></trkpt><trkpt lat="44.48292349731386" lon="8.547122733546297"><ele>689.0</ele><time>2026-04-06T08:03:59Z</time></trkpt><trkpt lat="44.48286646462371" lon="8.54704496188371"><ele>689.0</ele><time>2026-04-06T08:04:00Z</time></trkpt><trkpt lat="44.48284520395574" lon="8.546924837382155"><ele>689.0</ele><time>2026-04-06T08:04:01Z</time></trkpt><trkpt lat="44.48285828712542" lon="8.546774294401919"><ele>689.0</ele><time>2026-04-06T08:04:02Z</time></trkpt><trkpt lat="44.48288947485804" lon="8.546624288343214"><ele>689.0</ele><time>2026-04-06T08:04:03Z</time></trkpt><trkpt lat="44.48295561823548" lon="8.54651048905091"><ele>682.0</ele><time>2026-04-06T08:04:04Z</time></trkpt><trkpt lat="44.483052807980215" lon="8.546430653014264"><ele>675.0</ele><time>2026-04-06T08:04:05Z</time></trkpt><trkpt lat="44.48317534911452" lon="8.5463952280224"><ele>668.0</ele><time>2026-04-06T08:04:06Z</time></trkpt><trkpt lat="44.483306599669945" lon="8.5463732128154"><ele>661.0</ele><time>2026-04-06T08:04:07Z</time></trkpt><trkpt lat="44.48343783682245" lon="8.54636588800914"><ele>661.0</ele><time>2026-04-06T08:04:08Z</time></trkpt><trkpt lat="44.48355125650573" lon="8.546381334440731"><ele>661.0</ele><time>2026-04-06T08:04:09Z</time></trkpt><trkpt lat="44.48365498097061" lon="8.546434235706512"><ele>661.0</ele><time>2026-04-06T08:04:10Z</time></trkpt><trkpt lat="44.48374061628745" lon="8.546550608124921"><ele>661.0</ele><time>2026-04-06T08:04:11Z</time></trkpt><trkpt lat="44.48380703504308" lon="8.546690525934832"><ele>663.0</ele><time>2026-04-06T08:04:12Z</time></trkpt><trkpt lat="44.48389660241532" lon="8.546821252416095"><ele>665.0</ele><time>2026-04-06T08:04:12.999Z</time></trkpt><trkpt lat="44.48400902753256" lon="8.546910312278674"><ele>667.0</ele><time>2026-04-06T08:04:13.999Z</time></trkpt><trkpt lat="44.48414488645212" lon="8.5469614321667"><ele>669.0</ele><time>2026-04-06T08:04:14.999Z</time></trkpt><trkpt lat="44.484290358436844" lon="8.546979301306946"><ele>669.0</ele><time>2026-04-06T08:04:15.999Z</time></trkpt><trkpt lat="44.484439771743496" lon="8.546983928276585"><ele>669.0</ele><time>2026-04-06T08:04:16.999Z</time></trkpt><trkpt lat="44.484581760378084" lon="8.547003194257591"><ele>669.0</ele><time>2026-04-06T08:04:17.999Z</time></trkpt><trkpt lat="44.484715705638784" lon="8.547038786838524"><ele>669.0</ele><time>2026-04-06T08:04:18.999Z</time></trkpt><trkpt lat="44.48482189275359" lon="8.547134621881245"><ele>667.5</ele><time>2026-04-06T08:04:19.999Z</time></trkpt><trkpt lat="44.484925213918864" lon="8.547290894023787"><ele>666.0</ele><time>2026-04-06T08:04:20.999Z</time></trkpt><trkpt lat="44.48500831346678" lon="8.54746234114112"><ele>664.5</ele><time>2026-04-06T08:04:21.999Z</time></trkpt><trkpt lat="44.4851184480249" lon="8.547597282063503"><ele>663.0</ele><time>2026-04-06T08:04:22.999Z</time></trkpt><trkpt lat="44.485259223410495" lon="8.547696312362953"><ele>663.0</ele><time>2026-04-06T08:04:23.999Z</time></trkpt><trkpt lat="44.48540503493281" lon="8.547775607580638"><ele>663.0</ele><time>2026-04-06T08:04:24.999Z</time></trkpt><trkpt lat="44.48554972174769" lon="8.547846002080899"><ele>663.0</ele><time>2026-04-06T08:04:25.999Z</time></trkpt><trkpt lat="44.48568653942352" lon="8.547900863034004"><ele>660.5</ele><time>2026-04-06T08:04:26.999Z</time></trkpt><trkpt lat="44.485807102513334" lon="8.547959612511345"><ele>658.0</ele><time>2026-04-06T08:04:27.999Z</time></trkpt><trkpt lat="44.485930290418935" lon="8.547986596296928"><ele>655.5</ele><time>2026-04-06T08:04:28.999Z</time></trkpt><trkpt lat="44.48605284667968" lon="8.548009255733549"><ele>653.0</ele><time>2026-04-06T08:04:29.999Z</time></trkpt><trkpt lat="44.48616938039413" lon="8.548053129938266"><ele>654.75</ele><time>2026-04-06T08:04:30.999Z</time></trkpt><trkpt lat="44.486266403907145" lon="8.54814570996431"><ele>656.5</ele><time>2026-04-06T08:04:31.999Z</time></trkpt><trkpt lat="44.48635214663714" lon="8.548262658862676"><ele>658.25</ele><time>2026-04-06T08:04:32.999Z</time></trkpt><trkpt lat="44.48643986324992" lon="8.548380267839878"><ele>660.0</ele><time>2026-04-06T08:04:33.999Z</time></trkpt><trkpt lat="44.48651970402666" lon="8.548504259165279"><ele>660.0</ele><time>2026-04-06T08:04:34.999Z</time></trkpt><trkpt lat="44.486592913577695" lon="8.54863536980045"><ele>660.0</ele><time>2026-04-06T08:04:35.999Z</time></trkpt><trkpt lat="44.486657626318305" lon="8.548764295310248"><ele>660.0</ele><time>2026-04-06T08:04:36.999Z</time></trkpt><trkpt lat="44.48672849781973" lon="8.548868796326222"><ele>660.0</ele><time>2026-04-06T08:04:37.999Z</time></trkpt><trkpt lat="44.48682054846284" lon="8.548951083304823"><ele>660.0</ele><time>2026-04-06T08:04:38.999Z</time></trkpt><trkpt lat="44.48692411738491" lon="8.549001371684792"><ele>659.6666666666666</ele><time>2026-04-06T08:04:39.999Z</time></trkpt><trkpt lat="44.48701282429663" lon="8.54903171689236"><ele>659.3333333333334</ele><time>2026-04-06T08:04:40.999Z</time></trkpt><trkpt lat="44.487089838147995" lon="8.54905912623567"><ele>659.0</ele><time>2026-04-06T08:04:41.999Z</time></trkpt><trkpt lat="44.48716683928913" lon="8.549083295730261"><ele>658.6666666666667</ele><time>2026-04-06T08:04:42.999Z</time></trkpt><trkpt lat="44.48723746201279" lon="8.549076035593533"><ele>658.3333333333334</ele><time>2026-04-06T08:04:43.999Z</time></trkpt><trkpt lat="44.487308673486346" lon="8.549051855986683"><ele>658.0</ele><time>2026-04-06T08:04:44.999Z</time></trkpt><trkpt lat="44.48739228821202" lon="8.549020043524191"><ele>658.0</ele><time>2026-04-06T08:04:45.999Z</time></trkpt><trkpt lat="44.487480198151154" lon="8.548981751926776"><ele>658.0</ele><time>2026-04-06T08:04:46.999Z</time></trkpt><trkpt lat="44.487582294101784" lon="8.548938338930027"><ele>658.0</ele><time>2026-04-06T08:04:47.999Z</time></trkpt><trkpt lat="44.487684910374945" lon="8.548895150900064"><ele>658.0</ele><time>2026-04-06T08:04:48.999Z</time></trkpt><trkpt lat="44.48778425359902" lon="8.548843502884182"><ele>658.0</ele><time>2026-04-06T08:04:49.999Z</time></trkpt><trkpt lat="44.48788236986058" lon="8.548794615070072"><ele>658.0</ele><time>2026-04-06T08:04:50.999Z</time></trkpt><trkpt lat="44.48798607252963" lon="8.548751166630717"><ele>658.0</ele><time>2026-04-06T08:04:51.999Z</time></trkpt><trkpt lat="44.488091319304985" lon="8.548714133946053"><ele>658.0</ele><time>2026-04-06T08:04:52.999Z</time></trkpt><trkpt lat="44.48819269381186" lon="8.548674570488982"><ele>658.0</ele><time>2026-04-06T08:04:53.999Z</time></trkpt><trkpt lat="44.488294343475545" lon="8.54862839773378"><ele>658.0</ele><time>2026-04-06T08:04:54.999Z</time></trkpt><trkpt lat="44.488389587669744" lon="8.548585452548888"><ele>656.8</ele><time>2026-04-06T08:04:55.999Z</time></trkpt><trkpt lat="44.48848048045768" lon="8.548545226403709"><ele>655.5999999999999</ele><time>2026-04-06T08:04:56.999Z</time></trkpt><trkpt lat="44.48857012839889" lon="8.548514536933036"><ele>654.4000000000001</ele><time>2026-04-06T08:04:57.999Z</time></trkpt><trkpt lat="44.4886562495999" lon="8.548477244126145"><ele>653.2</ele><time>2026-04-06T08:04:58.999Z</time></trkpt><trkpt lat="44.48874014117029" lon="8.548437866767184"><ele>652.0</ele><time>2026-04-06T08:04:59.999Z</time></trkpt><trkpt lat="44.48882671939048" lon="8.54838905766469"><ele>651.8</ele><time>2026-04-06T08:05:00.999Z</time></trkpt><trkpt lat="44.4889076165833" lon="8.54833288385256"><ele>651.6</ele><time>2026-04-06T08:05:01.999Z</time></trkpt><trkpt lat="44.48898192697897" lon="8.548259691016312"><ele>651.4</ele><time>2026-04-06T08:05:02.999Z</time></trkpt><trkpt lat="44.489052199076845" lon="8.54817850264959"><ele>651.1999999999999</ele><time>2026-04-06T08:05:03.999Z</time></trkpt><trkpt lat="44.48911643645183" lon="8.548090817055579"><ele>651.0</ele><time>2026-04-06T08:05:04.999Z</time></trkpt><trkpt lat="44.489188025794924" lon="8.547997065572716"><ele>651.0</ele><time>2026-04-06T08:05:06Z</time></trkpt><trkpt lat="44.48925463523545" lon="8.547907985651749"><ele>651.0</ele><time>2026-04-06T08:05:07Z</time></trkpt><trkpt lat="44.489326141990965" lon="8.547815934513794"><ele>651.0</ele><time>2026-04-06T08:05:08Z</time></trkpt><trkpt lat="44.48939680599784" lon="8.54772325072201"><ele>651.0</ele><time>2026-04-06T08:05:09Z</time></trkpt><trkpt lat="44.48947110436238" lon="8.547629780748665"><ele>651.0</ele><time>2026-04-06T08:05:10Z</time></trkpt><trkpt lat="44.48955238801133" lon="8.547529180600666"><ele>650.25</ele><time>2026-04-06T08:05:11Z</time></trkpt><trkpt lat="44.48963076487224" lon="8.547424019836978"><ele>649.5</ele><time>2026-04-06T08:05:12Z</time></trkpt><trkpt lat="44.48970490864036" lon="8.547305807598558"><ele>648.75</ele><time>2026-04-06T08:05:13Z</time></trkpt><trkpt lat="44.48978309624567" lon="8.547182126612078"><ele>648.0</ele><time>2026-04-06T08:05:14Z</time></trkpt><trkpt lat="44.48986525766905" lon="8.547056788109634"><ele>646.5</ele><time>2026-04-06T08:05:15Z</time></trkpt><trkpt lat="44.48995001148606" lon="8.546926454483698"><ele>645.0</ele><time>2026-04-06T08:05:16Z</time></trkpt><trkpt lat="44.49003510587534" lon="8.546791018940262"><ele>643.5</ele><time>2026-04-06T08:05:17Z</time></trkpt><trkpt lat="44.49011725067069" lon="8.546655304466762"><ele>642.0</ele><time>2026-04-06T08:05:18Z</time></trkpt><trkpt lat="44.49019871138033" lon="8.546520359683782"><ele>642.0</ele><time>2026-04-06T08:05:19Z</time></trkpt><trkpt lat="44.490278826385406" lon="8.546392331450658"><ele>642.0</ele><time>2026-04-06T08:05:20Z</time></trkpt><trkpt lat="44.490358512073165" lon="8.54626539363218"><ele>642.0</ele><time>2026-04-06T08:05:21Z</time></trkpt><trkpt lat="44.49044748695008" lon="8.546147008229706"><ele>642.0</ele><time>2026-04-06T08:05:22Z</time></trkpt><trkpt lat="44.49054777432869" lon="8.546042856096102"><ele>639.25</ele><time>2026-04-06T08:05:23Z</time></trkpt><trkpt lat="44.49065626855223" lon="8.545966291795404"><ele>636.5</ele><time>2026-04-06T08:05:24Z</time></trkpt><trkpt lat="44.49076965703322" lon="8.545912290447767"><ele>633.75</ele><time>2026-04-06T08:05:25Z</time></trkpt><trkpt lat="44.49088094352872" lon="8.545911932375834"><ele>631.0</ele><time>2026-04-06T08:05:26Z</time></trkpt><trkpt lat="44.49100121779559" lon="8.54596127968134"><ele>631.0</ele><time>2026-04-06T08:05:27Z</time></trkpt><trkpt lat="44.49111600761726" lon="8.546057418363656"><ele>631.0</ele><time>2026-04-06T08:05:28Z</time></trkpt><trkpt lat="44.49121995747255" lon="8.54614172433586"><ele>631.0</ele><time>2026-04-06T08:05:29Z</time></trkpt><trkpt lat="44.49133217663083" lon="8.546229836548749"><ele>631.0</ele><time>2026-04-06T08:05:30Z</time></trkpt><trkpt lat="44.49145929283149" lon="8.54631969395039"><ele>631.0</ele><time>2026-04-06T08:05:31Z</time></trkpt><trkpt lat="44.491553387983714" lon="8.546401971046729"><ele>631.0</ele><time>2026-04-06T08:05:32Z</time></trkpt><trkpt lat="44.491651887919346" lon="8.546537385470062"><ele>631.0</ele><time>2026-04-06T08:05:33Z</time></trkpt><trkpt lat="44.49172191986974" lon="8.546687123347475"><ele>631.0</ele><time>2026-04-06T08:05:34Z</time></trkpt><trkpt lat="44.49182595168297" lon="8.546814860265075"><ele>631.0</ele><time>2026-04-06T08:05:35Z</time></trkpt><trkpt lat="44.491951376396955" lon="8.54687663051627"><ele>631.0</ele><time>2026-04-06T08:05:36Z</time></trkpt><trkpt lat="44.4920727315192" lon="8.546933896819871"><ele>631.0</ele><time>2026-04-06T08:05:37Z</time></trkpt><trkpt lat="44.49217915683024" lon="8.547021322331117"><ele>631.0</ele><time>2026-04-06T08:05:38Z</time></trkpt><trkpt lat="44.492272038456996" lon="8.547155797373847"><ele>628.25</ele><time>2026-04-06T08:05:39Z</time></trkpt><trkpt lat="44.49236328810894" lon="8.547295096513745"><ele>625.5</ele><time>2026-04-06T08:05:40Z</time></trkpt><trkpt lat="44.49246579724581" lon="8.5474013677489"><ele>622.75</ele><time>2026-04-06T08:05:41Z</time></trkpt><trkpt lat="44.49259112258104" lon="8.547465040190247"><ele>620.0</ele><time>2026-04-06T08:05:42Z</time></trkpt><trkpt lat="44.4927320402949" lon="8.5474919441251"><ele>620.0</ele><time>2026-04-06T08:05:43Z</time></trkpt><trkpt lat="44.49287123652352" lon="8.547478161233554"><ele>620.0</ele><time>2026-04-06T08:05:44Z</time></trkpt><trkpt lat="44.49300527961747" lon="8.547439064965259"><ele>620.0</ele><time>2026-04-06T08:05:45Z</time></trkpt><trkpt lat="44.493141315476876" lon="8.547393207671613"><ele>620.0</ele><time>2026-04-06T08:05:46Z</time></trkpt><trkpt lat="44.493281766947796" lon="8.547322090996667"><ele>620.0</ele><time>2026-04-06T08:05:47Z</time></trkpt><trkpt lat="44.4934008309643" lon="8.54722430827092"><ele>620.0</ele><time>2026-04-06T08:05:48Z</time></trkpt><trkpt lat="44.493517887921364" lon="8.54712099056413"><ele>620.0</ele><time>2026-04-06T08:05:49Z</time></trkpt><trkpt lat="44.49362900624487" lon="8.547024786438767"><ele>620.0</ele><time>2026-04-06T08:05:50Z</time></trkpt><trkpt lat="44.493756677189246" lon="8.546961165714388"><ele>620.0</ele><time>2026-04-06T08:05:51Z</time></trkpt><trkpt lat="44.49388951626161" lon="8.54698775938849"><ele>620.0</ele><time>2026-04-06T08:05:52Z</time></trkpt><trkpt lat="44.49401964542137" lon="8.547082953416252"><ele>620.0</ele><time>2026-04-06T08:05:53Z</time></trkpt><trkpt lat="44.49413615613781" lon="8.547235414087014"><ele>620.0</ele><time>2026-04-06T08:05:54Z</time></trkpt><trkpt lat="44.4942487369368" lon="8.54736920820155"><ele>620.5</ele><time>2026-04-06T08:05:55Z</time></trkpt><trkpt lat="44.494369153695246" lon="8.547492985840963"><ele>621.0</ele><time>2026-04-06T08:05:56Z</time></trkpt><trkpt lat="44.494490338376686" lon="8.547615454135874"><ele>621.5</ele><time>2026-04-06T08:05:57Z</time></trkpt><trkpt lat="44.49461139873839" lon="8.547732521062251"><ele>622.0</ele><time>2026-04-06T08:05:58Z</time></trkpt><trkpt lat="44.49472956794997" lon="8.54785810882305"><ele>621.0</ele><time>2026-04-06T08:05:59Z</time></trkpt><trkpt lat="44.49484973641122" lon="8.547971258544875"><ele>620.0</ele><time>2026-04-06T08:06:00Z</time></trkpt><trkpt lat="44.4949603887416" lon="8.54809027523056"><ele>619.0</ele><time>2026-04-06T08:06:01Z</time></trkpt><trkpt lat="44.4950607453867" lon="8.548207757486757"><ele>618.0</ele><time>2026-04-06T08:06:02Z</time></trkpt><trkpt lat="44.49516268537754" lon="8.548295552607597"><ele>618.0</ele><time>2026-04-06T08:06:03Z</time></trkpt><trkpt lat="44.49527562083327" lon="8.548346305527515"><ele>618.0</ele><time>2026-04-06T08:06:04Z</time></trkpt><trkpt lat="44.49539316594362" lon="8.548320538212533"><ele>618.0</ele><time>2026-04-06T08:06:05Z</time></trkpt><trkpt lat="44.49550486299116" lon="8.548232179479037"><ele>618.0</ele><time>2026-04-06T08:06:06Z</time></trkpt><trkpt lat="44.4956197422418" lon="8.548109258727163"><ele>617.3333333333334</ele><time>2026-04-06T08:06:07Z</time></trkpt><trkpt lat="44.495744136333606" lon="8.5479775550761"><ele>616.6666666666667</ele><time>2026-04-06T08:06:08Z</time></trkpt><trkpt lat="44.49586881363704" lon="8.547862296947653"><ele>616.0</ele><time>2026-04-06T08:06:09Z</time></trkpt><trkpt lat="44.49600103241652" lon="8.547735529801223"><ele>618.0</ele><time>2026-04-06T08:06:10Z</time></trkpt><trkpt lat="44.49612198290333" lon="8.5476184831575"><ele>620.0</ele><time>2026-04-06T08:06:11Z</time></trkpt><trkpt lat="44.496234688799454" lon="8.547494668468106"><ele>622.0</ele><time>2026-04-06T08:06:12Z</time></trkpt><trkpt lat="44.49632291019404" lon="8.547344502178667"><ele>624.0</ele><time>2026-04-06T08:06:13Z</time></trkpt><trkpt lat="44.4963846701029" lon="8.547167329695396"><ele>619.25</ele><time>2026-04-06T08:06:14Z</time></trkpt><trkpt lat="44.49641638849294" lon="8.546971421166022"><ele>614.5</ele><time>2026-04-06T08:06:15Z</time></trkpt><trkpt lat="44.49642881204179" lon="8.546760972679083"><ele>609.75</ele><time>2026-04-06T08:06:16Z</time></trkpt><trkpt lat="44.496429208068825" lon="8.546543691651857"><ele>605.0</ele><time>2026-04-06T08:06:17Z</time></trkpt><trkpt lat="44.49641970797527" lon="8.546327575260964"><ele>605.0</ele><time>2026-04-06T08:06:18Z</time></trkpt><trkpt lat="44.49641107646185" lon="8.546116577450393"><ele>605.0</ele><time>2026-04-06T08:06:19Z</time></trkpt><trkpt lat="44.49641080982835" lon="8.545915477913663"><ele>605.0</ele><time>2026-04-06T08:06:20Z</time></trkpt><trkpt lat="44.4964106575361" lon="8.545736342638273"><ele>605.0</ele><time>2026-04-06T08:06:21Z</time></trkpt><trkpt lat="44.496425286669044" lon="8.545588647095087"><ele>605.0</ele><time>2026-04-06T08:06:22Z</time></trkpt><trkpt lat="44.496475166399144" lon="8.545462388097352"><ele>605.0</ele><time>2026-04-06T08:06:23Z</time></trkpt><trkpt lat="44.4965668429056" lon="8.545388863478271"><ele>605.0</ele><time>2026-04-06T08:06:24Z</time></trkpt><trkpt lat="44.49667552028481" lon="8.545394852363799"><ele>605.0</ele><time>2026-04-06T08:06:25Z</time></trkpt><trkpt lat="44.49678956636097" lon="8.54547134386335"><ele>605.0</ele><time>2026-04-06T08:06:26Z</time></trkpt><trkpt lat="44.496894439884336" lon="8.545588273492157"><ele>605.0</ele><time>2026-04-06T08:06:27Z</time></trkpt><trkpt lat="44.49699665746386" lon="8.545711820008082"><ele>605.0</ele><time>2026-04-06T08:06:28Z</time></trkpt><trkpt lat="44.497106686816046" lon="8.54578955315999"><ele>605.0</ele><time>2026-04-06T08:06:29Z</time></trkpt><trkpt lat="44.49723970506672" lon="8.545808089781305"><ele>605.0</ele><time>2026-04-06T08:06:30Z</time></trkpt><trkpt lat="44.49737527727747" lon="8.545781862229996"><ele>603.6</ele><time>2026-04-06T08:06:31Z</time></trkpt><trkpt lat="44.497494937862456" lon="8.545738763992631"><ele>602.2</ele><time>2026-04-06T08:06:32Z</time></trkpt><trkpt lat="44.497600251615815" lon="8.545684819558566"><ele>600.8</ele><time>2026-04-06T08:06:33Z</time></trkpt><trkpt lat="44.49767984131951" lon="8.545660079960285"><ele>599.4</ele><time>2026-04-06T08:06:33.999Z</time></trkpt><trkpt lat="44.497758110415745" lon="8.545660033244426"><ele>598.0</ele><time>2026-04-06T08:06:35.999Z</time></trkpt><trkpt lat="44.49779517739429" lon="8.545567800536002"><ele>598.0</ele><time>2026-04-06T08:11:21.999Z</time></trkpt><trkpt lat="44.49784413283787" lon="8.54547872183849"><ele>598.0</ele><time>2026-04-06T08:11:22.999Z</time></trkpt><trkpt lat="44.49791401291957" lon="8.545370060272163"><ele>598.0</ele><time>2026-04-06T08:11:23.999Z</time></trkpt><trkpt lat="44.49800928865473" lon="8.545283067300947"><ele>598.0</ele><time>2026-04-06T08:11:24.999Z</time></trkpt><trkpt lat="44.49808769920486" lon="8.545177328038502"><ele>598.0</ele><time>2026-04-06T08:11:25.999Z</time></trkpt><trkpt lat="44.49817360164222" lon="8.545048070611927"><ele>596.75</ele><time>2026-04-06T08:11:26.999Z</time></trkpt><trkpt lat="44.49826008870802" lon="8.544916697102604"><ele>595.5</ele><time>2026-04-06T08:11:27.999Z</time></trkpt><trkpt lat="44.498358868771426" lon="8.544792559558083"><ele>594.25</ele><time>2026-04-06T08:11:28.999Z</time></trkpt><trkpt lat="44.498466620608234" lon="8.5446782434364"><ele>593.0</ele><time>2026-04-06T08:11:29.999Z</time></trkpt><trkpt lat="44.498568225347675" lon="8.544586117368999"><ele>593.0</ele><time>2026-04-06T08:11:30.999Z</time></trkpt><trkpt lat="44.498663862151034" lon="8.544522165332081"><ele>593.0</ele><time>2026-04-06T08:11:31.999Z</time></trkpt><trkpt lat="44.49875475336404" lon="8.544495665502085"><ele>593.0</ele><time>2026-04-06T08:11:32.999Z</time></trkpt><trkpt lat="44.49884299426082" lon="8.5445554128364"><ele>593.0</ele><time>2026-04-06T08:11:33.999Z</time></trkpt><trkpt lat="44.49891910606616" lon="8.544681294066585"><ele>593.0</ele><time>2026-04-06T08:11:34.999Z</time></trkpt><trkpt lat="44.4989951012504" lon="8.544784271293567"><ele>593.0</ele><time>2026-04-06T08:11:35.999Z</time></trkpt><trkpt lat="44.499080089930715" lon="8.544881450702775"><ele>593.0</ele><time>2026-04-06T08:11:36.999Z</time></trkpt><trkpt lat="44.4991818527406" lon="8.544933185550729"><ele>593.0</ele><time>2026-04-06T08:11:37.999Z</time></trkpt><trkpt lat="44.499285431425726" lon="8.544920493054322"><ele>593.0</ele><time>2026-04-06T08:11:38.999Z</time></trkpt><trkpt lat="44.49938275549779" lon="8.544847576647726"><ele>593.0</ele><time>2026-04-06T08:11:39.999Z</time></trkpt><trkpt lat="44.49948231507573" lon="8.544778521522634"><ele>593.0</ele><time>2026-04-06T08:11:40.999Z</time></trkpt><trkpt lat="44.499571416486866" lon="8.544724389899908"><ele>593.0</ele><time>2026-04-06T08:11:41.999Z</time></trkpt><trkpt lat="44.499661789414596" lon="8.544735515609458"><ele>593.0</ele><time>2026-04-06T08:11:42.999Z</time></trkpt><trkpt lat="44.499763736904576" lon="8.544729517983175"><ele>593.0</ele><time>2026-04-06T08:11:43.999Z</time></trkpt><trkpt lat="44.499876751475895" lon="8.54473930065485"><ele>593.0</ele><time>2026-04-06T08:11:44.999Z</time></trkpt><trkpt lat="44.499977574963715" lon="8.54466562675994"><ele>589.75</ele><time>2026-04-06T08:11:45.999Z</time></trkpt><trkpt lat="44.50005334244923" lon="8.54453183352795"><ele>586.5</ele><time>2026-04-06T08:11:46.999Z</time></trkpt><trkpt lat="44.50010875679279" lon="8.544377214869604"><ele>583.25</ele><time>2026-04-06T08:11:47.999Z</time></trkpt><trkpt lat="44.50007912862893" lon="8.544177493880216"><ele>580.0</ele><time>2026-04-06T08:11:48.999Z</time></trkpt><trkpt lat="44.50004004677485" lon="8.54397249966494"><ele>580.0</ele><time>2026-04-06T08:11:49.999Z</time></trkpt><trkpt lat="44.49999830657007" lon="8.543755198230365"><ele>580.0</ele><time>2026-04-06T08:11:50.999Z</time></trkpt><trkpt lat="44.499960496814566" lon="8.543540400372954"><ele>580.0</ele><time>2026-04-06T08:11:51.999Z</time></trkpt><trkpt lat="44.49992100672204" lon="8.543322825196071"><ele>578.3333333333334</ele><time>2026-04-06T08:11:52.999Z</time></trkpt><trkpt lat="44.49987708587839" lon="8.543099070753792"><ele>576.6666666666666</ele><time>2026-04-06T08:11:53.999Z</time></trkpt><trkpt lat="44.49983728023409" lon="8.542877176881987"><ele>575.0</ele><time>2026-04-06T08:11:54.999Z</time></trkpt><trkpt lat="44.4997886568662" lon="8.542679937168016"><ele>574.5</ele><time>2026-04-06T08:11:55.999Z</time></trkpt><trkpt lat="44.49972217645946" lon="8.54250343067597"><ele>574.0</ele><time>2026-04-06T08:11:56.999Z</time></trkpt><trkpt lat="44.49962579695024" lon="8.542341251659645"><ele>573.5</ele><time>2026-04-06T08:11:57.999Z</time></trkpt><trkpt lat="44.49951513998635" lon="8.542189341278474"><ele>573.0</ele><time>2026-04-06T08:11:58.999Z</time></trkpt><trkpt lat="44.49940957121793" lon="8.542040742412924"><ele>568.75</ele><time>2026-04-06T08:11:59.999Z</time></trkpt><trkpt lat="44.49932542799977" lon="8.541880091684796"><ele>564.5</ele><time>2026-04-06T08:12:00.999Z</time></trkpt><trkpt lat="44.4993046576314" lon="8.541682918294326"><ele>560.25</ele><time>2026-04-06T08:12:01.999Z</time></trkpt><trkpt lat="44.499272312857435" lon="8.541480138646863"><ele>556.0</ele><time>2026-04-06T08:12:02.999Z</time></trkpt><trkpt lat="44.49926864691372" lon="8.54127868459042"><ele>554.0</ele><time>2026-04-06T08:12:03.999Z</time></trkpt><trkpt lat="44.49931321987445" lon="8.541075976338188"><ele>552.0</ele><time>2026-04-06T08:12:04.999Z</time></trkpt><trkpt lat="44.49935843111539" lon="8.540846733833664"><ele>550.0</ele><time>2026-04-06T08:12:05.999Z</time></trkpt><trkpt lat="44.49936930448161" lon="8.540626068779297"><ele>550.0</ele><time>2026-04-06T08:12:06.999Z</time></trkpt><trkpt lat="44.499357048957144" lon="8.540406723549237"><ele>550.0</ele><time>2026-04-06T08:12:07.999Z</time></trkpt><trkpt lat="44.49930215308808" lon="8.540187927677783"><ele>550.0</ele><time>2026-04-06T08:12:08.999Z</time></trkpt><trkpt lat="44.499220990600705" lon="8.539974058697451"><ele>548.6666666666667</ele><time>2026-04-06T08:12:09.999Z</time></trkpt><trkpt lat="44.499142299276684" lon="8.539761088149765"><ele>547.3333333333334</ele><time>2026-04-06T08:12:10.999Z</time></trkpt><trkpt lat="44.49908367099886" lon="8.539542044166891"><ele>546.0</ele><time>2026-04-06T08:12:11.999Z</time></trkpt><trkpt lat="44.4990140630688" lon="8.539328495453915"><ele>544.6666666666666</ele><time>2026-04-06T08:12:12.999Z</time></trkpt><trkpt lat="44.498946306374656" lon="8.539116261120487"><ele>543.3333333333333</ele><time>2026-04-06T08:12:13.999Z</time></trkpt><trkpt lat="44.49886019309605" lon="8.538928474971282"><ele>542.0</ele><time>2026-04-06T08:12:14.999Z</time></trkpt><trkpt lat="44.49877885535429" lon="8.538761490775968"><ele>540.2</ele><time>2026-04-06T08:12:15.999Z</time></trkpt><trkpt lat="44.49869425852601" lon="8.538628717215355"><ele>538.4000000000001</ele><time>2026-04-06T08:12:16.999Z</time></trkpt><trkpt lat="44.498637196678274" lon="8.53849216207619"><ele>536.5999999999999</ele><time>2026-04-06T08:12:17.999Z</time></trkpt><trkpt lat="44.49859613551167" lon="8.53836288650406"><ele>534.8</ele><time>2026-04-06T08:12:18.999Z</time></trkpt><trkpt lat="44.49860284696267" lon="8.538213037451673"><ele>533.0</ele><time>2026-04-06T08:12:19.999Z</time></trkpt><trkpt lat="44.498624361479884" lon="8.538035394276022"><ele>533.5</ele><time>2026-04-06T08:12:20.999Z</time></trkpt><trkpt lat="44.49863678172922" lon="8.537841464023552"><ele>534.0</ele><time>2026-04-06T08:12:21.999Z</time></trkpt><trkpt lat="44.49859516923869" lon="8.53765507403448"><ele>534.5</ele><time>2026-04-06T08:12:22.999Z</time></trkpt><trkpt lat="44.49852309530611" lon="8.537489720057646"><ele>535.0</ele><time>2026-04-06T08:12:23.999Z</time></trkpt><trkpt lat="44.49843792632418" lon="8.537344532211197"><ele>535.0</ele><time>2026-04-06T08:12:24.999Z</time></trkpt><trkpt lat="44.49842379375454" lon="8.537155201025387"><ele>535.0</ele><time>2026-04-06T08:12:25.999Z</time></trkpt><trkpt lat="44.49844608747817" lon="8.53694395278886"><ele>535.0</ele><time>2026-04-06T08:12:26.999Z</time></trkpt><trkpt lat="44.49842316107953" lon="8.536715934035241"><ele>533.3333333333334</ele><time>2026-04-06T08:12:27.999Z</time></trkpt><trkpt lat="44.498419936130716" lon="8.536482566039618"><ele>531.6666666666666</ele><time>2026-04-06T08:12:28.999Z</time></trkpt><trkpt lat="44.49841756577317" lon="8.53624805011798"><ele>530.0</ele><time>2026-04-06T08:12:29.999Z</time></trkpt><trkpt lat="44.49844007379089" lon="8.536022585589237"><ele>527.3333333333333</ele><time>2026-04-06T08:12:30.999Z</time></trkpt><trkpt lat="44.49845482826124" lon="8.535787955805212"><ele>524.6666666666666</ele><time>2026-04-06T08:12:31.999Z</time></trkpt><trkpt lat="44.498464078251075" lon="8.535562055199456"><ele>522.0</ele><time>2026-04-06T08:12:32.999Z</time></trkpt><trkpt lat="44.49840646619017" lon="8.535334013133065"><ele>521.75</ele><time>2026-04-06T08:12:33.999Z</time></trkpt><trkpt lat="44.4984040432371" lon="8.535119416001635"><ele>521.5</ele><time>2026-04-06T08:12:34.999Z</time></trkpt><trkpt lat="44.49838485815919" lon="8.534924204824637"><ele>521.25</ele><time>2026-04-06T08:12:35.999Z</time></trkpt><trkpt lat="44.49833592167286" lon="8.534748245711294"><ele>521.0</ele><time>2026-04-06T08:12:36.999Z</time></trkpt><trkpt lat="44.498271163388736" lon="8.534584688822802"><ele>519.5</ele><time>2026-04-06T08:12:37.999Z</time></trkpt><trkpt lat="44.498187762806715" lon="8.534424240627278"><ele>518.0</ele><time>2026-04-06T08:12:38.999Z</time></trkpt><trkpt lat="44.49808272150526" lon="8.534277898741845"><ele>516.5</ele><time>2026-04-06T08:12:39.999Z</time></trkpt><trkpt lat="44.49795128096862" lon="8.534158981837471"><ele>515.0</ele><time>2026-04-06T08:12:40.999Z</time></trkpt><trkpt lat="44.497797921388454" lon="8.53405537830498"><ele>515.0</ele><time>2026-04-06T08:12:41.999Z</time></trkpt><trkpt lat="44.49764224232427" lon="8.533968062465146"><ele>515.0</ele><time>2026-04-06T08:12:42.999Z</time></trkpt><trkpt lat="44.49749471000813" lon="8.533913858183805"><ele>515.0</ele><time>2026-04-06T08:12:43.999Z</time></trkpt><trkpt lat="44.49736268235413" lon="8.533895497777838"><ele>515.0</ele><time>2026-04-06T08:12:44.999Z</time></trkpt><trkpt lat="44.49724399239491" lon="8.533932230898223"><ele>515.0</ele><time>2026-04-06T08:12:45.999Z</time></trkpt><trkpt lat="44.49713896650362" lon="8.534022263426719"><ele>515.0</ele><time>2026-04-06T08:12:46.999Z</time></trkpt><trkpt lat="44.497042999428" lon="8.534096657779104"><ele>515.0</ele><time>2026-04-06T08:12:47.999Z</time></trkpt><trkpt lat="44.49694565210602" lon="8.534094431549564"><ele>515.25</ele><time>2026-04-06T08:12:48.999Z</time></trkpt><trkpt lat="44.49684722247405" lon="8.534097625249357"><ele>515.5</ele><time>2026-04-06T08:12:49.999Z</time></trkpt><trkpt lat="44.496750854937616" lon="8.534198971326251"><ele>515.75</ele><time>2026-04-06T08:12:50.999Z</time></trkpt><trkpt lat="44.49669317339923" lon="8.534385396590773"><ele>516.0</ele><time>2026-04-06T08:12:51.999Z</time></trkpt><trkpt lat="44.49665197477041" lon="8.534591545747409"><ele>513.6</ele><time>2026-04-06T08:12:52.999Z</time></trkpt><trkpt lat="44.496601679736465" lon="8.534758553903785"><ele>511.20000000000005</ele><time>2026-04-06T08:12:53.999Z</time></trkpt><trkpt lat="44.49654210545706" lon="8.534878995713447"><ele>508.79999999999995</ele><time>2026-04-06T08:12:54.999Z</time></trkpt><trkpt lat="44.496470713838775" lon="8.534935043826012"><ele>506.4</ele><time>2026-04-06T08:12:55.999Z</time></trkpt><trkpt lat="44.49637052632273" lon="8.534930971230866"><ele>504.0</ele><time>2026-04-06T08:12:56.999Z</time></trkpt><trkpt lat="44.496259760207415" lon="8.534886243344118"><ele>504.0</ele><time>2026-04-06T08:12:57.999Z</time></trkpt><trkpt lat="44.49613864695319" lon="8.53474671810669"><ele>504.0</ele><time>2026-04-06T08:12:58.999Z</time></trkpt><trkpt lat="44.49603636120218" lon="8.534623342413996"><ele>504.0</ele><time>2026-04-06T08:12:59.999Z</time></trkpt><trkpt lat="44.495931968322964" lon="8.534482530311918"><ele>504.0</ele><time>2026-04-06T08:13:00.999Z</time></trkpt><trkpt lat="44.495839360494834" lon="8.534361570883044"><ele>504.0</ele><time>2026-04-06T08:13:01.999Z</time></trkpt><trkpt lat="44.49575643612289" lon="8.534248995034726"><ele>504.0</ele><time>2026-04-06T08:13:02.999Z</time></trkpt><trkpt lat="44.49569303543242" lon="8.534131705138662"><ele>504.0</ele><time>2026-04-06T08:13:03.999Z</time></trkpt><trkpt lat="44.49564969298646" lon="8.53399117688092"><ele>504.0</ele><time>2026-04-06T08:13:04.999Z</time></trkpt><trkpt lat="44.49561837897967" lon="8.533807619410148"><ele>503.75</ele><time>2026-04-06T08:13:05.999Z</time></trkpt><trkpt lat="44.495580731136485" lon="8.5336623898917"><ele>503.5</ele><time>2026-04-06T08:13:06.999Z</time></trkpt><trkpt lat="44.495542153112844" lon="8.533516883136807"><ele>503.25</ele><time>2026-04-06T08:13:07.999Z</time></trkpt><trkpt lat="44.49554335859263" lon="8.533364671952778"><ele>503.0</ele><time>2026-04-06T08:13:08.999Z</time></trkpt><trkpt lat="44.495576780060105" lon="8.53318924810716"><ele>503.0</ele><time>2026-04-06T08:13:09.999Z</time></trkpt><trkpt lat="44.49563141753552" lon="8.533007251318335"><ele>503.0</ele><time>2026-04-06T08:13:10.999Z</time></trkpt><trkpt lat="44.495664591138684" lon="8.532816957877364"><ele>503.0</ele><time>2026-04-06T08:13:11.999Z</time></trkpt><trkpt lat="44.4956561772738" lon="8.532623057877297"><ele>503.0</ele><time>2026-04-06T08:13:12.999Z</time></trkpt><trkpt lat="44.49562628533428" lon="8.53244684307248"><ele>501.25</ele><time>2026-04-06T08:13:13.999Z</time></trkpt><trkpt lat="44.495585735702186" lon="8.532307777636017"><ele>499.5</ele><time>2026-04-06T08:13:14.999Z</time></trkpt><trkpt lat="44.49560380257894" lon="8.532165386403097"><ele>497.75</ele><time>2026-04-06T08:13:15.999Z</time></trkpt><trkpt lat="44.495667659122724" lon="8.532015195949432"><ele>496.0</ele><time>2026-04-06T08:13:16.999Z</time></trkpt><trkpt lat="44.4957353989316" lon="8.531847365853144"><ele>495.6</ele><time>2026-04-06T08:13:17.999Z</time></trkpt><trkpt lat="44.495764673618396" lon="8.53168116081041"><ele>495.20000000000005</ele><time>2026-04-06T08:13:18.999Z</time></trkpt><trkpt lat="44.49576754168095" lon="8.531525404614602"><ele>494.79999999999995</ele><time>2026-04-06T08:13:19.999Z</time></trkpt><trkpt lat="44.49574521710574" lon="8.53139866446773"><ele>494.4</ele><time>2026-04-06T08:13:20.999Z</time></trkpt><trkpt lat="44.495686761315014" lon="8.531283507944124"><ele>494.0</ele><time>2026-04-06T08:13:21.999Z</time></trkpt><trkpt lat="44.4955851174543" lon="8.531180795747003"><ele>496.66666666666663</ele><time>2026-04-06T08:13:22.999Z</time></trkpt><trkpt lat="44.495464108683706" lon="8.531063018299214"><ele>499.33333333333337</ele><time>2026-04-06T08:13:23.999Z</time></trkpt><trkpt lat="44.49533879499588" lon="8.530935835985265"><ele>502.0</ele><time>2026-04-06T08:13:24.999Z</time></trkpt><trkpt lat="44.495212030159365" lon="8.5307969902864"><ele>499.0</ele><time>2026-04-06T08:13:25.999Z</time></trkpt><trkpt lat="44.49508045366422" lon="8.53065029210466"><ele>496.0</ele><time>2026-04-06T08:13:26.999Z</time></trkpt><trkpt lat="44.49496475786552" lon="8.530501009587994"><ele>493.0</ele><time>2026-04-06T08:13:27.999Z</time></trkpt><trkpt lat="44.49484112365335" lon="8.530371775224417"><ele>493.0</ele><time>2026-04-06T08:13:29Z</time></trkpt><trkpt lat="44.49471285234413" lon="8.530259746661228"><ele>493.0</ele><time>2026-04-06T08:13:30Z</time></trkpt><trkpt lat="44.4945952069035" lon="8.530167249839588"><ele>493.0</ele><time>2026-04-06T08:13:31Z</time></trkpt><trkpt lat="44.49449539470049" lon="8.530075549232768"><ele>493.0</ele><time>2026-04-06T08:13:32Z</time></trkpt><trkpt lat="44.49442453969231" lon="8.529917832467815"><ele>487.0</ele><time>2026-04-06T08:13:33Z</time></trkpt><trkpt lat="44.494360806205144" lon="8.52973040601589"><ele>481.0</ele><time>2026-04-06T08:13:34Z</time></trkpt><trkpt lat="44.49429023075274" lon="8.529540482813248"><ele>475.0</ele><time>2026-04-06T08:13:35Z</time></trkpt><trkpt lat="44.49421321165401" lon="8.529360553127056"><ele>475.0</ele><time>2026-04-06T08:13:36Z</time></trkpt><trkpt lat="44.49413249712541" lon="8.52918038150481"><ele>475.0</ele><time>2026-04-06T08:13:37Z</time></trkpt><trkpt lat="44.49405190418846" lon="8.529014741986051"><ele>475.0</ele><time>2026-04-06T08:13:38Z</time></trkpt><trkpt lat="44.493986255838614" lon="8.528863874315137"><ele>475.0</ele><time>2026-04-06T08:13:39Z</time></trkpt><trkpt lat="44.493939645233766" lon="8.528709917916677"><ele>473.5</ele><time>2026-04-06T08:13:40Z</time></trkpt><trkpt lat="44.49395405495739" lon="8.528568534671546"><ele>472.0</ele><time>2026-04-06T08:13:41Z</time></trkpt><trkpt lat="44.49403022848106" lon="8.528437794558386"><ele>470.5</ele><time>2026-04-06T08:13:42Z</time></trkpt><trkpt lat="44.49413227954304" lon="8.52830344110582"><ele>469.0</ele><time>2026-04-06T08:13:43Z</time></trkpt><trkpt lat="44.494236278742555" lon="8.528164759063882"><ele>469.0</ele><time>2026-04-06T08:13:44Z</time></trkpt><trkpt lat="44.494334589218745" lon="8.527996212392578"><ele>469.0</ele><time>2026-04-06T08:13:45Z</time></trkpt><trkpt lat="44.49438742827516" lon="8.527798579867016"><ele>469.0</ele><time>2026-04-06T08:13:46Z</time></trkpt><trkpt lat="44.49443737019776" lon="8.52758307410445"><ele>466.0</ele><time>2026-04-06T08:13:47Z</time></trkpt><trkpt lat="44.49447341516928" lon="8.527364341947125"><ele>463.0</ele><time>2026-04-06T08:13:48Z</time></trkpt><trkpt lat="44.494487705014784" lon="8.527143654560675"><ele>460.0</ele><time>2026-04-06T08:13:49Z</time></trkpt><trkpt lat="44.49448527442058" lon="8.526922808647468"><ele>458.6666666666667</ele><time>2026-04-06T08:13:50Z</time></trkpt><trkpt lat="44.49445279130461" lon="8.526709603992778"><ele>457.33333333333337</ele><time>2026-04-06T08:13:51Z</time></trkpt><trkpt lat="44.49440240869264" lon="8.526502466975511"><ele>456.0</ele><time>2026-04-06T08:13:52Z</time></trkpt><trkpt lat="44.49433476271416" lon="8.526326984536256"><ele>455.5</ele><time>2026-04-06T08:13:53Z</time></trkpt><trkpt lat="44.49427003817054" lon="8.52615170576887"><ele>455.0</ele><time>2026-04-06T08:13:54Z</time></trkpt><trkpt lat="44.494258854886155" lon="8.526045518198332"><ele>454.5</ele><time>2026-04-06T08:13:55Z</time></trkpt><trkpt lat="44.494251064009795" lon="8.525841086651726"><ele>454.0</ele><time>2026-04-06T08:13:56Z</time></trkpt><trkpt lat="44.494243173851594" lon="8.52566874724317"><ele>454.0</ele><time>2026-04-06T08:13:57Z</time></trkpt><trkpt lat="44.49426354567563" lon="8.525480368561484"><ele>454.0</ele><time>2026-04-06T08:13:58Z</time></trkpt><trkpt lat="44.49430986152512" lon="8.525310068355038"><ele>454.0</ele><time>2026-04-06T08:13:59Z</time></trkpt><trkpt lat="44.494401655017214" lon="8.525167926753927"><ele>454.0</ele><time>2026-04-06T08:14:00Z</time></trkpt><trkpt lat="44.49450712041854" lon="8.525024243975553"><ele>452.75</ele><time>2026-04-06T08:14:01Z</time></trkpt><trkpt lat="44.49459904365391" lon="8.524882958551684"><ele>451.5</ele><time>2026-04-06T08:14:02Z</time></trkpt><trkpt lat="44.494667762495595" lon="8.52471501300696"><ele>450.25</ele><time>2026-04-06T08:14:03Z</time></trkpt><trkpt lat="44.494687610835086" lon="8.524508552588818"><ele>449.0</ele><time>2026-04-06T08:14:04Z</time></trkpt><trkpt lat="44.49469271000338" lon="8.524289697666092"><ele>447.0</ele><time>2026-04-06T08:14:05Z</time></trkpt><trkpt lat="44.494696281972026" lon="8.52409480931994"><ele>445.0</ele><time>2026-04-06T08:14:06Z</time></trkpt><trkpt lat="44.494707743172874" lon="8.52390944869069"><ele>443.0</ele><time>2026-04-06T08:14:07Z</time></trkpt><trkpt lat="44.49471807801417" lon="8.523714878901506"><ele>441.0</ele><time>2026-04-06T08:14:08Z</time></trkpt><trkpt lat="44.49473204280939" lon="8.523513538027245"><ele>440.25</ele><time>2026-04-06T08:14:09Z</time></trkpt><trkpt lat="44.49476201318517" lon="8.523320052781493"><ele>439.5</ele><time>2026-04-06T08:14:10Z</time></trkpt><trkpt lat="44.494805614288495" lon="8.523128394331035"><ele>438.75</ele><time>2026-04-06T08:14:11Z</time></trkpt><trkpt lat="44.49485740386994" lon="8.522949203954752"><ele>438.0</ele><time>2026-04-06T08:14:12Z</time></trkpt><trkpt lat="44.49490833580437" lon="8.522765812185247"><ele>436.75</ele><time>2026-04-06T08:14:13Z</time></trkpt><trkpt lat="44.49495817873532" lon="8.522590896367433"><ele>435.5</ele><time>2026-04-06T08:14:14Z</time></trkpt><trkpt lat="44.49499861878095" lon="8.522443647737386"><ele>434.25</ele><time>2026-04-06T08:14:15Z</time></trkpt><trkpt lat="44.495052411303455" lon="8.522322272150952"><ele>433.0</ele><time>2026-04-06T08:14:16Z</time></trkpt><trkpt lat="44.495131278945784" lon="8.522232582906437"><ele>433.0</ele><time>2026-04-06T08:14:17Z</time></trkpt><trkpt lat="44.49524703237271" lon="8.522209987998835"><ele>432.99999999999994</ele><time>2026-04-06T08:14:18Z</time></trkpt><trkpt lat="44.495355075781575" lon="8.52218762168711"><ele>432.99999999999994</ele><time>2026-04-06T08:14:19Z</time></trkpt><trkpt lat="44.495459778078406" lon="8.522178729571152"><ele>433.0</ele><time>2026-04-06T08:14:20Z</time></trkpt><trkpt lat="44.49555914628774" lon="8.522150811680154"><ele>433.0</ele><time>2026-04-06T08:14:21Z</time></trkpt><trkpt lat="44.49565486374146" lon="8.522082530995423"><ele>433.0</ele><time>2026-04-06T08:14:22Z</time></trkpt><trkpt lat="44.49573119066828" lon="8.52197304641956"><ele>433.0</ele><time>2026-04-06T08:14:23Z</time></trkpt><trkpt lat="44.49578282493086" lon="8.521803170068065"><ele>433.0</ele><time>2026-04-06T08:14:24Z</time></trkpt><trkpt lat="44.495826075810875" lon="8.521633916170959"><ele>433.0</ele><time>2026-04-06T08:14:25Z</time></trkpt><trkpt lat="44.49587335248396" lon="8.521467285650772"><ele>433.0</ele><time>2026-04-06T08:14:26Z</time></trkpt><trkpt lat="44.49591140048681" lon="8.521297463760334"><ele>433.0</ele><time>2026-04-06T08:14:27Z</time></trkpt><trkpt lat="44.49592913320651" lon="8.521118196255026"><ele>433.0</ele><time>2026-04-06T08:14:28Z</time></trkpt><trkpt lat="44.49593007265984" lon="8.52093141844503"><ele>433.0</ele><time>2026-04-06T08:14:29Z</time></trkpt><trkpt lat="44.495925127670084" lon="8.520743924142907"><ele>433.0</ele><time>2026-04-06T08:14:30Z</time></trkpt><trkpt lat="44.49591994788905" lon="8.520556145877572"><ele>433.0</ele><time>2026-04-06T08:14:31Z</time></trkpt><trkpt lat="44.495922181821214" lon="8.520368453303757"><ele>433.0</ele><time>2026-04-06T08:14:32Z</time></trkpt><trkpt lat="44.49593142639535" lon="8.520178403583039"><ele>433.0</ele><time>2026-04-06T08:14:33Z</time></trkpt><trkpt lat="44.49593213634106" lon="8.51998768179139"><ele>432.75</ele><time>2026-04-06T08:14:34Z</time></trkpt><trkpt lat="44.49590267455097" lon="8.519793982473558"><ele>432.5</ele><time>2026-04-06T08:14:34.999Z</time></trkpt><trkpt lat="44.49583668119198" lon="8.519613685254471"><ele>432.25</ele><time>2026-04-06T08:14:35.999Z</time></trkpt><trkpt lat="44.49576051379218" lon="8.519437234461071"><ele>432.0</ele><time>2026-04-06T08:14:36.999Z</time></trkpt><trkpt lat="44.49569323293527" lon="8.519257047536613"><ele>432.75</ele><time>2026-04-06T08:14:37.999Z</time></trkpt><trkpt lat="44.49563394298359" lon="8.51907111058949"><ele>433.5</ele><time>2026-04-06T08:14:38.999Z</time></trkpt><trkpt lat="44.49557226348182" lon="8.518878395085324"><ele>434.25</ele><time>2026-04-06T08:14:39.999Z</time></trkpt><trkpt lat="44.49551486850975" lon="8.51869131190742"><ele>435.0</ele><time>2026-04-06T08:14:40.999Z</time></trkpt><trkpt lat="44.49545076085036" lon="8.518513072999108"><ele>434.0</ele><time>2026-04-06T08:14:41.999Z</time></trkpt><trkpt lat="44.49538679134917" lon="8.518329878051247"><ele>433.0</ele><time>2026-04-06T08:14:42.999Z</time></trkpt><trkpt lat="44.4953214691338" lon="8.518151473254798"><ele>432.0</ele><time>2026-04-06T08:14:43.999Z</time></trkpt><trkpt lat="44.495260206248744" lon="8.51797176811817"><ele>431.0</ele><time>2026-04-06T08:14:44.999Z</time></trkpt><trkpt lat="44.49519806298795" lon="8.51778554108496"><ele>431.0</ele><time>2026-04-06T08:14:45.999Z</time></trkpt><trkpt lat="44.495133524258996" lon="8.517597438420339"><ele>431.0</ele><time>2026-04-06T08:14:46.999Z</time></trkpt><trkpt lat="44.49506845541028" lon="8.517409849599929"><ele>431.0</ele><time>2026-04-06T08:14:47.999Z</time></trkpt><trkpt lat="44.49500422473819" lon="8.517211064140197"><ele>432.66666666666663</ele><time>2026-04-06T08:14:48.999Z</time></trkpt><trkpt lat="44.49493331785826" lon="8.51702240878203"><ele>434.33333333333337</ele><time>2026-04-06T08:14:49.999Z</time></trkpt><trkpt lat="44.49484827816027" lon="8.516845221930376"><ele>436.0</ele><time>2026-04-06T08:14:50.999Z</time></trkpt><trkpt lat="44.49475417990841" lon="8.516684504216771"><ele>436.0</ele><time>2026-04-06T08:14:51.999Z</time></trkpt><trkpt lat="44.49465787292524" lon="8.516527005699862"><ele>436.0</ele><time>2026-04-06T08:14:52.999Z</time></trkpt><trkpt lat="44.49455902570289" lon="8.516369772689677"><ele>436.0</ele><time>2026-04-06T08:14:53.999Z</time></trkpt><trkpt lat="44.494458321603155" lon="8.516203555561232"><ele>434.5</ele><time>2026-04-06T08:14:54.999Z</time></trkpt><trkpt lat="44.4943698591555" lon="8.516035767162181"><ele>433.0</ele><time>2026-04-06T08:14:55.999Z</time></trkpt><trkpt lat="44.49429279005659" lon="8.515856148843831"><ele>431.5</ele><time>2026-04-06T08:14:56.999Z</time></trkpt><trkpt lat="44.49422798160599" lon="8.515670159926765"><ele>430.0</ele><time>2026-04-06T08:14:57.999Z</time></trkpt><trkpt lat="44.49416488242004" lon="8.515483958701505"><ele>432.25</ele><time>2026-04-06T08:14:58.999Z</time></trkpt><trkpt lat="44.49409842517375" lon="8.515314847755635"><ele>434.5</ele><time>2026-04-06T08:14:59.999Z</time></trkpt><trkpt lat="44.49400954900158" lon="8.515166671652214"><ele>436.75</ele><time>2026-04-06T08:15:00.999Z</time></trkpt><trkpt lat="44.49388999464928" lon="8.515079238888147"><ele>439.0</ele><time>2026-04-06T08:15:01.999Z</time></trkpt><trkpt lat="44.493764574190706" lon="8.515026091908382"><ele>434.33333333333337</ele><time>2026-04-06T08:15:02.999Z</time></trkpt><trkpt lat="44.4935000453699" lon="8.514974800645938"><ele>429.66666666666663</ele><time>2026-04-06T08:15:04.999Z</time></trkpt><trkpt lat="44.493369824047946" lon="8.514956616170723"><ele>425.0</ele><time>2026-04-06T08:15:05.999Z</time></trkpt><trkpt lat="44.493257070696885" lon="8.514936998548128"><ele>425.0</ele><time>2026-04-06T08:15:06.999Z</time></trkpt><trkpt lat="44.49315096194156" lon="8.514920994370613"><ele>425.0</ele><time>2026-04-06T08:15:07.999Z</time></trkpt><trkpt lat="44.49305851578774" lon="8.514895002267846"><ele>425.0</ele><time>2026-04-06T08:15:08.999Z</time></trkpt><trkpt lat="44.49297686129718" lon="8.514836327765005"><ele>425.0</ele><time>2026-04-06T08:15:09.999Z</time></trkpt><trkpt lat="44.492917381105066" lon="8.514744144958154"><ele>425.0</ele><time>2026-04-06T08:15:10.999Z</time></trkpt><trkpt lat="44.492881833311635" lon="8.514629128858465"><ele>423.6</ele><time>2026-04-06T08:15:11.999Z</time></trkpt><trkpt lat="44.49286722204052" lon="8.514481161578045"><ele>422.2</ele><time>2026-04-06T08:15:12.999Z</time></trkpt><trkpt lat="44.49283900006616" lon="8.514330191331076"><ele>420.79999999999995</ele><time>2026-04-06T08:15:13.999Z</time></trkpt><trkpt lat="44.49280425818877" lon="8.514181175925913"><ele>419.4</ele><time>2026-04-06T08:15:14.999Z</time></trkpt><trkpt lat="44.492761294672654" lon="8.514026353880828"><ele>418.0</ele><time>2026-04-06T08:15:15.999Z</time></trkpt><trkpt lat="44.492721377481764" lon="8.513864945397893"><ele>418.5</ele><time>2026-04-06T08:15:16.999Z</time></trkpt><trkpt lat="44.49267435514709" lon="8.513697014904313"><ele>419.0</ele><time>2026-04-06T08:15:17.999Z</time></trkpt><trkpt lat="44.49261859407547" lon="8.513530754568743"><ele>419.5</ele><time>2026-04-06T08:15:18.999Z</time></trkpt><trkpt lat="44.49255226798722" lon="8.513372778535535"><ele>420.0</ele><time>2026-04-06T08:15:19.999Z</time></trkpt><trkpt lat="44.49247859346245" lon="8.513220707006903"><ele>420.0</ele><time>2026-04-06T08:15:20.999Z</time></trkpt><trkpt lat="44.49239895289862" lon="8.513065935288424"><ele>420.0</ele><time>2026-04-06T08:15:21.999Z</time></trkpt><trkpt lat="44.49231863764345" lon="8.512908153576664"><ele>420.0</ele><time>2026-04-06T08:15:22.999Z</time></trkpt><trkpt lat="44.49224399997678" lon="8.512741891773183"><ele>420.0</ele><time>2026-04-06T08:15:23.999Z</time></trkpt><trkpt lat="44.49217090241343" lon="8.512567880647243"><ele>420.66666666666663</ele><time>2026-04-06T08:15:24.999Z</time></trkpt><trkpt lat="44.492093758704875" lon="8.512394447168967"><ele>421.3333333333333</ele><time>2026-04-06T08:15:25.999Z</time></trkpt><trkpt lat="44.492005488434366" lon="8.512220239638925"><ele>422.0</ele><time>2026-04-06T08:15:26.999Z</time></trkpt><trkpt lat="44.491912325288" lon="8.512052602477231"><ele>420.0</ele><time>2026-04-06T08:15:27.999Z</time></trkpt><trkpt lat="44.491808169452014" lon="8.511899866796302"><ele>418.0</ele><time>2026-04-06T08:15:28.999Z</time></trkpt><trkpt lat="44.491697724935115" lon="8.511753015507734"><ele>416.0</ele><time>2026-04-06T08:15:29.999Z</time></trkpt><trkpt lat="44.49159055202427" lon="8.511605324423607"><ele>416.0</ele><time>2026-04-06T08:15:30.999Z</time></trkpt><trkpt lat="44.49149229762223" lon="8.511451859977718"><ele>416.0</ele><time>2026-04-06T08:15:31.999Z</time></trkpt><trkpt lat="44.491396094425326" lon="8.511296561448262"><ele>416.0</ele><time>2026-04-06T08:15:32.999Z</time></trkpt><trkpt lat="44.49128981441536" lon="8.511141845990261"><ele>416.0</ele><time>2026-04-06T08:15:33.999Z</time></trkpt><trkpt lat="44.49118804732034" lon="8.51098717672676"><ele>415.3333333333333</ele><time>2026-04-06T08:15:35.001Z</time></trkpt><trkpt lat="44.491082682651964" lon="8.510838689893696"><ele>414.66666666666663</ele><time>2026-04-06T08:15:36.001Z</time></trkpt><trkpt lat="44.49097266117796" lon="8.51068252888397"><ele>414.0</ele><time>2026-04-06T08:15:37.001Z</time></trkpt><trkpt lat="44.490862808320735" lon="8.510531332854733"><ele>416.0</ele><time>2026-04-06T08:15:38.001Z</time></trkpt><trkpt lat="44.49075857621143" lon="8.510374418097078"><ele>418.0</ele><time>2026-04-06T08:15:39.001Z</time></trkpt><trkpt lat="44.49065765903009" lon="8.510204639366865"><ele>420.0</ele><time>2026-04-06T08:15:40Z</time></trkpt><trkpt lat="44.49054901344235" lon="8.510035943360155"><ele>420.0</ele><time>2026-04-06T08:15:41Z</time></trkpt><trkpt lat="44.49043904955679" lon="8.509878495910803"><ele>420.0</ele><time>2026-04-06T08:15:42Z</time></trkpt><trkpt lat="44.49033317811736" lon="8.509731621879846"><ele>420.0</ele><time>2026-04-06T08:15:43Z</time></trkpt><trkpt lat="44.490239444831055" lon="8.509581379680823"><ele>420.0</ele><time>2026-04-06T08:15:44Z</time></trkpt><trkpt lat="44.490169422425396" lon="8.509408478339138"><ele>416.33333333333337</ele><time>2026-04-06T08:15:45Z</time></trkpt><trkpt lat="44.49011173089791" lon="8.509217474886594"><ele>412.6666666666667</ele><time>2026-04-06T08:15:46Z</time></trkpt><trkpt lat="44.490074848562465" lon="8.50899593249743"><ele>409.0</ele><time>2026-04-06T08:15:47Z</time></trkpt><trkpt lat="44.49004819567205" lon="8.508771468438203"><ele>408.75</ele><time>2026-04-06T08:15:48Z</time></trkpt><trkpt lat="44.49000936620836" lon="8.508562816537323"><ele>408.5</ele><time>2026-04-06T08:15:49Z</time></trkpt><trkpt lat="44.48994707287031" lon="8.508379253134523"><ele>408.25</ele><time>2026-04-06T08:15:50Z</time></trkpt><trkpt lat="44.48987229978353" lon="8.508204927709153"><ele>408.0</ele><time>2026-04-06T08:15:51Z</time></trkpt><trkpt lat="44.489802913198666" lon="8.508020942416854"><ele>408.33333333333337</ele><time>2026-04-06T08:15:52Z</time></trkpt><trkpt lat="44.48972551738838" lon="8.50783626003611"><ele>408.6666666666667</ele><time>2026-04-06T08:15:53Z</time></trkpt><trkpt lat="44.48963750298893" lon="8.507628930302838"><ele>409.0</ele><time>2026-04-06T08:15:54Z</time></trkpt><trkpt lat="44.4895541337011" lon="8.507417990153328"><ele>405.6666666666667</ele><time>2026-04-06T08:15:55Z</time></trkpt><trkpt lat="44.48946944848538" lon="8.507215072426256"><ele>402.33333333333337</ele><time>2026-04-06T08:15:56Z</time></trkpt><trkpt lat="44.48938983245897" lon="8.507024811179207"><ele>399.0</ele><time>2026-04-06T08:15:57Z</time></trkpt><trkpt lat="44.48931652253768" lon="8.506842320143939"><ele>398.66666666666663</ele><time>2026-04-06T08:15:58Z</time></trkpt><trkpt lat="44.48924570677611" lon="8.506660093511588"><ele>398.3333333333333</ele><time>2026-04-06T08:15:59Z</time></trkpt><trkpt lat="44.48917588956834" lon="8.506472088928728"><ele>398.0</ele><time>2026-04-06T08:16:00Z</time></trkpt><trkpt lat="44.48910391531755" lon="8.506285426443748"><ele>400.66666666666663</ele><time>2026-04-06T08:16:01Z</time></trkpt><trkpt lat="44.489019556215304" lon="8.506096197648727"><ele>403.33333333333337</ele><time>2026-04-06T08:16:02Z</time></trkpt><trkpt lat="44.48891753442511" lon="8.505925265496424"><ele>406.0</ele><time>2026-04-06T08:16:03Z</time></trkpt><trkpt lat="44.4887872982162" lon="8.505785706476868"><ele>402.33333333333337</ele><time>2026-04-06T08:16:04Z</time></trkpt><trkpt lat="44.48864040080119" lon="8.505687202072663"><ele>398.66666666666663</ele><time>2026-04-06T08:16:05Z</time></trkpt><trkpt lat="44.48849461793671" lon="8.505596640159942"><ele>395.0</ele><time>2026-04-06T08:16:06Z</time></trkpt><trkpt lat="44.48835490811993" lon="8.505496648279378"><ele>397.3333333333333</ele><time>2026-04-06T08:16:07Z</time></trkpt><trkpt lat="44.48822877372802" lon="8.505375935999641"><ele>399.66666666666663</ele><time>2026-04-06T08:16:08Z</time></trkpt><trkpt lat="44.488103842270306" lon="8.505245942320885"><ele>402.0</ele><time>2026-04-06T08:16:09Z</time></trkpt><trkpt lat="44.487975933773015" lon="8.505120096128925"><ele>399.0</ele><time>2026-04-06T08:16:10Z</time></trkpt><trkpt lat="44.487845229301804" lon="8.504998916290848"><ele>396.0</ele><time>2026-04-06T08:16:11Z</time></trkpt><trkpt lat="44.48771805174191" lon="8.504881692269265"><ele>393.0</ele><time>2026-04-06T08:16:12Z</time></trkpt><trkpt lat="44.48759966345935" lon="8.504774551618498"><ele>393.0</ele><time>2026-04-06T08:16:13Z</time></trkpt><trkpt lat="44.48747768007425" lon="8.504690038030601"><ele>393.0</ele><time>2026-04-06T08:16:14Z</time></trkpt><trkpt lat="44.48735090849658" lon="8.50463643562004"><ele>393.0</ele><time>2026-04-06T08:16:15Z</time></trkpt><trkpt lat="44.48722260435188" lon="8.504616597394755"><ele>393.0</ele><time>2026-04-06T08:16:16Z</time></trkpt><trkpt lat="44.48709120782798" lon="8.504638305919432"><ele>392.25</ele><time>2026-04-06T08:16:17Z</time></trkpt><trkpt lat="44.4869708950249" lon="8.50471281718722"><ele>391.5</ele><time>2026-04-06T08:16:18Z</time></trkpt><trkpt lat="44.48687220346172" lon="8.504844288154153"><ele>390.75</ele><time>2026-04-06T08:16:19Z</time></trkpt><trkpt lat="44.48679923291949" lon="8.50498182402754"><ele>390.0</ele><time>2026-04-06T08:16:20Z</time></trkpt><trkpt lat="44.48673514149566" lon="8.5051158974389"><ele>390.0</ele><time>2026-04-06T08:16:21Z</time></trkpt><trkpt lat="44.486645134867686" lon="8.505205075317004"><ele>390.0</ele><time>2026-04-06T08:16:22Z</time></trkpt><trkpt lat="44.48653662415473" lon="8.505233079953964"><ele>390.0</ele><time>2026-04-06T08:16:23Z</time></trkpt><trkpt lat="44.486428937706755" lon="8.505183955626668"><ele>390.0</ele><time>2026-04-06T08:16:24Z</time></trkpt><trkpt lat="44.48631980429217" lon="8.50506987306461"><ele>390.0</ele><time>2026-04-06T08:16:25Z</time></trkpt><trkpt lat="44.48622740022414" lon="8.504935886989719"><ele>390.0</ele><time>2026-04-06T08:16:26Z</time></trkpt><trkpt lat="44.48613390021927" lon="8.50480298206119"><ele>390.0</ele><time>2026-04-06T08:16:27Z</time></trkpt><trkpt lat="44.486043750876526" lon="8.504679148259072"><ele>390.0</ele><time>2026-04-06T08:16:28Z</time></trkpt><trkpt lat="44.48595111756878" lon="8.504553204542555"><ele>390.0</ele><time>2026-04-06T08:16:29Z</time></trkpt><trkpt lat="44.48585385137412" lon="8.504422516111195"><ele>390.0</ele><time>2026-04-06T08:16:30Z</time></trkpt><trkpt lat="44.485753577038786" lon="8.504292866000739"><ele>390.0</ele><time>2026-04-06T08:16:31Z</time></trkpt><trkpt lat="44.48565725723065" lon="8.504169964745381"><ele>390.0</ele><time>2026-04-06T08:16:32Z</time></trkpt><trkpt lat="44.485568077040945" lon="8.504053841213333"><ele>390.0</ele><time>2026-04-06T08:16:33Z</time></trkpt><trkpt lat="44.48548421855884" lon="8.503944304390311"><ele>390.0</ele><time>2026-04-06T08:16:34Z</time></trkpt><trkpt lat="44.48540428219881" lon="8.503846379694702"><ele>390.0</ele><time>2026-04-06T08:16:35Z</time></trkpt><trkpt lat="44.485328142077925" lon="8.503740428018856"><ele>390.0</ele><time>2026-04-06T08:16:36Z</time></trkpt><trkpt lat="44.48525057665777" lon="8.503661762010745"><ele>390.0</ele><time>2026-04-06T08:16:37Z</time></trkpt><trkpt lat="44.48516214510993" lon="8.503623798358086"><ele>390.0</ele><time>2026-04-06T08:16:38Z</time></trkpt><trkpt lat="44.48507531602987" lon="8.5036518785493"><ele>390.0</ele><time>2026-04-06T08:16:39Z</time></trkpt><trkpt lat="44.48499491974085" lon="8.503739737767093"><ele>390.0</ele><time>2026-04-06T08:16:40Z</time></trkpt><trkpt lat="44.48494243402283" lon="8.50386630794456"><ele>390.0</ele><time>2026-04-06T08:16:41Z</time></trkpt><trkpt lat="44.48488998827735" lon="8.503985571896534"><ele>390.0</ele><time>2026-04-06T08:16:42Z</time></trkpt><trkpt lat="44.48481602062641" lon="8.504077690131192"><ele>390.0</ele><time>2026-04-06T08:16:43Z</time></trkpt><trkpt lat="44.48471556445738" lon="8.504130107178712"><ele>390.0</ele><time>2026-04-06T08:16:44Z</time></trkpt><trkpt lat="44.48460282921244" lon="8.504140398866653"><ele>390.0</ele><time>2026-04-06T08:16:45Z</time></trkpt><trkpt lat="44.48449282699175" lon="8.5041043330398"><ele>390.0</ele><time>2026-04-06T08:16:46Z</time></trkpt><trkpt lat="44.48439106450527" lon="8.504048680868875"><ele>390.0</ele><time>2026-04-06T08:16:47Z</time></trkpt><trkpt lat="44.48429128840139" lon="8.503988792866906"><ele>390.2</ele><time>2026-04-06T08:16:48Z</time></trkpt><trkpt lat="44.48419556877758" lon="8.503927797320125"><ele>390.4</ele><time>2026-04-06T08:16:49Z</time></trkpt><trkpt lat="44.48411972211323" lon="8.503848843415755"><ele>390.6</ele><time>2026-04-06T08:16:50Z</time></trkpt><trkpt lat="44.48407077259818" lon="8.503747833704207"><ele>390.8</ele><time>2026-04-06T08:16:51Z</time></trkpt><trkpt lat="44.484044713200674" lon="8.503627808615928"><ele>391.0</ele><time>2026-04-06T08:16:52Z</time></trkpt><trkpt lat="44.48404572153888" lon="8.503513957457832"><ele>391.0</ele><time>2026-04-06T08:16:53Z</time></trkpt><trkpt lat="44.48406465341371" lon="8.503390733809788"><ele>391.0</ele><time>2026-04-06T08:16:54Z</time></trkpt><trkpt lat="44.48410135981749" lon="8.503275425828194"><ele>391.0</ele><time>2026-04-06T08:16:55Z</time></trkpt><trkpt lat="44.48413524987079" lon="8.503153336050346"><ele>391.0</ele><time>2026-04-06T08:16:56Z</time></trkpt><trkpt lat="44.48415224289267" lon="8.503019238189617"><ele>391.0</ele><time>2026-04-06T08:16:57Z</time></trkpt><trkpt lat="44.484146633666484" lon="8.502869620113936"><ele>390.25</ele><time>2026-04-06T08:16:58Z</time></trkpt><trkpt lat="44.484121750890395" lon="8.502708318492303"><ele>389.5</ele><time>2026-04-06T08:16:59Z</time></trkpt><trkpt lat="44.48408879333223" lon="8.502541042983323"><ele>388.75</ele><time>2026-04-06T08:17:00Z</time></trkpt><trkpt lat="44.48406288445556" lon="8.502371896573388"><ele>388.0</ele><time>2026-04-06T08:17:01Z</time></trkpt><trkpt lat="44.48402467714704" lon="8.502202770414554"><ele>387.25</ele><time>2026-04-06T08:17:02Z</time></trkpt><trkpt lat="44.483992454775084" lon="8.502045404358784"><ele>386.5</ele><time>2026-04-06T08:17:03Z</time></trkpt><trkpt lat="44.48395641502193" lon="8.501889064336376"><ele>385.75</ele><time>2026-04-06T08:17:04Z</time></trkpt><trkpt lat="44.48390362321222" lon="8.501735904961192"><ele>385.0</ele><time>2026-04-06T08:17:05Z</time></trkpt><trkpt lat="44.483823135568144" lon="8.501600816046894"><ele>385.0</ele><time>2026-04-06T08:17:06Z</time></trkpt><trkpt lat="44.483728346846355" lon="8.501484172394116"><ele>385.0</ele><time>2026-04-06T08:17:07Z</time></trkpt><trkpt lat="44.48363944821406" lon="8.501353858645269"><ele>385.0</ele><time>2026-04-06T08:17:07.999Z</time></trkpt><trkpt lat="44.48356687364313" lon="8.501185956881558"><ele>385.0</ele><time>2026-04-06T08:17:08.999Z</time></trkpt><trkpt lat="44.48354365441598" lon="8.5009823392068"><ele>385.0</ele><time>2026-04-06T08:17:09.999Z</time></trkpt><trkpt lat="44.48352894548125" lon="8.500760325229255"><ele>385.0</ele><time>2026-04-06T08:17:10.999Z</time></trkpt><trkpt lat="44.48352531670061" lon="8.500576091304092"><ele>385.0</ele><time>2026-04-06T08:17:11.999Z</time></trkpt><trkpt lat="44.48351321982488" lon="8.500404851944333"><ele>385.0</ele><time>2026-04-06T08:17:12.999Z</time></trkpt><trkpt lat="44.4834971448757" lon="8.500232739674388"><ele>385.0</ele><time>2026-04-06T08:17:13.999Z</time></trkpt><trkpt lat="44.483477159638404" lon="8.500056761789203"><ele>385.0</ele><time>2026-04-06T08:17:14.999Z</time></trkpt><trkpt lat="44.48344027218207" lon="8.499882345961979"><ele>385.0</ele><time>2026-04-06T08:17:15.999Z</time></trkpt><trkpt lat="44.48337630497002" lon="8.49971660983185"><ele>385.0</ele><time>2026-04-06T08:17:16.999Z</time></trkpt><trkpt lat="44.48329468248999" lon="8.499558585824284"><ele>384.5</ele><time>2026-04-06T08:17:17.999Z</time></trkpt><trkpt lat="44.48321082001672" lon="8.499403085652073"><ele>384.0</ele><time>2026-04-06T08:17:18.999Z</time></trkpt><trkpt lat="44.483126294293825" lon="8.499241626666738"><ele>383.5</ele><time>2026-04-06T08:17:19.999Z</time></trkpt><trkpt lat="44.48304504156329" lon="8.499076014692461"><ele>383.0</ele><time>2026-04-06T08:17:20.999Z</time></trkpt><trkpt lat="44.4829486878061" lon="8.498885405849881"><ele>384.0</ele><time>2026-04-06T08:17:21.999Z</time></trkpt><trkpt lat="44.4828517369908" lon="8.49870096633285"><ele>385.0</ele><time>2026-04-06T08:17:22.999Z</time></trkpt><trkpt lat="44.48276964727894" lon="8.498528384403018"><ele>386.0</ele><time>2026-04-06T08:17:23.999Z</time></trkpt><trkpt lat="44.48269980715942" lon="8.498359154545511"><ele>386.0</ele><time>2026-04-06T08:17:24.999Z</time></trkpt><trkpt lat="44.48263771546217" lon="8.4981894623218"><ele>386.0</ele><time>2026-04-06T08:17:25.999Z</time></trkpt><trkpt lat="44.48257585252564" lon="8.498017832877569"><ele>386.0</ele><time>2026-04-06T08:17:26.999Z</time></trkpt><trkpt lat="44.482519984861106" lon="8.497832442372381"><ele>386.0</ele><time>2026-04-06T08:17:27.999Z</time></trkpt><trkpt lat="44.48247675948897" lon="8.497660392633055"><ele>385.5</ele><time>2026-04-06T08:17:28.999Z</time></trkpt><trkpt lat="44.48241734307161" lon="8.497475649957691"><ele>385.0</ele><time>2026-04-06T08:17:29.999Z</time></trkpt><trkpt lat="44.48236072674493" lon="8.497306498511348"><ele>384.5</ele><time>2026-04-06T08:17:30.999Z</time></trkpt><trkpt lat="44.48230416920193" lon="8.49712886489888"><ele>384.0</ele><time>2026-04-06T08:17:31.999Z</time></trkpt><trkpt lat="44.48224933777031" lon="8.496953026972195"><ele>384.25</ele><time>2026-04-06T08:17:32.999Z</time></trkpt><trkpt lat="44.48219235345208" lon="8.496779159863472"><ele>384.5</ele><time>2026-04-06T08:17:33.999Z</time></trkpt><trkpt lat="44.48212567876385" lon="8.496596868911828"><ele>384.75</ele><time>2026-04-06T08:17:34.999Z</time></trkpt><trkpt lat="44.48205461065266" lon="8.496413632849368"><ele>385.0</ele><time>2026-04-06T08:17:35.999Z</time></trkpt><trkpt lat="44.48198280242604" lon="8.496236676943736"><ele>385.0</ele><time>2026-04-06T08:17:36.999Z</time></trkpt><trkpt lat="44.4818995073884" lon="8.496070873416942"><ele>385.0</ele><time>2026-04-06T08:17:37.999Z</time></trkpt><trkpt lat="44.481824009467495" lon="8.49590827449304"><ele>385.0</ele><time>2026-04-06T08:17:38.999Z</time></trkpt><trkpt lat="44.48176333087443" lon="8.495756897552093"><ele>385.0</ele><time>2026-04-06T08:17:39.999Z</time></trkpt><trkpt lat="44.48170787427889" lon="8.495609637895457"><ele>385.0</ele><time>2026-04-06T08:17:41.001Z</time></trkpt><trkpt lat="44.481643963191225" lon="8.495462716584969"><ele>385.0</ele><time>2026-04-06T08:17:42.001Z</time></trkpt><trkpt lat="44.48157181340044" lon="8.495320583196841"><ele>385.0</ele><time>2026-04-06T08:17:43.001Z</time></trkpt><trkpt lat="44.481488854189536" lon="8.495181946753632"><ele>385.0</ele><time>2026-04-06T08:17:44.001Z</time></trkpt><trkpt lat="44.48138467307805" lon="8.495039474424328"><ele>382.6666666666667</ele><time>2026-04-06T08:17:45.001Z</time></trkpt><trkpt lat="44.481268908846864" lon="8.494890831702111"><ele>380.33333333333337</ele><time>2026-04-06T08:17:46.001Z</time></trkpt><trkpt lat="44.481139645143735" lon="8.494738306592213"><ele>378.0</ele><time>2026-04-06T08:17:47.001Z</time></trkpt><trkpt lat="44.48098544243101" lon="8.49459531418848"><ele>378.6666666666667</ele><time>2026-04-06T08:17:48.001Z</time></trkpt><trkpt lat="44.48083640658079" lon="8.494479537804601"><ele>379.33333333333337</ele><time>2026-04-06T08:17:49.001Z</time></trkpt><trkpt lat="44.480702736169114" lon="8.494372577724203"><ele>380.0</ele><time>2026-04-06T08:17:50.001Z</time></trkpt><trkpt lat="44.48058458744372" lon="8.494265024917016"><ele>380.0</ele><time>2026-04-06T08:17:51.001Z</time></trkpt><trkpt lat="44.48046939286279" lon="8.494165546162904"><ele>380.0</ele><time>2026-04-06T08:17:52.001Z</time></trkpt><trkpt lat="44.48036304108959" lon="8.494061839433913"><ele>380.0</ele><time>2026-04-06T08:17:53.001Z</time></trkpt><trkpt lat="44.480267675195485" lon="8.493941609325706"><ele>380.0</ele><time>2026-04-06T08:17:54.001Z</time></trkpt><trkpt lat="44.48018873749244" lon="8.493797239940918"><ele>382.5</ele><time>2026-04-06T08:17:55.001Z</time></trkpt><trkpt lat="44.4801241913037" lon="8.493637957046714"><ele>385.0</ele><time>2026-04-06T08:17:56.001Z</time></trkpt><trkpt lat="44.480061905009975" lon="8.493480214985029"><ele>387.5</ele><time>2026-04-06T08:17:57Z</time></trkpt><trkpt lat="44.480014926082326" lon="8.49332885529327"><ele>390.0</ele><time>2026-04-06T08:17:58Z</time></trkpt><trkpt lat="44.47997473756078" lon="8.493181366460304"><ele>390.0</ele><time>2026-04-06T08:17:59Z</time></trkpt><trkpt lat="44.47993019349564" lon="8.493032789406806"><ele>390.0</ele><time>2026-04-06T08:18:00Z</time></trkpt><trkpt lat="44.479891429089655" lon="8.492881017542725"><ele>390.0</ele><time>2026-04-06T08:18:01Z</time></trkpt><trkpt lat="44.47985603001" lon="8.492732470327237"><ele>390.0</ele><time>2026-04-06T08:18:02Z</time></trkpt><trkpt lat="44.47981503855952" lon="8.492588872209671"><ele>389.0</ele><time>2026-04-06T08:18:03Z</time></trkpt><trkpt lat="44.47978329813445" lon="8.4924626199635"><ele>388.0</ele><time>2026-04-06T08:18:04Z</time></trkpt><trkpt lat="44.47975449884934" lon="8.4923310293953"><ele>387.0</ele><time>2026-04-06T08:18:05Z</time></trkpt><trkpt lat="44.47972965624264" lon="8.49221558325707"><ele>386.0</ele><time>2026-04-06T08:18:06Z</time></trkpt><trkpt lat="44.47969908053835" lon="8.49210794736208"><ele>385.0</ele><time>2026-04-06T08:18:07Z</time></trkpt><trkpt lat="44.47967462750057" lon="8.492001079868059"><ele>384.0</ele><time>2026-04-06T08:18:08Z</time></trkpt><trkpt lat="44.47964218787738" lon="8.491875724849818"><ele>384.79999999999995</ele><time>2026-04-06T08:18:09Z</time></trkpt><trkpt lat="44.47961256400515" lon="8.49175255217147"><ele>385.59999999999997</ele><time>2026-04-06T08:18:10Z</time></trkpt><trkpt lat="44.47959132341595" lon="8.491630035861828"><ele>386.4</ele><time>2026-04-06T08:18:11Z</time></trkpt><trkpt lat="44.47957007256601" lon="8.491504818858298"><ele>387.2</ele><time>2026-04-06T08:18:12Z</time></trkpt><trkpt lat="44.47954710934248" lon="8.491378905573072"><ele>388.0</ele><time>2026-04-06T08:18:13Z</time></trkpt><trkpt lat="44.47953488665307" lon="8.4912553979211"><ele>388.00000000000006</ele><time>2026-04-06T08:18:14Z</time></trkpt><trkpt lat="44.479528121873045" lon="8.491155301417674"><ele>388.0</ele><time>2026-04-06T08:18:15Z</time></trkpt><trkpt lat="44.47952399127826" lon="8.491055484508745"><ele>388.0</ele><time>2026-04-06T08:18:16Z</time></trkpt><trkpt lat="44.479512464898896" lon="8.490957276960266"><ele>388.0</ele><time>2026-04-06T08:18:17Z</time></trkpt><trkpt lat="44.47950061260275" lon="8.490858020498154"><ele>388.00000000000006</ele><time>2026-04-06T08:18:18Z</time></trkpt><trkpt lat="44.479490091918976" lon="8.49076477305517"><ele>388.0</ele><time>2026-04-06T08:18:19Z</time></trkpt><trkpt lat="44.47946590288915" lon="8.490626477761545"><ele>388.00000000000006</ele><time>2026-04-06T08:18:21Z</time></trkpt><trkpt lat="44.47945094986116" lon="8.490489939179309"><ele>388.0</ele><time>2026-04-06T08:18:23Z</time></trkpt><trkpt lat="44.47944614516781" lon="8.490397089426212"><ele>388.0</ele><time>2026-04-06T08:18:25Z</time></trkpt><trkpt lat="44.47946299496682" lon="8.490297003371648"><ele>388.0</ele><time>2026-04-06T08:18:32Z</time></trkpt><trkpt lat="44.47951607880935" lon="8.49022769285624"><ele>388.00000000000006</ele><time>2026-04-06T08:18:36Z</time></trkpt><trkpt lat="44.47960949254747" lon="8.490195460866964"><ele>388.0</ele><time>2026-04-06T08:18:38Z</time></trkpt><trkpt lat="44.479711596590285" lon="8.490188162340033"><ele>386.1666666666667</ele><time>2026-04-06T08:18:40Z</time></trkpt><trkpt lat="44.47978773695244" lon="8.490185356604304"><ele>384.33333333333337</ele><time>2026-04-06T08:18:42Z</time></trkpt><trkpt lat="44.47985269316476" lon="8.490226435602231"><ele>382.5</ele><time>2026-04-06T08:18:45Z</time></trkpt><trkpt lat="44.47993285929702" lon="8.490227076540204"><ele>380.6666666666667</ele><time>2026-04-06T08:21:32.999Z</time></trkpt><trkpt lat="44.47999860570111" lon="8.490250419886125"><ele>378.83333333333337</ele><time>2026-04-06T08:21:37.999Z</time></trkpt><trkpt lat="44.480059432332204" lon="8.490173686685425"><ele>377.0</ele><time>2026-04-06T08:25:18.998Z</time></trkpt><trkpt lat="44.48015606275832" lon="8.490174598736292"><ele>377.0</ele><time>2026-04-06T08:25:20.998Z</time></trkpt><trkpt lat="44.48022995715446" lon="8.490188236231196"><ele>377.0</ele><time>2026-04-06T08:25:21.998Z</time></trkpt><trkpt lat="44.480306067269694" lon="8.490189742856764"><ele>377.0</ele><time>2026-04-06T08:25:22.998Z</time></trkpt><trkpt lat="44.48037309134583" lon="8.490187994870306"><ele>377.0</ele><time>2026-04-06T08:25:23.998Z</time></trkpt><trkpt lat="44.48051225773027" lon="8.49018201410511"><ele>377.0</ele><time>2026-04-06T08:25:25.998Z</time></trkpt><trkpt lat="44.480594131077" lon="8.490184071345322"><ele>377.0</ele><time>2026-04-06T08:25:26.998Z</time></trkpt><trkpt lat="44.480679848953265" lon="8.490182758407517"><ele>375.40000000000003</ele><time>2026-04-06T08:25:27.998Z</time></trkpt><trkpt lat="44.48077109875485" lon="8.490186056846737"><ele>373.8</ele><time>2026-04-06T08:25:28.998Z</time></trkpt><trkpt lat="44.48086701436223" lon="8.490184546553051"><ele>372.2</ele><time>2026-04-06T08:25:29.998Z</time></trkpt><trkpt lat="44.4809671343753" lon="8.490179077712705"><ele>370.6</ele><time>2026-04-06T08:25:30.998Z</time></trkpt><trkpt lat="44.48106501987227" lon="8.490179384726629"><ele>369.0</ele><time>2026-04-06T08:25:31.998Z</time></trkpt><trkpt lat="44.481157867077016" lon="8.490184937276682"><ele>369.0</ele><time>2026-04-06T08:25:32.998Z</time></trkpt><trkpt lat="44.48124847168255" lon="8.490184927520618"><ele>369.0</ele><time>2026-04-06T08:25:33.998Z</time></trkpt><trkpt lat="44.48132946064351" lon="8.490184023993661"><ele>369.0</ele><time>2026-04-06T08:25:34.998Z</time></trkpt><trkpt lat="44.48141167283391" lon="8.490199384827202"><ele>369.0</ele><time>2026-04-06T08:25:35.998Z</time></trkpt><trkpt lat="44.48149825168548" lon="8.490230568704709"><ele>369.0</ele><time>2026-04-06T08:25:36.998Z</time></trkpt><trkpt lat="44.481577678836885" lon="8.490287390067094"><ele>369.0</ele><time>2026-04-06T08:25:37.998Z</time></trkpt><trkpt lat="44.48164333310258" lon="8.49037653947526"><ele>370.2</ele><time>2026-04-06T08:25:38.998Z</time></trkpt><trkpt lat="44.48171271894657" lon="8.49046520580816"><ele>371.4</ele><time>2026-04-06T08:25:39.998Z</time></trkpt><trkpt lat="44.481771999249325" lon="8.490572602092831"><ele>372.6</ele><time>2026-04-06T08:25:40.998Z</time></trkpt><trkpt lat="44.48182469093178" lon="8.490709826634209"><ele>373.8</ele><time>2026-04-06T08:25:41.998Z</time></trkpt><trkpt lat="44.481869800840876" lon="8.49085265145991"><ele>375.0</ele><time>2026-04-06T08:25:42.998Z</time></trkpt><trkpt lat="44.481906344347024" lon="8.49101004175532"><ele>375.0</ele><time>2026-04-06T08:25:43.998Z</time></trkpt><trkpt lat="44.48191677006664" lon="8.491167107877406"><ele>375.0</ele><time>2026-04-06T08:25:44.998Z</time></trkpt><trkpt lat="44.481932226794314" lon="8.49132268034514"><ele>375.0</ele><time>2026-04-06T08:25:45.998Z</time></trkpt><trkpt lat="44.481949004929206" lon="8.491493639943126"><ele>375.0</ele><time>2026-04-06T08:25:46.998Z</time></trkpt><trkpt lat="44.48196680535678" lon="8.491664250488359"><ele>375.25</ele><time>2026-04-06T08:25:47.998Z</time></trkpt><trkpt lat="44.48197766216043" lon="8.491827270303533"><ele>375.5</ele><time>2026-04-06T08:25:48.998Z</time></trkpt><trkpt lat="44.481990949342766" lon="8.491991156664438"><ele>375.75</ele><time>2026-04-06T08:25:49.998Z</time></trkpt><trkpt lat="44.482006484456285" lon="8.492146947930909"><ele>376.0</ele><time>2026-04-06T08:25:50.998Z</time></trkpt><trkpt lat="44.482032837270964" lon="8.492311262002612"><ele>375.25</ele><time>2026-04-06T08:25:51.998Z</time></trkpt><trkpt lat="44.48206776558073" lon="8.49247136240949"><ele>374.5</ele><time>2026-04-06T08:25:52.998Z</time></trkpt><trkpt lat="44.48213886670713" lon="8.492607003793056"><ele>373.75</ele><time>2026-04-06T08:25:53.998Z</time></trkpt><trkpt lat="44.48224592644359" lon="8.492720195560352"><ele>373.0</ele><time>2026-04-06T08:25:54.998Z</time></trkpt><trkpt lat="44.48237622898746" lon="8.492804918812368"><ele>373.0</ele><time>2026-04-06T08:25:55.998Z</time></trkpt><trkpt lat="44.482507819091595" lon="8.492869681754149"><ele>373.0</ele><time>2026-04-06T08:25:56.998Z</time></trkpt><trkpt lat="44.48263728655855" lon="8.492935015762862"><ele>373.0</ele><time>2026-04-06T08:25:57.998Z</time></trkpt><trkpt lat="44.48276548266114" lon="8.492987874732902"><ele>373.0</ele><time>2026-04-06T08:25:58.998Z</time></trkpt><trkpt lat="44.48289226272857" lon="8.493013270985923"><ele>376.75</ele><time>2026-04-06T08:25:59.998Z</time></trkpt><trkpt lat="44.4830100080908" lon="8.493017130109905"><ele>380.5</ele><time>2026-04-06T08:26:00.998Z</time></trkpt><trkpt lat="44.4831295520387" lon="8.49302423908265"><ele>384.25</ele><time>2026-04-06T08:26:01.998Z</time></trkpt><trkpt lat="44.483244634713216" lon="8.493061985332282"><ele>388.0</ele><time>2026-04-06T08:26:02.998Z</time></trkpt><trkpt lat="44.48334880023983" lon="8.493147154325845"><ele>388.0</ele><time>2026-04-06T08:26:03.998Z</time></trkpt><trkpt lat="44.48343166711294" lon="8.493268742042597"><ele>388.0</ele><time>2026-04-06T08:26:04.999Z</time></trkpt><trkpt lat="44.483484438111816" lon="8.493425675813626"><ele>388.0</ele><time>2026-04-06T08:26:05.999Z</time></trkpt><trkpt lat="44.483505154581195" lon="8.49361517930992"><ele>388.0</ele><time>2026-04-06T08:26:06.999Z</time></trkpt><trkpt lat="44.48351815771411" lon="8.493799627126032"><ele>387.25</ele><time>2026-04-06T08:26:07.999Z</time></trkpt><trkpt lat="44.483532763051976" lon="8.493969205602799"><ele>386.5</ele><time>2026-04-06T08:26:08.999Z</time></trkpt><trkpt lat="44.48355523425901" lon="8.494114793587627"><ele>385.75</ele><time>2026-04-06T08:26:09.999Z</time></trkpt><trkpt lat="44.483612546956564" lon="8.494250961039718"><ele>385.0</ele><time>2026-04-06T08:26:10.999Z</time></trkpt><trkpt lat="44.48371992614601" lon="8.494363370779912"><ele>385.75</ele><time>2026-04-06T08:26:11.999Z</time></trkpt><trkpt lat="44.48384474996912" lon="8.494450035188608"><ele>386.5</ele><time>2026-04-06T08:26:12.999Z</time></trkpt><trkpt lat="44.4839755223612" lon="8.494537807775426"><ele>387.25</ele><time>2026-04-06T08:26:13.999Z</time></trkpt><trkpt lat="44.48409187486429" lon="8.494646049654152"><ele>388.0</ele><time>2026-04-06T08:26:14.999Z</time></trkpt><trkpt lat="44.484188193844574" lon="8.494779043516386"><ele>388.0</ele><time>2026-04-06T08:26:15.999Z</time></trkpt><trkpt lat="44.48429259756802" lon="8.494896311008006"><ele>388.0</ele><time>2026-04-06T08:26:16.999Z</time></trkpt><trkpt lat="44.48441177008464" lon="8.494955016653886"><ele>388.0</ele><time>2026-04-06T08:26:17.999Z</time></trkpt><trkpt lat="44.48453898358749" lon="8.494964109517683"><ele>388.0</ele><time>2026-04-06T08:26:18.999Z</time></trkpt><trkpt lat="44.48465723875822" lon="8.494964596696217"><ele>391.25</ele><time>2026-04-06T08:26:19.999Z</time></trkpt><trkpt lat="44.48475702649876" lon="8.494997316302483"><ele>394.5</ele><time>2026-04-06T08:26:20.999Z</time></trkpt><trkpt lat="44.484848131985494" lon="8.495086638976504"><ele>397.75</ele><time>2026-04-06T08:26:21.999Z</time></trkpt><trkpt lat="44.484901999215076" lon="8.495245872738817"><ele>401.0</ele><time>2026-04-06T08:26:22.999Z</time></trkpt><trkpt lat="44.484910185459185" lon="8.49543507438288"><ele>401.0</ele><time>2026-04-06T08:26:23.999Z</time></trkpt><trkpt lat="44.48487461645003" lon="8.495627552034687"><ele>401.0</ele><time>2026-04-06T08:26:24.999Z</time></trkpt><trkpt lat="44.48483252289505" lon="8.495830313566838"><ele>401.0</ele><time>2026-04-06T08:26:25.999Z</time></trkpt><trkpt lat="44.48481318178092" lon="8.495996237774428"><ele>401.0</ele><time>2026-04-06T08:26:26.999Z</time></trkpt><trkpt lat="44.48482648239261" lon="8.496163136078666"><ele>401.0</ele><time>2026-04-06T08:26:27.999Z</time></trkpt><trkpt lat="44.48490438441365" lon="8.496323634886068"><ele>401.0</ele><time>2026-04-06T08:26:28.999Z</time></trkpt><trkpt lat="44.48501248585713" lon="8.496457601961112"><ele>401.0</ele><time>2026-04-06T08:26:29.999Z</time></trkpt><trkpt lat="44.48512987366023" lon="8.496579338794348"><ele>401.0</ele><time>2026-04-06T08:26:30.999Z</time></trkpt><trkpt lat="44.48525231805234" lon="8.496697139526512"><ele>401.0</ele><time>2026-04-06T08:26:31.999Z</time></trkpt><trkpt lat="44.48537862178867" lon="8.496805224096134"><ele>401.0</ele><time>2026-04-06T08:26:32.999Z</time></trkpt><trkpt lat="44.4855156077664" lon="8.49689822249305"><ele>401.0</ele><time>2026-04-06T08:26:33.999Z</time></trkpt><trkpt lat="44.485655602422575" lon="8.496981823538126"><ele>403.5</ele><time>2026-04-06T08:26:34.999Z</time></trkpt><trkpt lat="44.48579140592383" lon="8.497048887954803"><ele>406.0</ele><time>2026-04-06T08:26:35.999Z</time></trkpt><trkpt lat="44.48593895698798" lon="8.497097382909386"><ele>408.5</ele><time>2026-04-06T08:26:36.999Z</time></trkpt><trkpt lat="44.486080346575264" lon="8.497147503384683"><ele>411.0</ele><time>2026-04-06T08:26:37.999Z</time></trkpt><trkpt lat="44.486220507213574" lon="8.497202534526913"><ele>411.75</ele><time>2026-04-06T08:26:38.999Z</time></trkpt><trkpt lat="44.48635511495263" lon="8.497238986629862"><ele>412.5</ele><time>2026-04-06T08:26:39.999Z</time></trkpt><trkpt lat="44.4864893922802" lon="8.497266566453943"><ele>413.25</ele><time>2026-04-06T08:26:40.999Z</time></trkpt><trkpt lat="44.48661995273871" lon="8.49725583769375"><ele>414.0</ele><time>2026-04-06T08:26:41.999Z</time></trkpt><trkpt lat="44.48674771965848" lon="8.497208540846188"><ele>414.0</ele><time>2026-04-06T08:26:42.999Z</time></trkpt><trkpt lat="44.486867120667384" lon="8.497123172915332"><ele>414.0</ele><time>2026-04-06T08:26:43.999Z</time></trkpt><trkpt lat="44.48699622817977" lon="8.497023975580074"><ele>414.0</ele><time>2026-04-06T08:26:44.999Z</time></trkpt><trkpt lat="44.487124364342236" lon="8.496926673735683"><ele>414.0</ele><time>2026-04-06T08:26:45.999Z</time></trkpt><trkpt lat="44.487251359430786" lon="8.496866004091482"><ele>412.5</ele><time>2026-04-06T08:26:46.999Z</time></trkpt><trkpt lat="44.4873801742327" lon="8.496845745907478"><ele>411.0</ele><time>2026-04-06T08:26:47.999Z</time></trkpt><trkpt lat="44.48750811666128" lon="8.496869328482616"><ele>409.5</ele><time>2026-04-06T08:26:48.999Z</time></trkpt><trkpt lat="44.48762395126522" lon="8.496928286730519"><ele>408.0</ele><time>2026-04-06T08:26:49.999Z</time></trkpt><trkpt lat="44.487735119963084" lon="8.497009640587452"><ele>408.79999999999995</ele><time>2026-04-06T08:26:50.999Z</time></trkpt><trkpt lat="44.48784002657585" lon="8.497090545792014"><ele>409.6</ele><time>2026-04-06T08:26:51.999Z</time></trkpt><trkpt lat="44.4879252241549" lon="8.49718784124592"><ele>410.4</ele><time>2026-04-06T08:26:52.999Z</time></trkpt><trkpt lat="44.48798292983747" lon="8.497330173914708"><ele>411.20000000000005</ele><time>2026-04-06T08:26:53.999Z</time></trkpt><trkpt lat="44.48802696666796" lon="8.497459913827232"><ele>412.0</ele><time>2026-04-06T08:26:54.999Z</time></trkpt><trkpt lat="44.48809761574909" lon="8.49754762182962"><ele>412.0</ele><time>2026-04-06T08:26:55.999Z</time></trkpt><trkpt lat="44.4881997089238" lon="8.497559344839672"><ele>412.0</ele><time>2026-04-06T08:26:56.999Z</time></trkpt><trkpt lat="44.48829579828534" lon="8.49751435414506"><ele>412.0</ele><time>2026-04-06T08:26:57.999Z</time></trkpt><trkpt lat="44.488391381025764" lon="8.49741900111527"><ele>412.0</ele><time>2026-04-06T08:26:58.999Z</time></trkpt><trkpt lat="44.48847804366353" lon="8.49731587967747"><ele>412.0</ele><time>2026-04-06T08:26:59.999Z</time></trkpt><trkpt lat="44.48856982950558" lon="8.497241164219371"><ele>412.0</ele><time>2026-04-06T08:27:00.999Z</time></trkpt><trkpt lat="44.48867257931546" lon="8.497220220475503"><ele>412.0</ele><time>2026-04-06T08:27:01.999Z</time></trkpt><trkpt lat="44.4887889612683" lon="8.49726533676091"><ele>412.0</ele><time>2026-04-06T08:27:02.999Z</time></trkpt><trkpt lat="44.488889172107" lon="8.497360744400318"><ele>412.0</ele><time>2026-04-06T08:27:03.999Z</time></trkpt><trkpt lat="44.48896607804444" lon="8.497500279678556"><ele>408.0</ele><time>2026-04-06T08:27:04.999Z</time></trkpt><trkpt lat="44.48902333577209" lon="8.497654132654484"><ele>404.0</ele><time>2026-04-06T08:27:05.999Z</time></trkpt><trkpt lat="44.48909408690046" lon="8.497781127062378"><ele>400.0</ele><time>2026-04-06T08:27:06.999Z</time></trkpt><trkpt lat="44.48920346575431" lon="8.49785285089174"><ele>396.0</ele><time>2026-04-06T08:27:07.999Z</time></trkpt><trkpt lat="44.48932383110172" lon="8.497870394408713"><ele>396.0</ele><time>2026-04-06T08:27:08.999Z</time></trkpt><trkpt lat="44.48944355576038" lon="8.497821002075488"><ele>396.0</ele><time>2026-04-06T08:27:09.999Z</time></trkpt><trkpt lat="44.489558103766925" lon="8.497725796381292"><ele>396.0</ele><time>2026-04-06T08:27:10.999Z</time></trkpt><trkpt lat="44.48965354705285" lon="8.497592516521129"><ele>396.0</ele><time>2026-04-06T08:27:11.999Z</time></trkpt><trkpt lat="44.48973201296935" lon="8.497438650575788"><ele>395.5</ele><time>2026-04-06T08:27:12.999Z</time></trkpt><trkpt lat="44.48980976092505" lon="8.497292934860408"><ele>395.0</ele><time>2026-04-06T08:27:13.999Z</time></trkpt><trkpt lat="44.48990283275647" lon="8.49717312296724"><ele>394.5</ele><time>2026-04-06T08:27:14.999Z</time></trkpt><trkpt lat="44.49001688787678" lon="8.49709391504692"><ele>394.0</ele><time>2026-04-06T08:27:15.999Z</time></trkpt><trkpt lat="44.49014166651756" lon="8.497043470687524"><ele>391.75</ele><time>2026-04-06T08:27:16.999Z</time></trkpt><trkpt lat="44.49027104304462" lon="8.49704913408027"><ele>389.5</ele><time>2026-04-06T08:27:17.999Z</time></trkpt><trkpt lat="44.490401402542155" lon="8.497069083417214"><ele>387.25</ele><time>2026-04-06T08:27:18.999Z</time></trkpt><trkpt lat="44.49051963327497" lon="8.497044408248595"><ele>385.0</ele><time>2026-04-06T08:27:19.999Z</time></trkpt><trkpt lat="44.490616986184556" lon="8.496953466423063"><ele>385.0</ele><time>2026-04-06T08:27:20.999Z</time></trkpt><trkpt lat="44.49067397880822" lon="8.496811610267413"><ele>385.0</ele><time>2026-04-06T08:27:21.999Z</time></trkpt><trkpt lat="44.49069265581926" lon="8.496640783030339"><ele>385.0</ele><time>2026-04-06T08:27:22.999Z</time></trkpt><trkpt lat="44.490691361581284" lon="8.496484401412463"><ele>385.0</ele><time>2026-04-06T08:27:23.999Z</time></trkpt><trkpt lat="44.490723546986445" lon="8.496366951576542"><ele>385.0</ele><time>2026-04-06T08:27:24.999Z</time></trkpt><trkpt lat="44.49080849063287" lon="8.49630427448353"><ele>385.0</ele><time>2026-04-06T08:27:25.999Z</time></trkpt><trkpt lat="44.49091741350125" lon="8.496312747549366"><ele>385.0</ele><time>2026-04-06T08:27:26.999Z</time></trkpt><trkpt lat="44.49104358222906" lon="8.496334753519523"><ele>385.0</ele><time>2026-04-06T08:27:27.999Z</time></trkpt><trkpt lat="44.49115290206563" lon="8.496366216114756"><ele>385.0</ele><time>2026-04-06T08:27:28.999Z</time></trkpt><trkpt lat="44.491236556282004" lon="8.49642169986998"><ele>385.0</ele><time>2026-04-06T08:27:29.999Z</time></trkpt><trkpt lat="44.491289187056296" lon="8.496531368469219"><ele>386.0</ele><time>2026-04-06T08:27:30.999Z</time></trkpt><trkpt lat="44.49130562878373" lon="8.496695751631364"><ele>387.0</ele><time>2026-04-06T08:27:31.999Z</time></trkpt><trkpt lat="44.4913044107768" lon="8.496852671216717"><ele>388.0</ele><time>2026-04-06T08:27:32.999Z</time></trkpt><trkpt lat="44.49132712895672" lon="8.49699543341141"><ele>389.0</ele><time>2026-04-06T08:27:33.999Z</time></trkpt><trkpt lat="44.49139892826451" lon="8.497091941383871"><ele>390.0</ele><time>2026-04-06T08:27:34.999Z</time></trkpt><trkpt lat="44.49149970092519" lon="8.497112737335062"><ele>387.4</ele><time>2026-04-06T08:27:35.999Z</time></trkpt><trkpt lat="44.49159407348042" lon="8.497081351993303"><ele>384.8</ele><time>2026-04-06T08:27:36.999Z</time></trkpt><trkpt lat="44.49168162966311" lon="8.497013263012915"><ele>382.20000000000005</ele><time>2026-04-06T08:27:37.999Z</time></trkpt><trkpt lat="44.49178969036175" lon="8.496951476301252"><ele>379.6</ele><time>2026-04-06T08:27:38.999Z</time></trkpt><trkpt lat="44.49190991542665" lon="8.496908506907511"><ele>377.0</ele><time>2026-04-06T08:27:39.999Z</time></trkpt><trkpt lat="44.4920355985217" lon="8.4968602375016"><ele>376.5</ele><time>2026-04-06T08:27:40.999Z</time></trkpt><trkpt lat="44.49214888214139" lon="8.496762024450192"><ele>376.0</ele><time>2026-04-06T08:27:41.999Z</time></trkpt><trkpt lat="44.492236886218414" lon="8.496616461526736"><ele>375.5</ele><time>2026-04-06T08:27:42.999Z</time></trkpt><trkpt lat="44.49231481876043" lon="8.496502508700381"><ele>375.0</ele><time>2026-04-06T08:27:43.999Z</time></trkpt><trkpt lat="44.49241421593065" lon="8.496453666896475"><ele>375.0</ele><time>2026-04-06T08:27:44.999Z</time></trkpt><trkpt lat="44.492506754995425" lon="8.496472968715079"><ele>375.0</ele><time>2026-04-06T08:27:45.999Z</time></trkpt><trkpt lat="44.49259111233662" lon="8.496539796679818"><ele>375.0</ele><time>2026-04-06T08:27:46.999Z</time></trkpt><trkpt lat="44.492672007344275" lon="8.496652555014801"><ele>375.0</ele><time>2026-04-06T08:27:47.999Z</time></trkpt><trkpt lat="44.49275993724361" lon="8.496768317962559"><ele>375.0</ele><time>2026-04-06T08:27:48.999Z</time></trkpt><trkpt lat="44.492864201067626" lon="8.496868232833664"><ele>373.0</ele><time>2026-04-06T08:27:49.999Z</time></trkpt><trkpt lat="44.492988887029796" lon="8.496926315006862"><ele>371.0</ele><time>2026-04-06T08:27:50.999Z</time></trkpt><trkpt lat="44.49312898215195" lon="8.496931566817475"><ele>369.0</ele><time>2026-04-06T08:27:51.999Z</time></trkpt><trkpt lat="44.493274803270964" lon="8.496910716718311"><ele>367.0</ele><time>2026-04-06T08:27:52.999Z</time></trkpt><trkpt lat="44.493419964123866" lon="8.496913344936342"><ele>367.0</ele><time>2026-04-06T08:27:53.999Z</time></trkpt><trkpt lat="44.49355796725724" lon="8.496916424827974"><ele>367.0</ele><time>2026-04-06T08:27:54.999Z</time></trkpt><trkpt lat="44.49368947019169" lon="8.496864010723028"><ele>367.0</ele><time>2026-04-06T08:27:55.999Z</time></trkpt><trkpt lat="44.49380606921888" lon="8.49674237450306"><ele>367.0</ele><time>2026-04-06T08:27:56.999Z</time></trkpt><trkpt lat="44.493915395909674" lon="8.496647444509874"><ele>366.75</ele><time>2026-04-06T08:27:57.999Z</time></trkpt><trkpt lat="44.49404234376754" lon="8.496578358355697"><ele>366.5</ele><time>2026-04-06T08:27:58.999Z</time></trkpt><trkpt lat="44.494178013470076" lon="8.49654841462317"><ele>366.25</ele><time>2026-04-06T08:27:59.999Z</time></trkpt><trkpt lat="44.49431230935217" lon="8.496509170420968"><ele>366.0</ele><time>2026-04-06T08:28:00.999Z</time></trkpt><trkpt lat="44.49443289717307" lon="8.496425692293073"><ele>366.0</ele><time>2026-04-06T08:28:01.999Z</time></trkpt><trkpt lat="44.49454259599942" lon="8.496331592315805"><ele>366.0</ele><time>2026-04-06T08:28:02.999Z</time></trkpt><trkpt lat="44.494665976045574" lon="8.496284797234473"><ele>366.0</ele><time>2026-04-06T08:28:03.999Z</time></trkpt><trkpt lat="44.49481410204586" lon="8.496284208241585"><ele>366.0</ele><time>2026-04-06T08:28:04.999Z</time></trkpt><trkpt lat="44.49495831524925" lon="8.49630791454358"><ele>366.5</ele><time>2026-04-06T08:28:05.999Z</time></trkpt><trkpt lat="44.49509365699928" lon="8.496317037903617"><ele>367.0</ele><time>2026-04-06T08:28:06.999Z</time></trkpt><trkpt lat="44.4952243107231" lon="8.49631142170516"><ele>367.5</ele><time>2026-04-06T08:28:07.999Z</time></trkpt><trkpt lat="44.49535921113498" lon="8.496302792431315"><ele>368.0</ele><time>2026-04-06T08:28:08.999Z</time></trkpt><trkpt lat="44.49549948013615" lon="8.496298044705942"><ele>364.6666666666667</ele><time>2026-04-06T08:28:09.999Z</time></trkpt><trkpt lat="44.49564457257914" lon="8.49630179276837"><ele>361.3333333333333</ele><time>2026-04-06T08:28:11Z</time></trkpt><trkpt lat="44.49581018739425" lon="8.496311193143718"><ele>358.0</ele><time>2026-04-06T08:28:12Z</time></trkpt><trkpt lat="44.495990505440666" lon="8.496301080878705"><ele>358.0</ele><time>2026-04-06T08:28:13Z</time></trkpt><trkpt lat="44.496168556941036" lon="8.496281984010706"><ele>358.0</ele><time>2026-04-06T08:28:14Z</time></trkpt><trkpt lat="44.4963395993621" lon="8.496250450788754"><ele>358.0</ele><time>2026-04-06T08:28:15Z</time></trkpt><trkpt lat="44.496515997103344" lon="8.496211357299371"><ele>356.3333333333333</ele><time>2026-04-06T08:28:16Z</time></trkpt><trkpt lat="44.49669325169932" lon="8.496175452681998"><ele>354.6666666666667</ele><time>2026-04-06T08:28:17Z</time></trkpt><trkpt lat="44.49686608131603" lon="8.496142389691538"><ele>353.0</ele><time>2026-04-06T08:28:18Z</time></trkpt><trkpt lat="44.49703002552618" lon="8.496111025498186"><ele>352.33333333333337</ele><time>2026-04-06T08:28:19Z</time></trkpt><trkpt lat="44.4971843531099" lon="8.496081975437393"><ele>351.6666666666667</ele><time>2026-04-06T08:28:20Z</time></trkpt><trkpt lat="44.49733549627035" lon="8.496052631054349"><ele>351.0</ele><time>2026-04-06T08:28:21Z</time></trkpt><trkpt lat="44.49747714750282" lon="8.496004701918078"><ele>351.0</ele><time>2026-04-06T08:28:22Z</time></trkpt><trkpt lat="44.49760807674459" lon="8.495914954709473"><ele>351.0</ele><time>2026-04-06T08:28:23Z</time></trkpt><trkpt lat="44.49771733948313" lon="8.495758333402375"><ele>351.0</ele><time>2026-04-06T08:28:24Z</time></trkpt><trkpt lat="44.49780077692838" lon="8.495563782142318"><ele>350.3333333333333</ele><time>2026-04-06T08:28:25Z</time></trkpt><trkpt lat="44.49787493353809" lon="8.495368739985093"><ele>349.66666666666663</ele><time>2026-04-06T08:28:26Z</time></trkpt><trkpt lat="44.49795693377728" lon="8.495179292100941"><ele>349.0</ele><time>2026-04-06T08:28:27Z</time></trkpt><trkpt lat="44.49803352515057" lon="8.494991914342927"><ele>349.75</ele><time>2026-04-06T08:28:28Z</time></trkpt><trkpt lat="44.49810742309567" lon="8.494813859794553"><ele>350.5</ele><time>2026-04-06T08:28:29Z</time></trkpt><trkpt lat="44.49817672568812" lon="8.49464677956327"><ele>351.25</ele><time>2026-04-06T08:28:30Z</time></trkpt><trkpt lat="44.4982403049765" lon="8.494492560487037"><ele>352.0</ele><time>2026-04-06T08:28:31Z</time></trkpt><trkpt lat="44.49830326655375" lon="8.494336431792364"><ele>352.0</ele><time>2026-04-06T08:28:32Z</time></trkpt><trkpt lat="44.49836582219492" lon="8.494181206622631"><ele>352.0</ele><time>2026-04-06T08:28:33Z</time></trkpt><trkpt lat="44.49842644226833" lon="8.494029503024352"><ele>352.0</ele><time>2026-04-06T08:28:34Z</time></trkpt><trkpt lat="44.4984873638353" lon="8.493880015369887"><ele>352.0</ele><time>2026-04-06T08:28:35Z</time></trkpt><trkpt lat="44.498548765288" lon="8.493728265405247"><ele>351.5</ele><time>2026-04-06T08:28:36Z</time></trkpt><trkpt lat="44.49860724359213" lon="8.493577993875178"><ele>351.0</ele><time>2026-04-06T08:28:37Z</time></trkpt><trkpt lat="44.49866798318495" lon="8.493433602846968"><ele>350.5</ele><time>2026-04-06T08:28:38Z</time></trkpt><trkpt lat="44.49872684565336" lon="8.493289297673995"><ele>350.0</ele><time>2026-04-06T08:28:39Z</time></trkpt><trkpt lat="44.49878492040025" lon="8.493146456054832"><ele>349.25</ele><time>2026-04-06T08:28:40Z</time></trkpt><trkpt lat="44.498845109203444" lon="8.493005890583364"><ele>348.5</ele><time>2026-04-06T08:28:41Z</time></trkpt><trkpt lat="44.49890606954029" lon="8.492867531614625"><ele>347.75</ele><time>2026-04-06T08:28:42Z</time></trkpt><trkpt lat="44.49896428060974" lon="8.492727272102268"><ele>347.0</ele><time>2026-04-06T08:28:43Z</time></trkpt><trkpt lat="44.499022812628915" lon="8.492587124222299"><ele>347.0</ele><time>2026-04-06T08:28:44Z</time></trkpt><trkpt lat="44.499081831024654" lon="8.492441114407997"><ele>347.0</ele><time>2026-04-06T08:28:45Z</time></trkpt><trkpt lat="44.49913837213437" lon="8.492292579733178"><ele>347.0</ele><time>2026-04-06T08:28:46Z</time></trkpt><trkpt lat="44.499198238658444" lon="8.492139306336387"><ele>347.0</ele><time>2026-04-06T08:28:47Z</time></trkpt><trkpt lat="44.49926094721863" lon="8.491990397000096"><ele>346.5</ele><time>2026-04-06T08:28:48Z</time></trkpt><trkpt lat="44.49932292635052" lon="8.491841237184124"><ele>346.0</ele><time>2026-04-06T08:28:49Z</time></trkpt><trkpt lat="44.49938363950592" lon="8.491693438714325"><ele>345.5</ele><time>2026-04-06T08:28:50Z</time></trkpt><trkpt lat="44.49944110677365" lon="8.491549708085284"><ele>345.0</ele><time>2026-04-06T08:28:51Z</time></trkpt><trkpt lat="44.49950058724525" lon="8.491405377258436"><ele>344.75</ele><time>2026-04-06T08:28:52Z</time></trkpt><trkpt lat="44.49956142209489" lon="8.49125626312101"><ele>344.5</ele><time>2026-04-06T08:28:53Z</time></trkpt><trkpt lat="44.49962202177674" lon="8.491108608563307"><ele>344.25</ele><time>2026-04-06T08:28:54Z</time></trkpt><trkpt lat="44.49967992507136" lon="8.490957803170414"><ele>344.0</ele><time>2026-04-06T08:28:55Z</time></trkpt><trkpt lat="44.49973524788481" lon="8.490802044861539"><ele>344.0</ele><time>2026-04-06T08:28:56Z</time></trkpt><trkpt lat="44.49978591972659" lon="8.490645451737912"><ele>344.0</ele><time>2026-04-06T08:28:57Z</time></trkpt><trkpt lat="44.49983359495718" lon="8.490490245445532"><ele>344.0</ele><time>2026-04-06T08:28:58Z</time></trkpt><trkpt lat="44.49987863566804" lon="8.490332677908512"><ele>344.0</ele><time>2026-04-06T08:28:59Z</time></trkpt><trkpt lat="44.499923528386596" lon="8.490174042557523"><ele>344.0</ele><time>2026-04-06T08:29:00Z</time></trkpt><trkpt lat="44.4999695004963" lon="8.49001057362149"><ele>344.0</ele><time>2026-04-06T08:29:01Z</time></trkpt><trkpt lat="44.50001405554835" lon="8.489849297876663"><ele>344.0</ele><time>2026-04-06T08:29:02Z</time></trkpt><trkpt lat="44.500056982845486" lon="8.48969157411502"><ele>344.0</ele><time>2026-04-06T08:29:03Z</time></trkpt><trkpt lat="44.50009766837369" lon="8.489533373610067"><ele>344.25</ele><time>2026-04-06T08:29:04Z</time></trkpt><trkpt lat="44.50013800403031" lon="8.489376081379634"><ele>344.5</ele><time>2026-04-06T08:29:05Z</time></trkpt><trkpt lat="44.500180794480144" lon="8.489219109867687"><ele>344.75</ele><time>2026-04-06T08:29:06Z</time></trkpt><trkpt lat="44.500224403563855" lon="8.489064050806752"><ele>345.0</ele><time>2026-04-06T08:29:07Z</time></trkpt><trkpt lat="44.50026269031432" lon="8.48890736462612"><ele>344.5</ele><time>2026-04-06T08:29:08Z</time></trkpt><trkpt lat="44.500300468106055" lon="8.488748521471994"><ele>344.0</ele><time>2026-04-06T08:29:09Z</time></trkpt><trkpt lat="44.50034363474402" lon="8.488590091570432"><ele>343.5</ele><time>2026-04-06T08:29:10Z</time></trkpt><trkpt lat="44.50038210949034" lon="8.488425153799634"><ele>343.0</ele><time>2026-04-06T08:29:11Z</time></trkpt><trkpt lat="44.5004238469784" lon="8.48825318120461"><ele>344.25</ele><time>2026-04-06T08:29:12Z</time></trkpt><trkpt lat="44.50046983524783" lon="8.488087609472254"><ele>345.5</ele><time>2026-04-06T08:29:13Z</time></trkpt><trkpt lat="44.50051767286915" lon="8.48792888058648"><ele>346.75</ele><time>2026-04-06T08:29:14Z</time></trkpt><trkpt lat="44.50056251337799" lon="8.487763143257027"><ele>348.0</ele><time>2026-04-06T08:29:15Z</time></trkpt><trkpt lat="44.500607100823686" lon="8.487594892960963"><ele>348.0</ele><time>2026-04-06T08:29:16Z</time></trkpt><trkpt lat="44.50065234381521" lon="8.487425859140416"><ele>348.0</ele><time>2026-04-06T08:29:17Z</time></trkpt><trkpt lat="44.50069714918136" lon="8.487254705902169"><ele>348.0</ele><time>2026-04-06T08:29:18Z</time></trkpt><trkpt lat="44.50074104409507" lon="8.487079952692104"><ele>348.0</ele><time>2026-04-06T08:29:19Z</time></trkpt><trkpt lat="44.50078817173495" lon="8.486900508671923"><ele>347.75</ele><time>2026-04-06T08:29:20Z</time></trkpt><trkpt lat="44.50083528600018" lon="8.486723029289948"><ele>347.5</ele><time>2026-04-06T08:29:21Z</time></trkpt><trkpt lat="44.50087994683284" lon="8.486559917418635"><ele>347.25</ele><time>2026-04-06T08:29:22Z</time></trkpt><trkpt lat="44.500921351287566" lon="8.486400596758006"><ele>347.0</ele><time>2026-04-06T08:29:23Z</time></trkpt><trkpt lat="44.500961725729375" lon="8.486240068839514"><ele>346.0</ele><time>2026-04-06T08:29:24Z</time></trkpt><trkpt lat="44.50100405774741" lon="8.486081319055621"><ele>345.0</ele><time>2026-04-06T08:29:25Z</time></trkpt><trkpt lat="44.5010515954568" lon="8.485921032549772"><ele>344.0</ele><time>2026-04-06T08:29:26Z</time></trkpt><trkpt lat="44.50109748469781" lon="8.485754204777603"><ele>343.0</ele><time>2026-04-06T08:29:27Z</time></trkpt><trkpt lat="44.50114133686702" lon="8.485584965434867"><ele>342.75</ele><time>2026-04-06T08:29:28Z</time></trkpt><trkpt lat="44.50118549228029" lon="8.485416759514704"><ele>342.5</ele><time>2026-04-06T08:29:29Z</time></trkpt><trkpt lat="44.50123390582366" lon="8.485248460959486"><ele>342.25</ele><time>2026-04-06T08:29:30Z</time></trkpt><trkpt lat="44.50129284159237" lon="8.485088873121374"><ele>342.0</ele><time>2026-04-06T08:29:31Z</time></trkpt><trkpt lat="44.50137400659089" lon="8.484944905186214"><ele>342.0</ele><time>2026-04-06T08:29:32Z</time></trkpt><trkpt lat="44.50148012336096" lon="8.484834639753556"><ele>342.0</ele><time>2026-04-06T08:29:33Z</time></trkpt><trkpt lat="44.50160879230038" lon="8.484762016269222"><ele>342.0</ele><time>2026-04-06T08:29:34Z</time></trkpt><trkpt lat="44.50174814838837" lon="8.484715113048614"><ele>342.0</ele><time>2026-04-06T08:29:35Z</time></trkpt><trkpt lat="44.501887534651445" lon="8.484661851653472"><ele>342.0</ele><time>2026-04-06T08:29:36Z</time></trkpt><trkpt lat="44.50201002674878" lon="8.484602986917707"><ele>342.0</ele><time>2026-04-06T08:29:37Z</time></trkpt><trkpt lat="44.50212890080438" lon="8.484542417101327"><ele>342.0</ele><time>2026-04-06T08:29:38Z</time></trkpt><trkpt lat="44.50225258272955" lon="8.484480936297228"><ele>342.0</ele><time>2026-04-06T08:29:39Z</time></trkpt><trkpt lat="44.50237821614542" lon="8.484420394968845"><ele>340.5</ele><time>2026-04-06T08:29:40Z</time></trkpt><trkpt lat="44.50250138336569" lon="8.484351977977306"><ele>339.0</ele><time>2026-04-06T08:29:41Z</time></trkpt><trkpt lat="44.50262404117751" lon="8.484290271465497"><ele>337.5</ele><time>2026-04-06T08:29:42Z</time></trkpt><trkpt lat="44.50274718296074" lon="8.484230575538263"><ele>336.0</ele><time>2026-04-06T08:29:43Z</time></trkpt><trkpt lat="44.50286678905932" lon="8.48416694260083"><ele>335.75</ele><time>2026-04-06T08:29:44Z</time></trkpt><trkpt lat="44.502987193926856" lon="8.484105270128541"><ele>335.5</ele><time>2026-04-06T08:29:45Z</time></trkpt><trkpt lat="44.503106575293096" lon="8.484045366792206"><ele>335.25</ele><time>2026-04-06T08:29:46Z</time></trkpt><trkpt lat="44.5032221045807" lon="8.48398330957686"><ele>335.0</ele><time>2026-04-06T08:29:47Z</time></trkpt><trkpt lat="44.50333460304297" lon="8.483916892464798"><ele>335.0</ele><time>2026-04-06T08:29:48Z</time></trkpt><trkpt lat="44.50345119268391" lon="8.48385431469699"><ele>335.0</ele><time>2026-04-06T08:29:49Z</time></trkpt><trkpt lat="44.50357635376026" lon="8.483795799069775"><ele>335.0</ele><time>2026-04-06T08:29:50Z</time></trkpt><trkpt lat="44.50370993898431" lon="8.483733073298815"><ele>335.0</ele><time>2026-04-06T08:29:51Z</time></trkpt><trkpt lat="44.5038523865348" lon="8.483666984441687"><ele>335.33333333333337</ele><time>2026-04-06T08:29:52Z</time></trkpt><trkpt lat="44.50399766610521" lon="8.483600425717677"><ele>335.6666666666667</ele><time>2026-04-06T08:29:53Z</time></trkpt><trkpt lat="44.50414098568332" lon="8.483529671499216"><ele>336.0</ele><time>2026-04-06T08:29:54Z</time></trkpt><trkpt lat="44.504285526861146" lon="8.483457126862877"><ele>336.0</ele><time>2026-04-06T08:29:55Z</time></trkpt><trkpt lat="44.50442062904255" lon="8.483384703343239"><ele>336.0</ele><time>2026-04-06T08:29:56Z</time></trkpt><trkpt lat="44.50455727620454" lon="8.483321105571658"><ele>336.0</ele><time>2026-04-06T08:29:57Z</time></trkpt><trkpt lat="44.50469163126411" lon="8.4832569249721"><ele>336.0</ele><time>2026-04-06T08:29:58Z</time></trkpt><trkpt lat="44.50482747186754" lon="8.483187540097898"><ele>335.75</ele><time>2026-04-06T08:29:59Z</time></trkpt><trkpt lat="44.50496553407397" lon="8.48311649175981"><ele>335.5</ele><time>2026-04-06T08:30:00Z</time></trkpt><trkpt lat="44.5051050012753" lon="8.483046361082017"><ele>335.25</ele><time>2026-04-06T08:30:01Z</time></trkpt><trkpt lat="44.50523937937348" lon="8.48298215555085"><ele>335.0</ele><time>2026-04-06T08:30:02Z</time></trkpt><trkpt lat="44.50536119530423" lon="8.482915986007704"><ele>336.0</ele><time>2026-04-06T08:30:03Z</time></trkpt><trkpt lat="44.50547491025077" lon="8.482850144587651"><ele>337.0</ele><time>2026-04-06T08:30:04Z</time></trkpt><trkpt lat="44.50559720508316" lon="8.482798360826544"><ele>338.0</ele><time>2026-04-06T08:30:05Z</time></trkpt><trkpt lat="44.50573721728082" lon="8.482751770487864"><ele>339.0</ele><time>2026-04-06T08:30:06Z</time></trkpt><trkpt lat="44.50586178085619" lon="8.48277229651794"><ele>339.0</ele><time>2026-04-06T08:30:07Z</time></trkpt><trkpt lat="44.50598783862643" lon="8.482789217684166"><ele>339.0</ele><time>2026-04-06T08:30:08Z</time></trkpt><trkpt lat="44.50611722171735" lon="8.482782088215382"><ele>339.0</ele><time>2026-04-06T08:30:09Z</time></trkpt><trkpt lat="44.50622879120362" lon="8.48273655193574"><ele>339.0</ele><time>2026-04-06T08:30:10Z</time></trkpt><trkpt lat="44.506334751432995" lon="8.482638675863502"><ele>338.5</ele><time>2026-04-06T08:30:11Z</time></trkpt><trkpt lat="44.50641318763944" lon="8.482514703744762"><ele>338.0</ele><time>2026-04-06T08:30:12Z</time></trkpt><trkpt lat="44.50648578608636" lon="8.482376868511652"><ele>337.5</ele><time>2026-04-06T08:30:13Z</time></trkpt><trkpt lat="44.50655391573707" lon="8.48225698619673"><ele>337.0</ele><time>2026-04-06T08:30:14Z</time></trkpt><trkpt lat="44.50664630866638" lon="8.482176474250904"><ele>337.0</ele><time>2026-04-06T08:30:15Z</time></trkpt><trkpt lat="44.506750624181386" lon="8.482157887256403"><ele>337.0</ele><time>2026-04-06T08:30:16Z</time></trkpt><trkpt lat="44.50685916442589" lon="8.482194504491988"><ele>337.0</ele><time>2026-04-06T08:30:17.001Z</time></trkpt><trkpt lat="44.50696814297601" lon="8.482300318827646"><ele>337.0</ele><time>2026-04-06T08:30:18.001Z</time></trkpt><trkpt lat="44.50707986798407" lon="8.482405908732249"><ele>337.75</ele><time>2026-04-06T08:30:19.001Z</time></trkpt><trkpt lat="44.50720215853344" lon="8.482467547073735"><ele>338.5</ele><time>2026-04-06T08:30:20.001Z</time></trkpt><trkpt lat="44.50733893519687" lon="8.482502029735349"><ele>339.25</ele><time>2026-04-06T08:30:21.001Z</time></trkpt><trkpt lat="44.5074753974951" lon="8.482525206295863"><ele>340.0</ele><time>2026-04-06T08:30:22.001Z</time></trkpt><trkpt lat="44.507605558621115" lon="8.482535900153424"><ele>340.0</ele><time>2026-04-06T08:30:23.001Z</time></trkpt><trkpt lat="44.50773027761076" lon="8.482500472647503"><ele>340.0</ele><time>2026-04-06T08:30:24.001Z</time></trkpt><trkpt lat="44.50784161733068" lon="8.482395982876728"><ele>340.0</ele><time>2026-04-06T08:30:25.001Z</time></trkpt><trkpt lat="44.507938769131336" lon="8.48222836649738"><ele>340.0</ele><time>2026-04-06T08:30:26.001Z</time></trkpt><trkpt lat="44.5080182393206" lon="8.482050737287093"><ele>340.25</ele><time>2026-04-06T08:30:27.001Z</time></trkpt><trkpt lat="44.50811040924436" lon="8.48190334741831"><ele>340.5</ele><time>2026-04-06T08:30:28.001Z</time></trkpt><trkpt lat="44.50823550372846" lon="8.481795354519344"><ele>340.75</ele><time>2026-04-06T08:30:29.001Z</time></trkpt><trkpt lat="44.50837228934249" lon="8.481730260365794"><ele>341.0</ele><time>2026-04-06T08:30:30.001Z</time></trkpt><trkpt lat="44.5085033078318" lon="8.481667020632896"><ele>341.0</ele><time>2026-04-06T08:30:31.001Z</time></trkpt><trkpt lat="44.5086168020847" lon="8.481565467344087"><ele>341.0</ele><time>2026-04-06T08:30:32.001Z</time></trkpt><trkpt lat="44.50872073572265" lon="8.481431842702314"><ele>341.0</ele><time>2026-04-06T08:30:33.001Z</time></trkpt><trkpt lat="44.508828484940516" lon="8.481294599528"><ele>341.0</ele><time>2026-04-06T08:30:34.001Z</time></trkpt><trkpt lat="44.50891689121323" lon="8.481139243295237"><ele>339.25</ele><time>2026-04-06T08:30:35.001Z</time></trkpt><trkpt lat="44.50899973542418" lon="8.48098385603472"><ele>337.5</ele><time>2026-04-06T08:30:36.001Z</time></trkpt><trkpt lat="44.509080732234644" lon="8.480819399290603"><ele>335.75</ele><time>2026-04-06T08:30:37.001Z</time></trkpt><trkpt lat="44.50915756810168" lon="8.480651393935258"><ele>334.0</ele><time>2026-04-06T08:30:38.001Z</time></trkpt><trkpt lat="44.50922435681333" lon="8.480467682486223"><ele>336.3333333333333</ele><time>2026-04-06T08:30:39.001Z</time></trkpt><trkpt lat="44.509274939649224" lon="8.480270678741899"><ele>338.6666666666667</ele><time>2026-04-06T08:30:40.001Z</time></trkpt><trkpt lat="44.50931561396534" lon="8.48006526339066"><ele>341.0</ele><time>2026-04-06T08:30:41.001Z</time></trkpt><trkpt lat="44.50934990044354" lon="8.479862797130844"><ele>341.0</ele><time>2026-04-06T08:30:42.001Z</time></trkpt><trkpt lat="44.509385128814166" lon="8.479669918756054"><ele>341.0</ele><time>2026-04-06T08:30:43.001Z</time></trkpt><trkpt lat="44.50942639581457" lon="8.479483608393684"><ele>341.0</ele><time>2026-04-06T08:30:44.001Z</time></trkpt><trkpt lat="44.5094639283413" lon="8.479298055342495"><ele>341.0</ele><time>2026-04-06T08:30:45.001Z</time></trkpt><trkpt lat="44.50950230351312" lon="8.47911705068474"><ele>341.0</ele><time>2026-04-06T08:30:46.001Z</time></trkpt><trkpt lat="44.509535617803664" lon="8.478937011496189"><ele>341.0</ele><time>2026-04-06T08:30:47.001Z</time></trkpt><trkpt lat="44.50957178449221" lon="8.478764779657201"><ele>341.0</ele><time>2026-04-06T08:30:48.001Z</time></trkpt><trkpt lat="44.509613200402725" lon="8.47858507959902"><ele>341.0</ele><time>2026-04-06T08:30:49Z</time></trkpt><trkpt lat="44.509652167037274" lon="8.478393388383585"><ele>335.0</ele><time>2026-04-06T08:30:50Z</time></trkpt><trkpt lat="44.50969499055123" lon="8.478193753859264"><ele>329.0</ele><time>2026-04-06T08:30:51Z</time></trkpt><trkpt lat="44.509741555523156" lon="8.47799395998055"><ele>323.0</ele><time>2026-04-06T08:30:52Z</time></trkpt><trkpt lat="44.50978964100305" lon="8.47779324255992"><ele>322.6666666666667</ele><time>2026-04-06T08:30:53Z</time></trkpt><trkpt lat="44.50983829844046" lon="8.477598074233255"><ele>322.3333333333333</ele><time>2026-04-06T08:30:54Z</time></trkpt><trkpt lat="44.50988708753449" lon="8.477397968058728"><ele>322.0</ele><time>2026-04-06T08:30:55Z</time></trkpt><trkpt lat="44.50993566786055" lon="8.477195814718035"><ele>322.3333333333333</ele><time>2026-04-06T08:30:56Z</time></trkpt><trkpt lat="44.50998572460546" lon="8.47699594022515"><ele>322.6666666666667</ele><time>2026-04-06T08:30:57Z</time></trkpt><trkpt lat="44.51003796940236" lon="8.476790204214167"><ele>323.0</ele><time>2026-04-06T08:30:58Z</time></trkpt><trkpt lat="44.510090551517955" lon="8.476574706817699"><ele>323.0</ele><time>2026-04-06T08:30:59Z</time></trkpt><trkpt lat="44.51014961566942" lon="8.476333368176704"><ele>323.0</ele><time>2026-04-06T08:31:00Z</time></trkpt><trkpt lat="44.510216908872344" lon="8.476046052502923"><ele>323.0</ele><time>2026-04-06T08:31:01Z</time></trkpt><trkpt lat="44.51028317585947" lon="8.475762423949535"><ele>323.33333333333337</ele><time>2026-04-06T08:31:02Z</time></trkpt><trkpt lat="44.51035312140876" lon="8.475515374385456"><ele>323.6666666666667</ele><time>2026-04-06T08:31:03Z</time></trkpt><trkpt lat="44.51043144691032" lon="8.475288512344855"><ele>324.0</ele><time>2026-04-06T08:31:04Z</time></trkpt><trkpt lat="44.510522946665525" lon="8.475091380492103"><ele>324.0</ele><time>2026-04-06T08:31:05Z</time></trkpt><trkpt lat="44.510618469970204" lon="8.474908453728013"><ele>324.0</ele><time>2026-04-06T08:31:06Z</time></trkpt><trkpt lat="44.51073126013156" lon="8.474740078413085"><ele>324.0</ele><time>2026-04-06T08:31:07Z</time></trkpt><trkpt lat="44.51085462686105" lon="8.474582089733108"><ele>324.0</ele><time>2026-04-06T08:31:08Z</time></trkpt><trkpt lat="44.51098626976533" lon="8.474447931085084"><ele>324.0</ele><time>2026-04-06T08:31:09Z</time></trkpt><trkpt lat="44.51112336125297" lon="8.47432501870265"><ele>324.0</ele><time>2026-04-06T08:31:10Z</time></trkpt><trkpt lat="44.51126307367748" lon="8.474215062134645"><ele>323.3333333333333</ele><time>2026-04-06T08:31:11Z</time></trkpt><trkpt lat="44.51140628004776" lon="8.474124500016273"><ele>322.66666666666663</ele><time>2026-04-06T08:31:12Z</time></trkpt><trkpt lat="44.51155298525181" lon="8.474057239823482"><ele>322.0</ele><time>2026-04-06T08:31:13Z</time></trkpt><trkpt lat="44.51170456511786" lon="8.474004371730294"><ele>322.0</ele><time>2026-04-06T08:31:14Z</time></trkpt><trkpt lat="44.51185871245771" lon="8.473954152121454"><ele>322.0</ele><time>2026-04-06T08:31:15Z</time></trkpt><trkpt lat="44.51201233544717" lon="8.473901047131768"><ele>322.0</ele><time>2026-04-06T08:31:16Z</time></trkpt><trkpt lat="44.51216368769845" lon="8.473846099349732"><ele>321.75</ele><time>2026-04-06T08:31:17Z</time></trkpt><trkpt lat="44.51231417469722" lon="8.473793723735554"><ele>321.5</ele><time>2026-04-06T08:31:18Z</time></trkpt><trkpt lat="44.51245841054065" lon="8.473746688948587"><ele>321.25</ele><time>2026-04-06T08:31:19Z</time></trkpt><trkpt lat="44.5125935163805" lon="8.473702344550313"><ele>321.0</ele><time>2026-04-06T08:31:20Z</time></trkpt><trkpt lat="44.51272196970944" lon="8.473656489227524"><ele>321.0</ele><time>2026-04-06T08:31:21Z</time></trkpt><trkpt lat="44.51284290132853" lon="8.47361090239262"><ele>321.0</ele><time>2026-04-06T08:31:22Z</time></trkpt><trkpt lat="44.512962875981835" lon="8.473572551229033"><ele>321.0</ele><time>2026-04-06T08:31:23Z</time></trkpt><trkpt lat="44.513081893650025" lon="8.473536365274423"><ele>321.0</ele><time>2026-04-06T08:31:24Z</time></trkpt><trkpt lat="44.51319663080407" lon="8.473495745844122"><ele>320.25</ele><time>2026-04-06T08:31:25Z</time></trkpt><trkpt lat="44.51331098314064" lon="8.473455081355468"><ele>319.5</ele><time>2026-04-06T08:31:26Z</time></trkpt><trkpt lat="44.51342906768873" lon="8.473418951263625"><ele>318.75</ele><time>2026-04-06T08:31:27Z</time></trkpt><trkpt lat="44.51354899777499" lon="8.473375627123515"><ele>318.0</ele><time>2026-04-06T08:31:28Z</time></trkpt><trkpt lat="44.51367030683878" lon="8.473336507178766"><ele>318.5</ele><time>2026-04-06T08:31:29Z</time></trkpt><trkpt lat="44.51379221545171" lon="8.473296701037489"><ele>319.0</ele><time>2026-04-06T08:31:30Z</time></trkpt><trkpt lat="44.513916216660455" lon="8.473257788013894"><ele>319.5</ele><time>2026-04-06T08:31:31Z</time></trkpt><trkpt lat="44.514039015787134" lon="8.473214366603738"><ele>320.0</ele><time>2026-04-06T08:31:32Z</time></trkpt><trkpt lat="44.51416496898271" lon="8.473170246434256"><ele>320.0</ele><time>2026-04-06T08:31:33Z</time></trkpt><trkpt lat="44.51429336103976" lon="8.473127358189835"><ele>320.0</ele><time>2026-04-06T08:31:34Z</time></trkpt><trkpt lat="44.51442333593588" lon="8.473080586384462"><ele>320.0</ele><time>2026-04-06T08:31:35Z</time></trkpt><trkpt lat="44.514562778096284" lon="8.473031590713312"><ele>320.0</ele><time>2026-04-06T08:31:36Z</time></trkpt><trkpt lat="44.51470968502955" lon="8.472983261621806"><ele>323.6666666666667</ele><time>2026-04-06T08:31:37Z</time></trkpt><trkpt lat="44.514859528534004" lon="8.472932203914093"><ele>327.3333333333333</ele><time>2026-04-06T08:31:38Z</time></trkpt><trkpt lat="44.515022218654266" lon="8.472881017889398"><ele>331.0</ele><time>2026-04-06T08:31:39Z</time></trkpt><trkpt lat="44.51517869238191" lon="8.47282141411294"><ele>331.0</ele><time>2026-04-06T08:31:40Z</time></trkpt><trkpt lat="44.515349996837436" lon="8.472757489672665"><ele>331.0</ele><time>2026-04-06T08:31:41Z</time></trkpt><trkpt lat="44.515522745872836" lon="8.472695111527774"><ele>331.0</ele><time>2026-04-06T08:31:42Z</time></trkpt><trkpt lat="44.515691914400136" lon="8.472653470239496"><ele>329.0</ele><time>2026-04-06T08:31:43Z</time></trkpt><trkpt lat="44.515849748044644" lon="8.472650156391932"><ele>327.0</ele><time>2026-04-06T08:31:44Z</time></trkpt><trkpt lat="44.51601063284455" lon="8.472719723257041"><ele>325.0</ele><time>2026-04-06T08:31:45Z</time></trkpt><trkpt lat="44.51615377923941" lon="8.472862152180436"><ele>325.0</ele><time>2026-04-06T08:31:46Z</time></trkpt><trkpt lat="44.51627281444032" lon="8.47305857422481"><ele>325.0</ele><time>2026-04-06T08:31:47Z</time></trkpt><trkpt lat="44.51636328412343" lon="8.47327812105311"><ele>325.0</ele><time>2026-04-06T08:31:48Z</time></trkpt><trkpt lat="44.51643605227011" lon="8.4734771966065"><ele>325.0</ele><time>2026-04-06T08:31:49Z</time></trkpt><trkpt lat="44.51652817902748" lon="8.473638095119442"><ele>325.0</ele><time>2026-04-06T08:31:50Z</time></trkpt><trkpt lat="44.51665570224549" lon="8.47377090111534"><ele>325.0</ele><time>2026-04-06T08:31:51Z</time></trkpt><trkpt lat="44.51680361400848" lon="8.473866600689258"><ele>323.0</ele><time>2026-04-06T08:31:52Z</time></trkpt><trkpt lat="44.516954086939094" lon="8.473957830604236"><ele>321.0</ele><time>2026-04-06T08:31:53Z</time></trkpt><trkpt lat="44.517098265048396" lon="8.47405914848521"><ele>319.0</ele><time>2026-04-06T08:31:54Z</time></trkpt><trkpt lat="44.51722735827169" lon="8.474158410598044"><ele>319.0</ele><time>2026-04-06T08:31:55Z</time></trkpt><trkpt lat="44.517357034152646" lon="8.474241209751103"><ele>319.0</ele><time>2026-04-06T08:31:56Z</time></trkpt><trkpt lat="44.51750146294391" lon="8.47427068190651"><ele>319.0</ele><time>2026-04-06T08:31:57Z</time></trkpt><trkpt lat="44.51765449289689" lon="8.474233618916648"><ele>319.0</ele><time>2026-04-06T08:31:58Z</time></trkpt><trkpt lat="44.517810661545" lon="8.474150092019084"><ele>319.0</ele><time>2026-04-06T08:31:59Z</time></trkpt><trkpt lat="44.517976965605776" lon="8.474059695908618"><ele>319.0</ele><time>2026-04-06T08:32:00Z</time></trkpt><trkpt lat="44.51815397468563" lon="8.473980770058434"><ele>319.0</ele><time>2026-04-06T08:32:01Z</time></trkpt><trkpt lat="44.51833018839395" lon="8.473901600714697"><ele>319.0</ele><time>2026-04-06T08:32:02Z</time></trkpt><trkpt lat="44.518509188063604" lon="8.473827521959823"><ele>319.0</ele><time>2026-04-06T08:32:03Z</time></trkpt><trkpt lat="44.518688321172256" lon="8.47375762570537"><ele>319.0</ele><time>2026-04-06T08:32:04Z</time></trkpt><trkpt lat="44.51886145180185" lon="8.47369106415293"><ele>319.0</ele><time>2026-04-06T08:32:05Z</time></trkpt><trkpt lat="44.51902542315776" lon="8.47362623706086"><ele>319.0</ele><time>2026-04-06T08:32:06Z</time></trkpt><trkpt lat="44.519180039530745" lon="8.473555606814312"><ele>319.0</ele><time>2026-04-06T08:32:07Z</time></trkpt><trkpt lat="44.51931853227519" lon="8.47343534511713"><ele>319.0</ele><time>2026-04-06T08:32:08Z</time></trkpt><trkpt lat="44.51943014367726" lon="8.473275621131629"><ele>319.0</ele><time>2026-04-06T08:32:09Z</time></trkpt><trkpt lat="44.51949418745315" lon="8.47306984951301"><ele>319.0</ele><time>2026-04-06T08:32:10Z</time></trkpt><trkpt lat="44.51952678554789" lon="8.472853332402254"><ele>322.0</ele><time>2026-04-06T08:32:11Z</time></trkpt><trkpt lat="44.519522303537414" lon="8.47264351841416"><ele>325.0</ele><time>2026-04-06T08:32:12Z</time></trkpt><trkpt lat="44.51949212872588" lon="8.472439958874016"><ele>328.0</ele><time>2026-04-06T08:32:13Z</time></trkpt><trkpt lat="44.5194737181195" lon="8.472235778143183"><ele>331.0</ele><time>2026-04-06T08:32:14Z</time></trkpt><trkpt lat="44.51949172480888" lon="8.472026786418272"><ele>334.3333333333333</ele><time>2026-04-06T08:32:15Z</time></trkpt><trkpt lat="44.51954969992753" lon="8.471832589296975"><ele>337.6666666666667</ele><time>2026-04-06T08:32:16Z</time></trkpt><trkpt lat="44.5196460948348" lon="8.471665817106858"><ele>341.0</ele><time>2026-04-06T08:32:17Z</time></trkpt><trkpt lat="44.51977405921446" lon="8.47155331517553"><ele>331.0</ele><time>2026-04-06T08:32:18Z</time></trkpt><trkpt lat="44.51991778521776" lon="8.471475502081537"><ele>321.0</ele><time>2026-04-06T08:32:19Z</time></trkpt><trkpt lat="44.520056609136596" lon="8.471391785113692"><ele>311.0</ele><time>2026-04-06T08:32:20Z</time></trkpt><trkpt lat="44.520199692375236" lon="8.471307670561192"><ele>311.0</ele><time>2026-04-06T08:32:21Z</time></trkpt><trkpt lat="44.520336606979065" lon="8.471232647626126"><ele>311.0</ele><time>2026-04-06T08:32:22Z</time></trkpt><trkpt lat="44.52046091897362" lon="8.471131154742894"><ele>311.0</ele><time>2026-04-06T08:32:23.001Z</time></trkpt><trkpt lat="44.520581595862865" lon="8.471006306606672"><ele>311.0</ele><time>2026-04-06T08:32:24.001Z</time></trkpt><trkpt lat="44.52069550845292" lon="8.470874057492736"><ele>307.33333333333337</ele><time>2026-04-06T08:32:25.001Z</time></trkpt><trkpt lat="44.52081435539162" lon="8.470735072919313"><ele>303.6666666666667</ele><time>2026-04-06T08:32:26.001Z</time></trkpt><trkpt lat="44.52093731111668" lon="8.470607331115644"><ele>300.0</ele><time>2026-04-06T08:32:27.001Z</time></trkpt><trkpt lat="44.52106468970609" lon="8.470475957681414"><ele>298.0</ele><time>2026-04-06T08:32:28.001Z</time></trkpt><trkpt lat="44.52119047676365" lon="8.470345186297392"><ele>296.0</ele><time>2026-04-06T08:32:29Z</time></trkpt><trkpt lat="44.52131408268615" lon="8.470219524207712"><ele>294.0</ele><time>2026-04-06T08:32:30Z</time></trkpt><trkpt lat="44.52143047248431" lon="8.470090883222522"><ele>293.75</ele><time>2026-04-06T08:32:31Z</time></trkpt><trkpt lat="44.52153180001089" lon="8.469957638216458"><ele>293.5</ele><time>2026-04-06T08:32:32Z</time></trkpt><trkpt lat="44.521617564362586" lon="8.469828019058891"><ele>293.25</ele><time>2026-04-06T08:32:33Z</time></trkpt><trkpt lat="44.521691080104176" lon="8.46970820298025"><ele>293.0</ele><time>2026-04-06T08:32:34Z</time></trkpt><trkpt lat="44.52175703474181" lon="8.469595099690158"><ele>293.0</ele><time>2026-04-06T08:32:35Z</time></trkpt><trkpt lat="44.52181983544184" lon="8.46949353130754"><ele>293.0</ele><time>2026-04-06T08:32:36Z</time></trkpt><trkpt lat="44.52187765628036" lon="8.469402518059654"><ele>293.0</ele><time>2026-04-06T08:32:37Z</time></trkpt><trkpt lat="44.521922444645995" lon="8.469327364417397"><ele>293.0</ele><time>2026-04-06T08:32:38Z</time></trkpt><trkpt lat="44.521989324198636" lon="8.469221681523617"><ele>293.0</ele><time>2026-04-06T08:32:40Z</time></trkpt><trkpt lat="44.52202675357209" lon="8.469122013466807"><ele>293.0</ele><time>2026-04-06T08:32:42Z</time></trkpt><trkpt lat="44.5219750968896" lon="8.46893643395074"><ele>293.0</ele><time>2026-04-06T08:32:44Z</time></trkpt><trkpt lat="44.52193864832054" lon="8.468824914179201"><ele>293.0</ele><time>2026-04-06T08:32:45Z</time></trkpt><trkpt lat="44.52194431984412" lon="8.468684802163684"><ele>293.0</ele><time>2026-04-06T08:32:46Z</time></trkpt><trkpt lat="44.52195524920489" lon="8.46852960970051"><ele>293.0</ele><time>2026-04-06T08:32:47Z</time></trkpt><trkpt lat="44.52194322995754" lon="8.468377438829476"><ele>293.0</ele><time>2026-04-06T08:32:48Z</time></trkpt><trkpt lat="44.521893443639364" lon="8.46823088162707"><ele>294.75</ele><time>2026-04-06T08:32:49Z</time></trkpt><trkpt lat="44.521823265896714" lon="8.46808174938117"><ele>296.5</ele><time>2026-04-06T08:32:50Z</time></trkpt><trkpt lat="44.52174621387344" lon="8.46795392441257"><ele>298.25</ele><time>2026-04-06T08:32:51Z</time></trkpt><trkpt lat="44.52166414625075" lon="8.467834633293371"><ele>300.0</ele><time>2026-04-06T08:32:52Z</time></trkpt><trkpt lat="44.52158417654095" lon="8.467698997230874"><ele>301.25</ele><time>2026-04-06T08:32:53Z</time></trkpt><trkpt lat="44.52152532184091" lon="8.467532174423548"><ele>302.5</ele><time>2026-04-06T08:32:54Z</time></trkpt><trkpt lat="44.52149191541295" lon="8.467363272540247"><ele>303.75</ele><time>2026-04-06T08:32:55Z</time></trkpt><trkpt lat="44.5214950799384" lon="8.467194663481019"><ele>305.0</ele><time>2026-04-06T08:32:56Z</time></trkpt><trkpt lat="44.52154880258268" lon="8.46703320220408"><ele>305.0</ele><time>2026-04-06T08:32:57Z</time></trkpt><trkpt lat="44.521596909379966" lon="8.466879529377897"><ele>305.0</ele><time>2026-04-06T08:32:58Z</time></trkpt><trkpt lat="44.52159119747823" lon="8.466720356278513"><ele>305.0</ele><time>2026-04-06T08:32:59Z</time></trkpt><trkpt lat="44.52151891062371" lon="8.466587828224984"><ele>305.0</ele><time>2026-04-06T08:33:00Z</time></trkpt><trkpt lat="44.52140207937657" lon="8.46647635424086"><ele>305.0</ele><time>2026-04-06T08:33:01Z</time></trkpt><trkpt lat="44.52126928321595" lon="8.466363897139594"><ele>305.0</ele><time>2026-04-06T08:33:02Z</time></trkpt><trkpt lat="44.52113352907382" lon="8.46624623010802"><ele>305.0</ele><time>2026-04-06T08:33:03Z</time></trkpt><trkpt lat="44.52099237008743" lon="8.466137558519064"><ele>303.0</ele><time>2026-04-06T08:33:04Z</time></trkpt><trkpt lat="44.52085224037423" lon="8.46604873828145"><ele>301.0</ele><time>2026-04-06T08:33:05Z</time></trkpt><trkpt lat="44.52071435527558" lon="8.465973234646327"><ele>299.0</ele><time>2026-04-06T08:33:06Z</time></trkpt><trkpt lat="44.5205883162228" lon="8.465888240941936"><ele>297.0</ele><time>2026-04-06T08:33:07Z</time></trkpt><trkpt lat="44.52046872823979" lon="8.465792860168673"><ele>296.5</ele><time>2026-04-06T08:33:08Z</time></trkpt><trkpt lat="44.52035500287825" lon="8.465699361631435"><ele>296.0</ele><time>2026-04-06T08:33:09Z</time></trkpt><trkpt lat="44.52025100151805" lon="8.465591925312799"><ele>295.5</ele><time>2026-04-06T08:33:10Z</time></trkpt><trkpt lat="44.52016831025173" lon="8.465450297945841"><ele>295.0</ele><time>2026-04-06T08:33:11Z</time></trkpt><trkpt lat="44.52010652332591" lon="8.465269349412118"><ele>297.0</ele><time>2026-04-06T08:33:12Z</time></trkpt><trkpt lat="44.520049614442684" lon="8.465078341689301"><ele>299.0</ele><time>2026-04-06T08:33:13Z</time></trkpt><trkpt lat="44.51998800234678" lon="8.464882374886091"><ele>301.0</ele><time>2026-04-06T08:33:14Z</time></trkpt><trkpt lat="44.5199182522584" lon="8.464684911197258"><ele>304.0</ele><time>2026-04-06T08:33:15Z</time></trkpt><trkpt lat="44.51985630591204" lon="8.464482908694878"><ele>307.0</ele><time>2026-04-06T08:33:16Z</time></trkpt><trkpt lat="44.519791687129214" lon="8.464283548620529"><ele>310.0</ele><time>2026-04-06T08:33:17Z</time></trkpt><trkpt lat="44.519723777184865" lon="8.464086481540425"><ele>310.0</ele><time>2026-04-06T08:33:18Z</time></trkpt><trkpt lat="44.519655960231816" lon="8.463879908235688"><ele>310.0</ele><time>2026-04-06T08:33:19Z</time></trkpt><trkpt lat="44.5195873119444" lon="8.463671241634703"><ele>310.0</ele><time>2026-04-06T08:33:20Z</time></trkpt><trkpt lat="44.51951262055286" lon="8.463456522265485"><ele>306.3333333333333</ele><time>2026-04-06T08:33:21Z</time></trkpt><trkpt lat="44.519435455565656" lon="8.463227265782558"><ele>302.6666666666667</ele><time>2026-04-06T08:33:22Z</time></trkpt><trkpt lat="44.51936122758165" lon="8.463011436324221"><ele>299.0</ele><time>2026-04-06T08:33:23Z</time></trkpt><trkpt lat="44.51929224487934" lon="8.462809561531902"><ele>299.0</ele><time>2026-04-06T08:33:24Z</time></trkpt><trkpt lat="44.51922833093696" lon="8.46261936907905"><ele>299.0</ele><time>2026-04-06T08:33:25Z</time></trkpt><trkpt lat="44.51916492916618" lon="8.462427382587089"><ele>299.0</ele><time>2026-04-06T08:33:26Z</time></trkpt><trkpt lat="44.51910085851382" lon="8.462238565154513"><ele>299.75</ele><time>2026-04-06T08:33:27Z</time></trkpt><trkpt lat="44.519037025240316" lon="8.462050723377297"><ele>300.5</ele><time>2026-04-06T08:33:28Z</time></trkpt><trkpt lat="44.51896724652618" lon="8.461867944551706"><ele>301.25</ele><time>2026-04-06T08:33:29Z</time></trkpt><trkpt lat="44.518886214246265" lon="8.461693704559712"><ele>302.0</ele><time>2026-04-06T08:33:30Z</time></trkpt><trkpt lat="44.51879800479405" lon="8.461520811743512"><ele>301.0</ele><time>2026-04-06T08:33:31Z</time></trkpt><trkpt lat="44.51871170149986" lon="8.461346527132621"><ele>300.0</ele><time>2026-04-06T08:33:32Z</time></trkpt><trkpt lat="44.518628042416225" lon="8.461160948149844"><ele>299.0</ele><time>2026-04-06T08:33:33Z</time></trkpt><trkpt lat="44.518545099259526" lon="8.460972839465457"><ele>299.0</ele><time>2026-04-06T08:33:34Z</time></trkpt><trkpt lat="44.51845682662305" lon="8.46078982894743"><ele>299.0</ele><time>2026-04-06T08:33:35Z</time></trkpt><trkpt lat="44.51836834511769" lon="8.46060992318946"><ele>299.0</ele><time>2026-04-06T08:33:36Z</time></trkpt><trkpt lat="44.518283412505035" lon="8.46042528994218"><ele>299.33333333333337</ele><time>2026-04-06T08:33:37Z</time></trkpt><trkpt lat="44.51818717646588" lon="8.460248520986895"><ele>299.6666666666667</ele><time>2026-04-06T08:33:38Z</time></trkpt><trkpt lat="44.518093839887484" lon="8.460073473482518"><ele>300.0</ele><time>2026-04-06T08:33:39Z</time></trkpt><trkpt lat="44.51800184724552" lon="8.459893984731394"><ele>299.3333333333333</ele><time>2026-04-06T08:33:40Z</time></trkpt><trkpt lat="44.517901483448554" lon="8.459713986556482"><ele>298.66666666666663</ele><time>2026-04-06T08:33:41Z</time></trkpt><trkpt lat="44.51779577621672" lon="8.459530257655864"><ele>298.0</ele><time>2026-04-06T08:33:42Z</time></trkpt><trkpt lat="44.51768775392179" lon="8.459343874436296"><ele>298.0</ele><time>2026-04-06T08:33:43Z</time></trkpt><trkpt lat="44.51758641069371" lon="8.459158599222217"><ele>298.0</ele><time>2026-04-06T08:33:44Z</time></trkpt><trkpt lat="44.51749622197658" lon="8.458976284512886"><ele>298.0</ele><time>2026-04-06T08:33:45Z</time></trkpt><trkpt lat="44.517410883849415" lon="8.458789336344042"><ele>300.3333333333333</ele><time>2026-04-06T08:33:46Z</time></trkpt><trkpt lat="44.51732195593115" lon="8.45860475944746"><ele>302.6666666666667</ele><time>2026-04-06T08:33:47Z</time></trkpt><trkpt lat="44.51723442676577" lon="8.458423464236866"><ele>305.0</ele><time>2026-04-06T08:33:48Z</time></trkpt><trkpt lat="44.51714950722203" lon="8.45826700094547"><ele>303.5</ele><time>2026-04-06T08:33:49Z</time></trkpt><trkpt lat="44.51704121204787" lon="8.458173711642583"><ele>302.0</ele><time>2026-04-06T08:33:50Z</time></trkpt><trkpt lat="44.51691382837165" lon="8.458146048069356"><ele>300.5</ele><time>2026-04-06T08:33:51Z</time></trkpt><trkpt lat="44.516779698460496" lon="8.458144265546176"><ele>299.0</ele><time>2026-04-06T08:33:52Z</time></trkpt><trkpt lat="44.51665107332614" lon="8.458119550260902"><ele>299.0</ele><time>2026-04-06T08:33:53Z</time></trkpt><trkpt lat="44.51653959309696" lon="8.458058861634802"><ele>299.0</ele><time>2026-04-06T08:33:54Z</time></trkpt><trkpt lat="44.51644624954999" lon="8.457958647205137"><ele>299.0</ele><time>2026-04-06T08:33:55Z</time></trkpt><trkpt lat="44.51636409193098" lon="8.45780722339276"><ele>299.0</ele><time>2026-04-06T08:33:56Z</time></trkpt><trkpt lat="44.5162991099283" lon="8.457644445638012"><ele>302.0</ele><time>2026-04-06T08:33:57Z</time></trkpt><trkpt lat="44.516266037676985" lon="8.45747900624077"><ele>305.0</ele><time>2026-04-06T08:33:58Z</time></trkpt><trkpt lat="44.516266190542645" lon="8.457289542868267"><ele>308.0</ele><time>2026-04-06T08:33:59Z</time></trkpt><trkpt lat="44.516294561785855" lon="8.457088520014263"><ele>311.0</ele><time>2026-04-06T08:34:00Z</time></trkpt><trkpt lat="44.516308553873564" lon="8.456872271256634"><ele>310.5</ele><time>2026-04-06T08:34:01Z</time></trkpt><trkpt lat="44.516278059444645" lon="8.456666895835626"><ele>310.0</ele><time>2026-04-06T08:34:02Z</time></trkpt><trkpt lat="44.516233995781896" lon="8.45646878118839"><ele>309.5</ele><time>2026-04-06T08:34:03Z</time></trkpt><trkpt lat="44.51618339953785" lon="8.456271495888297"><ele>309.0</ele><time>2026-04-06T08:34:04Z</time></trkpt><trkpt lat="44.51612252386379" lon="8.45608312676454"><ele>309.0</ele><time>2026-04-06T08:34:05Z</time></trkpt><trkpt lat="44.516047235730426" lon="8.45590221971426"><ele>309.0</ele><time>2026-04-06T08:34:06Z</time></trkpt><trkpt lat="44.515952231897224" lon="8.455732190359596"><ele>309.0</ele><time>2026-04-06T08:34:07Z</time></trkpt><trkpt lat="44.51583946338767" lon="8.455581703996288"><ele>311.6666666666667</ele><time>2026-04-06T08:34:08Z</time></trkpt><trkpt lat="44.51572063322107" lon="8.455434982050754"><ele>314.33333333333337</ele><time>2026-04-06T08:34:09Z</time></trkpt><trkpt lat="44.5155911021522" lon="8.455300164807703"><ele>317.0</ele><time>2026-04-06T08:34:10Z</time></trkpt><trkpt lat="44.51545104373389" lon="8.45517702102817"><ele>314.0</ele><time>2026-04-06T08:34:11Z</time></trkpt><trkpt lat="44.51530340589922" lon="8.455073571477696"><ele>311.0</ele><time>2026-04-06T08:34:12Z</time></trkpt><trkpt lat="44.51515062238624" lon="8.454983251297735"><ele>308.0</ele><time>2026-04-06T08:34:13Z</time></trkpt><trkpt lat="44.51500859355929" lon="8.45489812828557"><ele>308.0</ele><time>2026-04-06T08:34:14Z</time></trkpt><trkpt lat="44.514871578446545" lon="8.454812769510477"><ele>308.0</ele><time>2026-04-06T08:34:15Z</time></trkpt><trkpt lat="44.51474442821788" lon="8.454723006036764"><ele>308.0</ele><time>2026-04-06T08:34:16Z</time></trkpt><trkpt lat="44.51461211096439" lon="8.454618939714532"><ele>308.0</ele><time>2026-04-06T08:34:17Z</time></trkpt><trkpt lat="44.514491340550975" lon="8.454497090422961"><ele>310.0</ele><time>2026-04-06T08:34:18Z</time></trkpt><trkpt lat="44.51438314344104" lon="8.45435428406669"><ele>312.0</ele><time>2026-04-06T08:34:19Z</time></trkpt><trkpt lat="44.5142672275095" lon="8.454205515679533"><ele>314.0</ele><time>2026-04-06T08:34:20Z</time></trkpt><trkpt lat="44.5141351957913" lon="8.454091041537326"><ele>314.0</ele><time>2026-04-06T08:34:21Z</time></trkpt><trkpt lat="44.513985789205506" lon="8.454059409326772"><ele>314.0</ele><time>2026-04-06T08:34:22Z</time></trkpt><trkpt lat="44.513828099905204" lon="8.454075029011461"><ele>314.0</ele><time>2026-04-06T08:34:23Z</time></trkpt><trkpt lat="44.513661864127386" lon="8.454107141209949"><ele>312.75</ele><time>2026-04-06T08:34:24Z</time></trkpt><trkpt lat="44.513504415855664" lon="8.454134337394384"><ele>311.5</ele><time>2026-04-06T08:34:25Z</time></trkpt><trkpt lat="44.51336630847589" lon="8.454173955938316"><ele>310.25</ele><time>2026-04-06T08:34:26Z</time></trkpt><trkpt lat="44.51323411836579" lon="8.45420266281264"><ele>309.0</ele><time>2026-04-06T08:34:27Z</time></trkpt><trkpt lat="44.513104165506384" lon="8.454222687263963"><ele>309.0</ele><time>2026-04-06T08:34:28Z</time></trkpt><trkpt lat="44.512973652886615" lon="8.454218227479124"><ele>309.0</ele><time>2026-04-06T08:34:29Z</time></trkpt><trkpt lat="44.51285787509506" lon="8.454176148000117"><ele>309.0</ele><time>2026-04-06T08:34:30Z</time></trkpt><trkpt lat="44.51274747784666" lon="8.454088824803224"><ele>309.0</ele><time>2026-04-06T08:34:31Z</time></trkpt><trkpt lat="44.51263889648354" lon="8.453971446278807"><ele>308.25</ele><time>2026-04-06T08:34:32Z</time></trkpt><trkpt lat="44.51255561966061" lon="8.45383051467711"><ele>307.5</ele><time>2026-04-06T08:34:33Z</time></trkpt><trkpt lat="44.51247725249299" lon="8.453676940660802"><ele>306.75</ele><time>2026-04-06T08:34:34Z</time></trkpt><trkpt lat="44.51245406762687" lon="8.453510238824718"><ele>306.0</ele><time>2026-04-06T08:34:35Z</time></trkpt><trkpt lat="44.51249562135352" lon="8.453356120578608"><ele>306.25</ele><time>2026-04-06T08:34:36Z</time></trkpt><trkpt lat="44.51257826202533" lon="8.453197559370873"><ele>306.5</ele><time>2026-04-06T08:34:37Z</time></trkpt><trkpt lat="44.51267863330202" lon="8.453035059656866"><ele>306.75</ele><time>2026-04-06T08:34:38Z</time></trkpt><trkpt lat="44.512788870117646" lon="8.452886339632126"><ele>307.0</ele><time>2026-04-06T08:34:39Z</time></trkpt><trkpt lat="44.51290419392333" lon="8.452766468772452"><ele>310.25</ele><time>2026-04-06T08:34:40Z</time></trkpt><trkpt lat="44.51301423084358" lon="8.452670133238936"><ele>313.5</ele><time>2026-04-06T08:34:41Z</time></trkpt><trkpt lat="44.51311374113636" lon="8.452573950665585"><ele>316.75</ele><time>2026-04-06T08:34:42Z</time></trkpt><trkpt lat="44.51320279153842" lon="8.452457251259837"><ele>320.0</ele><time>2026-04-06T08:34:43Z</time></trkpt><trkpt lat="44.51327864801115" lon="8.452310079052094"><ele>320.0</ele><time>2026-04-06T08:34:44Z</time></trkpt><trkpt lat="44.51333532922783" lon="8.45214374936193"><ele>320.0</ele><time>2026-04-06T08:34:45Z</time></trkpt><trkpt lat="44.51337621902335" lon="8.451964974528021"><ele>320.0</ele><time>2026-04-06T08:34:46Z</time></trkpt><trkpt lat="44.51340232791488" lon="8.451808476429614"><ele>320.0</ele><time>2026-04-06T08:34:47Z</time></trkpt><trkpt lat="44.51342717053519" lon="8.451651788084588"><ele>320.0</ele><time>2026-04-06T08:34:48Z</time></trkpt><trkpt lat="44.51345044204098" lon="8.451500902312269"><ele>320.0</ele><time>2026-04-06T08:34:49Z</time></trkpt><trkpt lat="44.513476042315276" lon="8.451349331887682"><ele>320.0</ele><time>2026-04-06T08:34:50Z</time></trkpt><trkpt lat="44.513505221581006" lon="8.45120245959761"><ele>320.0</ele><time>2026-04-06T08:34:51Z</time></trkpt><trkpt lat="44.5135358206638" lon="8.451070904581636"><ele>320.0</ele><time>2026-04-06T08:34:52Z</time></trkpt><trkpt lat="44.513555099423996" lon="8.450935107682662"><ele>320.75</ele><time>2026-04-06T08:34:53Z</time></trkpt><trkpt lat="44.513591477683796" lon="8.450805052363116"><ele>321.5</ele><time>2026-04-06T08:34:54Z</time></trkpt><trkpt lat="44.513632920970764" lon="8.450646981471833"><ele>322.25</ele><time>2026-04-06T08:34:55Z</time></trkpt><trkpt lat="44.513688610157104" lon="8.450484800553019"><ele>323.0</ele><time>2026-04-06T08:34:56Z</time></trkpt><trkpt lat="44.51375488467041" lon="8.450329622219249"><ele>323.0</ele><time>2026-04-06T08:34:57Z</time></trkpt><trkpt lat="44.51381828490537" lon="8.45017492457695"><ele>323.0</ele><time>2026-04-06T08:34:58Z</time></trkpt><trkpt lat="44.51387849049294" lon="8.450017247388159"><ele>323.0</ele><time>2026-04-06T08:34:59Z</time></trkpt><trkpt lat="44.51394226476001" lon="8.449855709416903"><ele>323.0</ele><time>2026-04-06T08:35:00Z</time></trkpt><trkpt lat="44.51399953255567" lon="8.449694978543098"><ele>322.25</ele><time>2026-04-06T08:35:01Z</time></trkpt><trkpt lat="44.51403268980765" lon="8.449522516580984"><ele>321.5</ele><time>2026-04-06T08:35:02Z</time></trkpt><trkpt lat="44.51402030659689" lon="8.449329753549865"><ele>320.75</ele><time>2026-04-06T08:35:03Z</time></trkpt><trkpt lat="44.513967090470906" lon="8.449131958213936"><ele>320.0</ele><time>2026-04-06T08:35:04Z</time></trkpt><trkpt lat="44.51390738209437" lon="8.44893002873682"><ele>320.5</ele><time>2026-04-06T08:35:05Z</time></trkpt><trkpt lat="44.51385179871341" lon="8.448743793741242"><ele>321.0</ele><time>2026-04-06T08:35:06Z</time></trkpt><trkpt lat="44.51380271015131" lon="8.44855894367359"><ele>321.5</ele><time>2026-04-06T08:35:07Z</time></trkpt><trkpt lat="44.51375237003758" lon="8.44837790110866"><ele>322.0</ele><time>2026-04-06T08:35:08Z</time></trkpt><trkpt lat="44.5137019337909" lon="8.448205403482168"><ele>320.0</ele><time>2026-04-06T08:35:09Z</time></trkpt><trkpt lat="44.51365405057275" lon="8.448033651762913"><ele>318.0</ele><time>2026-04-06T08:35:10Z</time></trkpt><trkpt lat="44.51361525700749" lon="8.447858800243154"><ele>316.0</ele><time>2026-04-06T08:35:11Z</time></trkpt><trkpt lat="44.5135777758228" lon="8.44768751906341"><ele>314.0</ele><time>2026-04-06T08:35:12Z</time></trkpt><trkpt lat="44.51354348232399" lon="8.447519144404515"><ele>314.0</ele><time>2026-04-06T08:35:13Z</time></trkpt><trkpt lat="44.51351309975115" lon="8.44736671886684"><ele>314.0</ele><time>2026-04-06T08:35:14Z</time></trkpt><trkpt lat="44.51348243563081" lon="8.44723835172595"><ele>314.0</ele><time>2026-04-06T08:35:15Z</time></trkpt><trkpt lat="44.51344862926455" lon="8.447107072554532"><ele>314.0</ele><time>2026-04-06T08:35:16Z</time></trkpt><trkpt lat="44.51342280422313" lon="8.446952892127072"><ele>314.0</ele><time>2026-04-06T08:35:17Z</time></trkpt><trkpt lat="44.5133869018263" lon="8.446793168517909"><ele>314.25</ele><time>2026-04-06T08:35:18Z</time></trkpt><trkpt lat="44.51334392346747" lon="8.446624809978506"><ele>314.5</ele><time>2026-04-06T08:35:19Z</time></trkpt><trkpt lat="44.51330196481205" lon="8.446446484812796"><ele>314.75</ele><time>2026-04-06T08:35:20Z</time></trkpt><trkpt lat="44.51326580313044" lon="8.446266761291605"><ele>315.0</ele><time>2026-04-06T08:35:21Z</time></trkpt><trkpt lat="44.513235781523335" lon="8.44608981467701"><ele>315.5</ele><time>2026-04-06T08:35:22Z</time></trkpt><trkpt lat="44.51321216894637" lon="8.445914912163076"><ele>316.0</ele><time>2026-04-06T08:35:23Z</time></trkpt><trkpt lat="44.51319095227858" lon="8.445736412470104"><ele>316.5</ele><time>2026-04-06T08:35:24Z</time></trkpt><trkpt lat="44.513175273868505" lon="8.445556752751548"><ele>317.0</ele><time>2026-04-06T08:35:25Z</time></trkpt><trkpt lat="44.513153176981305" lon="8.445371645946755"><ele>318.0</ele><time>2026-04-06T08:35:26Z</time></trkpt><trkpt lat="44.513120059679856" lon="8.445188080370947"><ele>319.0</ele><time>2026-04-06T08:35:27Z</time></trkpt><trkpt lat="44.513078051963696" lon="8.445007067692822"><ele>320.0</ele><time>2026-04-06T08:35:28Z</time></trkpt><trkpt lat="44.513023749650266" lon="8.444820631328295"><ele>321.0</ele><time>2026-04-06T08:35:29Z</time></trkpt><trkpt lat="44.51296334611004" lon="8.444644667383722"><ele>319.75</ele><time>2026-04-06T08:35:30Z</time></trkpt><trkpt lat="44.51291344280962" lon="8.444487348828625"><ele>318.5</ele><time>2026-04-06T08:35:31Z</time></trkpt><trkpt lat="44.512860564124345" lon="8.444342693144126"><ele>317.25</ele><time>2026-04-06T08:35:32Z</time></trkpt><trkpt lat="44.512795155692025" lon="8.444201139708213"><ele>316.0</ele><time>2026-04-06T08:35:33Z</time></trkpt><trkpt lat="44.51269296116024" lon="8.444092243376593"><ele>316.0</ele><time>2026-04-06T08:35:34Z</time></trkpt><trkpt lat="44.51255571350567" lon="8.444024169241175"><ele>316.0</ele><time>2026-04-06T08:35:35Z</time></trkpt><trkpt lat="44.51240656564448" lon="8.443992991741492"><ele>316.0</ele><time>2026-04-06T08:35:36Z</time></trkpt><trkpt lat="44.512277573059116" lon="8.443988366275779"><ele>316.0</ele><time>2026-04-06T08:35:37Z</time></trkpt><trkpt lat="44.51215002198941" lon="8.44401039612835"><ele>315.75</ele><time>2026-04-06T08:35:38Z</time></trkpt><trkpt lat="44.512024362692834" lon="8.444047085131555"><ele>315.5</ele><time>2026-04-06T08:35:39Z</time></trkpt><trkpt lat="44.51189929309526" lon="8.444064777506613"><ele>315.25</ele><time>2026-04-06T08:35:40Z</time></trkpt><trkpt lat="44.51177789187145" lon="8.444029179450597"><ele>315.0</ele><time>2026-04-06T08:35:41Z</time></trkpt><trkpt lat="44.511665343105335" lon="8.44394807684111"><ele>315.0</ele><time>2026-04-06T08:35:42Z</time></trkpt><trkpt lat="44.51155703427582" lon="8.443842414197421"><ele>315.0</ele><time>2026-04-06T08:35:43Z</time></trkpt><trkpt lat="44.511453916527124" lon="8.443725484646972"><ele>315.0</ele><time>2026-04-06T08:35:44Z</time></trkpt><trkpt lat="44.51135995961655" lon="8.443590131540603"><ele>315.0</ele><time>2026-04-06T08:35:45Z</time></trkpt><trkpt lat="44.511288552943135" lon="8.443430018917061"><ele>314.75</ele><time>2026-04-06T08:35:46Z</time></trkpt><trkpt lat="44.51123017035798" lon="8.44325264556871"><ele>314.5</ele><time>2026-04-06T08:35:47Z</time></trkpt><trkpt lat="44.51117402379937" lon="8.443071890332654"><ele>314.25</ele><time>2026-04-06T08:35:48Z</time></trkpt><trkpt lat="44.51111587943336" lon="8.442897456865353"><ele>314.0</ele><time>2026-04-06T08:35:49Z</time></trkpt><trkpt lat="44.51105137160398" lon="8.442717773038405"><ele>315.0</ele><time>2026-04-06T08:35:50Z</time></trkpt><trkpt lat="44.51098290811064" lon="8.442539926047878"><ele>316.0</ele><time>2026-04-06T08:35:51Z</time></trkpt><trkpt lat="44.51090681055385" lon="8.442372190196961"><ele>317.0</ele><time>2026-04-06T08:35:52Z</time></trkpt><trkpt lat="44.510821091289316" lon="8.442218278741844"><ele>318.0</ele><time>2026-04-06T08:35:53Z</time></trkpt><trkpt lat="44.51073147399246" lon="8.442083461373572"><ele>319.0</ele><time>2026-04-06T08:35:54Z</time></trkpt><trkpt lat="44.51065006171103" lon="8.44196651952929"><ele>320.0</ele><time>2026-04-06T08:35:55Z</time></trkpt><trkpt lat="44.510573233373606" lon="8.441849457465322"><ele>321.0</ele><time>2026-04-06T08:35:56Z</time></trkpt><trkpt lat="44.51049671184084" lon="8.441737577968102"><ele>322.0</ele><time>2026-04-06T08:35:57Z</time></trkpt><trkpt lat="44.510417352597024" lon="8.44161846631648"><ele>321.75</ele><time>2026-04-06T08:35:58Z</time></trkpt><trkpt lat="44.51035149455381" lon="8.44148620559794"><ele>321.5</ele><time>2026-04-06T08:35:59Z</time></trkpt><trkpt lat="44.51033235436537" lon="8.441333549741245"><ele>321.25</ele><time>2026-04-06T08:36:00Z</time></trkpt><trkpt lat="44.51036181689486" lon="8.441177514923533"><ele>321.0</ele><time>2026-04-06T08:36:01Z</time></trkpt><trkpt lat="44.51045061594388" lon="8.441030662767314"><ele>321.0</ele><time>2026-04-06T08:36:02Z</time></trkpt><trkpt lat="44.510550837035524" lon="8.4408874483877"><ele>321.0</ele><time>2026-04-06T08:36:03Z</time></trkpt><trkpt lat="44.510648973897375" lon="8.44074793685257"><ele>321.0</ele><time>2026-04-06T08:36:04Z</time></trkpt><trkpt lat="44.510734759668935" lon="8.440607120280214"><ele>321.0</ele><time>2026-04-06T08:36:05Z</time></trkpt><trkpt lat="44.51081234771873" lon="8.440464636683883"><ele>320.25</ele><time>2026-04-06T08:36:06Z</time></trkpt><trkpt lat="44.510882252946026" lon="8.440317113519963"><ele>319.5</ele><time>2026-04-06T08:36:07Z</time></trkpt><trkpt lat="44.51094115065726" lon="8.440166792933718"><ele>318.75</ele><time>2026-04-06T08:36:08Z</time></trkpt><trkpt lat="44.5109963690453" lon="8.440013989829735"><ele>318.0</ele><time>2026-04-06T08:36:09Z</time></trkpt><trkpt lat="44.511042925395685" lon="8.439860978227102"><ele>318.0</ele><time>2026-04-06T08:36:10Z</time></trkpt><trkpt lat="44.51105936079067" lon="8.439693249847869"><ele>318.0</ele><time>2026-04-06T08:36:11Z</time></trkpt><trkpt lat="44.51102039027402" lon="8.439523137742206"><ele>318.0</ele><time>2026-04-06T08:36:12Z</time></trkpt><trkpt lat="44.510928407734085" lon="8.43938209033041"><ele>318.0</ele><time>2026-04-06T08:36:13Z</time></trkpt><trkpt lat="44.51082576421439" lon="8.439253395712875"><ele>318.25</ele><time>2026-04-06T08:36:14Z</time></trkpt><trkpt lat="44.51073207906739" lon="8.439108285680433"><ele>318.5</ele><time>2026-04-06T08:36:15Z</time></trkpt><trkpt lat="44.51066183239793" lon="8.438941029247207"><ele>318.75</ele><time>2026-04-06T08:36:16Z</time></trkpt><trkpt lat="44.5106067329206" lon="8.438758333086474"><ele>319.0</ele><time>2026-04-06T08:36:17Z</time></trkpt><trkpt lat="44.51055823954276" lon="8.438566654854869"><ele>319.0</ele><time>2026-04-06T08:36:18Z</time></trkpt><trkpt lat="44.51049950453542" lon="8.438391712062332"><ele>319.0</ele><time>2026-04-06T08:36:19Z</time></trkpt><trkpt lat="44.51043406911614" lon="8.438216308522767"><ele>319.0</ele><time>2026-04-06T08:36:20Z</time></trkpt><trkpt lat="44.51037450355698" lon="8.438043157180257"><ele>319.0</ele><time>2026-04-06T08:36:21Z</time></trkpt><trkpt lat="44.510317395664636" lon="8.437870462865686"><ele>319.75</ele><time>2026-04-06T08:36:22Z</time></trkpt><trkpt lat="44.51025708850191" lon="8.43768507131401"><ele>320.5</ele><time>2026-04-06T08:36:23Z</time></trkpt><trkpt lat="44.51018919565476" lon="8.43750147470252"><ele>321.25</ele><time>2026-04-06T08:36:24Z</time></trkpt><trkpt lat="44.510110001941406" lon="8.437331238829895"><ele>322.0</ele><time>2026-04-06T08:36:25Z</time></trkpt><trkpt lat="44.51001398145497" lon="8.437175037308792"><ele>323.66666666666663</ele><time>2026-04-06T08:36:26Z</time></trkpt><trkpt lat="44.509903602734" lon="8.437033235307265"><ele>325.3333333333333</ele><time>2026-04-06T08:36:27Z</time></trkpt><trkpt lat="44.50978128980295" lon="8.43690653464483"><ele>327.0</ele><time>2026-04-06T08:36:28Z</time></trkpt><trkpt lat="44.50965382353664" lon="8.436789849453065"><ele>325.3333333333333</ele><time>2026-04-06T08:36:29Z</time></trkpt><trkpt lat="44.50952965409518" lon="8.436672624619368"><ele>323.66666666666663</ele><time>2026-04-06T08:36:30Z</time></trkpt><trkpt lat="44.50941087452927" lon="8.436538533953014"><ele>322.0</ele><time>2026-04-06T08:36:31Z</time></trkpt><trkpt lat="44.50930018545822" lon="8.436394146143378"><ele>323.5</ele><time>2026-04-06T08:36:32Z</time></trkpt><trkpt lat="44.50918724038931" lon="8.436240383124785"><ele>325.0</ele><time>2026-04-06T08:36:33Z</time></trkpt><trkpt lat="44.50908198258069" lon="8.436106633223199"><ele>326.5</ele><time>2026-04-06T08:36:34Z</time></trkpt><trkpt lat="44.508970788016505" lon="8.436000989374977"><ele>328.0</ele><time>2026-04-06T08:36:35Z</time></trkpt><trkpt lat="44.50884165018141" lon="8.435935574334948"><ele>328.0</ele><time>2026-04-06T08:36:36Z</time></trkpt><trkpt lat="44.50870818848485" lon="8.435930010448912"><ele>328.0</ele><time>2026-04-06T08:36:37Z</time></trkpt><trkpt lat="44.508565003314985" lon="8.435940497118438"><ele>328.0</ele><time>2026-04-06T08:36:38Z</time></trkpt><trkpt lat="44.508418674702256" lon="8.435944515505323"><ele>328.0</ele><time>2026-04-06T08:36:39Z</time></trkpt><trkpt lat="44.50827266270938" lon="8.435941894816237"><ele>328.0</ele><time>2026-04-06T08:36:40Z</time></trkpt><trkpt lat="44.50811539206268" lon="8.435932439481295"><ele>328.0</ele><time>2026-04-06T08:36:41Z</time></trkpt><trkpt lat="44.50796885142127" lon="8.43592457020528"><ele>328.0</ele><time>2026-04-06T08:36:42Z</time></trkpt><trkpt lat="44.5078262076116" lon="8.435922364556166"><ele>328.0</ele><time>2026-04-06T08:36:43Z</time></trkpt><trkpt lat="44.50767589849096" lon="8.435929187862234"><ele>328.0</ele><time>2026-04-06T08:36:44Z</time></trkpt><trkpt lat="44.5075220459613" lon="8.435942964127026"><ele>328.0</ele><time>2026-04-06T08:36:45Z</time></trkpt><trkpt lat="44.50737276381305" lon="8.435969952135977"><ele>328.0</ele><time>2026-04-06T08:36:46Z</time></trkpt><trkpt lat="44.50723215736192" lon="8.436002599010342"><ele>328.0</ele><time>2026-04-06T08:36:47Z</time></trkpt><trkpt lat="44.50709751811958" lon="8.435997875721368"><ele>327.25</ele><time>2026-04-06T08:36:48Z</time></trkpt><trkpt lat="44.5069659825631" lon="8.435944297580937"><ele>326.5</ele><time>2026-04-06T08:36:49Z</time></trkpt><trkpt lat="44.50683788214564" lon="8.435835043087808"><ele>325.75</ele><time>2026-04-06T08:36:50Z</time></trkpt><trkpt lat="44.50671736025311" lon="8.435704621425662"><ele>325.0</ele><time>2026-04-06T08:36:51Z</time></trkpt><trkpt lat="44.50659412327542" lon="8.435585586871332"><ele>325.0</ele><time>2026-04-06T08:36:52Z</time></trkpt><trkpt lat="44.506459146943115" lon="8.435491691363357"><ele>325.0</ele><time>2026-04-06T08:36:53Z</time></trkpt><trkpt lat="44.50630714427351" lon="8.435448149487728"><ele>325.0</ele><time>2026-04-06T08:36:54Z</time></trkpt><trkpt lat="44.506155997964406" lon="8.435462208393488"><ele>326.25</ele><time>2026-04-06T08:36:55Z</time></trkpt><trkpt lat="44.50602422180964" lon="8.435476226896164"><ele>327.5</ele><time>2026-04-06T08:36:56Z</time></trkpt><trkpt lat="44.505895855871785" lon="8.435462160259338"><ele>328.75</ele><time>2026-04-06T08:36:57Z</time></trkpt><trkpt lat="44.50576325754385" lon="8.43539429114036"><ele>330.0</ele><time>2026-04-06T08:36:58Z</time></trkpt><trkpt lat="44.50564158856206" lon="8.435272726775183"><ele>331.0</ele><time>2026-04-06T08:36:59Z</time></trkpt><trkpt lat="44.50553457771843" lon="8.435130211775427"><ele>332.0</ele><time>2026-04-06T08:37:00Z</time></trkpt><trkpt lat="44.50542120231277" lon="8.43500379500311"><ele>333.0</ele><time>2026-04-06T08:37:01Z</time></trkpt><trkpt lat="44.505288854293184" lon="8.43490915920846"><ele>334.0</ele><time>2026-04-06T08:37:02Z</time></trkpt><trkpt lat="44.505141154068696" lon="8.434864158428335"><ele>334.0</ele><time>2026-04-06T08:37:03Z</time></trkpt><trkpt lat="44.5049863246263" lon="8.43487162825095"><ele>334.0</ele><time>2026-04-06T08:37:04Z</time></trkpt><trkpt lat="44.504832548995594" lon="8.434893864251825"><ele>334.0</ele><time>2026-04-06T08:37:05Z</time></trkpt><trkpt lat="44.50469168725808" lon="8.434911747597234"><ele>333.75</ele><time>2026-04-06T08:37:06Z</time></trkpt><trkpt lat="44.504557936345535" lon="8.434915821139853"><ele>333.5</ele><time>2026-04-06T08:37:07Z</time></trkpt><trkpt lat="44.504427868850726" lon="8.434887802055387"><ele>333.25</ele><time>2026-04-06T08:37:08Z</time></trkpt><trkpt lat="44.504309343071256" lon="8.434792520090516"><ele>333.0</ele><time>2026-04-06T08:37:09Z</time></trkpt><trkpt lat="44.50420408491769" lon="8.434668098912764"><ele>337.0</ele><time>2026-04-06T08:37:10Z</time></trkpt><trkpt lat="44.50408942208175" lon="8.434582294804056"><ele>341.0</ele><time>2026-04-06T08:37:11Z</time></trkpt><trkpt lat="44.50398216969915" lon="8.434526818102814"><ele>345.0</ele><time>2026-04-06T08:37:12Z</time></trkpt><trkpt lat="44.50389271624468" lon="8.434437944142882"><ele>349.0</ele><time>2026-04-06T08:37:13Z</time></trkpt><trkpt lat="44.503847724922124" lon="8.43428824959635"><ele>349.0</ele><time>2026-04-06T08:37:14Z</time></trkpt><trkpt lat="44.503840271738454" lon="8.434096133882631"><ele>349.0</ele><time>2026-04-06T08:37:15Z</time></trkpt><trkpt lat="44.50386281173313" lon="8.433895156563015"><ele>349.0</ele><time>2026-04-06T08:37:16Z</time></trkpt><trkpt lat="44.50386281144746" lon="8.4337041880618"><ele>349.0</ele><time>2026-04-06T08:37:17Z</time></trkpt><trkpt lat="44.50382432610053" lon="8.433521763093909"><ele>347.75</ele><time>2026-04-06T08:37:18Z</time></trkpt><trkpt lat="44.50375100496065" lon="8.433347219980678"><ele>346.5</ele><time>2026-04-06T08:37:19Z</time></trkpt><trkpt lat="44.50365055968037" lon="8.433200072029566"><ele>345.25</ele><time>2026-04-06T08:37:20Z</time></trkpt><trkpt lat="44.50354250725174" lon="8.433063156005087"><ele>344.0</ele><time>2026-04-06T08:37:21Z</time></trkpt><trkpt lat="44.50345361103307" lon="8.432919325355416"><ele>344.0</ele><time>2026-04-06T08:37:22Z</time></trkpt><trkpt lat="44.50337779704079" lon="8.43274514246917"><ele>344.0</ele><time>2026-04-06T08:37:23Z</time></trkpt><trkpt lat="44.50332204840965" lon="8.432571823934277"><ele>344.0</ele><time>2026-04-06T08:37:24Z</time></trkpt><trkpt lat="44.50326797014175" lon="8.432417507850579"><ele>344.0</ele><time>2026-04-06T08:37:25Z</time></trkpt><trkpt lat="44.50319419451485" lon="8.432291253710186"><ele>344.0</ele><time>2026-04-06T08:37:26Z</time></trkpt><trkpt lat="44.5031167391245" lon="8.43217143306665"><ele>344.0</ele><time>2026-04-06T08:37:27Z</time></trkpt><trkpt lat="44.503078651870325" lon="8.432028864197006"><ele>344.0</ele><time>2026-04-06T08:37:28Z</time></trkpt><trkpt lat="44.503078124496696" lon="8.431854900785758"><ele>344.0</ele><time>2026-04-06T08:37:29Z</time></trkpt><trkpt lat="44.50309624540664" lon="8.43166012779461"><ele>344.5</ele><time>2026-04-06T08:37:30Z</time></trkpt><trkpt lat="44.50310793179263" lon="8.431467150104938"><ele>345.0</ele><time>2026-04-06T08:37:31Z</time></trkpt><trkpt lat="44.503126491430756" lon="8.431272857008734"><ele>345.5</ele><time>2026-04-06T08:37:32Z</time></trkpt><trkpt lat="44.50316907323113" lon="8.431073427956223"><ele>346.0</ele><time>2026-04-06T08:37:33Z</time></trkpt><trkpt lat="44.50323107575836" lon="8.430867961311028"><ele>346.0</ele><time>2026-04-06T08:37:34Z</time></trkpt><trkpt lat="44.50328914837823" lon="8.43067824418263"><ele>346.0</ele><time>2026-04-06T08:37:35Z</time></trkpt><trkpt lat="44.50331955002255" lon="8.4304791398347"><ele>346.0</ele><time>2026-04-06T08:37:36Z</time></trkpt><trkpt lat="44.50334065574532" lon="8.430274186262222"><ele>346.0</ele><time>2026-04-06T08:37:37Z</time></trkpt><trkpt lat="44.503374049562886" lon="8.430070179701023"><ele>346.0</ele><time>2026-04-06T08:37:38Z</time></trkpt><trkpt lat="44.503411212532384" lon="8.42987231102376"><ele>346.0</ele><time>2026-04-06T08:37:39Z</time></trkpt><trkpt lat="44.503437032583484" lon="8.429666437004338"><ele>346.0</ele><time>2026-04-06T08:37:40Z</time></trkpt><trkpt lat="44.50346011568984" lon="8.429476819996914"><ele>346.0</ele><time>2026-04-06T08:37:41Z</time></trkpt><trkpt lat="44.50346668480674" lon="8.429283068429616"><ele>346.0</ele><time>2026-04-06T08:37:42Z</time></trkpt><trkpt lat="44.50344686051437" lon="8.429084366462002"><ele>346.0</ele><time>2026-04-06T08:37:43Z</time></trkpt><trkpt lat="44.50341168214699" lon="8.428882361862605"><ele>346.0</ele><time>2026-04-06T08:37:44Z</time></trkpt><trkpt lat="44.503364364330785" lon="8.428683135009782"><ele>346.0</ele><time>2026-04-06T08:37:45Z</time></trkpt><trkpt lat="44.503293101774126" lon="8.4285022186723"><ele>346.25</ele><time>2026-04-06T08:37:46Z</time></trkpt><trkpt lat="44.50320309896371" lon="8.428340433625191"><ele>346.5</ele><time>2026-04-06T08:37:47Z</time></trkpt><trkpt lat="44.503122086614496" lon="8.428189040644655"><ele>346.75</ele><time>2026-04-06T08:37:48Z</time></trkpt><trkpt lat="44.5030680382798" lon="8.428046475407305"><ele>347.0</ele><time>2026-04-06T08:37:49Z</time></trkpt><trkpt lat="44.50306615353625" lon="8.427854929135963"><ele>346.5</ele><time>2026-04-06T08:37:50Z</time></trkpt><trkpt lat="44.50306945774996" lon="8.42766735732742"><ele>346.0</ele><time>2026-04-06T08:37:51Z</time></trkpt><trkpt lat="44.50303406196757" lon="8.427510894810695"><ele>345.5</ele><time>2026-04-06T08:37:52Z</time></trkpt><trkpt lat="44.502956956131" lon="8.427400161293606"><ele>345.0</ele><time>2026-04-06T08:37:53Z</time></trkpt><trkpt lat="44.502862436179946" lon="8.427324595403604"><ele>343.25</ele><time>2026-04-06T08:37:54Z</time></trkpt><trkpt lat="44.50276426786087" lon="8.42728322966961"><ele>341.5</ele><time>2026-04-06T08:37:55Z</time></trkpt><trkpt lat="44.502649369855625" lon="8.427279391800605"><ele>339.75</ele><time>2026-04-06T08:37:56Z</time></trkpt><trkpt lat="44.5025333931703" lon="8.427243081453534"><ele>338.0</ele><time>2026-04-06T08:37:57Z</time></trkpt><trkpt lat="44.5024088646603" lon="8.427199300875335"><ele>339.75</ele><time>2026-04-06T08:37:58Z</time></trkpt><trkpt lat="44.50226737989663" lon="8.427129547887711"><ele>341.5</ele><time>2026-04-06T08:37:59Z</time></trkpt><trkpt lat="44.502138401304364" lon="8.427042509791555"><ele>343.25</ele><time>2026-04-06T08:38:00Z</time></trkpt><trkpt lat="44.502019224871745" lon="8.42694777885797"><ele>345.0</ele><time>2026-04-06T08:38:01Z</time></trkpt><trkpt lat="44.50189920998368" lon="8.42682863088751"><ele>345.0</ele><time>2026-04-06T08:38:02Z</time></trkpt><trkpt lat="44.50178316596949" lon="8.426694458490989"><ele>345.0</ele><time>2026-04-06T08:38:03Z</time></trkpt><trkpt lat="44.5016695175526" lon="8.426564809616217"><ele>345.0</ele><time>2026-04-06T08:38:04Z</time></trkpt><trkpt lat="44.50155853479828" lon="8.426439622178417"><ele>345.0</ele><time>2026-04-06T08:38:05Z</time></trkpt><trkpt lat="44.50145070860783" lon="8.426317055955003"><ele>343.5</ele><time>2026-04-06T08:38:06Z</time></trkpt><trkpt lat="44.50133989634034" lon="8.42619154778668"><ele>342.0</ele><time>2026-04-06T08:38:07Z</time></trkpt><trkpt lat="44.501218768625506" lon="8.426061657009056"><ele>340.5</ele><time>2026-04-06T08:38:08Z</time></trkpt><trkpt lat="44.50109499775283" lon="8.425932493661794"><ele>339.0</ele><time>2026-04-06T08:38:09Z</time></trkpt><trkpt lat="44.50097505607375" lon="8.425792886819032"><ele>339.0</ele><time>2026-04-06T08:38:10Z</time></trkpt><trkpt lat="44.50085528369179" lon="8.42565231441594"><ele>339.0</ele><time>2026-04-06T08:38:11Z</time></trkpt><trkpt lat="44.50073077905619" lon="8.425513571778037"><ele>339.0</ele><time>2026-04-06T08:38:12Z</time></trkpt><trkpt lat="44.500610821554176" lon="8.425378643729534"><ele>337.3333333333333</ele><time>2026-04-06T08:38:13Z</time></trkpt><trkpt lat="44.500492383474366" lon="8.42524217968331"><ele>335.66666666666663</ele><time>2026-04-06T08:38:14Z</time></trkpt><trkpt lat="44.50037335148987" lon="8.42510307969791"><ele>334.0</ele><time>2026-04-06T08:38:15Z</time></trkpt><trkpt lat="44.50025717860558" lon="8.424971673778169"><ele>334.0</ele><time>2026-04-06T08:38:16Z</time></trkpt><trkpt lat="44.50013655689921" lon="8.424838234631382"><ele>334.0</ele><time>2026-04-06T08:38:17Z</time></trkpt><trkpt lat="44.500019418769284" lon="8.424703718922602"><ele>334.0</ele><time>2026-04-06T08:38:18Z</time></trkpt><trkpt lat="44.4998983162142" lon="8.42456670155537"><ele>334.75</ele><time>2026-04-06T08:38:19Z</time></trkpt><trkpt lat="44.49978739921347" lon="8.42443546093759"><ele>335.5</ele><time>2026-04-06T08:38:20Z</time></trkpt><trkpt lat="44.499694331146245" lon="8.424297150487995"><ele>336.25</ele><time>2026-04-06T08:38:21Z</time></trkpt><trkpt lat="44.49961202204271" lon="8.424123686697131"><ele>337.0</ele><time>2026-04-06T08:38:22Z</time></trkpt><trkpt lat="44.49955543266804" lon="8.423938474924933"><ele>337.0</ele><time>2026-04-06T08:38:23Z</time></trkpt><trkpt lat="44.499508096603144" lon="8.423743924877705"><ele>337.0</ele><time>2026-04-06T08:38:24Z</time></trkpt><trkpt lat="44.49947501900324" lon="8.423553696156741"><ele>337.0</ele><time>2026-04-06T08:38:25Z</time></trkpt><trkpt lat="44.49945785676133" lon="8.42335792279376"><ele>337.0</ele><time>2026-04-06T08:38:26Z</time></trkpt><trkpt lat="44.4994683452762" lon="8.423161001072783"><ele>337.25</ele><time>2026-04-06T08:38:27Z</time></trkpt><trkpt lat="44.49949581825321" lon="8.422964655281387"><ele>337.5</ele><time>2026-04-06T08:38:28Z</time></trkpt><trkpt lat="44.49953822855087" lon="8.422768456506532"><ele>337.75</ele><time>2026-04-06T08:38:29Z</time></trkpt><trkpt lat="44.49959684824554" lon="8.422583957292787"><ele>338.0</ele><time>2026-04-06T08:38:30Z</time></trkpt><trkpt lat="44.499655747935236" lon="8.422381833772034"><ele>339.75</ele><time>2026-04-06T08:38:31Z</time></trkpt><trkpt lat="44.49970388099846" lon="8.422231974479283"><ele>341.5</ele><time>2026-04-06T08:38:32Z</time></trkpt><trkpt lat="44.49976898619307" lon="8.422054767601775"><ele>343.25</ele><time>2026-04-06T08:38:33Z</time></trkpt><trkpt lat="44.49981238018334" lon="8.421871366130654"><ele>345.0</ele><time>2026-04-06T08:38:34Z</time></trkpt><trkpt lat="44.4998321749282" lon="8.42166836276762"><ele>345.6666666666667</ele><time>2026-04-06T08:38:35Z</time></trkpt><trkpt lat="44.4998445689168" lon="8.421458459382446"><ele>346.33333333333337</ele><time>2026-04-06T08:38:36Z</time></trkpt><trkpt lat="44.49985478512133" lon="8.421234106697128"><ele>347.0</ele><time>2026-04-06T08:38:37Z</time></trkpt><trkpt lat="44.49985543378005" lon="8.421016238239247"><ele>347.5</ele><time>2026-04-06T08:38:38Z</time></trkpt><trkpt lat="44.49985310900402" lon="8.42082202861146"><ele>348.0</ele><time>2026-04-06T08:38:39Z</time></trkpt><trkpt lat="44.49983126651383" lon="8.420638558092941"><ele>348.5</ele><time>2026-04-06T08:38:40Z</time></trkpt><trkpt lat="44.499776132246375" lon="8.420462877536439"><ele>349.0</ele><time>2026-04-06T08:38:41Z</time></trkpt><trkpt lat="44.499678438102784" lon="8.42031842813739"><ele>346.66666666666663</ele><time>2026-04-06T08:38:42Z</time></trkpt><trkpt lat="44.49953959230495" lon="8.420206117952423"><ele>344.3333333333333</ele><time>2026-04-06T08:38:43Z</time></trkpt><trkpt lat="44.49938929438395" lon="8.42010840194335"><ele>342.0</ele><time>2026-04-06T08:38:44Z</time></trkpt><trkpt lat="44.49924426852467" lon="8.420002686233374"><ele>342.0</ele><time>2026-04-06T08:38:45Z</time></trkpt><trkpt lat="44.49910122740211" lon="8.419887528250813"><ele>342.0</ele><time>2026-04-06T08:38:46Z</time></trkpt><trkpt lat="44.49895586986248" lon="8.419765228809887"><ele>342.0</ele><time>2026-04-06T08:38:47Z</time></trkpt><trkpt lat="44.49880626674929" lon="8.41964224564567"><ele>344.3333333333333</ele><time>2026-04-06T08:38:48Z</time></trkpt><trkpt lat="44.49864660351836" lon="8.419514942771178"><ele>346.66666666666663</ele><time>2026-04-06T08:38:49Z</time></trkpt><trkpt lat="44.49850386096821" lon="8.419401887434367"><ele>349.0</ele><time>2026-04-06T08:38:50Z</time></trkpt><trkpt lat="44.498378882765834" lon="8.419293147440913"><ele>349.0</ele><time>2026-04-06T08:38:51Z</time></trkpt><trkpt lat="44.49825652100118" lon="8.419188780962761"><ele>349.0</ele><time>2026-04-06T08:38:52Z</time></trkpt><trkpt lat="44.49813837480509" lon="8.41908410440271"><ele>349.0</ele><time>2026-04-06T08:38:53Z</time></trkpt><trkpt lat="44.49803219705709" lon="8.41899872144486"><ele>349.0</ele><time>2026-04-06T08:38:54Z</time></trkpt><trkpt lat="44.49791639577143" lon="8.418915636264149"><ele>350.25</ele><time>2026-04-06T08:38:55Z</time></trkpt><trkpt lat="44.49779050801129" lon="8.418814259784348"><ele>351.5</ele><time>2026-04-06T08:38:56Z</time></trkpt><trkpt lat="44.49767526384945" lon="8.418710795290428"><ele>352.75</ele><time>2026-04-06T08:38:57Z</time></trkpt><trkpt lat="44.49755948082509" lon="8.41861157263548"><ele>354.0</ele><time>2026-04-06T08:38:58Z</time></trkpt><trkpt lat="44.49744600717366" lon="8.418505604497048"><ele>354.0</ele><time>2026-04-06T08:38:59Z</time></trkpt><trkpt lat="44.497330038698934" lon="8.41840279084736"><ele>354.0</ele><time>2026-04-06T08:39:00Z</time></trkpt><trkpt lat="44.49719553618979" lon="8.41829179493062"><ele>354.0</ele><time>2026-04-06T08:39:01Z</time></trkpt><trkpt lat="44.49706974708533" lon="8.418179042543906"><ele>354.0</ele><time>2026-04-06T08:39:02Z</time></trkpt><trkpt lat="44.496937008378545" lon="8.418066598664417"><ele>352.25</ele><time>2026-04-06T08:39:03Z</time></trkpt><trkpt lat="44.49681272428825" lon="8.417954123146902"><ele>350.5</ele><time>2026-04-06T08:39:04Z</time></trkpt><trkpt lat="44.49669141315658" lon="8.417843994625837"><ele>348.75</ele><time>2026-04-06T08:39:05Z</time></trkpt><trkpt lat="44.49657015166299" lon="8.417736486171144"><ele>347.0</ele><time>2026-04-06T08:39:06Z</time></trkpt><trkpt lat="44.49644969837275" lon="8.41762523747812"><ele>347.0</ele><time>2026-04-06T08:39:07Z</time></trkpt><trkpt lat="44.496324493024375" lon="8.417516148546019"><ele>347.0</ele><time>2026-04-06T08:39:08Z</time></trkpt><trkpt lat="44.496201503780256" lon="8.41741091158629"><ele>347.0</ele><time>2026-04-06T08:39:09Z</time></trkpt><trkpt lat="44.49608321074397" lon="8.41730762375866"><ele>347.0</ele><time>2026-04-06T08:39:10Z</time></trkpt><trkpt lat="44.495965132690664" lon="8.417203120683563"><ele>346.75</ele><time>2026-04-06T08:39:11Z</time></trkpt><trkpt lat="44.4958495563446" lon="8.417103216881314"><ele>346.5</ele><time>2026-04-06T08:39:12Z</time></trkpt><trkpt lat="44.49571994255005" lon="8.416992253243064"><ele>346.25</ele><time>2026-04-06T08:39:13Z</time></trkpt><trkpt lat="44.4955973296427" lon="8.41689200396782"><ele>346.0</ele><time>2026-04-06T08:39:14Z</time></trkpt><trkpt lat="44.49547362777764" lon="8.416785765500983"><ele>345.0</ele><time>2026-04-06T08:39:15Z</time></trkpt><trkpt lat="44.495351646930885" lon="8.416682464968845"><ele>344.0</ele><time>2026-04-06T08:39:16Z</time></trkpt><trkpt lat="44.495224893918255" lon="8.41657835433617"><ele>343.0</ele><time>2026-04-06T08:39:17Z</time></trkpt><trkpt lat="44.495083791481996" lon="8.41646709925366"><ele>343.0</ele><time>2026-04-06T08:39:18Z</time></trkpt><trkpt lat="44.49494875620095" lon="8.416364623279335"><ele>343.0</ele><time>2026-04-06T08:39:19Z</time></trkpt><trkpt lat="44.494816627530405" lon="8.416257129770527"><ele>343.0</ele><time>2026-04-06T08:39:20Z</time></trkpt><trkpt lat="44.49468770727303" lon="8.416140218597723"><ele>343.0</ele><time>2026-04-06T08:39:21Z</time></trkpt><trkpt lat="44.49456578152981" lon="8.416027283688958"><ele>343.0</ele><time>2026-04-06T08:39:22Z</time></trkpt><trkpt lat="44.49444448169736" lon="8.415918257788258"><ele>343.0</ele><time>2026-04-06T08:39:23Z</time></trkpt><trkpt lat="44.49432199347358" lon="8.41582299296502"><ele>343.0</ele><time>2026-04-06T08:39:24Z</time></trkpt><trkpt lat="44.49420808418967" lon="8.415729103306365"><ele>343.0</ele><time>2026-04-06T08:39:25Z</time></trkpt><trkpt lat="44.49409358012602" lon="8.415638946750024"><ele>343.0</ele><time>2026-04-06T08:39:26Z</time></trkpt><trkpt lat="44.493961871824624" lon="8.415542020991849"><ele>343.0</ele><time>2026-04-06T08:39:27Z</time></trkpt><trkpt lat="44.49382646926495" lon="8.415451743225512"><ele>343.0</ele><time>2026-04-06T08:39:28Z</time></trkpt><trkpt lat="44.4936856252766" lon="8.41538709080386"><ele>343.5</ele><time>2026-04-06T08:39:29Z</time></trkpt><trkpt lat="44.493546788499074" lon="8.415339526616195"><ele>344.0</ele><time>2026-04-06T08:39:30Z</time></trkpt><trkpt lat="44.49341160833927" lon="8.415296269192673"><ele>344.5</ele><time>2026-04-06T08:39:31Z</time></trkpt><trkpt lat="44.49328774611144" lon="8.415245888741842"><ele>345.0</ele><time>2026-04-06T08:39:32Z</time></trkpt><trkpt lat="44.493158888977305" lon="8.415203016705263"><ele>345.0</ele><time>2026-04-06T08:39:33Z</time></trkpt><trkpt lat="44.49302659637035" lon="8.415167031087059"><ele>345.0</ele><time>2026-04-06T08:39:34Z</time></trkpt><trkpt lat="44.492901162693165" lon="8.415126844564194"><ele>345.0</ele><time>2026-04-06T08:39:35Z</time></trkpt><trkpt lat="44.49279692455581" lon="8.415090269195295"><ele>345.0</ele><time>2026-04-06T08:39:36Z</time></trkpt><trkpt lat="44.49270579291199" lon="8.415047068932003"><ele>345.3333333333333</ele><time>2026-04-06T08:39:37Z</time></trkpt><trkpt lat="44.492625110738096" lon="8.415003052231043"><ele>345.6666666666667</ele><time>2026-04-06T08:39:38Z</time></trkpt><trkpt lat="44.492557991930525" lon="8.414962134721005"><ele>346.0</ele><time>2026-04-06T08:39:39Z</time></trkpt><trkpt lat="44.49248991914441" lon="8.414904927589248"><ele>346.33333333333337</ele><time>2026-04-06T08:39:41Z</time></trkpt><trkpt lat="44.49244238158119" lon="8.4149789367853"><ele>346.6666666666667</ele><time>2026-04-06T08:40:06Z</time></trkpt><trkpt lat="44.49253306261246" lon="8.415036095660295"><ele>347.0</ele><time>2026-04-06T08:40:08Z</time></trkpt><trkpt lat="44.4926174628627" lon="8.415049784892608"><ele>347.0</ele><time>2026-04-06T08:40:10Z</time></trkpt><trkpt lat="44.49268352951016" lon="8.415091588546996"><ele>347.0</ele><time>2026-04-06T08:40:12Z</time></trkpt><trkpt lat="44.492745844256476" lon="8.415124111279889"><ele>347.0</ele><time>2026-04-06T08:40:14Z</time></trkpt><trkpt lat="44.49282214425527" lon="8.415174341490761"><ele>347.0</ele><time>2026-04-06T08:40:17Z</time></trkpt><trkpt lat="44.49286013825403" lon="8.41526122535148"><ele>347.0</ele><time>2026-04-06T08:40:24Z</time></trkpt><trkpt lat="44.49280536087564" lon="8.41537221592551"><ele>347.0</ele><time>2026-04-06T08:40:26.999Z</time></trkpt><trkpt lat="44.49275210992161" lon="8.41544491765333"><ele>347.33333333333337</ele><time>2026-04-06T08:40:27.999Z</time></trkpt><trkpt lat="44.49271131318094" lon="8.415532719444643"><ele>347.6666666666667</ele><time>2026-04-06T08:40:28.999Z</time></trkpt><trkpt lat="44.49266614818594" lon="8.415608184817952"><ele>348.0</ele><time>2026-04-06T08:40:29.999Z</time></trkpt><trkpt lat="44.4926045563029" lon="8.415663109576466"><ele>348.3333333333333</ele><time>2026-04-06T08:40:30.999Z</time></trkpt><trkpt lat="44.49255110075704" lon="8.415739361529031"><ele>348.66666666666663</ele><time>2026-04-06T08:40:31.999Z</time></trkpt><trkpt lat="44.49248875042324" lon="8.41579977374045"><ele>349.0</ele><time>2026-04-06T08:40:32.999Z</time></trkpt><trkpt lat="44.49241308871667" lon="8.415842033242225"><ele>349.0</ele><time>2026-04-06T08:40:33.999Z</time></trkpt><trkpt lat="44.49234791710902" lon="8.41587690005782"><ele>349.0</ele><time>2026-04-06T08:40:34.999Z</time></trkpt><trkpt lat="44.49227582882991" lon="8.415922078419172"><ele>349.0</ele><time>2026-04-06T08:40:35.999Z</time></trkpt><trkpt lat="44.49220953257242" lon="8.415981988283638"><ele>349.0</ele><time>2026-04-06T08:40:36.999Z</time></trkpt><trkpt lat="44.49214338692055" lon="8.416042520971189"><ele>349.0</ele><time>2026-04-06T08:40:37.999Z</time></trkpt><trkpt lat="44.492057120160155" lon="8.416147156971796"><ele>349.0</ele><time>2026-04-06T08:40:39.999Z</time></trkpt><trkpt lat="44.491962531283264" lon="8.416258473676491"><ele>349.5</ele><time>2026-04-06T08:40:41.999Z</time></trkpt><trkpt lat="44.491906041530875" lon="8.41629813362541"><ele>350.0</ele><time>2026-04-06T08:40:42.999Z</time></trkpt><trkpt lat="44.491825456199244" lon="8.416300400025555"><ele>350.5</ele><time>2026-04-06T08:40:43.999Z</time></trkpt><trkpt lat="44.49174233463385" lon="8.416293837185835"><ele>351.0</ele><time>2026-04-06T08:40:44.999Z</time></trkpt><trkpt lat="44.49164379941288" lon="8.41630038852286"><ele>351.5</ele><time>2026-04-06T08:40:46Z</time></trkpt><trkpt lat="44.49155501366797" lon="8.416324775997602"><ele>352.0</ele><time>2026-04-06T08:40:47Z</time></trkpt><trkpt lat="44.49146162162835" lon="8.416337878156122"><ele>352.8</ele><time>2026-04-06T08:40:48Z</time></trkpt><trkpt lat="44.49136253473662" lon="8.416343688167208"><ele>353.6</ele><time>2026-04-06T08:40:49Z</time></trkpt><trkpt lat="44.4912674810818" lon="8.416335712648928"><ele>354.40000000000003</ele><time>2026-04-06T08:40:50Z</time></trkpt><trkpt lat="44.491159287566525" lon="8.416315264131224"><ele>355.20000000000005</ele><time>2026-04-06T08:40:51Z</time></trkpt><trkpt lat="44.491059385786215" lon="8.416288019972543"><ele>356.0</ele><time>2026-04-06T08:40:52Z</time></trkpt><trkpt lat="44.490962175376346" lon="8.416261577880347"><ele>356.0</ele><time>2026-04-06T08:40:53Z</time></trkpt><trkpt lat="44.490871798898766" lon="8.416251995067396"><ele>356.0</ele><time>2026-04-06T08:40:54Z</time></trkpt><trkpt lat="44.49078226429592" lon="8.416257751682995"><ele>356.0</ele><time>2026-04-06T08:40:55Z</time></trkpt><trkpt lat="44.49069990220923" lon="8.416275542358054"><ele>356.0</ele><time>2026-04-06T08:40:56Z</time></trkpt><trkpt lat="44.49063648235587" lon="8.416318407152362"><ele>356.0</ele><time>2026-04-06T08:40:57Z</time></trkpt><trkpt lat="44.49059008747713" lon="8.416380801538802"><ele>356.0</ele><time>2026-04-06T08:40:58Z</time></trkpt><trkpt lat="44.49054353858552" lon="8.416485160962589"><ele>358.20000000000005</ele><time>2026-04-06T08:40:59Z</time></trkpt><trkpt lat="44.49050836326639" lon="8.416604955087113"><ele>360.40000000000003</ele><time>2026-04-06T08:41:00Z</time></trkpt><trkpt lat="44.4904710899142" lon="8.416740999082428"><ele>362.6</ele><time>2026-04-06T08:41:01Z</time></trkpt><trkpt lat="44.49041970799803" lon="8.416862467297541"><ele>364.8</ele><time>2026-04-06T08:41:02Z</time></trkpt><trkpt lat="44.490340696319706" lon="8.416962276616966"><ele>367.0</ele><time>2026-04-06T08:41:03Z</time></trkpt><trkpt lat="44.49025187930755" lon="8.417036146992492"><ele>368.25</ele><time>2026-04-06T08:41:04Z</time></trkpt><trkpt lat="44.49014208869133" lon="8.417108679191845"><ele>369.5</ele><time>2026-04-06T08:41:05Z</time></trkpt><trkpt lat="44.49002215151795" lon="8.417165410503499"><ele>370.75</ele><time>2026-04-06T08:41:06Z</time></trkpt><trkpt lat="44.48990929431767" lon="8.417209588726397"><ele>372.0</ele><time>2026-04-06T08:41:07Z</time></trkpt><trkpt lat="44.48978950156023" lon="8.417256013758072"><ele>373.25</ele><time>2026-04-06T08:41:08Z</time></trkpt><trkpt lat="44.48967668335893" lon="8.417329992063213"><ele>374.5</ele><time>2026-04-06T08:41:09Z</time></trkpt><trkpt lat="44.489567915323896" lon="8.417432646273243"><ele>375.75</ele><time>2026-04-06T08:41:10Z</time></trkpt><trkpt lat="44.48947008068578" lon="8.417540994485826"><ele>377.0</ele><time>2026-04-06T08:41:11Z</time></trkpt><trkpt lat="44.48938538233764" lon="8.417629403845591"><ele>377.0</ele><time>2026-04-06T08:41:12Z</time></trkpt><trkpt lat="44.4892914340425" lon="8.417705670391884"><ele>377.0</ele><time>2026-04-06T08:41:13Z</time></trkpt><trkpt lat="44.48918351012254" lon="8.41777339538952"><ele>377.0</ele><time>2026-04-06T08:41:14Z</time></trkpt><trkpt lat="44.489066818836974" lon="8.417817177064897"><ele>377.0</ele><time>2026-04-06T08:41:15Z</time></trkpt><trkpt lat="44.488945205771294" lon="8.417837499401653"><ele>377.0</ele><time>2026-04-06T08:41:16Z</time></trkpt><trkpt lat="44.48882579284984" lon="8.417846209551444"><ele>377.0</ele><time>2026-04-06T08:41:17Z</time></trkpt><trkpt lat="44.48870947447707" lon="8.417871222060533"><ele>377.0</ele><time>2026-04-06T08:41:18Z</time></trkpt><trkpt lat="44.48861162744975" lon="8.417924042277434"><ele>377.0</ele><time>2026-04-06T08:41:19Z</time></trkpt><trkpt lat="44.48852939134376" lon="8.418011473514039"><ele>377.0</ele><time>2026-04-06T08:41:20Z</time></trkpt><trkpt lat="44.48846125067845" lon="8.418136655987979"><ele>379.25</ele><time>2026-04-06T08:41:21Z</time></trkpt><trkpt lat="44.48840736669691" lon="8.41828746790092"><ele>381.5</ele><time>2026-04-06T08:41:22Z</time></trkpt><trkpt lat="44.48837290363527" lon="8.41844764795689"><ele>383.75</ele><time>2026-04-06T08:41:23Z</time></trkpt><trkpt lat="44.48834188161428" lon="8.418612220310074"><ele>386.0</ele><time>2026-04-06T08:41:24Z</time></trkpt><trkpt lat="44.48829379752227" lon="8.418754961040806"><ele>388.0</ele><time>2026-04-06T08:41:25Z</time></trkpt><trkpt lat="44.48821629904728" lon="8.418896140715988"><ele>390.0</ele><time>2026-04-06T08:41:26Z</time></trkpt><trkpt lat="44.488123705996465" lon="8.419029845417608"><ele>392.0</ele><time>2026-04-06T08:41:27Z</time></trkpt><trkpt lat="44.48802795524055" lon="8.419171372084895"><ele>394.0</ele><time>2026-04-06T08:41:28Z</time></trkpt><trkpt lat="44.48793230546253" lon="8.419317965690846"><ele>394.0</ele><time>2026-04-06T08:41:29Z</time></trkpt><trkpt lat="44.48784427070057" lon="8.419459377427879"><ele>394.0</ele><time>2026-04-06T08:41:30Z</time></trkpt><trkpt lat="44.48776985116014" lon="8.4195996263696"><ele>394.0</ele><time>2026-04-06T08:41:31Z</time></trkpt><trkpt lat="44.487704278832744" lon="8.419755086776627"><ele>394.0</ele><time>2026-04-06T08:41:32Z</time></trkpt><trkpt lat="44.487641114925566" lon="8.419930940350708"><ele>394.75</ele><time>2026-04-06T08:41:33Z</time></trkpt><trkpt lat="44.48757231187073" lon="8.420098095590344"><ele>395.5</ele><time>2026-04-06T08:41:34Z</time></trkpt><trkpt lat="44.48748529809523" lon="8.420260147322278"><ele>396.25</ele><time>2026-04-06T08:41:35Z</time></trkpt><trkpt lat="44.4873930463763" lon="8.420423125984739"><ele>397.0</ele><time>2026-04-06T08:41:36Z</time></trkpt><trkpt lat="44.4873078574044" lon="8.420574091633911"><ele>397.0</ele><time>2026-04-06T08:41:37Z</time></trkpt><trkpt lat="44.487231452143355" lon="8.420728051285018"><ele>397.0</ele><time>2026-04-06T08:41:38Z</time></trkpt><trkpt lat="44.487177680683445" lon="8.420869033670062"><ele>397.0</ele><time>2026-04-06T08:41:39Z</time></trkpt><trkpt lat="44.487121483478404" lon="8.42099094871341"><ele>397.0</ele><time>2026-04-06T08:41:40Z</time></trkpt><trkpt lat="44.48703960486272" lon="8.42108469916595"><ele>397.75</ele><time>2026-04-06T08:41:41Z</time></trkpt><trkpt lat="44.48692734916272" lon="8.421142279211141"><ele>398.5</ele><time>2026-04-06T08:41:42Z</time></trkpt><trkpt lat="44.48679695352475" lon="8.421196165617902"><ele>399.25</ele><time>2026-04-06T08:41:43Z</time></trkpt><trkpt lat="44.486665159410485" lon="8.421247565420982"><ele>400.0</ele><time>2026-04-06T08:41:44Z</time></trkpt><trkpt lat="44.486539081706866" lon="8.42129888693687"><ele>399.6</ele><time>2026-04-06T08:41:45Z</time></trkpt><trkpt lat="44.48643096556833" lon="8.421349792064195"><ele>399.2</ele><time>2026-04-06T08:41:46Z</time></trkpt><trkpt lat="44.486328276371886" lon="8.421397558934322"><ele>398.79999999999995</ele><time>2026-04-06T08:41:47Z</time></trkpt><trkpt lat="44.48623963753022" lon="8.421439802890532"><ele>398.4</ele><time>2026-04-06T08:41:48Z</time></trkpt><trkpt lat="44.48615744657503" lon="8.421480033723352"><ele>398.0</ele><time>2026-04-06T08:41:49Z</time></trkpt><trkpt lat="44.486084256901094" lon="8.421517585315272"><ele>398.8333333333333</ele><time>2026-04-06T08:41:50Z</time></trkpt><trkpt lat="44.48598613915464" lon="8.421560785463484"><ele>399.66666666666663</ele><time>2026-04-06T08:41:52Z</time></trkpt><trkpt lat="44.48591550405244" lon="8.421604967439897"><ele>400.5</ele><time>2026-04-06T08:42:07Z</time></trkpt><trkpt lat="44.48585483512372" lon="8.42163468901049"><ele>401.33333333333337</ele><time>2026-04-06T08:42:08Z</time></trkpt><trkpt lat="44.48577434275767" lon="8.421677204478721"><ele>402.1666666666667</ele><time>2026-04-06T08:42:09Z</time></trkpt><trkpt lat="44.4856849914777" lon="8.421730550751533"><ele>403.0</ele><time>2026-04-06T08:42:10Z</time></trkpt><trkpt lat="44.48560468532402" lon="8.42179094042343"><ele>403.0</ele><time>2026-04-06T08:42:11Z</time></trkpt><trkpt lat="44.485515305515214" lon="8.4218649334111"><ele>403.0</ele><time>2026-04-06T08:42:12Z</time></trkpt><trkpt lat="44.48541385342784" lon="8.421945392203725"><ele>403.0</ele><time>2026-04-06T08:42:13Z</time></trkpt><trkpt lat="44.485309483544654" lon="8.422028323999358"><ele>403.0</ele><time>2026-04-06T08:42:14Z</time></trkpt><trkpt lat="44.48520524589376" lon="8.42210792430508"><ele>402.0</ele><time>2026-04-06T08:42:15Z</time></trkpt><trkpt lat="44.485105715994415" lon="8.422187942634965"><ele>401.0</ele><time>2026-04-06T08:42:16Z</time></trkpt><trkpt lat="44.48501701395255" lon="8.422247270630924"><ele>400.0</ele><time>2026-04-06T08:42:17Z</time></trkpt><trkpt lat="44.48491564735537" lon="8.422327878803355"><ele>399.0</ele><time>2026-04-06T08:42:18Z</time></trkpt><trkpt lat="44.484806339265916" lon="8.422393551554228"><ele>398.0</ele><time>2026-04-06T08:42:19Z</time></trkpt><trkpt lat="44.48469791422595" lon="8.422445707759765"><ele>398.0</ele><time>2026-04-06T08:42:20Z</time></trkpt><trkpt lat="44.48458731704607" lon="8.422501782417488"><ele>398.0</ele><time>2026-04-06T08:42:21Z</time></trkpt><trkpt lat="44.48446840654665" lon="8.422554480795547"><ele>398.0</ele><time>2026-04-06T08:42:22Z</time></trkpt><trkpt lat="44.484358154806905" lon="8.42260193428874"><ele>398.0</ele><time>2026-04-06T08:42:22.999Z</time></trkpt><trkpt lat="44.484239975291096" lon="8.42266564406306"><ele>398.0</ele><time>2026-04-06T08:42:23.999Z</time></trkpt><trkpt lat="44.48412038695006" lon="8.422735020858314"><ele>398.0</ele><time>2026-04-06T08:42:24.999Z</time></trkpt><trkpt lat="44.48399935020204" lon="8.422814515567865"><ele>398.0</ele><time>2026-04-06T08:42:25.999Z</time></trkpt><trkpt lat="44.48388221512718" lon="8.42289867016925"><ele>398.0</ele><time>2026-04-06T08:42:26.999Z</time></trkpt><trkpt lat="44.48375951976107" lon="8.422983540778867"><ele>399.0</ele><time>2026-04-06T08:42:27.999Z</time></trkpt><trkpt lat="44.483638869314774" lon="8.423072113660163"><ele>400.0</ele><time>2026-04-06T08:42:28.999Z</time></trkpt><trkpt lat="44.483522131788824" lon="8.423162482318295"><ele>401.0</ele><time>2026-04-06T08:42:29.999Z</time></trkpt><trkpt lat="44.48340442878368" lon="8.42325020061556"><ele>402.0</ele><time>2026-04-06T08:42:30.999Z</time></trkpt><trkpt lat="44.48328678500942" lon="8.423337462170625"><ele>402.0</ele><time>2026-04-06T08:42:31.999Z</time></trkpt><trkpt lat="44.48316613536959" lon="8.423428263202249"><ele>402.0</ele><time>2026-04-06T08:42:32.999Z</time></trkpt><trkpt lat="44.48304612662828" lon="8.423516518808613"><ele>402.0</ele><time>2026-04-06T08:42:33.999Z</time></trkpt><trkpt lat="44.482918228214544" lon="8.423609608927384"><ele>402.0</ele><time>2026-04-06T08:42:34.999Z</time></trkpt><trkpt lat="44.482798067720196" lon="8.42368949228037"><ele>402.0</ele><time>2026-04-06T08:42:35.999Z</time></trkpt><trkpt lat="44.48268498871657" lon="8.423769763127257"><ele>402.0</ele><time>2026-04-06T08:42:36.999Z</time></trkpt><trkpt lat="44.482576224293084" lon="8.423850594209583"><ele>402.0</ele><time>2026-04-06T08:42:37.999Z</time></trkpt><trkpt lat="44.48245965245976" lon="8.423921700578845"><ele>402.0</ele><time>2026-04-06T08:42:38.999Z</time></trkpt><trkpt lat="44.482338335672544" lon="8.423980657751303"><ele>403.0</ele><time>2026-04-06T08:42:39.999Z</time></trkpt><trkpt lat="44.4822148231479" lon="8.424033791147323"><ele>404.0</ele><time>2026-04-06T08:42:40.999Z</time></trkpt><trkpt lat="44.48209397224884" lon="8.42407356466449"><ele>405.0</ele><time>2026-04-06T08:42:41.999Z</time></trkpt><trkpt lat="44.48197560796557" lon="8.424097981381403"><ele>406.0</ele><time>2026-04-06T08:42:42.999Z</time></trkpt><trkpt lat="44.48186460762826" lon="8.424134213782882"><ele>407.25</ele><time>2026-04-06T08:42:43.999Z</time></trkpt><trkpt lat="44.481749707813776" lon="8.424171719040917"><ele>408.5</ele><time>2026-04-06T08:42:44.999Z</time></trkpt><trkpt lat="44.48164752698561" lon="8.424265212718655"><ele>409.75</ele><time>2026-04-06T08:42:45.999Z</time></trkpt><trkpt lat="44.48155116269548" lon="8.42436457189753"><ele>411.0</ele><time>2026-04-06T08:42:46.999Z</time></trkpt><trkpt lat="44.48147071604716" lon="8.424502920312054"><ele>411.0</ele><time>2026-04-06T08:42:47.999Z</time></trkpt><trkpt lat="44.48139736502025" lon="8.424660509521683"><ele>411.0</ele><time>2026-04-06T08:42:48.999Z</time></trkpt><trkpt lat="44.48133735265371" lon="8.424810651367146"><ele>411.0</ele><time>2026-04-06T08:42:49.999Z</time></trkpt><trkpt lat="44.48128553650688" lon="8.424935703038866"><ele>411.0</ele><time>2026-04-06T08:42:50.999Z</time></trkpt><trkpt lat="44.481211960323456" lon="8.425040712139916"><ele>412.75</ele><time>2026-04-06T08:42:52Z</time></trkpt><trkpt lat="44.48110518213422" lon="8.425122044787406"><ele>414.5</ele><time>2026-04-06T08:42:53Z</time></trkpt><trkpt lat="44.48099174767819" lon="8.42517571592746"><ele>416.25</ele><time>2026-04-06T08:42:54Z</time></trkpt><trkpt lat="44.480860032984964" lon="8.42518654629881"><ele>418.0</ele><time>2026-04-06T08:42:55Z</time></trkpt><trkpt lat="44.48074913981051" lon="8.425272164282013"><ele>418.0</ele><time>2026-04-06T08:42:56Z</time></trkpt><trkpt lat="44.48064992728419" lon="8.42538203977545"><ele>418.0</ele><time>2026-04-06T08:42:57Z</time></trkpt><trkpt lat="44.480558786725" lon="8.425510686592666"><ele>418.0</ele><time>2026-04-06T08:42:58Z</time></trkpt><trkpt lat="44.480480377293496" lon="8.425635421018692"><ele>418.0</ele><time>2026-04-06T08:42:59Z</time></trkpt><trkpt lat="44.48039948123055" lon="8.425751423443302"><ele>419.4</ele><time>2026-04-06T08:43:00Z</time></trkpt><trkpt lat="44.48031553432569" lon="8.42583794679799"><ele>420.79999999999995</ele><time>2026-04-06T08:43:01Z</time></trkpt><trkpt lat="44.48022185904444" lon="8.425911769607934"><ele>422.2</ele><time>2026-04-06T08:43:02Z</time></trkpt><trkpt lat="44.48011715045428" lon="8.425937236683687"><ele>423.6</ele><time>2026-04-06T08:43:03Z</time></trkpt><trkpt lat="44.480008866108584" lon="8.425962915806624"><ele>425.0</ele><time>2026-04-06T08:43:04Z</time></trkpt><trkpt lat="44.479910126947" lon="8.42598666812905"><ele>425.0</ele><time>2026-04-06T08:43:05Z</time></trkpt><trkpt lat="44.47981208668739" lon="8.426050869872233"><ele>425.0</ele><time>2026-04-06T08:43:06Z</time></trkpt><trkpt lat="44.47971816912789" lon="8.426128044222285"><ele>425.0</ele><time>2026-04-06T08:43:07Z</time></trkpt><trkpt lat="44.479623631488174" lon="8.426230774805642"><ele>425.0</ele><time>2026-04-06T08:43:08Z</time></trkpt><trkpt lat="44.47955137836174" lon="8.426340871087948"><ele>425.0</ele><time>2026-04-06T08:43:09Z</time></trkpt><trkpt lat="44.47945990737601" lon="8.426511171141359"><ele>425.8</ele><time>2026-04-06T08:43:11Z</time></trkpt><trkpt lat="44.47940706936084" lon="8.426600778594702"><ele>426.6</ele><time>2026-04-06T08:43:13Z</time></trkpt><trkpt lat="44.479280169918866" lon="8.426653034812173"><ele>427.4</ele><time>2026-04-06T08:43:15Z</time></trkpt><trkpt lat="44.47917683280441" lon="8.426667049425165"><ele>428.2</ele><time>2026-04-06T08:43:16Z</time></trkpt><trkpt lat="44.47906733607678" lon="8.426676305094038"><ele>429.0</ele><time>2026-04-06T08:43:17Z</time></trkpt><trkpt lat="44.478948397172346" lon="8.426697757476067"><ele>429.0</ele><time>2026-04-06T08:43:18Z</time></trkpt><trkpt lat="44.47882186397482" lon="8.426712781578415"><ele>429.0</ele><time>2026-04-06T08:43:19Z</time></trkpt><trkpt lat="44.47869623180654" lon="8.426706235306058"><ele>429.0</ele><time>2026-04-06T08:43:20Z</time></trkpt><trkpt lat="44.478557962082675" lon="8.426683137983215"><ele>429.0</ele><time>2026-04-06T08:43:21Z</time></trkpt><trkpt lat="44.478417354348835" lon="8.426638285416747"><ele>427.66666666666663</ele><time>2026-04-06T08:43:22Z</time></trkpt><trkpt lat="44.47826697931357" lon="8.426611233311895"><ele>426.3333333333333</ele><time>2026-04-06T08:43:23Z</time></trkpt><trkpt lat="44.47811282774659" lon="8.42658101385676"><ele>425.0</ele><time>2026-04-06T08:43:24Z</time></trkpt><trkpt lat="44.47795920873822" lon="8.426546168500776"><ele>425.0</ele><time>2026-04-06T08:43:25Z</time></trkpt><trkpt lat="44.47779960573099" lon="8.426506619344961"><ele>425.0</ele><time>2026-04-06T08:43:26Z</time></trkpt><trkpt lat="44.47763490184447" lon="8.426471635370486"><ele>425.0</ele><time>2026-04-06T08:43:27Z</time></trkpt><trkpt lat="44.47748240057665" lon="8.426434535740382"><ele>425.0</ele><time>2026-04-06T08:43:28Z</time></trkpt><trkpt lat="44.477329738942196" lon="8.426404261336558"><ele>425.0</ele><time>2026-04-06T08:43:29Z</time></trkpt><trkpt lat="44.47718737139259" lon="8.42636904198637"><ele>425.0</ele><time>2026-04-06T08:43:30Z</time></trkpt><trkpt lat="44.477033219795075" lon="8.426335936589997"><ele>424.0</ele><time>2026-04-06T08:43:31Z</time></trkpt><trkpt lat="44.476884814200744" lon="8.426299948941658"><ele>423.0</ele><time>2026-04-06T08:43:32Z</time></trkpt><trkpt lat="44.47673556932271" lon="8.426274355238412"><ele>422.0</ele><time>2026-04-06T08:43:33Z</time></trkpt><trkpt lat="44.476584029594356" lon="8.426256216372137"><ele>422.0</ele><time>2026-04-06T08:43:34Z</time></trkpt><trkpt lat="44.4764349823048" lon="8.426254971781571"><ele>422.0</ele><time>2026-04-06T08:43:35Z</time></trkpt><trkpt lat="44.47629754187753" lon="8.426274577849613"><ele>422.0</ele><time>2026-04-06T08:43:36Z</time></trkpt><trkpt lat="44.476150847521595" lon="8.426296472622711"><ele>422.0</ele><time>2026-04-06T08:43:37Z</time></trkpt><trkpt lat="44.476001892740086" lon="8.426317749147637"><ele>422.0</ele><time>2026-04-06T08:43:38Z</time></trkpt><trkpt lat="44.47585661460323" lon="8.426334586196608"><ele>422.0</ele><time>2026-04-06T08:43:39Z</time></trkpt><trkpt lat="44.475707447191226" lon="8.426354253717932"><ele>422.0</ele><time>2026-04-06T08:43:40Z</time></trkpt><trkpt lat="44.47555940728686" lon="8.426371326467466"><ele>422.0</ele><time>2026-04-06T08:43:41Z</time></trkpt><trkpt lat="44.47540992295684" lon="8.426395784976641"><ele>420.66666666666663</ele><time>2026-04-06T08:43:42Z</time></trkpt><trkpt lat="44.47526002315086" lon="8.426443438494521"><ele>419.33333333333337</ele><time>2026-04-06T08:43:43Z</time></trkpt><trkpt lat="44.47511911309703" lon="8.426509932921007"><ele>418.0</ele><time>2026-04-06T08:43:44Z</time></trkpt><trkpt lat="44.47497280813805" lon="8.426568436202919"><ele>418.0</ele><time>2026-04-06T08:43:45Z</time></trkpt><trkpt lat="44.47484145117297" lon="8.426613505284424"><ele>418.0</ele><time>2026-04-06T08:43:46Z</time></trkpt><trkpt lat="44.47474384757378" lon="8.42666771196676"><ele>418.0</ele><time>2026-04-06T08:43:47Z</time></trkpt><trkpt lat="44.47460144714666" lon="8.426706040889021"><ele>418.0</ele><time>2026-04-06T08:43:48Z</time></trkpt><trkpt lat="44.47447031075863" lon="8.426745214384574"><ele>417.5</ele><time>2026-04-06T08:43:49Z</time></trkpt><trkpt lat="44.474332380233854" lon="8.426755890869998"><ele>417.0</ele><time>2026-04-06T08:43:50Z</time></trkpt><trkpt lat="44.47418381325493" lon="8.426726996846869"><ele>416.5</ele><time>2026-04-06T08:43:51Z</time></trkpt><trkpt lat="44.47404357926735" lon="8.426677198724317"><ele>416.0</ele><time>2026-04-06T08:43:52Z</time></trkpt><trkpt lat="44.47390650989019" lon="8.426591333043062"><ele>416.66666666666663</ele><time>2026-04-06T08:43:53Z</time></trkpt><trkpt lat="44.47377181783551" lon="8.426486087751138"><ele>417.33333333333337</ele><time>2026-04-06T08:43:54Z</time></trkpt><trkpt lat="44.473637934804614" lon="8.426378964245838"><ele>418.0</ele><time>2026-04-06T08:43:55Z</time></trkpt><trkpt lat="44.473499480367074" lon="8.426271910543615"><ele>416.6666666666667</ele><time>2026-04-06T08:43:56Z</time></trkpt><trkpt lat="44.47335591831374" lon="8.42615852880382"><ele>415.33333333333337</ele><time>2026-04-06T08:43:57Z</time></trkpt><trkpt lat="44.47321029940067" lon="8.426035388003505"><ele>414.0</ele><time>2026-04-06T08:43:58Z</time></trkpt><trkpt lat="44.4730650281164" lon="8.4259087245279"><ele>414.66666666666663</ele><time>2026-04-06T08:43:59Z</time></trkpt><trkpt lat="44.47293015960686" lon="8.425789190776014"><ele>415.3333333333333</ele><time>2026-04-06T08:44:00Z</time></trkpt><trkpt lat="44.472788267240645" lon="8.425665630598216"><ele>416.0</ele><time>2026-04-06T08:44:01Z</time></trkpt><trkpt lat="44.47265047685245" lon="8.425547672456776"><ele>414.0</ele><time>2026-04-06T08:44:02Z</time></trkpt><trkpt lat="44.47251027823028" lon="8.42543553482094"><ele>412.0</ele><time>2026-04-06T08:44:03Z</time></trkpt><trkpt lat="44.472382039478866" lon="8.42531423078992"><ele>410.0</ele><time>2026-04-06T08:44:04Z</time></trkpt><trkpt lat="44.47225607373738" lon="8.425197072960998"><ele>410.0</ele><time>2026-04-06T08:44:05Z</time></trkpt><trkpt lat="44.472139073088705" lon="8.425086780759273"><ele>410.0</ele><time>2026-04-06T08:44:06Z</time></trkpt><trkpt lat="44.472030331274915" lon="8.42500225852651"><ele>410.0</ele><time>2026-04-06T08:44:07Z</time></trkpt><trkpt lat="44.471935838533504" lon="8.424925465932448"><ele>410.0</ele><time>2026-04-06T08:44:08Z</time></trkpt><trkpt lat="44.47186045972185" lon="8.42484746565852"><ele>409.5</ele><time>2026-04-06T08:44:09Z</time></trkpt><trkpt lat="44.47179765540437" lon="8.424754008222827"><ele>409.0</ele><time>2026-04-06T08:44:10Z</time></trkpt><trkpt lat="44.47175105680789" lon="8.424609265353524"><ele>408.5</ele><time>2026-04-06T08:44:11Z</time></trkpt><trkpt lat="44.47173061551371" lon="8.424421163845297"><ele>408.0</ele><time>2026-04-06T08:44:12Z</time></trkpt><trkpt lat="44.47171081006936" lon="8.424222260824791"><ele>408.0</ele><time>2026-04-06T08:44:13Z</time></trkpt><trkpt lat="44.471679295629066" lon="8.42403531593543"><ele>408.0</ele><time>2026-04-06T08:44:14Z</time></trkpt><trkpt lat="44.47163917324912" lon="8.423850024128363"><ele>408.0</ele><time>2026-04-06T08:44:15Z</time></trkpt><trkpt lat="44.47159094002553" lon="8.423683730184868"><ele>408.0</ele><time>2026-04-06T08:44:16Z</time></trkpt><trkpt lat="44.47152449882809" lon="8.42353975037437"><ele>405.5</ele><time>2026-04-06T08:44:17Z</time></trkpt><trkpt lat="44.47143299393307" lon="8.423421697338243"><ele>403.0</ele><time>2026-04-06T08:44:18Z</time></trkpt><trkpt lat="44.47133268045963" lon="8.423317886604845"><ele>400.5</ele><time>2026-04-06T08:44:19Z</time></trkpt><trkpt lat="44.47121611994137" lon="8.423220690292206"><ele>398.0</ele><time>2026-04-06T08:44:20Z</time></trkpt><trkpt lat="44.471090950924506" lon="8.423118666695105"><ele>397.75</ele><time>2026-04-06T08:44:21Z</time></trkpt><trkpt lat="44.47096771842974" lon="8.423015136961359"><ele>397.5</ele><time>2026-04-06T08:44:22Z</time></trkpt><trkpt lat="44.47084045956816" lon="8.422908388392077"><ele>397.25</ele><time>2026-04-06T08:44:23Z</time></trkpt><trkpt lat="44.47071728092772" lon="8.422795207306063"><ele>397.0</ele><time>2026-04-06T08:44:24Z</time></trkpt><trkpt lat="44.47059537690136" lon="8.422686580512892"><ele>396.5</ele><time>2026-04-06T08:44:25Z</time></trkpt><trkpt lat="44.470473964736314" lon="8.42258023038901"><ele>396.0</ele><time>2026-04-06T08:44:26Z</time></trkpt><trkpt lat="44.47034934447676" lon="8.42246967309381"><ele>395.5</ele><time>2026-04-06T08:44:27Z</time></trkpt><trkpt lat="44.47022646390902" lon="8.422360729643593"><ele>395.0</ele><time>2026-04-06T08:44:28Z</time></trkpt><trkpt lat="44.47011709301625" lon="8.422247257833195"><ele>396.5</ele><time>2026-04-06T08:44:29Z</time></trkpt><trkpt lat="44.4699947624486" lon="8.422149759184009"><ele>398.0</ele><time>2026-04-06T08:44:30Z</time></trkpt><trkpt lat="44.46988884674188" lon="8.422061085511755"><ele>399.5</ele><time>2026-04-06T08:44:31Z</time></trkpt><trkpt lat="44.46979752138641" lon="8.421985388427004"><ele>401.0</ele><time>2026-04-06T08:44:32Z</time></trkpt><trkpt lat="44.469734608503906" lon="8.421903224982364"><ele>401.0</ele><time>2026-04-06T08:44:33Z</time></trkpt><trkpt lat="44.46969906897457" lon="8.421788007082117"><ele>401.0</ele><time>2026-04-06T08:44:34Z</time></trkpt><trkpt lat="44.46969523049204" lon="8.421635017231193"><ele>401.0</ele><time>2026-04-06T08:44:35Z</time></trkpt><trkpt lat="44.46971454626306" lon="8.4214624971023"><ele>401.0</ele><time>2026-04-06T08:44:36Z</time></trkpt><trkpt lat="44.469747228826954" lon="8.421268809722836"><ele>400.75</ele><time>2026-04-06T08:44:37Z</time></trkpt><trkpt lat="44.46976125776393" lon="8.421077941107837"><ele>400.5</ele><time>2026-04-06T08:44:38Z</time></trkpt><trkpt lat="44.469760063388534" lon="8.420886786881896"><ele>400.25</ele><time>2026-04-06T08:44:39Z</time></trkpt><trkpt lat="44.46975812668446" lon="8.420696061707035"><ele>400.0</ele><time>2026-04-06T08:44:40Z</time></trkpt><trkpt lat="44.46974528537902" lon="8.42049513976722"><ele>400.25</ele><time>2026-04-06T08:44:41Z</time></trkpt><trkpt lat="44.469717429436" lon="8.420305372498362"><ele>400.5</ele><time>2026-04-06T08:44:42Z</time></trkpt><trkpt lat="44.4696836213346" lon="8.420138336488513"><ele>400.75</ele><time>2026-04-06T08:44:43Z</time></trkpt><trkpt lat="44.46964771415871" lon="8.419980887777257"><ele>401.0</ele><time>2026-04-06T08:44:44Z</time></trkpt><trkpt lat="44.469599061245866" lon="8.419820302392655"><ele>402.0</ele><time>2026-04-06T08:44:45Z</time></trkpt><trkpt lat="44.46953729467011" lon="8.419668009365541"><ele>403.0</ele><time>2026-04-06T08:44:46Z</time></trkpt><trkpt lat="44.46946208838381" lon="8.419543757672518"><ele>404.0</ele><time>2026-04-06T08:44:47Z</time></trkpt><trkpt lat="44.4693993491521" lon="8.419420841131569"><ele>405.0</ele><time>2026-04-06T08:44:48Z</time></trkpt><trkpt lat="44.469355845424815" lon="8.419339554893273"><ele>406.0</ele><time>2026-04-06T08:44:49Z</time></trkpt><trkpt lat="44.46931963158552" lon="8.419252917742968"><ele>406.0</ele><time>2026-04-06T08:44:50.999Z</time></trkpt><trkpt lat="44.46924686553398" lon="8.419201278437109"><ele>406.0</ele><time>2026-04-06T08:44:54.999Z</time></trkpt><trkpt lat="44.469183905130365" lon="8.41925155415772"><ele>406.0</ele><time>2026-04-06T08:44:55.999Z</time></trkpt><trkpt lat="44.46911503782684" lon="8.419352469096138"><ele>406.0</ele><time>2026-04-06T08:44:56.999Z</time></trkpt><trkpt lat="44.46903827259958" lon="8.419449231848262"><ele>406.0</ele><time>2026-04-06T08:44:58Z</time></trkpt><trkpt lat="44.468945985227734" lon="8.419543461743947"><ele>406.0</ele><time>2026-04-06T08:44:59Z</time></trkpt><trkpt lat="44.46885945220477" lon="8.419615265366849"><ele>406.0</ele><time>2026-04-06T08:45:00Z</time></trkpt><trkpt lat="44.4687591134323" lon="8.419693695206455"><ele>406.0</ele><time>2026-04-06T08:45:01Z</time></trkpt><trkpt lat="44.46863955500609" lon="8.419779676807437"><ele>406.0</ele><time>2026-04-06T08:45:02Z</time></trkpt><trkpt lat="44.4685210039129" lon="8.419874661260566"><ele>408.5</ele><time>2026-04-06T08:45:03Z</time></trkpt><trkpt lat="44.46840228275388" lon="8.419977332162512"><ele>411.0</ele><time>2026-04-06T08:45:04Z</time></trkpt><trkpt lat="44.46828586610888" lon="8.420088643466457"><ele>413.5</ele><time>2026-04-06T08:45:05Z</time></trkpt><trkpt lat="44.46816897471028" lon="8.420211154128815"><ele>416.0</ele><time>2026-04-06T08:45:06Z</time></trkpt><trkpt lat="44.46806429480645" lon="8.420347696572117"><ele>415.66666666666663</ele><time>2026-04-06T08:45:07Z</time></trkpt><trkpt lat="44.46798268923181" lon="8.420530385497475"><ele>415.33333333333337</ele><time>2026-04-06T08:45:08Z</time></trkpt><trkpt lat="44.46790281197307" lon="8.420731983310526"><ele>415.0</ele><time>2026-04-06T08:45:09Z</time></trkpt><trkpt lat="44.46781597858005" lon="8.420931923202899"><ele>417.75</ele><time>2026-04-06T08:45:10Z</time></trkpt><trkpt lat="44.467741063773275" lon="8.421125719155592"><ele>420.5</ele><time>2026-04-06T08:45:11Z</time></trkpt><trkpt lat="44.46766366634809" lon="8.421285232537244"><ele>423.25</ele><time>2026-04-06T08:45:12Z</time></trkpt><trkpt lat="44.46758285169743" lon="8.421450736778866"><ele>426.0</ele><time>2026-04-06T08:45:13Z</time></trkpt><trkpt lat="44.46747978924842" lon="8.421574843326821"><ele>426.0</ele><time>2026-04-06T08:45:14Z</time></trkpt><trkpt lat="44.46735776439321" lon="8.421651522954974"><ele>426.0</ele><time>2026-04-06T08:45:15Z</time></trkpt><trkpt lat="44.46722217571933" lon="8.421676733797069"><ele>426.0</ele><time>2026-04-06T08:45:16Z</time></trkpt><trkpt lat="44.46708125743075" lon="8.421648616035826"><ele>426.0</ele><time>2026-04-06T08:45:17Z</time></trkpt><trkpt lat="44.46695316904781" lon="8.421570705471627"><ele>429.66666666666663</ele><time>2026-04-06T08:45:18Z</time></trkpt><trkpt lat="44.466837311520266" lon="8.421447350323714"><ele>433.3333333333333</ele><time>2026-04-06T08:45:19Z</time></trkpt><trkpt lat="44.46671460252367" lon="8.421304993874688"><ele>437.0</ele><time>2026-04-06T08:45:20Z</time></trkpt><trkpt lat="44.46658338630379" lon="8.421165701387395"><ele>440.0</ele><time>2026-04-06T08:45:21Z</time></trkpt><trkpt lat="44.46644432741114" lon="8.421037977558298"><ele>443.0</ele><time>2026-04-06T08:45:22Z</time></trkpt><trkpt lat="44.46629634346707" lon="8.42090257487995"><ele>446.0</ele><time>2026-04-06T08:45:23Z</time></trkpt><trkpt lat="44.466155942102404" lon="8.42077993885209"><ele>447.66666666666663</ele><time>2026-04-06T08:45:24Z</time></trkpt><trkpt lat="44.46601549003226" lon="8.420653961902422"><ele>449.33333333333337</ele><time>2026-04-06T08:45:25Z</time></trkpt><trkpt lat="44.46587391196681" lon="8.42051717515818"><ele>451.0</ele><time>2026-04-06T08:45:26Z</time></trkpt><trkpt lat="44.46574715226351" lon="8.42035612943654"><ele>451.33333333333337</ele><time>2026-04-06T08:45:27Z</time></trkpt><trkpt lat="44.46564715080503" lon="8.420158046450887"><ele>451.66666666666663</ele><time>2026-04-06T08:45:28Z</time></trkpt><trkpt lat="44.46554978633922" lon="8.419960996729309"><ele>452.0</ele><time>2026-04-06T08:45:29Z</time></trkpt><trkpt lat="44.46546978805331" lon="8.419779283849378"><ele>454.25</ele><time>2026-04-06T08:45:30Z</time></trkpt><trkpt lat="44.465403427800844" lon="8.419617855876774"><ele>456.5</ele><time>2026-04-06T08:45:31Z</time></trkpt><trkpt lat="44.465329531279075" lon="8.419467099403183"><ele>458.75</ele><time>2026-04-06T08:45:32Z</time></trkpt><trkpt lat="44.46524599158883" lon="8.419326565301068"><ele>461.0</ele><time>2026-04-06T08:45:33Z</time></trkpt><trkpt lat="44.465145085405105" lon="8.419208598844758"><ele>461.0</ele><time>2026-04-06T08:45:34Z</time></trkpt><trkpt lat="44.46502521039941" lon="8.419103972472069"><ele>461.0</ele><time>2026-04-06T08:45:35Z</time></trkpt><trkpt lat="44.46488582473861" lon="8.419033627446987"><ele>461.0</ele><time>2026-04-06T08:45:36Z</time></trkpt><trkpt lat="44.46473346922821" lon="8.418980372045038"><ele>461.0</ele><time>2026-04-06T08:45:37Z</time></trkpt><trkpt lat="44.4645771864052" lon="8.418943196706156"><ele>458.3333333333333</ele><time>2026-04-06T08:45:38Z</time></trkpt><trkpt lat="44.46442462366556" lon="8.41890285391916"><ele>455.66666666666663</ele><time>2026-04-06T08:45:39Z</time></trkpt><trkpt lat="44.46428180628885" lon="8.418859872081335"><ele>453.0</ele><time>2026-04-06T08:45:40Z</time></trkpt><trkpt lat="44.46413065262152" lon="8.418842283066494"><ele>453.0</ele><time>2026-04-06T08:45:41Z</time></trkpt><trkpt lat="44.46398010528187" lon="8.418875590219804"><ele>453.0</ele><time>2026-04-06T08:45:42Z</time></trkpt><trkpt lat="44.463827219572124" lon="8.418966803804558"><ele>453.0</ele><time>2026-04-06T08:45:43Z</time></trkpt><trkpt lat="44.46367753358816" lon="8.41908254507115"><ele>451.66666666666663</ele><time>2026-04-06T08:45:44Z</time></trkpt><trkpt lat="44.46352011337726" lon="8.419197716857921"><ele>450.3333333333333</ele><time>2026-04-06T08:45:45Z</time></trkpt><trkpt lat="44.463362534637206" lon="8.41930155093922"><ele>449.0</ele><time>2026-04-06T08:45:46Z</time></trkpt><trkpt lat="44.46320574124381" lon="8.419392392376684"><ele>449.0</ele><time>2026-04-06T08:45:47Z</time></trkpt><trkpt lat="44.46305309431026" lon="8.419501405948225"><ele>449.0</ele><time>2026-04-06T08:45:48Z</time></trkpt><trkpt lat="44.46290898775274" lon="8.41961940262566"><ele>449.0</ele><time>2026-04-06T08:45:49Z</time></trkpt><trkpt lat="44.462778855565745" lon="8.419761226194693"><ele>445.0</ele><time>2026-04-06T08:45:50Z</time></trkpt><trkpt lat="44.462674639154656" lon="8.419936147718794"><ele>441.0</ele><time>2026-04-06T08:45:51Z</time></trkpt><trkpt lat="44.462594098120114" lon="8.420130770960272"><ele>437.0</ele><time>2026-04-06T08:45:52Z</time></trkpt><trkpt lat="44.462526932228116" lon="8.420324021236755"><ele>437.0</ele><time>2026-04-06T08:45:53Z</time></trkpt><trkpt lat="44.46249110400386" lon="8.420518415012832"><ele>437.0</ele><time>2026-04-06T08:45:54Z</time></trkpt><trkpt lat="44.46248423222611" lon="8.420701161595314"><ele>437.0</ele><time>2026-04-06T08:45:55Z</time></trkpt><trkpt lat="44.4624820865394" lon="8.420861987634238"><ele>437.0</ele><time>2026-04-06T08:45:56Z</time></trkpt><trkpt lat="44.46244704055721" lon="8.42103196979339"><ele>437.0</ele><time>2026-04-06T08:45:57Z</time></trkpt><trkpt lat="44.462364641789634" lon="8.421188921207662"><ele>437.0</ele><time>2026-04-06T08:45:58Z</time></trkpt><trkpt lat="44.462273946320884" lon="8.4213290695828"><ele>437.0</ele><time>2026-04-06T08:45:59Z</time></trkpt><trkpt lat="44.46219072054053" lon="8.421452578466669"><ele>437.0</ele><time>2026-04-06T08:46:00Z</time></trkpt><trkpt lat="44.46210823175042" lon="8.42152818891285"><ele>433.25</ele><time>2026-04-06T08:46:01Z</time></trkpt><trkpt lat="44.46200876553338" lon="8.42154723433978"><ele>429.5</ele><time>2026-04-06T08:46:02Z</time></trkpt><trkpt lat="44.461914632412466" lon="8.421487291311387"><ele>425.75</ele><time>2026-04-06T08:46:03Z</time></trkpt><trkpt lat="44.46182593577335" lon="8.421360992989111"><ele>422.0</ele><time>2026-04-06T08:46:04Z</time></trkpt><trkpt lat="44.46175965421064" lon="8.421183127145506"><ele>422.0</ele><time>2026-04-06T08:46:05Z</time></trkpt><trkpt lat="44.461703510409414" lon="8.420979082544797"><ele>422.0</ele><time>2026-04-06T08:46:06Z</time></trkpt><trkpt lat="44.46165842741305" lon="8.420784890760933"><ele>422.0</ele><time>2026-04-06T08:46:07Z</time></trkpt><trkpt lat="44.46162829023187" lon="8.420593296265892"><ele>422.0</ele><time>2026-04-06T08:46:08Z</time></trkpt><trkpt lat="44.46162040108363" lon="8.420409000967894"><ele>422.25</ele><time>2026-04-06T08:46:09Z</time></trkpt><trkpt lat="44.46161420660414" lon="8.42022769627498"><ele>422.5</ele><time>2026-04-06T08:46:10Z</time></trkpt><trkpt lat="44.46159359563414" lon="8.42005419298855"><ele>422.75</ele><time>2026-04-06T08:46:11Z</time></trkpt><trkpt lat="44.46154637289834" lon="8.419910294690448"><ele>423.0</ele><time>2026-04-06T08:46:12Z</time></trkpt><trkpt lat="44.461465067533645" lon="8.419798835492694"><ele>423.0</ele><time>2026-04-06T08:46:13Z</time></trkpt><trkpt lat="44.46134548979037" lon="8.419734371372499"><ele>423.0</ele><time>2026-04-06T08:46:14Z</time></trkpt><trkpt lat="44.461204903029085" lon="8.419734672282903"><ele>423.0</ele><time>2026-04-06T08:46:15Z</time></trkpt><trkpt lat="44.46105525234557" lon="8.419806054634092"><ele>423.0</ele><time>2026-04-06T08:46:16Z</time></trkpt><trkpt lat="44.460920657944826" lon="8.419907201487103"><ele>421.25</ele><time>2026-04-06T08:46:17Z</time></trkpt><trkpt lat="44.460797005650704" lon="8.4199969577994"><ele>419.5</ele><time>2026-04-06T08:46:18Z</time></trkpt><trkpt lat="44.46067150054401" lon="8.420063424104319"><ele>417.75</ele><time>2026-04-06T08:46:19Z</time></trkpt><trkpt lat="44.460528564839585" lon="8.420095485916365"><ele>416.0</ele><time>2026-04-06T08:46:20Z</time></trkpt><trkpt lat="44.46038089946047" lon="8.420121265685323"><ele>416.0</ele><time>2026-04-06T08:46:21Z</time></trkpt><trkpt lat="44.46023091526503" lon="8.420146993729022"><ele>416.0</ele><time>2026-04-06T08:46:22Z</time></trkpt><trkpt lat="44.46008541414618" lon="8.420179869685434"><ele>416.0</ele><time>2026-04-06T08:46:23Z</time></trkpt><trkpt lat="44.459932930247945" lon="8.420222387218598"><ele>416.0</ele><time>2026-04-06T08:46:24Z</time></trkpt><trkpt lat="44.4597856957202" lon="8.420258555749905"><ele>416.0</ele><time>2026-04-06T08:46:25Z</time></trkpt><trkpt lat="44.45963378314167" lon="8.420293855060802"><ele>416.0</ele><time>2026-04-06T08:46:26Z</time></trkpt><trkpt lat="44.45947697725473" lon="8.420334515631435"><ele>415.66666666666663</ele><time>2026-04-06T08:46:26.999Z</time></trkpt><trkpt lat="44.45932903110731" lon="8.420386273401768"><ele>415.33333333333337</ele><time>2026-04-06T08:46:27.999Z</time></trkpt><trkpt lat="44.4591790611144" lon="8.420456903496284"><ele>415.0</ele><time>2026-04-06T08:46:28.999Z</time></trkpt><trkpt lat="44.459038421071675" lon="8.420544261165809"><ele>413.5</ele><time>2026-04-06T08:46:29.999Z</time></trkpt><trkpt lat="44.45890342589951" lon="8.420634325323672"><ele>412.0</ele><time>2026-04-06T08:46:30.999Z</time></trkpt><trkpt lat="44.45876774247025" lon="8.4207097201836"><ele>410.5</ele><time>2026-04-06T08:46:31.999Z</time></trkpt><trkpt lat="44.458627420122" lon="8.420785293220483"><ele>409.0</ele><time>2026-04-06T08:46:32.999Z</time></trkpt><trkpt lat="44.458488091454704" lon="8.420860697111694"><ele>409.0</ele><time>2026-04-06T08:46:33.999Z</time></trkpt><trkpt lat="44.45835131534705" lon="8.420934805203157"><ele>409.0</ele><time>2026-04-06T08:46:34.999Z</time></trkpt><trkpt lat="44.45821065647321" lon="8.421009769531127"><ele>409.0</ele><time>2026-04-06T08:46:35.999Z</time></trkpt><trkpt lat="44.458074303211404" lon="8.421085192518035"><ele>409.0</ele><time>2026-04-06T08:46:36.999Z</time></trkpt><trkpt lat="44.45793899483479" lon="8.421153182701229"><ele>409.25</ele><time>2026-04-06T08:46:37.999Z</time></trkpt><trkpt lat="44.45780411424585" lon="8.421221214972512"><ele>409.5</ele><time>2026-04-06T08:46:38.999Z</time></trkpt><trkpt lat="44.45767256306571" lon="8.421314108417933"><ele>409.75</ele><time>2026-04-06T08:46:39.999Z</time></trkpt><trkpt lat="44.45754442521864" lon="8.421427088715209"><ele>410.0</ele><time>2026-04-06T08:46:40.999Z</time></trkpt><trkpt lat="44.45742814931961" lon="8.421559725364796"><ele>410.0</ele><time>2026-04-06T08:46:41.999Z</time></trkpt><trkpt lat="44.45732034140165" lon="8.421714982660301"><ele>410.0</ele><time>2026-04-06T08:46:42.999Z</time></trkpt><trkpt lat="44.45722256241977" lon="8.421885396064209"><ele>410.0</ele><time>2026-04-06T08:46:43.999Z</time></trkpt><trkpt lat="44.4571316009506" lon="8.422087433276019"><ele>418.0</ele><time>2026-04-06T08:46:44.999Z</time></trkpt><trkpt lat="44.45706537345986" lon="8.422329540693797"><ele>426.0</ele><time>2026-04-06T08:46:45.999Z</time></trkpt><trkpt lat="44.45700618933243" lon="8.422593300806856"><ele>434.0</ele><time>2026-04-06T08:46:46.999Z</time></trkpt><trkpt lat="44.45695399339392" lon="8.422852143591651"><ele>430.0</ele><time>2026-04-06T08:46:47.999Z</time></trkpt><trkpt lat="44.45690344546147" lon="8.423085055327203"><ele>426.0</ele><time>2026-04-06T08:46:48.999Z</time></trkpt><trkpt lat="44.456849672229474" lon="8.42331440338889"><ele>422.0</ele><time>2026-04-06T08:46:49.999Z</time></trkpt><trkpt lat="44.456802467053805" lon="8.423535421384203"><ele>422.0</ele><time>2026-04-06T08:46:50.999Z</time></trkpt><trkpt lat="44.456753878662994" lon="8.423747211364056"><ele>422.0</ele><time>2026-04-06T08:46:51.999Z</time></trkpt><trkpt lat="44.456705164059606" lon="8.423958431836349"><ele>422.0</ele><time>2026-04-06T08:46:52.999Z</time></trkpt><trkpt lat="44.456653659854815" lon="8.424159326378454"><ele>419.0</ele><time>2026-04-06T08:46:53.999Z</time></trkpt><trkpt lat="44.45660419465065" lon="8.42436292303781"><ele>416.0</ele><time>2026-04-06T08:46:54.999Z</time></trkpt><trkpt lat="44.4565583712145" lon="8.424562387423038"><ele>413.0</ele><time>2026-04-06T08:46:55.999Z</time></trkpt><trkpt lat="44.456530176610116" lon="8.424761050907284"><ele>410.0</ele><time>2026-04-06T08:46:56.999Z</time></trkpt><trkpt lat="44.45650189674291" lon="8.424971082973796"><ele>409.66666666666663</ele><time>2026-04-06T08:46:57.999Z</time></trkpt><trkpt lat="44.45648749486332" lon="8.42520037919166"><ele>409.33333333333337</ele><time>2026-04-06T08:46:58.999Z</time></trkpt><trkpt lat="44.45649228351698" lon="8.425441794392922"><ele>409.0</ele><time>2026-04-06T08:46:59.999Z</time></trkpt><trkpt lat="44.45650989887735" lon="8.425684110632213"><ele>409.0</ele><time>2026-04-06T08:47:00.999Z</time></trkpt><trkpt lat="44.456530480475756" lon="8.425925601263193"><ele>409.0</ele><time>2026-04-06T08:47:01.999Z</time></trkpt><trkpt lat="44.45654777846872" lon="8.426155849575627"><ele>409.0</ele><time>2026-04-06T08:47:02.999Z</time></trkpt><trkpt lat="44.45655968627848" lon="8.426368053222664"><ele>409.6666666666667</ele><time>2026-04-06T08:47:04Z</time></trkpt><trkpt lat="44.456564747414866" lon="8.426582851907485"><ele>410.33333333333337</ele><time>2026-04-06T08:47:05Z</time></trkpt><trkpt lat="44.45654773006926" lon="8.42679505113592"><ele>411.0</ele><time>2026-04-06T08:47:06Z</time></trkpt><trkpt lat="44.45650495330616" lon="8.426998974819496"><ele>411.0</ele><time>2026-04-06T08:47:07Z</time></trkpt><trkpt lat="44.45645208849006" lon="8.427185620773193"><ele>411.0</ele><time>2026-04-06T08:47:08Z</time></trkpt><trkpt lat="44.45638829941613" lon="8.427373597492698"><ele>411.0</ele><time>2026-04-06T08:47:09Z</time></trkpt><trkpt lat="44.456294277391734" lon="8.42753098086055"><ele>411.0</ele><time>2026-04-06T08:47:10Z</time></trkpt><trkpt lat="44.45619411812787" lon="8.427659889907908"><ele>412.25</ele><time>2026-04-06T08:47:11Z</time></trkpt><trkpt lat="44.45607874740854" lon="8.427727981161222"><ele>413.5</ele><time>2026-04-06T08:47:12Z</time></trkpt><trkpt lat="44.45594201515396" lon="8.427728713342661"><ele>414.75</ele><time>2026-04-06T08:47:13Z</time></trkpt><trkpt lat="44.45580338373736" lon="8.427682554936316"><ele>416.0</ele><time>2026-04-06T08:47:14Z</time></trkpt><trkpt lat="44.45566571926871" lon="8.427609583584848"><ele>416.0</ele><time>2026-04-06T08:47:15Z</time></trkpt><trkpt lat="44.455530274556175" lon="8.42752156112258"><ele>416.0</ele><time>2026-04-06T08:47:16Z</time></trkpt><trkpt lat="44.45540417172935" lon="8.427433481143122"><ele>416.0</ele><time>2026-04-06T08:47:17Z</time></trkpt><trkpt lat="44.45528027470942" lon="8.427326691613729"><ele>416.0</ele><time>2026-04-06T08:47:18Z</time></trkpt><trkpt lat="44.45516088996802" lon="8.427210793845193"><ele>417.3333333333333</ele><time>2026-04-06T08:47:19Z</time></trkpt><trkpt lat="44.45504139537397" lon="8.427085940458298"><ele>418.66666666666663</ele><time>2026-04-06T08:47:20Z</time></trkpt><trkpt lat="44.454922976508136" lon="8.426963204213632"><ele>420.0</ele><time>2026-04-06T08:47:21Z</time></trkpt><trkpt lat="44.45479836034073" lon="8.426833264717905"><ele>420.0</ele><time>2026-04-06T08:47:22Z</time></trkpt><trkpt lat="44.454679755211544" lon="8.426693152994332"><ele>420.0</ele><time>2026-04-06T08:47:23Z</time></trkpt><trkpt lat="44.45456549747456" lon="8.426551605012865"><ele>420.0</ele><time>2026-04-06T08:47:24Z</time></trkpt><trkpt lat="44.45444154949027" lon="8.42641233033568"><ele>421.0</ele><time>2026-04-06T08:47:25Z</time></trkpt><trkpt lat="44.45432295745553" lon="8.426290344310909"><ele>422.0</ele><time>2026-04-06T08:47:26Z</time></trkpt><trkpt lat="44.45420148210118" lon="8.4261636233948"><ele>423.0</ele><time>2026-04-06T08:47:27Z</time></trkpt><trkpt lat="44.454077464698116" lon="8.426041091755712"><ele>423.0</ele><time>2026-04-06T08:47:28Z</time></trkpt><trkpt lat="44.453941485181254" lon="8.425926705628596"><ele>423.0</ele><time>2026-04-06T08:47:29Z</time></trkpt><trkpt lat="44.45380491897898" lon="8.425831582874057"><ele>423.0</ele><time>2026-04-06T08:47:30Z</time></trkpt><trkpt lat="44.453655251798175" lon="8.4257428952203"><ele>420.66666666666663</ele><time>2026-04-06T08:47:31Z</time></trkpt><trkpt lat="44.453505727733095" lon="8.4256684204335"><ele>418.3333333333333</ele><time>2026-04-06T08:47:32Z</time></trkpt><trkpt lat="44.453358069804544" lon="8.425598313257087"><ele>416.0</ele><time>2026-04-06T08:47:33Z</time></trkpt><trkpt lat="44.453214693427064" lon="8.425531699891502"><ele>416.3333333333333</ele><time>2026-04-06T08:47:34Z</time></trkpt><trkpt lat="44.453066766033636" lon="8.425447554642538"><ele>416.66666666666663</ele><time>2026-04-06T08:47:35Z</time></trkpt><trkpt lat="44.45293067713938" lon="8.425347312852178"><ele>417.0</ele><time>2026-04-06T08:47:36Z</time></trkpt><trkpt lat="44.45280112545778" lon="8.425236287638203"><ele>417.0</ele><time>2026-04-06T08:47:37Z</time></trkpt><trkpt lat="44.45266899134948" lon="8.425097934404791"><ele>417.0</ele><time>2026-04-06T08:47:38Z</time></trkpt><trkpt lat="44.45253789054384" lon="8.424955791598727"><ele>417.0</ele><time>2026-04-06T08:47:39Z</time></trkpt><trkpt lat="44.452401608458295" lon="8.424813248299335"><ele>417.0</ele><time>2026-04-06T08:47:40Z</time></trkpt><trkpt lat="44.45226146929101" lon="8.424673076292917"><ele>417.0</ele><time>2026-04-06T08:47:41Z</time></trkpt><trkpt lat="44.45212700869278" lon="8.424539525407793"><ele>417.0</ele><time>2026-04-06T08:47:42Z</time></trkpt><trkpt lat="44.45199972144815" lon="8.424409374655351"><ele>419.33333333333337</ele><time>2026-04-06T08:47:43Z</time></trkpt><trkpt lat="44.45187814264354" lon="8.424279876117419"><ele>421.6666666666667</ele><time>2026-04-06T08:47:44Z</time></trkpt><trkpt lat="44.45174738894314" lon="8.424162496427105"><ele>424.0</ele><time>2026-04-06T08:47:45Z</time></trkpt><trkpt lat="44.45160332724548" lon="8.42409495763577"><ele>424.0</ele><time>2026-04-06T08:47:46Z</time></trkpt><trkpt lat="44.45144961329579" lon="8.424095303569711"><ele>424.0</ele><time>2026-04-06T08:47:47Z</time></trkpt><trkpt lat="44.45129161476914" lon="8.424168499203205"><ele>424.0</ele><time>2026-04-06T08:47:48Z</time></trkpt><trkpt lat="44.45114112901243" lon="8.424292881948984"><ele>422.33333333333337</ele><time>2026-04-06T08:47:49Z</time></trkpt><trkpt lat="44.45100419642663" lon="8.424443950609215"><ele>420.66666666666663</ele><time>2026-04-06T08:47:50Z</time></trkpt><trkpt lat="44.45085046099572" lon="8.424576433162208"><ele>419.0</ele><time>2026-04-06T08:47:51Z</time></trkpt><trkpt lat="44.45070200102303" lon="8.424709985320384"><ele>419.0</ele><time>2026-04-06T08:47:52Z</time></trkpt><trkpt lat="44.45055539338742" lon="8.424849253176815"><ele>419.0</ele><time>2026-04-06T08:47:53Z</time></trkpt><trkpt lat="44.45040489040948" lon="8.424990950053262"><ele>419.0</ele><time>2026-04-06T08:47:54Z</time></trkpt><trkpt lat="44.45024888390908" lon="8.425131927624452"><ele>419.3333333333333</ele><time>2026-04-06T08:47:55Z</time></trkpt><trkpt lat="44.450086903107945" lon="8.425274743822744"><ele>419.66666666666663</ele><time>2026-04-06T08:47:56Z</time></trkpt><trkpt lat="44.449928865178094" lon="8.425413090529954"><ele>420.0</ele><time>2026-04-06T08:47:57Z</time></trkpt><trkpt lat="44.449774657810956" lon="8.425543188357828"><ele>424.0</ele><time>2026-04-06T08:47:58Z</time></trkpt><trkpt lat="44.44962373402599" lon="8.425685434505295"><ele>428.0</ele><time>2026-04-06T08:47:59Z</time></trkpt><trkpt lat="44.44947535423116" lon="8.425845261027002"><ele>432.0</ele><time>2026-04-06T08:48:00Z</time></trkpt><trkpt lat="44.44933177012845" lon="8.426007968171854"><ele>432.0</ele><time>2026-04-06T08:48:01Z</time></trkpt><trkpt lat="44.44920042817433" lon="8.426166619864732"><ele>432.0</ele><time>2026-04-06T08:48:02Z</time></trkpt><trkpt lat="44.44908197133518" lon="8.426307393852689"><ele>432.0</ele><time>2026-04-06T08:48:03Z</time></trkpt><trkpt lat="44.44896859021819" lon="8.426435049695732"><ele>430.5</ele><time>2026-04-06T08:48:04Z</time></trkpt><trkpt lat="44.44886160047626" lon="8.426559923992272"><ele>429.0</ele><time>2026-04-06T08:48:05Z</time></trkpt><trkpt lat="44.448762728810216" lon="8.426674508380266"><ele>427.5</ele><time>2026-04-06T08:48:06Z</time></trkpt><trkpt lat="44.448665534812896" lon="8.426780460557229"><ele>426.0</ele><time>2026-04-06T08:48:07Z</time></trkpt><trkpt lat="44.44857495539959" lon="8.426884366214946"><ele>426.0</ele><time>2026-04-06T08:48:08Z</time></trkpt><trkpt lat="44.44849113769571" lon="8.426993632607333"><ele>426.0</ele><time>2026-04-06T08:48:09Z</time></trkpt><trkpt lat="44.44842136325005" lon="8.427107563436465"><ele>426.0</ele><time>2026-04-06T08:48:10Z</time></trkpt><trkpt lat="44.4483616780848" lon="8.427223556624707"><ele>426.0</ele><time>2026-04-06T08:48:11Z</time></trkpt><trkpt lat="44.44830150396363" lon="8.427320262356963"><ele>426.0</ele><time>2026-04-06T08:48:12Z</time></trkpt><trkpt lat="44.448239876410966" lon="8.42739830494234"><ele>426.0</ele><time>2026-04-06T08:48:13Z</time></trkpt><trkpt lat="44.44818023926405" lon="8.42745031846524"><ele>426.0</ele><time>2026-04-06T08:48:14Z</time></trkpt><trkpt lat="44.4480654063289" lon="8.42745075765388"><ele>426.0</ele><time>2026-04-06T08:48:16Z</time></trkpt><trkpt lat="44.44800508752943" lon="8.427326485915135"><ele>426.0</ele><time>2026-04-06T08:48:18Z</time></trkpt><trkpt lat="44.44800513641396" lon="8.427221916841"><ele>426.0</ele><time>2026-04-06T08:48:19Z</time></trkpt><trkpt lat="44.44804542843527" lon="8.427123868395288"><ele>426.0</ele><time>2026-04-06T08:48:20Z</time></trkpt><trkpt lat="44.44810858327394" lon="8.42702790281576"><ele>426.0</ele><time>2026-04-06T08:48:21Z</time></trkpt><trkpt lat="44.44818222075518" lon="8.426898854455391"><ele>426.0</ele><time>2026-04-06T08:48:22Z</time></trkpt><trkpt lat="44.44823007823593" lon="8.426742551703354"><ele>426.0</ele><time>2026-04-06T08:48:23Z</time></trkpt><trkpt lat="44.44825510023529" lon="8.4265632538937"><ele>426.0</ele><time>2026-04-06T08:48:24Z</time></trkpt><trkpt lat="44.44825612225144" lon="8.42638680254709"><ele>430.0</ele><time>2026-04-06T08:48:25Z</time></trkpt><trkpt lat="44.44823352636806" lon="8.42619207569009"><ele>434.0</ele><time>2026-04-06T08:48:26Z</time></trkpt><trkpt lat="44.448180193758176" lon="8.425995344598842"><ele>438.0</ele><time>2026-04-06T08:48:27Z</time></trkpt><trkpt lat="44.448104357841096" lon="8.425796569593416"><ele>438.0</ele><time>2026-04-06T08:48:28Z</time></trkpt><trkpt lat="44.44798961895901" lon="8.42561209629276"><ele>438.0</ele><time>2026-04-06T08:48:28.999Z</time></trkpt><trkpt lat="44.44786546173907" lon="8.425457237293463"><ele>438.0</ele><time>2026-04-06T08:48:29.999Z</time></trkpt><trkpt lat="44.44772136502598" lon="8.425335327128746"><ele>443.33333333333337</ele><time>2026-04-06T08:48:30.999Z</time></trkpt><trkpt lat="44.4475548752503" lon="8.42525788280131"><ele>448.6666666666667</ele><time>2026-04-06T08:48:31.999Z</time></trkpt><trkpt lat="44.447377797776824" lon="8.425227375875513"><ele>454.0</ele><time>2026-04-06T08:48:32.999Z</time></trkpt><trkpt lat="44.44720046338704" lon="8.425243243170224"><ele>455.33333333333337</ele><time>2026-04-06T08:48:33.999Z</time></trkpt><trkpt lat="44.44701595083747" lon="8.425280857950305"><ele>456.66666666666663</ele><time>2026-04-06T08:48:34.999Z</time></trkpt><trkpt lat="44.44682810214692" lon="8.425309095161127"><ele>458.0</ele><time>2026-04-06T08:48:35.999Z</time></trkpt><trkpt lat="44.446645455589135" lon="8.425327433723035"><ele>458.0</ele><time>2026-04-06T08:48:36.999Z</time></trkpt><trkpt lat="44.446474371840985" lon="8.425338898611521"><ele>458.0</ele><time>2026-04-06T08:48:37.999Z</time></trkpt><trkpt lat="44.44627389858141" lon="8.425348541484066"><ele>458.0</ele><time>2026-04-06T08:48:38.999Z</time></trkpt><trkpt lat="44.446092983318636" lon="8.425364400247565"><ele>460.66666666666663</ele><time>2026-04-06T08:48:39.999Z</time></trkpt><trkpt lat="44.44591822918462" lon="8.425412728847526"><ele>463.33333333333337</ele><time>2026-04-06T08:48:40.999Z</time></trkpt><trkpt lat="44.445745434324444" lon="8.425515512312527"><ele>466.0</ele><time>2026-04-06T08:48:41.999Z</time></trkpt><trkpt lat="44.44557329782346" lon="8.42563959971522"><ele>468.0</ele><time>2026-04-06T08:48:42.999Z</time></trkpt><trkpt lat="44.44540383733047" lon="8.425784368024097"><ele>470.0</ele><time>2026-04-06T08:48:43.999Z</time></trkpt><trkpt lat="44.44526094003585" lon="8.425947931562517"><ele>472.0</ele><time>2026-04-06T08:48:44.999Z</time></trkpt><trkpt lat="44.44514279170384" lon="8.426118664149275"><ele>472.0</ele><time>2026-04-06T08:48:45.999Z</time></trkpt><trkpt lat="44.4450393213318" lon="8.426296369775931"><ele>472.0</ele><time>2026-04-06T08:48:46.999Z</time></trkpt><trkpt lat="44.444942810678754" lon="8.426454578811391"><ele>472.0</ele><time>2026-04-06T08:48:47.999Z</time></trkpt><trkpt lat="44.44484403470917" lon="8.426588962241688"><ele>468.5</ele><time>2026-04-06T08:48:48.999Z</time></trkpt><trkpt lat="44.444739063360096" lon="8.42668467361605"><ele>465.0</ele><time>2026-04-06T08:48:49.999Z</time></trkpt><trkpt lat="44.444606953160786" lon="8.426720956665575"><ele>461.5</ele><time>2026-04-06T08:48:50.999Z</time></trkpt><trkpt lat="44.44445712301513" lon="8.426685517180596"><ele>458.0</ele><time>2026-04-06T08:48:51.999Z</time></trkpt><trkpt lat="44.44432127156098" lon="8.426595331750246"><ele>458.0</ele><time>2026-04-06T08:48:52.999Z</time></trkpt><trkpt lat="44.44419799834736" lon="8.426451041355477"><ele>458.0</ele><time>2026-04-06T08:48:53.999Z</time></trkpt><trkpt lat="44.44408668473336" lon="8.426288558385396"><ele>458.0</ele><time>2026-04-06T08:48:54.999Z</time></trkpt><trkpt lat="44.44396727725503" lon="8.426134374153898"><ele>458.3333333333333</ele><time>2026-04-06T08:48:55.999Z</time></trkpt><trkpt lat="44.443843745488216" lon="8.42598849618236"><ele>458.66666666666663</ele><time>2026-04-06T08:48:56.999Z</time></trkpt><trkpt lat="44.44372602204986" lon="8.425840237507673"><ele>459.0</ele><time>2026-04-06T08:48:57.999Z</time></trkpt><trkpt lat="44.44361643663663" lon="8.425674025878603"><ele>459.0</ele><time>2026-04-06T08:48:58.999Z</time></trkpt><trkpt lat="44.443521798768415" lon="8.425494033803432"><ele>459.0</ele><time>2026-04-06T08:48:59.999Z</time></trkpt><trkpt lat="44.44343903837203" lon="8.425324390415499"><ele>459.0</ele><time>2026-04-06T08:49:00.999Z</time></trkpt><trkpt lat="44.44336887007599" lon="8.425181361864219"><ele>459.0</ele><time>2026-04-06T08:49:01.999Z</time></trkpt><trkpt lat="44.44331139585468" lon="8.42506368987432"><ele>461.3333333333333</ele><time>2026-04-06T08:49:02.999Z</time></trkpt><trkpt lat="44.44326072359833" lon="8.424983616896316"><ele>463.66666666666663</ele><time>2026-04-06T08:49:03.999Z</time></trkpt><trkpt lat="44.44323280743589" lon="8.424903108440132"><ele>466.0</ele><time>2026-04-06T08:49:04.999Z</time></trkpt><trkpt lat="44.44331473539346" lon="8.424768093097345"><ele>468.3333333333333</ele><time>2026-04-06T08:49:06.999Z</time></trkpt><trkpt lat="44.44339758497004" lon="8.42476427088574"><ele>470.66666666666663</ele><time>2026-04-06T08:49:07.999Z</time></trkpt><trkpt lat="44.4434801180038" lon="8.424835230752239"><ele>473.0</ele><time>2026-04-06T08:49:08.999Z</time></trkpt><trkpt lat="44.44353686547461" lon="8.424955380358675"><ele>473.0</ele><time>2026-04-06T08:49:10Z</time></trkpt><trkpt lat="44.443586019706935" lon="8.425108622100803"><ele>473.0</ele><time>2026-04-06T08:49:11Z</time></trkpt><trkpt lat="44.44364463181908" lon="8.425268302511967"><ele>473.0</ele><time>2026-04-06T08:49:12Z</time></trkpt><trkpt lat="44.4437239717281" lon="8.425429389890299"><ele>473.0</ele><time>2026-04-06T08:49:13Z</time></trkpt><trkpt lat="44.443820913660794" lon="8.425586832074291"><ele>475.0</ele><time>2026-04-06T08:49:14Z</time></trkpt><trkpt lat="44.443928379561235" lon="8.425717204704272"><ele>477.0</ele><time>2026-04-06T08:49:15Z</time></trkpt><trkpt lat="44.44406000730301" lon="8.425844474339156"><ele>479.0</ele><time>2026-04-06T08:49:16Z</time></trkpt><trkpt lat="44.44419781010236" lon="8.42595225904143"><ele>479.0</ele><time>2026-04-06T08:49:17Z</time></trkpt><trkpt lat="44.44431354562786" lon="8.42604128648641"><ele>479.0</ele><time>2026-04-06T08:49:18Z</time></trkpt><trkpt lat="44.44440854626323" lon="8.426113771581331"><ele>479.0</ele><time>2026-04-06T08:49:19Z</time></trkpt><trkpt lat="44.44449488924546" lon="8.426151084083884"><ele>479.0</ele><time>2026-04-06T08:49:20Z</time></trkpt><trkpt lat="44.44457007072415" lon="8.42613783078224"><ele>479.0</ele><time>2026-04-06T08:49:21Z</time></trkpt><trkpt lat="44.4446305681795" lon="8.42604512861541"><ele>479.0</ele><time>2026-04-06T08:49:22Z</time></trkpt><trkpt lat="44.44463847579641" lon="8.425922243741853"><ele>479.0</ele><time>2026-04-06T08:49:23Z</time></trkpt><trkpt lat="44.4445909088662" lon="8.425816418879535"><ele>479.0</ele><time>2026-04-06T08:49:24Z</time></trkpt><trkpt lat="44.444505239675316" lon="8.425751297764254"><ele>479.0</ele><time>2026-04-06T08:49:25Z</time></trkpt><trkpt lat="44.444409797774746" lon="8.425686320523146"><ele>479.0</ele><time>2026-04-06T08:49:26Z</time></trkpt><trkpt lat="44.44429724344565" lon="8.42561406347419"><ele>479.0</ele><time>2026-04-06T08:49:27Z</time></trkpt><trkpt lat="44.44419757476407" lon="8.425540792691677"><ele>479.0</ele><time>2026-04-06T08:49:28Z</time></trkpt><trkpt lat="44.44409322529051" lon="8.42544290288871"><ele>479.0</ele><time>2026-04-06T08:49:29Z</time></trkpt><trkpt lat="44.443995341530915" lon="8.425296085195425"><ele>479.0</ele><time>2026-04-06T08:49:30Z</time></trkpt><trkpt lat="44.44392415389595" lon="8.425098460029814"><ele>480.66666666666663</ele><time>2026-04-06T08:49:31Z</time></trkpt><trkpt lat="44.44386171408562" lon="8.42487743300742"><ele>482.33333333333337</ele><time>2026-04-06T08:49:32Z</time></trkpt><trkpt lat="44.44379046970123" lon="8.424668937808036"><ele>484.0</ele><time>2026-04-06T08:49:33Z</time></trkpt><trkpt lat="44.44372323465773" lon="8.424477955723939"><ele>484.0</ele><time>2026-04-06T08:49:34Z</time></trkpt><trkpt lat="44.44365970050091" lon="8.42428851031793"><ele>484.0</ele><time>2026-04-06T08:49:35Z</time></trkpt><trkpt lat="44.44360984171355" lon="8.42409086380424"><ele>484.0</ele><time>2026-04-06T08:49:36Z</time></trkpt><trkpt lat="44.4435851035334" lon="8.423870725158121"><ele>486.6666666666667</ele><time>2026-04-06T08:49:37Z</time></trkpt><trkpt lat="44.44358356044218" lon="8.423634496487638"><ele>489.33333333333337</ele><time>2026-04-06T08:49:38Z</time></trkpt><trkpt lat="44.44359298454191" lon="8.423395362851384"><ele>492.0</ele><time>2026-04-06T08:49:39Z</time></trkpt><trkpt lat="44.443579064604414" lon="8.423192930530682"><ele>494.66666666666663</ele><time>2026-04-06T08:49:40Z</time></trkpt><trkpt lat="44.44355461077109" lon="8.422973805854546"><ele>497.3333333333333</ele><time>2026-04-06T08:49:41Z</time></trkpt><trkpt lat="44.44347976160302" lon="8.422766660631245"><ele>500.0</ele><time>2026-04-06T08:49:42Z</time></trkpt><trkpt lat="44.443390445029614" lon="8.422565318194723"><ele>500.0</ele><time>2026-04-06T08:49:43Z</time></trkpt><trkpt lat="44.44331460950805" lon="8.422364487479152"><ele>500.0</ele><time>2026-04-06T08:49:44Z</time></trkpt><trkpt lat="44.443256181545976" lon="8.422161897499098"><ele>500.0</ele><time>2026-04-06T08:49:45Z</time></trkpt><trkpt lat="44.44322294119443" lon="8.42194623618628"><ele>499.0</ele><time>2026-04-06T08:49:46Z</time></trkpt><trkpt lat="44.44322134450978" lon="8.421718886045307"><ele>498.0</ele><time>2026-04-06T08:49:47Z</time></trkpt><trkpt lat="44.44326157997678" lon="8.421489884146567"><ele>497.0</ele><time>2026-04-06T08:49:48Z</time></trkpt><trkpt lat="44.4433289512605" lon="8.421269170384955"><ele>497.0</ele><time>2026-04-06T08:49:49Z</time></trkpt><trkpt lat="44.44340579263841" lon="8.421053926264193"><ele>497.0</ele><time>2026-04-06T08:49:50Z</time></trkpt><trkpt lat="44.44350192145339" lon="8.420849877467107"><ele>497.0</ele><time>2026-04-06T08:49:51Z</time></trkpt><trkpt lat="44.443609947458704" lon="8.420665871640018"><ele>497.0</ele><time>2026-04-06T08:49:52Z</time></trkpt><trkpt lat="44.44372278726232" lon="8.42049235439751"><ele>497.0</ele><time>2026-04-06T08:49:53Z</time></trkpt><trkpt lat="44.443820550777055" lon="8.42032909323921"><ele>497.0</ele><time>2026-04-06T08:49:54Z</time></trkpt><trkpt lat="44.443912011946" lon="8.420190831701126"><ele>499.25</ele><time>2026-04-06T08:49:55Z</time></trkpt><trkpt lat="44.44401809524989" lon="8.420099888729336"><ele>501.5</ele><time>2026-04-06T08:49:56Z</time></trkpt><trkpt lat="44.44415663175832" lon="8.42007612379862"><ele>503.75</ele><time>2026-04-06T08:49:57Z</time></trkpt><trkpt lat="44.44431101411639" lon="8.420083229788453"><ele>506.0</ele><time>2026-04-06T08:49:58Z</time></trkpt><trkpt lat="44.444472056039544" lon="8.420113832270381"><ele>506.0</ele><time>2026-04-06T08:49:59Z</time></trkpt><trkpt lat="44.444620750629156" lon="8.42016249271744"><ele>506.0</ele><time>2026-04-06T08:50:00Z</time></trkpt><trkpt lat="44.44474417518159" lon="8.420247149160076"><ele>506.0</ele><time>2026-04-06T08:50:01Z</time></trkpt><trkpt lat="44.444848900986564" lon="8.420358267995505"><ele>506.0</ele><time>2026-04-06T08:50:02Z</time></trkpt><trkpt lat="44.44495674818663" lon="8.420421914500858"><ele>507.5</ele><time>2026-04-06T08:50:03Z</time></trkpt><trkpt lat="44.44506155954565" lon="8.420424196688113"><ele>509.0</ele><time>2026-04-06T08:50:04Z</time></trkpt><trkpt lat="44.44516748933162" lon="8.420346367421464"><ele>510.5</ele><time>2026-04-06T08:50:05Z</time></trkpt><trkpt lat="44.44525936815403" lon="8.42021543113421"><ele>512.0</ele><time>2026-04-06T08:50:06Z</time></trkpt><trkpt lat="44.445361445508894" lon="8.420106458026142"><ele>516.0</ele><time>2026-04-06T08:50:07Z</time></trkpt><trkpt lat="44.44550196777408" lon="8.420058134084517"><ele>520.0</ele><time>2026-04-06T08:50:08Z</time></trkpt><trkpt lat="44.44565840454235" lon="8.420062019314203"><ele>524.0</ele><time>2026-04-06T08:50:09Z</time></trkpt><trkpt lat="44.44581656179829" lon="8.420072569574547"><ele>524.0</ele><time>2026-04-06T08:50:10Z</time></trkpt><trkpt lat="44.44596213479202" lon="8.420027694872568"><ele>524.0</ele><time>2026-04-06T08:50:11Z</time></trkpt><trkpt lat="44.446098665428316" lon="8.41993247804357"><ele>524.0</ele><time>2026-04-06T08:50:12Z</time></trkpt><trkpt lat="44.446234003615466" lon="8.419802912204437"><ele>521.6666666666666</ele><time>2026-04-06T08:50:13Z</time></trkpt><trkpt lat="44.44637661238813" lon="8.419697757100618"><ele>519.3333333333334</ele><time>2026-04-06T08:50:14Z</time></trkpt><trkpt lat="44.446534540095406" lon="8.419618875841078"><ele>517.0</ele><time>2026-04-06T08:50:15Z</time></trkpt><trkpt lat="44.446696703172165" lon="8.419537158613625"><ele>517.0</ele><time>2026-04-06T08:50:16Z</time></trkpt><trkpt lat="44.44683608450694" lon="8.419431760739567"><ele>517.0</ele><time>2026-04-06T08:50:17Z</time></trkpt><trkpt lat="44.446954244104894" lon="8.419321255107647"><ele>517.0</ele><time>2026-04-06T08:50:18Z</time></trkpt><trkpt lat="44.447046734566364" lon="8.419193474525464"><ele>517.0</ele><time>2026-04-06T08:50:19Z</time></trkpt><trkpt lat="44.447151051413684" lon="8.419110097387495"><ele>520.5</ele><time>2026-04-06T08:50:20Z</time></trkpt><trkpt lat="44.447273309803144" lon="8.419070563058172"><ele>524.0</ele><time>2026-04-06T08:50:21Z</time></trkpt><trkpt lat="44.44740542514548" lon="8.4190641503076"><ele>527.5</ele><time>2026-04-06T08:50:22Z</time></trkpt><trkpt lat="44.44753516702926" lon="8.419055287158212"><ele>531.0</ele><time>2026-04-06T08:50:23Z</time></trkpt><trkpt lat="44.44765013442435" lon="8.418957047875317"><ele>529.0</ele><time>2026-04-06T08:50:24Z</time></trkpt><trkpt lat="44.447712538122786" lon="8.418816903216051"><ele>527.0</ele><time>2026-04-06T08:50:25Z</time></trkpt><trkpt lat="44.447742893178805" lon="8.418646460093846"><ele>525.0</ele><time>2026-04-06T08:50:26Z</time></trkpt><trkpt lat="44.44773021084979" lon="8.418469119213004"><ele>523.0</ele><time>2026-04-06T08:50:27Z</time></trkpt><trkpt lat="44.44774263972108" lon="8.41830664148868"><ele>523.0</ele><time>2026-04-06T08:50:28Z</time></trkpt><trkpt lat="44.44781855512829" lon="8.418141353010839"><ele>523.0</ele><time>2026-04-06T08:50:29Z</time></trkpt><trkpt lat="44.447927636429895" lon="8.418018667823967"><ele>523.0</ele><time>2026-04-06T08:50:30Z</time></trkpt><trkpt lat="44.44806111739795" lon="8.417944826398474"><ele>523.0</ele><time>2026-04-06T08:50:31Z</time></trkpt><trkpt lat="44.44818951945629" lon="8.417871934284223"><ele>527.0</ele><time>2026-04-06T08:50:31.999Z</time></trkpt><trkpt lat="44.44830443092344" lon="8.41777110229305"><ele>531.0</ele><time>2026-04-06T08:50:32.999Z</time></trkpt><trkpt lat="44.44839317716513" lon="8.417647150882102"><ele>535.0</ele><time>2026-04-06T08:50:33.999Z</time></trkpt><trkpt lat="44.448445532730744" lon="8.417513195823648"><ele>539.0</ele><time>2026-04-06T08:50:34.999Z</time></trkpt><trkpt lat="44.44844591489433" lon="8.417370787429451"><ele>539.0</ele><time>2026-04-06T08:50:35.999Z</time></trkpt><trkpt lat="44.44839326101263" lon="8.417226891307958"><ele>539.0</ele><time>2026-04-06T08:50:36.999Z</time></trkpt><trkpt lat="44.448320410662014" lon="8.417085231334559"><ele>539.0</ele><time>2026-04-06T08:50:37.999Z</time></trkpt><trkpt lat="44.44824798753603" lon="8.416954172297245"><ele>539.0</ele><time>2026-04-06T08:50:38.999Z</time></trkpt><trkpt lat="44.44817710980412" lon="8.416828766615245"><ele>540.25</ele><time>2026-04-06T08:50:39.999Z</time></trkpt><trkpt lat="44.44812215224427" lon="8.416705635362382"><ele>541.5</ele><time>2026-04-06T08:50:40.999Z</time></trkpt><trkpt lat="44.44809932039968" lon="8.416554146204195"><ele>542.75</ele><time>2026-04-06T08:50:41.999Z</time></trkpt><trkpt lat="44.44811019811228" lon="8.416395716359537"><ele>544.0</ele><time>2026-04-06T08:50:42.999Z</time></trkpt><trkpt lat="44.44814237897516" lon="8.416227535065387"><ele>544.0</ele><time>2026-04-06T08:50:43.999Z</time></trkpt><trkpt lat="44.4482116228092" lon="8.416063155014626"><ele>544.0</ele><time>2026-04-06T08:50:44.999Z</time></trkpt><trkpt lat="44.44830688528972" lon="8.415910520163063"><ele>544.0</ele><time>2026-04-06T08:50:45.999Z</time></trkpt><trkpt lat="44.44839000013277" lon="8.415780239888905"><ele>544.0</ele><time>2026-04-06T08:50:46.999Z</time></trkpt><trkpt lat="44.4484629021408" lon="8.415669686848391"><ele>544.0</ele><time>2026-04-06T08:50:47.999Z</time></trkpt><trkpt lat="44.448532007993585" lon="8.415562508514297"><ele>544.0</ele><time>2026-04-06T08:50:48.999Z</time></trkpt><trkpt lat="44.44860021668115" lon="8.415466885671341"><ele>544.0</ele><time>2026-04-06T08:50:49.999Z</time></trkpt><trkpt lat="44.448678959950584" lon="8.415374064738556"><ele>544.0</ele><time>2026-04-06T08:50:50.999Z</time></trkpt><trkpt lat="44.44876318827817" lon="8.415288176680484"><ele>544.0</ele><time>2026-04-06T08:50:51.999Z</time></trkpt><trkpt lat="44.448842327557834" lon="8.415210497311197"><ele>547.1666666666667</ele><time>2026-04-06T08:50:52.999Z</time></trkpt><trkpt lat="44.44890180821123" lon="8.415118261306109"><ele>550.3333333333334</ele><time>2026-04-06T08:50:53.999Z</time></trkpt><trkpt lat="44.44893365396507" lon="8.415002860952098"><ele>553.5</ele><time>2026-04-06T08:50:54.999Z</time></trkpt><trkpt lat="44.448929150188974" lon="8.414882258112815"><ele>556.6666666666666</ele><time>2026-04-06T08:50:55.999Z</time></trkpt><trkpt lat="44.44890325016361" lon="8.414766569989968"><ele>559.8333333333333</ele><time>2026-04-06T08:50:56.999Z</time></trkpt><trkpt lat="44.448898684275555" lon="8.414645417690341"><ele>563.0</ele><time>2026-04-06T08:50:57.999Z</time></trkpt><trkpt lat="44.44894097892856" lon="8.414526265784497"><ele>563.0</ele><time>2026-04-06T08:50:58.999Z</time></trkpt><trkpt lat="44.449014859899876" lon="8.4144494588524"><ele>563.0</ele><time>2026-04-06T08:50:59.999Z</time></trkpt><trkpt lat="44.449056818354364" lon="8.414359308537346"><ele>563.0</ele><time>2026-04-06T08:51:00.999Z</time></trkpt><trkpt lat="44.44905687545861" lon="8.414243724189491"><ele>563.0</ele><time>2026-04-06T08:51:01.999Z</time></trkpt><trkpt lat="44.449025465535954" lon="8.414113916199282"><ele>563.0</ele><time>2026-04-06T08:51:02.999Z</time></trkpt><trkpt lat="44.44897482617342" lon="8.413987599316135"><ele>563.0</ele><time>2026-04-06T08:51:03.999Z</time></trkpt><trkpt lat="44.448927323285716" lon="8.413859856506225"><ele>563.0</ele><time>2026-04-06T08:51:04.999Z</time></trkpt><trkpt lat="44.44888432416146" lon="8.413741287339493"><ele>563.0</ele><time>2026-04-06T08:51:05.999Z</time></trkpt><trkpt lat="44.4488241407621" lon="8.413640490935359"><ele>563.0</ele><time>2026-04-06T08:51:06.999Z</time></trkpt><trkpt lat="44.448740176666625" lon="8.413561859392752"><ele>563.0</ele><time>2026-04-06T08:51:07.999Z</time></trkpt><trkpt lat="44.44865113402378" lon="8.413486557749195"><ele>560.1999999999999</ele><time>2026-04-06T08:51:08.999Z</time></trkpt><trkpt lat="44.44857535116783" lon="8.41339149110424"><ele>557.4</ele><time>2026-04-06T08:51:09.999Z</time></trkpt><trkpt lat="44.448511641345405" lon="8.413280643022379"><ele>554.5999999999999</ele><time>2026-04-06T08:51:10.999Z</time></trkpt><trkpt lat="44.44844768709899" lon="8.413162114832163"><ele>551.8</ele><time>2026-04-06T08:51:11.999Z</time></trkpt><trkpt lat="44.448376968792914" lon="8.413040921473911"><ele>549.0</ele><time>2026-04-06T08:51:12.999Z</time></trkpt><trkpt lat="44.44830759514013" lon="8.41291921781226"><ele>548.25</ele><time>2026-04-06T08:51:13.999Z</time></trkpt><trkpt lat="44.44823832686515" lon="8.412797423730616"><ele>547.5</ele><time>2026-04-06T08:51:14.999Z</time></trkpt><trkpt lat="44.44816714208031" lon="8.412672742970535"><ele>546.75</ele><time>2026-04-06T08:51:16Z</time></trkpt><trkpt lat="44.4480957897139" lon="8.412548385054006"><ele>546.0</ele><time>2026-04-06T08:51:17Z</time></trkpt><trkpt lat="44.44802875114377" lon="8.41242158881157"><ele>544.75</ele><time>2026-04-06T08:51:18Z</time></trkpt><trkpt lat="44.44795648467352" lon="8.412287595938805"><ele>543.5</ele><time>2026-04-06T08:51:19Z</time></trkpt><trkpt lat="44.44788252501658" lon="8.412151542058327"><ele>542.25</ele><time>2026-04-06T08:51:20Z</time></trkpt><trkpt lat="44.44781515305607" lon="8.41202647461688"><ele>541.0</ele><time>2026-04-06T08:51:21Z</time></trkpt><trkpt lat="44.447739574190514" lon="8.411933895573311"><ele>541.0</ele><time>2026-04-06T08:51:22Z</time></trkpt><trkpt lat="44.4476558840716" lon="8.411877898586276"><ele>541.0</ele><time>2026-04-06T08:51:23Z</time></trkpt><trkpt lat="44.447573451891316" lon="8.41184248095172"><ele>541.0</ele><time>2026-04-06T08:51:24Z</time></trkpt><trkpt lat="44.44749923943157" lon="8.41178468684556"><ele>541.0</ele><time>2026-04-06T08:51:25Z</time></trkpt><trkpt lat="44.44744272464501" lon="8.411681787286877"><ele>541.0</ele><time>2026-04-06T08:51:26Z</time></trkpt><trkpt lat="44.44741574492361" lon="8.411548961414223"><ele>541.0</ele><time>2026-04-06T08:51:27Z</time></trkpt><trkpt lat="44.44740636041245" lon="8.411378920387856"><ele>541.0</ele><time>2026-04-06T08:51:28Z</time></trkpt><trkpt lat="44.44738537428555" lon="8.411166945148212"><ele>541.0</ele><time>2026-04-06T08:51:29Z</time></trkpt><trkpt lat="44.447349616458716" lon="8.41096572295109"><ele>541.0</ele><time>2026-04-06T08:51:30Z</time></trkpt><trkpt lat="44.447311419550154" lon="8.410768416623942"><ele>539.0</ele><time>2026-04-06T08:51:31Z</time></trkpt><trkpt lat="44.44728259807722" lon="8.41056690018384"><ele>537.0</ele><time>2026-04-06T08:51:32Z</time></trkpt><trkpt lat="44.44727287851316" lon="8.410346904146536"><ele>535.0</ele><time>2026-04-06T08:51:33Z</time></trkpt><trkpt lat="44.447279969630834" lon="8.410134301657807"><ele>533.25</ele><time>2026-04-06T08:51:34Z</time></trkpt><trkpt lat="44.4472986159519" lon="8.409926105641897"><ele>531.5</ele><time>2026-04-06T08:51:35Z</time></trkpt><trkpt lat="44.44732204975476" lon="8.409731009799406"><ele>529.75</ele><time>2026-04-06T08:51:36Z</time></trkpt><trkpt lat="44.44733182653281" lon="8.409526059545179"><ele>528.0</ele><time>2026-04-06T08:51:37Z</time></trkpt><trkpt lat="44.4472914311106" lon="8.409347158058019"><ele>527.0</ele><time>2026-04-06T08:51:38Z</time></trkpt><trkpt lat="44.44724446542273" lon="8.409205120043564"><ele>526.0</ele><time>2026-04-06T08:51:39Z</time></trkpt><trkpt lat="44.447222635741625" lon="8.409101233574034"><ele>525.0</ele><time>2026-04-06T08:51:40Z</time></trkpt><trkpt lat="44.44729047471401" lon="8.408981119557943"><ele>524.0</ele><time>2026-04-06T08:51:42Z</time></trkpt><trkpt lat="44.44735727243954" lon="8.409009861520016"><ele>523.0</ele><time>2026-04-06T08:51:43Z</time></trkpt><trkpt lat="44.4474078371882" lon="8.40908027602462"><ele>522.0</ele><time>2026-04-06T08:51:44Z</time></trkpt><trkpt lat="44.447429772422936" lon="8.40922388744196"><ele>522.0</ele><time>2026-04-06T08:51:45Z</time></trkpt><trkpt lat="44.44744054677358" lon="8.409396301429824"><ele>522.0</ele><time>2026-04-06T08:51:46Z</time></trkpt><trkpt lat="44.44746872125853" lon="8.409539360752845"><ele>522.0</ele><time>2026-04-06T08:51:47Z</time></trkpt><trkpt lat="44.4475105660761" lon="8.409623472579261"><ele>522.0</ele><time>2026-04-06T08:51:48Z</time></trkpt><trkpt lat="44.44759528690073" lon="8.40964149357041"><ele>522.0</ele><time>2026-04-06T08:51:49Z</time></trkpt><trkpt lat="44.447679723257124" lon="8.409585516099773"><ele>522.0</ele><time>2026-04-06T08:51:50Z</time></trkpt><trkpt lat="44.44773336158499" lon="8.409468141276026"><ele>522.0</ele><time>2026-04-06T08:51:51Z</time></trkpt><trkpt lat="44.4477491142173" lon="8.40930080539926"><ele>522.0</ele><time>2026-04-06T08:51:52Z</time></trkpt><trkpt lat="44.447726845333875" lon="8.409123452544888"><ele>522.0</ele><time>2026-04-06T08:51:53Z</time></trkpt><trkpt lat="44.447656692511565" lon="8.408975308424475"><ele>522.0</ele><time>2026-04-06T08:51:54Z</time></trkpt><trkpt lat="44.44756317492513" lon="8.408861380208961"><ele>522.0</ele><time>2026-04-06T08:51:55Z</time></trkpt><trkpt lat="44.44750462373343" lon="8.408728771888534"><ele>522.0</ele><time>2026-04-06T08:51:56Z</time></trkpt><trkpt lat="44.44749465298558" lon="8.408549737816545"><ele>522.0</ele><time>2026-04-06T08:51:57Z</time></trkpt><trkpt lat="44.447549268128085" lon="8.408335973999494"><ele>520.6666666666666</ele><time>2026-04-06T08:51:58Z</time></trkpt><trkpt lat="44.44760097995107" lon="8.408101635147736"><ele>519.3333333333333</ele><time>2026-04-06T08:51:59Z</time></trkpt><trkpt lat="44.44761832420117" lon="8.407853893761166"><ele>518.0</ele><time>2026-04-06T08:52:00Z</time></trkpt><trkpt lat="44.4476140851035" lon="8.407592463692508"><ele>516.3333333333333</ele><time>2026-04-06T08:52:01Z</time></trkpt><trkpt lat="44.447596793576786" lon="8.407316687272223"><ele>514.6666666666666</ele><time>2026-04-06T08:52:02Z</time></trkpt><trkpt lat="44.447577359358405" lon="8.407033235086663"><ele>513.0</ele><time>2026-04-06T08:52:03Z</time></trkpt><trkpt lat="44.44756496793339" lon="8.406727752079648"><ele>510.0</ele><time>2026-04-06T08:52:04Z</time></trkpt><trkpt lat="44.447541603188796" lon="8.406398989596198"><ele>507.0</ele><time>2026-04-06T08:52:05Z</time></trkpt><trkpt lat="44.44751568925418" lon="8.406077686327887"><ele>505.0</ele><time>2026-04-06T08:52:06Z</time></trkpt><trkpt lat="44.447484525301775" lon="8.405768940909804"><ele>503.0</ele><time>2026-04-06T08:52:07Z</time></trkpt><trkpt lat="44.44745649910887" lon="8.405478170881539"><ele>501.0</ele><time>2026-04-06T08:52:08Z</time></trkpt><trkpt lat="44.44743038124855" lon="8.405196084995662"><ele>498.33333333333337</ele><time>2026-04-06T08:52:09Z</time></trkpt><trkpt lat="44.447402875432914" lon="8.404910874117553"><ele>495.6666666666667</ele><time>2026-04-06T08:52:10Z</time></trkpt><trkpt lat="44.44738549280187" lon="8.404637533378565"><ele>493.0</ele><time>2026-04-06T08:52:11Z</time></trkpt><trkpt lat="44.447378853738854" lon="8.404394730536032"><ele>491.5</ele><time>2026-04-06T08:52:12Z</time></trkpt><trkpt lat="44.447383695810686" lon="8.404177440875538"><ele>490.0</ele><time>2026-04-06T08:52:13Z</time></trkpt><trkpt lat="44.44739167428133" lon="8.403972176506565"><ele>488.5</ele><time>2026-04-06T08:52:14Z</time></trkpt><trkpt lat="44.44740141927543" lon="8.403772269637344"><ele>487.0</ele><time>2026-04-06T08:52:15Z</time></trkpt><trkpt lat="44.44740143465562" lon="8.403577085637446"><ele>486.5</ele><time>2026-04-06T08:52:16Z</time></trkpt><trkpt lat="44.44738677461491" lon="8.403381024192841"><ele>486.0</ele><time>2026-04-06T08:52:17Z</time></trkpt><trkpt lat="44.44735964723371" lon="8.40319126599257"><ele>485.5</ele><time>2026-04-06T08:52:18Z</time></trkpt><trkpt lat="44.44732897311977" lon="8.403003699757608"><ele>485.0</ele><time>2026-04-06T08:52:19Z</time></trkpt><trkpt lat="44.44730463895377" lon="8.402823003041041"><ele>485.0</ele><time>2026-04-06T08:52:20Z</time></trkpt><trkpt lat="44.44728046935688" lon="8.402636201969457"><ele>485.0</ele><time>2026-04-06T08:52:20.999Z</time></trkpt><trkpt lat="44.447245218616075" lon="8.40245036265265"><ele>485.0</ele><time>2026-04-06T08:52:21.999Z</time></trkpt><trkpt lat="44.44719462178977" lon="8.402267613995337"><ele>485.0</ele><time>2026-04-06T08:52:22.999Z</time></trkpt><trkpt lat="44.44713949440972" lon="8.402089322646098"><ele>483.2</ele><time>2026-04-06T08:52:23.999Z</time></trkpt><trkpt lat="44.44708423608538" lon="8.401917555140246"><ele>481.4</ele><time>2026-04-06T08:52:24.999Z</time></trkpt><trkpt lat="44.44703724580407" lon="8.401767964575093"><ele>479.6</ele><time>2026-04-06T08:52:25.999Z</time></trkpt><trkpt lat="44.44699908568772" lon="8.40164185088138"><ele>477.8</ele><time>2026-04-06T08:52:26.999Z</time></trkpt><trkpt lat="44.446961408283656" lon="8.40151225048369"><ele>476.0</ele><time>2026-04-06T08:52:27.999Z</time></trkpt><trkpt lat="44.446945279203675" lon="8.40136057406329"><ele>475.5</ele><time>2026-04-06T08:52:28.999Z</time></trkpt><trkpt lat="44.44695066290516" lon="8.401186514390982"><ele>475.0</ele><time>2026-04-06T08:52:29.999Z</time></trkpt><trkpt lat="44.44695873755334" lon="8.40100133882345"><ele>474.5</ele><time>2026-04-06T08:52:30.999Z</time></trkpt><trkpt lat="44.446967385770456" lon="8.400820707864964"><ele>474.0</ele><time>2026-04-06T08:52:31.999Z</time></trkpt><trkpt lat="44.44697130635927" lon="8.400654023910494"><ele>474.0</ele><time>2026-04-06T08:52:32.999Z</time></trkpt><trkpt lat="44.44697238271531" lon="8.400517151388792"><ele>474.0</ele><time>2026-04-06T08:52:33.999Z</time></trkpt><trkpt lat="44.44696976623919" lon="8.400390381025582"><ele>474.0</ele><time>2026-04-06T08:52:34.999Z</time></trkpt><trkpt lat="44.44697477557651" lon="8.400271419287773"><ele>474.0</ele><time>2026-04-06T08:52:35.999Z</time></trkpt><trkpt lat="44.446988391636346" lon="8.400158406241404"><ele>474.0</ele><time>2026-04-06T08:52:36.999Z</time></trkpt><trkpt lat="44.44701562222251" lon="8.400053053014142"><ele>474.0</ele><time>2026-04-06T08:52:37.999Z</time></trkpt><trkpt lat="44.447052385604614" lon="8.399959136747608"><ele>474.5</ele><time>2026-04-06T08:52:38.999Z</time></trkpt><trkpt lat="44.447101928540874" lon="8.399879134526621"><ele>475.0</ele><time>2026-04-06T08:52:39.999Z</time></trkpt><trkpt lat="44.447158590956896" lon="8.39978553823013"><ele>475.5</ele><time>2026-04-06T08:52:40.999Z</time></trkpt><trkpt lat="44.447194750313855" lon="8.399674637834236"><ele>476.0</ele><time>2026-04-06T08:52:41.999Z</time></trkpt><trkpt lat="44.447207531458666" lon="8.399559698529837"><ele>476.5</ele><time>2026-04-06T08:52:42.999Z</time></trkpt><trkpt lat="44.44721765902627" lon="8.399451537466634"><ele>477.0</ele><time>2026-04-06T08:52:43.999Z</time></trkpt><trkpt lat="44.447238464782565" lon="8.399356265622677"><ele>477.0</ele><time>2026-04-06T08:52:44.999Z</time></trkpt><trkpt lat="44.447262525465206" lon="8.399248562446807"><ele>477.00000000000006</ele><time>2026-04-06T08:52:46.999Z</time></trkpt><trkpt lat="44.447220512250674" lon="8.399336333915327"><ele>477.00000000000006</ele><time>2026-04-06T08:53:37Z</time></trkpt><trkpt lat="44.44720454726256" lon="8.39943350788582"><ele>477.0</ele><time>2026-04-06T08:53:38Z</time></trkpt><trkpt lat="44.447183385358" lon="8.399546915006644"><ele>477.0</ele><time>2026-04-06T08:53:39Z</time></trkpt><trkpt lat="44.44713028622255" lon="8.39975081885483"><ele>477.40000000000003</ele><time>2026-04-06T08:53:40Z</time></trkpt><trkpt lat="44.447076741130175" lon="8.399868959429082"><ele>477.80000000000007</ele><time>2026-04-06T08:53:41Z</time></trkpt><trkpt lat="44.447020308979205" lon="8.399959779874667"><ele>478.2</ele><time>2026-04-06T08:53:42Z</time></trkpt><trkpt lat="44.44698567581817" lon="8.40005720970907"><ele>478.6</ele><time>2026-04-06T08:53:43Z</time></trkpt><trkpt lat="44.446966426662804" lon="8.40019031264025"><ele>479.0</ele><time>2026-04-06T08:53:44Z</time></trkpt><trkpt lat="44.44695736894663" lon="8.40035037900431"><ele>477.75</ele><time>2026-04-06T08:53:45Z</time></trkpt><trkpt lat="44.44695417570409" lon="8.400527324236297"><ele>476.5</ele><time>2026-04-06T08:53:46Z</time></trkpt><trkpt lat="44.44695418913084" lon="8.400718977755815"><ele>475.25</ele><time>2026-04-06T08:53:47Z</time></trkpt><trkpt lat="44.446945816898456" lon="8.400906562160257"><ele>474.0</ele><time>2026-04-06T08:53:48Z</time></trkpt><trkpt lat="44.44693871617643" lon="8.401079977808882"><ele>474.0</ele><time>2026-04-06T08:53:49Z</time></trkpt><trkpt lat="44.446934437602756" lon="8.401250782459293"><ele>474.0</ele><time>2026-04-06T08:53:50Z</time></trkpt><trkpt lat="44.44693470026002" lon="8.401422247804904"><ele>474.0</ele><time>2026-04-06T08:53:51Z</time></trkpt><trkpt lat="44.446954392451495" lon="8.401602027203609"><ele>474.0</ele><time>2026-04-06T08:53:52Z</time></trkpt><trkpt lat="44.44700743567608" lon="8.401774748390148"><ele>474.5</ele><time>2026-04-06T08:53:53Z</time></trkpt><trkpt lat="44.447080943207844" lon="8.401957281371493"><ele>475.0</ele><time>2026-04-06T08:53:54Z</time></trkpt><trkpt lat="44.447137968527855" lon="8.40213158217411"><ele>475.5</ele><time>2026-04-06T08:53:55Z</time></trkpt><trkpt lat="44.44718027010191" lon="8.402282573344428"><ele>476.0</ele><time>2026-04-06T08:53:56Z</time></trkpt><trkpt lat="44.44722609275741" lon="8.402446748180147"><ele>477.5</ele><time>2026-04-06T08:53:57Z</time></trkpt><trkpt lat="44.44727028710024" lon="8.402627525056657"><ele>479.0</ele><time>2026-04-06T08:53:57.999Z</time></trkpt><trkpt lat="44.44730163693413" lon="8.402831477371606"><ele>480.5</ele><time>2026-04-06T08:53:58.999Z</time></trkpt><trkpt lat="44.44731986540508" lon="8.403038625552266"><ele>482.0</ele><time>2026-04-06T08:53:59.999Z</time></trkpt><trkpt lat="44.44733539559607" lon="8.403249342475219"><ele>482.0</ele><time>2026-04-06T08:54:00.999Z</time></trkpt><trkpt lat="44.44735154761034" lon="8.403462250464084"><ele>482.0</ele><time>2026-04-06T08:54:01.999Z</time></trkpt><trkpt lat="44.4473619904311" lon="8.40367063757395"><ele>482.0</ele><time>2026-04-06T08:54:02.999Z</time></trkpt><trkpt lat="44.44736633532275" lon="8.403876282849705"><ele>482.0</ele><time>2026-04-06T08:54:03.999Z</time></trkpt><trkpt lat="44.447358157473616" lon="8.40408025351597"><ele>483.66666666666663</ele><time>2026-04-06T08:54:04.999Z</time></trkpt><trkpt lat="44.447346406376376" lon="8.404286436542668"><ele>485.33333333333337</ele><time>2026-04-06T08:54:05.999Z</time></trkpt><trkpt lat="44.44733992707801" lon="8.404510510098126"><ele>487.0</ele><time>2026-04-06T08:54:06.999Z</time></trkpt><trkpt lat="44.4473429713337" lon="8.40472588221617"><ele>489.0</ele><time>2026-04-06T08:54:07.999Z</time></trkpt><trkpt lat="44.447367072077235" lon="8.404965403232122"><ele>491.0</ele><time>2026-04-06T08:54:08.999Z</time></trkpt><trkpt lat="44.44739129171681" lon="8.405184005027332"><ele>493.0</ele><time>2026-04-06T08:54:09.999Z</time></trkpt><trkpt lat="44.44741390774708" lon="8.405385033460322"><ele>495.6666666666667</ele><time>2026-04-06T08:54:10.999Z</time></trkpt><trkpt lat="44.447432071754825" lon="8.405590769034843"><ele>498.33333333333337</ele><time>2026-04-06T08:54:11.999Z</time></trkpt><trkpt lat="44.447451406082315" lon="8.40580748985536"><ele>501.0</ele><time>2026-04-06T08:54:12.999Z</time></trkpt><trkpt lat="44.44746890211594" lon="8.406030181443642"><ele>501.0</ele><time>2026-04-06T08:54:13.999Z</time></trkpt><trkpt lat="44.44748703088381" lon="8.406251904841104"><ele>501.0</ele><time>2026-04-06T08:54:14.999Z</time></trkpt><trkpt lat="44.44750105167969" lon="8.406480993104456"><ele>501.0</ele><time>2026-04-06T08:54:15.999Z</time></trkpt><trkpt lat="44.44752174180286" lon="8.406712849763558"><ele>503.0</ele><time>2026-04-06T08:54:16.999Z</time></trkpt><trkpt lat="44.447538745413524" lon="8.406941163493517"><ele>505.0</ele><time>2026-04-06T08:54:17.999Z</time></trkpt><trkpt lat="44.447548315803715" lon="8.407183531351622"><ele>507.0</ele><time>2026-04-06T08:54:18.999Z</time></trkpt><trkpt lat="44.44755467753485" lon="8.407423663036983"><ele>509.0</ele><time>2026-04-06T08:54:19.999Z</time></trkpt><trkpt lat="44.44755875590289" lon="8.407660926665162"><ele>511.0</ele><time>2026-04-06T08:54:20.999Z</time></trkpt><trkpt lat="44.44756668342663" lon="8.407885357415402"><ele>513.0</ele><time>2026-04-06T08:54:21.999Z</time></trkpt><trkpt lat="44.44756764209349" lon="8.408097271947096"><ele>514.25</ele><time>2026-04-06T08:54:22.999Z</time></trkpt><trkpt lat="44.4475597060128" lon="8.408292783440471"><ele>515.5</ele><time>2026-04-06T08:54:23.999Z</time></trkpt><trkpt lat="44.4475288060336" lon="8.408472937620079"><ele>516.75</ele><time>2026-04-06T08:54:24.999Z</time></trkpt><trkpt lat="44.447498972144224" lon="8.408638447384261"><ele>518.0</ele><time>2026-04-06T08:54:25.999Z</time></trkpt><trkpt lat="44.44749811979328" lon="8.408789943496993"><ele>518.8</ele><time>2026-04-06T08:54:26.999Z</time></trkpt><trkpt lat="44.44753938336561" lon="8.408929173375673"><ele>519.5999999999999</ele><time>2026-04-06T08:54:27.999Z</time></trkpt><trkpt lat="44.447616975087826" lon="8.409042235331958"><ele>520.4000000000001</ele><time>2026-04-06T08:54:28.999Z</time></trkpt><trkpt lat="44.447686151906545" lon="8.409139857187862"><ele>521.2</ele><time>2026-04-06T08:54:29.999Z</time></trkpt><trkpt lat="44.447719869595495" lon="8.409244129809354"><ele>522.0</ele><time>2026-04-06T08:54:30.999Z</time></trkpt><trkpt lat="44.4477178898967" lon="8.409361416483597"><ele>522.0</ele><time>2026-04-06T08:54:31.999Z</time></trkpt><trkpt lat="44.4476904688684" lon="8.40947769723209"><ele>522.0</ele><time>2026-04-06T08:54:32.999Z</time></trkpt><trkpt lat="44.447645499865395" lon="8.40957315902188"><ele>522.0</ele><time>2026-04-06T08:54:33.999Z</time></trkpt><trkpt lat="44.44758168082737" lon="8.409604567633577"><ele>522.0</ele><time>2026-04-06T08:54:34.999Z</time></trkpt><trkpt lat="44.44750642601946" lon="8.409562740927482"><ele>522.0</ele><time>2026-04-06T08:54:35.999Z</time></trkpt><trkpt lat="44.4474507893553" lon="8.409478058820493"><ele>522.0</ele><time>2026-04-06T08:54:36.999Z</time></trkpt><trkpt lat="44.44743109517817" lon="8.409359731791302"><ele>522.0</ele><time>2026-04-06T08:54:37.999Z</time></trkpt><trkpt lat="44.44743283803673" lon="8.409231979032837"><ele>522.0</ele><time>2026-04-06T08:54:38.999Z</time></trkpt><trkpt lat="44.44742168317495" lon="8.409093356599532"><ele>522.0</ele><time>2026-04-06T08:54:39.999Z</time></trkpt><trkpt lat="44.44737273318936" lon="8.408982571295125"><ele>522.0</ele><time>2026-04-06T08:54:40.999Z</time></trkpt><trkpt lat="44.44726681543079" lon="8.4089532645859"><ele>522.0</ele><time>2026-04-06T08:54:42.999Z</time></trkpt><trkpt lat="44.447219036274596" lon="8.409022253973625"><ele>522.0</ele><time>2026-04-06T08:54:43.999Z</time></trkpt><trkpt lat="44.44721493253861" lon="8.409146578806853"><ele>522.0</ele><time>2026-04-06T08:54:44.999Z</time></trkpt><trkpt lat="44.44723588576348" lon="8.409272099166014"><ele>522.0</ele><time>2026-04-06T08:54:45.999Z</time></trkpt><trkpt lat="44.44726565914931" lon="8.409394659706772"><ele>522.0</ele><time>2026-04-06T08:54:46.999Z</time></trkpt><trkpt lat="44.447298662176976" lon="8.409536337565369"><ele>522.0</ele><time>2026-04-06T08:54:47.999Z</time></trkpt><trkpt lat="44.44731047916464" lon="8.409698625838022"><ele>523.5</ele><time>2026-04-06T08:54:48.999Z</time></trkpt><trkpt lat="44.44730066295547" lon="8.409834756001963"><ele>525.0</ele><time>2026-04-06T08:54:49.999Z</time></trkpt><trkpt lat="44.4472709126434" lon="8.409990940050756"><ele>526.5</ele><time>2026-04-06T08:54:50.999Z</time></trkpt><trkpt lat="44.447249439973774" lon="8.410178621161661"><ele>528.0</ele><time>2026-04-06T08:54:51.999Z</time></trkpt><trkpt lat="44.44725175971385" lon="8.410379729110417"><ele>529.75</ele><time>2026-04-06T08:54:52.999Z</time></trkpt><trkpt lat="44.44726896708751" lon="8.410573547762947"><ele>531.5</ele><time>2026-04-06T08:54:53.999Z</time></trkpt><trkpt lat="44.44729401408634" lon="8.410752168441187"><ele>533.25</ele><time>2026-04-06T08:54:54.999Z</time></trkpt><trkpt lat="44.4473395444171" lon="8.41090536667736"><ele>535.0</ele><time>2026-04-06T08:54:55.999Z</time></trkpt><trkpt lat="44.447392215869506" lon="8.411002500332698"><ele>535.0</ele><time>2026-04-06T08:54:56.999Z</time></trkpt><trkpt lat="44.44746958442456" lon="8.411029493516907"><ele>535.0</ele><time>2026-04-06T08:54:58.999Z</time></trkpt><trkpt lat="44.44754134948425" lon="8.410941020067739"><ele>535.0</ele><time>2026-04-06T08:54:59.999Z</time></trkpt><trkpt lat="44.44760433108887" lon="8.410796102974786"><ele>535.0</ele><time>2026-04-06T08:55:00.999Z</time></trkpt><trkpt lat="44.44750377325289" lon="8.411908622543434"><ele>536.2</ele><time>2026-04-06T08:55:01.999Z</time></trkpt><trkpt lat="44.447592313839564" lon="8.411983286531454"><ele>537.4</ele><time>2026-04-06T08:55:02.999Z</time></trkpt><trkpt lat="44.447697026599485" lon="8.412019446160205"><ele>538.6</ele><time>2026-04-06T08:55:03.999Z</time></trkpt><trkpt lat="44.447793750187365" lon="8.412073250118688"><ele>539.8</ele><time>2026-04-06T08:55:04.999Z</time></trkpt><trkpt lat="44.44787871705838" lon="8.412175518204302"><ele>541.0</ele><time>2026-04-06T08:55:05.999Z</time></trkpt><trkpt lat="44.44795183716442" lon="8.412321376389732"><ele>542.0</ele><time>2026-04-06T08:55:06.999Z</time></trkpt><trkpt lat="44.44802634068554" lon="8.412464190519692"><ele>543.0</ele><time>2026-04-06T08:55:07.999Z</time></trkpt><trkpt lat="44.44810274583372" lon="8.412589744582778"><ele>544.0</ele><time>2026-04-06T08:55:08.999Z</time></trkpt><trkpt lat="44.44816657954512" lon="8.412709177218646"><ele>545.0</ele><time>2026-04-06T08:55:09.999Z</time></trkpt><trkpt lat="44.44821704717056" lon="8.412802471887037"><ele>546.0</ele><time>2026-04-06T08:55:10.999Z</time></trkpt><trkpt lat="44.44826151553899" lon="8.412876314591529"><ele>546.0</ele><time>2026-04-06T08:55:11.999Z</time></trkpt><trkpt lat="44.44831905618664" lon="8.412965159737759"><ele>546.0</ele><time>2026-04-06T08:55:13.999Z</time></trkpt><trkpt lat="44.44831310903548" lon="8.413079272140973"><ele>546.0</ele><time>2026-04-06T08:55:16.999Z</time></trkpt><trkpt lat="44.448277685620184" lon="8.41296668011214"><ele>546.0</ele><time>2026-04-06T08:55:44Z</time></trkpt><trkpt lat="44.44820618546931" lon="8.412897227382349"><ele>546.0</ele><time>2026-04-06T08:55:45Z</time></trkpt><trkpt lat="44.448142761031484" lon="8.412800584144486"><ele>546.0</ele><time>2026-04-06T08:55:46Z</time></trkpt><trkpt lat="44.448075615364985" lon="8.412686693587665"><ele>546.0</ele><time>2026-04-06T08:55:47Z</time></trkpt><trkpt lat="44.4479936587362" lon="8.412571260930518"><ele>546.0</ele><time>2026-04-06T08:55:48Z</time></trkpt><trkpt lat="44.44790697009553" lon="8.412466264806392"><ele>546.0</ele><time>2026-04-06T08:55:49Z</time></trkpt><trkpt lat="44.44781232247581" lon="8.412369252332727"><ele>546.0</ele><time>2026-04-06T08:55:50Z</time></trkpt><trkpt lat="44.44772184105853" lon="8.41228530749409"><ele>545.1666666666666</ele><time>2026-04-06T08:55:51Z</time></trkpt><trkpt lat="44.44762959022665" lon="8.412215008127676"><ele>544.3333333333334</ele><time>2026-04-06T08:55:52Z</time></trkpt><trkpt lat="44.44753913443944" lon="8.41215999472904"><ele>543.5</ele><time>2026-04-06T08:55:53Z</time></trkpt><trkpt lat="44.44745961650618" lon="8.412123297652943"><ele>542.6666666666667</ele><time>2026-04-06T08:55:54Z</time></trkpt><trkpt lat="44.44739991897212" lon="8.412075616387705"><ele>541.8333333333334</ele><time>2026-04-06T08:55:55Z</time></trkpt><trkpt lat="44.44733736905712" lon="8.411989289440125"><ele>541.0</ele><time>2026-04-06T08:55:56Z</time></trkpt><trkpt lat="44.44728194787172" lon="8.411860957026457"><ele>541.0</ele><time>2026-04-06T08:55:57Z</time></trkpt><trkpt lat="44.447226789832" lon="8.411721764458077"><ele>541.0</ele><time>2026-04-06T08:55:58Z</time></trkpt><trkpt lat="44.44718662408194" lon="8.411582285832466"><ele>541.0</ele><time>2026-04-06T08:55:59Z</time></trkpt><trkpt lat="44.447161753712344" lon="8.41145525604177"><ele>541.0</ele><time>2026-04-06T08:56:00Z</time></trkpt><trkpt lat="44.44713801217988" lon="8.411321146460914"><ele>541.0</ele><time>2026-04-06T08:56:01Z</time></trkpt><trkpt lat="44.447122068078706" lon="8.411225568685554"><ele>543.6666666666667</ele><time>2026-04-06T08:56:02Z</time></trkpt><trkpt lat="44.44706893626839" lon="8.4111515889202"><ele>546.3333333333334</ele><time>2026-04-06T08:56:03Z</time></trkpt><trkpt lat="44.446991311804844" lon="8.411128335510638"><ele>549.0</ele><time>2026-04-06T08:56:04Z</time></trkpt><trkpt lat="44.44689578168983" lon="8.41115295443176"><ele>551.6666666666666</ele><time>2026-04-06T08:56:05Z</time></trkpt><trkpt lat="44.44680372079972" lon="8.411198794998908"><ele>554.3333333333333</ele><time>2026-04-06T08:56:06Z</time></trkpt><trkpt lat="44.446720285719245" lon="8.411186386665282"><ele>557.0</ele><time>2026-04-06T08:56:07Z</time></trkpt><trkpt lat="44.44665619385295" lon="8.411107598258118"><ele>557.0</ele><time>2026-04-06T08:56:08Z</time></trkpt><trkpt lat="44.44663617324574" lon="8.410987564273087"><ele>557.0</ele><time>2026-04-06T08:56:09Z</time></trkpt><trkpt lat="44.44666904342569" lon="8.41084898703189"><ele>557.0</ele><time>2026-04-06T08:56:10Z</time></trkpt><trkpt lat="44.44670384268346" lon="8.41070451215994"><ele>557.0</ele><time>2026-04-06T08:56:11Z</time></trkpt><trkpt lat="44.44673069225591" lon="8.410568889291179"><ele>557.0</ele><time>2026-04-06T08:56:12Z</time></trkpt><trkpt lat="44.44673078056695" lon="8.410428395200311"><ele>557.6</ele><time>2026-04-06T08:56:13Z</time></trkpt><trkpt lat="44.44671877844066" lon="8.410288674195208"><ele>558.2</ele><time>2026-04-06T08:56:14Z</time></trkpt><trkpt lat="44.446704287507266" lon="8.410148188070298"><ele>558.8</ele><time>2026-04-06T08:56:15Z</time></trkpt><trkpt lat="44.44670977262948" lon="8.410002671005074"><ele>559.4</ele><time>2026-04-06T08:56:16Z</time></trkpt><trkpt lat="44.44672102096155" lon="8.409870774993681"><ele>560.0</ele><time>2026-04-06T08:56:17Z</time></trkpt><trkpt lat="44.44672426429961" lon="8.409733214418157"><ele>558.8</ele><time>2026-04-06T08:56:18Z</time></trkpt><trkpt lat="44.446691275233924" lon="8.409608104168127"><ele>557.6</ele><time>2026-04-06T08:56:19Z</time></trkpt><trkpt lat="44.44661458651001" lon="8.409513345960278"><ele>556.4</ele><time>2026-04-06T08:56:20Z</time></trkpt><trkpt lat="44.446513760339606" lon="8.409452618701165"><ele>555.2</ele><time>2026-04-06T08:56:21Z</time></trkpt><trkpt lat="44.44641368654256" lon="8.40940794159701"><ele>554.0</ele><time>2026-04-06T08:56:22Z</time></trkpt><trkpt lat="44.44633543469979" lon="8.4093220754673"><ele>556.75</ele><time>2026-04-06T08:56:23Z</time></trkpt><trkpt lat="44.44628338975944" lon="8.409177625125112"><ele>559.5</ele><time>2026-04-06T08:56:24Z</time></trkpt><trkpt lat="44.446253587570645" lon="8.409008426366004"><ele>562.25</ele><time>2026-04-06T08:56:25Z</time></trkpt><trkpt lat="44.44620837464201" lon="8.408857886066729"><ele>565.0</ele><time>2026-04-06T08:56:26Z</time></trkpt><trkpt lat="44.446176812152515" lon="8.408715911372395"><ele>565.0</ele><time>2026-04-06T08:56:27Z</time></trkpt><trkpt lat="44.44617710543729" lon="8.408575553347289"><ele>565.0</ele><time>2026-04-06T08:56:28Z</time></trkpt><trkpt lat="44.446212553474446" lon="8.408444974281764"><ele>565.0</ele><time>2026-04-06T08:56:29Z</time></trkpt><trkpt lat="44.44622498555118" lon="8.408281892141403"><ele>565.0</ele><time>2026-04-06T08:56:30Z</time></trkpt><trkpt lat="44.446205847805494" lon="8.408131314304276"><ele>565.0</ele><time>2026-04-06T08:56:31Z</time></trkpt><trkpt lat="44.44617280699131" lon="8.407983415145493"><ele>564.6666666666667</ele><time>2026-04-06T08:56:32Z</time></trkpt><trkpt lat="44.446148436162034" lon="8.407852837270097"><ele>564.3333333333334</ele><time>2026-04-06T08:56:33Z</time></trkpt><trkpt lat="44.446127275143525" lon="8.407753244516933"><ele>564.0</ele><time>2026-04-06T08:56:34Z</time></trkpt><trkpt lat="44.446073423303304" lon="8.407691069020606"><ele>563.6666666666666</ele><time>2026-04-06T08:56:35Z</time></trkpt><trkpt lat="44.44599029326855" lon="8.407670387936795"><ele>563.3333333333333</ele><time>2026-04-06T08:56:36Z</time></trkpt><trkpt lat="44.445894650450086" lon="8.407645681758824"><ele>563.0</ele><time>2026-04-06T08:56:37Z</time></trkpt><trkpt lat="44.445810523812916" lon="8.407578669622502"><ele>563.0</ele><time>2026-04-06T08:56:38Z</time></trkpt><trkpt lat="44.445743254417785" lon="8.407471448852835"><ele>563.0</ele><time>2026-04-06T08:56:39Z</time></trkpt><trkpt lat="44.44569548433364" lon="8.407353842896919"><ele>563.0</ele><time>2026-04-06T08:56:40Z</time></trkpt><trkpt lat="44.445678002528936" lon="8.407209400444376"><ele>563.0</ele><time>2026-04-06T08:56:41Z</time></trkpt><trkpt lat="44.44566331372019" lon="8.407050405419218"><ele>563.0</ele><time>2026-04-06T08:56:42Z</time></trkpt><trkpt lat="44.445628350468425" lon="8.406915349440993"><ele>560.75</ele><time>2026-04-06T08:56:43Z</time></trkpt><trkpt lat="44.44559726410181" lon="8.406793059894781"><ele>558.5</ele><time>2026-04-06T08:56:44Z</time></trkpt><trkpt lat="44.44560070945507" lon="8.40665326964372"><ele>556.25</ele><time>2026-04-06T08:56:45Z</time></trkpt><trkpt lat="44.44563714930934" lon="8.406484616482574"><ele>554.0</ele><time>2026-04-06T08:56:46Z</time></trkpt><trkpt lat="44.44567064171604" lon="8.406301408174171"><ele>552.8333333333333</ele><time>2026-04-06T08:56:47Z</time></trkpt><trkpt lat="44.445684537978224" lon="8.406142473273093"><ele>551.6666666666666</ele><time>2026-04-06T08:56:47.999Z</time></trkpt><trkpt lat="44.4456859012645" lon="8.40603276445124"><ele>550.5</ele><time>2026-04-06T08:56:48.999Z</time></trkpt><trkpt lat="44.44566859371021" lon="8.405928651187171"><ele>549.3333333333334</ele><time>2026-04-06T08:56:49.999Z</time></trkpt><trkpt lat="44.44561696524418" lon="8.405831107302793"><ele>548.1666666666667</ele><time>2026-04-06T08:56:50.999Z</time></trkpt><trkpt lat="44.44553696269237" lon="8.405766457829953"><ele>547.0</ele><time>2026-04-06T08:56:51.999Z</time></trkpt><trkpt lat="44.4454393603127" lon="8.405732422878378"><ele>547.0</ele><time>2026-04-06T08:56:52.999Z</time></trkpt><trkpt lat="44.44533104096529" lon="8.405738903677358"><ele>547.0</ele><time>2026-04-06T08:56:53.999Z</time></trkpt><trkpt lat="44.445214197093875" lon="8.405777495995773"><ele>547.0</ele><time>2026-04-06T08:56:54.999Z</time></trkpt><trkpt lat="44.44508801727927" lon="8.405840524173273"><ele>547.0</ele><time>2026-04-06T08:56:55.999Z</time></trkpt><trkpt lat="44.444968052754994" lon="8.405885989082021"><ele>547.0</ele><time>2026-04-06T08:56:56.999Z</time></trkpt><trkpt lat="44.44484407778319" lon="8.40588612807909"><ele>547.0</ele><time>2026-04-06T08:56:57.999Z</time></trkpt><trkpt lat="44.44470069139047" lon="8.405851513489402"><ele>547.0</ele><time>2026-04-06T08:56:58.999Z</time></trkpt><trkpt lat="44.44455408288183" lon="8.405808578415872"><ele>547.0</ele><time>2026-04-06T08:56:59.999Z</time></trkpt><trkpt lat="44.4444252658877" lon="8.405773684225881"><ele>547.4</ele><time>2026-04-06T08:57:00.999Z</time></trkpt><trkpt lat="44.44431097226338" lon="8.405724732149904"><ele>547.8000000000001</ele><time>2026-04-06T08:57:01.999Z</time></trkpt><trkpt lat="44.44421121009796" lon="8.405668443385391"><ele>548.2</ele><time>2026-04-06T08:57:02.999Z</time></trkpt><trkpt lat="44.444114117458305" lon="8.405636127756852"><ele>548.6</ele><time>2026-04-06T08:57:03.999Z</time></trkpt><trkpt lat="44.44400647353958" lon="8.405658482034193"><ele>549.0</ele><time>2026-04-06T08:57:04.999Z</time></trkpt><trkpt lat="44.44388910126914" lon="8.405718185826036"><ele>548.2</ele><time>2026-04-06T08:57:05.999Z</time></trkpt><trkpt lat="44.44376822552158" lon="8.405738228489378"><ele>547.4</ele><time>2026-04-06T08:57:06.999Z</time></trkpt><trkpt lat="44.44366666580846" lon="8.405727100690164"><ele>546.6</ele><time>2026-04-06T08:57:07.999Z</time></trkpt><trkpt lat="44.443593132136954" lon="8.405743005031535"><ele>545.8</ele><time>2026-04-06T08:57:08.999Z</time></trkpt><trkpt lat="44.443532248589186" lon="8.405818087782022"><ele>545.0</ele><time>2026-04-06T08:57:09.999Z</time></trkpt><trkpt lat="44.44346312870899" lon="8.405916564249164"><ele>545.0</ele><time>2026-04-06T08:57:10.999Z</time></trkpt><trkpt lat="44.443369971894505" lon="8.40600518210699"><ele>545.0</ele><time>2026-04-06T08:57:11.999Z</time></trkpt><trkpt lat="44.443258497608184" lon="8.40604591034482"><ele>545.0</ele><time>2026-04-06T08:57:12.999Z</time></trkpt><trkpt lat="44.44315514680645" lon="8.406079655781761"><ele>545.0</ele><time>2026-04-06T08:57:13.999Z</time></trkpt><trkpt lat="44.44304509660611" lon="8.406114692254073"><ele>545.0</ele><time>2026-04-06T08:57:14.999Z</time></trkpt><trkpt lat="44.44291639718468" lon="8.406136873198347"><ele>543.0</ele><time>2026-04-06T08:57:15.999Z</time></trkpt><trkpt lat="44.44278166900268" lon="8.40614157934362"><ele>541.0</ele><time>2026-04-06T08:57:16.999Z</time></trkpt><trkpt lat="44.44263752603232" lon="8.406152768270992"><ele>539.0</ele><time>2026-04-06T08:57:17.999Z</time></trkpt><trkpt lat="44.442496209751496" lon="8.406199690432901"><ele>537.0</ele><time>2026-04-06T08:57:18.999Z</time></trkpt><trkpt lat="44.44236089816536" lon="8.406279157021407"><ele>538.4</ele><time>2026-04-06T08:57:19.999Z</time></trkpt><trkpt lat="44.44225264414282" lon="8.406359418969688"><ele>539.8000000000001</ele><time>2026-04-06T08:57:20.999Z</time></trkpt><trkpt lat="44.44215471104666" lon="8.406425043911382"><ele>541.2</ele><time>2026-04-06T08:57:21.999Z</time></trkpt><trkpt lat="44.44206690284238" lon="8.406441652999215"><ele>542.6</ele><time>2026-04-06T08:57:22.999Z</time></trkpt><trkpt lat="44.4419780855661" lon="8.406419543473854"><ele>544.0</ele><time>2026-04-06T08:57:23.999Z</time></trkpt><trkpt lat="44.44186372542906" lon="8.40640576921281"><ele>544.5</ele><time>2026-04-06T08:57:24.999Z</time></trkpt><trkpt lat="44.44175108748423" lon="8.406437118496672"><ele>545.0</ele><time>2026-04-06T08:57:25.999Z</time></trkpt><trkpt lat="44.44164583263547" lon="8.406509126892965"><ele>545.5</ele><time>2026-04-06T08:57:26.999Z</time></trkpt><trkpt lat="44.4415432729112" lon="8.406596652963243"><ele>546.0</ele><time>2026-04-06T08:57:27.999Z</time></trkpt><trkpt lat="44.44144261739284" lon="8.40667369094403"><ele>546.0</ele><time>2026-04-06T08:57:28.999Z</time></trkpt><trkpt lat="44.44133107034054" lon="8.406722091626365"><ele>546.0</ele><time>2026-04-06T08:57:29.999Z</time></trkpt><trkpt lat="44.44121450933731" lon="8.406720600478446"><ele>546.0</ele><time>2026-04-06T08:57:30.999Z</time></trkpt><trkpt lat="44.44109935876119" lon="8.406662786874415"><ele>546.0</ele><time>2026-04-06T08:57:31.999Z</time></trkpt><trkpt lat="44.44098129671133" lon="8.406586948123017"><ele>546.75</ele><time>2026-04-06T08:57:32.999Z</time></trkpt><trkpt lat="44.440856253677204" lon="8.406505004608878"><ele>547.5</ele><time>2026-04-06T08:57:34Z</time></trkpt><trkpt lat="44.440726120242076" lon="8.406428901116058"><ele>548.25</ele><time>2026-04-06T08:57:35Z</time></trkpt><trkpt lat="44.44058975955688" lon="8.40640268655699"><ele>549.0</ele><time>2026-04-06T08:57:36Z</time></trkpt><trkpt lat="44.44044781034441" lon="8.406400720566849"><ele>551.25</ele><time>2026-04-06T08:57:37Z</time></trkpt><trkpt lat="44.44032063911906" lon="8.40638580066192"><ele>553.5</ele><time>2026-04-06T08:57:38Z</time></trkpt><trkpt lat="44.440198396094054" lon="8.406361430937228"><ele>555.75</ele><time>2026-04-06T08:57:39Z</time></trkpt><trkpt lat="44.440082394798516" lon="8.406362680701486"><ele>558.0</ele><time>2026-04-06T08:57:40Z</time></trkpt><trkpt lat="44.43996339443023" lon="8.406391291964319"><ele>558.0</ele><time>2026-04-06T08:57:41Z</time></trkpt><trkpt lat="44.43984271007235" lon="8.40644354205648"><ele>558.0</ele><time>2026-04-06T08:57:42Z</time></trkpt><trkpt lat="44.43972288185986" lon="8.406512977825322"><ele>558.0</ele><time>2026-04-06T08:57:43Z</time></trkpt><trkpt lat="44.43960371989024" lon="8.406588719806201"><ele>558.0</ele><time>2026-04-06T08:57:44Z</time></trkpt><trkpt lat="44.43949536506587" lon="8.406690080977798"><ele>559.25</ele><time>2026-04-06T08:57:45Z</time></trkpt><trkpt lat="44.439382960284185" lon="8.406789700103404"><ele>560.5</ele><time>2026-04-06T08:57:46Z</time></trkpt><trkpt lat="44.439276818225224" lon="8.40688486378898"><ele>561.75</ele><time>2026-04-06T08:57:47Z</time></trkpt><trkpt lat="44.43918099211963" lon="8.406942945792153"><ele>563.0</ele><time>2026-04-06T08:57:48Z</time></trkpt><trkpt lat="44.439088554817296" lon="8.40697392025586"><ele>563.0</ele><time>2026-04-06T08:57:49Z</time></trkpt><trkpt lat="44.43900590643751" lon="8.4070129554992"><ele>563.0</ele><time>2026-04-06T08:57:50Z</time></trkpt><trkpt lat="44.43894594833403" lon="8.407105286024457"><ele>563.0</ele><time>2026-04-06T08:57:51Z</time></trkpt><trkpt lat="44.43889955730265" lon="8.407217399008513"><ele>563.0</ele><time>2026-04-06T08:57:52Z</time></trkpt><trkpt lat="44.43883940815888" lon="8.407289436640227"><ele>563.0</ele><time>2026-04-06T08:57:53Z</time></trkpt><trkpt lat="44.438754560028514" lon="8.407301163038222"><ele>563.0</ele><time>2026-04-06T08:57:54Z</time></trkpt><trkpt lat="44.43864969645546" lon="8.407282560107802"><ele>562.6</ele><time>2026-04-06T08:57:55Z</time></trkpt><trkpt lat="44.438546357824336" lon="8.407251954593969"><ele>562.1999999999999</ele><time>2026-04-06T08:57:56Z</time></trkpt><trkpt lat="44.43844950898799" lon="8.407239649613567"><ele>561.8</ele><time>2026-04-06T08:57:57Z</time></trkpt><trkpt lat="44.43837261931781" lon="8.407197923988779"><ele>561.4</ele><time>2026-04-06T08:57:58Z</time></trkpt><trkpt lat="44.438305551821834" lon="8.407123566225394"><ele>561.0</ele><time>2026-04-06T08:57:59Z</time></trkpt><trkpt lat="44.43825934292572" lon="8.407019254901229"><ele>561.0</ele><time>2026-04-06T08:58:00Z</time></trkpt><trkpt lat="44.43821379945662" lon="8.406886192419062"><ele>561.0</ele><time>2026-04-06T08:58:01Z</time></trkpt><trkpt lat="44.43816823855782" lon="8.406730896863145"><ele>561.0</ele><time>2026-04-06T08:58:02Z</time></trkpt><trkpt lat="44.4381111655547" lon="8.406568844018333"><ele>561.0</ele><time>2026-04-06T08:58:03Z</time></trkpt><trkpt lat="44.438040060524784" lon="8.406395944350734"><ele>558.5</ele><time>2026-04-06T08:58:04Z</time></trkpt><trkpt lat="44.4379657649122" lon="8.406227908802817"><ele>556.0</ele><time>2026-04-06T08:58:05Z</time></trkpt><trkpt lat="44.43788330343905" lon="8.406066569582459"><ele>553.5</ele><time>2026-04-06T08:58:06Z</time></trkpt><trkpt lat="44.43780047497043" lon="8.405929719301774"><ele>551.0</ele><time>2026-04-06T08:58:07Z</time></trkpt><trkpt lat="44.43773182118433" lon="8.405792523490383"><ele>551.0</ele><time>2026-04-06T08:58:08Z</time></trkpt><trkpt lat="44.43768703537575" lon="8.405653185896837"><ele>551.0</ele><time>2026-04-06T08:58:09Z</time></trkpt><trkpt lat="44.43763881425394" lon="8.40553134484626"><ele>551.0</ele><time>2026-04-06T08:58:10Z</time></trkpt><trkpt lat="44.437554806645615" lon="8.405443705029407"><ele>551.0</ele><time>2026-04-06T08:58:11Z</time></trkpt><trkpt lat="44.43743767951199" lon="8.405387031351468"><ele>551.0</ele><time>2026-04-06T08:58:12Z</time></trkpt><trkpt lat="44.43730348144302" lon="8.405348468468219"><ele>551.0</ele><time>2026-04-06T08:58:13Z</time></trkpt><trkpt lat="44.43717178368775" lon="8.405315329243974"><ele>551.0</ele><time>2026-04-06T08:58:14Z</time></trkpt><trkpt lat="44.43704667206629" lon="8.405278478179675"><ele>551.0</ele><time>2026-04-06T08:58:15Z</time></trkpt><trkpt lat="44.43695083034259" lon="8.405215756408893"><ele>551.0</ele><time>2026-04-06T08:58:16Z</time></trkpt><trkpt lat="44.43688834797561" lon="8.405120536943729"><ele>551.0</ele><time>2026-04-06T08:58:17Z</time></trkpt><trkpt lat="44.436867156191155" lon="8.404984861362937"><ele>551.0</ele><time>2026-04-06T08:58:18Z</time></trkpt><trkpt lat="44.436879878592244" lon="8.404826640156136"><ele>551.0</ele><time>2026-04-06T08:58:19Z</time></trkpt><trkpt lat="44.43692887951356" lon="8.404682214717871"><ele>551.0</ele><time>2026-04-06T08:58:20Z</time></trkpt><trkpt lat="44.4369711295057" lon="8.404534627286973"><ele>551.0</ele><time>2026-04-06T08:58:21Z</time></trkpt><trkpt lat="44.436951829099954" lon="8.404379342164995"><ele>552.25</ele><time>2026-04-06T08:58:22Z</time></trkpt><trkpt lat="44.43688551201147" lon="8.404216600958831"><ele>553.5</ele><time>2026-04-06T08:58:23Z</time></trkpt><trkpt lat="44.436840186679326" lon="8.404033925409184"><ele>554.75</ele><time>2026-04-06T08:58:24Z</time></trkpt><trkpt lat="44.43681535380937" lon="8.403836839588033"><ele>556.0</ele><time>2026-04-06T08:58:25Z</time></trkpt><trkpt lat="44.436808825262176" lon="8.403638514531806"><ele>558.0</ele><time>2026-04-06T08:58:26Z</time></trkpt><trkpt lat="44.43680601153051" lon="8.403452248472176"><ele>560.0</ele><time>2026-04-06T08:58:27Z</time></trkpt><trkpt lat="44.436792833696686" lon="8.403266869784865"><ele>562.0</ele><time>2026-04-06T08:58:28Z</time></trkpt><trkpt lat="44.43675968405233" lon="8.40306726482841"><ele>564.0</ele><time>2026-04-06T08:58:29Z</time></trkpt><trkpt lat="44.43672561865817" lon="8.402896614986677"><ele>564.8</ele><time>2026-04-06T08:58:30Z</time></trkpt><trkpt lat="44.43670293152944" lon="8.40274274035718"><ele>565.5999999999999</ele><time>2026-04-06T08:58:31Z</time></trkpt><trkpt lat="44.43665315011803" lon="8.40260090618864"><ele>566.4</ele><time>2026-04-06T08:58:32Z</time></trkpt><trkpt lat="44.43656457360118" lon="8.402491693454621"><ele>567.1999999999999</ele><time>2026-04-06T08:58:33Z</time></trkpt><trkpt lat="44.436506949050575" lon="8.402420396932563"><ele>568.0</ele><time>2026-04-06T08:58:34Z</time></trkpt><trkpt lat="44.43639927635074" lon="8.402452533963627"><ele>568.0</ele><time>2026-04-06T08:58:36Z</time></trkpt><trkpt lat="44.436335706411654" lon="8.402537499018845"><ele>568.0</ele><time>2026-04-06T08:58:37Z</time></trkpt><trkpt lat="44.43627700127316" lon="8.402642365124978"><ele>568.0</ele><time>2026-04-06T08:58:38Z</time></trkpt><trkpt lat="44.43623452186893" lon="8.402765891531336"><ele>568.0</ele><time>2026-04-06T08:58:39Z</time></trkpt><trkpt lat="44.436151005396454" lon="8.402843649405995"><ele>568.0</ele><time>2026-04-06T08:58:40Z</time></trkpt><trkpt lat="44.43606409201048" lon="8.402868302960258"><ele>570.6</ele><time>2026-04-06T08:58:41Z</time></trkpt><trkpt lat="44.43598268087525" lon="8.402843986272675"><ele>573.1999999999999</ele><time>2026-04-06T08:58:42Z</time></trkpt><trkpt lat="44.43590593285521" lon="8.40274748344954"><ele>575.8</ele><time>2026-04-06T08:58:43Z</time></trkpt><trkpt lat="44.435828844940026" lon="8.402643186423123"><ele>578.4</ele><time>2026-04-06T08:58:44Z</time></trkpt><trkpt lat="44.4357386979458" lon="8.402602831200294"><ele>581.0</ele><time>2026-04-06T08:58:45Z</time></trkpt><trkpt lat="44.43562646057583" lon="8.402621417873839"><ele>581.0</ele><time>2026-04-06T08:58:46Z</time></trkpt><trkpt lat="44.435508759360125" lon="8.402640996174435"><ele>581.0</ele><time>2026-04-06T08:58:47Z</time></trkpt><trkpt lat="44.43540674085923" lon="8.4026290606226"><ele>581.0</ele><time>2026-04-06T08:58:48Z</time></trkpt><trkpt lat="44.435325641863265" lon="8.402555218801949"><ele>581.0</ele><time>2026-04-06T08:58:49Z</time></trkpt><trkpt lat="44.435268399432275" lon="8.402477232745863"><ele>581.0</ele><time>2026-04-06T08:58:50Z</time></trkpt><trkpt lat="44.43521764062034" lon="8.402394661282596"><ele>580.2</ele><time>2026-04-06T08:58:52Z</time></trkpt><trkpt lat="44.435178912096006" lon="8.402303217472213"><ele>579.4000000000001</ele><time>2026-04-06T08:58:53Z</time></trkpt><trkpt lat="44.43514175743268" lon="8.402167742858554"><ele>578.6</ele><time>2026-04-06T08:58:53.999Z</time></trkpt><trkpt lat="44.43510453320392" lon="8.402023395379898"><ele>577.8000000000001</ele><time>2026-04-06T08:58:54.999Z</time></trkpt><trkpt lat="44.435056351837744" lon="8.401879716488263"><ele>577.0</ele><time>2026-04-06T08:58:55.999Z</time></trkpt><trkpt lat="44.43499437328473" lon="8.401749046067927"><ele>577.0</ele><time>2026-04-06T08:58:56.999Z</time></trkpt><trkpt lat="44.4349261264815" lon="8.401634820160929"><ele>577.0</ele><time>2026-04-06T08:58:57.999Z</time></trkpt><trkpt lat="44.43488087170926" lon="8.401506179631335"><ele>577.0</ele><time>2026-04-06T08:58:58.999Z</time></trkpt><trkpt lat="44.43485751753461" lon="8.401365903491618"><ele>577.0</ele><time>2026-04-06T08:58:59.999Z</time></trkpt><trkpt lat="44.434830104968626" lon="8.401233586905775"><ele>577.0</ele><time>2026-04-06T08:59:00.999Z</time></trkpt><trkpt lat="44.43481488068849" lon="8.40112612360992"><ele>576.2</ele><time>2026-04-06T08:59:01.999Z</time></trkpt><trkpt lat="44.434828307717716" lon="8.401014299323457"><ele>575.4000000000001</ele><time>2026-04-06T08:59:02.999Z</time></trkpt><trkpt lat="44.434891383135295" lon="8.400900874338829"><ele>574.5999999999999</ele><time>2026-04-06T08:59:03.999Z</time></trkpt><trkpt lat="44.43498036771114" lon="8.400782066916268"><ele>573.8</ele><time>2026-04-06T08:59:04.999Z</time></trkpt><trkpt lat="44.43505634302242" lon="8.400638121248345"><ele>573.0</ele><time>2026-04-06T08:59:05.999Z</time></trkpt><trkpt lat="44.435118858883826" lon="8.400484913329146"><ele>571.0</ele><time>2026-04-06T08:59:06.999Z</time></trkpt><trkpt lat="44.43520408785607" lon="8.400369058074462"><ele>569.0</ele><time>2026-04-06T08:59:07.999Z</time></trkpt><trkpt lat="44.43531402090045" lon="8.400303006388592"><ele>567.0</ele><time>2026-04-06T08:59:08.999Z</time></trkpt><trkpt lat="44.43543402906758" lon="8.400253396666418"><ele>565.0</ele><time>2026-04-06T08:59:09.999Z</time></trkpt><trkpt lat="44.43555893277747" lon="8.400205104127098"><ele>565.0</ele><time>2026-04-06T08:59:10.999Z</time></trkpt><trkpt lat="44.435693745441554" lon="8.40017891053683"><ele>565.0</ele><time>2026-04-06T08:59:11.999Z</time></trkpt><trkpt lat="44.43582804696334" lon="8.400176964543558"><ele>565.0</ele><time>2026-04-06T08:59:12.999Z</time></trkpt><trkpt lat="44.43593208956341" lon="8.400190444630104"><ele>565.0</ele><time>2026-04-06T08:59:13.999Z</time></trkpt><trkpt lat="44.43601324515716" lon="8.40021821305458"><ele>565.0</ele><time>2026-04-06T08:59:14.999Z</time></trkpt><trkpt lat="44.43610316137062" lon="8.400175081867626"><ele>565.0</ele><time>2026-04-06T08:59:16.999Z</time></trkpt><trkpt lat="44.43610613498154" lon="8.400071341526443"><ele>565.0</ele><time>2026-04-06T08:59:17.999Z</time></trkpt><trkpt lat="44.43606431960319" lon="8.399973869947543"><ele>565.0</ele><time>2026-04-06T08:59:18.999Z</time></trkpt><trkpt lat="44.43597188473227" lon="8.39991380815237"><ele>565.0</ele><time>2026-04-06T08:59:19.999Z</time></trkpt><trkpt lat="44.43586267684167" lon="8.399889783618987"><ele>565.0</ele><time>2026-04-06T08:59:20.999Z</time></trkpt><trkpt lat="44.43574504740558" lon="8.399826711532942"><ele>565.0</ele><time>2026-04-06T08:59:21.999Z</time></trkpt><trkpt lat="44.43566219889482" lon="8.399707159481547"><ele>565.0</ele><time>2026-04-06T08:59:22.999Z</time></trkpt><trkpt lat="44.43560939582869" lon="8.399544461426899"><ele>565.0</ele><time>2026-04-06T08:59:23.999Z</time></trkpt><trkpt lat="44.43558069941606" lon="8.399366890820716"><ele>563.75</ele><time>2026-04-06T08:59:24.999Z</time></trkpt><trkpt lat="44.435529716660625" lon="8.399201874413224"><ele>562.5</ele><time>2026-04-06T08:59:25.999Z</time></trkpt><trkpt lat="44.43542394265373" lon="8.399077522741395"><ele>561.25</ele><time>2026-04-06T08:59:26.999Z</time></trkpt><trkpt lat="44.435323617522826" lon="8.398976854618644"><ele>560.0</ele><time>2026-04-06T08:59:27.999Z</time></trkpt><trkpt lat="44.435256979088344" lon="8.398902497852152"><ele>559.25</ele><time>2026-04-06T08:59:28.999Z</time></trkpt><trkpt lat="44.435131250085576" lon="8.398860453002866"><ele>558.5</ele><time>2026-04-06T08:59:30.999Z</time></trkpt><trkpt lat="44.43503902608829" lon="8.398908787477577"><ele>557.75</ele><time>2026-04-06T08:59:31.999Z</time></trkpt><trkpt lat="44.4349375479014" lon="8.39899426539591"><ele>557.0</ele><time>2026-04-06T08:59:32.999Z</time></trkpt><trkpt lat="44.434826575895805" lon="8.399090999237727"><ele>557.0</ele><time>2026-04-06T08:59:33.999Z</time></trkpt><trkpt lat="44.434706588699065" lon="8.399180906903032"><ele>557.0</ele><time>2026-04-06T08:59:34.999Z</time></trkpt><trkpt lat="44.43457227229577" lon="8.399269242013979"><ele>557.0</ele><time>2026-04-06T08:59:35.999Z</time></trkpt><trkpt lat="44.434449979049084" lon="8.399341020281966"><ele>557.0</ele><time>2026-04-06T08:59:36.999Z</time></trkpt><trkpt lat="44.43434369799296" lon="8.399374108613825"><ele>557.8000000000001</ele><time>2026-04-06T08:59:37.999Z</time></trkpt><trkpt lat="44.434260581205486" lon="8.399380984291252"><ele>558.6</ele><time>2026-04-06T08:59:38.999Z</time></trkpt><trkpt lat="44.43414457120917" lon="8.399356265776863"><ele>559.4000000000001</ele><time>2026-04-06T08:59:41Z</time></trkpt><trkpt lat="44.43406844486169" lon="8.399302596266944"><ele>560.2</ele><time>2026-04-06T08:59:42Z</time></trkpt><trkpt lat="44.43399103315235" lon="8.399238671865572"><ele>561.0</ele><time>2026-04-06T08:59:43Z</time></trkpt><trkpt lat="44.43391738887738" lon="8.39915289909697"><ele>561.0</ele><time>2026-04-06T08:59:44Z</time></trkpt><trkpt lat="44.43384152276021" lon="8.399060306312599"><ele>561.0</ele><time>2026-04-06T08:59:45Z</time></trkpt><trkpt lat="44.433750923631266" lon="8.398987769948898"><ele>561.0</ele><time>2026-04-06T08:59:46Z</time></trkpt><trkpt lat="44.433655975936354" lon="8.39895382492158"><ele>561.0</ele><time>2026-04-06T08:59:47Z</time></trkpt><trkpt lat="44.43356332583302" lon="8.39897705511473"><ele>561.0</ele><time>2026-04-06T08:59:48Z</time></trkpt><trkpt lat="44.43346416535715" lon="8.399053480361287"><ele>561.5</ele><time>2026-04-06T08:59:49Z</time></trkpt><trkpt lat="44.433371090484854" lon="8.399172061794578"><ele>562.0</ele><time>2026-04-06T08:59:50Z</time></trkpt><trkpt lat="44.43326641389526" lon="8.399280515108265"><ele>562.5</ele><time>2026-04-06T08:59:51Z</time></trkpt><trkpt lat="44.43314234455588" lon="8.399351152914742"><ele>563.0</ele><time>2026-04-06T08:59:52Z</time></trkpt><trkpt lat="44.4330173052086" lon="8.399386997597572"><ele>565.0</ele><time>2026-04-06T08:59:53Z</time></trkpt><trkpt lat="44.43290887417768" lon="8.399398770245885"><ele>567.0</ele><time>2026-04-06T08:59:54Z</time></trkpt><trkpt lat="44.43281020335856" lon="8.399391421929195"><ele>569.0</ele><time>2026-04-06T08:59:55Z</time></trkpt><trkpt lat="44.43272146836787" lon="8.399349011092998"><ele>571.0</ele><time>2026-04-06T08:59:56Z</time></trkpt><trkpt lat="44.43264712366132" lon="8.399258927557714"><ele>573.0</ele><time>2026-04-06T08:59:57Z</time></trkpt><trkpt lat="44.432579817705886" lon="8.399143906278985"><ele>573.0</ele><time>2026-04-06T08:59:58Z</time></trkpt><trkpt lat="44.43248689002936" lon="8.39900931660057"><ele>573.0</ele><time>2026-04-06T08:59:59Z</time></trkpt><trkpt lat="44.432401897179716" lon="8.398893518883868"><ele>573.0</ele><time>2026-04-06T09:00:00Z</time></trkpt><trkpt lat="44.43231349470881" lon="8.39881438325572"><ele>573.0</ele><time>2026-04-06T09:00:01Z</time></trkpt><trkpt lat="44.43219701873577" lon="8.39877411589603"><ele>575.75</ele><time>2026-04-06T09:00:02Z</time></trkpt><trkpt lat="44.43206168556317" lon="8.39876981608685"><ele>578.5</ele><time>2026-04-06T09:00:03Z</time></trkpt><trkpt lat="44.43191804687138" lon="8.398788571871709"><ele>581.25</ele><time>2026-04-06T09:00:04Z</time></trkpt><trkpt lat="44.431767961359405" lon="8.39884524953434"><ele>584.0</ele><time>2026-04-06T09:00:05Z</time></trkpt><trkpt lat="44.4316033800535" lon="8.398935222405266"><ele>584.0</ele><time>2026-04-06T09:00:06Z</time></trkpt><trkpt lat="44.43144555333469" lon="8.399017239828499"><ele>584.0</ele><time>2026-04-06T09:00:07Z</time></trkpt><trkpt lat="44.43130448352285" lon="8.399082132099746"><ele>584.0</ele><time>2026-04-06T09:00:08Z</time></trkpt><trkpt lat="44.43118248238408" lon="8.399133804837609"><ele>584.0</ele><time>2026-04-06T09:00:09Z</time></trkpt><trkpt lat="44.43107249260145" lon="8.39921373347811"><ele>586.8</ele><time>2026-04-06T09:00:10Z</time></trkpt><trkpt lat="44.430973080194256" lon="8.39930452112657"><ele>589.5999999999999</ele><time>2026-04-06T09:00:11Z</time></trkpt><trkpt lat="44.43088071078922" lon="8.399384448286837"><ele>592.4</ele><time>2026-04-06T09:00:12Z</time></trkpt><trkpt lat="44.430802314123966" lon="8.399421287852922"><ele>595.1999999999999</ele><time>2026-04-06T09:00:13Z</time></trkpt><trkpt lat="44.430724559028434" lon="8.399414343699442"><ele>598.0</ele><time>2026-04-06T09:00:14Z</time></trkpt><trkpt lat="44.43064543700321" lon="8.399384391342705"><ele>598.0</ele><time>2026-04-06T09:00:15Z</time></trkpt><trkpt lat="44.4305754525036" lon="8.39933185892827"><ele>598.0</ele><time>2026-04-06T09:00:16Z</time></trkpt><trkpt lat="44.43051239853752" lon="8.39923792409012"><ele>598.0</ele><time>2026-04-06T09:00:17Z</time></trkpt><trkpt lat="44.43045304368415" lon="8.399123578436614"><ele>598.0</ele><time>2026-04-06T09:00:18Z</time></trkpt><trkpt lat="44.430402855399" lon="8.398968729621247"><ele>598.0</ele><time>2026-04-06T09:00:19Z</time></trkpt><trkpt lat="44.43034946978423" lon="8.398815656604398"><ele>596.0</ele><time>2026-04-06T09:00:20Z</time></trkpt><trkpt lat="44.43029612509348" lon="8.398645098432706"><ele>594.0</ele><time>2026-04-06T09:00:21Z</time></trkpt><trkpt lat="44.430220345482965" lon="8.398469824616164"><ele>592.0</ele><time>2026-04-06T09:00:22Z</time></trkpt><trkpt lat="44.43013349276325" lon="8.398308756903873"><ele>590.0</ele><time>2026-04-06T09:00:23Z</time></trkpt><trkpt lat="44.43002138654689" lon="8.398170223126808"><ele>590.0</ele><time>2026-04-06T09:00:24Z</time></trkpt><trkpt lat="44.42989243734803" lon="8.398048244086732"><ele>590.0</ele><time>2026-04-06T09:00:25Z</time></trkpt><trkpt lat="44.42976169712002" lon="8.397924649225988"><ele>590.0</ele><time>2026-04-06T09:00:26Z</time></trkpt><trkpt lat="44.42963713309975" lon="8.39778340429787"><ele>590.6666666666666</ele><time>2026-04-06T09:00:27Z</time></trkpt><trkpt lat="44.429514374720775" lon="8.397643553154252"><ele>591.3333333333334</ele><time>2026-04-06T09:00:28Z</time></trkpt><trkpt lat="44.4293803475787" lon="8.397531059215462"><ele>592.0</ele><time>2026-04-06T09:00:29Z</time></trkpt><trkpt lat="44.42924616799788" lon="8.397461226085847"><ele>592.0</ele><time>2026-04-06T09:00:30Z</time></trkpt><trkpt lat="44.42911686907375" lon="8.397427454302672"><ele>592.0</ele><time>2026-04-06T09:00:31Z</time></trkpt><trkpt lat="44.42898998866584" lon="8.397430247792904"><ele>592.0</ele><time>2026-04-06T09:00:32Z</time></trkpt><trkpt lat="44.42885952039192" lon="8.397468327107964"><ele>592.0</ele><time>2026-04-06T09:00:33Z</time></trkpt><trkpt lat="44.42873566025702" lon="8.397531776582348"><ele>591.4</ele><time>2026-04-06T09:00:34Z</time></trkpt><trkpt lat="44.42862197388791" lon="8.397608965216955"><ele>590.8000000000001</ele><time>2026-04-06T09:00:35Z</time></trkpt><trkpt lat="44.42850872637931" lon="8.397688059505004"><ele>590.2</ele><time>2026-04-06T09:00:36Z</time></trkpt><trkpt lat="44.42841000378466" lon="8.397752401440604"><ele>589.6</ele><time>2026-04-06T09:00:37Z</time></trkpt><trkpt lat="44.42833036808056" lon="8.397770647463272"><ele>589.0</ele><time>2026-04-06T09:00:38Z</time></trkpt><trkpt lat="44.42825132389449" lon="8.397753132716385"><ele>589.0</ele><time>2026-04-06T09:00:39Z</time></trkpt><trkpt lat="44.428163920094235" lon="8.397684931161205"><ele>589.0</ele><time>2026-04-06T09:00:40Z</time></trkpt><trkpt lat="44.42807206021659" lon="8.397589677352622"><ele>589.0</ele><time>2026-04-06T09:00:41Z</time></trkpt><trkpt lat="44.42797596806516" lon="8.397528121617153"><ele>589.0</ele><time>2026-04-06T09:00:42Z</time></trkpt><trkpt lat="44.42787367421732" lon="8.397550734106598"><ele>589.0</ele><time>2026-04-06T09:00:43Z</time></trkpt><trkpt lat="44.42776209754159" lon="8.397640813647616"><ele>584.6666666666667</ele><time>2026-04-06T09:00:44Z</time></trkpt><trkpt lat="44.42762729302419" lon="8.397752612634036"><ele>580.3333333333334</ele><time>2026-04-06T09:00:45Z</time></trkpt><trkpt lat="44.42747819332717" lon="8.397861497814366"><ele>576.0</ele><time>2026-04-06T09:00:46Z</time></trkpt><trkpt lat="44.427323769620564" lon="8.397937952090802"><ele>576.0</ele><time>2026-04-06T09:00:47Z</time></trkpt><trkpt lat="44.42717878665654" lon="8.39800113457794"><ele>576.0</ele><time>2026-04-06T09:00:48Z</time></trkpt><trkpt lat="44.42706737887229" lon="8.39809771707837"><ele>576.0</ele><time>2026-04-06T09:00:49Z</time></trkpt><trkpt lat="44.4269774518531" lon="8.398214686350961"><ele>576.0</ele><time>2026-04-06T09:00:50Z</time></trkpt><trkpt lat="44.426888224299645" lon="8.398317002355757"><ele>574.5</ele><time>2026-04-06T09:00:51Z</time></trkpt><trkpt lat="44.42677450013527" lon="8.398393065275869"><ele>573.0</ele><time>2026-04-06T09:00:52Z</time></trkpt><trkpt lat="44.42665544062712" lon="8.398467913359847"><ele>571.5</ele><time>2026-04-06T09:00:52.999Z</time></trkpt><trkpt lat="44.42654183725392" lon="8.398545984977753"><ele>570.0</ele><time>2026-04-06T09:00:53.999Z</time></trkpt><trkpt lat="44.42643353386277" lon="8.398633650924362"><ele>570.0</ele><time>2026-04-06T09:00:54.999Z</time></trkpt><trkpt lat="44.42633369866692" lon="8.398714861089854"><ele>570.0</ele><time>2026-04-06T09:00:55.999Z</time></trkpt><trkpt lat="44.42624562464975" lon="8.398767450184947"><ele>570.0</ele><time>2026-04-06T09:00:56.999Z</time></trkpt><trkpt lat="44.42616682659848" lon="8.398807267572598"><ele>570.0</ele><time>2026-04-06T09:00:57.999Z</time></trkpt><trkpt lat="44.426103030419526" lon="8.398807493487805"><ele>570.0</ele><time>2026-04-06T09:00:58.999Z</time></trkpt><trkpt lat="44.42602816885903" lon="8.398641779930339"><ele>569.0</ele><time>2026-04-06T09:01:00.999Z</time></trkpt><trkpt lat="44.425997235529195" lon="8.398508721925742"><ele>568.0</ele><time>2026-04-06T09:01:01.999Z</time></trkpt><trkpt lat="44.42594642107663" lon="8.398391852451986"><ele>567.0</ele><time>2026-04-06T09:01:02.999Z</time></trkpt><trkpt lat="44.42587736782133" lon="8.39831264051665"><ele>566.0</ele><time>2026-04-06T09:01:03.999Z</time></trkpt><trkpt lat="44.42579089052206" lon="8.398293299372769"><ele>565.0</ele><time>2026-04-06T09:01:04.999Z</time></trkpt><trkpt lat="44.42568174050578" lon="8.398301316456617"><ele>565.0</ele><time>2026-04-06T09:01:05.999Z</time></trkpt><trkpt lat="44.425554503357965" lon="8.398322860141608"><ele>565.0</ele><time>2026-04-06T09:01:06.999Z</time></trkpt><trkpt lat="44.4254223406856" lon="8.398350420373307"><ele>565.0</ele><time>2026-04-06T09:01:07.999Z</time></trkpt><trkpt lat="44.42528381623892" lon="8.398407374649077"><ele>565.0</ele><time>2026-04-06T09:01:08.999Z</time></trkpt><trkpt lat="44.42514576844912" lon="8.398480686107279"><ele>565.0</ele><time>2026-04-06T09:01:09.999Z</time></trkpt><trkpt lat="44.42500771113286" lon="8.39855116230649"><ele>565.0</ele><time>2026-04-06T09:01:10.999Z</time></trkpt><trkpt lat="44.424866024966526" lon="8.398609852051191"><ele>565.0</ele><time>2026-04-06T09:01:11.999Z</time></trkpt><trkpt lat="44.42472114370659" lon="8.398654717366183"><ele>565.0</ele><time>2026-04-06T09:01:12.999Z</time></trkpt><trkpt lat="44.424573047895926" lon="8.398698948190248"><ele>566.25</ele><time>2026-04-06T09:01:13.999Z</time></trkpt><trkpt lat="44.42443160224859" lon="8.398741090009823"><ele>567.5</ele><time>2026-04-06T09:01:14.999Z</time></trkpt><trkpt lat="44.4242882078311" lon="8.398781495005938"><ele>568.75</ele><time>2026-04-06T09:01:15.999Z</time></trkpt><trkpt lat="44.4241470314164" lon="8.398823396154235"><ele>570.0</ele><time>2026-04-06T09:01:16.999Z</time></trkpt><trkpt lat="44.42400709246564" lon="8.398867680123917"><ele>570.5</ele><time>2026-04-06T09:01:17.999Z</time></trkpt><trkpt lat="44.4238692910928" lon="8.398911297890162"><ele>571.0</ele><time>2026-04-06T09:01:18.999Z</time></trkpt><trkpt lat="44.42373226572518" lon="8.39894973003157"><ele>571.5</ele><time>2026-04-06T09:01:19.999Z</time></trkpt><trkpt lat="44.42360655983284" lon="8.398983528507058"><ele>572.0</ele><time>2026-04-06T09:01:20.999Z</time></trkpt><trkpt lat="44.42348849531258" lon="8.399004420391968"><ele>572.75</ele><time>2026-04-06T09:01:21.999Z</time></trkpt><trkpt lat="44.423367865348425" lon="8.399016790514816"><ele>573.5</ele><time>2026-04-06T09:01:22.999Z</time></trkpt><trkpt lat="44.42324283571514" lon="8.39904033080399"><ele>574.25</ele><time>2026-04-06T09:01:23.999Z</time></trkpt><trkpt lat="44.42312232104391" lon="8.399101168441703"><ele>575.0</ele><time>2026-04-06T09:01:24.999Z</time></trkpt><trkpt lat="44.42300747777766" lon="8.399173193177106"><ele>577.6</ele><time>2026-04-06T09:01:25.999Z</time></trkpt><trkpt lat="44.422899141266996" lon="8.399230419867745"><ele>580.2</ele><time>2026-04-06T09:01:26.999Z</time></trkpt><trkpt lat="44.42280285347495" lon="8.399275701968284"><ele>582.8</ele><time>2026-04-06T09:01:27.999Z</time></trkpt><trkpt lat="44.422722156845076" lon="8.39931798655844"><ele>585.4</ele><time>2026-04-06T09:01:28.999Z</time></trkpt><trkpt lat="44.42266166334134" lon="8.399385800086973"><ele>588.0</ele><time>2026-04-06T09:01:29.999Z</time></trkpt><trkpt lat="44.42261921512303" lon="8.399489631427013"><ele>588.0</ele><time>2026-04-06T09:01:30.999Z</time></trkpt><trkpt lat="44.42260146330663" lon="8.399619079111714"><ele>588.0</ele><time>2026-04-06T09:01:31.999Z</time></trkpt><trkpt lat="44.42259105271765" lon="8.399773941460804"><ele>588.0</ele><time>2026-04-06T09:01:32.999Z</time></trkpt><trkpt lat="44.42259219024495" lon="8.399932589878823"><ele>588.0</ele><time>2026-04-06T09:01:33.999Z</time></trkpt><trkpt lat="44.422607850324425" lon="8.40009697044077"><ele>588.0</ele><time>2026-04-06T09:01:34.999Z</time></trkpt><trkpt lat="44.422643237109035" lon="8.400255221379918"><ele>586.8</ele><time>2026-04-06T09:01:35.999Z</time></trkpt><trkpt lat="44.42267924340702" lon="8.400392542835629"><ele>585.5999999999999</ele><time>2026-04-06T09:01:36.999Z</time></trkpt><trkpt lat="44.42268982497455" lon="8.400515459577472"><ele>584.4000000000001</ele><time>2026-04-06T09:01:37.999Z</time></trkpt><trkpt lat="44.42267687029123" lon="8.400644142042099"><ele>583.2</ele><time>2026-04-06T09:01:38.999Z</time></trkpt><trkpt lat="44.42264337822533" lon="8.400773333014858"><ele>582.0</ele><time>2026-04-06T09:01:39.999Z</time></trkpt><trkpt lat="44.42258798918737" lon="8.400910464009398"><ele>580.75</ele><time>2026-04-06T09:01:40.999Z</time></trkpt><trkpt lat="44.422507913110046" lon="8.401033222815613"><ele>579.5</ele><time>2026-04-06T09:01:41.999Z</time></trkpt><trkpt lat="44.4224284794327" lon="8.40117102237702"><ele>578.25</ele><time>2026-04-06T09:01:42.999Z</time></trkpt><trkpt lat="44.42237958196409" lon="8.401326412850711"><ele>577.0</ele><time>2026-04-06T09:01:43.999Z</time></trkpt><trkpt lat="44.42236113622678" lon="8.40151051790949"><ele>575.0</ele><time>2026-04-06T09:01:44.999Z</time></trkpt><trkpt lat="44.422354674971565" lon="8.401730638549392"><ele>573.0</ele><time>2026-04-06T09:01:46Z</time></trkpt><trkpt lat="44.42233705624253" lon="8.401963304337734"><ele>571.0</ele><time>2026-04-06T09:01:47Z</time></trkpt><trkpt lat="44.42229536594546" lon="8.402224637323862"><ele>569.6666666666667</ele><time>2026-04-06T09:01:48Z</time></trkpt><trkpt lat="44.422250310910655" lon="8.402473832608822"><ele>568.3333333333334</ele><time>2026-04-06T09:01:49Z</time></trkpt><trkpt lat="44.42221053207646" lon="8.402694327288495"><ele>567.0</ele><time>2026-04-06T09:01:50Z</time></trkpt><trkpt lat="44.42217566361542" lon="8.40288749487719"><ele>567.6</ele><time>2026-04-06T09:01:51Z</time></trkpt><trkpt lat="44.42214954063537" lon="8.403050748222508"><ele>568.2</ele><time>2026-04-06T09:01:52Z</time></trkpt><trkpt lat="44.4221284396014" lon="8.403192184299316"><ele>568.8</ele><time>2026-04-06T09:01:53Z</time></trkpt><trkpt lat="44.422100238505074" lon="8.403316474781613"><ele>569.4</ele><time>2026-04-06T09:01:54Z</time></trkpt><trkpt lat="44.42206473502694" lon="8.403420547748999"><ele>570.0</ele><time>2026-04-06T09:01:55Z</time></trkpt><trkpt lat="44.422020852205996" lon="8.403537720486463"><ele>570.5</ele><time>2026-04-06T09:01:56Z</time></trkpt><trkpt lat="44.421966582413035" lon="8.403693335994408"><ele>571.0</ele><time>2026-04-06T09:01:57Z</time></trkpt><trkpt lat="44.42190243847036" lon="8.403850469081744"><ele>571.5</ele><time>2026-04-06T09:01:58Z</time></trkpt><trkpt lat="44.42182929770701" lon="8.403995965798543"><ele>572.0</ele><time>2026-04-06T09:01:59Z</time></trkpt><trkpt lat="44.421752294658404" lon="8.404154285060349"><ele>572.0</ele><time>2026-04-06T09:02:00Z</time></trkpt><trkpt lat="44.42168877152683" lon="8.404336579721175"><ele>572.0</ele><time>2026-04-06T09:02:01Z</time></trkpt><trkpt lat="44.42165594730998" lon="8.404517031892361"><ele>572.0</ele><time>2026-04-06T09:02:02Z</time></trkpt><trkpt lat="44.42164997175826" lon="8.404666927219278"><ele>572.0</ele><time>2026-04-06T09:02:03Z</time></trkpt><trkpt lat="44.42167062863018" lon="8.40479540828996"><ele>572.5</ele><time>2026-04-06T09:02:04Z</time></trkpt><trkpt lat="44.4217228197975" lon="8.404909225808499"><ele>573.0</ele><time>2026-04-06T09:02:05Z</time></trkpt><trkpt lat="44.42180419592792" lon="8.405010744174637"><ele>573.5</ele><time>2026-04-06T09:02:06Z</time></trkpt><trkpt lat="44.42190558138377" lon="8.405102061125778"><ele>574.0</ele><time>2026-04-06T09:02:07Z</time></trkpt><trkpt lat="44.4220070885599" lon="8.405212303947177"><ele>574.0</ele><time>2026-04-06T09:02:08Z</time></trkpt><trkpt lat="44.42209832602353" lon="8.405333017459203"><ele>574.0</ele><time>2026-04-06T09:02:09Z</time></trkpt><trkpt lat="44.422181899582284" lon="8.405450797045273"><ele>574.0</ele><time>2026-04-06T09:02:10Z</time></trkpt><trkpt lat="44.42222711507148" lon="8.405543613437123"><ele>574.0</ele><time>2026-04-06T09:02:11Z</time></trkpt><trkpt lat="44.42218698670359" lon="8.405666247428734"><ele>574.0</ele><time>2026-04-06T09:02:13Z</time></trkpt><trkpt lat="44.42206138435327" lon="8.40567098042561"><ele>575.6</ele><time>2026-04-06T09:02:15Z</time></trkpt><trkpt lat="44.42199171811169" lon="8.405698288941272"><ele>577.2</ele><time>2026-04-06T09:02:16Z</time></trkpt><trkpt lat="44.42195609570432" lon="8.405882957082456"><ele>578.8000000000001</ele><time>2026-04-06T09:02:18Z</time></trkpt><trkpt lat="44.421966650752545" lon="8.40600129264169"><ele>580.4</ele><time>2026-04-06T09:02:19Z</time></trkpt><trkpt lat="44.42198167981929" lon="8.406117965925233"><ele>582.0</ele><time>2026-04-06T09:02:20Z</time></trkpt><trkpt lat="44.421998088692796" lon="8.40625343970509"><ele>584.0</ele><time>2026-04-06T09:02:21Z</time></trkpt><trkpt lat="44.42201546970465" lon="8.406370693447315"><ele>586.0</ele><time>2026-04-06T09:02:22Z</time></trkpt><trkpt lat="44.42204602539817" lon="8.406514219586054"><ele>588.0</ele><time>2026-04-06T09:02:23Z</time></trkpt><trkpt lat="44.42205074983045" lon="8.406637502328861"><ele>590.0</ele><time>2026-04-06T09:02:24Z</time></trkpt><trkpt lat="44.42206683306598" lon="8.406744483241175"><ele>592.0</ele><time>2026-04-06T09:02:25Z</time></trkpt><trkpt lat="44.42210667444697" lon="8.406858867181978"><ele>592.0</ele><time>2026-04-06T09:02:26Z</time></trkpt><trkpt lat="44.4221424235977" lon="8.406954279693236"><ele>592.0</ele><time>2026-04-06T09:02:27Z</time></trkpt><trkpt lat="44.422151364037276" lon="8.40704571128739"><ele>592.0</ele><time>2026-04-06T09:02:28Z</time></trkpt><trkpt lat="44.42208121439342" lon="8.407187890373082"><ele>592.0</ele><time>2026-04-06T09:02:30Z</time></trkpt><trkpt lat="44.42201712547766" lon="8.40724815890475"><ele>592.0</ele><time>2026-04-06T09:02:31Z</time></trkpt><trkpt lat="44.42189827721961" lon="8.407280540546585"><ele>593.8333333333334</ele><time>2026-04-06T09:02:33Z</time></trkpt><trkpt lat="44.42180333928804" lon="8.407365546723359"><ele>595.6666666666667</ele><time>2026-04-06T09:02:35Z</time></trkpt><trkpt lat="44.4217946410127" lon="8.407455541687675"><ele>597.5</ele><time>2026-04-06T09:02:36Z</time></trkpt><trkpt lat="44.421789397117664" lon="8.4075559341605"><ele>599.3333333333334</ele><time>2026-04-06T09:02:37Z</time></trkpt><trkpt lat="44.421799953621885" lon="8.407680875453503"><ele>601.1666666666666</ele><time>2026-04-06T09:02:38Z</time></trkpt><trkpt lat="44.421809620066355" lon="8.407812450087235"><ele>603.0</ele><time>2026-04-06T09:02:39Z</time></trkpt><trkpt lat="44.42182212846845" lon="8.407964866394877"><ele>605.6</ele><time>2026-04-06T09:02:40Z</time></trkpt><trkpt lat="44.42183008878612" lon="8.408120982390194"><ele>608.1999999999999</ele><time>2026-04-06T09:02:41Z</time></trkpt><trkpt lat="44.421828632922846" lon="8.408239140698488"><ele>610.8</ele><time>2026-04-06T09:02:42Z</time></trkpt><trkpt lat="44.42181853583608" lon="8.408367847918608"><ele>613.4</ele><time>2026-04-06T09:02:43Z</time></trkpt><trkpt lat="44.42178334611932" lon="8.40849548845697"><ele>616.0</ele><time>2026-04-06T09:02:44Z</time></trkpt><trkpt lat="44.421729708817395" lon="8.408612198322848"><ele>616.0</ele><time>2026-04-06T09:02:45Z</time></trkpt><trkpt lat="44.421673773358016" lon="8.408707267204047"><ele>616.0</ele><time>2026-04-06T09:02:46Z</time></trkpt><trkpt lat="44.421605165046095" lon="8.408781878785561"><ele>616.0</ele><time>2026-04-06T09:02:47Z</time></trkpt><trkpt lat="44.421511937542554" lon="8.408873469252468"><ele>616.0</ele><time>2026-04-06T09:02:49Z</time></trkpt><trkpt lat="44.421409835405555" lon="8.408971092266158"><ele>616.0</ele><time>2026-04-06T09:02:51Z</time></trkpt><trkpt lat="44.421334245608435" lon="8.409043661961954"><ele>615.2</ele><time>2026-04-06T09:02:52Z</time></trkpt><trkpt lat="44.42127334571746" lon="8.409130451777262"><ele>614.4000000000001</ele><time>2026-04-06T09:02:53Z</time></trkpt><trkpt lat="44.42122277569634" lon="8.409217918085284"><ele>613.6</ele><time>2026-04-06T09:02:54Z</time></trkpt><trkpt lat="44.42115766889778" lon="8.409373509116827"><ele>612.8000000000001</ele><time>2026-04-06T09:02:56Z</time></trkpt><trkpt lat="44.42111126722201" lon="8.409460037871119"><ele>612.0</ele><time>2026-04-06T09:02:57Z</time></trkpt><trkpt lat="44.42106769240443" lon="8.409558349947014"><ele>614.6</ele><time>2026-04-06T09:02:58Z</time></trkpt><trkpt lat="44.421031174490594" lon="8.409666151636145"><ele>617.2</ele><time>2026-04-06T09:02:59Z</time></trkpt><trkpt lat="44.42101802961741" lon="8.409781774553611"><ele>619.8</ele><time>2026-04-06T09:03:00Z</time></trkpt><trkpt lat="44.420994673094704" lon="8.409911235616601"><ele>622.4</ele><time>2026-04-06T09:03:01Z</time></trkpt><trkpt lat="44.42096274945163" lon="8.410050715231174"><ele>625.0</ele><time>2026-04-06T09:03:02Z</time></trkpt><trkpt lat="44.420926767511965" lon="8.410185762470173"><ele>625.0</ele><time>2026-04-06T09:03:02.999Z</time></trkpt><trkpt lat="44.42088561045801" lon="8.41030924190757"><ele>625.0</ele><time>2026-04-06T09:03:03.999Z</time></trkpt><trkpt lat="44.420852396569614" lon="8.410429730275164"><ele>625.0</ele><time>2026-04-06T09:03:04.999Z</time></trkpt><trkpt lat="44.420828145869976" lon="8.410574341036739"><ele>625.0</ele><time>2026-04-06T09:03:05.999Z</time></trkpt><trkpt lat="44.42082292303584" lon="8.410735068526513"><ele>625.0</ele><time>2026-04-06T09:03:06.999Z</time></trkpt><trkpt lat="44.4208153107769" lon="8.410915099027267"><ele>626.6666666666667</ele><time>2026-04-06T09:03:07.999Z</time></trkpt><trkpt lat="44.42079628438365" lon="8.411112582911336"><ele>628.3333333333334</ele><time>2026-04-06T09:03:08.999Z</time></trkpt><trkpt lat="44.42076524308848" lon="8.411339075300562"><ele>630.0</ele><time>2026-04-06T09:03:09.999Z</time></trkpt><trkpt lat="44.420726955442056" lon="8.411563277064273"><ele>632.0</ele><time>2026-04-06T09:03:10.999Z</time></trkpt><trkpt lat="44.42069147360986" lon="8.411754988938757"><ele>634.0</ele><time>2026-04-06T09:03:11.999Z</time></trkpt><trkpt lat="44.420654011698275" lon="8.411922807623817"><ele>636.0</ele><time>2026-04-06T09:03:12.999Z</time></trkpt><trkpt lat="44.42061694103987" lon="8.412075969276362"><ele>638.0</ele><time>2026-04-06T09:03:13.999Z</time></trkpt><trkpt lat="44.42057870136094" lon="8.412217934267739"><ele>638.3333333333333</ele><time>2026-04-06T09:03:14.999Z</time></trkpt><trkpt lat="44.420544047326864" lon="8.412334821733406"><ele>638.6666666666666</ele><time>2026-04-06T09:03:15.999Z</time></trkpt><trkpt lat="44.420500114465014" lon="8.412445974569632"><ele>639.0</ele><time>2026-04-06T09:03:16.999Z</time></trkpt><trkpt lat="44.42043721819019" lon="8.41254308102133"><ele>639.3333333333334</ele><time>2026-04-06T09:03:17.999Z</time></trkpt><trkpt lat="44.4203642683498" lon="8.412617578494132"><ele>639.6666666666667</ele><time>2026-04-06T09:03:18.999Z</time></trkpt><trkpt lat="44.420295371852234" lon="8.412680720693402"><ele>640.0</ele><time>2026-04-06T09:03:19.999Z</time></trkpt><trkpt lat="44.42020236710048" lon="8.412708089397066"><ele>639.0</ele><time>2026-04-06T09:03:20.999Z</time></trkpt><trkpt lat="44.42008691688008" lon="8.412702926212862"><ele>638.0</ele><time>2026-04-06T09:03:21.999Z</time></trkpt><trkpt lat="44.41999665844478" lon="8.412709191768808"><ele>637.0</ele><time>2026-04-06T09:03:22.999Z</time></trkpt><trkpt lat="44.4199149186249" lon="8.41271758521034"><ele>636.0</ele><time>2026-04-06T09:03:23.999Z</time></trkpt><trkpt lat="44.4198361245893" lon="8.412759063206524"><ele>635.0</ele><time>2026-04-06T09:03:24.999Z</time></trkpt><trkpt lat="44.41975004209657" lon="8.412831530388486"><ele>635.0</ele><time>2026-04-06T09:03:25.999Z</time></trkpt><trkpt lat="44.41967444017352" lon="8.412902558947431"><ele>635.0</ele><time>2026-04-06T09:03:26.999Z</time></trkpt><trkpt lat="44.419603217618906" lon="8.412978807505198"><ele>635.0</ele><time>2026-04-06T09:03:28.999Z</time></trkpt><trkpt lat="44.41957868017409" lon="8.413070823691537"><ele>635.0</ele><time>2026-04-06T09:03:30.999Z</time></trkpt><trkpt lat="44.41954814203056" lon="8.413156053809361"><ele>635.0</ele><time>2026-04-06T09:03:32.999Z</time></trkpt><trkpt lat="44.41956471595014" lon="8.41324242367864"><ele>635.0</ele><time>2026-04-06T09:03:34.999Z</time></trkpt><trkpt lat="44.419581206664404" lon="8.413343892007688"><ele>636.6</ele><time>2026-04-06T09:03:36.999Z</time></trkpt><trkpt lat="44.419635158690184" lon="8.413435275686384"><ele>638.2</ele><time>2026-04-06T09:03:38.999Z</time></trkpt><trkpt lat="44.419716968450395" lon="8.413519496005419"><ele>639.8</ele><time>2026-04-06T09:03:40.999Z</time></trkpt><trkpt lat="44.41981718602522" lon="8.413566354587756"><ele>641.4</ele><time>2026-04-06T09:03:42.999Z</time></trkpt><trkpt lat="44.41994647523835" lon="8.413604515952777"><ele>643.0</ele><time>2026-04-06T09:03:44.999Z</time></trkpt><trkpt lat="44.4200373170359" lon="8.41362721325378"><ele>643.4</ele><time>2026-04-06T09:03:45.999Z</time></trkpt><trkpt lat="44.420117969340005" lon="8.413643238773643"><ele>643.8</ele><time>2026-04-06T09:03:46.999Z</time></trkpt><trkpt lat="44.42019733270315" lon="8.413676475587964"><ele>644.2</ele><time>2026-04-06T09:03:48.999Z</time></trkpt><trkpt lat="44.420278364596506" lon="8.41374700035178"><ele>644.6</ele><time>2026-04-06T09:03:52Z</time></trkpt><trkpt lat="44.42033851148948" lon="8.413874706058108"><ele>645.0</ele><time>2026-04-06T09:03:54Z</time></trkpt><trkpt lat="44.42033842275915" lon="8.414007809058806"><ele>642.4</ele><time>2026-04-06T09:03:56Z</time></trkpt><trkpt lat="44.42027018158752" lon="8.414133006946466"><ele>639.8</ele><time>2026-04-06T09:03:58Z</time></trkpt><trkpt lat="44.42019880891153" lon="8.41419252056219"><ele>637.2</ele><time>2026-04-06T09:03:59Z</time></trkpt><trkpt lat="44.42011710366238" lon="8.41423739130061"><ele>634.6</ele><time>2026-04-06T09:04:00Z</time></trkpt><trkpt lat="44.42003978648007" lon="8.41430514555229"><ele>632.0</ele><time>2026-04-06T09:04:01Z</time></trkpt><trkpt lat="44.41998645907377" lon="8.414417152651623"><ele>632.0</ele><time>2026-04-06T09:04:02Z</time></trkpt><trkpt lat="44.41995771939525" lon="8.414553687809738"><ele>632.0</ele><time>2026-04-06T09:04:03Z</time></trkpt><trkpt lat="44.419905030062964" lon="8.414657850306211"><ele>632.0</ele><time>2026-04-06T09:04:04Z</time></trkpt><trkpt lat="44.419842685877754" lon="8.414724375064333"><ele>632.0</ele><time>2026-04-06T09:04:05Z</time></trkpt><trkpt lat="44.41979464699353" lon="8.414785548173567"><ele>632.0</ele><time>2026-04-06T09:04:06Z</time></trkpt><trkpt lat="44.41973956241077" lon="8.414938978536462"><ele>630.0</ele><time>2026-04-06T09:04:08Z</time></trkpt><trkpt lat="44.41973760671651" lon="8.415040363659456"><ele>628.0</ele><time>2026-04-06T09:04:09Z</time></trkpt><trkpt lat="44.41974866476397" lon="8.415147999278314"><ele>626.0</ele><time>2026-04-06T09:04:10Z</time></trkpt><trkpt lat="44.4197548304448" lon="8.415279023525446"><ele>624.0</ele><time>2026-04-06T09:04:11Z</time></trkpt><trkpt lat="44.419754813334066" lon="8.415420208673819"><ele>622.0</ele><time>2026-04-06T09:04:12Z</time></trkpt><trkpt lat="44.41974641513562" lon="8.415561370458015"><ele>620.0</ele><time>2026-04-06T09:04:13Z</time></trkpt><trkpt lat="44.41973486293929" lon="8.415695372790996"><ele>618.0</ele><time>2026-04-06T09:04:14Z</time></trkpt><trkpt lat="44.419711027018415" lon="8.415818689236676"><ele>616.0</ele><time>2026-04-06T09:04:15Z</time></trkpt><trkpt lat="44.41967076934136" lon="8.415913003527725"><ele>614.0</ele><time>2026-04-06T09:04:16Z</time></trkpt><trkpt lat="44.41963242117988" lon="8.415993371731687"><ele>612.0</ele><time>2026-04-06T09:04:17Z</time></trkpt><trkpt lat="44.419583497306874" lon="8.416122016041177"><ele>610.0</ele><time>2026-04-06T09:04:19Z</time></trkpt><trkpt lat="44.41961279080301" lon="8.416266142987457"><ele>608.6</ele><time>2026-04-06T09:04:21Z</time></trkpt><trkpt lat="44.41970631186748" lon="8.416374086034429"><ele>607.2</ele><time>2026-04-06T09:04:23Z</time></trkpt><trkpt lat="44.41978672525385" lon="8.416374610397572"><ele>605.8</ele><time>2026-04-06T09:04:24Z</time></trkpt><trkpt lat="44.41987537010368" lon="8.416396751147168"><ele>604.4</ele><time>2026-04-06T09:04:25Z</time></trkpt><trkpt lat="44.419967619718115" lon="8.416381232627861"><ele>603.0</ele><time>2026-04-06T09:04:26Z</time></trkpt><trkpt lat="44.42004277952543" lon="8.41638421591297"><ele>603.0</ele><time>2026-04-06T09:04:27Z</time></trkpt><trkpt lat="44.42010920126483" lon="8.416374917510563"><ele>603.0</ele><time>2026-04-06T09:04:28Z</time></trkpt><trkpt lat="44.42019713647238" lon="8.416372274404464"><ele>603.0</ele><time>2026-04-06T09:04:30Z</time></trkpt><trkpt lat="44.420213343595385" lon="8.416467631651845"><ele>603.0</ele><time>2026-04-06T09:04:34Z</time></trkpt><trkpt lat="44.42017771858472" lon="8.41654752698572"><ele>603.0</ele><time>2026-04-06T09:04:35Z</time></trkpt><trkpt lat="44.420138536452484" lon="8.416676194729769"><ele>603.0</ele><time>2026-04-06T09:04:36Z</time></trkpt><trkpt lat="44.42008095891804" lon="8.416819393220765"><ele>603.0</ele><time>2026-04-06T09:04:37Z</time></trkpt><trkpt lat="44.42002571741098" lon="8.416944863787286"><ele>603.0</ele><time>2026-04-06T09:04:38Z</time></trkpt><trkpt lat="44.41995536730389" lon="8.417094044369058"><ele>603.0</ele><time>2026-04-06T09:04:39Z</time></trkpt><trkpt lat="44.41988358986016" lon="8.417245583486652"><ele>603.0</ele><time>2026-04-06T09:04:40Z</time></trkpt><trkpt lat="44.4198265964397" lon="8.417373973758238"><ele>602.75</ele><time>2026-04-06T09:04:41Z</time></trkpt><trkpt lat="44.41980439658395" lon="8.417530559103225"><ele>602.5</ele><time>2026-04-06T09:04:42Z</time></trkpt><trkpt lat="44.41979065127419" lon="8.417702135460939"><ele>602.25</ele><time>2026-04-06T09:04:43Z</time></trkpt><trkpt lat="44.41979705430445" lon="8.417870236360283"><ele>602.0</ele><time>2026-04-06T09:04:44Z</time></trkpt><trkpt lat="44.419834534957225" lon="8.41802574325008"><ele>602.0</ele><time>2026-04-06T09:04:45Z</time></trkpt><trkpt lat="44.41990752202367" lon="8.418165976129668"><ele>602.0</ele><time>2026-04-06T09:04:46Z</time></trkpt><trkpt lat="44.4200132160029" lon="8.418277188004945"><ele>602.0</ele><time>2026-04-06T09:04:47Z</time></trkpt><trkpt lat="44.4201430466882" lon="8.418375421691538"><ele>602.0</ele><time>2026-04-06T09:04:48Z</time></trkpt><trkpt lat="44.4202735872275" lon="8.418479266899265"><ele>602.0</ele><time>2026-04-06T09:04:49Z</time></trkpt><trkpt lat="44.420377947828754" lon="8.418600676877624"><ele>602.0</ele><time>2026-04-06T09:04:50Z</time></trkpt><trkpt lat="44.420469073342936" lon="8.418709240112026"><ele>602.0</ele><time>2026-04-06T09:04:51Z</time></trkpt><trkpt lat="44.42053331648084" lon="8.418812848126056"><ele>602.0</ele><time>2026-04-06T09:04:52Z</time></trkpt><trkpt lat="44.42057667920639" lon="8.418920153965843"><ele>602.0</ele><time>2026-04-06T09:04:53Z</time></trkpt><trkpt lat="44.420592232642434" lon="8.41906410149733"><ele>602.0</ele><time>2026-04-06T09:04:54Z</time></trkpt><trkpt lat="44.42058540710208" lon="8.41922309874851"><ele>602.0</ele><time>2026-04-06T09:04:55Z</time></trkpt><trkpt lat="44.42055007782539" lon="8.419402437217352"><ele>602.0</ele><time>2026-04-06T09:04:56Z</time></trkpt><trkpt lat="44.420492192693445" lon="8.419590221940734"><ele>602.0</ele><time>2026-04-06T09:04:57Z</time></trkpt><trkpt lat="44.4204176144789" lon="8.419771021602244"><ele>602.0</ele><time>2026-04-06T09:04:58Z</time></trkpt><trkpt lat="44.42031614175539" lon="8.419951178108809"><ele>602.0</ele><time>2026-04-06T09:04:59Z</time></trkpt><trkpt lat="44.42021524653381" lon="8.420118300300295"><ele>602.0</ele><time>2026-04-06T09:05:00Z</time></trkpt><trkpt lat="44.4201247413351" lon="8.420289606409755"><ele>602.0</ele><time>2026-04-06T09:05:01Z</time></trkpt><trkpt lat="44.42004646895777" lon="8.420457361407262"><ele>602.0</ele><time>2026-04-06T09:05:02Z</time></trkpt><trkpt lat="44.419975807795254" lon="8.420604901662928"><ele>602.0</ele><time>2026-04-06T09:05:03Z</time></trkpt><trkpt lat="44.41988762293536" lon="8.420714997238141"><ele>602.0</ele><time>2026-04-06T09:05:04Z</time></trkpt><trkpt lat="44.41976706989253" lon="8.420752822261816"><ele>599.0</ele><time>2026-04-06T09:05:05Z</time></trkpt><trkpt lat="44.4196636529575" lon="8.42079305308867"><ele>596.0</ele><time>2026-04-06T09:05:06Z</time></trkpt><trkpt lat="44.41957061011711" lon="8.4207405676715"><ele>593.0</ele><time>2026-04-06T09:05:07Z</time></trkpt><trkpt lat="44.419494219606975" lon="8.42065748097638"><ele>590.0</ele><time>2026-04-06T09:05:08Z</time></trkpt><trkpt lat="44.4194209822372" lon="8.420548108399947"><ele>587.0</ele><time>2026-04-06T09:05:09Z</time></trkpt><trkpt lat="44.419375528064464" lon="8.420388506450935"><ele>587.0</ele><time>2026-04-06T09:05:10Z</time></trkpt><trkpt lat="44.41928415497431" lon="8.420233924982519"><ele>587.0</ele><time>2026-04-06T09:05:11Z</time></trkpt><trkpt lat="44.41919447598059" lon="8.420050949595872"><ele>587.0</ele><time>2026-04-06T09:05:12Z</time></trkpt><trkpt lat="44.419088847368684" lon="8.419864712205333"><ele>587.0</ele><time>2026-04-06T09:05:13Z</time></trkpt><trkpt lat="44.41900008560185" lon="8.419653833004713"><ele>587.0</ele><time>2026-04-06T09:05:14Z</time></trkpt><trkpt lat="44.41891085721954" lon="8.419439121281137"><ele>587.0</ele><time>2026-04-06T09:05:15Z</time></trkpt><trkpt lat="44.41881482245556" lon="8.419205015740724"><ele>585.6666666666666</ele><time>2026-04-06T09:05:16Z</time></trkpt><trkpt lat="44.41869331943405" lon="8.418976587058372"><ele>584.3333333333334</ele><time>2026-04-06T09:05:17Z</time></trkpt><trkpt lat="44.418591699010705" lon="8.418760170151904"><ele>583.0</ele><time>2026-04-06T09:05:18Z</time></trkpt><trkpt lat="44.418494781187135" lon="8.41855441355266"><ele>583.0</ele><time>2026-04-06T09:05:19Z</time></trkpt><trkpt lat="44.41839389635145" lon="8.418363176892209"><ele>583.0</ele><time>2026-04-06T09:05:20Z</time></trkpt><trkpt lat="44.418276115032754" lon="8.418190602900923"><ele>583.0</ele><time>2026-04-06T09:05:21Z</time></trkpt><trkpt lat="44.41815522834062" lon="8.418051440955015"><ele>584.5</ele><time>2026-04-06T09:05:21.999Z</time></trkpt><trkpt lat="44.41805024364309" lon="8.417914925130129"><ele>586.0</ele><time>2026-04-06T09:05:22.999Z</time></trkpt><trkpt lat="44.41796689019515" lon="8.417741619658266"><ele>587.5</ele><time>2026-04-06T09:05:23.999Z</time></trkpt><trkpt lat="44.41788102497598" lon="8.417561449217741"><ele>589.0</ele><time>2026-04-06T09:05:24.999Z</time></trkpt><trkpt lat="44.41779661420052" lon="8.417358180313247"><ele>585.6666666666667</ele><time>2026-04-06T09:05:25.999Z</time></trkpt><trkpt lat="44.417696221303345" lon="8.417168756315528"><ele>582.3333333333334</ele><time>2026-04-06T09:05:26.999Z</time></trkpt><trkpt lat="44.417609644319604" lon="8.41696453668939"><ele>579.0</ele><time>2026-04-06T09:05:27.999Z</time></trkpt><trkpt lat="44.41751185931011" lon="8.4167610934373"><ele>579.0</ele><time>2026-04-06T09:05:28.999Z</time></trkpt><trkpt lat="44.41741155702228" lon="8.416555762893989"><ele>579.0</ele><time>2026-04-06T09:05:29.999Z</time></trkpt><trkpt lat="44.417319096028024" lon="8.416358778785533"><ele>579.0</ele><time>2026-04-06T09:05:30.999Z</time></trkpt><trkpt lat="44.41722475197688" lon="8.41617122551661"><ele>577.0</ele><time>2026-04-06T09:05:31.999Z</time></trkpt><trkpt lat="44.41713533371171" lon="8.416002256342336"><ele>575.0</ele><time>2026-04-06T09:05:32.999Z</time></trkpt><trkpt lat="44.417028398467124" lon="8.415866041633663"><ele>573.0</ele><time>2026-04-06T09:05:33.999Z</time></trkpt><trkpt lat="44.41688468531228" lon="8.415771398180746"><ele>573.0</ele><time>2026-04-06T09:05:34.999Z</time></trkpt><trkpt lat="44.41672174732602" lon="8.415708585847545"><ele>573.0</ele><time>2026-04-06T09:05:35.999Z</time></trkpt><trkpt lat="44.41655450437917" lon="8.415650742123972"><ele>573.0</ele><time>2026-04-06T09:05:36.999Z</time></trkpt><trkpt lat="44.41639706760304" lon="8.415596392266512"><ele>570.3333333333334</ele><time>2026-04-06T09:05:37.999Z</time></trkpt><trkpt lat="44.416230600998595" lon="8.415553144090175"><ele>567.6666666666667</ele><time>2026-04-06T09:05:38.999Z</time></trkpt><trkpt lat="44.41605881763828" lon="8.415529564136369"><ele>565.0</ele><time>2026-04-06T09:05:39.999Z</time></trkpt><trkpt lat="44.415875235755735" lon="8.415524911823244"><ele>568.3333333333334</ele><time>2026-04-06T09:05:40.999Z</time></trkpt><trkpt lat="44.41570699304365" lon="8.415486941900635"><ele>571.6666666666666</ele><time>2026-04-06T09:05:41.999Z</time></trkpt><trkpt lat="44.41554874432297" lon="8.415451209183052"><ele>575.0</ele><time>2026-04-06T09:05:42.999Z</time></trkpt><trkpt lat="44.415396692958275" lon="8.415395475015533"><ele>575.0</ele><time>2026-04-06T09:05:43.999Z</time></trkpt><trkpt lat="44.41524564053896" lon="8.415319418693286"><ele>575.0</ele><time>2026-04-06T09:05:44.999Z</time></trkpt><trkpt lat="44.41508086421231" lon="8.41524360910311"><ele>575.0</ele><time>2026-04-06T09:05:45.999Z</time></trkpt><trkpt lat="44.4149303865726" lon="8.415156650579997"><ele>575.0</ele><time>2026-04-06T09:05:46.999Z</time></trkpt><trkpt lat="44.414778912438145" lon="8.41505828347439"><ele>575.0</ele><time>2026-04-06T09:05:47.999Z</time></trkpt><trkpt lat="44.41463756745677" lon="8.414939657431306"><ele>575.0</ele><time>2026-04-06T09:05:48.999Z</time></trkpt><trkpt lat="44.41450783790431" lon="8.414836208500247"><ele>577.0</ele><time>2026-04-06T09:05:49.999Z</time></trkpt><trkpt lat="44.41436944999456" lon="8.4147185216727"><ele>579.0</ele><time>2026-04-06T09:05:50.999Z</time></trkpt><trkpt lat="44.41424541728593" lon="8.414599344201267"><ele>581.0</ele><time>2026-04-06T09:05:51.999Z</time></trkpt><trkpt lat="44.414111065932076" lon="8.41449421064136"><ele>581.0</ele><time>2026-04-06T09:05:52.999Z</time></trkpt><trkpt lat="44.41397873176991" lon="8.414417390155235"><ele>581.0</ele><time>2026-04-06T09:05:53.999Z</time></trkpt><trkpt lat="44.41384771705204" lon="8.414334757624509"><ele>581.0</ele><time>2026-04-06T09:05:54.999Z</time></trkpt><trkpt lat="44.41372222204307" lon="8.414260564558315"><ele>581.0</ele><time>2026-04-06T09:05:55.999Z</time></trkpt><trkpt lat="44.41359509504263" lon="8.414185173712267"><ele>576.5</ele><time>2026-04-06T09:05:56.999Z</time></trkpt><trkpt lat="44.41346100439558" lon="8.41410579904449"><ele>572.0</ele><time>2026-04-06T09:05:58.001Z</time></trkpt><trkpt lat="44.41333196120637" lon="8.414025602624053"><ele>567.5</ele><time>2026-04-06T09:05:59.001Z</time></trkpt><trkpt lat="44.41320042982214" lon="8.413938565849113"><ele>563.0</ele><time>2026-04-06T09:06:00.001Z</time></trkpt><trkpt lat="44.413070391186864" lon="8.413856186255192"><ele>563.25</ele><time>2026-04-06T09:06:01.001Z</time></trkpt><trkpt lat="44.41295679501606" lon="8.413778610040197"><ele>563.5</ele><time>2026-04-06T09:06:02.001Z</time></trkpt><trkpt lat="44.412854201990484" lon="8.413703000198062"><ele>563.75</ele><time>2026-04-06T09:06:03.001Z</time></trkpt><trkpt lat="44.41274642148936" lon="8.413634276819549"><ele>564.0</ele><time>2026-04-06T09:06:04.001Z</time></trkpt><trkpt lat="44.41264396180503" lon="8.413571533837146"><ele>564.0</ele><time>2026-04-06T09:06:05.001Z</time></trkpt><trkpt lat="44.412545067215795" lon="8.41350827969011"><ele>564.0</ele><time>2026-04-06T09:06:06.001Z</time></trkpt><trkpt lat="44.412457002623434" lon="8.413447599490716"><ele>564.0</ele><time>2026-04-06T09:06:07.001Z</time></trkpt><trkpt lat="44.41239452762291" lon="8.413384243102922"><ele>564.0</ele><time>2026-04-06T09:06:08.001Z</time></trkpt><trkpt lat="44.412295575579655" lon="8.413278552452628"><ele>564.0</ele><time>2026-04-06T09:06:10Z</time></trkpt><trkpt lat="44.4122298258977" lon="8.413238260092074"><ele>564.2</ele><time>2026-04-06T09:06:11Z</time></trkpt><trkpt lat="44.412145738334196" lon="8.413214757174863"><ele>564.4</ele><time>2026-04-06T09:06:12Z</time></trkpt><trkpt lat="44.41205107326769" lon="8.413214508862168"><ele>564.6</ele><time>2026-04-06T09:06:13Z</time></trkpt><trkpt lat="44.411943811112444" lon="8.413258591974378"><ele>564.8</ele><time>2026-04-06T09:06:14Z</time></trkpt><trkpt lat="44.411830562154215" lon="8.4133067311697"><ele>565.0</ele><time>2026-04-06T09:06:15Z</time></trkpt><trkpt lat="44.41171132398436" lon="8.413358062483143"><ele>565.0</ele><time>2026-04-06T09:06:16Z</time></trkpt><trkpt lat="44.41160105253827" lon="8.413417027729825"><ele>565.0</ele><time>2026-04-06T09:06:17Z</time></trkpt><trkpt lat="44.411503107586384" lon="8.413478988853399"><ele>565.0</ele><time>2026-04-06T09:06:18Z</time></trkpt><trkpt lat="44.411414196403996" lon="8.413523919629766"><ele>565.0</ele><time>2026-04-06T09:06:19Z</time></trkpt><trkpt lat="44.411339261002105" lon="8.413577759232739"><ele>565.0</ele><time>2026-04-06T09:06:20Z</time></trkpt><trkpt lat="44.411268929329516" lon="8.41360768554697"><ele>566.3333333333334</ele><time>2026-04-06T09:06:21Z</time></trkpt><trkpt lat="44.41120243728861" lon="8.413637619938585"><ele>567.6666666666667</ele><time>2026-04-06T09:06:22Z</time></trkpt><trkpt lat="44.411136170711885" lon="8.413674772153817"><ele>569.0</ele><time>2026-04-06T09:06:23Z</time></trkpt><trkpt lat="44.41107064793274" lon="8.41370611568206"><ele>570.3333333333334</ele><time>2026-04-06T09:06:24Z</time></trkpt><trkpt lat="44.4109573236733" lon="8.413760896830142"><ele>571.6666666666666</ele><time>2026-04-06T09:06:26Z</time></trkpt><trkpt lat="44.41086931946501" lon="8.413807889362868"><ele>573.0</ele><time>2026-04-06T09:06:28Z</time></trkpt><trkpt lat="44.41079641924817" lon="8.413846803723454"><ele>573.0</ele><time>2026-04-06T09:06:31Z</time></trkpt><trkpt lat="44.4107029336863" lon="8.413920684410108"><ele>573.0</ele><time>2026-04-06T09:08:34Z</time></trkpt><trkpt lat="44.41063280505404" lon="8.41395989165037"><ele>573.0</ele><time>2026-04-06T09:08:35Z</time></trkpt><trkpt lat="44.410543799751814" lon="8.414010818268451"><ele>573.0</ele><time>2026-04-06T09:08:36Z</time></trkpt><trkpt lat="44.410449131072035" lon="8.414056766901101"><ele>573.0</ele><time>2026-04-06T09:08:37Z</time></trkpt><trkpt lat="44.410352865551125" lon="8.414106544168254"><ele>573.8</ele><time>2026-04-06T09:08:38Z</time></trkpt><trkpt lat="44.41026520189628" lon="8.414154779975519"><ele>574.5999999999999</ele><time>2026-04-06T09:08:39Z</time></trkpt><trkpt lat="44.410163244114344" lon="8.414202909127242"><ele>575.4000000000001</ele><time>2026-04-06T09:08:40Z</time></trkpt><trkpt lat="44.41006139921072" lon="8.414255716152384"><ele>576.2</ele><time>2026-04-06T09:08:41Z</time></trkpt><trkpt lat="44.4099632776824" lon="8.414307176863025"><ele>577.0</ele><time>2026-04-06T09:08:42Z</time></trkpt><trkpt lat="44.40986891000995" lon="8.4143576069602"><ele>577.0</ele><time>2026-04-06T09:08:43Z</time></trkpt><trkpt lat="44.40975443153294" lon="8.414460124001407"><ele>577.0</ele><time>2026-04-06T09:08:44Z</time></trkpt><trkpt lat="44.409636982597796" lon="8.414491392667477"><ele>577.0</ele><time>2026-04-06T09:08:45Z</time></trkpt><trkpt lat="44.409513340246534" lon="8.414566821101168"><ele>577.0</ele><time>2026-04-06T09:08:46Z</time></trkpt><trkpt lat="44.409395363277106" lon="8.414659472468287"><ele>578.75</ele><time>2026-04-06T09:08:47Z</time></trkpt><trkpt lat="44.40928169233363" lon="8.414763923959415"><ele>580.5</ele><time>2026-04-06T09:08:48Z</time></trkpt><trkpt lat="44.40917491741437" lon="8.414876710462046"><ele>582.25</ele><time>2026-04-06T09:08:49Z</time></trkpt><trkpt lat="44.409073089210374" lon="8.415004495057774"><ele>584.0</ele><time>2026-04-06T09:08:50Z</time></trkpt><trkpt lat="44.4089776657161" lon="8.415143699283565"><ele>584.0</ele><time>2026-04-06T09:08:51Z</time></trkpt><trkpt lat="44.40888693870985" lon="8.415298582617242"><ele>584.0</ele><time>2026-04-06T09:08:52Z</time></trkpt><trkpt lat="44.40881168433266" lon="8.415454685955204"><ele>584.0</ele><time>2026-04-06T09:08:53Z</time></trkpt><trkpt lat="44.408745758830065" lon="8.41560877486764"><ele>584.0</ele><time>2026-04-06T09:08:54Z</time></trkpt><trkpt lat="44.40867398044957" lon="8.415761904275417"><ele>584.25</ele><time>2026-04-06T09:08:55Z</time></trkpt><trkpt lat="44.408597166153285" lon="8.415911805636073"><ele>584.5</ele><time>2026-04-06T09:08:56Z</time></trkpt><trkpt lat="44.40850791582455" lon="8.41605716209967"><ele>584.75</ele><time>2026-04-06T09:08:57Z</time></trkpt><trkpt lat="44.408403725449496" lon="8.416194511104306"><ele>585.0</ele><time>2026-04-06T09:08:58Z</time></trkpt><trkpt lat="44.40828232082648" lon="8.41629331253699"><ele>587.75</ele><time>2026-04-06T09:08:59Z</time></trkpt><trkpt lat="44.4081443771869" lon="8.416354076921662"><ele>590.5</ele><time>2026-04-06T09:09:00Z</time></trkpt><trkpt lat="44.40799678310348" lon="8.416370439009446"><ele>593.25</ele><time>2026-04-06T09:09:01Z</time></trkpt><trkpt lat="44.40785259665284" lon="8.416354802860907"><ele>596.0</ele><time>2026-04-06T09:09:02Z</time></trkpt><trkpt lat="44.407720643563096" lon="8.41633237754465"><ele>594.75</ele><time>2026-04-06T09:09:03Z</time></trkpt><trkpt lat="44.407593984952825" lon="8.416311845148607"><ele>593.5</ele><time>2026-04-06T09:09:04Z</time></trkpt><trkpt lat="44.40746652670417" lon="8.41629522486089"><ele>592.25</ele><time>2026-04-06T09:09:05Z</time></trkpt><trkpt lat="44.40734056648792" lon="8.416280134645623"><ele>591.0</ele><time>2026-04-06T09:09:06Z</time></trkpt><trkpt lat="44.407213895291505" lon="8.416262656576693"><ele>591.0</ele><time>2026-04-06T09:09:07Z</time></trkpt><trkpt lat="44.407087994151006" lon="8.41623826517723"><ele>591.0</ele><time>2026-04-06T09:09:08Z</time></trkpt><trkpt lat="44.406967186520696" lon="8.41621697762518"><ele>591.0</ele><time>2026-04-06T09:09:08.999Z</time></trkpt><trkpt lat="44.406849213081934" lon="8.416208151143485"><ele>591.0</ele><time>2026-04-06T09:09:09.999Z</time></trkpt><trkpt lat="44.40676666067386" lon="8.416222324771889"><ele>591.0</ele><time>2026-04-06T09:09:10.999Z</time></trkpt><trkpt lat="44.40670764942201" lon="8.416262909031355"><ele>591.0</ele><time>2026-04-06T09:09:11.999Z</time></trkpt><trkpt lat="44.406607253171785" lon="8.41631945859925"><ele>591.0</ele><time>2026-04-06T09:09:13.999Z</time></trkpt><trkpt lat="44.406668625717266" lon="8.41635908366997"><ele>591.0</ele><time>2026-04-06T09:09:22.999Z</time></trkpt><trkpt lat="44.406755184015275" lon="8.416270158701874"><ele>591.0</ele><time>2026-04-06T09:09:24.999Z</time></trkpt><trkpt lat="44.40685792935155" lon="8.416242059447606"><ele>591.0</ele><time>2026-04-06T09:09:26.999Z</time></trkpt><trkpt lat="44.40697286095131" lon="8.416249444647454"><ele>591.0</ele><time>2026-04-06T09:09:28.999Z</time></trkpt><trkpt lat="44.40704215481908" lon="8.41626188752834"><ele>591.0</ele><time>2026-04-06T09:09:29.999Z</time></trkpt><trkpt lat="44.40712032313994" lon="8.416269204248968"><ele>591.0</ele><time>2026-04-06T09:09:30.999Z</time></trkpt><trkpt lat="44.40720264774293" lon="8.416283476295536"><ele>591.0</ele><time>2026-04-06T09:09:31.999Z</time></trkpt><trkpt lat="44.40729277835225" lon="8.41630361934373"><ele>591.0</ele><time>2026-04-06T09:09:32.999Z</time></trkpt><trkpt lat="44.40739071543836" lon="8.41632017105122"><ele>592.0</ele><time>2026-04-06T09:09:33.999Z</time></trkpt><trkpt lat="44.40749309771339" lon="8.416335640658533"><ele>593.0</ele><time>2026-04-06T09:09:34.999Z</time></trkpt><trkpt lat="44.40759665103347" lon="8.416346941423146"><ele>594.0</ele><time>2026-04-06T09:09:35.999Z</time></trkpt><trkpt lat="44.407697346842845" lon="8.416358330105961"><ele>595.0</ele><time>2026-04-06T09:09:36.999Z</time></trkpt><trkpt lat="44.40780045241542" lon="8.416377773477027"><ele>596.0</ele><time>2026-04-06T09:09:37.999Z</time></trkpt><trkpt lat="44.40790797340812" lon="8.416392771095136"><ele>597.0</ele><time>2026-04-06T09:09:38.999Z</time></trkpt><trkpt lat="44.40801594960689" lon="8.416399299309726"><ele>598.0</ele><time>2026-04-06T09:09:39.999Z</time></trkpt><trkpt lat="44.408127965439135" lon="8.416387945926237"><ele>599.0</ele><time>2026-04-06T09:09:40.999Z</time></trkpt><trkpt lat="44.408241820521866" lon="8.416359453741013"><ele>600.0</ele><time>2026-04-06T09:09:41.999Z</time></trkpt><trkpt lat="44.40835324671998" lon="8.416302931932734"><ele>596.25</ele><time>2026-04-06T09:09:42.999Z</time></trkpt><trkpt lat="44.40845494914634" lon="8.416219643100582"><ele>592.5</ele><time>2026-04-06T09:09:43.999Z</time></trkpt><trkpt lat="44.40853900454436" lon="8.416094113902059"><ele>588.75</ele><time>2026-04-06T09:09:44.999Z</time></trkpt><trkpt lat="44.40861514320011" lon="8.41594639911903"><ele>585.0</ele><time>2026-04-06T09:09:45.999Z</time></trkpt><trkpt lat="44.408697147308594" lon="8.415779125008505"><ele>585.0</ele><time>2026-04-06T09:09:46.999Z</time></trkpt><trkpt lat="44.40876816751521" lon="8.415621041935632"><ele>585.0</ele><time>2026-04-06T09:09:47.999Z</time></trkpt><trkpt lat="44.408833728127306" lon="8.41547688540703"><ele>585.0</ele><time>2026-04-06T09:09:48.999Z</time></trkpt><trkpt lat="44.40889804883494" lon="8.415344544752678"><ele>585.0</ele><time>2026-04-06T09:09:49.999Z</time></trkpt><trkpt lat="44.408967378815504" lon="8.415215632193487"><ele>584.75</ele><time>2026-04-06T09:09:50.999Z</time></trkpt><trkpt lat="44.40904770948416" lon="8.415091047134325"><ele>584.5</ele><time>2026-04-06T09:09:51.999Z</time></trkpt><trkpt lat="44.409146924647125" lon="8.414962527451905"><ele>584.25</ele><time>2026-04-06T09:09:52.999Z</time></trkpt><trkpt lat="44.40925594953949" lon="8.414837271554891"><ele>584.0</ele><time>2026-04-06T09:09:53.999Z</time></trkpt><trkpt lat="44.40936680798099" lon="8.414723686130335"><ele>581.6666666666666</ele><time>2026-04-06T09:09:54.999Z</time></trkpt><trkpt lat="44.40948917627117" lon="8.414619446120184"><ele>579.3333333333334</ele><time>2026-04-06T09:09:55.999Z</time></trkpt><trkpt lat="44.40962453260249" lon="8.414525431555315"><ele>577.0</ele><time>2026-04-06T09:09:56.999Z</time></trkpt><trkpt lat="44.40977206042362" lon="8.414449126925856"><ele>577.0</ele><time>2026-04-06T09:09:57.999Z</time></trkpt><trkpt lat="44.40993004756061" lon="8.41437742868398"><ele>577.0</ele><time>2026-04-06T09:09:58.999Z</time></trkpt><trkpt lat="44.4100924598084" lon="8.414288212709497"><ele>577.0</ele><time>2026-04-06T09:09:59.999Z</time></trkpt><trkpt lat="44.41025549007117" lon="8.414201729209383"><ele>577.0</ele><time>2026-04-06T09:10:00.999Z</time></trkpt><trkpt lat="44.41040065670699" lon="8.41412470937448"><ele>577.0</ele><time>2026-04-06T09:10:01.999Z</time></trkpt><trkpt lat="44.41053479077583" lon="8.414053161118805"><ele>577.0</ele><time>2026-04-06T09:10:02.999Z</time></trkpt><trkpt lat="44.410663664487394" lon="8.41398426881842"><ele>577.0</ele><time>2026-04-06T09:10:03.999Z</time></trkpt><trkpt lat="44.410790416410286" lon="8.41391397007927"><ele>576.25</ele><time>2026-04-06T09:10:04.999Z</time></trkpt><trkpt lat="44.41090678394631" lon="8.413852730184159"><ele>575.5</ele><time>2026-04-06T09:10:05.999Z</time></trkpt><trkpt lat="44.41102399221004" lon="8.413789954922105"><ele>574.75</ele><time>2026-04-06T09:10:06.999Z</time></trkpt><trkpt lat="44.41114033403353" lon="8.413725507046642"><ele>574.0</ele><time>2026-04-06T09:10:07.999Z</time></trkpt><trkpt lat="44.411257914439105" lon="8.413660064643464"><ele>571.75</ele><time>2026-04-06T09:10:08.999Z</time></trkpt><trkpt lat="44.411375547373126" lon="8.4135937746438"><ele>569.5</ele><time>2026-04-06T09:10:10Z</time></trkpt><trkpt lat="44.411488259874524" lon="8.413529283103214"><ele>567.25</ele><time>2026-04-06T09:10:11Z</time></trkpt><trkpt lat="44.41159928428392" lon="8.413465599402347"><ele>565.0</ele><time>2026-04-06T09:10:12Z</time></trkpt><trkpt lat="44.411707288071625" lon="8.413404938293494"><ele>565.0</ele><time>2026-04-06T09:10:13Z</time></trkpt><trkpt lat="44.41180582336057" lon="8.413355739962263"><ele>565.0</ele><time>2026-04-06T09:10:14Z</time></trkpt><trkpt lat="44.41189477216692" lon="8.413326359556683"><ele>565.0</ele><time>2026-04-06T09:10:15Z</time></trkpt><trkpt lat="44.41197140165942" lon="8.413316344147399"><ele>565.0</ele><time>2026-04-06T09:10:16Z</time></trkpt><trkpt lat="44.41207614761353" lon="8.413303889132203"><ele>565.0</ele><time>2026-04-06T09:10:18Z</time></trkpt><trkpt lat="44.41215691080276" lon="8.413306558180189"><ele>564.9999999999999</ele><time>2026-04-06T09:10:21Z</time></trkpt><trkpt lat="44.41222433839404" lon="8.413274691817108"><ele>565.0</ele><time>2026-04-06T09:10:24Z</time></trkpt><trkpt lat="44.4121947857919" lon="8.413177625440342"><ele>565.0</ele><time>2026-04-06T09:10:27Z</time></trkpt><trkpt lat="44.41214330148331" lon="8.413123544446599"><ele>565.0</ele><time>2026-04-06T09:10:29Z</time></trkpt><trkpt lat="44.412074946427" lon="8.41313566851756"><ele>565.0</ele><time>2026-04-06T09:10:32Z</time></trkpt><trkpt lat="44.41210554414075" lon="8.413264658295104"><ele>564.9999999999999</ele><time>2026-04-06T09:12:17.999Z</time></trkpt><trkpt lat="44.412165009869994" lon="8.413308667104767"><ele>565.0</ele><time>2026-04-06T09:12:18.999Z</time></trkpt><trkpt lat="44.41224464698153" lon="8.413345476284132"><ele>564.8</ele><time>2026-04-06T09:12:19.999Z</time></trkpt><trkpt lat="44.41232710624974" lon="8.41339783689593"><ele>564.6</ele><time>2026-04-06T09:12:20.999Z</time></trkpt><trkpt lat="44.412402564915155" lon="8.4134554275722"><ele>564.4</ele><time>2026-04-06T09:12:21.999Z</time></trkpt><trkpt lat="44.41249020002964" lon="8.413523355781841"><ele>564.2</ele><time>2026-04-06T09:12:22.999Z</time></trkpt><trkpt lat="44.41258936769689" lon="8.413590331287958"><ele>564.0</ele><time>2026-04-06T09:12:23.999Z</time></trkpt><trkpt lat="44.41268696397326" lon="8.413658635979989"><ele>564.0</ele><time>2026-04-06T09:12:24.999Z</time></trkpt><trkpt lat="44.41278862350245" lon="8.413726334540144"><ele>564.0</ele><time>2026-04-06T09:12:25.999Z</time></trkpt><trkpt lat="44.41288823793917" lon="8.413796252991492"><ele>564.0</ele><time>2026-04-06T09:12:26.999Z</time></trkpt><trkpt lat="44.41299115263778" lon="8.413862984515113"><ele>564.0</ele><time>2026-04-06T09:12:27.999Z</time></trkpt><trkpt lat="44.41309894820077" lon="8.413927929802439"><ele>563.75</ele><time>2026-04-06T09:12:28.999Z</time></trkpt><trkpt lat="44.413207353428376" lon="8.413995382455408"><ele>563.5</ele><time>2026-04-06T09:12:29.999Z</time></trkpt><trkpt lat="44.41331540358117" lon="8.41406757413686"><ele>563.25</ele><time>2026-04-06T09:12:30.999Z</time></trkpt><trkpt lat="44.41342467276764" lon="8.41413776457625"><ele>563.0</ele><time>2026-04-06T09:12:31.999Z</time></trkpt><trkpt lat="44.41353685625064" lon="8.414205293150623"><ele>563.0</ele><time>2026-04-06T09:12:32.999Z</time></trkpt><trkpt lat="44.41365442406128" lon="8.41428026614101"><ele>563.0</ele><time>2026-04-06T09:12:33.999Z</time></trkpt><trkpt lat="44.41377151316577" lon="8.414355322824036"><ele>563.0</ele><time>2026-04-06T09:12:34.999Z</time></trkpt><trkpt lat="44.41388373332072" lon="8.414433390817766"><ele>563.0</ele><time>2026-04-06T09:12:35.999Z</time></trkpt><trkpt lat="44.413997973676196" lon="8.414509523812761"><ele>563.25</ele><time>2026-04-06T09:12:36.999Z</time></trkpt><trkpt lat="44.41411008580218" lon="8.41458516833583"><ele>563.5</ele><time>2026-04-06T09:12:37.999Z</time></trkpt><trkpt lat="44.414220094731775" lon="8.41466787252587"><ele>563.75</ele><time>2026-04-06T09:12:38.999Z</time></trkpt><trkpt lat="44.41432827453427" lon="8.4147537807069"><ele>564.0</ele><time>2026-04-06T09:12:39.999Z</time></trkpt><trkpt lat="44.414439682383616" lon="8.414843084998113"><ele>564.0</ele><time>2026-04-06T09:12:40.999Z</time></trkpt><trkpt lat="44.41454862427864" lon="8.414927502367664"><ele>564.0</ele><time>2026-04-06T09:12:41.999Z</time></trkpt><trkpt lat="44.41465883987082" lon="8.415016519790166"><ele>564.0</ele><time>2026-04-06T09:12:42.999Z</time></trkpt><trkpt lat="44.41476581736022" lon="8.415101100146073"><ele>564.0</ele><time>2026-04-06T09:12:43.999Z</time></trkpt><trkpt lat="44.41488017177521" lon="8.415174340391712"><ele>566.75</ele><time>2026-04-06T09:12:44.999Z</time></trkpt><trkpt lat="44.41499378315893" lon="8.415249914565438"><ele>569.5</ele><time>2026-04-06T09:12:45.999Z</time></trkpt><trkpt lat="44.41510871753369" lon="8.415313643029817"><ele>572.25</ele><time>2026-04-06T09:12:46.999Z</time></trkpt><trkpt lat="44.4152392875335" lon="8.41538279223817"><ele>575.0</ele><time>2026-04-06T09:12:47.999Z</time></trkpt><trkpt lat="44.4153781630039" lon="8.415453008056513"><ele>572.5</ele><time>2026-04-06T09:12:48.999Z</time></trkpt><trkpt lat="44.415506475545136" lon="8.415512214469945"><ele>570.0</ele><time>2026-04-06T09:12:49.999Z</time></trkpt><trkpt lat="44.415643562474074" lon="8.4155537432733"><ele>567.5</ele><time>2026-04-06T09:12:50.999Z</time></trkpt><trkpt lat="44.41577470456911" lon="8.415572527839087"><ele>565.0</ele><time>2026-04-06T09:12:51.999Z</time></trkpt><trkpt lat="44.41590600107201" lon="8.41557461829767"><ele>565.0</ele><time>2026-04-06T09:12:52.999Z</time></trkpt><trkpt lat="44.41603479953765" lon="8.415587170597579"><ele>565.0</ele><time>2026-04-06T09:12:53.999Z</time></trkpt><trkpt lat="44.41616407237086" lon="8.415596146762665"><ele>565.0</ele><time>2026-04-06T09:12:54.999Z</time></trkpt><trkpt lat="44.41629572517681" lon="8.415616752113836"><ele>565.0</ele><time>2026-04-06T09:12:55.999Z</time></trkpt><trkpt lat="44.416427923895874" lon="8.415649350427756"><ele>567.0</ele><time>2026-04-06T09:12:56.999Z</time></trkpt><trkpt lat="44.4165559445314" lon="8.415695547864178"><ele>569.0</ele><time>2026-04-06T09:12:57.999Z</time></trkpt><trkpt lat="44.41668460034512" lon="8.41574604937062"><ele>571.0</ele><time>2026-04-06T09:12:58.999Z</time></trkpt><trkpt lat="44.416810222860704" lon="8.41580858077979"><ele>573.0</ele><time>2026-04-06T09:12:59.999Z</time></trkpt><trkpt lat="44.41692959406294" lon="8.415882887634703"><ele>573.0</ele><time>2026-04-06T09:13:00.999Z</time></trkpt><trkpt lat="44.41703473804324" lon="8.415978072088187"><ele>573.0</ele><time>2026-04-06T09:13:01.999Z</time></trkpt><trkpt lat="44.41712251734309" lon="8.416105263617544"><ele>573.0</ele><time>2026-04-06T09:13:02.999Z</time></trkpt><trkpt lat="44.41720792191226" lon="8.416243554988224"><ele>573.0</ele><time>2026-04-06T09:13:03.999Z</time></trkpt><trkpt lat="44.41729097755465" lon="8.416411348236842"><ele>574.5</ele><time>2026-04-06T09:13:04.999Z</time></trkpt><trkpt lat="44.4173558314517" lon="8.416581148298848"><ele>576.0</ele><time>2026-04-06T09:13:05.999Z</time></trkpt><trkpt lat="44.41743824295421" lon="8.416732821052513"><ele>577.5</ele><time>2026-04-06T09:13:06.999Z</time></trkpt><trkpt lat="44.4175184553985" lon="8.416885665137682"><ele>579.0</ele><time>2026-04-06T09:13:07.999Z</time></trkpt><trkpt lat="44.417593792989074" lon="8.417036990522613"><ele>577.5</ele><time>2026-04-06T09:13:08.999Z</time></trkpt><trkpt lat="44.4176659313656" lon="8.417186954428084"><ele>576.0</ele><time>2026-04-06T09:13:09.999Z</time></trkpt><trkpt lat="44.4177356014228" lon="8.417340650862993"><ele>574.5</ele><time>2026-04-06T09:13:10.999Z</time></trkpt><trkpt lat="44.417803472241125" lon="8.417496104135237"><ele>573.0</ele><time>2026-04-06T09:13:11.999Z</time></trkpt><trkpt lat="44.41786500663291" lon="8.417652369659084"><ele>573.0</ele><time>2026-04-06T09:13:12.999Z</time></trkpt><trkpt lat="44.417932684266226" lon="8.417806961670545"><ele>573.0</ele><time>2026-04-06T09:13:13.999Z</time></trkpt><trkpt lat="44.41801579917845" lon="8.417953998614086"><ele>573.0</ele><time>2026-04-06T09:13:14.999Z</time></trkpt><trkpt lat="44.41810636216364" lon="8.418086002332315"><ele>573.0</ele><time>2026-04-06T09:13:15.999Z</time></trkpt><trkpt lat="44.418209186624196" lon="8.41821348527722"><ele>575.5</ele><time>2026-04-06T09:13:16.999Z</time></trkpt><trkpt lat="44.41831463995688" lon="8.418329846220107"><ele>578.0</ele><time>2026-04-06T09:13:17.999Z</time></trkpt><trkpt lat="44.418416491909596" lon="8.41845688464113"><ele>580.5</ele><time>2026-04-06T09:13:18.999Z</time></trkpt><trkpt lat="44.41849877393122" lon="8.41860544646812"><ele>583.0</ele><time>2026-04-06T09:13:19.999Z</time></trkpt><trkpt lat="44.41856876082514" lon="8.418765476176157"><ele>580.75</ele><time>2026-04-06T09:13:20.999Z</time></trkpt><trkpt lat="44.41863970219861" lon="8.418926502058174"><ele>578.5</ele><time>2026-04-06T09:13:21.999Z</time></trkpt><trkpt lat="44.41871420760066" lon="8.419086186429254"><ele>576.25</ele><time>2026-04-06T09:13:22.999Z</time></trkpt><trkpt lat="44.418784876095465" lon="8.41925006401674"><ele>574.0</ele><time>2026-04-06T09:13:23.999Z</time></trkpt><trkpt lat="44.41885573548683" lon="8.419411373532348"><ele>577.25</ele><time>2026-04-06T09:13:24.999Z</time></trkpt><trkpt lat="44.41892606050575" lon="8.4195702418708"><ele>580.5</ele><time>2026-04-06T09:13:25.999Z</time></trkpt><trkpt lat="44.41899827790293" lon="8.41973148478862"><ele>583.75</ele><time>2026-04-06T09:13:26.999Z</time></trkpt><trkpt lat="44.41907346741521" lon="8.419899458088468"><ele>587.0</ele><time>2026-04-06T09:13:27.999Z</time></trkpt><trkpt lat="44.419151093084864" lon="8.420054500867447"><ele>587.0</ele><time>2026-04-06T09:13:28.999Z</time></trkpt><trkpt lat="44.419235635785455" lon="8.420204060393393"><ele>587.0</ele><time>2026-04-06T09:13:29.999Z</time></trkpt><trkpt lat="44.419317614318636" lon="8.420350412700039"><ele>587.0</ele><time>2026-04-06T09:13:30.999Z</time></trkpt><trkpt lat="44.419379065158765" lon="8.420503181554412"><ele>587.0</ele><time>2026-04-06T09:13:31.999Z</time></trkpt><trkpt lat="44.4194407001628" lon="8.420650805538337"><ele>586.0</ele><time>2026-04-06T09:13:32.999Z</time></trkpt><trkpt lat="44.41952557784463" lon="8.420770543943291"><ele>585.0</ele><time>2026-04-06T09:13:33.999Z</time></trkpt><trkpt lat="44.41963077081271" lon="8.420836580910885"><ele>584.0</ele><time>2026-04-06T09:13:34.999Z</time></trkpt><trkpt lat="44.41974650972607" lon="8.420832636928187"><ele>583.0</ele><time>2026-04-06T09:13:35.999Z</time></trkpt><trkpt lat="44.41985425951799" lon="8.420776311310131"><ele>583.0</ele><time>2026-04-06T09:13:36.999Z</time></trkpt><trkpt lat="44.41995423114178" lon="8.420679159954025"><ele>583.0</ele><time>2026-04-06T09:13:37.999Z</time></trkpt><trkpt lat="44.42004104139883" lon="8.420557666953995"><ele>583.0</ele><time>2026-04-06T09:13:38.999Z</time></trkpt><trkpt lat="44.42011711774959" lon="8.420412517465007"><ele>583.0</ele><time>2026-04-06T09:13:39.999Z</time></trkpt><trkpt lat="44.420181362410254" lon="8.420247941108704"><ele>583.5</ele><time>2026-04-06T09:13:40.999Z</time></trkpt><trkpt lat="44.42026515339317" lon="8.420108198339852"><ele>584.0</ele><time>2026-04-06T09:13:41.999Z</time></trkpt><trkpt lat="44.42033179532527" lon="8.41995640718683"><ele>584.5</ele><time>2026-04-06T09:13:42.999Z</time></trkpt><trkpt lat="44.42041742580459" lon="8.41981904370864"><ele>585.0</ele><time>2026-04-06T09:13:43.999Z</time></trkpt><trkpt lat="44.420496192160485" lon="8.419680753534053"><ele>587.0</ele><time>2026-04-06T09:13:44.999Z</time></trkpt><trkpt lat="44.420555100767835" lon="8.419522667903095"><ele>589.0</ele><time>2026-04-06T09:13:45.999Z</time></trkpt><trkpt lat="44.42060048695415" lon="8.419358536000052"><ele>591.0</ele><time>2026-04-06T09:13:46.999Z</time></trkpt><trkpt lat="44.42062382318935" lon="8.41919204514668"><ele>593.0</ele><time>2026-04-06T09:13:47.999Z</time></trkpt><trkpt lat="44.42062708561917" lon="8.419046707688366"><ele>593.0</ele><time>2026-04-06T09:13:48.999Z</time></trkpt><trkpt lat="44.42060965953111" lon="8.418911127417063"><ele>593.0</ele><time>2026-04-06T09:13:49.999Z</time></trkpt><trkpt lat="44.42056032338598" lon="8.418790086830958"><ele>593.0</ele><time>2026-04-06T09:13:50.999Z</time></trkpt><trkpt lat="44.42048105258582" lon="8.418674072711744"><ele>593.0</ele><time>2026-04-06T09:13:51.999Z</time></trkpt><trkpt lat="44.420389016201746" lon="8.418572728425891"><ele>593.0</ele><time>2026-04-06T09:13:52.999Z</time></trkpt><trkpt lat="44.420304567468904" lon="8.41848621393178"><ele>594.5</ele><time>2026-04-06T09:13:53.999Z</time></trkpt><trkpt lat="44.42023892627353" lon="8.418407928958278"><ele>596.0</ele><time>2026-04-06T09:13:54.999Z</time></trkpt><trkpt lat="44.42016900189898" lon="8.418320321555177"><ele>597.5</ele><time>2026-04-06T09:13:56.999Z</time></trkpt><trkpt lat="44.42008150243717" lon="8.418292611721725"><ele>599.0</ele><time>2026-04-06T09:22:13Z</time></trkpt><trkpt lat="44.42002485436298" lon="8.418239789845053"><ele>600.5</ele><time>2026-04-06T09:22:14Z</time></trkpt><trkpt lat="44.41994490442636" lon="8.418165566970616"><ele>602.0</ele><time>2026-04-06T09:22:15Z</time></trkpt><trkpt lat="44.419880479754674" lon="8.418076960148198"><ele>601.0</ele><time>2026-04-06T09:22:16Z</time></trkpt><trkpt lat="44.41985939087519" lon="8.41794250510664"><ele>600.0</ele><time>2026-04-06T09:22:17Z</time></trkpt><trkpt lat="44.41984982706106" lon="8.417809588215391"><ele>599.0</ele><time>2026-04-06T09:22:18Z</time></trkpt><trkpt lat="44.41984814366145" lon="8.417659308569146"><ele>598.0</ele><time>2026-04-06T09:22:19Z</time></trkpt><trkpt lat="44.41987052733687" lon="8.417485273579906"><ele>597.0</ele><time>2026-04-06T09:22:20Z</time></trkpt><trkpt lat="44.41991409543947" lon="8.417310896966516"><ele>599.0</ele><time>2026-04-06T09:22:21Z</time></trkpt><trkpt lat="44.41998773493224" lon="8.417132999706169"><ele>601.0</ele><time>2026-04-06T09:22:22Z</time></trkpt><trkpt lat="44.420073329117116" lon="8.416937557155226"><ele>603.0</ele><time>2026-04-06T09:22:23Z</time></trkpt><trkpt lat="44.420165579469696" lon="8.416739417450895"><ele>603.0</ele><time>2026-04-06T09:22:23.999Z</time></trkpt><trkpt lat="44.42022715824783" lon="8.416554709920675"><ele>603.0</ele><time>2026-04-06T09:22:24.999Z</time></trkpt><trkpt lat="44.42027227072991" lon="8.416388350531651"><ele>603.0</ele><time>2026-04-06T09:22:25.999Z</time></trkpt><trkpt lat="44.420324370537024" lon="8.416233926239137"><ele>603.0</ele><time>2026-04-06T09:22:26.999Z</time></trkpt><trkpt lat="44.42038430711971" lon="8.41607133635722"><ele>604.75</ele><time>2026-04-06T09:22:27.999Z</time></trkpt><trkpt lat="44.420450787534726" lon="8.415902487547852"><ele>606.5</ele><time>2026-04-06T09:22:28.999Z</time></trkpt><trkpt lat="44.4205361232236" lon="8.415751552762043"><ele>608.25</ele><time>2026-04-06T09:22:29.999Z</time></trkpt><trkpt lat="44.42063639933595" lon="8.415606390861424"><ele>610.0</ele><time>2026-04-06T09:22:30.999Z</time></trkpt><trkpt lat="44.420724007029996" lon="8.415494944022218"><ele>609.25</ele><time>2026-04-06T09:22:31.999Z</time></trkpt><trkpt lat="44.42081472877865" lon="8.415409552277321"><ele>608.5</ele><time>2026-04-06T09:22:32.999Z</time></trkpt><trkpt lat="44.420926017726494" lon="8.41538755398358"><ele>607.75</ele><time>2026-04-06T09:22:33.999Z</time></trkpt><trkpt lat="44.4210495019535" lon="8.415361025259612"><ele>607.0</ele><time>2026-04-06T09:22:34.999Z</time></trkpt><trkpt lat="44.421180571791936" lon="8.415320237799392"><ele>607.0</ele><time>2026-04-06T09:22:35.999Z</time></trkpt><trkpt lat="44.42130460947128" lon="8.415281721743163"><ele>607.0</ele><time>2026-04-06T09:22:36.999Z</time></trkpt><trkpt lat="44.421405921312555" lon="8.415245703406189"><ele>607.0</ele><time>2026-04-06T09:22:37.999Z</time></trkpt><trkpt lat="44.42151007698093" lon="8.415205033714043"><ele>607.0</ele><time>2026-04-06T09:22:38.999Z</time></trkpt><trkpt lat="44.4216115351113" lon="8.415174204165629"><ele>607.0</ele><time>2026-04-06T09:22:39.999Z</time></trkpt><trkpt lat="44.421697101223" lon="8.415133713535687"><ele>605.4</ele><time>2026-04-06T09:22:40.999Z</time></trkpt><trkpt lat="44.421749372320996" lon="8.41506054749438"><ele>603.8000000000001</ele><time>2026-04-06T09:22:41.999Z</time></trkpt><trkpt lat="44.42183412360693" lon="8.414950171185671"><ele>602.2</ele><time>2026-04-06T09:22:42.999Z</time></trkpt><trkpt lat="44.42190184412901" lon="8.414816450290454"><ele>600.6</ele><time>2026-04-06T09:22:43.999Z</time></trkpt><trkpt lat="44.42195642945001" lon="8.41467030065205"><ele>599.0</ele><time>2026-04-06T09:22:44.999Z</time></trkpt><trkpt lat="44.42198384656799" lon="8.414505115016535"><ele>599.0</ele><time>2026-04-06T09:22:46Z</time></trkpt><trkpt lat="44.42200473827258" lon="8.414333743535577"><ele>599.0</ele><time>2026-04-06T09:22:47Z</time></trkpt><trkpt lat="44.42204404213971" lon="8.414170445158346"><ele>599.0</ele><time>2026-04-06T09:22:48Z</time></trkpt><trkpt lat="44.422077093793426" lon="8.414005723365898"><ele>599.0</ele><time>2026-04-06T09:22:49Z</time></trkpt><trkpt lat="44.422121971604696" lon="8.41386404699253"><ele>597.2</ele><time>2026-04-06T09:22:50Z</time></trkpt><trkpt lat="44.422177984572684" lon="8.413739440043805"><ele>595.4</ele><time>2026-04-06T09:22:51Z</time></trkpt><trkpt lat="44.42225955630797" lon="8.413655176596578"><ele>593.6</ele><time>2026-04-06T09:22:52Z</time></trkpt><trkpt lat="44.422360751696395" lon="8.413631239618041"><ele>591.8</ele><time>2026-04-06T09:22:53Z</time></trkpt><trkpt lat="44.422475605926905" lon="8.413649712340888"><ele>590.0</ele><time>2026-04-06T09:22:54Z</time></trkpt><trkpt lat="44.42259576457489" lon="8.41365739214033"><ele>590.0</ele><time>2026-04-06T09:22:55Z</time></trkpt><trkpt lat="44.42272085381604" lon="8.413699052219803"><ele>590.0</ele><time>2026-04-06T09:22:56Z</time></trkpt><trkpt lat="44.42284597862011" lon="8.413711804158758"><ele>590.0</ele><time>2026-04-06T09:22:57Z</time></trkpt><trkpt lat="44.4229733757885" lon="8.413690309521334"><ele>590.0</ele><time>2026-04-06T09:22:58Z</time></trkpt><trkpt lat="44.423096701913515" lon="8.413612174099889"><ele>589.5</ele><time>2026-04-06T09:22:59Z</time></trkpt><trkpt lat="44.423212546167946" lon="8.413493538842834"><ele>589.0</ele><time>2026-04-06T09:23:00Z</time></trkpt><trkpt lat="44.42332568602623" lon="8.413365748829984"><ele>588.5</ele><time>2026-04-06T09:23:01Z</time></trkpt><trkpt lat="44.423456134423795" lon="8.413271590145033"><ele>588.0</ele><time>2026-04-06T09:23:02Z</time></trkpt><trkpt lat="44.423588451674" lon="8.41324206680082"><ele>588.0</ele><time>2026-04-06T09:23:03Z</time></trkpt><trkpt lat="44.42372388381556" lon="8.413245368248218"><ele>588.0</ele><time>2026-04-06T09:23:04Z</time></trkpt><trkpt lat="44.42386054430311" lon="8.413250582208597"><ele>588.0</ele><time>2026-04-06T09:23:05Z</time></trkpt><trkpt lat="44.42399685907996" lon="8.413285717059695"><ele>588.0</ele><time>2026-04-06T09:23:06Z</time></trkpt><trkpt lat="44.424127346631266" lon="8.413359021987352"><ele>586.75</ele><time>2026-04-06T09:23:07Z</time></trkpt><trkpt lat="44.424248210987116" lon="8.413432601986026"><ele>585.5</ele><time>2026-04-06T09:23:08Z</time></trkpt><trkpt lat="44.4243744486646" lon="8.41345218159822"><ele>584.25</ele><time>2026-04-06T09:23:09Z</time></trkpt><trkpt lat="44.4244974662283" lon="8.413462426751408"><ele>583.0</ele><time>2026-04-06T09:23:10Z</time></trkpt><trkpt lat="44.42463520533544" lon="8.413439426044029"><ele>581.0</ele><time>2026-04-06T09:23:11Z</time></trkpt><trkpt lat="44.424782285042255" lon="8.413394289752391"><ele>579.0</ele><time>2026-04-06T09:23:12Z</time></trkpt><trkpt lat="44.42493152886632" lon="8.413322118828582"><ele>577.0</ele><time>2026-04-06T09:23:13Z</time></trkpt><trkpt lat="44.425073345041504" lon="8.41327015177388"><ele>577.0</ele><time>2026-04-06T09:23:14Z</time></trkpt><trkpt lat="44.42520994833044" lon="8.413237108815213"><ele>577.0</ele><time>2026-04-06T09:23:15Z</time></trkpt><trkpt lat="44.42534999275947" lon="8.413230568006616"><ele>577.0</ele><time>2026-04-06T09:23:16Z</time></trkpt><trkpt lat="44.4254891392517" lon="8.413239365931286"><ele>577.0</ele><time>2026-04-06T09:23:17Z</time></trkpt><trkpt lat="44.425620112881425" lon="8.413276828960784"><ele>577.0</ele><time>2026-04-06T09:23:18Z</time></trkpt><trkpt lat="44.42572975557441" lon="8.413399674764001"><ele>577.0</ele><time>2026-04-06T09:23:19Z</time></trkpt><trkpt lat="44.42585558191024" lon="8.413517925975226"><ele>577.0</ele><time>2026-04-06T09:23:20Z</time></trkpt><trkpt lat="44.42596471463686" lon="8.413673382975174"><ele>577.0</ele><time>2026-04-06T09:23:21Z</time></trkpt><trkpt lat="44.42608260568086" lon="8.413812306654844"><ele>574.5</ele><time>2026-04-06T09:23:22Z</time></trkpt><trkpt lat="44.426206605151954" lon="8.41392525544278"><ele>572.0</ele><time>2026-04-06T09:23:23Z</time></trkpt><trkpt lat="44.42633274412567" lon="8.414032303988918"><ele>569.5</ele><time>2026-04-06T09:23:24Z</time></trkpt><trkpt lat="44.426446153415874" lon="8.414140803116089"><ele>567.0</ele><time>2026-04-06T09:23:25Z</time></trkpt><trkpt lat="44.426559115610786" lon="8.414246385942715"><ele>567.0</ele><time>2026-04-06T09:23:26Z</time></trkpt><trkpt lat="44.42668647150096" lon="8.414307812132742"><ele>567.0</ele><time>2026-04-06T09:23:27Z</time></trkpt><trkpt lat="44.42680556669981" lon="8.414367402597984"><ele>567.0</ele><time>2026-04-06T09:23:28Z</time></trkpt><trkpt lat="44.42690725970429" lon="8.414426088685348"><ele>567.0</ele><time>2026-04-06T09:23:29Z</time></trkpt><trkpt lat="44.42697987112594" lon="8.414518846371182"><ele>567.0</ele><time>2026-04-06T09:23:30Z</time></trkpt><trkpt lat="44.42701899526672" lon="8.414654467839975"><ele>567.0</ele><time>2026-04-06T09:23:31Z</time></trkpt><trkpt lat="44.427039312775385" lon="8.414819455144563"><ele>567.0</ele><time>2026-04-06T09:23:32Z</time></trkpt><trkpt lat="44.42704799435059" lon="8.415012478020753"><ele>567.0</ele><time>2026-04-06T09:23:33Z</time></trkpt><trkpt lat="44.42705886302234" lon="8.415212504391006"><ele>565.0</ele><time>2026-04-06T09:23:34Z</time></trkpt><trkpt lat="44.42707086831569" lon="8.415412101505575"><ele>563.0</ele><time>2026-04-06T09:23:35Z</time></trkpt><trkpt lat="44.42707383854895" lon="8.415616583256451"><ele>561.0</ele><time>2026-04-06T09:23:36Z</time></trkpt><trkpt lat="44.42706773816102" lon="8.415823312765983"><ele>559.0</ele><time>2026-04-06T09:23:37Z</time></trkpt><trkpt lat="44.42705886074772" lon="8.416037183856892"><ele>558.25</ele><time>2026-04-06T09:23:38Z</time></trkpt><trkpt lat="44.4270607041958" lon="8.41624887026058"><ele>557.5</ele><time>2026-04-06T09:23:39Z</time></trkpt><trkpt lat="44.42707278983657" lon="8.416455299519074"><ele>556.75</ele><time>2026-04-06T09:23:40Z</time></trkpt><trkpt lat="44.42708926179604" lon="8.416661835227993"><ele>556.0</ele><time>2026-04-06T09:23:41Z</time></trkpt><trkpt lat="44.42711123561375" lon="8.416857862558452"><ele>554.75</ele><time>2026-04-06T09:23:42Z</time></trkpt><trkpt lat="44.42713458081201" lon="8.417049059014673"><ele>553.5</ele><time>2026-04-06T09:23:43Z</time></trkpt><trkpt lat="44.42717420096399" lon="8.41722276928793"><ele>552.25</ele><time>2026-04-06T09:23:44Z</time></trkpt><trkpt lat="44.42725399977115" lon="8.41734399308289"><ele>551.0</ele><time>2026-04-06T09:23:45Z</time></trkpt><trkpt lat="44.427384203021184" lon="8.417419817365145"><ele>555.0</ele><time>2026-04-06T09:23:46Z</time></trkpt><trkpt lat="44.427539592388754" lon="8.417482333818148"><ele>559.0</ele><time>2026-04-06T09:23:47Z</time></trkpt><trkpt lat="44.42767598525837" lon="8.41753584812737"><ele>563.0</ele><time>2026-04-06T09:23:48Z</time></trkpt><trkpt lat="44.42779631646585" lon="8.417589856613663"><ele>567.0</ele><time>2026-04-06T09:23:49Z</time></trkpt><trkpt lat="44.42789887102415" lon="8.417680264550881"><ele>567.0</ele><time>2026-04-06T09:23:50Z</time></trkpt><trkpt lat="44.42797261815247" lon="8.417822071906272"><ele>567.0</ele><time>2026-04-06T09:23:51Z</time></trkpt><trkpt lat="44.4279836110421" lon="8.418001137945863"><ele>567.0</ele><time>2026-04-06T09:23:52Z</time></trkpt><trkpt lat="44.42795149117052" lon="8.418204451013148"><ele>567.0</ele><time>2026-04-06T09:23:53Z</time></trkpt><trkpt lat="44.4279198423486" lon="8.418434138985768"><ele>568.0</ele><time>2026-04-06T09:23:54Z</time></trkpt><trkpt lat="44.427918290442946" lon="8.418660043457386"><ele>569.0</ele><time>2026-04-06T09:23:55Z</time></trkpt><trkpt lat="44.427932083504494" lon="8.418866881413816"><ele>570.0</ele><time>2026-04-06T09:23:56Z</time></trkpt><trkpt lat="44.427959769780486" lon="8.419066185787784"><ele>569.75</ele><time>2026-04-06T09:23:57Z</time></trkpt><trkpt lat="44.42801213857976" lon="8.419258975205272"><ele>569.5</ele><time>2026-04-06T09:23:58Z</time></trkpt><trkpt lat="44.42807416997214" lon="8.419443568818973"><ele>569.25</ele><time>2026-04-06T09:23:59Z</time></trkpt><trkpt lat="44.42814181706492" lon="8.419619561290771"><ele>569.0</ele><time>2026-04-06T09:24:00Z</time></trkpt><trkpt lat="44.4282338392777" lon="8.419751673038578"><ele>571.75</ele><time>2026-04-06T09:24:01Z</time></trkpt><trkpt lat="44.42836057894174" lon="8.419831425064569"><ele>574.5</ele><time>2026-04-06T09:24:02Z</time></trkpt><trkpt lat="44.42850042873454" lon="8.41985713743441"><ele>577.25</ele><time>2026-04-06T09:24:03Z</time></trkpt><trkpt lat="44.42864194644309" lon="8.419868093080828"><ele>580.0</ele><time>2026-04-06T09:24:04Z</time></trkpt><trkpt lat="44.42878104172752" lon="8.41992486207224"><ele>579.25</ele><time>2026-04-06T09:24:05Z</time></trkpt><trkpt lat="44.42888677374317" lon="8.420020502705784"><ele>578.5</ele><time>2026-04-06T09:24:06Z</time></trkpt><trkpt lat="44.428987499495435" lon="8.420102315590198"><ele>577.75</ele><time>2026-04-06T09:24:07Z</time></trkpt><trkpt lat="44.429099904573384" lon="8.420112044303073"><ele>577.0</ele><time>2026-04-06T09:24:08Z</time></trkpt><trkpt lat="44.42921246935842" lon="8.420043155360682"><ele>577.0</ele><time>2026-04-06T09:24:09Z</time></trkpt><trkpt lat="44.429331817209814" lon="8.419925877550563"><ele>577.0</ele><time>2026-04-06T09:24:10Z</time></trkpt><trkpt lat="44.42946214416311" lon="8.419821051384622"><ele>577.0</ele><time>2026-04-06T09:24:11Z</time></trkpt><trkpt lat="44.42960180381309" lon="8.419737815288808"><ele>577.0</ele><time>2026-04-06T09:24:12Z</time></trkpt><trkpt lat="44.429732904495985" lon="8.419664018920189"><ele>575.0</ele><time>2026-04-06T09:24:13Z</time></trkpt><trkpt lat="44.429851129227956" lon="8.419594220068802"><ele>573.0</ele><time>2026-04-06T09:24:14Z</time></trkpt><trkpt lat="44.429960820642414" lon="8.41954910674618"><ele>571.0</ele><time>2026-04-06T09:24:14.999Z</time></trkpt><trkpt lat="44.43006987314869" lon="8.419554039797987"><ele>569.0</ele><time>2026-04-06T09:24:15.999Z</time></trkpt><trkpt lat="44.43015816836721" lon="8.419617578871579"><ele>572.0</ele><time>2026-04-06T09:24:16.999Z</time></trkpt><trkpt lat="44.43021566740138" lon="8.419729965742965"><ele>575.0</ele><time>2026-04-06T09:24:17.999Z</time></trkpt><trkpt lat="44.43024604988238" lon="8.419881200348259"><ele>578.0</ele><time>2026-04-06T09:24:18.999Z</time></trkpt><trkpt lat="44.43027254689885" lon="8.420062948420165"><ele>581.0</ele><time>2026-04-06T09:24:19.999Z</time></trkpt><trkpt lat="44.43029675639588" lon="8.420253302416372"><ele>581.0</ele><time>2026-04-06T09:24:20.999Z</time></trkpt><trkpt lat="44.43032156856595" lon="8.420440427456896"><ele>581.0</ele><time>2026-04-06T09:24:21.999Z</time></trkpt><trkpt lat="44.430351579159286" lon="8.42061976000718"><ele>581.0</ele><time>2026-04-06T09:24:22.999Z</time></trkpt><trkpt lat="44.43039330880154" lon="8.42079511101371"><ele>581.0</ele><time>2026-04-06T09:24:23.999Z</time></trkpt><trkpt lat="44.43045584550531" lon="8.420963968838981"><ele>579.5</ele><time>2026-04-06T09:24:24.999Z</time></trkpt><trkpt lat="44.430544109659095" lon="8.421114611025974"><ele>578.0</ele><time>2026-04-06T09:24:25.999Z</time></trkpt><trkpt lat="44.43065541619152" lon="8.421250387296368"><ele>576.5</ele><time>2026-04-06T09:24:26.999Z</time></trkpt><trkpt lat="44.43077523315365" lon="8.421373384202903"><ele>575.0</ele><time>2026-04-06T09:24:27.999Z</time></trkpt><trkpt lat="44.430903902275254" lon="8.421502356544364"><ele>574.75</ele><time>2026-04-06T09:24:28.999Z</time></trkpt><trkpt lat="44.431035653375055" lon="8.421628966392628"><ele>574.5</ele><time>2026-04-06T09:24:29.999Z</time></trkpt><trkpt lat="44.43115893202168" lon="8.421739558142901"><ele>574.25</ele><time>2026-04-06T09:24:30.999Z</time></trkpt><trkpt lat="44.43127276190027" lon="8.421844662824608"><ele>574.0</ele><time>2026-04-06T09:24:31.999Z</time></trkpt><trkpt lat="44.43136841052891" lon="8.421964080935757"><ele>574.0</ele><time>2026-04-06T09:24:32.999Z</time></trkpt><trkpt lat="44.431439307383314" lon="8.422125476197744"><ele>574.0</ele><time>2026-04-06T09:24:33.999Z</time></trkpt><trkpt lat="44.43150954165517" lon="8.422317866996591"><ele>574.0</ele><time>2026-04-06T09:24:34.999Z</time></trkpt><trkpt lat="44.43158049229318" lon="8.422500375416348"><ele>574.0</ele><time>2026-04-06T09:24:35.999Z</time></trkpt><trkpt lat="44.43165074641316" lon="8.422650631342746"><ele>573.5</ele><time>2026-04-06T09:24:36.999Z</time></trkpt><trkpt lat="44.43172833332663" lon="8.422777760175453"><ele>573.0</ele><time>2026-04-06T09:24:37.999Z</time></trkpt><trkpt lat="44.431831889804286" lon="8.422866317526607"><ele>572.5</ele><time>2026-04-06T09:24:38.999Z</time></trkpt><trkpt lat="44.431966953640774" lon="8.422923283776301"><ele>572.0</ele><time>2026-04-06T09:24:39.999Z</time></trkpt><trkpt lat="44.43211490344618" lon="8.422978770144091"><ele>571.3333333333333</ele><time>2026-04-06T09:24:40.999Z</time></trkpt><trkpt lat="44.43227236697397" lon="8.423043073688222"><ele>570.6666666666666</ele><time>2026-04-06T09:24:41.999Z</time></trkpt><trkpt lat="44.43243188992588" lon="8.4231137599175"><ele>570.0</ele><time>2026-04-06T09:24:42.999Z</time></trkpt><trkpt lat="44.432585562487425" lon="8.42319165510571"><ele>570.0</ele><time>2026-04-06T09:24:43.999Z</time></trkpt><trkpt lat="44.43273691369096" lon="8.423275807353793"><ele>570.0</ele><time>2026-04-06T09:24:44.999Z</time></trkpt><trkpt lat="44.43287231494768" lon="8.423378633510085"><ele>570.0</ele><time>2026-04-06T09:24:45.999Z</time></trkpt><trkpt lat="44.43299934008289" lon="8.42349516865754"><ele>568.5</ele><time>2026-04-06T09:24:46.999Z</time></trkpt><trkpt lat="44.43312637679794" lon="8.423602184703533"><ele>567.0</ele><time>2026-04-06T09:24:47.999Z</time></trkpt><trkpt lat="44.43326349873101" lon="8.423688034578314"><ele>565.5</ele><time>2026-04-06T09:24:48.999Z</time></trkpt><trkpt lat="44.43340246713487" lon="8.423766204462243"><ele>564.0</ele><time>2026-04-06T09:24:49.999Z</time></trkpt><trkpt lat="44.433534987428374" lon="8.423861521840134"><ele>564.0</ele><time>2026-04-06T09:24:50.999Z</time></trkpt><trkpt lat="44.43365979050471" lon="8.423994440555596"><ele>564.0</ele><time>2026-04-06T09:24:52Z</time></trkpt><trkpt lat="44.43376390802109" lon="8.424161938374404"><ele>564.0</ele><time>2026-04-06T09:24:53Z</time></trkpt><trkpt lat="44.433854611130805" lon="8.424339128320426"><ele>565.0</ele><time>2026-04-06T09:24:54Z</time></trkpt><trkpt lat="44.433952356905934" lon="8.424494223137367"><ele>566.0</ele><time>2026-04-06T09:24:55Z</time></trkpt><trkpt lat="44.434074190944536" lon="8.424617608988248"><ele>567.0</ele><time>2026-04-06T09:24:56Z</time></trkpt><trkpt lat="44.43421247445859" lon="8.424709423715404"><ele>567.0</ele><time>2026-04-06T09:24:57Z</time></trkpt><trkpt lat="44.43435197747105" lon="8.424798331685263"><ele>567.0</ele><time>2026-04-06T09:24:58Z</time></trkpt><trkpt lat="44.43446142353997" lon="8.424918240338402"><ele>567.0</ele><time>2026-04-06T09:24:59Z</time></trkpt><trkpt lat="44.43452976323825" lon="8.425076643648925"><ele>567.0</ele><time>2026-04-06T09:25:00Z</time></trkpt><trkpt lat="44.43456558881417" lon="8.425257877810031"><ele>567.0</ele><time>2026-04-06T09:25:01Z</time></trkpt><trkpt lat="44.43460612979807" lon="8.425435170653742"><ele>567.0</ele><time>2026-04-06T09:25:02Z</time></trkpt><trkpt lat="44.43468959177186" lon="8.425593919982983"><ele>567.0</ele><time>2026-04-06T09:25:03Z</time></trkpt><trkpt lat="44.434806947648276" lon="8.425723709356143"><ele>567.0</ele><time>2026-04-06T09:25:04Z</time></trkpt><trkpt lat="44.43494268720712" lon="8.42582887249896"><ele>568.75</ele><time>2026-04-06T09:25:05Z</time></trkpt><trkpt lat="44.43508309628286" lon="8.425915337556985"><ele>570.5</ele><time>2026-04-06T09:25:06Z</time></trkpt><trkpt lat="44.435223483448645" lon="8.425981620024245"><ele>572.25</ele><time>2026-04-06T09:25:07Z</time></trkpt><trkpt lat="44.4353563452355" lon="8.426070140626416"><ele>574.0</ele><time>2026-04-06T09:25:08Z</time></trkpt><trkpt lat="44.43545490625724" lon="8.426203301953429"><ele>574.0</ele><time>2026-04-06T09:25:09Z</time></trkpt><trkpt lat="44.43552378494841" lon="8.42638637314347"><ele>574.0</ele><time>2026-04-06T09:25:10Z</time></trkpt><trkpt lat="44.43556651850354" lon="8.426604147115274"><ele>574.0</ele><time>2026-04-06T09:25:11Z</time></trkpt><trkpt lat="44.43559679466214" lon="8.42683154014883"><ele>574.0</ele><time>2026-04-06T09:25:12Z</time></trkpt><trkpt lat="44.43562712233078" lon="8.427059828585268"><ele>574.0</ele><time>2026-04-06T09:25:13Z</time></trkpt><trkpt lat="44.43566170970858" lon="8.427286996654349"><ele>574.0</ele><time>2026-04-06T09:25:14Z</time></trkpt><trkpt lat="44.43570046175345" lon="8.427517647040144"><ele>573.6666666666667</ele><time>2026-04-06T09:25:15Z</time></trkpt><trkpt lat="44.43573687742697" lon="8.427749774554847"><ele>573.3333333333334</ele><time>2026-04-06T09:25:16Z</time></trkpt><trkpt lat="44.435772412301006" lon="8.427977551852923"><ele>573.0</ele><time>2026-04-06T09:25:17Z</time></trkpt><trkpt lat="44.435804798619266" lon="8.428193921016272"><ele>573.0</ele><time>2026-04-06T09:25:18Z</time></trkpt><trkpt lat="44.435846960505245" lon="8.428405921336834"><ele>573.0</ele><time>2026-04-06T09:25:19Z</time></trkpt><trkpt lat="44.435903604828624" lon="8.428601686770026"><ele>573.0</ele><time>2026-04-06T09:25:20Z</time></trkpt><trkpt lat="44.435985303902235" lon="8.428774412257352"><ele>575.6666666666666</ele><time>2026-04-06T09:25:21Z</time></trkpt><trkpt lat="44.43608092661296" lon="8.428958939975258"><ele>578.3333333333333</ele><time>2026-04-06T09:25:22Z</time></trkpt><trkpt lat="44.436192436668335" lon="8.42913133714059"><ele>581.0</ele><time>2026-04-06T09:25:23Z</time></trkpt><trkpt lat="44.43632312044877" lon="8.429306567122897"><ele>581.0</ele><time>2026-04-06T09:25:24Z</time></trkpt><trkpt lat="44.4364561653441" lon="8.42945335967589"><ele>581.0</ele><time>2026-04-06T09:25:25Z</time></trkpt><trkpt lat="44.436591170043165" lon="8.429607370672597"><ele>581.0</ele><time>2026-04-06T09:25:26Z</time></trkpt><trkpt lat="44.436718456292844" lon="8.429760693920887"><ele>574.0</ele><time>2026-04-06T09:25:27Z</time></trkpt><trkpt lat="44.43682329617874" lon="8.429932187548125"><ele>567.0</ele><time>2026-04-06T09:25:28Z</time></trkpt><trkpt lat="44.436907805078" lon="8.430127399737417"><ele>560.0</ele><time>2026-04-06T09:25:29Z</time></trkpt><trkpt lat="44.4369770873019" lon="8.430336129615444"><ele>562.0</ele><time>2026-04-06T09:25:30Z</time></trkpt><trkpt lat="44.437043293594485" lon="8.430547276249529"><ele>564.0</ele><time>2026-04-06T09:25:31Z</time></trkpt><trkpt lat="44.43710151589978" lon="8.430741919597725"><ele>566.0</ele><time>2026-04-06T09:25:32Z</time></trkpt><trkpt lat="44.43715227711318" lon="8.430927544465533"><ele>566.0</ele><time>2026-04-06T09:25:33Z</time></trkpt><trkpt lat="44.43715637210966" lon="8.431118244884303"><ele>566.0</ele><time>2026-04-06T09:25:34Z</time></trkpt><trkpt lat="44.43713399245368" lon="8.431311234719242"><ele>566.0</ele><time>2026-04-06T09:25:35Z</time></trkpt><trkpt lat="44.437100933610296" lon="8.431499186579375"><ele>566.0</ele><time>2026-04-06T09:25:36Z</time></trkpt><trkpt lat="44.43707087741701" lon="8.431690753532362"><ele>556.0</ele><time>2026-04-06T09:25:37Z</time></trkpt><trkpt lat="44.43704535723052" lon="8.431887604598227"><ele>546.0</ele><time>2026-04-06T09:25:38Z</time></trkpt><trkpt lat="44.437021211733985" lon="8.432092067083104"><ele>536.0</ele><time>2026-04-06T09:25:39Z</time></trkpt><trkpt lat="44.43699041536109" lon="8.432311418929045"><ele>534.6666666666666</ele><time>2026-04-06T09:25:40Z</time></trkpt><trkpt lat="44.43693023622868" lon="8.43257348318999"><ele>533.3333333333334</ele><time>2026-04-06T09:25:41Z</time></trkpt><trkpt lat="44.43690346226327" lon="8.432759702546731"><ele>532.0</ele><time>2026-04-06T09:25:42Z</time></trkpt><trkpt lat="44.436867130517996" lon="8.432978659749756"><ele>532.0</ele><time>2026-04-06T09:25:43Z</time></trkpt><trkpt lat="44.43682683119957" lon="8.433186915039107"><ele>532.0</ele><time>2026-04-06T09:25:44Z</time></trkpt><trkpt lat="44.43678493881655" lon="8.433391784594216"><ele>532.0</ele><time>2026-04-06T09:25:45Z</time></trkpt><trkpt lat="44.43674767284632" lon="8.433589175205993"><ele>532.0</ele><time>2026-04-06T09:25:46Z</time></trkpt><trkpt lat="44.43671425964727" lon="8.433779486024296"><ele>532.0</ele><time>2026-04-06T09:25:47Z</time></trkpt><trkpt lat="44.43668535448212" lon="8.433971211345746"><ele>532.0</ele><time>2026-04-06T09:25:48Z</time></trkpt><trkpt lat="44.43662376230018" lon="8.434177465031258"><ele>532.0</ele><time>2026-04-06T09:25:49Z</time></trkpt><trkpt lat="44.43655842830084" lon="8.434367579836284"><ele>531.25</ele><time>2026-04-06T09:25:50Z</time></trkpt><trkpt lat="44.43649313669062" lon="8.43453687482129"><ele>530.5</ele><time>2026-04-06T09:25:51Z</time></trkpt><trkpt lat="44.43642869342244" lon="8.434686491920287"><ele>529.75</ele><time>2026-04-06T09:25:52Z</time></trkpt><trkpt lat="44.43636182130452" lon="8.43482202180812"><ele>529.0</ele><time>2026-04-06T09:25:53Z</time></trkpt><trkpt lat="44.43629777985398" lon="8.434949725318857"><ele>526.5</ele><time>2026-04-06T09:25:54Z</time></trkpt><trkpt lat="44.436255587895545" lon="8.435101723666797"><ele>524.0</ele><time>2026-04-06T09:25:55Z</time></trkpt><trkpt lat="44.43623174840817" lon="8.435239903052516"><ele>521.5</ele><time>2026-04-06T09:25:56Z</time></trkpt><trkpt lat="44.43623555712505" lon="8.435337722777714"><ele>519.0</ele><time>2026-04-06T09:25:57Z</time></trkpt><trkpt lat="44.43627736841307" lon="8.435409747591729"><ele>516.5</ele><time>2026-04-06T09:25:58Z</time></trkpt><trkpt lat="44.43635432130182" lon="8.435435552709938"><ele>514.0</ele><time>2026-04-06T09:25:59Z</time></trkpt><trkpt lat="44.43644899564426" lon="8.435401235102159"><ele>514.0</ele><time>2026-04-06T09:26:00Z</time></trkpt><trkpt lat="44.43654986083012" lon="8.435316680610914"><ele>514.0</ele><time>2026-04-06T09:26:01Z</time></trkpt><trkpt lat="44.436638951070975" lon="8.435194682500063"><ele>514.0</ele><time>2026-04-06T09:26:02Z</time></trkpt><trkpt lat="44.4366957915845" lon="8.43504829076597"><ele>514.0</ele><time>2026-04-06T09:26:03Z</time></trkpt><trkpt lat="44.436734283124146" lon="8.434886976434987"><ele>514.0</ele><time>2026-04-06T09:26:04Z</time></trkpt><trkpt lat="44.436792725547974" lon="8.434744116014475"><ele>514.0</ele><time>2026-04-06T09:26:05Z</time></trkpt><trkpt lat="44.43689984036019" lon="8.43464329730072"><ele>514.0</ele><time>2026-04-06T09:26:06Z</time></trkpt><trkpt lat="44.43701652732059" lon="8.434559189302147"><ele>514.0</ele><time>2026-04-06T09:26:07Z</time></trkpt><trkpt lat="44.43710574412965" lon="8.434433643829157"><ele>508.0</ele><time>2026-04-06T09:26:08Z</time></trkpt><trkpt lat="44.43717151327346" lon="8.434254496949098"><ele>502.0</ele><time>2026-04-06T09:26:09Z</time></trkpt><trkpt lat="44.43725722134674" lon="8.434041709906026"><ele>496.0</ele><time>2026-04-06T09:26:10Z</time></trkpt><trkpt lat="44.43737469192071" lon="8.433845965219959"><ele>501.0</ele><time>2026-04-06T09:26:11Z</time></trkpt><trkpt lat="44.43749262351167" lon="8.433678737039504"><ele>506.0</ele><time>2026-04-06T09:26:12Z</time></trkpt><trkpt lat="44.43760489216018" lon="8.433512142432836"><ele>511.0</ele><time>2026-04-06T09:26:13Z</time></trkpt><trkpt lat="44.437722810582365" lon="8.433356089542967"><ele>511.0</ele><time>2026-04-06T09:26:14Z</time></trkpt><trkpt lat="44.437847208486914" lon="8.433223532328103"><ele>511.0</ele><time>2026-04-06T09:26:15Z</time></trkpt><trkpt lat="44.43797846815795" lon="8.433104383292804"><ele>511.0</ele><time>2026-04-06T09:26:16Z</time></trkpt><trkpt lat="44.43810827086274" lon="8.432997452239483"><ele>507.0</ele><time>2026-04-06T09:26:17Z</time></trkpt><trkpt lat="44.43824411628544" lon="8.432899897224795"><ele>503.0</ele><time>2026-04-06T09:26:18Z</time></trkpt><trkpt lat="44.43838467889839" lon="8.432808256973065"><ele>499.0</ele><time>2026-04-06T09:26:19Z</time></trkpt><trkpt lat="44.43852135235951" lon="8.432719775478576"><ele>499.0</ele><time>2026-04-06T09:26:20Z</time></trkpt><trkpt lat="44.438662043135906" lon="8.432638305909071"><ele>499.0</ele><time>2026-04-06T09:26:21Z</time></trkpt><trkpt lat="44.438804100183866" lon="8.432570823184706"><ele>499.0</ele><time>2026-04-06T09:26:22Z</time></trkpt><trkpt lat="44.438945906918406" lon="8.432511184180907"><ele>494.25</ele><time>2026-04-06T09:26:23Z</time></trkpt><trkpt lat="44.43908110369928" lon="8.432447577920195"><ele>489.5</ele><time>2026-04-06T09:26:24Z</time></trkpt><trkpt lat="44.439222739915344" lon="8.432421233838667"><ele>484.75</ele><time>2026-04-06T09:26:25Z</time></trkpt><trkpt lat="44.43936428020091" lon="8.432433501625116"><ele>480.0</ele><time>2026-04-06T09:26:26Z</time></trkpt><trkpt lat="44.43949847284021" lon="8.432424189007378"><ele>480.0</ele><time>2026-04-06T09:26:27Z</time></trkpt><trkpt lat="44.439633652560396" lon="8.432374550728188"><ele>480.0</ele><time>2026-04-06T09:26:28Z</time></trkpt><trkpt lat="44.43977002174139" lon="8.432303563258575"><ele>480.0</ele><time>2026-04-06T09:26:29Z</time></trkpt><trkpt lat="44.43989809600725" lon="8.432210535387933"><ele>480.0</ele><time>2026-04-06T09:26:30Z</time></trkpt><trkpt lat="44.44001192322159" lon="8.432125841075612"><ele>480.0</ele><time>2026-04-06T09:26:31Z</time></trkpt><trkpt lat="44.440134347853345" lon="8.432066038524278"><ele>480.0</ele><time>2026-04-06T09:26:32Z</time></trkpt><trkpt lat="44.440269576395586" lon="8.432064197441035"><ele>480.0</ele><time>2026-04-06T09:26:33Z</time></trkpt><trkpt lat="44.44041492974349" lon="8.43208883917545"><ele>480.0</ele><time>2026-04-06T09:26:33.999Z</time></trkpt><trkpt lat="44.44057104402129" lon="8.432113993754525"><ele>477.0</ele><time>2026-04-06T09:26:34.999Z</time></trkpt><trkpt lat="44.44070793160385" lon="8.4321295633985"><ele>474.0</ele><time>2026-04-06T09:26:35.999Z</time></trkpt><trkpt lat="44.44083181017068" lon="8.432152265063518"><ele>471.0</ele><time>2026-04-06T09:26:36.999Z</time></trkpt><trkpt lat="44.44094442298014" lon="8.432192878081262"><ele>468.0</ele><time>2026-04-06T09:26:37.999Z</time></trkpt><trkpt lat="44.44104563502123" lon="8.432254473946651"><ele>465.75</ele><time>2026-04-06T09:26:38.999Z</time></trkpt><trkpt lat="44.441133999392754" lon="8.432358734096956"><ele>463.5</ele><time>2026-04-06T09:26:39.999Z</time></trkpt><trkpt lat="44.44121430872717" lon="8.432505522107713"><ele>461.25</ele><time>2026-04-06T09:26:40.999Z</time></trkpt><trkpt lat="44.44129327503231" lon="8.432663835508563"><ele>459.0</ele><time>2026-04-06T09:26:41.999Z</time></trkpt><trkpt lat="44.44138116531148" lon="8.43281066495131"><ele>457.0</ele><time>2026-04-06T09:26:42.999Z</time></trkpt><trkpt lat="44.44147037977119" lon="8.432960840438938"><ele>455.0</ele><time>2026-04-06T09:26:43.999Z</time></trkpt><trkpt lat="44.441554154591294" lon="8.433110069371436"><ele>453.0</ele><time>2026-04-06T09:26:44.999Z</time></trkpt><trkpt lat="44.4416321481554" lon="8.433256615198992"><ele>451.0</ele><time>2026-04-06T09:26:45.999Z</time></trkpt><trkpt lat="44.44171309230269" lon="8.433388992808819"><ele>450.20000000000005</ele><time>2026-04-06T09:26:46.999Z</time></trkpt><trkpt lat="44.441808426569864" lon="8.433507748292454"><ele>449.40000000000003</ele><time>2026-04-06T09:26:47.999Z</time></trkpt><trkpt lat="44.441902690733976" lon="8.43359538181281"><ele>448.6</ele><time>2026-04-06T09:26:48.999Z</time></trkpt><trkpt lat="44.44199051683788" lon="8.433671919594353"><ele>447.8</ele><time>2026-04-06T09:26:49.999Z</time></trkpt><trkpt lat="44.44207843732046" lon="8.433750360619163"><ele>447.0</ele><time>2026-04-06T09:26:50.999Z</time></trkpt><trkpt lat="44.44216314757271" lon="8.433816024000219"><ele>445.20000000000005</ele><time>2026-04-06T09:26:51.999Z</time></trkpt><trkpt lat="44.44224620544013" lon="8.433878865619574"><ele>443.40000000000003</ele><time>2026-04-06T09:26:52.999Z</time></trkpt><trkpt lat="44.44233653616041" lon="8.43391703369653"><ele>441.59999999999997</ele><time>2026-04-06T09:26:53.999Z</time></trkpt><trkpt lat="44.442436668646366" lon="8.433947724790922"><ele>439.79999999999995</ele><time>2026-04-06T09:26:54.999Z</time></trkpt><trkpt lat="44.442536709727285" lon="8.433980899568988"><ele>438.0</ele><time>2026-04-06T09:26:55.999Z</time></trkpt><trkpt lat="44.4426357341286" lon="8.434029328444108"><ele>438.0</ele><time>2026-04-06T09:26:56.999Z</time></trkpt><trkpt lat="44.44273708090632" lon="8.434081598356464"><ele>437.99999999999994</ele><time>2026-04-06T09:26:58.001Z</time></trkpt><trkpt lat="44.442839630811974" lon="8.434132567222711"><ele>437.99999999999994</ele><time>2026-04-06T09:26:59.001Z</time></trkpt><trkpt lat="44.44293575997969" lon="8.434174338749498"><ele>438.0</ele><time>2026-04-06T09:27:00.001Z</time></trkpt><trkpt lat="44.44301016068153" lon="8.43420761700136"><ele>438.0</ele><time>2026-04-06T09:27:01.001Z</time></trkpt><trkpt lat="44.4430747270026" lon="8.43424728565683"><ele>437.0</ele><time>2026-04-06T09:27:02.001Z</time></trkpt><trkpt lat="44.44314392544015" lon="8.434278920252433"><ele>436.0</ele><time>2026-04-06T09:27:03.001Z</time></trkpt><trkpt lat="44.44321775069417" lon="8.434312947719347"><ele>435.0</ele><time>2026-04-06T09:27:04.001Z</time></trkpt><trkpt lat="44.4432929568436" lon="8.434351811640996"><ele>434.0</ele><time>2026-04-06T09:27:05.001Z</time></trkpt><trkpt lat="44.443374306955384" lon="8.434381979206242"><ele>433.0</ele><time>2026-04-06T09:27:06.001Z</time></trkpt><trkpt lat="44.4434602885584" lon="8.43440348804391"><ele>432.0</ele><time>2026-04-06T09:27:07.001Z</time></trkpt><trkpt lat="44.443549159035044" lon="8.434418545377104"><ele>432.0</ele><time>2026-04-06T09:27:08.001Z</time></trkpt><trkpt lat="44.443635680023384" lon="8.434426124535921"><ele>432.0</ele><time>2026-04-06T09:27:09.001Z</time></trkpt><trkpt lat="44.44371382590075" lon="8.434433778083672"><ele>432.0</ele><time>2026-04-06T09:27:10.001Z</time></trkpt><trkpt lat="44.44379335567364" lon="8.434439401308254"><ele>432.0</ele><time>2026-04-06T09:27:11.001Z</time></trkpt><trkpt lat="44.44387282598314" lon="8.434451581722607"><ele>432.0</ele><time>2026-04-06T09:27:12.001Z</time></trkpt><trkpt lat="44.44394966123215" lon="8.434458684249222"><ele>432.0</ele><time>2026-04-06T09:27:13.001Z</time></trkpt><trkpt lat="44.44401845221955" lon="8.434474905499593"><ele>431.6666666666667</ele><time>2026-04-06T09:27:14.001Z</time></trkpt><trkpt lat="44.44409071175915" lon="8.434485342118359"><ele>431.33333333333337</ele><time>2026-04-06T09:27:15.001Z</time></trkpt><trkpt lat="44.44420620273734" lon="8.434512722141925"><ele>431.0</ele><time>2026-04-06T09:27:17.001Z</time></trkpt><trkpt lat="44.44429145488547" lon="8.434550684685622"><ele>430.6666666666667</ele><time>2026-04-06T09:27:19.001Z</time></trkpt><trkpt lat="44.44435789551052" lon="8.434617600064621"><ele>430.33333333333337</ele><time>2026-04-06T09:27:22Z</time></trkpt><trkpt lat="44.4444109900364" lon="8.434548286905583"><ele>430.0</ele><time>2026-04-06T09:28:48.999Z</time></trkpt><trkpt lat="44.44454648044704" lon="8.434707576193441"><ele>429.6</ele><time>2026-04-06T09:28:50.999Z</time></trkpt><trkpt lat="44.44454206786089" lon="8.434801440417036"><ele>429.2</ele><time>2026-04-06T09:28:53.999Z</time></trkpt><trkpt lat="44.44448948211266" lon="8.434876389115704"><ele>428.79999999999995</ele><time>2026-04-06T09:28:54.999Z</time></trkpt><trkpt lat="44.444377212978225" lon="8.43500025245082"><ele>428.4</ele><time>2026-04-06T09:28:56.999Z</time></trkpt><trkpt lat="44.4443068586269" lon="8.435073964378505"><ele>428.0</ele><time>2026-04-06T09:28:57.999Z</time></trkpt><trkpt lat="44.44423689650816" lon="8.435157730963423"><ele>428.0</ele><time>2026-04-06T09:28:58.999Z</time></trkpt><trkpt lat="44.444167942007006" lon="8.435250177661974"><ele>427.99999999999994</ele><time>2026-04-06T09:28:59.999Z</time></trkpt><trkpt lat="44.4441037595234" lon="8.435327672407187"><ele>427.99999999999994</ele><time>2026-04-06T09:29:00.999Z</time></trkpt><trkpt lat="44.44403138650297" lon="8.435403847003274"><ele>428.0</ele><time>2026-04-06T09:29:01.999Z</time></trkpt><trkpt lat="44.44395249567611" lon="8.435481970450791"><ele>428.0</ele><time>2026-04-06T09:29:02.999Z</time></trkpt><trkpt lat="44.443877614381165" lon="8.435571266024938"><ele>427.79999999999995</ele><time>2026-04-06T09:29:04Z</time></trkpt><trkpt lat="44.4437979254891" lon="8.435663243599052"><ele>427.59999999999997</ele><time>2026-04-06T09:29:05Z</time></trkpt><trkpt lat="44.443714883514005" lon="8.435762881113718"><ele>427.40000000000003</ele><time>2026-04-06T09:29:06Z</time></trkpt><trkpt lat="44.44363135707616" lon="8.43586079825459"><ele>427.20000000000005</ele><time>2026-04-06T09:29:07Z</time></trkpt><trkpt lat="44.44354566939117" lon="8.435965907926951"><ele>427.0</ele><time>2026-04-06T09:29:08Z</time></trkpt><trkpt lat="44.44345784143254" lon="8.436071969822086"><ele>427.75</ele><time>2026-04-06T09:29:09Z</time></trkpt><trkpt lat="44.44337152020194" lon="8.43618258891886"><ele>428.5</ele><time>2026-04-06T09:29:10Z</time></trkpt><trkpt lat="44.44328206634684" lon="8.436295177789845"><ele>429.25</ele><time>2026-04-06T09:29:11Z</time></trkpt><trkpt lat="44.44318660386587" lon="8.436406484053347"><ele>430.0</ele><time>2026-04-06T09:29:12Z</time></trkpt><trkpt lat="44.44309434676171" lon="8.43651448761604"><ele>430.0</ele><time>2026-04-06T09:29:13Z</time></trkpt><trkpt lat="44.443002893306414" lon="8.43661117866525"><ele>430.0</ele><time>2026-04-06T09:29:14Z</time></trkpt><trkpt lat="44.44290562722764" lon="8.436697476015128"><ele>430.0</ele><time>2026-04-06T09:29:15Z</time></trkpt><trkpt lat="44.44280396301674" lon="8.436787092138422"><ele>430.0</ele><time>2026-04-06T09:29:16Z</time></trkpt><trkpt lat="44.44269961701882" lon="8.43688012729029"><ele>430.25</ele><time>2026-04-06T09:29:17Z</time></trkpt><trkpt lat="44.44259258214463" lon="8.436973903871511"><ele>430.5</ele><time>2026-04-06T09:29:18Z</time></trkpt><trkpt lat="44.44248274013737" lon="8.437073006547818"><ele>430.75</ele><time>2026-04-06T09:29:19Z</time></trkpt><trkpt lat="44.442373342562185" lon="8.437169566727919"><ele>431.0</ele><time>2026-04-06T09:29:20Z</time></trkpt><trkpt lat="44.44225894065011" lon="8.437268925746245"><ele>431.0</ele><time>2026-04-06T09:29:21Z</time></trkpt><trkpt lat="44.44214688514909" lon="8.437367034316212"><ele>431.0</ele><time>2026-04-06T09:29:22Z</time></trkpt><trkpt lat="44.44203084305836" lon="8.437465995673055"><ele>431.0</ele><time>2026-04-06T09:29:23Z</time></trkpt><trkpt lat="44.44192077933123" lon="8.437567649401101"><ele>431.0</ele><time>2026-04-06T09:29:24Z</time></trkpt><trkpt lat="44.44181284683945" lon="8.43766807200628"><ele>431.0</ele><time>2026-04-06T09:29:25Z</time></trkpt><trkpt lat="44.44169905598279" lon="8.437756458854302"><ele>431.0</ele><time>2026-04-06T09:29:26Z</time></trkpt><trkpt lat="44.44159024226161" lon="8.437853413238567"><ele>431.0</ele><time>2026-04-06T09:29:27Z</time></trkpt><trkpt lat="44.441480392053855" lon="8.437943334571685"><ele>431.0</ele><time>2026-04-06T09:29:28Z</time></trkpt><trkpt lat="44.44137214903933" lon="8.438044161631217"><ele>431.25</ele><time>2026-04-06T09:29:29Z</time></trkpt><trkpt lat="44.44126740080673" lon="8.438149495819742"><ele>431.5</ele><time>2026-04-06T09:29:30Z</time></trkpt><trkpt lat="44.44116042690219" lon="8.43826007082627"><ele>431.75</ele><time>2026-04-06T09:29:31Z</time></trkpt><trkpt lat="44.44105558621415" lon="8.438372595574561"><ele>432.0</ele><time>2026-04-06T09:29:32Z</time></trkpt><trkpt lat="44.44095223756618" lon="8.438488584975223"><ele>432.0</ele><time>2026-04-06T09:29:33Z</time></trkpt><trkpt lat="44.44085530444605" lon="8.438612409420912"><ele>432.0</ele><time>2026-04-06T09:29:34Z</time></trkpt><trkpt lat="44.440759028931055" lon="8.438745042833128"><ele>432.0</ele><time>2026-04-06T09:29:35Z</time></trkpt><trkpt lat="44.440662294960326" lon="8.438870776307738"><ele>432.0</ele><time>2026-04-06T09:29:36Z</time></trkpt><trkpt lat="44.44055958078756" lon="8.439003022544972"><ele>431.5</ele><time>2026-04-06T09:29:37Z</time></trkpt><trkpt lat="44.44045994656908" lon="8.43912991044858"><ele>431.0</ele><time>2026-04-06T09:29:38Z</time></trkpt><trkpt lat="44.440359964911906" lon="8.439253970507345"><ele>430.5</ele><time>2026-04-06T09:29:39Z</time></trkpt><trkpt lat="44.44025766877026" lon="8.439383667076735"><ele>430.0</ele><time>2026-04-06T09:29:40Z</time></trkpt><trkpt lat="44.44015719073166" lon="8.439516334146846"><ele>431.0</ele><time>2026-04-06T09:29:41Z</time></trkpt><trkpt lat="44.44005489103128" lon="8.439645421200662"><ele>432.0</ele><time>2026-04-06T09:29:42Z</time></trkpt><trkpt lat="44.439948692494944" lon="8.439779193262417"><ele>433.0</ele><time>2026-04-06T09:29:43Z</time></trkpt><trkpt lat="44.439835699248995" lon="8.43992512991596"><ele>434.0</ele><time>2026-04-06T09:29:44Z</time></trkpt><trkpt lat="44.43972369576871" lon="8.440067010271827"><ele>433.66666666666663</ele><time>2026-04-06T09:29:45Z</time></trkpt><trkpt lat="44.43961937845664" lon="8.440201589230208"><ele>433.33333333333337</ele><time>2026-04-06T09:29:46Z</time></trkpt><trkpt lat="44.43950955546389" lon="8.44033816996182"><ele>433.0</ele><time>2026-04-06T09:29:47Z</time></trkpt><trkpt lat="44.439385998878116" lon="8.44049323668019"><ele>434.0</ele><time>2026-04-06T09:29:48Z</time></trkpt><trkpt lat="44.4392555325073" lon="8.44066270940388"><ele>435.0</ele><time>2026-04-06T09:29:49Z</time></trkpt><trkpt lat="44.43913688287994" lon="8.44081401776006"><ele>436.0</ele><time>2026-04-06T09:29:50Z</time></trkpt><trkpt lat="44.43902674884896" lon="8.440957496133812"><ele>436.0</ele><time>2026-04-06T09:29:51Z</time></trkpt><trkpt lat="44.43892769288342" lon="8.441102694229112"><ele>436.0</ele><time>2026-04-06T09:29:52Z</time></trkpt><trkpt lat="44.43883762002352" lon="8.441261344134677"><ele>436.0</ele><time>2026-04-06T09:29:53Z</time></trkpt><trkpt lat="44.43876312950758" lon="8.441439737664988"><ele>436.0</ele><time>2026-04-06T09:29:54Z</time></trkpt><trkpt lat="44.438714421839585" lon="8.441638268827754"><ele>436.0</ele><time>2026-04-06T09:29:55Z</time></trkpt><trkpt lat="44.438674272489905" lon="8.441856719064637"><ele>436.0</ele><time>2026-04-06T09:29:56Z</time></trkpt><trkpt lat="44.43864584849529" lon="8.442087528735957"><ele>436.0</ele><time>2026-04-06T09:29:57Z</time></trkpt><trkpt lat="44.43863022271813" lon="8.442332901845846"><ele>436.0</ele><time>2026-04-06T09:29:58Z</time></trkpt><trkpt lat="44.438625633374755" lon="8.442624057733124"><ele>436.0</ele><time>2026-04-06T09:29:59Z</time></trkpt><trkpt lat="44.43862525864808" lon="8.442946072016522"><ele>436.0</ele><time>2026-04-06T09:30:00Z</time></trkpt><trkpt lat="44.43859198625364" lon="8.443282293412379"><ele>436.6666666666667</ele><time>2026-04-06T09:30:01Z</time></trkpt><trkpt lat="44.43853506543505" lon="8.443570584195593"><ele>437.33333333333337</ele><time>2026-04-06T09:30:02Z</time></trkpt><trkpt lat="44.43847176105516" lon="8.443814465484767"><ele>438.0</ele><time>2026-04-06T09:30:03Z</time></trkpt><trkpt lat="44.43839606746902" lon="8.444034593312418"><ele>439.33333333333337</ele><time>2026-04-06T09:30:04Z</time></trkpt><trkpt lat="44.43831456469945" lon="8.444229850803433"><ele>440.6666666666667</ele><time>2026-04-06T09:30:05Z</time></trkpt><trkpt lat="44.43822736659258" lon="8.44440370897884"><ele>442.0</ele><time>2026-04-06T09:30:06Z</time></trkpt><trkpt lat="44.43813305828428" lon="8.444564133924436"><ele>442.25</ele><time>2026-04-06T09:30:07Z</time></trkpt><trkpt lat="44.438039439373846" lon="8.444726761424963"><ele>442.5</ele><time>2026-04-06T09:30:08Z</time></trkpt><trkpt lat="44.43795257330105" lon="8.444885619188321"><ele>442.75</ele><time>2026-04-06T09:30:09Z</time></trkpt><trkpt lat="44.43787331937198" lon="8.445040657689832"><ele>443.0</ele><time>2026-04-06T09:30:10Z</time></trkpt><trkpt lat="44.43779191954982" lon="8.44519681143707"><ele>443.0</ele><time>2026-04-06T09:30:11Z</time></trkpt><trkpt lat="44.43771675019638" lon="8.445358476906042"><ele>443.0</ele><time>2026-04-06T09:30:12Z</time></trkpt><trkpt lat="44.437647746486796" lon="8.445534484332825"><ele>443.0</ele><time>2026-04-06T09:30:12.999Z</time></trkpt><trkpt lat="44.437586376070506" lon="8.445712077691862"><ele>443.0</ele><time>2026-04-06T09:30:13.999Z</time></trkpt><trkpt lat="44.43752835155971" lon="8.445901297023969"><ele>443.0</ele><time>2026-04-06T09:30:14.999Z</time></trkpt><trkpt lat="44.43747002411823" lon="8.44608964932404"><ele>443.0</ele><time>2026-04-06T09:30:15.999Z</time></trkpt><trkpt lat="44.4373967698548" lon="8.446272271608406"><ele>443.0</ele><time>2026-04-06T09:30:16.999Z</time></trkpt><trkpt lat="44.437326121274765" lon="8.446463863707743"><ele>445.3333333333333</ele><time>2026-04-06T09:30:17.999Z</time></trkpt><trkpt lat="44.43725708504832" lon="8.446660045956145"><ele>447.66666666666663</ele><time>2026-04-06T09:30:18.999Z</time></trkpt><trkpt lat="44.43718479515786" lon="8.446849652186852"><ele>450.0</ele><time>2026-04-06T09:30:19.999Z</time></trkpt><trkpt lat="44.43710288857854" lon="8.447038201345064"><ele>451.75</ele><time>2026-04-06T09:30:20.999Z</time></trkpt><trkpt lat="44.43702145548981" lon="8.447215315171514"><ele>453.5</ele><time>2026-04-06T09:30:21.999Z</time></trkpt><trkpt lat="44.43694593714509" lon="8.44738263951994"><ele>455.25</ele><time>2026-04-06T09:30:22.999Z</time></trkpt><trkpt lat="44.43687283558791" lon="8.447552710112001"><ele>457.0</ele><time>2026-04-06T09:30:23.999Z</time></trkpt><trkpt lat="44.43680227022926" lon="8.447726585829624"><ele>457.0</ele><time>2026-04-06T09:30:24.999Z</time></trkpt><trkpt lat="44.43673260184187" lon="8.4478979817139"><ele>457.0</ele><time>2026-04-06T09:30:25.999Z</time></trkpt><trkpt lat="44.436667623535186" lon="8.44807003597673"><ele>457.0</ele><time>2026-04-06T09:30:26.999Z</time></trkpt><trkpt lat="44.43659528218806" lon="8.448243559317346"><ele>457.0</ele><time>2026-04-06T09:30:27.999Z</time></trkpt><trkpt lat="44.43652440675427" lon="8.448418436746117"><ele>458.5</ele><time>2026-04-06T09:30:28.999Z</time></trkpt><trkpt lat="44.43645097170531" lon="8.448591333893859"><ele>460.0</ele><time>2026-04-06T09:30:29.999Z</time></trkpt><trkpt lat="44.4363784097557" lon="8.44875710671896"><ele>461.5</ele><time>2026-04-06T09:30:30.999Z</time></trkpt><trkpt lat="44.43630047631757" lon="8.448923619188568"><ele>463.0</ele><time>2026-04-06T09:30:31.999Z</time></trkpt><trkpt lat="44.43622104338547" lon="8.449091663818269"><ele>466.25</ele><time>2026-04-06T09:30:32.999Z</time></trkpt><trkpt lat="44.43615019428424" lon="8.449271567104669"><ele>469.5</ele><time>2026-04-06T09:30:33.999Z</time></trkpt><trkpt lat="44.43608254491341" lon="8.449462588155804"><ele>472.75</ele><time>2026-04-06T09:30:34.999Z</time></trkpt><trkpt lat="44.436032745011204" lon="8.449656462532818"><ele>476.0</ele><time>2026-04-06T09:30:35.999Z</time></trkpt><trkpt lat="44.43599346665855" lon="8.449861869551086"><ele>477.0</ele><time>2026-04-06T09:30:36.999Z</time></trkpt><trkpt lat="44.435979673096824" lon="8.450070708878954"><ele>478.0</ele><time>2026-04-06T09:30:37.999Z</time></trkpt><trkpt lat="44.43596165191371" lon="8.450284890547001"><ele>479.0</ele><time>2026-04-06T09:30:38.999Z</time></trkpt><trkpt lat="44.435961257879114" lon="8.45049420374613"><ele>479.75</ele><time>2026-04-06T09:30:39.999Z</time></trkpt><trkpt lat="44.435953920403094" lon="8.450684137242929"><ele>480.5</ele><time>2026-04-06T09:30:40.999Z</time></trkpt><trkpt lat="44.43593967893067" lon="8.450864890888779"><ele>481.25</ele><time>2026-04-06T09:30:41.999Z</time></trkpt><trkpt lat="44.43591904910152" lon="8.45105373180637"><ele>482.0</ele><time>2026-04-06T09:30:42.999Z</time></trkpt><trkpt lat="44.43588483049878" lon="8.451245274849892"><ele>481.25</ele><time>2026-04-06T09:30:43.999Z</time></trkpt><trkpt lat="44.43584049663745" lon="8.45142190600726"><ele>480.5</ele><time>2026-04-06T09:30:44.999Z</time></trkpt><trkpt lat="44.43578863053637" lon="8.451593527702654"><ele>479.75</ele><time>2026-04-06T09:30:45.999Z</time></trkpt><trkpt lat="44.43573161988991" lon="8.451783936127244"><ele>479.0</ele><time>2026-04-06T09:30:46.999Z</time></trkpt><trkpt lat="44.43564857174508" lon="8.451959523215315"><ele>478.0</ele><time>2026-04-06T09:30:47.999Z</time></trkpt><trkpt lat="44.43556247021655" lon="8.45212639509139"><ele>477.0</ele><time>2026-04-06T09:30:48.999Z</time></trkpt><trkpt lat="44.435463979374816" lon="8.452287612519864"><ele>476.0</ele><time>2026-04-06T09:30:49.999Z</time></trkpt><trkpt lat="44.435356388430975" lon="8.45244424188534"><ele>473.66666666666663</ele><time>2026-04-06T09:30:50.999Z</time></trkpt><trkpt lat="44.43524476609794" lon="8.45258375082027"><ele>471.33333333333337</ele><time>2026-04-06T09:30:51.999Z</time></trkpt><trkpt lat="44.43512863608761" lon="8.452723435957166"><ele>469.0</ele><time>2026-04-06T09:30:52.999Z</time></trkpt><trkpt lat="44.435013269655265" lon="8.452873430264733"><ele>469.6666666666667</ele><time>2026-04-06T09:30:53.999Z</time></trkpt><trkpt lat="44.434897761907486" lon="8.453022778669007"><ele>470.33333333333337</ele><time>2026-04-06T09:30:54.999Z</time></trkpt><trkpt lat="44.43478240216074" lon="8.45317327846211"><ele>471.0</ele><time>2026-04-06T09:30:55.999Z</time></trkpt><trkpt lat="44.4346703386039" lon="8.453326176615704"><ele>468.33333333333337</ele><time>2026-04-06T09:30:56.999Z</time></trkpt><trkpt lat="44.434557502817974" lon="8.453473519194423"><ele>465.6666666666667</ele><time>2026-04-06T09:30:57.999Z</time></trkpt><trkpt lat="44.43444818327528" lon="8.453619327195243"><ele>463.0</ele><time>2026-04-06T09:30:58.999Z</time></trkpt><trkpt lat="44.43433914778743" lon="8.45376195471068"><ele>463.25</ele><time>2026-04-06T09:30:59.999Z</time></trkpt><trkpt lat="44.43422677945082" lon="8.453902940519178"><ele>463.5</ele><time>2026-04-06T09:31:00.999Z</time></trkpt><trkpt lat="44.43411987075763" lon="8.454044584026915"><ele>463.75</ele><time>2026-04-06T09:31:01.999Z</time></trkpt><trkpt lat="44.43400326803678" lon="8.454172062873582"><ele>464.0</ele><time>2026-04-06T09:31:02.999Z</time></trkpt><trkpt lat="44.4338845065066" lon="8.454297852570203"><ele>464.75</ele><time>2026-04-06T09:31:03.999Z</time></trkpt><trkpt lat="44.43376626086736" lon="8.454410336690989"><ele>465.5</ele><time>2026-04-06T09:31:04.999Z</time></trkpt><trkpt lat="44.43364287079408" lon="8.45452125767619"><ele>466.25</ele><time>2026-04-06T09:31:05.999Z</time></trkpt><trkpt lat="44.43351774012008" lon="8.45462740483727"><ele>467.0</ele><time>2026-04-06T09:31:06.999Z</time></trkpt><trkpt lat="44.43339211558057" lon="8.454738770660063"><ele>467.3333333333333</ele><time>2026-04-06T09:31:07.999Z</time></trkpt><trkpt lat="44.43326293492776" lon="8.454857636013006"><ele>467.66666666666663</ele><time>2026-04-06T09:31:08.999Z</time></trkpt><trkpt lat="44.433131723958375" lon="8.454979681656404"><ele>468.0</ele><time>2026-04-06T09:31:10Z</time></trkpt><trkpt lat="44.432998609199835" lon="8.455097701079476"><ele>467.66666666666663</ele><time>2026-04-06T09:31:11Z</time></trkpt><trkpt lat="44.43286216081109" lon="8.455216052061306"><ele>467.3333333333333</ele><time>2026-04-06T09:31:12Z</time></trkpt><trkpt lat="44.43272645110795" lon="8.455333765154382"><ele>467.0</ele><time>2026-04-06T09:31:13Z</time></trkpt><trkpt lat="44.432597573964834" lon="8.455466505864988"><ele>467.0</ele><time>2026-04-06T09:31:14Z</time></trkpt><trkpt lat="44.43247468947196" lon="8.455617110657888"><ele>467.0</ele><time>2026-04-06T09:31:15Z</time></trkpt><trkpt lat="44.43237492691043" lon="8.455796662776333"><ele>467.0</ele><time>2026-04-06T09:31:16Z</time></trkpt><trkpt lat="44.432303551207596" lon="8.456006157778129"><ele>467.0</ele><time>2026-04-06T09:31:17Z</time></trkpt><trkpt lat="44.432239897986854" lon="8.456214793329547"><ele>467.0</ele><time>2026-04-06T09:31:18Z</time></trkpt><trkpt lat="44.43218012126746" lon="8.456411468822582"><ele>467.0</ele><time>2026-04-06T09:31:19Z</time></trkpt><trkpt lat="44.43212258253776" lon="8.456593830215114"><ele>467.5</ele><time>2026-04-06T09:31:20Z</time></trkpt><trkpt lat="44.432060875557895" lon="8.456776358863701"><ele>468.0</ele><time>2026-04-06T09:31:21Z</time></trkpt><trkpt lat="44.43199653880028" lon="8.456961199372378"><ele>468.5</ele><time>2026-04-06T09:31:22Z</time></trkpt><trkpt lat="44.43193311312189" lon="8.457142668990814"><ele>469.0</ele><time>2026-04-06T09:31:23Z</time></trkpt><trkpt lat="44.43186647499072" lon="8.457322512085664"><ele>469.0</ele><time>2026-04-06T09:31:24Z</time></trkpt><trkpt lat="44.43179023508939" lon="8.457496450542111"><ele>469.0</ele><time>2026-04-06T09:31:25Z</time></trkpt><trkpt lat="44.43170011497849" lon="8.457660758500468"><ele>469.0</ele><time>2026-04-06T09:31:26Z</time></trkpt><trkpt lat="44.431595045669276" lon="8.4578137670355"><ele>469.0</ele><time>2026-04-06T09:31:27Z</time></trkpt><trkpt lat="44.43148205736486" lon="8.457948531239959"><ele>470.0</ele><time>2026-04-06T09:31:28Z</time></trkpt><trkpt lat="44.43135613360121" lon="8.458082018971654"><ele>471.0</ele><time>2026-04-06T09:31:29Z</time></trkpt><trkpt lat="44.431233461217296" lon="8.458197084830537"><ele>472.0</ele><time>2026-04-06T09:31:30Z</time></trkpt><trkpt lat="44.43111899649329" lon="8.458287065608818"><ele>473.0</ele><time>2026-04-06T09:31:31Z</time></trkpt><trkpt lat="44.43100810415818" lon="8.458367276804955"><ele>473.0</ele><time>2026-04-06T09:31:32Z</time></trkpt><trkpt lat="44.430897621459586" lon="8.458442191635344"><ele>473.0</ele><time>2026-04-06T09:31:33Z</time></trkpt><trkpt lat="44.43079353307121" lon="8.458505505191331"><ele>473.0</ele><time>2026-04-06T09:31:34Z</time></trkpt><trkpt lat="44.43068261284841" lon="8.458547015010726"><ele>473.0</ele><time>2026-04-06T09:31:35Z</time></trkpt><trkpt lat="44.43057075696983" lon="8.458568762668072"><ele>473.25</ele><time>2026-04-06T09:31:36Z</time></trkpt><trkpt lat="44.43046436710527" lon="8.458604006293974"><ele>473.5</ele><time>2026-04-06T09:31:37Z</time></trkpt><trkpt lat="44.4303609200859" lon="8.458683377454685"><ele>473.75</ele><time>2026-04-06T09:31:38Z</time></trkpt><trkpt lat="44.43026614595734" lon="8.458802887842229"><ele>474.0</ele><time>2026-04-06T09:31:39Z</time></trkpt><trkpt lat="44.43017636054083" lon="8.458924959387929"><ele>474.0</ele><time>2026-04-06T09:31:40Z</time></trkpt><trkpt lat="44.430082104009394" lon="8.459045835028325"><ele>474.0</ele><time>2026-04-06T09:31:41Z</time></trkpt><trkpt lat="44.43001329874801" lon="8.459208424244602"><ele>474.0</ele><time>2026-04-06T09:31:42Z</time></trkpt><trkpt lat="44.429953453665284" lon="8.459386075482524"><ele>474.0</ele><time>2026-04-06T09:31:43Z</time></trkpt><trkpt lat="44.429900979987565" lon="8.459574090243176"><ele>475.75</ele><time>2026-04-06T09:31:44Z</time></trkpt><trkpt lat="44.429853843979785" lon="8.459763138759051"><ele>477.5</ele><time>2026-04-06T09:31:45Z</time></trkpt><trkpt lat="44.42980560368503" lon="8.459950407681783"><ele>479.25</ele><time>2026-04-06T09:31:46Z</time></trkpt><trkpt lat="44.429753929409145" lon="8.460138480221914"><ele>481.0</ele><time>2026-04-06T09:31:47Z</time></trkpt><trkpt lat="44.42970243088812" lon="8.46033450998621"><ele>482.33333333333337</ele><time>2026-04-06T09:31:48Z</time></trkpt><trkpt lat="44.42965268452591" lon="8.460531299438575"><ele>483.66666666666663</ele><time>2026-04-06T09:31:49Z</time></trkpt><trkpt lat="44.429595253779624" lon="8.460729359219679"><ele>485.0</ele><time>2026-04-06T09:31:50Z</time></trkpt><trkpt lat="44.429535292684065" lon="8.4609255434721"><ele>485.0</ele><time>2026-04-06T09:31:51Z</time></trkpt><trkpt lat="44.429480672218105" lon="8.46112067486064"><ele>485.0</ele><time>2026-04-06T09:31:52Z</time></trkpt><trkpt lat="44.42942857852001" lon="8.461329858185909"><ele>485.0</ele><time>2026-04-06T09:31:53Z</time></trkpt><trkpt lat="44.42940644866055" lon="8.461512471614473"><ele>485.0</ele><time>2026-04-06T09:31:54Z</time></trkpt><trkpt lat="44.42938839849388" lon="8.461717004757597"><ele>486.0</ele><time>2026-04-06T09:31:55Z</time></trkpt><trkpt lat="44.42936412067753" lon="8.461926104382382"><ele>487.0</ele><time>2026-04-06T09:31:56Z</time></trkpt><trkpt lat="44.429349082162325" lon="8.462131030732273"><ele>488.0</ele><time>2026-04-06T09:31:57Z</time></trkpt><trkpt lat="44.42932986710145" lon="8.462338864044506"><ele>489.0</ele><time>2026-04-06T09:31:58Z</time></trkpt><trkpt lat="44.42931344914298" lon="8.46254347001029"><ele>489.5</ele><time>2026-04-06T09:31:59Z</time></trkpt><trkpt lat="44.429294164955856" lon="8.462751393268743"><ele>490.0</ele><time>2026-04-06T09:32:00Z</time></trkpt><trkpt lat="44.4292880758139" lon="8.462962049076076"><ele>490.5</ele><time>2026-04-06T09:32:01Z</time></trkpt><trkpt lat="44.42929989383772" lon="8.463163252528252"><ele>491.0</ele><time>2026-04-06T09:32:02Z</time></trkpt><trkpt lat="44.42933208421412" lon="8.463355585889238"><ele>491.0</ele><time>2026-04-06T09:32:03Z</time></trkpt><trkpt lat="44.429373052798134" lon="8.463543170470619"><ele>491.0</ele><time>2026-04-06T09:32:04Z</time></trkpt><trkpt lat="44.42940848073102" lon="8.463734332360318"><ele>491.0</ele><time>2026-04-06T09:32:05Z</time></trkpt><trkpt lat="44.42943893426728" lon="8.46392560554429"><ele>491.0</ele><time>2026-04-06T09:32:06Z</time></trkpt><trkpt lat="44.42946176054209" lon="8.464117977991254"><ele>491.0</ele><time>2026-04-06T09:32:07Z</time></trkpt><trkpt lat="44.42948570103588" lon="8.464306625923511"><ele>491.0</ele><time>2026-04-06T09:32:08Z</time></trkpt><trkpt lat="44.429510317740366" lon="8.46448781249919"><ele>491.0</ele><time>2026-04-06T09:32:08.999Z</time></trkpt><trkpt lat="44.429533756914985" lon="8.464669852309598"><ele>491.0</ele><time>2026-04-06T09:32:09.999Z</time></trkpt><trkpt lat="44.42956233527149" lon="8.464853093033936"><ele>491.25</ele><time>2026-04-06T09:32:10.999Z</time></trkpt><trkpt lat="44.429587516977826" lon="8.465042693615809"><ele>491.5</ele><time>2026-04-06T09:32:11.999Z</time></trkpt><trkpt lat="44.42961294628046" lon="8.465221413949727"><ele>491.75</ele><time>2026-04-06T09:32:12.999Z</time></trkpt><trkpt lat="44.42963394659894" lon="8.465384652562424"><ele>492.0</ele><time>2026-04-06T09:32:13.999Z</time></trkpt><trkpt lat="44.42965662443803" lon="8.465546884889232"><ele>492.5</ele><time>2026-04-06T09:32:14.999Z</time></trkpt><trkpt lat="44.42967176899022" lon="8.465709843426241"><ele>493.0</ele><time>2026-04-06T09:32:15.999Z</time></trkpt><trkpt lat="44.429683506626276" lon="8.465872394374015"><ele>493.5</ele><time>2026-04-06T09:32:16.999Z</time></trkpt><trkpt lat="44.42969622083178" lon="8.46604316828796"><ele>494.0</ele><time>2026-04-06T09:32:17.999Z</time></trkpt><trkpt lat="44.42970848996979" lon="8.46621863904875"><ele>493.5</ele><time>2026-04-06T09:32:18.999Z</time></trkpt><trkpt lat="44.42972262711843" lon="8.466384354124889"><ele>493.0</ele><time>2026-04-06T09:32:19.999Z</time></trkpt><trkpt lat="44.42973749200377" lon="8.466550257905299"><ele>492.5</ele><time>2026-04-06T09:32:20.999Z</time></trkpt><trkpt lat="44.42975004137517" lon="8.466717689774837"><ele>492.0</ele><time>2026-04-06T09:32:21.999Z</time></trkpt><trkpt lat="44.429757292458866" lon="8.466881970902126"><ele>492.0</ele><time>2026-04-06T09:32:22.999Z</time></trkpt><trkpt lat="44.42975796466531" lon="8.46704820653723"><ele>492.0</ele><time>2026-04-06T09:32:23.999Z</time></trkpt><trkpt lat="44.429749209114554" lon="8.467213842491798"><ele>492.0</ele><time>2026-04-06T09:32:24.999Z</time></trkpt><trkpt lat="44.429732859911255" lon="8.467375246474203"><ele>492.0</ele><time>2026-04-06T09:32:25.999Z</time></trkpt><trkpt lat="44.42970741297062" lon="8.467532511677605"><ele>492.0</ele><time>2026-04-06T09:32:26.999Z</time></trkpt><trkpt lat="44.42967446775258" lon="8.467695923106957"><ele>492.0</ele><time>2026-04-06T09:32:27.999Z</time></trkpt><trkpt lat="44.42963118717973" lon="8.467864898968667"><ele>492.0</ele><time>2026-04-06T09:32:28.999Z</time></trkpt><trkpt lat="44.42957775582563" lon="8.468026864723193"><ele>492.0</ele><time>2026-04-06T09:32:29.999Z</time></trkpt><trkpt lat="44.42951855762828" lon="8.468191944589014"><ele>492.75</ele><time>2026-04-06T09:32:30.999Z</time></trkpt><trkpt lat="44.42946078496931" lon="8.468342584758048"><ele>493.5</ele><time>2026-04-06T09:32:31.999Z</time></trkpt><trkpt lat="44.429403576700764" lon="8.468502116607823"><ele>494.25</ele><time>2026-04-06T09:32:32.999Z</time></trkpt><trkpt lat="44.42935005260824" lon="8.468665912691383"><ele>495.0</ele><time>2026-04-06T09:32:33.999Z</time></trkpt><trkpt lat="44.429291063020024" lon="8.468829970062709"><ele>495.0</ele><time>2026-04-06T09:32:34.999Z</time></trkpt><trkpt lat="44.42923015715685" lon="8.468996217971009"><ele>495.0</ele><time>2026-04-06T09:32:35.999Z</time></trkpt><trkpt lat="44.429171725179735" lon="8.469162182626421"><ele>495.0</ele><time>2026-04-06T09:32:36.999Z</time></trkpt><trkpt lat="44.429110021785284" lon="8.469331168831063"><ele>495.0</ele><time>2026-04-06T09:32:37.999Z</time></trkpt><trkpt lat="44.42905457666354" lon="8.469490921642567"><ele>494.75</ele><time>2026-04-06T09:32:38.999Z</time></trkpt><trkpt lat="44.42900023039957" lon="8.46965175780043"><ele>494.5</ele><time>2026-04-06T09:32:39.999Z</time></trkpt><trkpt lat="44.42895845535429" lon="8.469825871476795"><ele>494.25</ele><time>2026-04-06T09:32:40.999Z</time></trkpt><trkpt lat="44.42893214159656" lon="8.470010687014458"><ele>494.0</ele><time>2026-04-06T09:32:41.999Z</time></trkpt><trkpt lat="44.42891722087548" lon="8.470201031888543"><ele>494.0</ele><time>2026-04-06T09:32:42.999Z</time></trkpt><trkpt lat="44.42890566495103" lon="8.47039674877033"><ele>494.0</ele><time>2026-04-06T09:32:43.999Z</time></trkpt><trkpt lat="44.428897542075035" lon="8.470588421599453"><ele>494.0</ele><time>2026-04-06T09:32:44.999Z</time></trkpt><trkpt lat="44.42889429576239" lon="8.470783924828932"><ele>494.0</ele><time>2026-04-06T09:32:45.999Z</time></trkpt><trkpt lat="44.42889520029071" lon="8.470976313710665"><ele>494.5</ele><time>2026-04-06T09:32:46.999Z</time></trkpt><trkpt lat="44.42888884100255" lon="8.471168054705126"><ele>495.0</ele><time>2026-04-06T09:32:47.999Z</time></trkpt><trkpt lat="44.42889710135981" lon="8.471335796642478"><ele>495.5</ele><time>2026-04-06T09:32:48.999Z</time></trkpt><trkpt lat="44.42889185156823" lon="8.47152138611996"><ele>496.0</ele><time>2026-04-06T09:32:49.999Z</time></trkpt><trkpt lat="44.428901533262554" lon="8.471707856770205"><ele>496.0</ele><time>2026-04-06T09:32:50.999Z</time></trkpt><trkpt lat="44.42891839613088" lon="8.471893101119564"><ele>496.0</ele><time>2026-04-06T09:32:51.999Z</time></trkpt><trkpt lat="44.42894037972214" lon="8.47206138394239"><ele>496.0</ele><time>2026-04-06T09:32:52.999Z</time></trkpt><trkpt lat="44.42895797887062" lon="8.472218313559557"><ele>496.0</ele><time>2026-04-06T09:32:53.999Z</time></trkpt><trkpt lat="44.428969511973335" lon="8.472368238755715"><ele>496.6</ele><time>2026-04-06T09:32:54.999Z</time></trkpt><trkpt lat="44.42898651595702" lon="8.472517847262301"><ele>497.20000000000005</ele><time>2026-04-06T09:32:55.999Z</time></trkpt><trkpt lat="44.4290004313678" lon="8.472652973414439"><ele>497.79999999999995</ele><time>2026-04-06T09:32:56.999Z</time></trkpt><trkpt lat="44.429009515619306" lon="8.472772685500487"><ele>498.4</ele><time>2026-04-06T09:32:57.999Z</time></trkpt><trkpt lat="44.429018294372675" lon="8.47287547299364"><ele>499.0</ele><time>2026-04-06T09:32:58.999Z</time></trkpt><trkpt lat="44.429023175297196" lon="8.47304306191571"><ele>499.50000000000006</ele><time>2026-04-06T09:33:00.999Z</time></trkpt><trkpt lat="44.429032939090284" lon="8.473160766382328"><ele>500.0</ele><time>2026-04-06T09:33:02.999Z</time></trkpt><trkpt lat="44.429048572150606" lon="8.473281240494675"><ele>500.5</ele><time>2026-04-06T09:33:05.999Z</time></trkpt><trkpt lat="44.4290396913525" lon="8.47336968190545"><ele>501.0</ele><time>2026-04-06T09:33:07.999Z</time></trkpt><trkpt lat="44.429009700961664" lon="8.473480918560163"><ele>501.50000000000006</ele><time>2026-04-06T09:33:09.999Z</time></trkpt><trkpt lat="44.42894995794762" lon="8.473561625888431"><ele>502.0</ele><time>2026-04-06T09:33:11.999Z</time></trkpt><trkpt lat="44.42890128002087" lon="8.473624097765471"><ele>502.00000000000006</ele><time>2026-04-06T09:33:12.999Z</time></trkpt><trkpt lat="44.428840174827826" lon="8.473690469854203"><ele>502.0</ele><time>2026-04-06T09:33:13.999Z</time></trkpt><trkpt lat="44.428759880173466" lon="8.473702978347552"><ele>502.0</ele><time>2026-04-06T09:33:14.999Z</time></trkpt><trkpt lat="44.4286770155621" lon="8.473668554287357"><ele>502.0</ele><time>2026-04-06T09:33:16.001Z</time></trkpt><trkpt lat="44.42860162564328" lon="8.473609720758791"><ele>502.00000000000006</ele><time>2026-04-06T09:33:17.001Z</time></trkpt><trkpt lat="44.42852630135745" lon="8.47353525620954"><ele>502.0</ele><time>2026-04-06T09:33:18.001Z</time></trkpt><trkpt lat="44.42847024724412" lon="8.473435005712897"><ele>501.40000000000003</ele><time>2026-04-06T09:33:19.001Z</time></trkpt><trkpt lat="44.42844272751668" lon="8.473326938963416"><ele>500.80000000000007</ele><time>2026-04-06T09:33:20.001Z</time></trkpt><trkpt lat="44.42840893324632" lon="8.473210350737554"><ele>500.2</ele><time>2026-04-06T09:33:21.001Z</time></trkpt><trkpt lat="44.42835264186525" lon="8.473103956330315"><ele>499.6</ele><time>2026-04-06T09:33:22.001Z</time></trkpt><trkpt lat="44.42824600085577" lon="8.47305212404494"><ele>499.0</ele><time>2026-04-06T09:33:23.001Z</time></trkpt><trkpt lat="44.42814187502113" lon="8.473024495058239"><ele>499.0</ele><time>2026-04-06T09:33:24.001Z</time></trkpt><trkpt lat="44.42804125959792" lon="8.473011299807022"><ele>499.0</ele><time>2026-04-06T09:33:25.001Z</time></trkpt><trkpt lat="44.427928626381345" lon="8.473001357836825"><ele>499.0</ele><time>2026-04-06T09:33:26.001Z</time></trkpt><trkpt lat="44.42781584418223" lon="8.472997762106697"><ele>499.0</ele><time>2026-04-06T09:33:27Z</time></trkpt><trkpt lat="44.42769715546497" lon="8.472994390144015"><ele>499.0</ele><time>2026-04-06T09:33:28Z</time></trkpt><trkpt lat="44.427583056954035" lon="8.472995083269229"><ele>497.75</ele><time>2026-04-06T09:33:29Z</time></trkpt><trkpt lat="44.42746391368292" lon="8.472998863515734"><ele>496.5</ele><time>2026-04-06T09:33:30Z</time></trkpt><trkpt lat="44.42734991807061" lon="8.473008465187355"><ele>495.25</ele><time>2026-04-06T09:33:31Z</time></trkpt><trkpt lat="44.427241838064276" lon="8.473040687417985"><ele>494.0</ele><time>2026-04-06T09:33:32Z</time></trkpt><trkpt lat="44.42713403098399" lon="8.47308007063493"><ele>494.0</ele><time>2026-04-06T09:33:33Z</time></trkpt><trkpt lat="44.427036535041715" lon="8.473145654621325"><ele>494.0</ele><time>2026-04-06T09:33:34Z</time></trkpt><trkpt lat="44.42695236708831" lon="8.4732588869344"><ele>494.0</ele><time>2026-04-06T09:33:35Z</time></trkpt><trkpt lat="44.42689508184015" lon="8.473386634902504"><ele>494.0</ele><time>2026-04-06T09:33:36Z</time></trkpt><trkpt lat="44.42685340436306" lon="8.4735109259811"><ele>494.0</ele><time>2026-04-06T09:33:37Z</time></trkpt><trkpt lat="44.42679805341852" lon="8.473635739301349"><ele>494.0</ele><time>2026-04-06T09:33:38Z</time></trkpt><trkpt lat="44.42670621294847" lon="8.473742064565734"><ele>494.0</ele><time>2026-04-06T09:33:39Z</time></trkpt><trkpt lat="44.426595466143716" lon="8.473826885053564"><ele>494.0</ele><time>2026-04-06T09:33:40Z</time></trkpt><trkpt lat="44.42647728580985" lon="8.473872025190822"><ele>494.0</ele><time>2026-04-06T09:33:41Z</time></trkpt><trkpt lat="44.42635891682432" lon="8.473916251747532"><ele>488.25</ele><time>2026-04-06T09:33:42Z</time></trkpt><trkpt lat="44.42624116219346" lon="8.473957853886288"><ele>482.5</ele><time>2026-04-06T09:33:43Z</time></trkpt><trkpt lat="44.4261228532643" lon="8.473993945714453"><ele>476.75</ele><time>2026-04-06T09:33:44Z</time></trkpt><trkpt lat="44.426008822279215" lon="8.474019105596573"><ele>471.0</ele><time>2026-04-06T09:33:45Z</time></trkpt><trkpt lat="44.425901305791925" lon="8.474047106505893"><ele>471.0</ele><time>2026-04-06T09:33:46Z</time></trkpt><trkpt lat="44.425805309428696" lon="8.474116503919362"><ele>471.0</ele><time>2026-04-06T09:33:47Z</time></trkpt><trkpt lat="44.42571808099058" lon="8.47422752259019"><ele>471.0</ele><time>2026-04-06T09:33:48Z</time></trkpt><trkpt lat="44.42565355819554" lon="8.474347266754558"><ele>471.0</ele><time>2026-04-06T09:33:49Z</time></trkpt><trkpt lat="44.42559449123856" lon="8.474471249260345"><ele>471.0</ele><time>2026-04-06T09:33:50Z</time></trkpt><trkpt lat="44.425535781870686" lon="8.474591115263229"><ele>467.5</ele><time>2026-04-06T09:33:51Z</time></trkpt><trkpt lat="44.42547046208924" lon="8.474705450761627"><ele>464.0</ele><time>2026-04-06T09:33:52Z</time></trkpt><trkpt lat="44.42539361775838" lon="8.474828548075358"><ele>460.5</ele><time>2026-04-06T09:33:53Z</time></trkpt><trkpt lat="44.42530057296346" lon="8.474948980737954"><ele>457.0</ele><time>2026-04-06T09:33:54Z</time></trkpt><trkpt lat="44.425201576489414" lon="8.475041049797643"><ele>457.0</ele><time>2026-04-06T09:33:55Z</time></trkpt><trkpt lat="44.425100143138636" lon="8.475123871783978"><ele>457.0</ele><time>2026-04-06T09:33:56Z</time></trkpt><trkpt lat="44.42499061585459" lon="8.475202836310029"><ele>457.0</ele><time>2026-04-06T09:33:57Z</time></trkpt><trkpt lat="44.42487650025327" lon="8.475261251433501"><ele>457.0</ele><time>2026-04-06T09:33:58Z</time></trkpt><trkpt lat="44.424760897085484" lon="8.475283184752367"><ele>457.0</ele><time>2026-04-06T09:33:59Z</time></trkpt><trkpt lat="44.42464739298157" lon="8.475272424590255"><ele>457.0</ele><time>2026-04-06T09:34:00Z</time></trkpt><trkpt lat="44.42452913775797" lon="8.475231926488325"><ele>457.0</ele><time>2026-04-06T09:34:01Z</time></trkpt><trkpt lat="44.42441286302405" lon="8.475168766522295"><ele>457.0</ele><time>2026-04-06T09:34:02Z</time></trkpt><trkpt lat="44.42429675805873" lon="8.475101196322713"><ele>455.0</ele><time>2026-04-06T09:34:03Z</time></trkpt><trkpt lat="44.424178562804215" lon="8.475032881377297"><ele>453.0</ele><time>2026-04-06T09:34:04Z</time></trkpt><trkpt lat="44.424070099719295" lon="8.474965031991559"><ele>451.0</ele><time>2026-04-06T09:34:05Z</time></trkpt><trkpt lat="44.42396453524503" lon="8.474900567912085"><ele>449.0</ele><time>2026-04-06T09:34:06Z</time></trkpt><trkpt lat="44.42385781971559" lon="8.474827790793134"><ele>450.25</ele><time>2026-04-06T09:34:07Z</time></trkpt><trkpt lat="44.42375368566262" lon="8.474742398005905"><ele>451.5</ele><time>2026-04-06T09:34:08Z</time></trkpt><trkpt lat="44.42366293402028" lon="8.474643086031625"><ele>452.75</ele><time>2026-04-06T09:34:09Z</time></trkpt><trkpt lat="44.42357956464859" lon="8.47452373310515"><ele>454.0</ele><time>2026-04-06T09:34:10Z</time></trkpt><trkpt lat="44.4235041201482" lon="8.47439421264363"><ele>451.4</ele><time>2026-04-06T09:34:11Z</time></trkpt><trkpt lat="44.42342701513825" lon="8.47427103569608"><ele>448.79999999999995</ele><time>2026-04-06T09:34:12Z</time></trkpt><trkpt lat="44.42335076411159" lon="8.474165102561216"><ele>446.20000000000005</ele><time>2026-04-06T09:34:13Z</time></trkpt><trkpt lat="44.42328479668192" lon="8.47407043868198"><ele>443.6</ele><time>2026-04-06T09:34:14Z</time></trkpt><trkpt lat="44.42322269909963" lon="8.473985111825067"><ele>441.0</ele><time>2026-04-06T09:34:15Z</time></trkpt><trkpt lat="44.4231762473008" lon="8.473922764771903"><ele>441.0</ele><time>2026-04-06T09:34:16Z</time></trkpt><trkpt lat="44.42312087764285" lon="8.473874638045345"><ele>441.0</ele><time>2026-04-06T09:34:17Z</time></trkpt><trkpt lat="44.423057835825325" lon="8.473850302484585"><ele>441.0</ele><time>2026-04-06T09:34:18Z</time></trkpt><trkpt lat="44.42298561895339" lon="8.47384613937429"><ele>441.0</ele><time>2026-04-06T09:34:19Z</time></trkpt><trkpt lat="44.42290874880595" lon="8.473872042364967"><ele>441.0</ele><time>2026-04-06T09:34:20Z</time></trkpt><trkpt lat="44.42283521266067" lon="8.473922394768314"><ele>441.0</ele><time>2026-04-06T09:34:21Z</time></trkpt><trkpt lat="44.42277770399737" lon="8.474004024849368"><ele>441.0</ele><time>2026-04-06T09:34:21.999Z</time></trkpt><trkpt lat="44.42274766575112" lon="8.474119328878913"><ele>440.1666666666667</ele><time>2026-04-06T09:34:22.999Z</time></trkpt><trkpt lat="44.422748815315884" lon="8.47424012065504"><ele>439.33333333333337</ele><time>2026-04-06T09:34:23.999Z</time></trkpt><trkpt lat="44.42275814592225" lon="8.474349553169088"><ele>438.5</ele><time>2026-04-06T09:34:24.999Z</time></trkpt><trkpt lat="44.42278366478681" lon="8.474446840498352"><ele>437.6666666666667</ele><time>2026-04-06T09:34:25.999Z</time></trkpt><trkpt lat="44.422832951508674" lon="8.47453978278043"><ele>436.83333333333337</ele><time>2026-04-06T09:34:26.999Z</time></trkpt><trkpt lat="44.42288886999451" lon="8.474624579224843"><ele>436.0</ele><time>2026-04-06T09:34:27.999Z</time></trkpt><trkpt lat="44.42295167084146" lon="8.474702991375363"><ele>436.0</ele><time>2026-04-06T09:34:28.999Z</time></trkpt><trkpt lat="44.423010282541625" lon="8.474786072281645"><ele>436.0</ele><time>2026-04-06T09:34:29.999Z</time></trkpt><trkpt lat="44.42304863189941" lon="8.474891072156607"><ele>436.0</ele><time>2026-04-06T09:34:30.999Z</time></trkpt><trkpt lat="44.42304060415099" lon="8.475022455276786"><ele>436.0</ele><time>2026-04-06T09:34:31.999Z</time></trkpt><trkpt lat="44.422980324230714" lon="8.475126793499427"><ele>436.0</ele><time>2026-04-06T09:34:32.999Z</time></trkpt><trkpt lat="44.422896034384976" lon="8.475192329749692"><ele>436.0</ele><time>2026-04-06T09:34:33.999Z</time></trkpt><trkpt lat="44.42280381707866" lon="8.47522882678483"><ele>436.0</ele><time>2026-04-06T09:34:34.999Z</time></trkpt><trkpt lat="44.42271010390102" lon="8.47525045922182"><ele>436.0</ele><time>2026-04-06T09:34:35.999Z</time></trkpt><trkpt lat="44.42261429362926" lon="8.47524773157171"><ele>436.0</ele><time>2026-04-06T09:34:36.999Z</time></trkpt><trkpt lat="44.422510154832835" lon="8.475222553884306"><ele>436.0</ele><time>2026-04-06T09:34:37.999Z</time></trkpt><trkpt lat="44.422404158132636" lon="8.475180229397786"><ele>436.0</ele><time>2026-04-06T09:34:38.999Z</time></trkpt><trkpt lat="44.422297662944466" lon="8.475132877354984"><ele>436.0</ele><time>2026-04-06T09:34:39.999Z</time></trkpt><trkpt lat="44.4221830827326" lon="8.475101695338985"><ele>436.0</ele><time>2026-04-06T09:34:40.999Z</time></trkpt><trkpt lat="44.42206501665059" lon="8.475091155005796"><ele>436.0</ele><time>2026-04-06T09:34:41.999Z</time></trkpt><trkpt lat="44.421942129381286" lon="8.475092109525114"><ele>433.0</ele><time>2026-04-06T09:34:42.999Z</time></trkpt><trkpt lat="44.421822013020574" lon="8.475106852903657"><ele>430.0</ele><time>2026-04-06T09:34:43.999Z</time></trkpt><trkpt lat="44.421716252958646" lon="8.475130439793316"><ele>427.0</ele><time>2026-04-06T09:34:44.999Z</time></trkpt><trkpt lat="44.421624290656" lon="8.47515909941576"><ele>424.0</ele><time>2026-04-06T09:34:45.999Z</time></trkpt><trkpt lat="44.421543467560056" lon="8.475212903673706"><ele>421.0</ele><time>2026-04-06T09:34:46.999Z</time></trkpt><trkpt lat="44.42148068223661" lon="8.475300174349217"><ele>421.00000000000006</ele><time>2026-04-06T09:34:47.999Z</time></trkpt><trkpt lat="44.42145767405293" lon="8.475408165054075"><ele>421.0</ele><time>2026-04-06T09:34:48.999Z</time></trkpt><trkpt lat="44.42147364831442" lon="8.475507993636732"><ele>421.0</ele><time>2026-04-06T09:34:49.999Z</time></trkpt><trkpt lat="44.42151172161873" lon="8.47558643922677"><ele>421.0</ele><time>2026-04-06T09:34:50.999Z</time></trkpt><trkpt lat="44.42156332214647" lon="8.475655839015893"><ele>421.0</ele><time>2026-04-06T09:34:51.999Z</time></trkpt><trkpt lat="44.42162658273658" lon="8.47569826065698"><ele>421.00000000000006</ele><time>2026-04-06T09:34:52.999Z</time></trkpt><trkpt lat="44.421695796025325" lon="8.475740698476091"><ele>421.0</ele><time>2026-04-06T09:34:53.999Z</time></trkpt><trkpt lat="44.42176789352017" lon="8.475785071227483"><ele>421.1666666666667</ele><time>2026-04-06T09:34:54.999Z</time></trkpt><trkpt lat="44.421832421928414" lon="8.475858920226376"><ele>421.33333333333337</ele><time>2026-04-06T09:34:55.999Z</time></trkpt><trkpt lat="44.42186701092776" lon="8.47596773578871"><ele>421.5</ele><time>2026-04-06T09:34:56.999Z</time></trkpt><trkpt lat="44.42185400898418" lon="8.476088077423558"><ele>421.66666666666663</ele><time>2026-04-06T09:34:57.999Z</time></trkpt><trkpt lat="44.421810515963756" lon="8.47618029007634"><ele>421.8333333333333</ele><time>2026-04-06T09:34:58.999Z</time></trkpt><trkpt lat="44.4217677615611" lon="8.476270049889651"><ele>422.0</ele><time>2026-04-06T09:34:59.999Z</time></trkpt><trkpt lat="44.42172893782867" lon="8.476363474257338"><ele>422.99999999999994</ele><time>2026-04-06T09:35:00.999Z</time></trkpt><trkpt lat="44.42168700819003" lon="8.4764530299623"><ele>424.0</ele><time>2026-04-06T09:35:01.999Z</time></trkpt><trkpt lat="44.421636723381795" lon="8.476537002260683"><ele>425.0</ele><time>2026-04-06T09:35:02.999Z</time></trkpt><trkpt lat="44.421572872357494" lon="8.476593270520402"><ele>426.0</ele><time>2026-04-06T09:35:03.999Z</time></trkpt><trkpt lat="44.421498267812346" lon="8.476604850045922"><ele>426.99999999999994</ele><time>2026-04-06T09:35:04.999Z</time></trkpt><trkpt lat="44.421418229022905" lon="8.476569232608554"><ele>428.0</ele><time>2026-04-06T09:35:05.999Z</time></trkpt><trkpt lat="44.421345317969795" lon="8.476493365053928"><ele>425.59999999999997</ele><time>2026-04-06T09:35:06.999Z</time></trkpt><trkpt lat="44.42127820997769" lon="8.476414662011674"><ele>423.19999999999993</ele><time>2026-04-06T09:35:07.999Z</time></trkpt><trkpt lat="44.421193763426245" lon="8.476354211265985"><ele>420.8</ele><time>2026-04-06T09:35:08.999Z</time></trkpt><trkpt lat="44.421102923776964" lon="8.476304354124556"><ele>418.4</ele><time>2026-04-06T09:35:09.999Z</time></trkpt><trkpt lat="44.42101747154571" lon="8.476252075284936"><ele>416.0</ele><time>2026-04-06T09:35:10.999Z</time></trkpt><trkpt lat="44.42093297441815" lon="8.476205568857921"><ele>415.99999999999994</ele><time>2026-04-06T09:35:11.999Z</time></trkpt><trkpt lat="44.42085397882042" lon="8.476175193462312"><ele>416.0</ele><time>2026-04-06T09:35:12.999Z</time></trkpt><trkpt lat="44.420773591399886" lon="8.476186472055801"><ele>416.0</ele><time>2026-04-06T09:35:13.999Z</time></trkpt><trkpt lat="44.42069512589195" lon="8.4762509733213"><ele>416.0</ele><time>2026-04-06T09:35:14.999Z</time></trkpt><trkpt lat="44.420625737613896" lon="8.476327815375582"><ele>415.99999999999994</ele><time>2026-04-06T09:35:15.999Z</time></trkpt><trkpt lat="44.4205501834893" lon="8.476401092314763"><ele>416.0</ele><time>2026-04-06T09:35:16.999Z</time></trkpt><trkpt lat="44.4204612500219" lon="8.476443587984456"><ele>411.49999999999994</ele><time>2026-04-06T09:35:17.999Z</time></trkpt><trkpt lat="44.42037103367287" lon="8.47645850909238"><ele>407.0</ele><time>2026-04-06T09:35:18.999Z</time></trkpt><trkpt lat="44.42028282540808" lon="8.476481975754366"><ele>402.5</ele><time>2026-04-06T09:35:19.999Z</time></trkpt><trkpt lat="44.42020311186783" lon="8.476537935182922"><ele>398.0</ele><time>2026-04-06T09:35:20.999Z</time></trkpt><trkpt lat="44.42014467658198" lon="8.476627366204461"><ele>393.49999999999994</ele><time>2026-04-06T09:35:22.001Z</time></trkpt><trkpt lat="44.42012079937732" lon="8.476752377968369"><ele>389.0</ele><time>2026-04-06T09:35:23.001Z</time></trkpt><trkpt lat="44.42013299319621" lon="8.47688783364118"><ele>389.0</ele><time>2026-04-06T09:35:24.001Z</time></trkpt><trkpt lat="44.42016817142009" lon="8.477016036443162"><ele>389.0</ele><time>2026-04-06T09:35:25.001Z</time></trkpt><trkpt lat="44.420208574900975" lon="8.477131858696922"><ele>389.0</ele><time>2026-04-06T09:35:26.001Z</time></trkpt><trkpt lat="44.42025193880536" lon="8.477243762782958"><ele>389.0</ele><time>2026-04-06T09:35:27.001Z</time></trkpt><trkpt lat="44.4202966684028" lon="8.47735760655861"><ele>389.0</ele><time>2026-04-06T09:35:28.001Z</time></trkpt><trkpt lat="44.42033484907628" lon="8.477474340385337"><ele>389.8333333333333</ele><time>2026-04-06T09:35:29.001Z</time></trkpt><trkpt lat="44.42034611029634" lon="8.47759036291059"><ele>390.66666666666663</ele><time>2026-04-06T09:35:30.001Z</time></trkpt><trkpt lat="44.42031880897048" lon="8.477697735081188"><ele>391.5</ele><time>2026-04-06T09:35:31.001Z</time></trkpt><trkpt lat="44.42025177565679" lon="8.477780690111274"><ele>392.33333333333337</ele><time>2026-04-06T09:35:32.001Z</time></trkpt><trkpt lat="44.42016355071725" lon="8.477815593253405"><ele>393.1666666666667</ele><time>2026-04-06T09:35:33Z</time></trkpt><trkpt lat="44.42007071559367" lon="8.477820572515073"><ele>394.0</ele><time>2026-04-06T09:35:34Z</time></trkpt><trkpt lat="44.41997048878667" lon="8.477820619374485"><ele>394.0</ele><time>2026-04-06T09:35:35Z</time></trkpt><trkpt lat="44.419873743465736" lon="8.477833241059383"><ele>394.0</ele><time>2026-04-06T09:35:36Z</time></trkpt><trkpt lat="44.419781035288054" lon="8.47786197195262"><ele>394.0</ele><time>2026-04-06T09:35:37Z</time></trkpt><trkpt lat="44.419692359295084" lon="8.477924286794774"><ele>394.0</ele><time>2026-04-06T09:35:38Z</time></trkpt><trkpt lat="44.419621254138335" lon="8.478005013802951"><ele>394.0</ele><time>2026-04-06T09:35:39Z</time></trkpt><trkpt lat="44.41955249533743" lon="8.478092188819462"><ele>390.1666666666667</ele><time>2026-04-06T09:35:40Z</time></trkpt><trkpt lat="44.419491211281766" lon="8.478182428558931"><ele>386.33333333333337</ele><time>2026-04-06T09:35:41Z</time></trkpt><trkpt lat="44.4194551765067" lon="8.478287773030202"><ele>382.5</ele><time>2026-04-06T09:35:42Z</time></trkpt><trkpt lat="44.419451317135376" lon="8.478395522615406"><ele>378.6666666666667</ele><time>2026-04-06T09:35:43Z</time></trkpt><trkpt lat="44.41948101319298" lon="8.478499392505928"><ele>374.83333333333337</ele><time>2026-04-06T09:35:44Z</time></trkpt><trkpt lat="44.419539645600445" lon="8.478585704558368"><ele>371.0</ele><time>2026-04-06T09:35:45Z</time></trkpt><trkpt lat="44.419633900490766" lon="8.478652706724485"><ele>374.6666666666667</ele><time>2026-04-06T09:35:46Z</time></trkpt><trkpt lat="44.41976155122838" lon="8.478734791401914"><ele>378.3333333333333</ele><time>2026-04-06T09:35:47Z</time></trkpt><trkpt lat="44.41990448333274" lon="8.47885759368975"><ele>382.0</ele><time>2026-04-06T09:35:48Z</time></trkpt><trkpt lat="44.42002898400327" lon="8.47898620806784"><ele>382.0</ele><time>2026-04-06T09:35:49Z</time></trkpt><trkpt lat="44.42012426332287" lon="8.47909289838458"><ele>382.0</ele><time>2026-04-06T09:35:50Z</time></trkpt><trkpt lat="44.420221635969185" lon="8.479185560059745"><ele>382.0</ele><time>2026-04-06T09:35:51Z</time></trkpt><trkpt lat="44.42032107540614" lon="8.479264573161517"><ele>382.0</ele><time>2026-04-06T09:35:52Z</time></trkpt><trkpt lat="44.420414872138345" lon="8.479337216863165"><ele>383.16666666666663</ele><time>2026-04-06T09:35:53Z</time></trkpt><trkpt lat="44.420505319545164" lon="8.479404632939374"><ele>384.3333333333333</ele><time>2026-04-06T09:35:54Z</time></trkpt><trkpt lat="44.42058804868725" lon="8.479459691648719"><ele>385.5</ele><time>2026-04-06T09:35:55Z</time></trkpt><trkpt lat="44.42067351702482" lon="8.479484374116923"><ele>386.66666666666663</ele><time>2026-04-06T09:35:56Z</time></trkpt><trkpt lat="44.42076006755065" lon="8.479469146461327"><ele>387.8333333333333</ele><time>2026-04-06T09:35:57Z</time></trkpt><trkpt lat="44.420827213241026" lon="8.479423231704338"><ele>389.0</ele><time>2026-04-06T09:35:58Z</time></trkpt><trkpt lat="44.42088202575811" lon="8.479370375878455"><ele>389.0</ele><time>2026-04-06T09:35:59Z</time></trkpt><trkpt lat="44.42098286094041" lon="8.479292108589537"><ele>389.0</ele><time>2026-04-06T09:36:01Z</time></trkpt><trkpt lat="44.421089836890175" lon="8.479326246871649"><ele>389.0</ele><time>2026-04-06T09:36:03Z</time></trkpt><trkpt lat="44.421155899831945" lon="8.479467689663734"><ele>389.0</ele><time>2026-04-06T09:36:05Z</time></trkpt><trkpt lat="44.4211504195402" lon="8.4795569651385"><ele>389.0</ele><time>2026-04-06T09:36:06Z</time></trkpt><trkpt lat="44.421116930475904" lon="8.47963428806896"><ele>384.6</ele><time>2026-04-06T09:36:07Z</time></trkpt><trkpt lat="44.42104365670051" lon="8.47968494680249"><ele>380.2</ele><time>2026-04-06T09:36:08Z</time></trkpt><trkpt lat="44.4209522862929" lon="8.479675883281212"><ele>375.8</ele><time>2026-04-06T09:36:09Z</time></trkpt><trkpt lat="44.42085457973271" lon="8.479656787099156"><ele>371.40000000000003</ele><time>2026-04-06T09:36:10Z</time></trkpt><trkpt lat="44.42074086324015" lon="8.47966304842598"><ele>367.0</ele><time>2026-04-06T09:36:11Z</time></trkpt><trkpt lat="44.42061257528001" lon="8.47967291588774"><ele>367.0</ele><time>2026-04-06T09:36:12Z</time></trkpt><trkpt lat="44.42048696024337" lon="8.479653721467319"><ele>367.0</ele><time>2026-04-06T09:36:13Z</time></trkpt><trkpt lat="44.42036193871276" lon="8.47961297861675"><ele>367.0</ele><time>2026-04-06T09:36:14Z</time></trkpt><trkpt lat="44.42024486675996" lon="8.479554858240842"><ele>367.0</ele><time>2026-04-06T09:36:15Z</time></trkpt><trkpt lat="44.4201271874791" lon="8.47949359908281"><ele>365.75</ele><time>2026-04-06T09:36:16Z</time></trkpt><trkpt lat="44.4200042263617" lon="8.479426927893515"><ele>364.5</ele><time>2026-04-06T09:36:17Z</time></trkpt><trkpt lat="44.41988272641526" lon="8.479362771936474"><ele>363.25</ele><time>2026-04-06T09:36:18Z</time></trkpt><trkpt lat="44.41976432247031" lon="8.47930362299068"><ele>362.0</ele><time>2026-04-06T09:36:19Z</time></trkpt><trkpt lat="44.41964765745891" lon="8.479244946609324"><ele>362.0</ele><time>2026-04-06T09:36:20Z</time></trkpt><trkpt lat="44.41952863369887" lon="8.479192240945904"><ele>362.0</ele><time>2026-04-06T09:36:21Z</time></trkpt><trkpt lat="44.419410235953585" lon="8.479140216539824"><ele>362.0</ele><time>2026-04-06T09:36:22Z</time></trkpt><trkpt lat="44.41929444055469" lon="8.47909126155729"><ele>362.0</ele><time>2026-04-06T09:36:23Z</time></trkpt><trkpt lat="44.419184608862004" lon="8.47904207928933"><ele>362.0</ele><time>2026-04-06T09:36:23.999Z</time></trkpt><trkpt lat="44.41907982153248" lon="8.478986667025833"><ele>362.0</ele><time>2026-04-06T09:36:24.999Z</time></trkpt><trkpt lat="44.41899256251113" lon="8.478908873966288"><ele>362.0</ele><time>2026-04-06T09:36:25.999Z</time></trkpt><trkpt lat="44.4189337451024" lon="8.478804489136344"><ele>362.0</ele><time>2026-04-06T09:36:26.999Z</time></trkpt><trkpt lat="44.418903286867604" lon="8.478699217494112"><ele>362.0</ele><time>2026-04-06T09:36:27.999Z</time></trkpt><trkpt lat="44.41888795955595" lon="8.478606620178544"><ele>362.1666666666667</ele><time>2026-04-06T09:36:28.999Z</time></trkpt><trkpt lat="44.418872630297365" lon="8.478485867344759"><ele>362.33333333333337</ele><time>2026-04-06T09:36:30.999Z</time></trkpt><trkpt lat="44.41883962857795" lon="8.478397232846403"><ele>362.5</ele><time>2026-04-06T09:36:33.999Z</time></trkpt><trkpt lat="44.41873239989768" lon="8.478357568438481"><ele>362.6666666666667</ele><time>2026-04-06T09:36:36.999Z</time></trkpt><trkpt lat="44.418686523331196" lon="8.478420368682228"><ele>362.8333333333333</ele><time>2026-04-06T09:36:37.999Z</time></trkpt><trkpt lat="44.418678924142384" lon="8.47855079984913"><ele>363.0</ele><time>2026-04-06T09:36:39.999Z</time></trkpt><trkpt lat="44.41868390556849" lon="8.47864957616557"><ele>361.6666666666667</ele><time>2026-04-06T09:36:41.999Z</time></trkpt><trkpt lat="44.418694604419734" lon="8.478774760636266"><ele>360.3333333333333</ele><time>2026-04-06T09:36:44.999Z</time></trkpt><trkpt lat="44.418698621606744" lon="8.478879283086425"><ele>359.0</ele><time>2026-04-06T09:36:47.999Z</time></trkpt><trkpt lat="44.41870171249749" lon="8.478993767827257"><ele>357.66666666666663</ele><time>2026-04-06T09:37:07.999Z</time></trkpt><trkpt lat="44.418703162399815" lon="8.479167315150123"><ele>356.3333333333333</ele><time>2026-04-06T09:37:09.999Z</time></trkpt><trkpt lat="44.41868393216197" lon="8.47926033857179"><ele>355.0</ele><time>2026-04-06T09:37:10.999Z</time></trkpt><trkpt lat="44.418650969989756" lon="8.479396386670883"><ele>355.0</ele><time>2026-04-06T09:37:12.999Z</time></trkpt><trkpt lat="44.41862009445343" lon="8.479508416135776"><ele>355.0</ele><time>2026-04-06T09:37:14.999Z</time></trkpt><trkpt lat="44.418593167320715" lon="8.479605338994709"><ele>355.0</ele><time>2026-04-06T09:37:16.999Z</time></trkpt><trkpt lat="44.41855868018312" lon="8.479710227275271"><ele>355.0</ele><time>2026-04-06T09:37:18.999Z</time></trkpt><trkpt lat="44.418504239376105" lon="8.479805467095611"><ele>355.0</ele><time>2026-04-06T09:37:20.999Z</time></trkpt><trkpt lat="44.41843784112461" lon="8.479881639442475"><ele>355.0</ele><time>2026-04-06T09:37:22.999Z</time></trkpt><trkpt lat="44.41834510915948" lon="8.479977106953257"><ele>354.0</ele><time>2026-04-06T09:37:24.999Z</time></trkpt><trkpt lat="44.4182492465591" lon="8.480066512407141"><ele>353.0</ele><time>2026-04-06T09:37:26.999Z</time></trkpt><trkpt lat="44.41819648882595" lon="8.480117742544266"><ele>352.0</ele><time>2026-04-06T09:37:28Z</time></trkpt><trkpt lat="44.41808710134188" lon="8.480171589162172"><ele>351.0</ele><time>2026-04-06T09:37:30Z</time></trkpt><trkpt lat="44.41797109419709" lon="8.480234224835487"><ele>350.0</ele><time>2026-04-06T09:37:32Z</time></trkpt><trkpt lat="44.417911458534014" lon="8.480267219224404"><ele>350.0</ele><time>2026-04-06T09:37:33Z</time></trkpt><trkpt lat="44.41779949704157" lon="8.480348837059653"><ele>350.0</ele><time>2026-04-06T09:37:35Z</time></trkpt><trkpt lat="44.41774028745844" lon="8.480384824048317"><ele>350.0</ele><time>2026-04-06T09:37:36Z</time></trkpt><trkpt lat="44.41762748791934" lon="8.480463617705954"><ele>350.0</ele><time>2026-04-06T09:37:38Z</time></trkpt><trkpt lat="44.41756706683208" lon="8.48049407093459"><ele>350.0</ele><time>2026-04-06T09:37:39Z</time></trkpt><trkpt lat="44.417500544205275" lon="8.48054341716165"><ele>350.1666666666667</ele><time>2026-04-06T09:37:40Z</time></trkpt><trkpt lat="44.41743498606731" lon="8.480594017900925"><ele>350.33333333333337</ele><time>2026-04-06T09:37:41Z</time></trkpt><trkpt lat="44.41735706922912" lon="8.480632864467884"><ele>350.5</ele><time>2026-04-06T09:37:42Z</time></trkpt><trkpt lat="44.41729164838892" lon="8.480693059542832"><ele>350.6666666666667</ele><time>2026-04-06T09:37:43Z</time></trkpt><trkpt lat="44.417215663519706" lon="8.480746160946966"><ele>350.8333333333333</ele><time>2026-04-06T09:37:44Z</time></trkpt><trkpt lat="44.41714571403933" lon="8.480803435175966"><ele>351.0</ele><time>2026-04-06T09:37:45Z</time></trkpt><trkpt lat="44.417094857238396" lon="8.48088037722826"><ele>350.3333333333333</ele><time>2026-04-06T09:37:46Z</time></trkpt><trkpt lat="44.417049880211884" lon="8.480953175133003"><ele>349.6666666666667</ele><time>2026-04-06T09:37:47Z</time></trkpt><trkpt lat="44.416997069080566" lon="8.481021886575823"><ele>349.0</ele><time>2026-04-06T09:37:48Z</time></trkpt><trkpt lat="44.416940209373415" lon="8.481104074430876"><ele>348.33333333333337</ele><time>2026-04-06T09:37:49Z</time></trkpt><trkpt lat="44.41689032112502" lon="8.481196806201087"><ele>347.6666666666667</ele><time>2026-04-06T09:37:50Z</time></trkpt><trkpt lat="44.41683919133677" lon="8.481279931033852"><ele>347.0</ele><time>2026-04-06T09:37:51Z</time></trkpt><trkpt lat="44.41679754146689" lon="8.481380458129795"><ele>346.83333333333337</ele><time>2026-04-06T09:37:52Z</time></trkpt><trkpt lat="44.41675477756608" lon="8.481484725627025"><ele>346.6666666666667</ele><time>2026-04-06T09:37:53Z</time></trkpt><trkpt lat="44.41670608848604" lon="8.481580498091452"><ele>346.5</ele><time>2026-04-06T09:37:54Z</time></trkpt><trkpt lat="44.41664678375099" lon="8.481677910603647"><ele>346.3333333333333</ele><time>2026-04-06T09:37:55Z</time></trkpt><trkpt lat="44.41660521112722" lon="8.481785717310267"><ele>346.16666666666663</ele><time>2026-04-06T09:37:56Z</time></trkpt><trkpt lat="44.41655950633481" lon="8.481890432950435"><ele>346.0</ele><time>2026-04-06T09:37:57Z</time></trkpt><trkpt lat="44.41650949038586" lon="8.481990563598034"><ele>346.20000000000005</ele><time>2026-04-06T09:37:58Z</time></trkpt><trkpt lat="44.416456597163624" lon="8.482102271864324"><ele>346.40000000000003</ele><time>2026-04-06T09:37:59Z</time></trkpt><trkpt lat="44.416404754585976" lon="8.482210092358676"><ele>346.6</ele><time>2026-04-06T09:38:00Z</time></trkpt><trkpt lat="44.41634129070957" lon="8.482317659082245"><ele>346.8</ele><time>2026-04-06T09:38:01Z</time></trkpt><trkpt lat="44.416274245328225" lon="8.482417824600855"><ele>347.0</ele><time>2026-04-06T09:38:02Z</time></trkpt><trkpt lat="44.41619288231471" lon="8.482508266519625"><ele>346.20000000000005</ele><time>2026-04-06T09:38:03Z</time></trkpt><trkpt lat="44.41611303595805" lon="8.482585144129317"><ele>345.4</ele><time>2026-04-06T09:38:04Z</time></trkpt><trkpt lat="44.416038275338515" lon="8.482665413234466"><ele>344.6</ele><time>2026-04-06T09:38:05Z</time></trkpt><trkpt lat="44.41596625533449" lon="8.482747817720776"><ele>343.79999999999995</ele><time>2026-04-06T09:38:06Z</time></trkpt><trkpt lat="44.41589621242142" lon="8.4828194100237"><ele>343.0</ele><time>2026-04-06T09:38:07Z</time></trkpt><trkpt lat="44.41582243074454" lon="8.48289484320447"><ele>344.0</ele><time>2026-04-06T09:38:08Z</time></trkpt><trkpt lat="44.41574686195939" lon="8.482964293317954"><ele>345.0</ele><time>2026-04-06T09:38:09Z</time></trkpt><trkpt lat="44.415666864519615" lon="8.483038762750276"><ele>346.0</ele><time>2026-04-06T09:38:10Z</time></trkpt><trkpt lat="44.41559007242092" lon="8.483119514465844"><ele>347.0</ele><time>2026-04-06T09:38:11Z</time></trkpt><trkpt lat="44.4155203508028" lon="8.483175525887656"><ele>348.0</ele><time>2026-04-06T09:38:12Z</time></trkpt><trkpt lat="44.41544938478994" lon="8.483200136933426"><ele>349.0</ele><time>2026-04-06T09:38:13Z</time></trkpt><trkpt lat="44.4153712549626" lon="8.483206749270652"><ele>349.0</ele><time>2026-04-06T09:38:14Z</time></trkpt><trkpt lat="44.41528629804816" lon="8.483186652910641"><ele>349.0</ele><time>2026-04-06T09:38:15Z</time></trkpt><trkpt lat="44.415206352563935" lon="8.483139537552942"><ele>349.0</ele><time>2026-04-06T09:38:16Z</time></trkpt><trkpt lat="44.415135057055274" lon="8.483062074600374"><ele>349.0</ele><time>2026-04-06T09:38:17Z</time></trkpt><trkpt lat="44.41506033652021" lon="8.482997694847441"><ele>349.0</ele><time>2026-04-06T09:38:18Z</time></trkpt><trkpt lat="44.41498385390525" lon="8.482942238763679"><ele>349.0</ele><time>2026-04-06T09:38:18.999Z</time></trkpt><trkpt lat="44.41491874479002" lon="8.482904426907865"><ele>349.0</ele><time>2026-04-06T09:38:19.999Z</time></trkpt><trkpt lat="44.41483126245694" lon="8.482881100297137"><ele>349.0</ele><time>2026-04-06T09:38:21.999Z</time></trkpt><trkpt lat="44.414715961731574" lon="8.482896555595332"><ele>349.0</ele><time>2026-04-06T09:38:23.999Z</time></trkpt><trkpt lat="44.41459225432469" lon="8.482935068669068"><ele>349.0</ele><time>2026-04-06T09:38:25.999Z</time></trkpt><trkpt lat="44.41446056579714" lon="8.482978384546103"><ele>349.0</ele><time>2026-04-06T09:38:27.999Z</time></trkpt><trkpt lat="44.41439120700854" lon="8.482986448480428"><ele>349.0</ele><time>2026-04-06T09:38:28.999Z</time></trkpt><trkpt lat="44.4142659441649" lon="8.48299391868386"><ele>349.0</ele><time>2026-04-06T09:38:30.999Z</time></trkpt><trkpt lat="44.41419806667941" lon="8.483000212633469"><ele>349.0</ele><time>2026-04-06T09:38:31.999Z</time></trkpt><trkpt lat="44.41413131604446" lon="8.483005993475702"><ele>349.0</ele><time>2026-04-06T09:38:32.999Z</time></trkpt><trkpt lat="44.41400862224643" lon="8.483017552994438"><ele>348.99999999999994</ele><time>2026-04-06T09:38:34.999Z</time></trkpt><trkpt lat="44.413944010728684" lon="8.483037123017654"><ele>349.0</ele><time>2026-04-06T09:38:35.999Z</time></trkpt><trkpt lat="44.413876012302545" lon="8.483075372350648"><ele>349.0</ele><time>2026-04-06T09:38:36.999Z</time></trkpt><trkpt lat="44.41381247159439" lon="8.48312484783233"><ele>349.0</ele><time>2026-04-06T09:38:37.999Z</time></trkpt><trkpt lat="44.4137613468877" lon="8.483188913313466"><ele>349.0</ele><time>2026-04-06T09:38:38.999Z</time></trkpt><trkpt lat="44.413720594093064" lon="8.483265164172877"><ele>348.99999999999994</ele><time>2026-04-06T09:38:39.999Z</time></trkpt><trkpt lat="44.413690039836936" lon="8.483361312655722"><ele>349.0</ele><time>2026-04-06T09:38:40.999Z</time></trkpt><trkpt lat="44.413624872090956" lon="8.483495101131735"><ele>349.66666666666663</ele><time>2026-04-06T09:38:42.999Z</time></trkpt><trkpt lat="44.413581637547516" lon="8.483625204275196"><ele>350.3333333333333</ele><time>2026-04-06T09:38:44.999Z</time></trkpt><trkpt lat="44.41351775295621" lon="8.483763856560167"><ele>351.0</ele><time>2026-04-06T09:38:46.999Z</time></trkpt><trkpt lat="44.41348331366811" lon="8.483850156926486"><ele>351.6666666666667</ele><time>2026-04-06T09:38:47.999Z</time></trkpt><trkpt lat="44.41344922074004" lon="8.48394431433529"><ele>352.33333333333337</ele><time>2026-04-06T09:38:48.999Z</time></trkpt><trkpt lat="44.413404314268945" lon="8.484029199225079"><ele>353.0</ele><time>2026-04-06T09:38:49.999Z</time></trkpt><trkpt lat="44.413357374270355" lon="8.484105336857008"><ele>353.0</ele><time>2026-04-06T09:38:50.999Z</time></trkpt><trkpt lat="44.41330540412652" lon="8.48417443616449"><ele>353.0</ele><time>2026-04-06T09:38:51.999Z</time></trkpt><trkpt lat="44.41325427151686" lon="8.484230245254896"><ele>353.0</ele><time>2026-04-06T09:38:52.999Z</time></trkpt><trkpt lat="44.41319979271505" lon="8.484284148141544"><ele>353.0</ele><time>2026-04-06T09:38:53.999Z</time></trkpt><trkpt lat="44.41314312935844" lon="8.48432896208914"><ele>353.0</ele><time>2026-04-06T09:38:54.999Z</time></trkpt><trkpt lat="44.413084348346224" lon="8.484362583064256"><ele>353.0</ele><time>2026-04-06T09:38:55.999Z</time></trkpt><trkpt lat="44.412965867812744" lon="8.484396284759171"><ele>351.6666666666667</ele><time>2026-04-06T09:38:57.999Z</time></trkpt><trkpt lat="44.412888822862975" lon="8.484393206212088"><ele>350.33333333333337</ele><time>2026-04-06T09:38:58.999Z</time></trkpt><trkpt lat="44.41282466290703" lon="8.484365088951938"><ele>349.0</ele><time>2026-04-06T09:38:59.999Z</time></trkpt><trkpt lat="44.412759720301196" lon="8.48433791603988"><ele>347.6666666666667</ele><time>2026-04-06T09:39:00.999Z</time></trkpt><trkpt lat="44.412687287852016" lon="8.484298434999813"><ele>346.3333333333333</ele><time>2026-04-06T09:39:01.999Z</time></trkpt><trkpt lat="44.412615044314855" lon="8.484241668376356"><ele>345.0</ele><time>2026-04-06T09:39:02.999Z</time></trkpt><trkpt lat="44.412542769104135" lon="8.484176498398638"><ele>345.0</ele><time>2026-04-06T09:39:03.999Z</time></trkpt><trkpt lat="44.412459370837986" lon="8.484122558857074"><ele>345.0</ele><time>2026-04-06T09:39:04.999Z</time></trkpt><trkpt lat="44.412347560167376" lon="8.484080474610806"><ele>345.0</ele><time>2026-04-06T09:39:05.999Z</time></trkpt><trkpt lat="44.41224727706197" lon="8.484066643115462"><ele>345.0</ele><time>2026-04-06T09:39:06.999Z</time></trkpt><trkpt lat="44.41213652217664" lon="8.484078591964659"><ele>345.0</ele><time>2026-04-06T09:39:07.999Z</time></trkpt><trkpt lat="44.41204390650186" lon="8.484125992723612"><ele>343.25</ele><time>2026-04-06T09:39:08.999Z</time></trkpt><trkpt lat="44.4119279920836" lon="8.484173525103468"><ele>341.5</ele><time>2026-04-06T09:39:09.999Z</time></trkpt><trkpt lat="44.41181350353717" lon="8.484219038478104"><ele>339.75</ele><time>2026-04-06T09:39:10.999Z</time></trkpt><trkpt lat="44.41167357984986" lon="8.484232879879942"><ele>338.0</ele><time>2026-04-06T09:39:11.999Z</time></trkpt><trkpt lat="44.41156520022109" lon="8.484242840903491"><ele>338.0</ele><time>2026-04-06T09:39:12.999Z</time></trkpt><trkpt lat="44.41147287263236" lon="8.484274661200363"><ele>338.0</ele><time>2026-04-06T09:39:13.999Z</time></trkpt><trkpt lat="44.41137548143525" lon="8.484282331988222"><ele>338.0</ele><time>2026-04-06T09:39:14.999Z</time></trkpt><trkpt lat="44.41126442652658" lon="8.484263720461628"><ele>338.0</ele><time>2026-04-06T09:39:15.999Z</time></trkpt><trkpt lat="44.411142348377794" lon="8.484193902805343"><ele>338.0</ele><time>2026-04-06T09:39:16.999Z</time></trkpt><trkpt lat="44.411021732676645" lon="8.484115065390567"><ele>339.5</ele><time>2026-04-06T09:39:17.999Z</time></trkpt><trkpt lat="44.41091003779399" lon="8.48403641972126"><ele>341.0</ele><time>2026-04-06T09:39:18.998Z</time></trkpt><trkpt lat="44.41081416767225" lon="8.483953231767734"><ele>342.5</ele><time>2026-04-06T09:39:19.998Z</time></trkpt><trkpt lat="44.4107213647434" lon="8.483853660371027"><ele>344.0</ele><time>2026-04-06T09:39:20.998Z</time></trkpt><trkpt lat="44.41063738722015" lon="8.483767503250291"><ele>342.6</ele><time>2026-04-06T09:39:21.998Z</time></trkpt><trkpt lat="44.41054473145316" lon="8.483721201680087"><ele>341.2</ele><time>2026-04-06T09:39:22.998Z</time></trkpt><trkpt lat="44.410438082499184" lon="8.483725531870624"><ele>339.8</ele><time>2026-04-06T09:39:23.998Z</time></trkpt><trkpt lat="44.41033630533802" lon="8.483795112379605"><ele>338.40000000000003</ele><time>2026-04-06T09:39:24.998Z</time></trkpt><trkpt lat="44.410262587091296" lon="8.483910297674443"><ele>337.0</ele><time>2026-04-06T09:39:25.998Z</time></trkpt><trkpt lat="44.41019406780008" lon="8.484032892724745"><ele>337.0</ele><time>2026-04-06T09:39:26.998Z</time></trkpt><trkpt lat="44.41011079989585" lon="8.484129086364666"><ele>337.0</ele><time>2026-04-06T09:39:27.998Z</time></trkpt><trkpt lat="44.41001400700591" lon="8.484189087508021"><ele>337.0</ele><time>2026-04-06T09:39:28.998Z</time></trkpt><trkpt lat="44.40991138041337" lon="8.484243677219883"><ele>337.0</ele><time>2026-04-06T09:39:29.998Z</time></trkpt><trkpt lat="44.40981210410907" lon="8.484276248307237"><ele>337.0</ele><time>2026-04-06T09:39:30.998Z</time></trkpt><trkpt lat="44.40971199679324" lon="8.484302890636046"><ele>336.8</ele><time>2026-04-06T09:39:31.998Z</time></trkpt><trkpt lat="44.4096231352981" lon="8.484368538921045"><ele>336.6</ele><time>2026-04-06T09:39:32.998Z</time></trkpt><trkpt lat="44.40955594983985" lon="8.48444781055067"><ele>336.40000000000003</ele><time>2026-04-06T09:39:34Z</time></trkpt><trkpt lat="44.409514690537925" lon="8.484539987046624"><ele>336.20000000000005</ele><time>2026-04-06T09:39:35Z</time></trkpt><trkpt lat="44.409480436986414" lon="8.484694094248308"><ele>336.0</ele><time>2026-04-06T09:39:37Z</time></trkpt><trkpt lat="44.409442247056965" lon="8.484788383010294"><ele>336.0</ele><time>2026-04-06T09:39:38Z</time></trkpt><trkpt lat="44.4093832411117" lon="8.484869570736324"><ele>336.0</ele><time>2026-04-06T09:39:39Z</time></trkpt><trkpt lat="44.40930524991732" lon="8.484950834898354"><ele>336.0</ele><time>2026-04-06T09:39:40Z</time></trkpt><trkpt lat="44.4092040259526" lon="8.48499599843314"><ele>336.0</ele><time>2026-04-06T09:39:41Z</time></trkpt><trkpt lat="44.40910509435489" lon="8.485011821186594"><ele>336.0</ele><time>2026-04-06T09:39:42Z</time></trkpt><trkpt lat="44.4090141014974" lon="8.485000209167865"><ele>336.0</ele><time>2026-04-06T09:39:43Z</time></trkpt><trkpt lat="44.40892493658452" lon="8.484976002577488"><ele>336.0</ele><time>2026-04-06T09:39:44Z</time></trkpt><trkpt lat="44.408835756936355" lon="8.484970971217148"><ele>336.0</ele><time>2026-04-06T09:39:45Z</time></trkpt><trkpt lat="44.40874789975736" lon="8.484994759835462"><ele>336.0</ele><time>2026-04-06T09:39:46Z</time></trkpt><trkpt lat="44.40867187759159" lon="8.485042821242951"><ele>336.0</ele><time>2026-04-06T09:39:47Z</time></trkpt><trkpt lat="44.40861388451524" lon="8.485130870906946"><ele>336.0</ele><time>2026-04-06T09:39:48Z</time></trkpt><trkpt lat="44.40858087158002" lon="8.48524762083326"><ele>332.6666666666667</ele><time>2026-04-06T09:39:49Z</time></trkpt><trkpt lat="44.40857014931406" lon="8.485375652424656"><ele>329.3333333333333</ele><time>2026-04-06T09:39:50Z</time></trkpt><trkpt lat="44.408568344145436" lon="8.48549823003084"><ele>326.0</ele><time>2026-04-06T09:39:51Z</time></trkpt><trkpt lat="44.408579168297415" lon="8.485612122899193"><ele>322.66666666666663</ele><time>2026-04-06T09:39:52Z</time></trkpt><trkpt lat="44.408597970329446" lon="8.485704521318292"><ele>319.3333333333333</ele><time>2026-04-06T09:39:53Z</time></trkpt><trkpt lat="44.408633651475675" lon="8.485783990807889"><ele>316.0</ele><time>2026-04-06T09:39:54Z</time></trkpt><trkpt lat="44.408687511163215" lon="8.485855537721624"><ele>316.0</ele><time>2026-04-06T09:39:55Z</time></trkpt><trkpt lat="44.40878155145386" lon="8.485939803460576"><ele>316.0</ele><time>2026-04-06T09:39:57Z</time></trkpt><trkpt lat="44.408835306923834" lon="8.486079869593626"><ele>316.0</ele><time>2026-04-06T09:39:59Z</time></trkpt><trkpt lat="44.40882024430276" lon="8.486180247886885"><ele>316.0</ele><time>2026-04-06T09:40:00Z</time></trkpt><trkpt lat="44.40876793408196" lon="8.48626485951068"><ele>316.0</ele><time>2026-04-06T09:40:01Z</time></trkpt><trkpt lat="44.40869967307983" lon="8.486346797118733"><ele>317.4</ele><time>2026-04-06T09:40:02Z</time></trkpt><trkpt lat="44.40862736584697" lon="8.486444274794861"><ele>318.8</ele><time>2026-04-06T09:40:03Z</time></trkpt><trkpt lat="44.408573619018455" lon="8.486557607544285"><ele>320.2</ele><time>2026-04-06T09:40:04Z</time></trkpt><trkpt lat="44.40852271964694" lon="8.4866995728318"><ele>321.59999999999997</ele><time>2026-04-06T09:40:05Z</time></trkpt><trkpt lat="44.40848180541193" lon="8.486829735708728"><ele>323.0</ele><time>2026-04-06T09:40:06Z</time></trkpt><trkpt lat="44.408449258255956" lon="8.486935432435189"><ele>323.0</ele><time>2026-04-06T09:40:07Z</time></trkpt><trkpt lat="44.40841866177415" lon="8.48707571449916"><ele>323.0</ele><time>2026-04-06T09:40:08Z</time></trkpt><trkpt lat="44.408381297461" lon="8.487238543301096"><ele>323.0</ele><time>2026-04-06T09:40:09Z</time></trkpt><trkpt lat="44.40832817074836" lon="8.487395565412978"><ele>323.0</ele><time>2026-04-06T09:40:10Z</time></trkpt><trkpt lat="44.40827493995322" lon="8.487534402394934"><ele>325.4</ele><time>2026-04-06T09:40:11Z</time></trkpt><trkpt lat="44.40823649549036" lon="8.487668627739904"><ele>327.79999999999995</ele><time>2026-04-06T09:40:12Z</time></trkpt><trkpt lat="44.40821384260783" lon="8.487806003745407"><ele>330.2</ele><time>2026-04-06T09:40:13Z</time></trkpt><trkpt lat="44.408219475379944" lon="8.487948401064505"><ele>332.6</ele><time>2026-04-06T09:40:14Z</time></trkpt><trkpt lat="44.408249594820404" lon="8.48808793249416"><ele>335.0</ele><time>2026-04-06T09:40:15Z</time></trkpt><trkpt lat="44.40825114746483" lon="8.488229191973064"><ele>335.8</ele><time>2026-04-06T09:40:16Z</time></trkpt><trkpt lat="44.40819471201358" lon="8.488312628817129"><ele>336.6</ele><time>2026-04-06T09:40:17Z</time></trkpt><trkpt lat="44.40811029521628" lon="8.488351064227333"><ele>337.4</ele><time>2026-04-06T09:40:18Z</time></trkpt><trkpt lat="44.40800126679692" lon="8.488352500588741"><ele>338.2</ele><time>2026-04-06T09:40:18.999Z</time></trkpt><trkpt lat="44.407895358344376" lon="8.488373757983089"><ele>339.0</ele><time>2026-04-06T09:40:19.999Z</time></trkpt><trkpt lat="44.407790001914705" lon="8.488435104044527"><ele>338.75</ele><time>2026-04-06T09:40:20.999Z</time></trkpt><trkpt lat="44.40768784366153" lon="8.48852190754732"><ele>338.5</ele><time>2026-04-06T09:40:21.999Z</time></trkpt><trkpt lat="44.40758642557897" lon="8.488623414834262"><ele>338.25</ele><time>2026-04-06T09:40:22.999Z</time></trkpt><trkpt lat="44.4074827342293" lon="8.488711901796252"><ele>338.0</ele><time>2026-04-06T09:40:23.999Z</time></trkpt><trkpt lat="44.407377895642135" lon="8.48880349838172"><ele>338.0</ele><time>2026-04-06T09:40:24.999Z</time></trkpt><trkpt lat="44.407278723627144" lon="8.488903592077849"><ele>338.0</ele><time>2026-04-06T09:40:25.999Z</time></trkpt><trkpt lat="44.40719194639828" lon="8.489020309388842"><ele>338.0</ele><time>2026-04-06T09:40:26.999Z</time></trkpt><trkpt lat="44.40711768313648" lon="8.489146624264608"><ele>338.0</ele><time>2026-04-06T09:40:27.999Z</time></trkpt><trkpt lat="44.407050032774045" lon="8.48928809576992"><ele>335.5</ele><time>2026-04-06T09:40:28.999Z</time></trkpt><trkpt lat="44.406983379345355" lon="8.489428123834218"><ele>333.0</ele><time>2026-04-06T09:40:29.999Z</time></trkpt><trkpt lat="44.40692025709244" lon="8.489561914197822"><ele>330.5</ele><time>2026-04-06T09:40:30.999Z</time></trkpt><trkpt lat="44.40685203790467" lon="8.489698442236135"><ele>328.0</ele><time>2026-04-06T09:40:31.999Z</time></trkpt><trkpt lat="44.40678316893718" lon="8.489833389259427"><ele>328.0</ele><time>2026-04-06T09:40:32.999Z</time></trkpt><trkpt lat="44.40670586233221" lon="8.48997331859902"><ele>328.0</ele><time>2026-04-06T09:40:33.999Z</time></trkpt><trkpt lat="44.40662533130706" lon="8.490109581183923"><ele>328.0</ele><time>2026-04-06T09:40:34.999Z</time></trkpt><trkpt lat="44.40653156224392" lon="8.490229825422876"><ele>328.0</ele><time>2026-04-06T09:40:35.999Z</time></trkpt><trkpt lat="44.406424579846316" lon="8.49032718237927"><ele>328.75</ele><time>2026-04-06T09:40:36.999Z</time></trkpt><trkpt lat="44.40630484813696" lon="8.490379673280163"><ele>329.5</ele><time>2026-04-06T09:40:37.999Z</time></trkpt><trkpt lat="44.4061882270702" lon="8.490399356372006"><ele>330.25</ele><time>2026-04-06T09:40:38.999Z</time></trkpt><trkpt lat="44.4060608001421" lon="8.490423999714597"><ele>331.0</ele><time>2026-04-06T09:40:39.999Z</time></trkpt><trkpt lat="44.405933658750705" lon="8.490426050661021"><ele>328.0</ele><time>2026-04-06T09:40:40.999Z</time></trkpt><trkpt lat="44.4058145033866" lon="8.490395667886162"><ele>325.0</ele><time>2026-04-06T09:40:41.999Z</time></trkpt><trkpt lat="44.405694964892405" lon="8.490346415634031"><ele>322.0</ele><time>2026-04-06T09:40:42.999Z</time></trkpt><trkpt lat="44.405575184565585" lon="8.490295942483217"><ele>319.0</ele><time>2026-04-06T09:40:43.999Z</time></trkpt><trkpt lat="44.40545404170125" lon="8.490251874415664"><ele>318.75</ele><time>2026-04-06T09:40:44.999Z</time></trkpt><trkpt lat="44.40533385402136" lon="8.490196743967948"><ele>318.5</ele><time>2026-04-06T09:40:45.999Z</time></trkpt><trkpt lat="44.405216008022315" lon="8.490136540393989"><ele>318.25</ele><time>2026-04-06T09:40:46.999Z</time></trkpt><trkpt lat="44.40509984798325" lon="8.490075413352862"><ele>318.0</ele><time>2026-04-06T09:40:47.999Z</time></trkpt><trkpt lat="44.40498489620034" lon="8.490015727619715"><ele>318.0</ele><time>2026-04-06T09:40:48.999Z</time></trkpt><trkpt lat="44.404878754091776" lon="8.489960224815984"><ele>318.0</ele><time>2026-04-06T09:40:49.999Z</time></trkpt><trkpt lat="44.40477922263201" lon="8.489911839607002"><ele>318.0</ele><time>2026-04-06T09:40:50.999Z</time></trkpt><trkpt lat="44.40468389493809" lon="8.489868909756506"><ele>318.0</ele><time>2026-04-06T09:40:51.999Z</time></trkpt><trkpt lat="44.40459832532924" lon="8.489827979474363"><ele>318.0</ele><time>2026-04-06T09:40:52.999Z</time></trkpt><trkpt lat="44.40452442589563" lon="8.489790179064789"><ele>319.5</ele><time>2026-04-06T09:40:53.999Z</time></trkpt><trkpt lat="44.404458396810355" lon="8.48975028576821"><ele>321.0</ele><time>2026-04-06T09:40:54.999Z</time></trkpt><trkpt lat="44.404396673417786" lon="8.489718008119821"><ele>322.5</ele><time>2026-04-06T09:40:55.999Z</time></trkpt><trkpt lat="44.40433134476705" lon="8.489685555069217"><ele>324.0</ele><time>2026-04-06T09:40:56.999Z</time></trkpt><trkpt lat="44.40426724723828" lon="8.489663412312932"><ele>325.5</ele><time>2026-04-06T09:40:57.999Z</time></trkpt><trkpt lat="44.40416546825652" lon="8.489734424752417"><ele>327.0</ele><time>2026-04-06T09:40:59.999Z</time></trkpt><trkpt lat="44.404151426329705" lon="8.489830220013562"><ele>327.0</ele><time>2026-04-06T09:41:00.999Z</time></trkpt><trkpt lat="44.40415468711164" lon="8.489951320875454"><ele>327.0</ele><time>2026-04-06T09:41:01.999Z</time></trkpt><trkpt lat="44.40415954274443" lon="8.490059401267569"><ele>327.0</ele><time>2026-04-06T09:41:02.999Z</time></trkpt><trkpt lat="44.40411490512132" lon="8.490125265707498"><ele>327.0</ele><time>2026-04-06T09:41:03.999Z</time></trkpt><trkpt lat="44.40403523500969" lon="8.490122909744459"><ele>327.0</ele><time>2026-04-06T09:41:04.999Z</time></trkpt><trkpt lat="44.40395867917167" lon="8.490071654065765"><ele>327.0</ele><time>2026-04-06T09:41:05.999Z</time></trkpt><trkpt lat="44.40388444784295" lon="8.489952946532098"><ele>329.0</ele><time>2026-04-06T09:41:06.999Z</time></trkpt><trkpt lat="44.40381167466986" lon="8.489815019793001"><ele>331.0</ele><time>2026-04-06T09:41:07.999Z</time></trkpt><trkpt lat="44.40371836591794" lon="8.489681134728771"><ele>333.0</ele><time>2026-04-06T09:41:08.999Z</time></trkpt><trkpt lat="44.403625926611674" lon="8.489588699346955"><ele>335.0</ele><time>2026-04-06T09:41:09.999Z</time></trkpt><trkpt lat="44.40351932293718" lon="8.489527990855525"><ele>330.5</ele><time>2026-04-06T09:41:10.999Z</time></trkpt><trkpt lat="44.40338948848534" lon="8.489488732574998"><ele>326.0</ele><time>2026-04-06T09:41:11.999Z</time></trkpt><trkpt lat="44.40325197604825" lon="8.489460635002873"><ele>321.5</ele><time>2026-04-06T09:41:12.999Z</time></trkpt><trkpt lat="44.40311981772347" lon="8.489440789995031"><ele>317.0</ele><time>2026-04-06T09:41:13.999Z</time></trkpt><trkpt lat="44.402987729937244" lon="8.48942802782926"><ele>315.0</ele><time>2026-04-06T09:41:14.999Z</time></trkpt><trkpt lat="44.402863453607885" lon="8.489425279559923"><ele>313.0</ele><time>2026-04-06T09:41:15.999Z</time></trkpt><trkpt lat="44.40274377050968" lon="8.489483579874758"><ele>311.0</ele><time>2026-04-06T09:41:16.999Z</time></trkpt><trkpt lat="44.402635966090024" lon="8.489610308334694"><ele>309.0</ele><time>2026-04-06T09:41:17.999Z</time></trkpt><trkpt lat="44.402532450455176" lon="8.489746491971037"><ele>313.5</ele><time>2026-04-06T09:41:18.999Z</time></trkpt><trkpt lat="44.40242847251597" lon="8.489870334236564"><ele>318.0</ele><time>2026-04-06T09:41:19.998Z</time></trkpt><trkpt lat="44.402331502968565" lon="8.489994126071565"><ele>322.5</ele><time>2026-04-06T09:41:20.998Z</time></trkpt><trkpt lat="44.402244627664494" lon="8.490134137057662"><ele>327.0</ele><time>2026-04-06T09:41:21.998Z</time></trkpt><trkpt lat="44.402183532452604" lon="8.490293534877377"><ele>324.75</ele><time>2026-04-06T09:41:22.998Z</time></trkpt><trkpt lat="44.40215236732019" lon="8.490453888321104"><ele>322.5</ele><time>2026-04-06T09:41:23.998Z</time></trkpt><trkpt lat="44.40211622644601" lon="8.490594314871002"><ele>320.25</ele><time>2026-04-06T09:41:24.998Z</time></trkpt><trkpt lat="44.40202248004378" lon="8.49070364577906"><ele>318.0</ele><time>2026-04-06T09:41:25.998Z</time></trkpt><trkpt lat="44.40188698226218" lon="8.490768969207043"><ele>318.0</ele><time>2026-04-06T09:41:26.998Z</time></trkpt><trkpt lat="44.40176876250073" lon="8.490823573195732"><ele>318.0</ele><time>2026-04-06T09:41:27.998Z</time></trkpt><trkpt lat="44.40169803120289" lon="8.490972283097046"><ele>318.0</ele><time>2026-04-06T09:41:28.998Z</time></trkpt><trkpt lat="44.40166700386652" lon="8.491173689606198"><ele>318.0</ele><time>2026-04-06T09:41:29.998Z</time></trkpt><trkpt lat="44.40167999205508" lon="8.491366301544526"><ele>321.75</ele><time>2026-04-06T09:41:30.998Z</time></trkpt><trkpt lat="44.40171853638233" lon="8.491535712849965"><ele>325.5</ele><time>2026-04-06T09:41:31.998Z</time></trkpt><trkpt lat="44.40173559751087" lon="8.49168409346438"><ele>329.25</ele><time>2026-04-06T09:41:32.998Z</time></trkpt><trkpt lat="44.40167266389991" lon="8.491829321656033"><ele>333.0</ele><time>2026-04-06T09:41:33.998Z</time></trkpt><trkpt lat="44.40157686751343" lon="8.4919591699035"><ele>329.75</ele><time>2026-04-06T09:41:34.998Z</time></trkpt><trkpt lat="44.401461904004776" lon="8.492101849176413"><ele>326.5</ele><time>2026-04-06T09:41:35.998Z</time></trkpt><trkpt lat="44.40137132626377" lon="8.492249570210427"><ele>323.25</ele><time>2026-04-06T09:41:36.998Z</time></trkpt><trkpt lat="44.401303177957466" lon="8.492434064720628"><ele>320.0</ele><time>2026-04-06T09:41:37.998Z</time></trkpt><trkpt lat="44.4012366322838" lon="8.49261063368824"><ele>320.0</ele><time>2026-04-06T09:41:38.998Z</time></trkpt><trkpt lat="44.40114946424479" lon="8.492739324455071"><ele>320.0</ele><time>2026-04-06T09:41:40Z</time></trkpt><trkpt lat="44.40107898979576" lon="8.49290560606667"><ele>320.0</ele><time>2026-04-06T09:41:41Z</time></trkpt><trkpt lat="44.40104478535026" lon="8.493081173790383"><ele>320.0</ele><time>2026-04-06T09:41:42Z</time></trkpt><trkpt lat="44.401048838623865" lon="8.493289077627638"><ele>325.0</ele><time>2026-04-06T09:41:43Z</time></trkpt><trkpt lat="44.40102235001649" lon="8.493477059888873"><ele>330.0</ele><time>2026-04-06T09:41:44Z</time></trkpt><trkpt lat="44.4009789469678" lon="8.493641768342211"><ele>335.0</ele><time>2026-04-06T09:41:45Z</time></trkpt><trkpt lat="44.40091442602828" lon="8.493790218597606"><ele>340.0</ele><time>2026-04-06T09:41:46Z</time></trkpt><trkpt lat="44.400835040079095" lon="8.493906151568723"><ele>340.2</ele><time>2026-04-06T09:41:47Z</time></trkpt><trkpt lat="44.400750311015194" lon="8.493985870779827"><ele>340.4</ele><time>2026-04-06T09:41:48Z</time></trkpt><trkpt lat="44.40066921104541" lon="8.493989092811992"><ele>340.6</ele><time>2026-04-06T09:41:49Z</time></trkpt><trkpt lat="44.400598311815926" lon="8.493929481914254"><ele>340.8</ele><time>2026-04-06T09:41:50Z</time></trkpt><trkpt lat="44.400518368577536" lon="8.49380152437759"><ele>341.0</ele><time>2026-04-06T09:41:51Z</time></trkpt><trkpt lat="44.400413642454055" lon="8.49365028351055"><ele>341.0</ele><time>2026-04-06T09:41:52Z</time></trkpt><trkpt lat="44.400313001388376" lon="8.49355111954012"><ele>341.0</ele><time>2026-04-06T09:41:53Z</time></trkpt><trkpt lat="44.400226125533266" lon="8.493502354285857"><ele>341.0</ele><time>2026-04-06T09:41:54Z</time></trkpt><trkpt lat="44.4001150071763" lon="8.4934144679484"><ele>341.0</ele><time>2026-04-06T09:41:55Z</time></trkpt><trkpt lat="44.40000313106524" lon="8.493352428928402"><ele>341.0</ele><time>2026-04-06T09:41:56Z</time></trkpt><trkpt lat="44.39988770922727" lon="8.49333556557234"><ele>341.0</ele><time>2026-04-06T09:41:57Z</time></trkpt><trkpt lat="44.3997499730158" lon="8.49339076632492"><ele>341.0</ele><time>2026-04-06T09:41:58Z</time></trkpt><trkpt lat="44.39963617042541" lon="8.493479417446588"><ele>341.0</ele><time>2026-04-06T09:41:59Z</time></trkpt><trkpt lat="44.399534003454306" lon="8.49357747977907"><ele>340.75</ele><time>2026-04-06T09:42:00Z</time></trkpt><trkpt lat="44.399459145730596" lon="8.493697485396611"><ele>340.5</ele><time>2026-04-06T09:42:01Z</time></trkpt><trkpt lat="44.39942836243479" lon="8.49386510657576"><ele>340.25</ele><time>2026-04-06T09:42:02Z</time></trkpt><trkpt lat="44.39936795587416" lon="8.49400918277466"><ele>340.0</ele><time>2026-04-06T09:42:03Z</time></trkpt><trkpt lat="44.39934750285548" lon="8.494206739556386"><ele>340.0</ele><time>2026-04-06T09:42:04Z</time></trkpt><trkpt lat="44.399266088877646" lon="8.494366494439761"><ele>340.0</ele><time>2026-04-06T09:42:05Z</time></trkpt><trkpt lat="44.399156765659335" lon="8.494496770862742"><ele>340.0</ele><time>2026-04-06T09:42:06Z</time></trkpt><trkpt lat="44.39907023790385" lon="8.494631642639858"><ele>340.0</ele><time>2026-04-06T09:42:07Z</time></trkpt><trkpt lat="44.399033688309046" lon="8.494818335489198"><ele>341.5</ele><time>2026-04-06T09:42:08Z</time></trkpt><trkpt lat="44.39905341803846" lon="8.49500900578283"><ele>343.0</ele><time>2026-04-06T09:42:09Z</time></trkpt><trkpt lat="44.39912214924647" lon="8.495167738258507"><ele>344.5</ele><time>2026-04-06T09:42:10Z</time></trkpt><trkpt lat="44.39918365757029" lon="8.495306157636026"><ele>346.0</ele><time>2026-04-06T09:42:11Z</time></trkpt><trkpt lat="44.39917921852536" lon="8.49544264125863"><ele>347.5</ele><time>2026-04-06T09:42:12Z</time></trkpt><trkpt lat="44.39910924665747" lon="8.495580823829016"><ele>349.0</ele><time>2026-04-06T09:42:13Z</time></trkpt><trkpt lat="44.399008459193354" lon="8.495704107679837"><ele>350.5</ele><time>2026-04-06T09:42:14Z</time></trkpt><trkpt lat="44.39891694291953" lon="8.495829269583831"><ele>352.0</ele><time>2026-04-06T09:42:15Z</time></trkpt><trkpt lat="44.39886972449957" lon="8.496000659432129"><ele>352.0</ele><time>2026-04-06T09:42:16Z</time></trkpt><trkpt lat="44.398874966178745" lon="8.496200923184158"><ele>352.0</ele><time>2026-04-06T09:42:17Z</time></trkpt><trkpt lat="44.398906072843374" lon="8.496410569649743"><ele>352.0</ele><time>2026-04-06T09:42:18Z</time></trkpt><trkpt lat="44.39896115771427" lon="8.496618836320938"><ele>353.5</ele><time>2026-04-06T09:42:19Z</time></trkpt><trkpt lat="44.39899076658036" lon="8.496807988839663"><ele>355.0</ele><time>2026-04-06T09:42:20Z</time></trkpt><trkpt lat="44.399009710464426" lon="8.496983491366207"><ele>356.5</ele><time>2026-04-06T09:42:21Z</time></trkpt><trkpt lat="44.399018092745784" lon="8.497141608768713"><ele>358.0</ele><time>2026-04-06T09:42:21.999Z</time></trkpt><trkpt lat="44.39898274180982" lon="8.497281841411175"><ele>359.0</ele><time>2026-04-06T09:42:22.999Z</time></trkpt><trkpt lat="44.398908698958536" lon="8.497382003911266"><ele>360.0</ele><time>2026-04-06T09:42:23.999Z</time></trkpt><trkpt lat="44.39878773151638" lon="8.497434084541089"><ele>361.0</ele><time>2026-04-06T09:42:24.999Z</time></trkpt><trkpt lat="44.39862026641632" lon="8.497421467259556"><ele>362.0</ele><time>2026-04-06T09:42:25.999Z</time></trkpt><trkpt lat="44.39850787772483" lon="8.497491252999303"><ele>357.5</ele><time>2026-04-06T09:42:26.999Z</time></trkpt><trkpt lat="44.398417465668444" lon="8.497629311664976"><ele>353.0</ele><time>2026-04-06T09:42:27.999Z</time></trkpt><trkpt lat="44.39833604889836" lon="8.497756790539656"><ele>348.5</ele><time>2026-04-06T09:42:28.999Z</time></trkpt><trkpt lat="44.39821976800534" lon="8.497819688977051"><ele>344.0</ele><time>2026-04-06T09:42:29.999Z</time></trkpt><trkpt lat="44.398073308613725" lon="8.497836005132045"><ele>346.25</ele><time>2026-04-06T09:42:30.999Z</time></trkpt><trkpt lat="44.397931805561925" lon="8.497870599651508"><ele>348.5</ele><time>2026-04-06T09:42:31.999Z</time></trkpt><trkpt lat="44.39780946592477" lon="8.497923293927531"><ele>350.75</ele><time>2026-04-06T09:42:32.999Z</time></trkpt><trkpt lat="44.39769147566285" lon="8.497994608743975"><ele>353.0</ele><time>2026-04-06T09:42:33.999Z</time></trkpt><trkpt lat="44.39758491017778" lon="8.498108316197898"><ele>353.0</ele><time>2026-04-06T09:42:34.999Z</time></trkpt><trkpt lat="44.39749003568485" lon="8.498246408612294"><ele>353.0</ele><time>2026-04-06T09:42:35.999Z</time></trkpt><trkpt lat="44.39739695195425" lon="8.498386162603252"><ele>353.0</ele><time>2026-04-06T09:42:36.999Z</time></trkpt><trkpt lat="44.3973134523179" lon="8.49854007424907"><ele>353.0</ele><time>2026-04-06T09:42:37.999Z</time></trkpt><trkpt lat="44.397243219638284" lon="8.49870773222078"><ele>350.25</ele><time>2026-04-06T09:42:38.999Z</time></trkpt><trkpt lat="44.39717848977702" lon="8.498876716867173"><ele>347.5</ele><time>2026-04-06T09:42:39.999Z</time></trkpt><trkpt lat="44.39713169397751" lon="8.499045519480308"><ele>344.75</ele><time>2026-04-06T09:42:40.999Z</time></trkpt><trkpt lat="44.397078895292985" lon="8.499210893378974"><ele>342.0</ele><time>2026-04-06T09:42:41.999Z</time></trkpt><trkpt lat="44.39699196884891" lon="8.499335654180102"><ele>342.0</ele><time>2026-04-06T09:42:42.999Z</time></trkpt><trkpt lat="44.39687791274237" lon="8.4994177249465"><ele>342.0</ele><time>2026-04-06T09:42:43.999Z</time></trkpt><trkpt lat="44.396747602721554" lon="8.499466091596856"><ele>342.0</ele><time>2026-04-06T09:42:44.999Z</time></trkpt><trkpt lat="44.39661520778642" lon="8.499486947880142"><ele>342.0</ele><time>2026-04-06T09:42:45.999Z</time></trkpt><trkpt lat="44.39649104565847" lon="8.499542847853604"><ele>341.25</ele><time>2026-04-06T09:42:46.999Z</time></trkpt><trkpt lat="44.396376648497615" lon="8.499650317325411"><ele>340.5</ele><time>2026-04-06T09:42:47.999Z</time></trkpt><trkpt lat="44.39630682944383" lon="8.499829352182347"><ele>339.75</ele><time>2026-04-06T09:42:48.999Z</time></trkpt><trkpt lat="44.396242894616876" lon="8.50000609148936"><ele>339.0</ele><time>2026-04-06T09:42:49.999Z</time></trkpt><trkpt lat="44.39617326471667" lon="8.50018389313478"><ele>339.0</ele><time>2026-04-06T09:42:50.999Z</time></trkpt><trkpt lat="44.39610186400937" lon="8.500325122563194"><ele>339.0</ele><time>2026-04-06T09:42:51.999Z</time></trkpt><trkpt lat="44.39603926807693" lon="8.500445348804407"><ele>339.0</ele><time>2026-04-06T09:42:52.999Z</time></trkpt><trkpt lat="44.39598693304589" lon="8.500566131334983"><ele>339.0</ele><time>2026-04-06T09:42:53.999Z</time></trkpt><trkpt lat="44.395945496118095" lon="8.500686822655197"><ele>339.0</ele><time>2026-04-06T09:42:54.999Z</time></trkpt><trkpt lat="44.39591304081614" lon="8.500806377689614"><ele>339.8333333333333</ele><time>2026-04-06T09:42:55.999Z</time></trkpt><trkpt lat="44.395897733900725" lon="8.500919349365969"><ele>340.6666666666667</ele><time>2026-04-06T09:42:56.999Z</time></trkpt><trkpt lat="44.39588509462037" lon="8.501046751476785"><ele>341.5</ele><time>2026-04-06T09:42:57.999Z</time></trkpt><trkpt lat="44.39587683346005" lon="8.501162929737028"><ele>342.33333333333337</ele><time>2026-04-06T09:42:58.999Z</time></trkpt><trkpt lat="44.39586359187083" lon="8.501278406853858"><ele>343.1666666666667</ele><time>2026-04-06T09:42:59.999Z</time></trkpt><trkpt lat="44.39585165130729" lon="8.50138524690488"><ele>344.0</ele><time>2026-04-06T09:43:00.999Z</time></trkpt><trkpt lat="44.39583441499474" lon="8.501495939624398"><ele>345.1666666666667</ele><time>2026-04-06T09:43:01.999Z</time></trkpt><trkpt lat="44.39581206722832" lon="8.501608098402128"><ele>346.33333333333337</ele><time>2026-04-06T09:43:02.999Z</time></trkpt><trkpt lat="44.39578510685766" lon="8.501706030504268"><ele>347.5</ele><time>2026-04-06T09:43:03.999Z</time></trkpt><trkpt lat="44.395739650900325" lon="8.501867871216291"><ele>348.6666666666667</ele><time>2026-04-06T09:43:05.999Z</time></trkpt><trkpt lat="44.39571292861473" lon="8.50195166923099"><ele>349.8333333333333</ele><time>2026-04-06T09:43:06.999Z</time></trkpt><trkpt lat="44.39568447560547" lon="8.502034418174988"><ele>351.0</ele><time>2026-04-06T09:43:07.999Z</time></trkpt><trkpt lat="44.39562245296663" lon="8.502184253364664"><ele>352.5</ele><time>2026-04-06T09:43:09.999Z</time></trkpt><trkpt lat="44.39557396094547" lon="8.502349705037982"><ele>354.0</ele><time>2026-04-06T09:43:11.999Z</time></trkpt><trkpt lat="44.395562995888824" lon="8.502455810093371"><ele>355.5</ele><time>2026-04-06T09:43:12.999Z</time></trkpt><trkpt lat="44.39557010508861" lon="8.502570021443828"><ele>357.0</ele><time>2026-04-06T09:43:13.999Z</time></trkpt><trkpt lat="44.395607694232055" lon="8.502677975725451"><ele>358.5</ele><time>2026-04-06T09:43:14.999Z</time></trkpt><trkpt lat="44.39563291195239" lon="8.502776705167474"><ele>360.0</ele><time>2026-04-06T09:43:15.999Z</time></trkpt><trkpt lat="44.395645664644434" lon="8.502867610108492"><ele>359.3333333333333</ele><time>2026-04-06T09:43:16.999Z</time></trkpt><trkpt lat="44.39564424964133" lon="8.50296495913183"><ele>358.6666666666667</ele><time>2026-04-06T09:43:17.999Z</time></trkpt><trkpt lat="44.39564584307281" lon="8.50306942413706"><ele>358.0</ele><time>2026-04-06T09:43:18.999Z</time></trkpt><trkpt lat="44.39564755926947" lon="8.503167088864135"><ele>357.33333333333337</ele><time>2026-04-06T09:43:19.999Z</time></trkpt><trkpt lat="44.39567458365364" lon="8.503272859281937"><ele>356.6666666666667</ele><time>2026-04-06T09:43:20.999Z</time></trkpt><trkpt lat="44.39572377315479" lon="8.503393443294367"><ele>356.0</ele><time>2026-04-06T09:43:21.998Z</time></trkpt><trkpt lat="44.39577865911578" lon="8.50351519886274"><ele>356.0</ele><time>2026-04-06T09:43:22.998Z</time></trkpt><trkpt lat="44.39583378345951" lon="8.503630850296824"><ele>356.0</ele><time>2026-04-06T09:43:23.998Z</time></trkpt><trkpt lat="44.39586446978022" lon="8.503729875400733"><ele>356.0</ele><time>2026-04-06T09:43:24.998Z</time></trkpt><trkpt lat="44.395904072007234" lon="8.503815771904796"><ele>356.0</ele><time>2026-04-06T09:43:25.998Z</time></trkpt><trkpt lat="44.395923723755544" lon="8.503911446500885"><ele>356.0</ele><time>2026-04-06T09:43:26.998Z</time></trkpt><trkpt lat="44.39589553078935" lon="8.504000978248149"><ele>356.0</ele><time>2026-04-06T09:43:27.998Z</time></trkpt><trkpt lat="44.39581516151226" lon="8.504049332008375"><ele>356.8</ele><time>2026-04-06T09:43:28.998Z</time></trkpt><trkpt lat="44.39571479658915" lon="8.504053642982452"><ele>357.6</ele><time>2026-04-06T09:43:29.998Z</time></trkpt><trkpt lat="44.39560556166801" lon="8.50404003607818"><ele>358.4</ele><time>2026-04-06T09:43:30.998Z</time></trkpt><trkpt lat="44.39550488237611" lon="8.504010473959017"><ele>359.2</ele><time>2026-04-06T09:43:31.998Z</time></trkpt><trkpt lat="44.39541553727901" lon="8.503961913784536"><ele>360.0</ele><time>2026-04-06T09:43:32.998Z</time></trkpt><trkpt lat="44.395318423799026" lon="8.503917084581714"><ele>356.8</ele><time>2026-04-06T09:43:33.998Z</time></trkpt><trkpt lat="44.3952200997046" lon="8.503899911559492"><ele>353.6</ele><time>2026-04-06T09:43:34.998Z</time></trkpt><trkpt lat="44.395123973103495" lon="8.5039332069497"><ele>350.4</ele><time>2026-04-06T09:43:35.998Z</time></trkpt><trkpt lat="44.39503992449698" lon="8.504010767631142"><ele>347.2</ele><time>2026-04-06T09:43:36.998Z</time></trkpt><trkpt lat="44.39498840040744" lon="8.504151357468874"><ele>344.0</ele><time>2026-04-06T09:43:37.998Z</time></trkpt><trkpt lat="44.39495724917398" lon="8.504306044208807"><ele>344.0</ele><time>2026-04-06T09:43:38.998Z</time></trkpt><trkpt lat="44.39490325913397" lon="8.504435872775002"><ele>344.0</ele><time>2026-04-06T09:43:39.998Z</time></trkpt><trkpt lat="44.39480594894211" lon="8.50450368814267"><ele>344.0</ele><time>2026-04-06T09:43:40.998Z</time></trkpt><trkpt lat="44.39469650056406" lon="8.504508331817053"><ele>344.0</ele><time>2026-04-06T09:43:41.998Z</time></trkpt><trkpt lat="44.39457741635184" lon="8.50450384930457"><ele>344.0</ele><time>2026-04-06T09:43:42.998Z</time></trkpt><trkpt lat="44.394458876385855" lon="8.504512559493811"><ele>343.75</ele><time>2026-04-06T09:43:43.998Z</time></trkpt><trkpt lat="44.39433994873741" lon="8.504555043884679"><ele>343.5</ele><time>2026-04-06T09:43:44.998Z</time></trkpt><trkpt lat="44.394228225177855" lon="8.504647057260488"><ele>343.25</ele><time>2026-04-06T09:43:46Z</time></trkpt><trkpt lat="44.394130493477554" lon="8.50476112048739"><ele>343.0</ele><time>2026-04-06T09:43:47Z</time></trkpt><trkpt lat="44.394046069026125" lon="8.504873835887537"><ele>343.0</ele><time>2026-04-06T09:43:48Z</time></trkpt><trkpt lat="44.39397197625103" lon="8.505008813539135"><ele>343.0</ele><time>2026-04-06T09:43:49Z</time></trkpt><trkpt lat="44.393918965316956" lon="8.505174117775613"><ele>343.0</ele><time>2026-04-06T09:43:50Z</time></trkpt><trkpt lat="44.39388245467933" lon="8.505351413343119"><ele>343.0</ele><time>2026-04-06T09:43:51Z</time></trkpt><trkpt lat="44.3938491439933" lon="8.505539722671132"><ele>337.75</ele><time>2026-04-06T09:43:52Z</time></trkpt><trkpt lat="44.39382182870015" lon="8.505718583471518"><ele>332.5</ele><time>2026-04-06T09:43:53Z</time></trkpt><trkpt lat="44.3937946482901" lon="8.505884197755723"><ele>327.25</ele><time>2026-04-06T09:43:54Z</time></trkpt><trkpt lat="44.39377292484062" lon="8.50605550890776"><ele>322.0</ele><time>2026-04-06T09:43:55Z</time></trkpt><trkpt lat="44.39376549214575" lon="8.506237069957642"><ele>319.5</ele><time>2026-04-06T09:43:56Z</time></trkpt><trkpt lat="44.39379078990954" lon="8.506415476490906"><ele>317.0</ele><time>2026-04-06T09:43:57Z</time></trkpt><trkpt lat="44.393838117636534" lon="8.506581111992874"><ele>314.5</ele><time>2026-04-06T09:43:58Z</time></trkpt><trkpt lat="44.3938905884244" lon="8.506746591578915"><ele>312.0</ele><time>2026-04-06T09:43:59Z</time></trkpt><trkpt lat="44.393917107287436" lon="8.506911313056008"><ele>320.5</ele><time>2026-04-06T09:44:00Z</time></trkpt><trkpt lat="44.39393585184466" lon="8.507083934894968"><ele>329.0</ele><time>2026-04-06T09:44:01Z</time></trkpt><trkpt lat="44.3939719907682" lon="8.507253608955912"><ele>337.5</ele><time>2026-04-06T09:44:02Z</time></trkpt><trkpt lat="44.394019327820715" lon="8.507423365764927"><ele>346.0</ele><time>2026-04-06T09:44:03Z</time></trkpt><trkpt lat="44.39405432327578" lon="8.507579262718703"><ele>346.0</ele><time>2026-04-06T09:44:04Z</time></trkpt><trkpt lat="44.39406206212228" lon="8.507745920780884"><ele>346.0</ele><time>2026-04-06T09:44:05Z</time></trkpt><trkpt lat="44.39404867629248" lon="8.50792324471106"><ele>346.0</ele><time>2026-04-06T09:44:06Z</time></trkpt><trkpt lat="44.39403911783092" lon="8.508107058331955"><ele>346.0</ele><time>2026-04-06T09:44:07Z</time></trkpt><trkpt lat="44.39404723916186" lon="8.508274836498448"><ele>345.75</ele><time>2026-04-06T09:44:08Z</time></trkpt><trkpt lat="44.39405859125527" lon="8.508451456195452"><ele>345.5</ele><time>2026-04-06T09:44:09Z</time></trkpt><trkpt lat="44.39404638904176" lon="8.508622866068297"><ele>345.25</ele><time>2026-04-06T09:44:10Z</time></trkpt><trkpt lat="44.394006061547" lon="8.50877744248439"><ele>345.0</ele><time>2026-04-06T09:44:11Z</time></trkpt><trkpt lat="44.393963800478126" lon="8.508927803230907"><ele>344.6</ele><time>2026-04-06T09:44:12Z</time></trkpt><trkpt lat="44.39394744025602" lon="8.5090769184738"><ele>344.2</ele><time>2026-04-06T09:44:13Z</time></trkpt><trkpt lat="44.39397516832245" lon="8.50922508027624"><ele>343.79999999999995</ele><time>2026-04-06T09:44:14Z</time></trkpt><trkpt lat="44.394008409989844" lon="8.509343760860643"><ele>343.4</ele><time>2026-04-06T09:44:15Z</time></trkpt><trkpt lat="44.394033208102385" lon="8.509456779225117"><ele>343.0</ele><time>2026-04-06T09:44:16Z</time></trkpt><trkpt lat="44.394062409836096" lon="8.509581606899635"><ele>341.25</ele><time>2026-04-06T09:44:17Z</time></trkpt><trkpt lat="44.394104455299484" lon="8.509722376010938"><ele>339.5</ele><time>2026-04-06T09:44:18Z</time></trkpt><trkpt lat="44.394147158554325" lon="8.509876910585767"><ele>337.75</ele><time>2026-04-06T09:44:19Z</time></trkpt><trkpt lat="44.39414727217109" lon="8.510032065847872"><ele>336.0</ele><time>2026-04-06T09:44:20Z</time></trkpt><trkpt lat="44.3941883046538" lon="8.510190668722402"><ele>336.0</ele><time>2026-04-06T09:44:21Z</time></trkpt><trkpt lat="44.394225643604216" lon="8.510323604780192"><ele>336.0</ele><time>2026-04-06T09:44:22Z</time></trkpt><trkpt lat="44.39425745991259" lon="8.510423321529563"><ele>336.0</ele><time>2026-04-06T09:44:23Z</time></trkpt><trkpt lat="44.39426137885161" lon="8.510514382947903"><ele>336.0</ele><time>2026-04-06T09:44:24Z</time></trkpt><trkpt lat="44.39423713963328" lon="8.510614864381623"><ele>336.0</ele><time>2026-04-06T09:44:25Z</time></trkpt><trkpt lat="44.39415938097968" lon="8.510688247539017"><ele>336.0</ele><time>2026-04-06T09:44:26Z</time></trkpt><trkpt lat="44.39404112481974" lon="8.510723249771123"><ele>335.75</ele><time>2026-04-06T09:44:26.999Z</time></trkpt><trkpt lat="44.39391730182511" lon="8.510739585661641"><ele>335.5</ele><time>2026-04-06T09:44:27.999Z</time></trkpt><trkpt lat="44.393792072737895" lon="8.510760270112888"><ele>335.25</ele><time>2026-04-06T09:44:28.999Z</time></trkpt><trkpt lat="44.39366364837469" lon="8.510804664081038"><ele>335.0</ele><time>2026-04-06T09:44:29.999Z</time></trkpt><trkpt lat="44.393537513895076" lon="8.510845612369469"><ele>333.5</ele><time>2026-04-06T09:44:30.999Z</time></trkpt><trkpt lat="44.39342529115241" lon="8.510893358959981"><ele>332.0</ele><time>2026-04-06T09:44:31.999Z</time></trkpt><trkpt lat="44.39331067909211" lon="8.510924655994538"><ele>330.5</ele><time>2026-04-06T09:44:32.999Z</time></trkpt><trkpt lat="44.393191805528595" lon="8.510919141507125"><ele>329.0</ele><time>2026-04-06T09:44:33.999Z</time></trkpt><trkpt lat="44.39308482026358" lon="8.510841401619281"><ele>329.0</ele><time>2026-04-06T09:44:34.999Z</time></trkpt><trkpt lat="44.3929925215475" lon="8.510706997039936"><ele>329.0</ele><time>2026-04-06T09:44:35.999Z</time></trkpt><trkpt lat="44.39291123207115" lon="8.510573805345977"><ele>329.0</ele><time>2026-04-06T09:44:36.999Z</time></trkpt><trkpt lat="44.39281566106654" lon="8.510491141052952"><ele>329.0</ele><time>2026-04-06T09:44:37.999Z</time></trkpt><trkpt lat="44.39269550869225" lon="8.510467892070501"><ele>329.0</ele><time>2026-04-06T09:44:38.999Z</time></trkpt><trkpt lat="44.39257018304591" lon="8.510491168922936"><ele>329.0</ele><time>2026-04-06T09:44:39.999Z</time></trkpt><trkpt lat="44.39243663051191" lon="8.510516161199483"><ele>329.0</ele><time>2026-04-06T09:44:40.999Z</time></trkpt><trkpt lat="44.39231249009288" lon="8.510525759363949"><ele>329.0</ele><time>2026-04-06T09:44:41.999Z</time></trkpt><trkpt lat="44.392198261819146" lon="8.51052958758561"><ele>326.59999999999997</ele><time>2026-04-06T09:44:42.999Z</time></trkpt><trkpt lat="44.3920752611243" lon="8.510520454528242"><ele>324.2</ele><time>2026-04-06T09:44:43.999Z</time></trkpt><trkpt lat="44.39196867633911" lon="8.510482686227528"><ele>321.79999999999995</ele><time>2026-04-06T09:44:44.999Z</time></trkpt><trkpt lat="44.391870208219935" lon="8.510447927516369"><ele>319.4</ele><time>2026-04-06T09:44:45.999Z</time></trkpt><trkpt lat="44.391787678632724" lon="8.510485320416587"><ele>317.0</ele><time>2026-04-06T09:44:46.999Z</time></trkpt><trkpt lat="44.39171645899038" lon="8.51060989903417"><ele>317.0</ele><time>2026-04-06T09:44:47.999Z</time></trkpt><trkpt lat="44.39167875228601" lon="8.510782900062258"><ele>317.0</ele><time>2026-04-06T09:44:48.999Z</time></trkpt><trkpt lat="44.39166378919974" lon="8.510969109337033"><ele>317.0</ele><time>2026-04-06T09:44:49.999Z</time></trkpt><trkpt lat="44.39166257640117" lon="8.511142542322718"><ele>317.0</ele><time>2026-04-06T09:44:50.999Z</time></trkpt><trkpt lat="44.391670337782145" lon="8.511307916563174"><ele>319.5</ele><time>2026-04-06T09:44:51.999Z</time></trkpt><trkpt lat="44.391659951462195" lon="8.511470253330716"><ele>322.0</ele><time>2026-04-06T09:44:52.999Z</time></trkpt><trkpt lat="44.391610066690966" lon="8.511620818383054"><ele>324.5</ele><time>2026-04-06T09:44:53.999Z</time></trkpt><trkpt lat="44.39152048921268" lon="8.511761784504897"><ele>327.0</ele><time>2026-04-06T09:44:54.999Z</time></trkpt><trkpt lat="44.39143362444744" lon="8.511899766592634"><ele>327.0</ele><time>2026-04-06T09:44:55.999Z</time></trkpt><trkpt lat="44.39136182942866" lon="8.512033016015438"><ele>327.0</ele><time>2026-04-06T09:44:56.999Z</time></trkpt><trkpt lat="44.39129959406668" lon="8.512174426541804"><ele>327.0</ele><time>2026-04-06T09:44:57.999Z</time></trkpt><trkpt lat="44.39126052253006" lon="8.51233592374781"><ele>327.0</ele><time>2026-04-06T09:44:58.999Z</time></trkpt><trkpt lat="44.39125032308574" lon="8.512502690343887"><ele>323.5</ele><time>2026-04-06T09:44:59.999Z</time></trkpt><trkpt lat="44.39125426222926" lon="8.512659597955391"><ele>320.0</ele><time>2026-04-06T09:45:00.999Z</time></trkpt><trkpt lat="44.3912188326832" lon="8.512801062054216"><ele>316.5</ele><time>2026-04-06T09:45:01.999Z</time></trkpt><trkpt lat="44.39113341093002" lon="8.51290534539588"><ele>313.0</ele><time>2026-04-06T09:45:02.999Z</time></trkpt><trkpt lat="44.39101161048158" lon="8.512989144872266"><ele>313.0</ele><time>2026-04-06T09:45:03.999Z</time></trkpt><trkpt lat="44.39090255338003" lon="8.513098315139642"><ele>313.0</ele><time>2026-04-06T09:45:04.999Z</time></trkpt><trkpt lat="44.39082473839933" lon="8.513251275526336"><ele>313.0</ele><time>2026-04-06T09:45:05.999Z</time></trkpt><trkpt lat="44.39076728160874" lon="8.513415858463118"><ele>313.0</ele><time>2026-04-06T09:45:06.999Z</time></trkpt><trkpt lat="44.39071171719775" lon="8.513592994238417"><ele>314.5</ele><time>2026-04-06T09:45:07.999Z</time></trkpt><trkpt lat="44.390670102595315" lon="8.51377418005887"><ele>316.0</ele><time>2026-04-06T09:45:08.999Z</time></trkpt><trkpt lat="44.39064722625606" lon="8.513958960735106"><ele>317.5</ele><time>2026-04-06T09:45:09.999Z</time></trkpt><trkpt lat="44.3906414284223" lon="8.514138951695884"><ele>319.0</ele><time>2026-04-06T09:45:10.999Z</time></trkpt><trkpt lat="44.39064926036831" lon="8.514301738157503"><ele>319.0</ele><time>2026-04-06T09:45:11.999Z</time></trkpt><trkpt lat="44.390684509362195" lon="8.514440188905676"><ele>319.0</ele><time>2026-04-06T09:45:12.999Z</time></trkpt><trkpt lat="44.390736450152644" lon="8.514551448461061"><ele>319.0</ele><time>2026-04-06T09:45:13.999Z</time></trkpt><trkpt lat="44.390772691164116" lon="8.51464807729881"><ele>319.0</ele><time>2026-04-06T09:45:14.999Z</time></trkpt><trkpt lat="44.390783576157595" lon="8.514745461806706"><ele>319.0</ele><time>2026-04-06T09:45:15.999Z</time></trkpt><trkpt lat="44.3907810154663" lon="8.514841485002997"><ele>319.0</ele><time>2026-04-06T09:45:16.999Z</time></trkpt><trkpt lat="44.39076418718152" lon="8.51495532346373"><ele>319.0</ele><time>2026-04-06T09:45:17.999Z</time></trkpt><trkpt lat="44.39073544756158" lon="8.515062758052801"><ele>319.0</ele><time>2026-04-06T09:45:18.999Z</time></trkpt><trkpt lat="44.390696822021646" lon="8.515142914878458"><ele>319.0</ele><time>2026-04-06T09:45:19.999Z</time></trkpt><trkpt lat="44.390661205849455" lon="8.51522861582182"><ele>319.0</ele><time>2026-04-06T09:45:20.999Z</time></trkpt><trkpt lat="44.39063968335115" lon="8.515396701760995"><ele>319.0</ele><time>2026-04-06T09:45:22.999Z</time></trkpt><trkpt lat="44.39070333633125" lon="8.51547094970327"><ele>319.0</ele><time>2026-04-06T09:45:23.999Z</time></trkpt><trkpt lat="44.39078317402513" lon="8.515508070728126"><ele>319.0</ele><time>2026-04-06T09:45:24.999Z</time></trkpt><trkpt lat="44.39085341823774" lon="8.515583165439285"><ele>319.0</ele><time>2026-04-06T09:45:25.999Z</time></trkpt><trkpt lat="44.39090522359388" lon="8.515670577738174"><ele>319.0</ele><time>2026-04-06T09:45:26.999Z</time></trkpt><trkpt lat="44.3909613956903" lon="8.51574085660371"><ele>319.0</ele><time>2026-04-06T09:45:27.998Z</time></trkpt><trkpt lat="44.39100104927042" lon="8.515863252000566"><ele>319.0</ele><time>2026-04-06T09:45:28.998Z</time></trkpt><trkpt lat="44.39104856491632" lon="8.51598517854353"><ele>319.0</ele><time>2026-04-06T09:45:29.998Z</time></trkpt><trkpt lat="44.39107453826739" lon="8.516091138781592"><ele>319.0</ele><time>2026-04-06T09:45:30.998Z</time></trkpt><trkpt lat="44.391085458757644" lon="8.516219230638155"><ele>319.0</ele><time>2026-04-06T09:45:31.998Z</time></trkpt><trkpt lat="44.391068089302756" lon="8.516352836924131"><ele>319.0</ele><time>2026-04-06T09:45:32.998Z</time></trkpt><trkpt lat="44.391033951228984" lon="8.516470532395966"><ele>319.0</ele><time>2026-04-06T09:45:33.998Z</time></trkpt><trkpt lat="44.39099966495151" lon="8.51658969658003"><ele>319.0</ele><time>2026-04-06T09:45:34.998Z</time></trkpt><trkpt lat="44.39098653470918" lon="8.516722089718813"><ele>316.8</ele><time>2026-04-06T09:45:35.998Z</time></trkpt><trkpt lat="44.39099168932585" lon="8.516863291286962"><ele>314.59999999999997</ele><time>2026-04-06T09:45:36.998Z</time></trkpt><trkpt lat="44.39101221626745" lon="8.517009106415678"><ele>312.4</ele><time>2026-04-06T09:45:37.998Z</time></trkpt><trkpt lat="44.391051903509016" lon="8.517144454191083"><ele>310.2</ele><time>2026-04-06T09:45:38.998Z</time></trkpt><trkpt lat="44.391095702093004" lon="8.517278666975962"><ele>308.0</ele><time>2026-04-06T09:45:39.998Z</time></trkpt><trkpt lat="44.391135915387" lon="8.517421011916538"><ele>307.6</ele><time>2026-04-06T09:45:40.998Z</time></trkpt><trkpt lat="44.391161945125475" lon="8.51757550739966"><ele>307.20000000000005</ele><time>2026-04-06T09:45:41.998Z</time></trkpt><trkpt lat="44.39117547339238" lon="8.517726808345751"><ele>306.8</ele><time>2026-04-06T09:45:42.998Z</time></trkpt><trkpt lat="44.39120892249903" lon="8.517865833484048"><ele>306.40000000000003</ele><time>2026-04-06T09:45:43.998Z</time></trkpt><trkpt lat="44.39128222330131" lon="8.5179780267337"><ele>306.0</ele><time>2026-04-06T09:45:44.998Z</time></trkpt><trkpt lat="44.3913806150382" lon="8.518066410132766"><ele>306.0</ele><time>2026-04-06T09:45:45.998Z</time></trkpt><trkpt lat="44.39147815951366" lon="8.518169543594395"><ele>306.0</ele><time>2026-04-06T09:45:46.998Z</time></trkpt><trkpt lat="44.391551596493535" lon="8.518289319293451"><ele>306.0</ele><time>2026-04-06T09:45:47.998Z</time></trkpt><trkpt lat="44.39161983565221" lon="8.518401188604987"><ele>306.0</ele><time>2026-04-06T09:45:48.998Z</time></trkpt><trkpt lat="44.39170583642819" lon="8.518487623533158"><ele>306.0</ele><time>2026-04-06T09:45:49.998Z</time></trkpt><trkpt lat="44.39181014023268" lon="8.518545008319872"><ele>306.0</ele><time>2026-04-06T09:45:50.998Z</time></trkpt><trkpt lat="44.391919042604115" lon="8.518581615751541"><ele>306.0</ele><time>2026-04-06T09:45:52Z</time></trkpt><trkpt lat="44.39201691693385" lon="8.51861552602883"><ele>306.0</ele><time>2026-04-06T09:45:53Z</time></trkpt><trkpt lat="44.39209682148169" lon="8.518649763342719"><ele>306.0</ele><time>2026-04-06T09:45:54Z</time></trkpt><trkpt lat="44.39215838771869" lon="8.518685003535085"><ele>306.0</ele><time>2026-04-06T09:45:55Z</time></trkpt><trkpt lat="44.39222291214534" lon="8.518749855922026"><ele>306.0</ele><time>2026-04-06T09:45:56Z</time></trkpt><trkpt lat="44.39224581229421" lon="8.518844962906876"><ele>308.2</ele><time>2026-04-06T09:45:57Z</time></trkpt><trkpt lat="44.392204174986226" lon="8.518943610581498"><ele>310.40000000000003</ele><time>2026-04-06T09:45:58Z</time></trkpt><trkpt lat="44.392143712977465" lon="8.519039990609793"><ele>312.6</ele><time>2026-04-06T09:45:59Z</time></trkpt><trkpt lat="44.3921063152336" lon="8.51915532138225"><ele>314.8</ele><time>2026-04-06T09:46:00Z</time></trkpt><trkpt lat="44.392096832263725" lon="8.51928013176866"><ele>317.0</ele><time>2026-04-06T09:46:01Z</time></trkpt><trkpt lat="44.39208153958244" lon="8.51941503322801"><ele>311.8</ele><time>2026-04-06T09:46:02Z</time></trkpt><trkpt lat="44.39206272408156" lon="8.519550848075438"><ele>306.6</ele><time>2026-04-06T09:46:03Z</time></trkpt><trkpt lat="44.39204473035844" lon="8.519688371616688"><ele>301.40000000000003</ele><time>2026-04-06T09:46:04Z</time></trkpt><trkpt lat="44.392029666744506" lon="8.519818389546252"><ele>296.2</ele><time>2026-04-06T09:46:05Z</time></trkpt><trkpt lat="44.39203498709005" lon="8.519943360094615"><ele>291.0</ele><time>2026-04-06T09:46:06Z</time></trkpt><trkpt lat="44.392066661134855" lon="8.520067388871528"><ele>289.8</ele><time>2026-04-06T09:46:07Z</time></trkpt><trkpt lat="44.392111048168566" lon="8.520179231250744"><ele>288.6</ele><time>2026-04-06T09:46:08Z</time></trkpt><trkpt lat="44.392142162827696" lon="8.52029116293953"><ele>287.4</ele><time>2026-04-06T09:46:09Z</time></trkpt><trkpt lat="44.39213169887445" lon="8.520417841770056"><ele>286.2</ele><time>2026-04-06T09:46:10Z</time></trkpt><trkpt lat="44.392059731705125" lon="8.520516585053903"><ele>285.0</ele><time>2026-04-06T09:46:11Z</time></trkpt><trkpt lat="44.39195949089883" lon="8.520581129427754"><ele>284.6666666666667</ele><time>2026-04-06T09:46:12Z</time></trkpt><trkpt lat="44.39187503544747" lon="8.520635193861777"><ele>284.3333333333333</ele><time>2026-04-06T09:46:13Z</time></trkpt><trkpt lat="44.391832587463" lon="8.520713009495255"><ele>284.0</ele><time>2026-04-06T09:46:14Z</time></trkpt><trkpt lat="44.391828990023015" lon="8.520826878218637"><ele>283.66666666666663</ele><time>2026-04-06T09:46:15Z</time></trkpt><trkpt lat="44.39185627851161" lon="8.5209428367263"><ele>283.3333333333333</ele><time>2026-04-06T09:46:16Z</time></trkpt><trkpt lat="44.391905903268565" lon="8.521079384640867"><ele>283.0</ele><time>2026-04-06T09:46:17Z</time></trkpt><trkpt lat="44.3919500483264" lon="8.521207618295383"><ele>281.6</ele><time>2026-04-06T09:46:18Z</time></trkpt><trkpt lat="44.39198480628463" lon="8.52135050353019"><ele>280.20000000000005</ele><time>2026-04-06T09:46:19Z</time></trkpt><trkpt lat="44.391996301607996" lon="8.521495466685062"><ele>278.8</ele><time>2026-04-06T09:46:20Z</time></trkpt><trkpt lat="44.39199490700872" lon="8.52163820056846"><ele>277.40000000000003</ele><time>2026-04-06T09:46:21Z</time></trkpt><trkpt lat="44.39200795412529" lon="8.521785725356501"><ele>276.0</ele><time>2026-04-06T09:46:22Z</time></trkpt><trkpt lat="44.39205715989497" lon="8.521925305652136"><ele>276.0</ele><time>2026-04-06T09:46:23Z</time></trkpt><trkpt lat="44.39211926539478" lon="8.522053489559449"><ele>276.0</ele><time>2026-04-06T09:46:24Z</time></trkpt><trkpt lat="44.392173250270616" lon="8.52217782599066"><ele>276.0</ele><time>2026-04-06T09:46:25Z</time></trkpt><trkpt lat="44.39222294960499" lon="8.522310471260331"><ele>276.0</ele><time>2026-04-06T09:46:26Z</time></trkpt><trkpt lat="44.39227751030925" lon="8.522423671980883"><ele>276.0</ele><time>2026-04-06T09:46:27Z</time></trkpt><trkpt lat="44.392348538463835" lon="8.52251364829037"><ele>279.75</ele><time>2026-04-06T09:46:28Z</time></trkpt><trkpt lat="44.39244474761926" lon="8.52257039645466"><ele>283.5</ele><time>2026-04-06T09:46:29Z</time></trkpt><trkpt lat="44.39256622808058" lon="8.522602596291716"><ele>287.25</ele><time>2026-04-06T09:46:30Z</time></trkpt><trkpt lat="44.39268815651634" lon="8.522616320217141"><ele>291.0</ele><time>2026-04-06T09:46:31Z</time></trkpt><trkpt lat="44.392788179004384" lon="8.522632960638024"><ele>291.0</ele><time>2026-04-06T09:46:32Z</time></trkpt><trkpt lat="44.39287644173652" lon="8.522636762382508"><ele>291.0</ele><time>2026-04-06T09:46:33Z</time></trkpt><trkpt lat="44.39294896856995" lon="8.522647071574232"><ele>291.0</ele><time>2026-04-06T09:46:34Z</time></trkpt><trkpt lat="44.39300334367822" lon="8.522711046925464"><ele>291.0</ele><time>2026-04-06T09:46:35Z</time></trkpt><trkpt lat="44.39302865624371" lon="8.522816218424122"><ele>291.0</ele><time>2026-04-06T09:46:36Z</time></trkpt><trkpt lat="44.393003071196" lon="8.522943098391245"><ele>291.0</ele><time>2026-04-06T09:46:36.999Z</time></trkpt><trkpt lat="44.39294999720014" lon="8.523060880427396"><ele>289.8333333333333</ele><time>2026-04-06T09:46:37.999Z</time></trkpt><trkpt lat="44.39291539463381" lon="8.5231848586988"><ele>288.6666666666667</ele><time>2026-04-06T09:46:38.999Z</time></trkpt><trkpt lat="44.39289893626684" lon="8.523294123938582"><ele>287.5</ele><time>2026-04-06T09:46:39.999Z</time></trkpt><trkpt lat="44.39287741549653" lon="8.523395263404034"><ele>286.33333333333337</ele><time>2026-04-06T09:46:40.999Z</time></trkpt><trkpt lat="44.392830187046115" lon="8.523469400058291"><ele>285.1666666666667</ele><time>2026-04-06T09:46:41.999Z</time></trkpt><trkpt lat="44.39275903394709" lon="8.523503521624297"><ele>284.0</ele><time>2026-04-06T09:46:42.999Z</time></trkpt><trkpt lat="44.392673915438905" lon="8.523485961701516"><ele>284.0</ele><time>2026-04-06T09:46:43.999Z</time></trkpt><trkpt lat="44.39259469474061" lon="8.523407816205903"><ele>284.0</ele><time>2026-04-06T09:46:44.999Z</time></trkpt><trkpt lat="44.392549176261376" lon="8.523288532228946"><ele>284.0</ele><time>2026-04-06T09:46:45.999Z</time></trkpt><trkpt lat="44.39244398055734" lon="8.523271182645562"><ele>284.0</ele><time>2026-04-06T09:46:46.999Z</time></trkpt><trkpt lat="44.392341347969555" lon="8.523279991981944"><ele>284.0</ele><time>2026-04-06T09:46:47.999Z</time></trkpt><trkpt lat="44.392244435902604" lon="8.523280307617746"><ele>280.25</ele><time>2026-04-06T09:46:48.999Z</time></trkpt><trkpt lat="44.39212521020316" lon="8.523266709057427"><ele>276.5</ele><time>2026-04-06T09:46:49.999Z</time></trkpt><trkpt lat="44.392002977583545" lon="8.523263453927152"><ele>272.75</ele><time>2026-04-06T09:46:50.999Z</time></trkpt><trkpt lat="44.391891357868325" lon="8.523256824806882"><ele>269.0</ele><time>2026-04-06T09:46:51.999Z</time></trkpt><trkpt lat="44.39179367597907" lon="8.523248941887852"><ele>269.0</ele><time>2026-04-06T09:46:52.999Z</time></trkpt><trkpt lat="44.39171322279641" lon="8.523291543243337"><ele>269.0</ele><time>2026-04-06T09:46:53.999Z</time></trkpt><trkpt lat="44.39165864473568" lon="8.523398181118845"><ele>269.0</ele><time>2026-04-06T09:46:54.999Z</time></trkpt><trkpt lat="44.391625364494885" lon="8.52353378687439"><ele>269.0</ele><time>2026-04-06T09:46:55.999Z</time></trkpt><trkpt lat="44.3916173586668" lon="8.523698016025762"><ele>269.0</ele><time>2026-04-06T09:46:56.999Z</time></trkpt><trkpt lat="44.39161121959029" lon="8.523866322496293"><ele>270.0</ele><time>2026-04-06T09:46:57.999Z</time></trkpt><trkpt lat="44.39161065924411" lon="8.524034174209884"><ele>271.0</ele><time>2026-04-06T09:46:58.999Z</time></trkpt><trkpt lat="44.39161637974912" lon="8.524189065564496"><ele>272.0</ele><time>2026-04-06T09:46:59.999Z</time></trkpt><trkpt lat="44.391630673857144" lon="8.524338840205338"><ele>273.0</ele><time>2026-04-06T09:47:00.999Z</time></trkpt><trkpt lat="44.39162499033288" lon="8.524483647099164"><ele>274.0</ele><time>2026-04-06T09:47:01.999Z</time></trkpt><trkpt lat="44.391576410871664" lon="8.524612130707467"><ele>274.8</ele><time>2026-04-06T09:47:02.999Z</time></trkpt><trkpt lat="44.391494699104676" lon="8.524698823385679"><ele>275.59999999999997</ele><time>2026-04-06T09:47:03.999Z</time></trkpt><trkpt lat="44.39138834328772" lon="8.524730508290943"><ele>276.4</ele><time>2026-04-06T09:47:04.999Z</time></trkpt><trkpt lat="44.391273051228794" lon="8.524761031518599"><ele>277.2</ele><time>2026-04-06T09:47:05.999Z</time></trkpt><trkpt lat="44.39115597437984" lon="8.524787759127914"><ele>278.0</ele><time>2026-04-06T09:47:06.999Z</time></trkpt><trkpt lat="44.39103729726865" lon="8.524824975476752"><ele>275.25</ele><time>2026-04-06T09:47:07.999Z</time></trkpt><trkpt lat="44.3909209730822" lon="8.52487242959439"><ele>272.5</ele><time>2026-04-06T09:47:08.999Z</time></trkpt><trkpt lat="44.39079369720224" lon="8.524924155802955"><ele>269.75</ele><time>2026-04-06T09:47:09.999Z</time></trkpt><trkpt lat="44.390672675496496" lon="8.524977056988634"><ele>267.0</ele><time>2026-04-06T09:47:10.999Z</time></trkpt><trkpt lat="44.390557320053176" lon="8.525029735082954"><ele>263.25</ele><time>2026-04-06T09:47:11.999Z</time></trkpt><trkpt lat="44.3904497216149" lon="8.525078352724655"><ele>259.5</ele><time>2026-04-06T09:47:12.999Z</time></trkpt><trkpt lat="44.39034249622687" lon="8.525128515544932"><ele>255.75</ele><time>2026-04-06T09:47:13.999Z</time></trkpt><trkpt lat="44.39023425649498" lon="8.525197271436756"><ele>252.0</ele><time>2026-04-06T09:47:14.999Z</time></trkpt><trkpt lat="44.390141758193266" lon="8.52530418812992"><ele>254.75</ele><time>2026-04-06T09:47:15.999Z</time></trkpt><trkpt lat="44.39007846283663" lon="8.525451795314078"><ele>257.5</ele><time>2026-04-06T09:47:16.999Z</time></trkpt><trkpt lat="44.3900497645219" lon="8.525620871804964"><ele>260.25</ele><time>2026-04-06T09:47:17.999Z</time></trkpt><trkpt lat="44.39003644687392" lon="8.525773267253234"><ele>263.0</ele><time>2026-04-06T09:47:18.999Z</time></trkpt><trkpt lat="44.389995636700725" lon="8.525914729837424"><ele>263.0</ele><time>2026-04-06T09:47:19.999Z</time></trkpt><trkpt lat="44.38991951205648" lon="8.526014294735294"><ele>263.0</ele><time>2026-04-06T09:47:20.999Z</time></trkpt><trkpt lat="44.38981496139874" lon="8.526078482161145"><ele>263.0</ele><time>2026-04-06T09:47:21.999Z</time></trkpt><trkpt lat="44.38969326340993" lon="8.526128632818827"><ele>263.0</ele><time>2026-04-06T09:47:22.999Z</time></trkpt><trkpt lat="44.38958315703846" lon="8.526191714394688"><ele>262.75</ele><time>2026-04-06T09:47:23.999Z</time></trkpt><trkpt lat="44.38947960376543" lon="8.526266580465586"><ele>262.5</ele><time>2026-04-06T09:47:24.999Z</time></trkpt><trkpt lat="44.389356696974374" lon="8.526355014834976"><ele>262.25</ele><time>2026-04-06T09:47:25.999Z</time></trkpt><trkpt lat="44.38922627316134" lon="8.52644615667227"><ele>262.0</ele><time>2026-04-06T09:47:26.999Z</time></trkpt><trkpt lat="44.38910043870701" lon="8.52653718055913"><ele>262.0</ele><time>2026-04-06T09:47:27.999Z</time></trkpt><trkpt lat="44.38897977979629" lon="8.526605319637433"><ele>262.0</ele><time>2026-04-06T09:47:28.999Z</time></trkpt><trkpt lat="44.38885832366417" lon="8.526669293865686"><ele>262.0</ele><time>2026-04-06T09:47:29.999Z</time></trkpt><trkpt lat="44.388742776187534" lon="8.526744962051287"><ele>262.0</ele><time>2026-04-06T09:47:30.999Z</time></trkpt><trkpt lat="44.38863066456207" lon="8.526823624085667"><ele>262.5</ele><time>2026-04-06T09:47:31.999Z</time></trkpt><trkpt lat="44.38852316844375" lon="8.526904944275332"><ele>263.0</ele><time>2026-04-06T09:47:32.999Z</time></trkpt><trkpt lat="44.388409570238906" lon="8.52698227738905"><ele>263.5</ele><time>2026-04-06T09:47:33.999Z</time></trkpt><trkpt lat="44.388298504286794" lon="8.527057258937187"><ele>264.0</ele><time>2026-04-06T09:47:34.999Z</time></trkpt><trkpt lat="44.38819271060205" lon="8.527119675181252"><ele>264.0</ele><time>2026-04-06T09:47:35.999Z</time></trkpt><trkpt lat="44.38807755968183" lon="8.527193945384786"><ele>264.0</ele><time>2026-04-06T09:47:36.999Z</time></trkpt><trkpt lat="44.3879716762157" lon="8.527263084923941"><ele>264.0</ele><time>2026-04-06T09:47:37.998Z</time></trkpt><trkpt lat="44.38785946481466" lon="8.527343780944754"><ele>264.0</ele><time>2026-04-06T09:47:38.998Z</time></trkpt><trkpt lat="44.38774381161877" lon="8.527415704026645"><ele>261.0</ele><time>2026-04-06T09:47:39.998Z</time></trkpt><trkpt lat="44.387631369910004" lon="8.527480579774688"><ele>258.0</ele><time>2026-04-06T09:47:40.998Z</time></trkpt><trkpt lat="44.387519077694655" lon="8.527554072621534"><ele>255.0</ele><time>2026-04-06T09:47:41.998Z</time></trkpt><trkpt lat="44.38740151056947" lon="8.5276332200859"><ele>252.0</ele><time>2026-04-06T09:47:42.998Z</time></trkpt><trkpt lat="44.38729889456482" lon="8.527729408976445"><ele>252.0</ele><time>2026-04-06T09:47:43.998Z</time></trkpt><trkpt lat="44.387197286888984" lon="8.52784208928982"><ele>252.0</ele><time>2026-04-06T09:47:44.998Z</time></trkpt><trkpt lat="44.38711629299646" lon="8.527952430452457"><ele>252.0</ele><time>2026-04-06T09:47:45.998Z</time></trkpt><trkpt lat="44.387023727959935" lon="8.528045039990019"><ele>252.0</ele><time>2026-04-06T09:47:46.998Z</time></trkpt><trkpt lat="44.38691779986894" lon="8.528105735836242"><ele>252.39999999999998</ele><time>2026-04-06T09:47:47.998Z</time></trkpt><trkpt lat="44.38680149613172" lon="8.528119790138696"><ele>252.79999999999998</ele><time>2026-04-06T09:47:48.998Z</time></trkpt><trkpt lat="44.386693591031666" lon="8.528083173304868"><ele>253.2</ele><time>2026-04-06T09:47:49.998Z</time></trkpt><trkpt lat="44.3865998551118" lon="8.528050711853263"><ele>253.6</ele><time>2026-04-06T09:47:50.998Z</time></trkpt><trkpt lat="44.386501308514426" lon="8.52806983048385"><ele>254.0</ele><time>2026-04-06T09:47:51.998Z</time></trkpt><trkpt lat="44.386406001240125" lon="8.528151913754467"><ele>247.0</ele><time>2026-04-06T09:47:52.998Z</time></trkpt><trkpt lat="44.386315001846604" lon="8.528266605642756"><ele>240.0</ele><time>2026-04-06T09:47:53.998Z</time></trkpt><trkpt lat="44.38625752461122" lon="8.528387484891017"><ele>233.0</ele><time>2026-04-06T09:47:54.998Z</time></trkpt><trkpt lat="44.38622804447558" lon="8.528541457736786"><ele>226.0</ele><time>2026-04-06T09:47:55.998Z</time></trkpt><trkpt lat="44.38622003508538" lon="8.528698991369637"><ele>227.75</ele><time>2026-04-06T09:47:56.998Z</time></trkpt><trkpt lat="44.38622062576841" lon="8.528856685849087"><ele>229.5</ele><time>2026-04-06T09:47:58Z</time></trkpt><trkpt lat="44.386219654242815" lon="8.5290216181594"><ele>231.25</ele><time>2026-04-06T09:47:59Z</time></trkpt><trkpt lat="44.38620372060267" lon="8.52918716071195"><ele>233.0</ele><time>2026-04-06T09:48:00Z</time></trkpt><trkpt lat="44.38617309553787" lon="8.529350267642778"><ele>233.0</ele><time>2026-04-06T09:48:01Z</time></trkpt><trkpt lat="44.386131890952086" lon="8.52949643546976"><ele>233.0</ele><time>2026-04-06T09:48:02Z</time></trkpt><trkpt lat="44.38607045209611" lon="8.529616085335231"><ele>233.0</ele><time>2026-04-06T09:48:03Z</time></trkpt><trkpt lat="44.385979421556044" lon="8.529704882550462"><ele>233.0</ele><time>2026-04-06T09:48:04Z</time></trkpt><trkpt lat="44.385872287284016" lon="8.52975949589523"><ele>233.0</ele><time>2026-04-06T09:48:05Z</time></trkpt><trkpt lat="44.38576366722856" lon="8.529791936865102"><ele>235.2</ele><time>2026-04-06T09:48:06Z</time></trkpt><trkpt lat="44.38567595215311" lon="8.529860536165165"><ele>237.4</ele><time>2026-04-06T09:48:07Z</time></trkpt><trkpt lat="44.38561595849575" lon="8.529978611748467"><ele>239.59999999999997</ele><time>2026-04-06T09:48:08Z</time></trkpt><trkpt lat="44.38559403990192" lon="8.530120800839558"><ele>241.79999999999998</ele><time>2026-04-06T09:48:09Z</time></trkpt><trkpt lat="44.385608051656824" lon="8.530279196026795"><ele>244.0</ele><time>2026-04-06T09:48:10Z</time></trkpt><trkpt lat="44.38563735949592" lon="8.53044087684165"><ele>245.2</ele><time>2026-04-06T09:48:11Z</time></trkpt><trkpt lat="44.38564255914474" lon="8.530598352640533"><ele>246.39999999999998</ele><time>2026-04-06T09:48:12Z</time></trkpt><trkpt lat="44.385600968818274" lon="8.53075027839734"><ele>247.6</ele><time>2026-04-06T09:48:13Z</time></trkpt><trkpt lat="44.38554192801558" lon="8.530875192418433"><ele>248.8</ele><time>2026-04-06T09:48:14Z</time></trkpt><trkpt lat="44.385490486270925" lon="8.530996626549747"><ele>250.0</ele><time>2026-04-06T09:48:15Z</time></trkpt><trkpt lat="44.38547084655857" lon="8.531119084909912"><ele>246.8</ele><time>2026-04-06T09:48:16Z</time></trkpt><trkpt lat="44.38549916397672" lon="8.53123896060468"><ele>243.6</ele><time>2026-04-06T09:48:17Z</time></trkpt><trkpt lat="44.38557860500197" lon="8.531345795264855"><ele>240.39999999999998</ele><time>2026-04-06T09:48:18Z</time></trkpt><trkpt lat="44.38567616366358" lon="8.531446797863081"><ele>237.2</ele><time>2026-04-06T09:48:19Z</time></trkpt><trkpt lat="44.38577418246984" lon="8.53155723735766"><ele>234.0</ele><time>2026-04-06T09:48:20Z</time></trkpt><trkpt lat="44.38589031490108" lon="8.531686103556604"><ele>234.0</ele><time>2026-04-06T09:48:21Z</time></trkpt><trkpt lat="44.386023914597416" lon="8.531823943715622"><ele>234.0</ele><time>2026-04-06T09:48:22Z</time></trkpt><trkpt lat="44.38615529353455" lon="8.531950647153284"><ele>234.0</ele><time>2026-04-06T09:48:23Z</time></trkpt><trkpt lat="44.38624610560954" lon="8.532038197951783"><ele>234.0</ele><time>2026-04-06T09:48:24Z</time></trkpt><trkpt lat="44.38633310991757" lon="8.532126804578095"><ele>232.0</ele><time>2026-04-06T09:48:25Z</time></trkpt><trkpt lat="44.38642052584196" lon="8.532207106992216"><ele>229.99999999999997</ele><time>2026-04-06T09:48:26Z</time></trkpt><trkpt lat="44.38650722525844" lon="8.532270412992634"><ele>227.99999999999997</ele><time>2026-04-06T09:48:27Z</time></trkpt><trkpt lat="44.38660633857657" lon="8.532296170982734"><ele>226.0</ele><time>2026-04-06T09:48:28Z</time></trkpt><trkpt lat="44.3867239324459" lon="8.532306078357902"><ele>224.0</ele><time>2026-04-06T09:48:29Z</time></trkpt><trkpt lat="44.38682890257564" lon="8.532355088577722"><ele>224.0</ele><time>2026-04-06T09:48:30Z</time></trkpt><trkpt lat="44.38693121536373" lon="8.53242650688187"><ele>223.99999999999997</ele><time>2026-04-06T09:48:31Z</time></trkpt><trkpt lat="44.3870330575202" lon="8.532482428408104"><ele>223.99999999999997</ele><time>2026-04-06T09:48:32Z</time></trkpt><trkpt lat="44.38713052918058" lon="8.532532512748313"><ele>224.0</ele><time>2026-04-06T09:48:33Z</time></trkpt><trkpt lat="44.38722777648292" lon="8.532578093287784"><ele>224.0</ele><time>2026-04-06T09:48:34Z</time></trkpt><trkpt lat="44.387325165616986" lon="8.532620589276323"><ele>225.0</ele><time>2026-04-06T09:48:34.999Z</time></trkpt><trkpt lat="44.387414418035995" lon="8.532683003431778"><ele>225.99999999999997</ele><time>2026-04-06T09:48:35.999Z</time></trkpt><trkpt lat="44.38746553037119" lon="8.532784835497866"><ele>226.99999999999997</ele><time>2026-04-06T09:48:36.999Z</time></trkpt><trkpt lat="44.387461907056554" lon="8.53290493107718"><ele>228.0</ele><time>2026-04-06T09:48:37.999Z</time></trkpt><trkpt lat="44.38740198525784" lon="8.533016324185972"><ele>229.0</ele><time>2026-04-06T09:48:38.999Z</time></trkpt><trkpt lat="44.38730156093642" lon="8.53309017949364"><ele>225.5</ele><time>2026-04-06T09:48:39.999Z</time></trkpt><trkpt lat="44.387170381436576" lon="8.533124952389112"><ele>222.0</ele><time>2026-04-06T09:48:40.999Z</time></trkpt><trkpt lat="44.387043541097555" lon="8.53318794079306"><ele>218.5</ele><time>2026-04-06T09:48:41.999Z</time></trkpt><trkpt lat="44.386931939740336" lon="8.533299573684411"><ele>215.0</ele><time>2026-04-06T09:48:42.999Z</time></trkpt><trkpt lat="44.38683058218641" lon="8.533422614663214"><ele>215.0</ele><time>2026-04-06T09:48:43.999Z</time></trkpt><trkpt lat="44.38673535086013" lon="8.533532557724593"><ele>215.0</ele><time>2026-04-06T09:48:44.999Z</time></trkpt><trkpt lat="44.38664012357479" lon="8.533626619825926"><ele>215.0</ele><time>2026-04-06T09:48:45.999Z</time></trkpt><trkpt lat="44.38654384510273" lon="8.533730884726653"><ele>215.0</ele><time>2026-04-06T09:48:46.999Z</time></trkpt><trkpt lat="44.3864698013839" lon="8.533843101626955"><ele>216.0</ele><time>2026-04-06T09:48:47.999Z</time></trkpt><trkpt lat="44.38643001807064" lon="8.533968430611218"><ele>217.0</ele><time>2026-04-06T09:48:48.999Z</time></trkpt><trkpt lat="44.38642969357425" lon="8.534100900919762"><ele>218.0</ele><time>2026-04-06T09:48:49.999Z</time></trkpt><trkpt lat="44.38644894141215" lon="8.534241442237388"><ele>219.0</ele><time>2026-04-06T09:48:50.999Z</time></trkpt><trkpt lat="44.38646248208901" lon="8.534404908745863"><ele>220.0</ele><time>2026-04-06T09:48:51.999Z</time></trkpt><trkpt lat="44.38643698833293" lon="8.534570961314285"><ele>220.0</ele><time>2026-04-06T09:48:52.999Z</time></trkpt><trkpt lat="44.38640146245692" lon="8.53473941970921"><ele>220.0</ele><time>2026-04-06T09:48:53.999Z</time></trkpt><trkpt lat="44.386393857380305" lon="8.534909047571631"><ele>220.0</ele><time>2026-04-06T09:48:54.999Z</time></trkpt><trkpt lat="44.386396860272264" lon="8.535081410820927"><ele>220.0</ele><time>2026-04-06T09:48:55.999Z</time></trkpt><trkpt lat="44.38638441471348" lon="8.535250636085085"><ele>220.75</ele><time>2026-04-06T09:48:56.999Z</time></trkpt><trkpt lat="44.38636317420953" lon="8.535413704721986"><ele>221.5</ele><time>2026-04-06T09:48:57.999Z</time></trkpt><trkpt lat="44.38632072021812" lon="8.53557121480991"><ele>222.25</ele><time>2026-04-06T09:48:58.999Z</time></trkpt><trkpt lat="44.38626230460402" lon="8.535723125816151"><ele>223.0</ele><time>2026-04-06T09:48:59.999Z</time></trkpt><trkpt lat="44.38621198150325" lon="8.535866783277845"><ele>218.5</ele><time>2026-04-06T09:49:00.999Z</time></trkpt><trkpt lat="44.38615391166708" lon="8.535998808894972"><ele>214.0</ele><time>2026-04-06T09:49:01.999Z</time></trkpt><trkpt lat="44.38605521218247" lon="8.536079415295607"><ele>209.5</ele><time>2026-04-06T09:49:02.999Z</time></trkpt><trkpt lat="44.3859368105965" lon="8.536108385686685"><ele>205.0</ele><time>2026-04-06T09:49:03.999Z</time></trkpt><trkpt lat="44.38582278956908" lon="8.536117138657893"><ele>205.0</ele><time>2026-04-06T09:49:04.999Z</time></trkpt><trkpt lat="44.38571628544189" lon="8.536160671136896"><ele>205.0</ele><time>2026-04-06T09:49:05.999Z</time></trkpt><trkpt lat="44.38562080475504" lon="8.536231682527433"><ele>205.0</ele><time>2026-04-06T09:49:06.999Z</time></trkpt><trkpt lat="44.385526603904054" lon="8.536306297609483"><ele>205.0</ele><time>2026-04-06T09:49:07.999Z</time></trkpt><trkpt lat="44.38543439039334" lon="8.536371397108875"><ele>205.0</ele><time>2026-04-06T09:49:08.999Z</time></trkpt><trkpt lat="44.38534930271842" lon="8.536459954623533"><ele>203.2</ele><time>2026-04-06T09:49:09.999Z</time></trkpt><trkpt lat="44.38529307619692" lon="8.536580294529053"><ele>201.4</ele><time>2026-04-06T09:49:10.999Z</time></trkpt><trkpt lat="44.385295004576705" lon="8.536741014391518"><ele>199.60000000000002</ele><time>2026-04-06T09:49:11.999Z</time></trkpt><trkpt lat="44.38533915301008" lon="8.53688003665588"><ele>197.8</ele><time>2026-04-06T09:49:12.999Z</time></trkpt><trkpt lat="44.3854037384495" lon="8.536990946676465"><ele>196.0</ele><time>2026-04-06T09:49:13.999Z</time></trkpt><trkpt lat="44.385451183029446" lon="8.537096304141249"><ele>196.0</ele><time>2026-04-06T09:49:14.999Z</time></trkpt><trkpt lat="44.38544354720198" lon="8.537210080562994"><ele>196.0</ele><time>2026-04-06T09:49:15.999Z</time></trkpt><trkpt lat="44.38537689087552" lon="8.537309159352368"><ele>196.0</ele><time>2026-04-06T09:49:16.999Z</time></trkpt><trkpt lat="44.38526959428304" lon="8.537360138657432"><ele>196.0</ele><time>2026-04-06T09:49:17.999Z</time></trkpt><trkpt lat="44.385163044002155" lon="8.537368260072267"><ele>196.0</ele><time>2026-04-06T09:49:18.999Z</time></trkpt><trkpt lat="44.38509893667688" lon="8.537432688786504"><ele>196.0</ele><time>2026-04-06T09:49:19.999Z</time></trkpt><trkpt lat="44.38508944124879" lon="8.537557611135341"><ele>196.0</ele><time>2026-04-06T09:49:20.999Z</time></trkpt><trkpt lat="44.38511283336984" lon="8.537709372081911"><ele>196.0</ele><time>2026-04-06T09:49:21.999Z</time></trkpt><trkpt lat="44.385136821751644" lon="8.537855715103177"><ele>196.0</ele><time>2026-04-06T09:49:22.999Z</time></trkpt><trkpt lat="44.385148589637005" lon="8.538001699230968"><ele>196.0</ele><time>2026-04-06T09:49:23.999Z</time></trkpt><trkpt lat="44.38514688476288" lon="8.538138912938448"><ele>196.20000000000002</ele><time>2026-04-06T09:49:24.999Z</time></trkpt><trkpt lat="44.38510156039688" lon="8.538262940232215"><ele>196.4</ele><time>2026-04-06T09:49:25.999Z</time></trkpt><trkpt lat="44.3850236775173" lon="8.538371347226521"><ele>196.6</ele><time>2026-04-06T09:49:26.999Z</time></trkpt><trkpt lat="44.38495408174315" lon="8.538503273687015"><ele>196.8</ele><time>2026-04-06T09:49:27.999Z</time></trkpt><trkpt lat="44.38492006565503" lon="8.538647014413167"><ele>197.0</ele><time>2026-04-06T09:49:28.999Z</time></trkpt><trkpt lat="44.38489083886564" lon="8.538782580948398"><ele>195.2</ele><time>2026-04-06T09:49:29.999Z</time></trkpt><trkpt lat="44.38485593465837" lon="8.538919534277353"><ele>193.39999999999998</ele><time>2026-04-06T09:49:30.999Z</time></trkpt><trkpt lat="44.384850780902916" lon="8.539036585077904"><ele>191.60000000000002</ele><time>2026-04-06T09:49:31.999Z</time></trkpt><trkpt lat="44.384882698912975" lon="8.539166558643053"><ele>189.8</ele><time>2026-04-06T09:49:32.999Z</time></trkpt><trkpt lat="44.38494403111072" lon="8.539277247870052"><ele>188.0</ele><time>2026-04-06T09:49:33.999Z</time></trkpt><trkpt lat="44.38503265140281" lon="8.539356013884278"><ele>188.0</ele><time>2026-04-06T09:49:34.999Z</time></trkpt><trkpt lat="44.3851350270864" lon="8.539396638071246"><ele>188.0</ele><time>2026-04-06T09:49:35.999Z</time></trkpt><trkpt lat="44.385223366176646" lon="8.539448140346451"><ele>188.0</ele><time>2026-04-06T09:49:36.998Z</time></trkpt><trkpt lat="44.38528021122446" lon="8.539528861278118"><ele>188.0</ele><time>2026-04-06T09:49:37.998Z</time></trkpt><trkpt lat="44.38528385397418" lon="8.539671636166645"><ele>188.0</ele><time>2026-04-06T09:49:38.998Z</time></trkpt><trkpt lat="44.38527498879356" lon="8.539807457586734"><ele>189.8</ele><time>2026-04-06T09:49:39.998Z</time></trkpt><trkpt lat="44.38529948173637" lon="8.539914702352332"><ele>191.60000000000002</ele><time>2026-04-06T09:49:40.998Z</time></trkpt><trkpt lat="44.38538231451094" lon="8.539977561003484"><ele>193.39999999999998</ele><time>2026-04-06T09:49:41.998Z</time></trkpt><trkpt lat="44.38549126441182" lon="8.53999586282879"><ele>195.2</ele><time>2026-04-06T09:49:42.998Z</time></trkpt><trkpt lat="44.385596465137205" lon="8.54001281536051"><ele>197.0</ele><time>2026-04-06T09:49:43.998Z</time></trkpt><trkpt lat="44.38569534584971" lon="8.540032044677808"><ele>197.0</ele><time>2026-04-06T09:49:44.998Z</time></trkpt><trkpt lat="44.385795404246" lon="8.54007053270713"><ele>197.0</ele><time>2026-04-06T09:49:45.998Z</time></trkpt><trkpt lat="44.38586491961764" lon="8.54016510714965"><ele>197.0</ele><time>2026-04-06T09:49:46.998Z</time></trkpt><trkpt lat="44.38589735591159" lon="8.540307151464122"><ele>197.0</ele><time>2026-04-06T09:49:47.998Z</time></trkpt><trkpt lat="44.3859481056038" lon="8.54042041079357"><ele>197.0</ele><time>2026-04-06T09:49:48.998Z</time></trkpt><trkpt lat="44.386044832676056" lon="8.540474907271415"><ele>194.75</ele><time>2026-04-06T09:49:49.998Z</time></trkpt><trkpt lat="44.38616924218543" lon="8.540447805306282"><ele>192.5</ele><time>2026-04-06T09:49:50.998Z</time></trkpt><trkpt lat="44.38628577967984" lon="8.540403934004187"><ele>190.25</ele><time>2026-04-06T09:49:51.998Z</time></trkpt><trkpt lat="44.386392054565086" lon="8.540398377562717"><ele>188.0</ele><time>2026-04-06T09:49:52.998Z</time></trkpt><trkpt lat="44.38649296061253" lon="8.540440969338079"><ele>188.0</ele><time>2026-04-06T09:49:53.998Z</time></trkpt><trkpt lat="44.38658381027657" lon="8.540486700449316"><ele>188.0</ele><time>2026-04-06T09:49:54.998Z</time></trkpt><trkpt lat="44.386658805987494" lon="8.540516614370599"><ele>188.0</ele><time>2026-04-06T09:49:55.998Z</time></trkpt><trkpt lat="44.38672205879427" lon="8.540585024874874"><ele>188.0</ele><time>2026-04-06T09:49:56.998Z</time></trkpt><trkpt lat="44.38675135078197" lon="8.54068520609463"><ele>188.0</ele><time>2026-04-06T09:49:57.998Z</time></trkpt><trkpt lat="44.38674451115049" lon="8.540829470873302"><ele>188.0</ele><time>2026-04-06T09:49:58.998Z</time></trkpt><trkpt lat="44.38668797896017" lon="8.540954196460458"><ele>188.0</ele><time>2026-04-06T09:49:59.998Z</time></trkpt><trkpt lat="44.38658963143896" lon="8.541016112777232"><ele>188.0</ele><time>2026-04-06T09:50:00.998Z</time></trkpt><trkpt lat="44.38648746610244" lon="8.541020572088549"><ele>188.0</ele><time>2026-04-06T09:50:01.998Z</time></trkpt><trkpt lat="44.38638128319246" lon="8.540991132436094"><ele>188.0</ele><time>2026-04-06T09:50:02.998Z</time></trkpt><trkpt lat="44.38627482460134" lon="8.540996163024849"><ele>188.0</ele><time>2026-04-06T09:50:04Z</time></trkpt><trkpt lat="44.3861735791046" lon="8.541060920266565"><ele>185.5</ele><time>2026-04-06T09:50:05Z</time></trkpt><trkpt lat="44.386076028591305" lon="8.541125261600325"><ele>183.0</ele><time>2026-04-06T09:50:06Z</time></trkpt><trkpt lat="44.38596486223286" lon="8.54117599883114"><ele>180.5</ele><time>2026-04-06T09:50:07Z</time></trkpt><trkpt lat="44.38584358575305" lon="8.541184218436511"><ele>178.0</ele><time>2026-04-06T09:50:08Z</time></trkpt><trkpt lat="44.38572945645443" lon="8.541159461724993"><ele>178.0</ele><time>2026-04-06T09:50:09Z</time></trkpt><trkpt lat="44.38561963049798" lon="8.541148696403026"><ele>178.0</ele><time>2026-04-06T09:50:10Z</time></trkpt><trkpt lat="44.38551122927319" lon="8.541172354198006"><ele>178.0</ele><time>2026-04-06T09:50:11Z</time></trkpt><trkpt lat="44.3854145858882" lon="8.54121378164062"><ele>178.0</ele><time>2026-04-06T09:50:12Z</time></trkpt><trkpt lat="44.38533360358489" lon="8.541273148942683"><ele>178.0</ele><time>2026-04-06T09:50:13Z</time></trkpt><trkpt lat="44.38526750740539" lon="8.541386484109754"><ele>175.0</ele><time>2026-04-06T09:50:14Z</time></trkpt><trkpt lat="44.3852602140599" lon="8.541555522846402"><ele>172.0</ele><time>2026-04-06T09:50:15Z</time></trkpt><trkpt lat="44.385289443534376" lon="8.541723028853147"><ele>169.0</ele><time>2026-04-06T09:50:16Z</time></trkpt><trkpt lat="44.38533900420248" lon="8.541873668382623"><ele>166.0</ele><time>2026-04-06T09:50:17Z</time></trkpt><trkpt lat="44.385347314409955" lon="8.54203279753836"><ele>169.25</ele><time>2026-04-06T09:50:18Z</time></trkpt><trkpt lat="44.38529667487033" lon="8.542185613964193"><ele>172.5</ele><time>2026-04-06T09:50:19Z</time></trkpt><trkpt lat="44.38520793049736" lon="8.542317158194379"><ele>175.75</ele><time>2026-04-06T09:50:20Z</time></trkpt><trkpt lat="44.38509257435801" lon="8.54239702547686"><ele>179.0</ele><time>2026-04-06T09:50:21Z</time></trkpt><trkpt lat="44.38497639740239" lon="8.542446156181095"><ele>179.0</ele><time>2026-04-06T09:50:22Z</time></trkpt><trkpt lat="44.384860795040865" lon="8.542488724409981"><ele>179.0</ele><time>2026-04-06T09:50:23Z</time></trkpt><trkpt lat="44.38475950505121" lon="8.542532855587513"><ele>179.0</ele><time>2026-04-06T09:50:24Z</time></trkpt><trkpt lat="44.38466734518439" lon="8.54259103395092"><ele>179.0</ele><time>2026-04-06T09:50:25Z</time></trkpt><trkpt lat="44.38458331956175" lon="8.542680840175628"><ele>179.0</ele><time>2026-04-06T09:50:26Z</time></trkpt><trkpt lat="44.38452295777353" lon="8.542812426959022"><ele>174.25</ele><time>2026-04-06T09:50:27Z</time></trkpt><trkpt lat="44.38447249905895" lon="8.542960763984416"><ele>169.5</ele><time>2026-04-06T09:50:28Z</time></trkpt><trkpt lat="44.38442359194598" lon="8.543098188497794"><ele>164.75</ele><time>2026-04-06T09:50:29Z</time></trkpt><trkpt lat="44.384371338735235" lon="8.543234299555202"><ele>160.0</ele><time>2026-04-06T09:50:30Z</time></trkpt><trkpt lat="44.3843413638595" lon="8.543390416542085"><ele>160.0</ele><time>2026-04-06T09:50:31Z</time></trkpt><trkpt lat="44.38433509622983" lon="8.543570147773528"><ele>160.0</ele><time>2026-04-06T09:50:32Z</time></trkpt><trkpt lat="44.38430377492783" lon="8.543726606654843"><ele>160.0</ele><time>2026-04-06T09:50:33Z</time></trkpt><trkpt lat="44.38425989942693" lon="8.543869119221046"><ele>160.0</ele><time>2026-04-06T09:50:34Z</time></trkpt><trkpt lat="44.384254412448605" lon="8.544017421963828"><ele>161.25</ele><time>2026-04-06T09:50:35Z</time></trkpt><trkpt lat="44.384288004773275" lon="8.544173313608793"><ele>162.5</ele><time>2026-04-06T09:50:36Z</time></trkpt><trkpt lat="44.38434465007987" lon="8.544320604704657"><ele>163.75</ele><time>2026-04-06T09:50:37Z</time></trkpt><trkpt lat="44.38439947292451" lon="8.544460702862057"><ele>165.0</ele><time>2026-04-06T09:50:38Z</time></trkpt><trkpt lat="44.38447159399303" lon="8.544587531498063"><ele>165.8</ele><time>2026-04-06T09:50:39Z</time></trkpt><trkpt lat="44.38456606649681" lon="8.544685677092513"><ele>166.6</ele><time>2026-04-06T09:50:40Z</time></trkpt><trkpt lat="44.384665420909016" lon="8.544757319661962"><ele>167.39999999999998</ele><time>2026-04-06T09:50:40.999Z</time></trkpt><trkpt lat="44.384746069081984" lon="8.5448552790661"><ele>168.2</ele><time>2026-04-06T09:50:41.999Z</time></trkpt><trkpt lat="44.38482405660038" lon="8.544963150240411"><ele>169.0</ele><time>2026-04-06T09:50:42.999Z</time></trkpt><trkpt lat="44.384916859517" lon="8.545040338384696"><ele>169.0</ele><time>2026-04-06T09:50:43.999Z</time></trkpt><trkpt lat="44.38501864520379" lon="8.545097093604117"><ele>169.0</ele><time>2026-04-06T09:50:44.999Z</time></trkpt><trkpt lat="44.38512145703258" lon="8.545147691469914"><ele>169.0</ele><time>2026-04-06T09:50:45.999Z</time></trkpt><trkpt lat="44.38522500262581" lon="8.545197387918432"><ele>169.0</ele><time>2026-04-06T09:50:46.999Z</time></trkpt><trkpt lat="44.38532600526473" lon="8.545237988622508"><ele>169.0</ele><time>2026-04-06T09:50:47.999Z</time></trkpt><trkpt lat="44.385428612080055" lon="8.545263842951474"><ele>168.0</ele><time>2026-04-06T09:50:48.999Z</time></trkpt><trkpt lat="44.38552314306487" lon="8.545277467151159"><ele>167.0</ele><time>2026-04-06T09:50:49.999Z</time></trkpt><trkpt lat="44.38560263186973" lon="8.545242270583028"><ele>166.0</ele><time>2026-04-06T09:50:50.999Z</time></trkpt><trkpt lat="44.385662915647046" lon="8.545139335568308"><ele>165.0</ele><time>2026-04-06T09:50:51.999Z</time></trkpt><trkpt lat="44.38570656617978" lon="8.544999779107378"><ele>164.0</ele><time>2026-04-06T09:50:52.999Z</time></trkpt><trkpt lat="44.38576362897236" lon="8.544859175656976"><ele>164.0</ele><time>2026-04-06T09:50:53.999Z</time></trkpt><trkpt lat="44.385845484198924" lon="8.544756870555123"><ele>164.0</ele><time>2026-04-06T09:50:54.999Z</time></trkpt><trkpt lat="44.38593494526394" lon="8.544681582368467"><ele>164.0</ele><time>2026-04-06T09:50:55.999Z</time></trkpt><trkpt lat="44.386015616765285" lon="8.544611291233705"><ele>164.0</ele><time>2026-04-06T09:50:56.999Z</time></trkpt><trkpt lat="44.38608114212594" lon="8.544544431398533"><ele>164.0</ele><time>2026-04-06T09:50:57.999Z</time></trkpt><trkpt lat="44.38614350880673" lon="8.544503596556849"><ele>164.0</ele><time>2026-04-06T09:50:58.999Z</time></trkpt><trkpt lat="44.386236301345434" lon="8.544576257875839"><ele>164.0</ele><time>2026-04-06T09:51:00.999Z</time></trkpt><trkpt lat="44.38624232668845" lon="8.544685425790668"><ele>164.0</ele><time>2026-04-06T09:51:01.999Z</time></trkpt><trkpt lat="44.38620598338841" lon="8.544768153543904"><ele>164.0</ele><time>2026-04-06T09:51:02.999Z</time></trkpt><trkpt lat="44.38613708046454" lon="8.544826040693168"><ele>164.0</ele><time>2026-04-06T09:51:03.999Z</time></trkpt><trkpt lat="44.38604866778707" lon="8.544880084579454"><ele>164.0</ele><time>2026-04-06T09:51:04.999Z</time></trkpt><trkpt lat="44.38596414414179" lon="8.544958595654819"><ele>164.0</ele><time>2026-04-06T09:51:05.999Z</time></trkpt><trkpt lat="44.38589613990164" lon="8.545051831209035"><ele>164.0</ele><time>2026-04-06T09:51:06.999Z</time></trkpt><trkpt lat="44.38583806359303" lon="8.545161181567344"><ele>164.0</ele><time>2026-04-06T09:51:07.999Z</time></trkpt><trkpt lat="44.385804422261096" lon="8.545302959860711"><ele>164.0</ele><time>2026-04-06T09:51:08.999Z</time></trkpt><trkpt lat="44.38580586438927" lon="8.545463366122817"><ele>164.0</ele><time>2026-04-06T09:51:09.999Z</time></trkpt><trkpt lat="44.38583306781553" lon="8.545613263390651"><ele>161.5</ele><time>2026-04-06T09:51:10.999Z</time></trkpt><trkpt lat="44.38588316902726" lon="8.545746320904223"><ele>159.0</ele><time>2026-04-06T09:51:11.999Z</time></trkpt><trkpt lat="44.3859660985523" lon="8.545851245170775"><ele>156.5</ele><time>2026-04-06T09:51:12.999Z</time></trkpt><trkpt lat="44.38608419230193" lon="8.545938419670312"><ele>154.0</ele><time>2026-04-06T09:51:13.999Z</time></trkpt><trkpt lat="44.386235894282954" lon="8.546001789978245"><ele>153.25</ele><time>2026-04-06T09:51:14.999Z</time></trkpt><trkpt lat="44.38639809272101" lon="8.546036439451646"><ele>152.5</ele><time>2026-04-06T09:51:15.999Z</time></trkpt><trkpt lat="44.38654226832317" lon="8.54608201888066"><ele>151.75</ele><time>2026-04-06T09:51:16.999Z</time></trkpt><trkpt lat="44.38666441476914" lon="8.546146515141396"><ele>151.0</ele><time>2026-04-06T09:51:17.999Z</time></trkpt><trkpt lat="44.38678408188697" lon="8.54622200161149"><ele>150.6</ele><time>2026-04-06T09:51:18.999Z</time></trkpt><trkpt lat="44.38689338358525" lon="8.546279758247564"><ele>150.2</ele><time>2026-04-06T09:51:19.999Z</time></trkpt><trkpt lat="44.386996958852684" lon="8.54632594849115"><ele>149.8</ele><time>2026-04-06T09:51:20.999Z</time></trkpt><trkpt lat="44.387100920670854" lon="8.546370718796146"><ele>149.4</ele><time>2026-04-06T09:51:21.999Z</time></trkpt><trkpt lat="44.38720133968014" lon="8.546416838526646"><ele>149.0</ele><time>2026-04-06T09:51:22.999Z</time></trkpt><trkpt lat="44.38730085001201" lon="8.54645162643985"><ele>149.0</ele><time>2026-04-06T09:51:23.999Z</time></trkpt><trkpt lat="44.38740151192283" lon="8.54649779977638"><ele>149.0</ele><time>2026-04-06T09:51:24.999Z</time></trkpt><trkpt lat="44.3874959064618" lon="8.54654248601054"><ele>149.0</ele><time>2026-04-06T09:51:25.999Z</time></trkpt><trkpt lat="44.38757205709007" lon="8.546596952341227"><ele>149.0</ele><time>2026-04-06T09:51:26.999Z</time></trkpt><trkpt lat="44.38760819831186" lon="8.54667874612466"><ele>149.0</ele><time>2026-04-06T09:51:27.999Z</time></trkpt><trkpt lat="44.3876025928834" lon="8.546787268802857"><ele>149.0</ele><time>2026-04-06T09:51:28.999Z</time></trkpt><trkpt lat="44.38756826978695" lon="8.546881199963533"><ele>149.0</ele><time>2026-04-06T09:51:29.999Z</time></trkpt><trkpt lat="44.38749211374599" lon="8.546947156191122"><ele>149.0</ele><time>2026-04-06T09:51:30.999Z</time></trkpt><trkpt lat="44.38739402163436" lon="8.546960495062844"><ele>149.0</ele><time>2026-04-06T09:51:31.999Z</time></trkpt><trkpt lat="44.38730079739672" lon="8.546936519169986"><ele>149.0</ele><time>2026-04-06T09:51:32.999Z</time></trkpt><trkpt lat="44.38720990657737" lon="8.546925956863765"><ele>149.0</ele><time>2026-04-06T09:51:33.999Z</time></trkpt><trkpt lat="44.38713354434546" lon="8.54692899849015"><ele>148.16666666666666</ele><time>2026-04-06T09:51:34.999Z</time></trkpt><trkpt lat="44.38706079981027" lon="8.546933601182745"><ele>147.33333333333331</ele><time>2026-04-06T09:51:35.999Z</time></trkpt><trkpt lat="44.38699128221858" lon="8.546942909401515"><ele>146.5</ele><time>2026-04-06T09:51:36.999Z</time></trkpt><trkpt lat="44.38692490544486" lon="8.546974817967698"><ele>145.66666666666666</ele><time>2026-04-06T09:51:37.999Z</time></trkpt><trkpt lat="44.38686624922608" lon="8.547041024592813"><ele>144.83333333333334</ele><time>2026-04-06T09:51:38.999Z</time></trkpt><trkpt lat="44.38685931951051" lon="8.547153395505475"><ele>144.0</ele><time>2026-04-06T09:51:39.999Z</time></trkpt><trkpt lat="44.386892111397245" lon="8.547259802434283"><ele>142.6</ele><time>2026-04-06T09:51:40.999Z</time></trkpt><trkpt lat="44.38696944337262" lon="8.547330851101473"><ele>141.2</ele><time>2026-04-06T09:51:41.999Z</time></trkpt><trkpt lat="44.387054612495646" lon="8.547345671098004"><ele>139.79999999999998</ele><time>2026-04-06T09:51:42.999Z</time></trkpt><trkpt lat="44.387120686632905" lon="8.547276191388544"><ele>138.4</ele><time>2026-04-06T09:51:45.999Z</time></trkpt><trkpt lat="44.38719326988941" lon="8.547248690641876"><ele>137.0</ele><time>2026-04-06T09:51:47.998Z</time></trkpt><trkpt lat="44.387313916974605" lon="8.547253118595105"><ele>137.0</ele><time>2026-04-06T09:51:49.998Z</time></trkpt><trkpt lat="44.38743351081047" lon="8.54732918427302"><ele>137.0</ele><time>2026-04-06T09:51:51.998Z</time></trkpt><trkpt lat="44.38753606219696" lon="8.547440710235634"><ele>137.0</ele><time>2026-04-06T09:51:53.998Z</time></trkpt><trkpt lat="44.38756762138878" lon="8.547522063757148"><ele>137.0</ele><time>2026-04-06T09:51:54.998Z</time></trkpt><trkpt lat="44.38758131587369" lon="8.547614521680895"><ele>137.0</ele><time>2026-04-06T09:51:55.998Z</time></trkpt><trkpt lat="44.38759320419014" lon="8.547706297017324"><ele>137.0</ele><time>2026-04-06T09:51:56.998Z</time></trkpt><trkpt lat="44.387608923269816" lon="8.547796338433951"><ele>137.0</ele><time>2026-04-06T09:51:57.998Z</time></trkpt><trkpt lat="44.387630794240586" lon="8.547952610323938"><ele>137.0</ele><time>2026-04-06T09:51:59.998Z</time></trkpt><trkpt lat="44.387653909166765" lon="8.548094454244769"><ele>137.0</ele><time>2026-04-06T09:52:01.998Z</time></trkpt><trkpt lat="44.3876718967732" lon="8.548237999234173"><ele>137.0</ele><time>2026-04-06T09:52:03.998Z</time></trkpt><trkpt lat="44.38768277098251" lon="8.548407639562082"><ele>133.79999999999998</ele><time>2026-04-06T09:52:05.998Z</time></trkpt><trkpt lat="44.38769353006429" lon="8.548496970646589"><ele>130.6</ele><time>2026-04-06T09:52:06.998Z</time></trkpt><trkpt lat="44.387737438823144" lon="8.548663965702856"><ele>127.39999999999999</ele><time>2026-04-06T09:52:08.998Z</time></trkpt><trkpt lat="44.38779651355927" lon="8.548806379524505"><ele>124.19999999999999</ele><time>2026-04-06T09:52:11Z</time></trkpt><trkpt lat="44.38781743120382" lon="8.548908932526913"><ele>121.0</ele><time>2026-04-06T09:52:13Z</time></trkpt><trkpt lat="44.387807565826506" lon="8.549002886723205"><ele>120.14285714285714</ele><time>2026-04-06T09:52:16Z</time></trkpt><trkpt lat="44.38780931502529" lon="8.549110056855739"><ele>119.28571428571428</ele><time>2026-04-06T09:52:19Z</time></trkpt><trkpt lat="44.387790527932005" lon="8.54920422881547"><ele>118.42857142857142</ele><time>2026-04-06T09:52:21Z</time></trkpt><trkpt lat="44.38774858995574" lon="8.549272986241201"><ele>117.57142857142856</ele><time>2026-04-06T09:52:23Z</time></trkpt><trkpt lat="44.38770917530855" lon="8.549345490687623"><ele>116.71428571428571</ele><time>2026-04-06T09:52:25Z</time></trkpt><trkpt lat="44.38765440412342" lon="8.549439097899004"><ele>115.85714285714283</ele><time>2026-04-06T09:52:28Z</time></trkpt><trkpt lat="44.387580349624216" lon="8.549499248872818"><ele>114.99999999999999</ele><time>2026-04-06T09:52:30Z</time></trkpt><trkpt lat="44.3874865023878" lon="8.549519747612502"><ele>116.6</ele><time>2026-04-06T09:52:32Z</time></trkpt><trkpt lat="44.387412373595694" lon="8.549542996662089"><ele>118.2</ele><time>2026-04-06T09:52:34Z</time></trkpt><trkpt lat="44.387337890723785" lon="8.549557983500348"><ele>119.80000000000001</ele><time>2026-04-06T09:52:36Z</time></trkpt><trkpt lat="44.387248011379135" lon="8.549580306407796"><ele>121.4</ele><time>2026-04-06T09:52:38Z</time></trkpt><trkpt lat="44.38714398664898" lon="8.54961262655296"><ele>123.0</ele><time>2026-04-06T09:52:40Z</time></trkpt><trkpt lat="44.38704152096915" lon="8.549640992411915"><ele>123.0</ele><time>2026-04-06T09:52:42Z</time></trkpt><trkpt lat="44.38693373109938" lon="8.549671357709041"><ele>123.0</ele><time>2026-04-06T09:52:44Z</time></trkpt><trkpt lat="44.386870530091336" lon="8.549685215205518"><ele>123.0</ele><time>2026-04-06T09:52:44.999Z</time></trkpt><trkpt lat="44.38680650503621" lon="8.549694703048134"><ele>123.0</ele><time>2026-04-06T09:52:45.999Z</time></trkpt><trkpt lat="44.38668354822211" lon="8.549725689392405"><ele>123.0</ele><time>2026-04-06T09:52:47.999Z</time></trkpt><trkpt lat="44.38662158073644" lon="8.549742695775427"><ele>123.0</ele><time>2026-04-06T09:52:48.999Z</time></trkpt><trkpt lat="44.38655501584943" lon="8.54975688810298"><ele>123.0</ele><time>2026-04-06T09:52:49.999Z</time></trkpt><trkpt lat="44.386490767654486" lon="8.54976227699682"><ele>123.0</ele><time>2026-04-06T09:52:50.999Z</time></trkpt><trkpt lat="44.38637492074263" lon="8.54976522935718"><ele>123.0</ele><time>2026-04-06T09:52:52.999Z</time></trkpt><trkpt lat="44.386311501907095" lon="8.549770180161504"><ele>123.0</ele><time>2026-04-06T09:52:53.999Z</time></trkpt><trkpt lat="44.38624744796781" lon="8.549765716058044"><ele>123.0</ele><time>2026-04-06T09:52:54.999Z</time></trkpt><trkpt lat="44.386179684387486" lon="8.549747913444298"><ele>123.0</ele><time>2026-04-06T09:52:55.999Z</time></trkpt><trkpt lat="44.38610632063989" lon="8.549733569743243"><ele>121.71428571428572</ele><time>2026-04-06T09:52:56.999Z</time></trkpt><trkpt lat="44.38603799762036" lon="8.549714788088604"><ele>120.42857142857143</ele><time>2026-04-06T09:52:57.999Z</time></trkpt><trkpt lat="44.385976231091874" lon="8.549689367315782"><ele>119.14285714285714</ele><time>2026-04-06T09:52:58.999Z</time></trkpt><trkpt lat="44.38591290760321" lon="8.549669821821885"><ele>117.85714285714286</ele><time>2026-04-06T09:52:59.999Z</time></trkpt><trkpt lat="44.38584745523365" lon="8.549657748188116"><ele>116.57142857142856</ele><time>2026-04-06T09:53:00.999Z</time></trkpt><trkpt lat="44.38577268907065" lon="8.549648669707269"><ele>115.28571428571428</ele><time>2026-04-06T09:53:01.999Z</time></trkpt><trkpt lat="44.38569179142176" lon="8.54967005648331"><ele>114.0</ele><time>2026-04-06T09:53:02.999Z</time></trkpt><trkpt lat="44.38562362193976" lon="8.549736162142263"><ele>114.0</ele><time>2026-04-06T09:53:03.999Z</time></trkpt><trkpt lat="44.38556654064041" lon="8.549819476861085"><ele>114.0</ele><time>2026-04-06T09:53:04.999Z</time></trkpt><trkpt lat="44.385507942601045" lon="8.549911328242171"><ele>114.0</ele><time>2026-04-06T09:53:05.999Z</time></trkpt><trkpt lat="44.38544487546332" lon="8.550010848797086"><ele>114.0</ele><time>2026-04-06T09:53:06.999Z</time></trkpt><trkpt lat="44.38538593376328" lon="8.550116815625469"><ele>114.0</ele><time>2026-04-06T09:53:07.999Z</time></trkpt><trkpt lat="44.38532729408992" lon="8.550226214426132"><ele>111.2</ele><time>2026-04-06T09:53:08.999Z</time></trkpt><trkpt lat="44.38528424049706" lon="8.550355192469071"><ele>108.4</ele><time>2026-04-06T09:53:09.999Z</time></trkpt><trkpt lat="44.38524185403116" lon="8.55049332909032"><ele>105.6</ele><time>2026-04-06T09:53:10.999Z</time></trkpt><trkpt lat="44.385196942959254" lon="8.550633603760874"><ele>102.8</ele><time>2026-04-06T09:53:11.999Z</time></trkpt><trkpt lat="44.38514806921711" lon="8.5507766477663"><ele>100.0</ele><time>2026-04-06T09:53:12.999Z</time></trkpt><trkpt lat="44.385099721951214" lon="8.550926181865448"><ele>100.0</ele><time>2026-04-06T09:53:13.999Z</time></trkpt><trkpt lat="44.385063287949635" lon="8.551062702613866"><ele>100.0</ele><time>2026-04-06T09:53:14.999Z</time></trkpt><trkpt lat="44.385013624621294" lon="8.551206082455815"><ele>100.0</ele><time>2026-04-06T09:53:15.999Z</time></trkpt><trkpt lat="44.38497291815021" lon="8.551325700099973"><ele>100.0</ele><time>2026-04-06T09:53:16.999Z</time></trkpt><trkpt lat="44.384932331196204" lon="8.551443953918954"><ele>100.0</ele><time>2026-04-06T09:53:17.999Z</time></trkpt><trkpt lat="44.384892944954686" lon="8.55155819955077"><ele>100.2</ele><time>2026-04-06T09:53:18.999Z</time></trkpt><trkpt lat="44.38485010825137" lon="8.551686492391912"><ele>100.4</ele><time>2026-04-06T09:53:19.999Z</time></trkpt><trkpt lat="44.38480452036981" lon="8.551820052197359"><ele>100.6</ele><time>2026-04-06T09:53:20.999Z</time></trkpt><trkpt lat="44.38475974822593" lon="8.551963212629499"><ele>100.8</ele><time>2026-04-06T09:53:21.999Z</time></trkpt><trkpt lat="44.384710039513344" lon="8.552116869279011"><ele>101.0</ele><time>2026-04-06T09:53:22.999Z</time></trkpt><trkpt lat="44.384658017746915" lon="8.552278187744323"><ele>99.5</ele><time>2026-04-06T09:53:23.999Z</time></trkpt><trkpt lat="44.3846084502131" lon="8.552445182693326"><ele>98.0</ele><time>2026-04-06T09:53:24.999Z</time></trkpt><trkpt lat="44.38454981178702" lon="8.552626094700603"><ele>96.5</ele><time>2026-04-06T09:53:25.999Z</time></trkpt><trkpt lat="44.384490390508006" lon="8.552820689619457"><ele>95.0</ele><time>2026-04-06T09:53:26.999Z</time></trkpt><trkpt lat="44.38442839474889" lon="8.553012103138292"><ele>94.0</ele><time>2026-04-06T09:53:27.999Z</time></trkpt><trkpt lat="44.384358730588644" lon="8.5531987905403"><ele>93.0</ele><time>2026-04-06T09:53:28.999Z</time></trkpt><trkpt lat="44.38428292560404" lon="8.553391080806183"><ele>92.0</ele><time>2026-04-06T09:53:29.999Z</time></trkpt><trkpt lat="44.38420735587643" lon="8.553587871294008"><ele>91.75</ele><time>2026-04-06T09:53:30.999Z</time></trkpt><trkpt lat="44.38413373869839" lon="8.553774073617097"><ele>91.5</ele><time>2026-04-06T09:53:31.999Z</time></trkpt><trkpt lat="44.3840716978656" lon="8.553950625820024"><ele>91.25</ele><time>2026-04-06T09:53:32.999Z</time></trkpt><trkpt lat="44.38400575049232" lon="8.554130052238909"><ele>91.0</ele><time>2026-04-06T09:53:33.999Z</time></trkpt><trkpt lat="44.38393146899879" lon="8.554299380495335"><ele>91.0</ele><time>2026-04-06T09:53:34.999Z</time></trkpt><trkpt lat="44.38384561790999" lon="8.554453709564825"><ele>91.0</ele><time>2026-04-06T09:53:35.999Z</time></trkpt><trkpt lat="44.38374980406024" lon="8.554580582299646"><ele>91.0</ele><time>2026-04-06T09:53:36.999Z</time></trkpt><trkpt lat="44.38365177249978" lon="8.554707976452926"><ele>91.0</ele><time>2026-04-06T09:53:37.999Z</time></trkpt><trkpt lat="44.38356319840332" lon="8.554822063223533"><ele>90.5</ele><time>2026-04-06T09:53:38.999Z</time></trkpt><trkpt lat="44.383473319692065" lon="8.554953926718408"><ele>90.0</ele><time>2026-04-06T09:53:39.999Z</time></trkpt><trkpt lat="44.38338927252395" lon="8.555080812708889"><ele>89.5</ele><time>2026-04-06T09:53:40.999Z</time></trkpt><trkpt lat="44.383296986397745" lon="8.555208144658952"><ele>89.0</ele><time>2026-04-06T09:53:41.999Z</time></trkpt><trkpt lat="44.38321351006435" lon="8.555333416859337"><ele>88.5</ele><time>2026-04-06T09:53:42.999Z</time></trkpt><trkpt lat="44.38313921723252" lon="8.55547000011939"><ele>88.0</ele><time>2026-04-06T09:53:43.999Z</time></trkpt><trkpt lat="44.38306132401373" lon="8.555596239769633"><ele>87.5</ele><time>2026-04-06T09:53:44.999Z</time></trkpt><trkpt lat="44.38298567068512" lon="8.555716176918665"><ele>87.0</ele><time>2026-04-06T09:53:45.999Z</time></trkpt><trkpt lat="44.38291677238382" lon="8.555838171202362"><ele>87.0</ele><time>2026-04-06T09:53:46.999Z</time></trkpt><trkpt lat="44.38285031264343" lon="8.555973959979829"><ele>87.0</ele><time>2026-04-06T09:53:47.999Z</time></trkpt><trkpt lat="44.38278568544414" lon="8.556116869171449"><ele>87.0</ele><time>2026-04-06T09:53:48.999Z</time></trkpt><trkpt lat="44.38272278773405" lon="8.556264160548855"><ele>87.0</ele><time>2026-04-06T09:53:49.999Z</time></trkpt><trkpt lat="44.382666852196714" lon="8.556419991350008"><ele>86.5</ele><time>2026-04-06T09:53:50.999Z</time></trkpt><trkpt lat="44.38261703721013" lon="8.55658692958201"><ele>86.0</ele><time>2026-04-06T09:53:51.999Z</time></trkpt><trkpt lat="44.38257768752924" lon="8.556765614659007"><ele>85.5</ele><time>2026-04-06T09:53:52.999Z</time></trkpt><trkpt lat="44.382546613407726" lon="8.556950860825742"><ele>85.0</ele><time>2026-04-06T09:53:53.999Z</time></trkpt><trkpt lat="44.38251397672596" lon="8.5571344181689"><ele>84.5</ele><time>2026-04-06T09:53:54.998Z</time></trkpt><trkpt lat="44.38247617963816" lon="8.557314813306126"><ele>84.0</ele><time>2026-04-06T09:53:55.998Z</time></trkpt><trkpt lat="44.38243057566154" lon="8.557500427042966"><ele>83.5</ele><time>2026-04-06T09:53:56.998Z</time></trkpt><trkpt lat="44.38239298133198" lon="8.557681652385108"><ele>83.0</ele><time>2026-04-06T09:53:57.998Z</time></trkpt><trkpt lat="44.382356761575785" lon="8.557859362478103"><ele>84.5</ele><time>2026-04-06T09:53:58.998Z</time></trkpt><trkpt lat="44.38231962285561" lon="8.558037467426573"><ele>86.0</ele><time>2026-04-06T09:53:59.998Z</time></trkpt><trkpt lat="44.38228457302052" lon="8.558204891177327"><ele>87.5</ele><time>2026-04-06T09:54:00.998Z</time></trkpt><trkpt lat="44.382252639866834" lon="8.558362982986436"><ele>89.0</ele><time>2026-04-06T09:54:01.998Z</time></trkpt><trkpt lat="44.382219293466186" lon="8.558510449918847"><ele>89.0</ele><time>2026-04-06T09:54:02.998Z</time></trkpt><trkpt lat="44.38218364140011" lon="8.558651097175069"><ele>89.0</ele><time>2026-04-06T09:54:03.998Z</time></trkpt><trkpt lat="44.38213684654511" lon="8.558792854235664"><ele>89.0</ele><time>2026-04-06T09:54:04.998Z</time></trkpt><trkpt lat="44.382073752278316" lon="8.558930369017263"><ele>89.0</ele><time>2026-04-06T09:54:05.998Z</time></trkpt><trkpt lat="44.381996354807356" lon="8.559055454613434"><ele>88.0</ele><time>2026-04-06T09:54:06.998Z</time></trkpt><trkpt lat="44.38190829044029" lon="8.559171191166591"><ele>87.0</ele><time>2026-04-06T09:54:07.998Z</time></trkpt><trkpt lat="44.381822940587824" lon="8.559301523760785"><ele>86.0</ele><time>2026-04-06T09:54:08.998Z</time></trkpt><trkpt lat="44.38173678628797" lon="8.55943316083202"><ele>85.0</ele><time>2026-04-06T09:54:09.998Z</time></trkpt><trkpt lat="44.38164561917601" lon="8.559559417720234"><ele>85.0</ele><time>2026-04-06T09:54:10.998Z</time></trkpt><trkpt lat="44.381559354052314" lon="8.559680743822828"><ele>85.0</ele><time>2026-04-06T09:54:11.998Z</time></trkpt><trkpt lat="44.38146984153867" lon="8.559804647246283"><ele>85.0</ele><time>2026-04-06T09:54:12.998Z</time></trkpt><trkpt lat="44.38137919200436" lon="8.559920293693903"><ele>85.0</ele><time>2026-04-06T09:54:13.998Z</time></trkpt><trkpt lat="44.38129671513648" lon="8.560044163869561"><ele>83.75</ele><time>2026-04-06T09:54:14.998Z</time></trkpt><trkpt lat="44.381211091207305" lon="8.560164545850299"><ele>82.5</ele><time>2026-04-06T09:54:16Z</time></trkpt><trkpt lat="44.381111813182414" lon="8.560268700237975"><ele>81.25</ele><time>2026-04-06T09:54:17Z</time></trkpt><trkpt lat="44.381012011222914" lon="8.560374895301575"><ele>80.0</ele><time>2026-04-06T09:54:18Z</time></trkpt><trkpt lat="44.380928338859185" lon="8.56051214264217"><ele>80.0</ele><time>2026-04-06T09:54:19Z</time></trkpt><trkpt lat="44.38086620179412" lon="8.56066630118518"><ele>80.0</ele><time>2026-04-06T09:54:20Z</time></trkpt><trkpt lat="44.380817001708074" lon="8.56083522206035"><ele>80.0</ele><time>2026-04-06T09:54:21Z</time></trkpt><trkpt lat="44.380759736900984" lon="8.560998795365276"><ele>80.0</ele><time>2026-04-06T09:54:22Z</time></trkpt><trkpt lat="44.38068757418251" lon="8.561137782419236"><ele>80.0</ele><time>2026-04-06T09:54:23Z</time></trkpt><trkpt lat="44.38060251021876" lon="8.561266051783356"><ele>80.0</ele><time>2026-04-06T09:54:24Z</time></trkpt><trkpt lat="44.38049966222983" lon="8.561381292880865"><ele>80.0</ele><time>2026-04-06T09:54:25Z</time></trkpt><trkpt lat="44.3803811099943" lon="8.561473512730474"><ele>80.0</ele><time>2026-04-06T09:54:26Z</time></trkpt><trkpt lat="44.38025788403431" lon="8.561565259242558"><ele>80.0</ele><time>2026-04-06T09:54:27Z</time></trkpt><trkpt lat="44.380135238144916" lon="8.561654573014524"><ele>80.0</ele><time>2026-04-06T09:54:28Z</time></trkpt><trkpt lat="44.38001745637349" lon="8.56172972213664"><ele>80.0</ele><time>2026-04-06T09:54:29Z</time></trkpt><trkpt lat="44.3799014226656" lon="8.56180810168333"><ele>80.0</ele><time>2026-04-06T09:54:30Z</time></trkpt><trkpt lat="44.379800004256346" lon="8.561909610418917"><ele>78.75</ele><time>2026-04-06T09:54:31Z</time></trkpt><trkpt lat="44.37971052611512" lon="8.562051446222673"><ele>77.5</ele><time>2026-04-06T09:54:32Z</time></trkpt><trkpt lat="44.3796260413163" lon="8.56216842676871"><ele>76.25</ele><time>2026-04-06T09:54:33Z</time></trkpt><trkpt lat="44.37953248678634" lon="8.562269030651992"><ele>75.0</ele><time>2026-04-06T09:54:34Z</time></trkpt><trkpt lat="44.37943468930995" lon="8.562382903770551"><ele>75.0</ele><time>2026-04-06T09:54:35Z</time></trkpt><trkpt lat="44.379354015793666" lon="8.562499951131418"><ele>75.0</ele><time>2026-04-06T09:54:36Z</time></trkpt><trkpt lat="44.37930040546877" lon="8.562651903882179"><ele>75.0</ele><time>2026-04-06T09:54:37Z</time></trkpt><trkpt lat="44.37929098618693" lon="8.5628396901678"><ele>75.0</ele><time>2026-04-06T09:54:38Z</time></trkpt><trkpt lat="44.37928948625741" lon="8.56301550814675"><ele>74.5</ele><time>2026-04-06T09:54:39Z</time></trkpt><trkpt lat="44.37925782130554" lon="8.56318923045116"><ele>74.0</ele><time>2026-04-06T09:54:40Z</time></trkpt><trkpt lat="44.379182197664356" lon="8.563350275552944"><ele>73.5</ele><time>2026-04-06T09:54:41Z</time></trkpt><trkpt lat="44.379102665138205" lon="8.563515733689849"><ele>73.0</ele><time>2026-04-06T09:54:42Z</time></trkpt><trkpt lat="44.37902840581689" lon="8.563666415442086"><ele>74.0</ele><time>2026-04-06T09:54:43Z</time></trkpt><trkpt lat="44.37895371832475" lon="8.563817259420269"><ele>75.0</ele><time>2026-04-06T09:54:44Z</time></trkpt><trkpt lat="44.378856779898385" lon="8.563938442400762"><ele>76.0</ele><time>2026-04-06T09:54:45Z</time></trkpt><trkpt lat="44.37873123309629" lon="8.56402595014971"><ele>77.0</ele><time>2026-04-06T09:54:46Z</time></trkpt><trkpt lat="44.3785933811694" lon="8.564083433706537"><ele>77.0</ele><time>2026-04-06T09:54:47Z</time></trkpt><trkpt lat="44.378454925706166" lon="8.564110897484452"><ele>77.0</ele><time>2026-04-06T09:54:48Z</time></trkpt><trkpt lat="44.378322112878415" lon="8.56413824386387"><ele>77.0</ele><time>2026-04-06T09:54:49Z</time></trkpt><trkpt lat="44.37819671999853" lon="8.56418933782126"><ele>77.0</ele><time>2026-04-06T09:54:50Z</time></trkpt><trkpt lat="44.37807664313701" lon="8.564270251529495"><ele>76.75</ele><time>2026-04-06T09:54:51Z</time></trkpt><trkpt lat="44.37795287322892" lon="8.564379659801062"><ele>76.5</ele><time>2026-04-06T09:54:51.999Z</time></trkpt><trkpt lat="44.377842789409726" lon="8.56451570206023"><ele>76.25</ele><time>2026-04-06T09:54:52.999Z</time></trkpt><trkpt lat="44.37773800027815" lon="8.564662914537905"><ele>76.0</ele><time>2026-04-06T09:54:53.999Z</time></trkpt><trkpt lat="44.37762748301844" lon="8.564792682810419"><ele>76.0</ele><time>2026-04-06T09:54:54.999Z</time></trkpt><trkpt lat="44.377505095261625" lon="8.564891774226025"><ele>76.0</ele><time>2026-04-06T09:54:55.999Z</time></trkpt><trkpt lat="44.377380570861256" lon="8.564973489675532"><ele>76.0</ele><time>2026-04-06T09:54:56.999Z</time></trkpt><trkpt lat="44.37725892570392" lon="8.565062838221602"><ele>76.0</ele><time>2026-04-06T09:54:57.999Z</time></trkpt><trkpt lat="44.377141332925696" lon="8.565159129206172"><ele>72.5</ele><time>2026-04-06T09:54:58.999Z</time></trkpt><trkpt lat="44.37702569959792" lon="8.56524217224839"><ele>69.0</ele><time>2026-04-06T09:54:59.999Z</time></trkpt><trkpt lat="44.37690952094263" lon="8.565302555901907"><ele>65.5</ele><time>2026-04-06T09:55:00.999Z</time></trkpt><trkpt lat="44.37677329661145" lon="8.565305074954185"><ele>62.0</ele><time>2026-04-06T09:55:01.999Z</time></trkpt><trkpt lat="44.376632480991496" lon="8.56528401245575"><ele>62.0</ele><time>2026-04-06T09:55:02.999Z</time></trkpt><trkpt lat="44.376498868174885" lon="8.565260505638987"><ele>62.0</ele><time>2026-04-06T09:55:03.999Z</time></trkpt><trkpt lat="44.37637203976913" lon="8.565251143018887"><ele>62.0</ele><time>2026-04-06T09:55:04.999Z</time></trkpt><trkpt lat="44.376252173459804" lon="8.565246863154298"><ele>62.0</ele><time>2026-04-06T09:55:05.999Z</time></trkpt><trkpt lat="44.37613611790407" lon="8.565266532898635"><ele>62.0</ele><time>2026-04-06T09:55:06.999Z</time></trkpt><trkpt lat="44.376034163415746" lon="8.565323177719282"><ele>62.0</ele><time>2026-04-06T09:55:07.999Z</time></trkpt><trkpt lat="44.37594428849997" lon="8.565413818117246"><ele>62.0</ele><time>2026-04-06T09:55:08.999Z</time></trkpt><trkpt lat="44.37587362187994" lon="8.565538766152153"><ele>62.0</ele><time>2026-04-06T09:55:09.999Z</time></trkpt><trkpt lat="44.37581674275905" lon="8.565682917498828"><ele>61.0</ele><time>2026-04-06T09:55:10.999Z</time></trkpt><trkpt lat="44.37578331519177" lon="8.565840101320346"><ele>60.0</ele><time>2026-04-06T09:55:11.999Z</time></trkpt><trkpt lat="44.375756773805726" lon="8.56600156284422"><ele>59.0</ele><time>2026-04-06T09:55:12.999Z</time></trkpt><trkpt lat="44.37571681514064" lon="8.56617088333916"><ele>58.0</ele><time>2026-04-06T09:55:13.999Z</time></trkpt><trkpt lat="44.37567275516878" lon="8.566338599918687"><ele>58.0</ele><time>2026-04-06T09:55:14.999Z</time></trkpt><trkpt lat="44.375638346484585" lon="8.566525404973184"><ele>58.0</ele><time>2026-04-06T09:55:15.999Z</time></trkpt><trkpt lat="44.37561863615885" lon="8.566724314358371"><ele>58.0</ele><time>2026-04-06T09:55:16.999Z</time></trkpt><trkpt lat="44.37559447623577" lon="8.566932280666977"><ele>58.0</ele><time>2026-04-06T09:55:17.999Z</time></trkpt><trkpt lat="44.37556181075503" lon="8.567161495263813"><ele>59.25</ele><time>2026-04-06T09:55:18.999Z</time></trkpt><trkpt lat="44.375530157285596" lon="8.567363886866556"><ele>60.5</ele><time>2026-04-06T09:55:19.999Z</time></trkpt><trkpt lat="44.37549840136076" lon="8.567550387414517"><ele>61.75</ele><time>2026-04-06T09:55:20.999Z</time></trkpt><trkpt lat="44.37546024440992" lon="8.56772034265066"><ele>63.0</ele><time>2026-04-06T09:55:21.999Z</time></trkpt><trkpt lat="44.37539076089012" lon="8.567863952353012"><ele>65.0</ele><time>2026-04-06T09:55:22.999Z</time></trkpt><trkpt lat="44.375288483728326" lon="8.567961265447146"><ele>67.0</ele><time>2026-04-06T09:55:23.999Z</time></trkpt><trkpt lat="44.375150008878215" lon="8.568014105215406"><ele>69.0</ele><time>2026-04-06T09:55:24.999Z</time></trkpt><trkpt lat="44.37501730911213" lon="8.568046641676021"><ele>71.0</ele><time>2026-04-06T09:55:25.999Z</time></trkpt><trkpt lat="44.37486922461505" lon="8.568031875066096"><ele>71.0</ele><time>2026-04-06T09:55:26.999Z</time></trkpt><trkpt lat="44.374699376482404" lon="8.567986687634015"><ele>71.0</ele><time>2026-04-06T09:55:27.999Z</time></trkpt><trkpt lat="44.37454387329027" lon="8.567948967747796"><ele>71.0</ele><time>2026-04-06T09:55:28.999Z</time></trkpt><trkpt lat="44.37440525484519" lon="8.567929460296659"><ele>67.25</ele><time>2026-04-06T09:55:29.999Z</time></trkpt><trkpt lat="44.37427476745269" lon="8.567915145340418"><ele>63.5</ele><time>2026-04-06T09:55:30.999Z</time></trkpt><trkpt lat="44.37414806355788" lon="8.567907049834933"><ele>59.75</ele><time>2026-04-06T09:55:31.999Z</time></trkpt><trkpt lat="44.37401887825455" lon="8.567903725356272"><ele>56.0</ele><time>2026-04-06T09:55:32.999Z</time></trkpt><trkpt lat="44.37388151001286" lon="8.567924763397658"><ele>55.5</ele><time>2026-04-06T09:55:33.999Z</time></trkpt><trkpt lat="44.37375450200595" lon="8.567974772382419"><ele>55.0</ele><time>2026-04-06T09:55:34.999Z</time></trkpt><trkpt lat="44.37364063007177" lon="8.568059725308098"><ele>54.5</ele><time>2026-04-06T09:55:35.999Z</time></trkpt><trkpt lat="44.373547963390244" lon="8.568190301913278"><ele>54.0</ele><time>2026-04-06T09:55:36.999Z</time></trkpt><trkpt lat="44.37347099857238" lon="8.568348252038072"><ele>54.0</ele><time>2026-04-06T09:55:37.999Z</time></trkpt><trkpt lat="44.373417988297085" lon="8.568531725696397"><ele>54.0</ele><time>2026-04-06T09:55:38.999Z</time></trkpt><trkpt lat="44.373386362425364" lon="8.568725596891461"><ele>54.0</ele><time>2026-04-06T09:55:39.999Z</time></trkpt><trkpt lat="44.3733564387956" lon="8.568919246656222"><ele>54.0</ele><time>2026-04-06T09:55:40.999Z</time></trkpt><trkpt lat="44.37332263633079" lon="8.56911295946926"><ele>53.0</ele><time>2026-04-06T09:55:41.999Z</time></trkpt><trkpt lat="44.373290257092954" lon="8.569312852660278"><ele>52.0</ele><time>2026-04-06T09:55:42.999Z</time></trkpt><trkpt lat="44.373261830091295" lon="8.569514014235644"><ele>51.0</ele><time>2026-04-06T09:55:43.999Z</time></trkpt><trkpt lat="44.37324890027479" lon="8.569722371208004"><ele>50.0</ele><time>2026-04-06T09:55:44.999Z</time></trkpt><trkpt lat="44.373246437874464" lon="8.569933083312355"><ele>50.0</ele><time>2026-04-06T09:55:45.999Z</time></trkpt><trkpt lat="44.37326569371495" lon="8.570144223538268"><ele>50.0</ele><time>2026-04-06T09:55:46.999Z</time></trkpt><trkpt lat="44.37327532249783" lon="8.570354608327126"><ele>50.0</ele><time>2026-04-06T09:55:47.999Z</time></trkpt><trkpt lat="44.37328316885307" lon="8.570569707559756"><ele>50.25</ele><time>2026-04-06T09:55:48.999Z</time></trkpt><trkpt lat="44.37328334271976" lon="8.570773635654179"><ele>50.5</ele><time>2026-04-06T09:55:49.999Z</time></trkpt><trkpt lat="44.37327225072857" lon="8.570968402531271"><ele>50.75</ele><time>2026-04-06T09:55:50.999Z</time></trkpt><trkpt lat="44.3732546289318" lon="8.5711524303344"><ele>51.0</ele><time>2026-04-06T09:55:51.999Z</time></trkpt><trkpt lat="44.373229492072774" lon="8.571331862525149"><ele>50.0</ele><time>2026-04-06T09:55:52.999Z</time></trkpt><trkpt lat="44.373189454281906" lon="8.571501349268566"><ele>49.0</ele><time>2026-04-06T09:55:53.999Z</time></trkpt><trkpt lat="44.373128987291" lon="8.571663790989033"><ele>48.0</ele><time>2026-04-06T09:55:54.999Z</time></trkpt><trkpt lat="44.37306284117445" lon="8.571826077097255"><ele>47.0</ele><time>2026-04-06T09:55:55.999Z</time></trkpt><trkpt lat="44.37300512375775" lon="8.571971859297634"><ele>45.0</ele><time>2026-04-06T09:55:56.999Z</time></trkpt><trkpt lat="44.3729519787251" lon="8.572116572459016"><ele>43.0</ele><time>2026-04-06T09:55:57.999Z</time></trkpt><trkpt lat="44.37288250576933" lon="8.572264233171499"><ele>41.0</ele><time>2026-04-06T09:55:58.999Z</time></trkpt><trkpt lat="44.37280779600342" lon="8.572425467775975"><ele>39.0</ele><time>2026-04-06T09:55:59.999Z</time></trkpt><trkpt lat="44.37273896380518" lon="8.572594231454527"><ele>39.0</ele><time>2026-04-06T09:56:00.999Z</time></trkpt><trkpt lat="44.372665010370085" lon="8.572760211789666"><ele>39.0</ele><time>2026-04-06T09:56:01.999Z</time></trkpt><trkpt lat="44.37257751122722" lon="8.572920664881064"><ele>39.0</ele><time>2026-04-06T09:56:02.999Z</time></trkpt><trkpt lat="44.37249788245797" lon="8.573081276445984"><ele>39.0</ele><time>2026-04-06T09:56:03.999Z</time></trkpt><trkpt lat="44.37241324208906" lon="8.573243555760614"><ele>38.25</ele><time>2026-04-06T09:56:04.999Z</time></trkpt><trkpt lat="44.372327954247865" lon="8.57340245765393"><ele>37.5</ele><time>2026-04-06T09:56:05.999Z</time></trkpt><trkpt lat="44.3722479521856" lon="8.573556250939719"><ele>36.75</ele><time>2026-04-06T09:56:06.998Z</time></trkpt><trkpt lat="44.37216024760009" lon="8.573695696965967"><ele>36.0</ele><time>2026-04-06T09:56:07.998Z</time></trkpt><trkpt lat="44.372067916878805" lon="8.573802934280629"><ele>35.25</ele><time>2026-04-06T09:56:08.998Z</time></trkpt><trkpt lat="44.371972876243134" lon="8.573879194431267"><ele>34.5</ele><time>2026-04-06T09:56:09.998Z</time></trkpt><trkpt lat="44.37186232348199" lon="8.573945443351413"><ele>33.75</ele><time>2026-04-06T09:56:10.998Z</time></trkpt><trkpt lat="44.371738225849676" lon="8.574009758709073"><ele>33.0</ele><time>2026-04-06T09:56:11.998Z</time></trkpt><trkpt lat="44.37161018404602" lon="8.574074328675913"><ele>33.0</ele><time>2026-04-06T09:56:12.998Z</time></trkpt><trkpt lat="44.37147887311467" lon="8.574141681718627"><ele>33.0</ele><time>2026-04-06T09:56:13.998Z</time></trkpt><trkpt lat="44.37134167432592" lon="8.574210240507288"><ele>33.0</ele><time>2026-04-06T09:56:14.998Z</time></trkpt><trkpt lat="44.371198056832775" lon="8.574271770123714"><ele>33.0</ele><time>2026-04-06T09:56:15.998Z</time></trkpt><trkpt lat="44.371045424893936" lon="8.574323991094802"><ele>31.333333333333336</ele><time>2026-04-06T09:56:16.998Z</time></trkpt><trkpt lat="44.37088344918122" lon="8.574367834395982"><ele>29.666666666666668</ele><time>2026-04-06T09:56:17.998Z</time></trkpt><trkpt lat="44.3707357763553" lon="8.574404545603219"><ele>28.0</ele><time>2026-04-06T09:56:18.998Z</time></trkpt><trkpt lat="44.37060068008213" lon="8.574430197522961"><ele>27.75</ele><time>2026-04-06T09:56:19.998Z</time></trkpt><trkpt lat="44.37046574625729" lon="8.574422503424259"><ele>27.5</ele><time>2026-04-06T09:56:20.998Z</time></trkpt><trkpt lat="44.37032193948325" lon="8.574392029176513"><ele>27.25</ele><time>2026-04-06T09:56:22Z</time></trkpt><trkpt lat="44.37017946323705" lon="8.574369338244534"><ele>27.0</ele><time>2026-04-06T09:56:23Z</time></trkpt><trkpt lat="44.370046300622974" lon="8.574352728193018"><ele>27.0</ele><time>2026-04-06T09:56:24Z</time></trkpt><trkpt lat="44.36992408141291" lon="8.574340051460084"><ele>27.000000000000004</ele><time>2026-04-06T09:56:25Z</time></trkpt><trkpt lat="44.36981544751265" lon="8.574326117291767"><ele>27.000000000000004</ele><time>2026-04-06T09:56:26Z</time></trkpt><trkpt lat="44.369722582206975" lon="8.574296441773926"><ele>27.0</ele><time>2026-04-06T09:56:27Z</time></trkpt><trkpt lat="44.369632478342446" lon="8.57425250241056"><ele>27.0</ele><time>2026-04-06T09:56:28Z</time></trkpt><trkpt lat="44.36955830134923" lon="8.574202233954214"><ele>26.666666666666668</ele><time>2026-04-06T09:56:29Z</time></trkpt><trkpt lat="44.369486943200606" lon="8.574154006740692"><ele>26.333333333333336</ele><time>2026-04-06T09:56:30Z</time></trkpt><trkpt lat="44.369424574437325" lon="8.574114624055207"><ele>26.0</ele><time>2026-04-06T09:56:31Z</time></trkpt><trkpt lat="44.3693384281307" lon="8.574064963166757"><ele>25.666666666666668</ele><time>2026-04-06T09:56:33Z</time></trkpt><trkpt lat="44.369284810958035" lon="8.574136713858763"><ele>25.333333333333336</ele><time>2026-04-06T09:56:40Z</time></trkpt><trkpt lat="44.36934414211101" lon="8.574193300548277"><ele>25.0</ele><time>2026-04-06T09:56:43Z</time></trkpt><trkpt lat="44.36942472531564" lon="8.574223373984513"><ele>25.0</ele><time>2026-04-06T09:56:47Z</time></trkpt><trkpt lat="44.36943672247959" lon="8.574123696384012"><ele>25.0</ele><time>2026-04-06T09:56:53Z</time></trkpt><trkpt lat="44.36932681768765" lon="8.574034525822716"><ele>25.0</ele><time>2026-04-06T09:56:55Z</time></trkpt><trkpt lat="44.36923728194646" lon="8.573990038162385"><ele>25.0</ele><time>2026-04-06T09:56:56Z</time></trkpt><trkpt lat="44.369162284349926" lon="8.573902005485568"><ele>25.0</ele><time>2026-04-06T09:56:57Z</time></trkpt><trkpt lat="44.36910461679722" lon="8.573809250215662"><ele>25.0</ele><time>2026-04-06T09:56:58Z</time></trkpt><trkpt lat="44.3690438445365" lon="8.573702572203539"><ele>25.0</ele><time>2026-04-06T09:56:59Z</time></trkpt><trkpt lat="44.368974594966254" lon="8.573583660931993"><ele>25.0</ele><time>2026-04-06T09:57:00Z</time></trkpt><trkpt lat="44.36891006061943" lon="8.573452687706132"><ele>25.0</ele><time>2026-04-06T09:57:01Z</time></trkpt><trkpt lat="44.36885005285608" lon="8.573330327793798"><ele>25.0</ele><time>2026-04-06T09:57:02Z</time></trkpt><trkpt lat="44.36879744181754" lon="8.573208494544174"><ele>25.2</ele><time>2026-04-06T09:57:03Z</time></trkpt><trkpt lat="44.368741539719295" lon="8.573082246195698"><ele>25.4</ele><time>2026-04-06T09:57:04Z</time></trkpt><trkpt lat="44.36867700100743" lon="8.572962271350628"><ele>25.6</ele><time>2026-04-06T09:57:05Z</time></trkpt><trkpt lat="44.368594691935236" lon="8.572876781486087"><ele>25.8</ele><time>2026-04-06T09:57:06Z</time></trkpt><trkpt lat="44.368497498364604" lon="8.572837321648436"><ele>26.0</ele><time>2026-04-06T09:57:07Z</time></trkpt><trkpt lat="44.368397929258954" lon="8.572816479973847"><ele>26.200000000000003</ele><time>2026-04-06T09:57:07.999Z</time></trkpt><trkpt lat="44.368293469055914" lon="8.572797015989385"><ele>26.400000000000002</ele><time>2026-04-06T09:57:08.999Z</time></trkpt><trkpt lat="44.3681898768589" lon="8.572763465544728"><ele>26.6</ele><time>2026-04-06T09:57:09.999Z</time></trkpt><trkpt lat="44.36808784612596" lon="8.572704006923678"><ele>26.8</ele><time>2026-04-06T09:57:10.999Z</time></trkpt><trkpt lat="44.367984243823635" lon="8.572641338722478"><ele>27.0</ele><time>2026-04-06T09:57:11.999Z</time></trkpt><trkpt lat="44.36788435886119" lon="8.572585565587158"><ele>26.5</ele><time>2026-04-06T09:57:13Z</time></trkpt><trkpt lat="44.36777091148276" lon="8.572541323185389"><ele>26.0</ele><time>2026-04-06T09:57:13.999Z</time></trkpt><trkpt lat="44.36767658434409" lon="8.572473631433803"><ele>25.5</ele><time>2026-04-06T09:57:14.999Z</time></trkpt><trkpt lat="44.367565367228266" lon="8.572426219909559"><ele>25.0</ele><time>2026-04-06T09:57:15.999Z</time></trkpt><trkpt lat="44.367443699344605" lon="8.572383932847599"><ele>25.0</ele><time>2026-04-06T09:57:16.999Z</time></trkpt><trkpt lat="44.36732690315932" lon="8.572371809075216"><ele>25.0</ele><time>2026-04-06T09:57:17.999Z</time></trkpt><trkpt lat="44.36721654383865" lon="8.57238452963067"><ele>25.0</ele><time>2026-04-06T09:57:18.999Z</time></trkpt><trkpt lat="44.36708841803266" lon="8.572433591457507"><ele>25.0</ele><time>2026-04-06T09:57:19.999Z</time></trkpt><trkpt lat="44.36698662873575" lon="8.57248401940533"><ele>23.666666666666668</ele><time>2026-04-06T09:57:20.999Z</time></trkpt><trkpt lat="44.366908523243715" lon="8.572516109073268"><ele>22.333333333333336</ele><time>2026-04-06T09:57:21.999Z</time></trkpt><trkpt lat="44.36682668352988" lon="8.572548212460093"><ele>21.0</ele><time>2026-04-06T09:57:22.999Z</time></trkpt><trkpt lat="44.36675046845401" lon="8.572575920034105"><ele>19.666666666666668</ele><time>2026-04-06T09:57:23.999Z</time></trkpt><trkpt lat="44.3666882064844" lon="8.572600625516012"><ele>18.333333333333336</ele><time>2026-04-06T09:57:24.999Z</time></trkpt><trkpt lat="44.36660416942179" lon="8.57263759334727"><ele>17.0</ele><time>2026-04-06T09:57:26.999Z</time></trkpt><trkpt lat="44.36653362638356" lon="8.572735272794255"><ele>17.0</ele><time>2026-04-06T09:57:28.999Z</time></trkpt><trkpt lat="44.3665397056949" lon="8.572846657044"><ele>17.0</ele><time>2026-04-06T09:57:29.999Z</time></trkpt><trkpt lat="44.36651181948911" lon="8.572971939723626"><ele>17.0</ele><time>2026-04-06T09:57:30.999Z</time></trkpt><trkpt lat="44.36647269571929" lon="8.573101232906398"><ele>17.0</ele><time>2026-04-06T09:57:31.999Z</time></trkpt><trkpt lat="44.36644556862776" lon="8.573251576742518"><ele>17.0</ele><time>2026-04-06T09:57:32.999Z</time></trkpt><trkpt lat="44.36641947309389" lon="8.573397079588542"><ele>17.0</ele><time>2026-04-06T09:57:33.999Z</time></trkpt><trkpt lat="44.36639098850411" lon="8.573541265842637"><ele>17.0</ele><time>2026-04-06T09:57:34.999Z</time></trkpt><trkpt lat="44.36635354804771" lon="8.573698545129632"><ele>17.0</ele><time>2026-04-06T09:57:35.999Z</time></trkpt><trkpt lat="44.36631055242988" lon="8.573859894938135"><ele>17.0</ele><time>2026-04-06T09:57:36.999Z</time></trkpt><trkpt lat="44.36627325060868" lon="8.574006152885445"><ele>17.4</ele><time>2026-04-06T09:57:37.999Z</time></trkpt><trkpt lat="44.36623679163682" lon="8.574155628416834"><ele>17.799999999999997</ele><time>2026-04-06T09:57:38.999Z</time></trkpt><trkpt lat="44.366175210066395" lon="8.574285515261096"><ele>18.2</ele><time>2026-04-06T09:57:39.999Z</time></trkpt><trkpt lat="44.36609989628895" lon="8.574403256141313"><ele>18.599999999999998</ele><time>2026-04-06T09:57:40.999Z</time></trkpt><trkpt lat="44.366015165629825" lon="8.57449270936233"><ele>19.0</ele><time>2026-04-06T09:57:41.999Z</time></trkpt><trkpt lat="44.36591060222698" lon="8.574538364260397"><ele>19.0</ele><time>2026-04-06T09:57:42.999Z</time></trkpt><trkpt lat="44.36578618040318" lon="8.574543826505234"><ele>19.0</ele><time>2026-04-06T09:57:43.999Z</time></trkpt><trkpt lat="44.36565539668565" lon="8.574543688593565"><ele>19.0</ele><time>2026-04-06T09:57:44.999Z</time></trkpt><trkpt lat="44.365527659194164" lon="8.574558010488378"><ele>19.0</ele><time>2026-04-06T09:57:45.999Z</time></trkpt><trkpt lat="44.365405580168506" lon="8.574576529638222"><ele>17.75</ele><time>2026-04-06T09:57:46.999Z</time></trkpt><trkpt lat="44.36528990599992" lon="8.574589648143427"><ele>16.5</ele><time>2026-04-06T09:57:47.999Z</time></trkpt><trkpt lat="44.3651762942809" lon="8.574597176258655"><ele>15.25</ele><time>2026-04-06T09:57:48.999Z</time></trkpt><trkpt lat="44.36506147957131" lon="8.574598145044474"><ele>14.0</ele><time>2026-04-06T09:57:49.999Z</time></trkpt><trkpt lat="44.36494642260082" lon="8.574593142627574"><ele>14.0</ele><time>2026-04-06T09:57:50.999Z</time></trkpt><trkpt lat="44.36483043468004" lon="8.57458217490267"><ele>13.999999999999998</ele><time>2026-04-06T09:57:51.999Z</time></trkpt><trkpt lat="44.364727933152146" lon="8.57457086521521"><ele>13.999999999999998</ele><time>2026-04-06T09:57:52.999Z</time></trkpt><trkpt lat="44.36463153511049" lon="8.57455742714216"><ele>14.0</ele><time>2026-04-06T09:57:53.999Z</time></trkpt><trkpt lat="44.364533200200306" lon="8.574540779184048"><ele>14.0</ele><time>2026-04-06T09:57:54.999Z</time></trkpt><trkpt lat="44.36445353954254" lon="8.574527846134185"><ele>14.6</ele><time>2026-04-06T09:57:55.999Z</time></trkpt><trkpt lat="44.364362448142764" lon="8.574522677220148"><ele>15.2</ele><time>2026-04-06T09:57:57.999Z</time></trkpt><trkpt lat="44.36436084874511" lon="8.574412963060388"><ele>15.799999999999999</ele><time>2026-04-06T09:58:00.999Z</time></trkpt><trkpt lat="44.364335509449965" lon="8.57430497845715"><ele>16.4</ele><time>2026-04-06T09:58:03.999Z</time></trkpt><trkpt lat="44.364360848743615" lon="8.574222225957373"><ele>17.0</ele><time>2026-04-06T09:58:07.999Z</time></trkpt><trkpt lat="44.3641973508237" lon="8.574226556298745"><ele>17.166666666666668</ele><time>2026-04-06T09:58:15.999Z</time></trkpt><trkpt lat="44.36414777464254" lon="8.574142656940321"><ele>17.333333333333336</ele><time>2026-04-06T09:58:18.999Z</time></trkpt><trkpt lat="44.364102999757876" lon="8.574213132178222"><ele>17.5</ele><time>2026-04-06T09:58:19.999Z</time></trkpt><trkpt lat="44.363986245269196" lon="8.574177575700944"><ele>17.666666666666668</ele><time>2026-04-06T09:58:21.998Z</time></trkpt><trkpt lat="44.3639465228672" lon="8.57425989709015"><ele>17.833333333333332</ele><time>2026-04-06T09:58:22.998Z</time></trkpt><trkpt lat="44.363918509477536" lon="8.574344787143309"><ele>18.0</ele><time>2026-04-06T09:58:28Z</time></trkpt><trkpt lat="44.363903093751304" lon="8.574460654218147"><ele>17.8</ele><time>2026-04-06T09:58:30Z</time></trkpt><trkpt lat="44.363917744840265" lon="8.574546803777974"><ele>17.6</ele><time>2026-04-06T09:58:34Z</time></trkpt><trkpt lat="44.3637702581319" lon="8.574529170823178"><ele>17.4</ele><time>2026-04-06T09:58:35Z</time></trkpt><trkpt lat="44.363671264672114" lon="8.574545410274116"><ele>17.2</ele><time>2026-04-06T09:58:36Z</time></trkpt><trkpt lat="44.363581831927384" lon="8.574548872001312"><ele>17.0</ele><time>2026-04-06T09:58:37Z</time></trkpt><trkpt lat="44.36350092936612" lon="8.57453075253621"><ele>16.5</ele><time>2026-04-06T09:58:38Z</time></trkpt><trkpt lat="44.36338166070379" lon="8.574545027834093"><ele>16.0</ele><time>2026-04-06T09:58:39Z</time></trkpt><trkpt lat="44.363263575709325" lon="8.574559302615812"><ele>15.5</ele><time>2026-04-06T09:58:40Z</time></trkpt><trkpt lat="44.36314719102566" lon="8.57458075475468"><ele>15.0</ele><time>2026-04-06T09:58:41Z</time></trkpt><trkpt lat="44.363031612933554" lon="8.574598636994294"><ele>13.25</ele><time>2026-04-06T09:58:42Z</time></trkpt><trkpt lat="44.36290898041331" lon="8.574603877061625"><ele>11.5</ele><time>2026-04-06T09:58:43Z</time></trkpt><trkpt lat="44.36279265032513" lon="8.57461466610225"><ele>9.75</ele><time>2026-04-06T09:58:44Z</time></trkpt><trkpt lat="44.362671663935714" lon="8.574631417320143"><ele>8.0</ele><time>2026-04-06T09:58:45Z</time></trkpt><trkpt lat="44.36255556767345" lon="8.574642880407863"><ele>8.0</ele><time>2026-04-06T09:58:46Z</time></trkpt><trkpt lat="44.36244165095505" lon="8.574669342477543"><ele>8.0</ele><time>2026-04-06T09:58:47Z</time></trkpt><trkpt lat="44.3623284625604" lon="8.574672820479256"><ele>8.0</ele><time>2026-04-06T09:58:48Z</time></trkpt><trkpt lat="44.36219776320317" lon="8.57470508524915"><ele>8.0</ele><time>2026-04-06T09:58:49Z</time></trkpt><trkpt lat="44.362081408250205" lon="8.574722717360643"><ele>8.600000000000001</ele><time>2026-04-06T09:58:50Z</time></trkpt><trkpt lat="44.361964009010016" lon="8.574735029867664"><ele>9.200000000000001</ele><time>2026-04-06T09:58:51Z</time></trkpt><trkpt lat="44.361852702644654" lon="8.574750771781998"><ele>9.8</ele><time>2026-04-06T09:58:52Z</time></trkpt><trkpt lat="44.36174748316037" lon="8.574777710123016"><ele>10.4</ele><time>2026-04-06T09:58:53Z</time></trkpt><trkpt lat="44.361654087059556" lon="8.574799795550781"><ele>11.0</ele><time>2026-04-06T09:58:54Z</time></trkpt><trkpt lat="44.36156067880632" lon="8.574839395600964"><ele>11.0</ele><time>2026-04-06T09:58:55Z</time></trkpt><trkpt lat="44.361457228837104" lon="8.57490117758249"><ele>11.0</ele><time>2026-04-06T09:58:56Z</time></trkpt><trkpt lat="44.36134883929094" lon="8.57498644598912"><ele>11.0</ele><time>2026-04-06T09:58:57Z</time></trkpt><trkpt lat="44.361228849543885" lon="8.575056483872318"><ele>11.0</ele><time>2026-04-06T09:58:58Z</time></trkpt><trkpt lat="44.36112295910781" lon="8.575137231021895"><ele>11.0</ele><time>2026-04-06T09:58:59Z</time></trkpt><trkpt lat="44.36102085699224" lon="8.575196795440489"><ele>11.0</ele><time>2026-04-06T09:59:00Z</time></trkpt><trkpt lat="44.36093438293592" lon="8.575265959878353"><ele>11.0</ele><time>2026-04-06T09:59:01Z</time></trkpt><trkpt lat="44.36084654953457" lon="8.57532803190003"><ele>11.0</ele><time>2026-04-06T09:59:02Z</time></trkpt><trkpt lat="44.36077295228998" lon="8.575380805396225"><ele>11.0</ele><time>2026-04-06T09:59:03Z</time></trkpt><trkpt lat="44.36070716055355" lon="8.575439809135318"><ele>11.0</ele><time>2026-04-06T09:59:04Z</time></trkpt><trkpt lat="44.36065553404843" lon="8.57550670503793"><ele>11.0</ele><time>2026-04-06T09:59:05Z</time></trkpt><trkpt lat="44.36057814301134" lon="8.575624579493573"><ele>11.0</ele><time>2026-04-06T09:59:07Z</time></trkpt><trkpt lat="44.36053177023998" lon="8.5757153368405"><ele>11.0</ele><time>2026-04-06T09:59:10Z</time></trkpt><trkpt lat="44.3604675843376" lon="8.575793930928715"><ele>11.0</ele><time>2026-04-06T09:59:13Z</time></trkpt><trkpt lat="44.36039760276526" lon="8.575895990342284"><ele>11.0</ele><time>2026-04-06T09:59:15Z</time></trkpt><trkpt lat="44.360375801945175" lon="8.576051499788083"><ele>11.0</ele><time>2026-04-06T09:59:17Z</time></trkpt><trkpt lat="44.36029064444717" lon="8.576214946222796"><ele>11.0</ele><time>2026-04-06T09:59:19Z</time></trkpt><trkpt lat="44.360213251108014" lon="8.576283672088826"><ele>11.0</ele><time>2026-04-06T09:59:21Z</time></trkpt><trkpt lat="44.36016297142045" lon="8.576346431748886"><ele>11.0</ele><time>2026-04-06T09:59:26Z</time></trkpt><trkpt lat="44.36011135330594" lon="8.576398895120489"><ele>10.600000000000001</ele><time>2026-04-06T09:59:27.999Z</time></trkpt><trkpt lat="44.36001430565856" lon="8.576519678030513"><ele>10.200000000000001</ele><time>2026-04-06T09:59:29.999Z</time></trkpt><trkpt lat="44.35995615917821" lon="8.576596815884065"><ele>9.8</ele><time>2026-04-06T09:59:30.999Z</time></trkpt><trkpt lat="44.35989709916493" lon="8.576670944960272"><ele>9.4</ele><time>2026-04-06T09:59:31.999Z</time></trkpt><trkpt lat="44.359830156412926" lon="8.576753303132433"><ele>9.0</ele><time>2026-04-06T09:59:32.999Z</time></trkpt><trkpt lat="44.359768467948385" lon="8.57683134601596"><ele>9.0</ele><time>2026-04-06T09:59:33.999Z</time></trkpt><trkpt lat="44.359720928531075" lon="8.576892743764207"><ele>9.0</ele><time>2026-04-06T09:59:34.999Z</time></trkpt><trkpt lat="44.35963088173484" lon="8.57700260063074"><ele>9.0</ele><time>2026-04-06T09:59:36.999Z</time></trkpt><trkpt lat="44.359571692431125" lon="8.577078894366787"><ele>9.0</ele><time>2026-04-06T09:59:38.999Z</time></trkpt><trkpt lat="44.35952449545098" lon="8.577142338488398"><ele>9.0</ele><time>2026-04-06T09:59:42.999Z</time></trkpt><trkpt lat="44.35946791437004" lon="8.577198497788965"><ele>9.0</ele><time>2026-04-06T09:59:47.999Z</time></trkpt><trkpt lat="44.35937641845728" lon="8.577247997685028"><ele>8.571428571428573</ele><time>2026-04-06T09:59:49.999Z</time></trkpt><trkpt lat="44.35930675976104" lon="8.577290569866012"><ele>8.142857142857142</ele><time>2026-04-06T09:59:51.999Z</time></trkpt><trkpt lat="44.359282947078576" lon="8.577379434997695"><ele>7.714285714285714</ele><time>2026-04-06T09:59:53.999Z</time></trkpt><trkpt lat="44.359290267024704" lon="8.577475047739922"><ele>7.2857142857142865</ele><time>2026-04-06T09:59:55.999Z</time></trkpt><trkpt lat="44.3592969933554" lon="8.577585498128737"><ele>6.857142857142858</ele><time>2026-04-06T09:59:58.999Z</time></trkpt><trkpt lat="44.359316800748594" lon="8.577690999089898"><ele>6.428571428571428</ele><time>2026-04-06T10:00:01.999Z</time></trkpt><trkpt lat="44.35932458977524" lon="8.57779573452485"><ele>6.0</ele><time>2026-04-06T10:00:04.999Z</time></trkpt><trkpt lat="44.35933850298037" lon="8.57788287161146"><ele>5.999999999999999</ele><time>2026-04-06T10:00:07.999Z</time></trkpt><trkpt lat="44.35934047828249" lon="8.577981104546863"><ele>6.0</ele><time>2026-04-06T10:00:12.999Z</time></trkpt><trkpt lat="44.35935623071715" lon="8.57807050804515"><ele>6.0</ele><time>2026-04-06T10:00:14.999Z</time></trkpt><trkpt lat="44.35934574184064" lon="8.578182622688796"><ele>6.0</ele><time>2026-04-06T10:00:16.999Z</time></trkpt><trkpt lat="44.359344367167516" lon="8.578280329326036"><ele>6.0</ele><time>2026-04-06T10:00:18.999Z</time></trkpt><trkpt lat="44.35934262796479" lon="8.5783762343187"><ele>5.999999999999999</ele><time>2026-04-06T10:00:21.999Z</time></trkpt><trkpt lat="44.35934678355511" lon="8.578466761922815"><ele>6.0</ele><time>2026-04-06T10:00:38Z</time></trkpt><trkpt lat="44.35934649861164" lon="8.578582088342507"><ele>6.6</ele><time>2026-04-06T10:00:41Z</time></trkpt><trkpt lat="44.3593620057892" lon="8.578740673807753"><ele>7.199999999999999</ele><time>2026-04-06T10:00:43Z</time></trkpt><trkpt lat="44.35938337092342" lon="8.578879046104433"><ele>7.800000000000001</ele><time>2026-04-06T10:00:45Z</time></trkpt><trkpt lat="44.35939516877474" lon="8.578992102573837"><ele>8.4</ele><time>2026-04-06T10:00:47Z</time></trkpt><trkpt lat="44.35942050102216" lon="8.579089756881258"><ele>9.0</ele><time>2026-04-06T10:00:53Z</time></trkpt><trkpt lat="44.35944446873255" lon="8.579206784976401"><ele>9.0</ele><time>2026-04-06T10:00:58Z</time></trkpt><trkpt lat="44.359484176327086" lon="8.579347325763093"><ele>9.0</ele><time>2026-04-06T10:01:00Z</time></trkpt><trkpt lat="44.35951420558689" lon="8.579472451296917"><ele>9.0</ele><time>2026-04-06T10:01:02Z</time></trkpt><trkpt lat="44.3595402452042" lon="8.579576182940592"><ele>9.0</ele><time>2026-04-06T10:01:05Z</time></trkpt><trkpt lat="44.35957093786441" lon="8.57967535957267"><ele>9.0</ele><time>2026-04-06T10:01:08Z</time></trkpt><trkpt lat="44.35958684168911" lon="8.57979554960836"><ele>9.0</ele><time>2026-04-06T10:01:14Z</time></trkpt><trkpt lat="44.35962601010881" lon="8.579883366474565"><ele>9.333333333333334</ele><time>2026-04-06T10:01:16Z</time></trkpt><trkpt lat="44.35964360383126" lon="8.58003913580803"><ele>9.666666666666666</ele><time>2026-04-06T10:01:18Z</time></trkpt><trkpt lat="44.35964370839856" lon="8.580128779093378"><ele>10.0</ele><time>2026-04-06T10:01:19Z</time></trkpt><trkpt lat="44.35966398040164" lon="8.580223806030425"><ele>10.333333333333332</ele><time>2026-04-06T10:01:20Z</time></trkpt><trkpt lat="44.35968480777287" lon="8.580322053274127"><ele>10.666666666666666</ele><time>2026-04-06T10:01:21Z</time></trkpt><trkpt lat="44.359701574714904" lon="8.580414659795059"><ele>11.0</ele><time>2026-04-06T10:01:22Z</time></trkpt><trkpt lat="44.359720963258226" lon="8.580523888922087"><ele>11.0</ele><time>2026-04-06T10:01:23Z</time></trkpt><trkpt lat="44.35973586214944" lon="8.580630186757263"><ele>11.0</ele><time>2026-04-06T10:01:24Z</time></trkpt><trkpt lat="44.35975415905324" lon="8.580734216872667"><ele>11.0</ele><time>2026-04-06T10:01:25Z</time></trkpt><trkpt lat="44.35976122196889" lon="8.58088028787194"><ele>11.0</ele><time>2026-04-06T10:01:27Z</time></trkpt><trkpt lat="44.35978010591255" lon="8.580997557417255"><ele>11.0</ele><time>2026-04-06T10:01:29Z</time></trkpt><trkpt lat="44.359791944887306" lon="8.58110456873737"><ele>11.0</ele><time>2026-04-06T10:01:30.999Z</time></trkpt><trkpt lat="44.35980465165026" lon="8.581241700462922"><ele>10.25</ele><time>2026-04-06T10:01:32.999Z</time></trkpt><trkpt lat="44.359824479790845" lon="8.581408846151762"><ele>9.5</ele><time>2026-04-06T10:01:34.999Z</time></trkpt><trkpt lat="44.35984537647332" lon="8.581566898143292"><ele>8.75</ele><time>2026-04-06T10:01:36.999Z</time></trkpt><trkpt lat="44.35985786964298" lon="8.581709913212231"><ele>8.0</ele><time>2026-04-06T10:01:38.999Z</time></trkpt><trkpt lat="44.35986861172448" lon="8.581866480566552"><ele>7.800000000000001</ele><time>2026-04-06T10:01:40.999Z</time></trkpt><trkpt lat="44.35988775959898" lon="8.582023780374003"><ele>7.6000000000000005</ele><time>2026-04-06T10:01:42.999Z</time></trkpt><trkpt lat="44.35990601619496" lon="8.582170345123505"><ele>7.3999999999999995</ele><time>2026-04-06T10:01:44.999Z</time></trkpt><trkpt lat="44.35991937386488" lon="8.582322704587503"><ele>7.199999999999999</ele><time>2026-04-06T10:01:46.999Z</time></trkpt><trkpt lat="44.359931106076566" lon="8.582438979471036"><ele>7.0</ele><time>2026-04-06T10:01:48.999Z</time></trkpt><trkpt lat="44.35994567859003" lon="8.582585024913145"><ele>7.0</ele><time>2026-04-06T10:01:50.999Z</time></trkpt><trkpt lat="44.35995465138915" lon="8.582677157714908"><ele>6.999999999999999</ele><time>2026-04-06T10:01:51.999Z</time></trkpt><trkpt lat="44.359969754826245" lon="8.5828331403715"><ele>6.999999999999999</ele><time>2026-04-06T10:01:53.999Z</time></trkpt><trkpt lat="44.35997176506945" lon="8.582984627606946"><ele>7.0</ele><time>2026-04-06T10:01:55.999Z</time></trkpt><trkpt lat="44.35998650158276" lon="8.583150050818633"><ele>7.0</ele><time>2026-04-06T10:01:57.999Z</time></trkpt><trkpt lat="44.35999736938879" lon="8.58323838084166"><ele>7.199999999999999</ele><time>2026-04-06T10:01:58.999Z</time></trkpt><trkpt lat="44.360011993414915" lon="8.583385718723365"><ele>7.3999999999999995</ele><time>2026-04-06T10:02:00.999Z</time></trkpt><trkpt lat="44.360021565572474" lon="8.58351043609493"><ele>7.6000000000000005</ele><time>2026-04-06T10:02:02.999Z</time></trkpt><trkpt lat="44.36003559951498" lon="8.583664931706014"><ele>7.800000000000001</ele><time>2026-04-06T10:02:04.999Z</time></trkpt><trkpt lat="44.36005048154197" lon="8.583828152271744"><ele>8.0</ele><time>2026-04-06T10:02:06.999Z</time></trkpt><trkpt lat="44.36006578873111" lon="8.583976080012839"><ele>7.999999999999999</ele><time>2026-04-06T10:02:08.999Z</time></trkpt><trkpt lat="44.360083573123866" lon="8.58409966063809"><ele>8.0</ele><time>2026-04-06T10:02:10.999Z</time></trkpt><trkpt lat="44.36009176922354" lon="8.584206768342062"><ele>8.0</ele><time>2026-04-06T10:02:12.999Z</time></trkpt><trkpt lat="44.360101478238796" lon="8.584309279845147"><ele>8.0</ele><time>2026-04-06T10:02:14.999Z</time></trkpt><trkpt lat="44.36011006528894" lon="8.584425408555553"><ele>7.999999999999999</ele><time>2026-04-06T10:02:16.999Z</time></trkpt><trkpt lat="44.3601015946525" lon="8.58451661019066"><ele>8.0</ele><time>2026-04-06T10:02:22.999Z</time></trkpt><trkpt lat="44.36011038635853" lon="8.58466871909656"><ele>7.571428571428571</ele><time>2026-04-06T10:02:25.999Z</time></trkpt><trkpt lat="44.36011565565493" lon="8.58475718998142"><ele>7.142857142857142</ele><time>2026-04-06T10:02:26.999Z</time></trkpt><trkpt lat="44.36012625658543" lon="8.584852132913497"><ele>6.7142857142857135</ele><time>2026-04-06T10:02:27.999Z</time></trkpt><trkpt lat="44.360138112968116" lon="8.584946863977299"><ele>6.285714285714286</ele><time>2026-04-06T10:02:28.999Z</time></trkpt><trkpt lat="44.360148166035" lon="8.585043767091882"><ele>5.857142857142858</ele><time>2026-04-06T10:02:29.999Z</time></trkpt><trkpt lat="44.36015640723298" lon="8.58514096031749"><ele>5.428571428571429</ele><time>2026-04-06T10:02:30.999Z</time></trkpt><trkpt lat="44.36016224964846" lon="8.585237425557404"><ele>5.0</ele><time>2026-04-06T10:02:31.999Z</time></trkpt><trkpt lat="44.36016988459299" lon="8.58534122192998"><ele>5.0</ele><time>2026-04-06T10:02:32.999Z</time></trkpt><trkpt lat="44.360178374516344" lon="8.585429170419124"><ele>5.0</ele><time>2026-04-06T10:02:33.999Z</time></trkpt><trkpt lat="44.36018931797132" lon="8.585536224121334"><ele>5.0</ele><time>2026-04-06T10:02:35.999Z</time></trkpt><trkpt lat="44.36019968407399" lon="8.58565951549791"><ele>5.0</ele><time>2026-04-06T10:02:37.998Z</time></trkpt><trkpt lat="44.36021627693156" lon="8.585842670189493"><ele>5.0</ele><time>2026-04-06T10:02:40Z</time></trkpt><trkpt lat="44.360231922761116" lon="8.585940967285888"><ele>5.0</ele><time>2026-04-06T10:02:41Z</time></trkpt><trkpt lat="44.360245583835365" lon="8.586037538688657"><ele>5.0</ele><time>2026-04-06T10:02:42Z</time></trkpt><trkpt lat="44.3602815453344" lon="8.586183889379551"><ele>5.0</ele><time>2026-04-06T10:02:44Z</time></trkpt><trkpt lat="44.3603117405295" lon="8.586310503029887"><ele>5.0</ele><time>2026-04-06T10:02:46Z</time></trkpt><trkpt lat="44.360369093261866" lon="8.58670358280779"><ele>5.0</ele><time>2026-04-06T10:02:48Z</time></trkpt><trkpt lat="44.3603903731718" lon="8.58682215671541"><ele>5.0</ele><time>2026-04-06T10:02:49Z</time></trkpt><trkpt lat="44.360422326984654" lon="8.586937753041324"><ele>5.0</ele><time>2026-04-06T10:02:50Z</time></trkpt><trkpt lat="44.36046128909567" lon="8.587049194239349"><ele>5.0</ele><time>2026-04-06T10:02:51Z</time></trkpt><trkpt lat="44.36049540945126" lon="8.587147104477415"><ele>5.0</ele><time>2026-04-06T10:02:52Z</time></trkpt><trkpt lat="44.36052970506227" lon="8.587240527041383"><ele>5.0</ele><time>2026-04-06T10:02:53Z</time></trkpt><trkpt lat="44.360561729922026" lon="8.587322333352414"><ele>6.166666666666667</ele><time>2026-04-06T10:02:54Z</time></trkpt><trkpt lat="44.360584993490534" lon="8.587411403041825"><ele>7.333333333333334</ele><time>2026-04-06T10:02:55Z</time></trkpt><trkpt lat="44.36061341217186" lon="8.587496171229713"><ele>8.5</ele><time>2026-04-06T10:02:56Z</time></trkpt><trkpt lat="44.36066079264093" lon="8.58764638661051"><ele>9.666666666666666</ele><time>2026-04-06T10:02:58Z</time></trkpt><trkpt lat="44.36070804184835" lon="8.58777041318512"><ele>10.833333333333334</ele><time>2026-04-06T10:03:00Z</time></trkpt><trkpt lat="44.36074621761648" lon="8.587890959712393"><ele>12.0</ele><time>2026-04-06T10:03:02Z</time></trkpt><trkpt lat="44.360780567064914" lon="8.587990910814735"><ele>12.0</ele><time>2026-04-06T10:03:05Z</time></trkpt><trkpt lat="44.360859001490184" lon="8.58785642254477"><ele>12.0</ele><time>2026-04-06T10:03:10Z</time></trkpt><trkpt lat="44.360839274889116" lon="8.58774679726166"><ele>12.0</ele><time>2026-04-06T10:03:16Z</time></trkpt><trkpt lat="44.360756858912865" lon="8.587725151089138"><ele>12.0</ele><time>2026-04-06T10:03:19Z</time></trkpt><trkpt lat="44.36074782030768" lon="8.58801566143873"><ele>12.0</ele><time>2026-04-06T10:03:29Z</time></trkpt><trkpt lat="44.360815106617174" lon="8.588190043864623"><ele>12.0</ele><time>2026-04-06T10:03:29.999Z</time></trkpt><trkpt lat="44.360876763350014" lon="8.588412867886184"><ele>12.0</ele><time>2026-04-06T10:03:30.999Z</time></trkpt><trkpt lat="44.3608987938749" lon="8.588623830966602"><ele>11.0</ele><time>2026-04-06T10:03:31.999Z</time></trkpt><trkpt lat="44.36090548388133" lon="8.588868058370183"><ele>10.0</ele><time>2026-04-06T10:03:32.999Z</time></trkpt><trkpt lat="44.360883143552556" lon="8.589145053368355"><ele>9.0</ele><time>2026-04-06T10:03:33.999Z</time></trkpt><trkpt lat="44.360853109504276" lon="8.589433774590267"><ele>8.666666666666666</ele><time>2026-04-06T10:03:34.999Z</time></trkpt><trkpt lat="44.3608227566053" lon="8.58970047840944"><ele>8.333333333333332</ele><time>2026-04-06T10:03:35.999Z</time></trkpt><trkpt lat="44.36078879813455" lon="8.589931754168523"><ele>8.0</ele><time>2026-04-06T10:03:36.999Z</time></trkpt><trkpt lat="44.36076873882485" lon="8.590145774287326"><ele>8.0</ele><time>2026-04-06T10:03:37.999Z</time></trkpt><trkpt lat="44.360752831021664" lon="8.590341112072382"><ele>8.0</ele><time>2026-04-06T10:03:38.999Z</time></trkpt><trkpt lat="44.360746688474784" lon="8.59052276024964"><ele>8.0</ele><time>2026-04-06T10:03:39.999Z</time></trkpt><trkpt lat="44.36075011924594" lon="8.590698440659349"><ele>8.0</ele><time>2026-04-06T10:03:40.999Z</time></trkpt><trkpt lat="44.36077811148087" lon="8.590801629074159"><ele>8.833333333333332</ele><time>2026-04-06T10:03:41.999Z</time></trkpt><trkpt lat="44.36079533853537" lon="8.59090221727947"><ele>9.666666666666666</ele><time>2026-04-06T10:03:42.999Z</time></trkpt><trkpt lat="44.36081388814849" lon="8.591006942911754"><ele>10.5</ele><time>2026-04-06T10:03:43.999Z</time></trkpt><trkpt lat="44.36083553395307" lon="8.59112498965001"><ele>11.333333333333332</ele><time>2026-04-06T10:03:44.999Z</time></trkpt><trkpt lat="44.36085907155423" lon="8.591248215972167"><ele>12.166666666666666</ele><time>2026-04-06T10:03:45.999Z</time></trkpt><trkpt lat="44.36088071578242" lon="8.591383084469813"><ele>13.0</ele><time>2026-04-06T10:03:46.999Z</time></trkpt><trkpt lat="44.36089240509624" lon="8.59153353222728"><ele>13.2</ele><time>2026-04-06T10:03:47.999Z</time></trkpt><trkpt lat="44.360892269745044" lon="8.591684782306848"><ele>13.4</ele><time>2026-04-06T10:03:48.999Z</time></trkpt><trkpt lat="44.3608972016827" lon="8.591828514614111"><ele>13.599999999999998</ele><time>2026-04-06T10:03:49.999Z</time></trkpt><trkpt lat="44.36091925545014" lon="8.591982528437525"><ele>13.799999999999999</ele><time>2026-04-06T10:03:50.999Z</time></trkpt><trkpt lat="44.36096095021134" lon="8.592133281172288"><ele>14.0</ele><time>2026-04-06T10:03:51.999Z</time></trkpt><trkpt lat="44.36100415709426" lon="8.592272885357461"><ele>14.0</ele><time>2026-04-06T10:03:52.999Z</time></trkpt><trkpt lat="44.36106316105708" lon="8.592410704657606"><ele>13.999999999999998</ele><time>2026-04-06T10:03:53.999Z</time></trkpt><trkpt lat="44.361114338226166" lon="8.592539295692774"><ele>13.999999999999998</ele><time>2026-04-06T10:03:54.999Z</time></trkpt><trkpt lat="44.36116279739689" lon="8.592651914848439"><ele>14.0</ele><time>2026-04-06T10:03:55.999Z</time></trkpt><trkpt lat="44.361204501331244" lon="8.592777899838596"><ele>14.0</ele><time>2026-04-06T10:03:56.999Z</time></trkpt><trkpt lat="44.36125393893917" lon="8.59288906373013"><ele>13.799999999999999</ele><time>2026-04-06T10:03:57.999Z</time></trkpt><trkpt lat="44.361316168815314" lon="8.593006617676437"><ele>13.599999999999998</ele><time>2026-04-06T10:03:58.999Z</time></trkpt><trkpt lat="44.36136826474853" lon="8.593105028289889"><ele>13.4</ele><time>2026-04-06T10:03:59.999Z</time></trkpt><trkpt lat="44.36140682621817" lon="8.593225973526458"><ele>13.2</ele><time>2026-04-06T10:04:00.999Z</time></trkpt><trkpt lat="44.3614224905184" lon="8.593372737044618"><ele>13.0</ele><time>2026-04-06T10:04:01.999Z</time></trkpt><trkpt lat="44.36142887360515" lon="8.59351225305214"><ele>18.0</ele><time>2026-04-06T10:04:02.999Z</time></trkpt><trkpt lat="44.361431341226606" lon="8.593656268625297"><ele>23.0</ele><time>2026-04-06T10:04:03.999Z</time></trkpt><trkpt lat="44.3614452095056" lon="8.593783770837168"><ele>27.999999999999996</ele><time>2026-04-06T10:04:04.999Z</time></trkpt><trkpt lat="44.36146083141722" lon="8.593903137034582"><ele>33.0</ele><time>2026-04-06T10:04:05.999Z</time></trkpt><trkpt lat="44.36148293582205" lon="8.594034338753069"><ele>38.0</ele><time>2026-04-06T10:04:06.999Z</time></trkpt><trkpt lat="44.36152079805839" lon="8.594168023597707"><ele>38.0</ele><time>2026-04-06T10:04:07.999Z</time></trkpt><trkpt lat="44.361568147264926" lon="8.594293764007837"><ele>38.0</ele><time>2026-04-06T10:04:08.999Z</time></trkpt><trkpt lat="44.361623992295364" lon="8.594404668513512"><ele>38.0</ele><time>2026-04-06T10:04:09.999Z</time></trkpt><trkpt lat="44.36167992860574" lon="8.594497775129716"><ele>38.0</ele><time>2026-04-06T10:04:10.999Z</time></trkpt><trkpt lat="44.36173096510314" lon="8.594574625637485"><ele>38.0</ele><time>2026-04-06T10:04:11.999Z</time></trkpt><trkpt lat="44.361779349797175" lon="8.59464769830772"><ele>38.0</ele><time>2026-04-06T10:04:12.999Z</time></trkpt><trkpt lat="44.361833888620545" lon="8.59473777317744"><ele>35.5</ele><time>2026-04-06T10:04:13.999Z</time></trkpt><trkpt lat="44.36189398406124" lon="8.594833993755692"><ele>33.0</ele><time>2026-04-06T10:04:14.999Z</time></trkpt><trkpt lat="44.36194699160927" lon="8.594920256150457"><ele>30.5</ele><time>2026-04-06T10:04:15.999Z</time></trkpt><trkpt lat="44.361998941589974" lon="8.595002864434525"><ele>28.0</ele><time>2026-04-06T10:04:16.999Z</time></trkpt><trkpt lat="44.36205608104896" lon="8.595096614449742"><ele>25.5</ele><time>2026-04-06T10:04:17.999Z</time></trkpt><trkpt lat="44.362110090402" lon="8.595199745533995"><ele>23.0</ele><time>2026-04-06T10:04:18.999Z</time></trkpt><trkpt lat="44.36217373464642" lon="8.595316975517028"><ele>26.75</ele><time>2026-04-06T10:04:19.999Z</time></trkpt><trkpt lat="44.36223760307731" lon="8.595452773557298"><ele>30.5</ele><time>2026-04-06T10:04:20.999Z</time></trkpt><trkpt lat="44.36230532000996" lon="8.595592688274941"><ele>34.25</ele><time>2026-04-06T10:04:21.999Z</time></trkpt><trkpt lat="44.36237976831391" lon="8.595752733132391"><ele>38.0</ele><time>2026-04-06T10:04:22.999Z</time></trkpt><trkpt lat="44.362462074020925" lon="8.595945484899643"><ele>38.0</ele><time>2026-04-06T10:04:23.999Z</time></trkpt><trkpt lat="44.36254700144431" lon="8.596154825453464"><ele>38.0</ele><time>2026-04-06T10:04:24.999Z</time></trkpt><trkpt lat="44.36263482394789" lon="8.59636511878666"><ele>38.0</ele><time>2026-04-06T10:04:25.999Z</time></trkpt><trkpt lat="44.3627073643722" lon="8.596553693472273"><ele>35.0</ele><time>2026-04-06T10:04:26.999Z</time></trkpt><trkpt lat="44.36277593602271" lon="8.596720652833108"><ele>32.0</ele><time>2026-04-06T10:04:27.999Z</time></trkpt><trkpt lat="44.362840288485216" lon="8.596862906899672"><ele>29.0</ele><time>2026-04-06T10:04:28.999Z</time></trkpt><trkpt lat="44.362897266884865" lon="8.596998460334298"><ele>26.0</ele><time>2026-04-06T10:04:29.999Z</time></trkpt><trkpt lat="44.362942067114616" lon="8.597124125923362"><ele>24.666666666666664</ele><time>2026-04-06T10:04:30.999Z</time></trkpt><trkpt lat="44.362967044918385" lon="8.597247422122491"><ele>23.333333333333332</ele><time>2026-04-06T10:04:31.999Z</time></trkpt><trkpt lat="44.362971798012424" lon="8.59737492576055"><ele>22.0</ele><time>2026-04-06T10:04:32.999Z</time></trkpt><trkpt lat="44.36297496378958" lon="8.597495891900882"><ele>20.666666666666664</ele><time>2026-04-06T10:04:33.999Z</time></trkpt><trkpt lat="44.362984848870205" lon="8.5976131499446"><ele>19.333333333333332</ele><time>2026-04-06T10:04:34.999Z</time></trkpt><trkpt lat="44.36300318011929" lon="8.597715617087712"><ele>18.0</ele><time>2026-04-06T10:04:35.999Z</time></trkpt><trkpt lat="44.363035437679684" lon="8.59780096656974"><ele>20.833333333333332</ele><time>2026-04-06T10:04:36.999Z</time></trkpt><trkpt lat="44.36308807339594" lon="8.597867449624436"><ele>23.666666666666664</ele><time>2026-04-06T10:04:37.999Z</time></trkpt><trkpt lat="44.363156976905096" lon="8.5979157276709"><ele>26.5</ele><time>2026-04-06T10:04:38.998Z</time></trkpt><trkpt lat="44.363235565473786" lon="8.597932579261732"><ele>29.333333333333332</ele><time>2026-04-06T10:04:39.998Z</time></trkpt><trkpt lat="44.36332396038417" lon="8.597952852150035"><ele>32.166666666666664</ele><time>2026-04-06T10:04:40.998Z</time></trkpt><trkpt lat="44.36341596838693" lon="8.597973069024171"><ele>35.0</ele><time>2026-04-06T10:04:41.998Z</time></trkpt><trkpt lat="44.363507896522925" lon="8.597995295341066"><ele>35.0</ele><time>2026-04-06T10:04:42.998Z</time></trkpt><trkpt lat="44.36359744909875" lon="8.598018961987158"><ele>35.0</ele><time>2026-04-06T10:04:43.998Z</time></trkpt><trkpt lat="44.363680654309995" lon="8.59806078928835"><ele>35.0</ele><time>2026-04-06T10:04:44.998Z</time></trkpt><trkpt lat="44.36375376489226" lon="8.598136497142097"><ele>35.0</ele><time>2026-04-06T10:04:46Z</time></trkpt><trkpt lat="44.36383150642575" lon="8.598248496558526"><ele>35.0</ele><time>2026-04-06T10:04:47Z</time></trkpt><trkpt lat="44.36390407646808" lon="8.598364286855652"><ele>36.75</ele><time>2026-04-06T10:04:48Z</time></trkpt><trkpt lat="44.363992939955644" lon="8.598476895683941"><ele>38.5</ele><time>2026-04-06T10:04:49Z</time></trkpt><trkpt lat="44.36410099921867" lon="8.5986051106373"><ele>40.25</ele><time>2026-04-06T10:04:50Z</time></trkpt><trkpt lat="44.36423683822553" lon="8.5987440519417"><ele>42.0</ele><time>2026-04-06T10:04:51Z</time></trkpt><trkpt lat="44.36439677961744" lon="8.598884483086284"><ele>42.0</ele><time>2026-04-06T10:04:52Z</time></trkpt><trkpt lat="44.36453329456504" lon="8.599012185813981"><ele>42.0</ele><time>2026-04-06T10:04:53Z</time></trkpt><trkpt lat="44.36462311644103" lon="8.599170658948044"><ele>42.0</ele><time>2026-04-06T10:04:54Z</time></trkpt><trkpt lat="44.36467185703361" lon="8.599365539791668"><ele>38.75</ele><time>2026-04-06T10:04:55Z</time></trkpt><trkpt lat="44.3646932760618" lon="8.599573122799745"><ele>35.5</ele><time>2026-04-06T10:04:56Z</time></trkpt><trkpt lat="44.364732861680466" lon="8.599757765390146"><ele>32.25</ele><time>2026-04-06T10:04:57Z</time></trkpt><trkpt lat="44.364802328156834" lon="8.5998981408392"><ele>29.0</ele><time>2026-04-06T10:04:58Z</time></trkpt><trkpt lat="44.36490299724865" lon="8.599971319969871"><ele>36.75</ele><time>2026-04-06T10:04:59Z</time></trkpt><trkpt lat="44.365020721099874" lon="8.599959057148428"><ele>44.5</ele><time>2026-04-06T10:05:00Z</time></trkpt><trkpt lat="44.365153957072025" lon="8.599909261399107"><ele>52.25</ele><time>2026-04-06T10:05:01Z</time></trkpt><trkpt lat="44.36528371634851" lon="8.599891091685071"><ele>60.0</ele><time>2026-04-06T10:05:02Z</time></trkpt><trkpt lat="44.36541000836569" lon="8.599948468955665"><ele>63.5</ele><time>2026-04-06T10:05:03Z</time></trkpt><trkpt lat="44.36553044425185" lon="8.600023093403973"><ele>67.0</ele><time>2026-04-06T10:05:04Z</time></trkpt><trkpt lat="44.36564048931938" lon="8.600100311049589"><ele>70.5</ele><time>2026-04-06T10:05:05Z</time></trkpt><trkpt lat="44.3657478785124" lon="8.60017835115906"><ele>74.0</ele><time>2026-04-06T10:05:06Z</time></trkpt><trkpt lat="44.36582966640002" lon="8.60026208674826"><ele>73.8</ele><time>2026-04-06T10:05:07Z</time></trkpt><trkpt lat="44.36587685562288" lon="8.600392868680288"><ele>73.60000000000001</ele><time>2026-04-06T10:05:08Z</time></trkpt><trkpt lat="44.36587507464254" lon="8.600541428680941"><ele>73.4</ele><time>2026-04-06T10:05:09Z</time></trkpt><trkpt lat="44.36581839048622" lon="8.60067944012745"><ele>73.2</ele><time>2026-04-06T10:05:10Z</time></trkpt><trkpt lat="44.365708834322604" lon="8.60075340742895"><ele>73.0</ele><time>2026-04-06T10:05:11Z</time></trkpt><trkpt lat="44.36559467542635" lon="8.600794230873259"><ele>69.8</ele><time>2026-04-06T10:05:12Z</time></trkpt><trkpt lat="44.36549153263199" lon="8.600865320281214"><ele>66.6</ele><time>2026-04-06T10:05:13Z</time></trkpt><trkpt lat="44.36542715917018" lon="8.600984931574873"><ele>63.400000000000006</ele><time>2026-04-06T10:05:14Z</time></trkpt><trkpt lat="44.36541065422161" lon="8.601142759204022"><ele>60.2</ele><time>2026-04-06T10:05:15Z</time></trkpt><trkpt lat="44.365423151737154" lon="8.601292753814999"><ele>57.0</ele><time>2026-04-06T10:05:16Z</time></trkpt><trkpt lat="44.36550158963929" lon="8.601445605587537"><ele>59.5</ele><time>2026-04-06T10:05:17Z</time></trkpt><trkpt lat="44.36558064197101" lon="8.601588685265577"><ele>62.0</ele><time>2026-04-06T10:05:18Z</time></trkpt><trkpt lat="44.36565299187426" lon="8.601742005336833"><ele>64.5</ele><time>2026-04-06T10:05:19Z</time></trkpt><trkpt lat="44.36571711025122" lon="8.601883616367344"><ele>67.0</ele><time>2026-04-06T10:05:20Z</time></trkpt><trkpt lat="44.3657692725814" lon="8.602016803773287"><ele>67.0</ele><time>2026-04-06T10:05:21Z</time></trkpt><trkpt lat="44.36582163194832" lon="8.602147205476196"><ele>67.0</ele><time>2026-04-06T10:05:22Z</time></trkpt><trkpt lat="44.36585743217789" lon="8.602296152395041"><ele>67.0</ele><time>2026-04-06T10:05:23Z</time></trkpt><trkpt lat="44.36587671742502" lon="8.602460865413184"><ele>67.0</ele><time>2026-04-06T10:05:24Z</time></trkpt><trkpt lat="44.36588680883288" lon="8.602634160045639"><ele>67.0</ele><time>2026-04-06T10:05:25Z</time></trkpt><trkpt lat="44.36589601652826" lon="8.602801821079106"><ele>67.0</ele><time>2026-04-06T10:05:26Z</time></trkpt><trkpt lat="44.365926800122594" lon="8.602966253142736"><ele>67.0</ele><time>2026-04-06T10:05:27Z</time></trkpt><trkpt lat="44.36597196011161" lon="8.603128256502313"><ele>67.0</ele><time>2026-04-06T10:05:27.999Z</time></trkpt><trkpt lat="44.36604114273018" lon="8.60328249681876"><ele>68.25</ele><time>2026-04-06T10:05:28.999Z</time></trkpt><trkpt lat="44.36613073318346" lon="8.603412793223276"><ele>69.5</ele><time>2026-04-06T10:05:29.999Z</time></trkpt><trkpt lat="44.3662306336313" lon="8.603532261146592"><ele>70.75</ele><time>2026-04-06T10:05:30.999Z</time></trkpt><trkpt lat="44.36632617817257" lon="8.603651436129045"><ele>72.0</ele><time>2026-04-06T10:05:31.999Z</time></trkpt><trkpt lat="44.36641666993926" lon="8.603766153163189"><ele>72.0</ele><time>2026-04-06T10:05:32.999Z</time></trkpt><trkpt lat="44.3665010417402" lon="8.603880607751645"><ele>72.0</ele><time>2026-04-06T10:05:33.999Z</time></trkpt><trkpt lat="44.36658160564381" lon="8.603982244706305"><ele>72.0</ele><time>2026-04-06T10:05:34.999Z</time></trkpt><trkpt lat="44.366659907781" lon="8.604083133749086"><ele>72.0</ele><time>2026-04-06T10:05:35.999Z</time></trkpt><trkpt lat="44.36674033699834" lon="8.604184420890084"><ele>72.0</ele><time>2026-04-06T10:05:36.999Z</time></trkpt><trkpt lat="44.36682162154804" lon="8.60429118054288"><ele>72.0</ele><time>2026-04-06T10:05:37.999Z</time></trkpt><trkpt lat="44.36689307295408" lon="8.604409840384047"><ele>72.0</ele><time>2026-04-06T10:05:38.999Z</time></trkpt><trkpt lat="44.36695523514036" lon="8.604551045902943"><ele>72.0</ele><time>2026-04-06T10:05:39.999Z</time></trkpt><trkpt lat="44.36701070005001" lon="8.604713147752106"><ele>72.0</ele><time>2026-04-06T10:05:40.999Z</time></trkpt><trkpt lat="44.36707379447745" lon="8.604878906163524"><ele>71.75</ele><time>2026-04-06T10:05:41.999Z</time></trkpt><trkpt lat="44.36714477128432" lon="8.605036919852735"><ele>71.5</ele><time>2026-04-06T10:05:42.999Z</time></trkpt><trkpt lat="44.367221577686806" lon="8.605191456842856"><ele>71.25</ele><time>2026-04-06T10:05:43.999Z</time></trkpt><trkpt lat="44.367299756951546" lon="8.605348541637742"><ele>71.0</ele><time>2026-04-06T10:05:44.999Z</time></trkpt><trkpt lat="44.3673769552812" lon="8.605503892355562"><ele>71.0</ele><time>2026-04-06T10:05:45.999Z</time></trkpt><trkpt lat="44.3674509390522" lon="8.60566082012372"><ele>71.0</ele><time>2026-04-06T10:05:46.999Z</time></trkpt><trkpt lat="44.367527863338125" lon="8.605814593722059"><ele>71.0</ele><time>2026-04-06T10:05:47.999Z</time></trkpt><trkpt lat="44.367609121162474" lon="8.605962450344428"><ele>71.0</ele><time>2026-04-06T10:05:48.999Z</time></trkpt><trkpt lat="44.36769183597902" lon="8.60610259165914"><ele>72.25</ele><time>2026-04-06T10:05:49.999Z</time></trkpt><trkpt lat="44.367784895543394" lon="8.606224587790072"><ele>73.5</ele><time>2026-04-06T10:05:50.999Z</time></trkpt><trkpt lat="44.367886708427136" lon="8.606330281004265"><ele>74.75</ele><time>2026-04-06T10:05:51.999Z</time></trkpt><trkpt lat="44.36798863825612" lon="8.606417894381657"><ele>76.0</ele><time>2026-04-06T10:05:52.999Z</time></trkpt><trkpt lat="44.368091720404315" lon="8.60651105483076"><ele>76.0</ele><time>2026-04-06T10:05:53.999Z</time></trkpt><trkpt lat="44.36818997541541" lon="8.606593211756845"><ele>76.0</ele><time>2026-04-06T10:05:54.999Z</time></trkpt><trkpt lat="44.36828893900581" lon="8.606672852250346"><ele>76.0</ele><time>2026-04-06T10:05:55.999Z</time></trkpt><trkpt lat="44.36837845065029" lon="8.606763438291205"><ele>76.0</ele><time>2026-04-06T10:05:56.999Z</time></trkpt><trkpt lat="44.36845145050278" lon="8.606874757374039"><ele>76.0</ele><time>2026-04-06T10:05:57.999Z</time></trkpt><trkpt lat="44.36851285154761" lon="8.607010726978539"><ele>75.0</ele><time>2026-04-06T10:05:58.999Z</time></trkpt><trkpt lat="44.3685612546312" lon="8.60717105520222"><ele>74.0</ele><time>2026-04-06T10:05:59.999Z</time></trkpt><trkpt lat="44.368590642339484" lon="8.607338118134367"><ele>73.0</ele><time>2026-04-06T10:06:00.999Z</time></trkpt><trkpt lat="44.368609636585376" lon="8.607508306320387"><ele>72.0</ele><time>2026-04-06T10:06:01.999Z</time></trkpt><trkpt lat="44.36863215530941" lon="8.607664728631558"><ele>70.75</ele><time>2026-04-06T10:06:02.999Z</time></trkpt><trkpt lat="44.36866119964035" lon="8.607828371392193"><ele>69.5</ele><time>2026-04-06T10:06:03.999Z</time></trkpt><trkpt lat="44.36868368631062" lon="8.607982749681883"><ele>68.25</ele><time>2026-04-06T10:06:04.999Z</time></trkpt><trkpt lat="44.36870565541854" lon="8.608145805812239"><ele>67.0</ele><time>2026-04-06T10:06:05.999Z</time></trkpt><trkpt lat="44.36873130030991" lon="8.60832198414535"><ele>67.0</ele><time>2026-04-06T10:06:06.999Z</time></trkpt><trkpt lat="44.36876177384869" lon="8.608501899258854"><ele>67.0</ele><time>2026-04-06T10:06:07.999Z</time></trkpt><trkpt lat="44.368791247421655" lon="8.608687129002012"><ele>67.0</ele><time>2026-04-06T10:06:08.999Z</time></trkpt><trkpt lat="44.36882258969794" lon="8.608869350623282"><ele>67.0</ele><time>2026-04-06T10:06:09.999Z</time></trkpt><trkpt lat="44.36885551132963" lon="8.60905291909135"><ele>70.75</ele><time>2026-04-06T10:06:10.999Z</time></trkpt><trkpt lat="44.368884058933716" lon="8.609220619135682"><ele>74.5</ele><time>2026-04-06T10:06:11.999Z</time></trkpt><trkpt lat="44.36890991288711" lon="8.609392837736571"><ele>78.25</ele><time>2026-04-06T10:06:12.999Z</time></trkpt><trkpt lat="44.36891290632086" lon="8.609568528587598"><ele>82.0</ele><time>2026-04-06T10:06:13.999Z</time></trkpt><trkpt lat="44.36891238348584" lon="8.609752419482618"><ele>82.0</ele><time>2026-04-06T10:06:14.999Z</time></trkpt><trkpt lat="44.368906045545074" lon="8.60992648240706"><ele>82.0</ele><time>2026-04-06T10:06:15.999Z</time></trkpt><trkpt lat="44.3688986738125" lon="8.610096342736602"><ele>82.0</ele><time>2026-04-06T10:06:16.999Z</time></trkpt><trkpt lat="44.36889731662732" lon="8.6102587622168"><ele>82.0</ele><time>2026-04-06T10:06:17.999Z</time></trkpt><trkpt lat="44.36889238265823" lon="8.610417238520585"><ele>81.5</ele><time>2026-04-06T10:06:18.999Z</time></trkpt><trkpt lat="44.36888533500112" lon="8.61057755666004"><ele>81.0</ele><time>2026-04-06T10:06:19.999Z</time></trkpt><trkpt lat="44.368875993737156" lon="8.610742000099739"><ele>80.5</ele><time>2026-04-06T10:06:20.999Z</time></trkpt><trkpt lat="44.3688620079635" lon="8.610903598462038"><ele>80.0</ele><time>2026-04-06T10:06:21.999Z</time></trkpt><trkpt lat="44.36885175982128" lon="8.611074019653234"><ele>79.75</ele><time>2026-04-06T10:06:22.999Z</time></trkpt><trkpt lat="44.36884728333708" lon="8.611264044108635"><ele>79.5</ele><time>2026-04-06T10:06:23.999Z</time></trkpt><trkpt lat="44.36884991069281" lon="8.611445365892736"><ele>79.25</ele><time>2026-04-06T10:06:24.999Z</time></trkpt><trkpt lat="44.36885648295779" lon="8.611625205220054"><ele>79.0</ele><time>2026-04-06T10:06:25.999Z</time></trkpt><trkpt lat="44.36887315249197" lon="8.611805007728512"><ele>79.0</ele><time>2026-04-06T10:06:26.999Z</time></trkpt><trkpt lat="44.36890732246047" lon="8.6119859593486"><ele>79.0</ele><time>2026-04-06T10:06:27.999Z</time></trkpt><trkpt lat="44.368951704051604" lon="8.612153194120653"><ele>79.0</ele><time>2026-04-06T10:06:28.999Z</time></trkpt><trkpt lat="44.36901037219374" lon="8.612328501057673"><ele>79.0</ele><time>2026-04-06T10:06:29.999Z</time></trkpt><trkpt lat="44.36906286726913" lon="8.612506404163911"><ele>78.0</ele><time>2026-04-06T10:06:30.999Z</time></trkpt><trkpt lat="44.3691127446166" lon="8.612682108331969"><ele>77.0</ele><time>2026-04-06T10:06:31.999Z</time></trkpt><trkpt lat="44.369163027280194" lon="8.612860495168684"><ele>76.0</ele><time>2026-04-06T10:06:32.999Z</time></trkpt><trkpt lat="44.3692112415777" lon="8.613028125633516"><ele>75.0</ele><time>2026-04-06T10:06:33.999Z</time></trkpt><trkpt lat="44.36926374747202" lon="8.613189007827605"><ele>74.5</ele><time>2026-04-06T10:06:34.999Z</time></trkpt><trkpt lat="44.36931565519583" lon="8.613369488906756"><ele>74.0</ele><time>2026-04-06T10:06:35.999Z</time></trkpt><trkpt lat="44.36936515519111" lon="8.61352975773528"><ele>73.5</ele><time>2026-04-06T10:06:36.999Z</time></trkpt><trkpt lat="44.369416699454746" lon="8.613697493081165"><ele>73.0</ele><time>2026-04-06T10:06:37.999Z</time></trkpt><trkpt lat="44.369493062819764" lon="8.613844929062788"><ele>73.75</ele><time>2026-04-06T10:06:38.999Z</time></trkpt><trkpt lat="44.36959795250781" lon="8.613973242613344"><ele>74.5</ele><time>2026-04-06T10:06:39.999Z</time></trkpt><trkpt lat="44.36970676510621" lon="8.614096217459545"><ele>75.25</ele><time>2026-04-06T10:06:40.999Z</time></trkpt><trkpt lat="44.369813289861455" lon="8.614224905318652"><ele>76.0</ele><time>2026-04-06T10:06:41.998Z</time></trkpt><trkpt lat="44.369917386862326" lon="8.614356096585844"><ele>73.75</ele><time>2026-04-06T10:06:42.998Z</time></trkpt><trkpt lat="44.370025057541326" lon="8.614491449360287"><ele>71.5</ele><time>2026-04-06T10:06:43.998Z</time></trkpt><trkpt lat="44.37013976448198" lon="8.614612397787381"><ele>69.25</ele><time>2026-04-06T10:06:44.998Z</time></trkpt><trkpt lat="44.37025624424982" lon="8.614712850000743"><ele>67.0</ele><time>2026-04-06T10:06:45.998Z</time></trkpt><trkpt lat="44.37036770444607" lon="8.614784672159779"><ele>67.0</ele><time>2026-04-06T10:06:46.998Z</time></trkpt><trkpt lat="44.37048465047118" lon="8.614862011558229"><ele>67.0</ele><time>2026-04-06T10:06:47.998Z</time></trkpt><trkpt lat="44.37059654715441" lon="8.614962122901263"><ele>67.0</ele><time>2026-04-06T10:06:48.998Z</time></trkpt><trkpt lat="44.37068598070852" lon="8.615096048268716"><ele>67.0</ele><time>2026-04-06T10:06:49.998Z</time></trkpt><trkpt lat="44.37074063485922" lon="8.615272249619672"><ele>68.5</ele><time>2026-04-06T10:06:50.998Z</time></trkpt><trkpt lat="44.37076094917552" lon="8.615468911746769"><ele>70.0</ele><time>2026-04-06T10:06:52Z</time></trkpt><trkpt lat="44.370744691620125" lon="8.615669920394952"><ele>71.5</ele><time>2026-04-06T10:06:53Z</time></trkpt><trkpt lat="44.370746230016394" lon="8.615860320452109"><ele>73.0</ele><time>2026-04-06T10:06:54Z</time></trkpt><trkpt lat="44.37075087643131" lon="8.61603852852671"><ele>71.5</ele><time>2026-04-06T10:06:55Z</time></trkpt><trkpt lat="44.370761079931306" lon="8.616207382685536"><ele>70.0</ele><time>2026-04-06T10:06:56Z</time></trkpt><trkpt lat="44.3707945338083" lon="8.616376312226974"><ele>68.5</ele><time>2026-04-06T10:06:57Z</time></trkpt><trkpt lat="44.370867749172376" lon="8.616521776426474"><ele>67.0</ele><time>2026-04-06T10:06:58Z</time></trkpt><trkpt lat="44.37096246636984" lon="8.61665676116058"><ele>67.0</ele><time>2026-04-06T10:06:59Z</time></trkpt><trkpt lat="44.3710616419957" lon="8.616783277193209"><ele>67.0</ele><time>2026-04-06T10:07:00Z</time></trkpt><trkpt lat="44.37115265074384" lon="8.616909976571892"><ele>67.0</ele><time>2026-04-06T10:07:01Z</time></trkpt><trkpt lat="44.37122420382843" lon="8.617050065492164"><ele>67.0</ele><time>2026-04-06T10:07:02Z</time></trkpt><trkpt lat="44.37127499768398" lon="8.617207117000374"><ele>67.75</ele><time>2026-04-06T10:07:03Z</time></trkpt><trkpt lat="44.371320553528825" lon="8.617366887280582"><ele>68.5</ele><time>2026-04-06T10:07:04Z</time></trkpt><trkpt lat="44.37136411091554" lon="8.617520569322608"><ele>69.25</ele><time>2026-04-06T10:07:05Z</time></trkpt><trkpt lat="44.371410344387385" lon="8.617675558781873"><ele>70.0</ele><time>2026-04-06T10:07:06Z</time></trkpt><trkpt lat="44.37145754109429" lon="8.617829944150586"><ele>70.0</ele><time>2026-04-06T10:07:07Z</time></trkpt><trkpt lat="44.371510752288884" lon="8.617989457761869"><ele>70.0</ele><time>2026-04-06T10:07:08Z</time></trkpt><trkpt lat="44.37156446306094" lon="8.618154007235338"><ele>70.0</ele><time>2026-04-06T10:07:09Z</time></trkpt><trkpt lat="44.371614895091284" lon="8.618311830196198"><ele>70.0</ele><time>2026-04-06T10:07:10Z</time></trkpt><trkpt lat="44.371666686599156" lon="8.618477828764219"><ele>70.0</ele><time>2026-04-06T10:07:11Z</time></trkpt><trkpt lat="44.37171968534304" lon="8.618642181674897"><ele>70.0</ele><time>2026-04-06T10:07:12Z</time></trkpt><trkpt lat="44.371775702573444" lon="8.61881375490768"><ele>70.0</ele><time>2026-04-06T10:07:13Z</time></trkpt><trkpt lat="44.37183797994566" lon="8.618980987595474"><ele>70.0</ele><time>2026-04-06T10:07:14Z</time></trkpt><trkpt lat="44.37189033136759" lon="8.619137054222314"><ele>69.0</ele><time>2026-04-06T10:07:15Z</time></trkpt><trkpt lat="44.37195713350016" lon="8.619276937909762"><ele>68.0</ele><time>2026-04-06T10:07:16Z</time></trkpt><trkpt lat="44.372024745690524" lon="8.619407314152925"><ele>67.0</ele><time>2026-04-06T10:07:17Z</time></trkpt><trkpt lat="44.372106937387514" lon="8.619518897956738"><ele>66.0</ele><time>2026-04-06T10:07:18Z</time></trkpt><trkpt lat="44.37221900548231" lon="8.61961053008883"><ele>66.0</ele><time>2026-04-06T10:07:19Z</time></trkpt><trkpt lat="44.37234077598658" lon="8.619676625092298"><ele>66.0</ele><time>2026-04-06T10:07:20Z</time></trkpt><trkpt lat="44.372466869647596" lon="8.619718263308876"><ele>66.0</ele><time>2026-04-06T10:07:21Z</time></trkpt><trkpt lat="44.37257991264371" lon="8.61976664393635"><ele>66.0</ele><time>2026-04-06T10:07:22Z</time></trkpt><trkpt lat="44.37269123538779" lon="8.619822938286628"><ele>66.0</ele><time>2026-04-06T10:07:23Z</time></trkpt><trkpt lat="44.3727980791449" lon="8.619887754607147"><ele>66.0</ele><time>2026-04-06T10:07:24Z</time></trkpt><trkpt lat="44.372885128117915" lon="8.61998424562139"><ele>66.0</ele><time>2026-04-06T10:07:25Z</time></trkpt><trkpt lat="44.37294855962868" lon="8.620108336853123"><ele>66.0</ele><time>2026-04-06T10:07:26Z</time></trkpt><trkpt lat="44.372978907670806" lon="8.620265631433831"><ele>62.25</ele><time>2026-04-06T10:07:27Z</time></trkpt><trkpt lat="44.37297936464794" lon="8.620436796816028"><ele>58.5</ele><time>2026-04-06T10:07:28Z</time></trkpt><trkpt lat="44.37294920784429" lon="8.620619694517043"><ele>54.75</ele><time>2026-04-06T10:07:29Z</time></trkpt><trkpt lat="44.372907669981274" lon="8.620797823619275"><ele>51.0</ele><time>2026-04-06T10:07:30Z</time></trkpt><trkpt lat="44.37288284782976" lon="8.620969524660653"><ele>51.0</ele><time>2026-04-06T10:07:31Z</time></trkpt><trkpt lat="44.37286317314355" lon="8.621134684640678"><ele>51.0</ele><time>2026-04-06T10:07:32Z</time></trkpt><trkpt lat="44.372843783681205" lon="8.6212923529504"><ele>51.0</ele><time>2026-04-06T10:07:33Z</time></trkpt><trkpt lat="44.3728307786418" lon="8.62144977835944"><ele>51.0</ele><time>2026-04-06T10:07:34Z</time></trkpt><trkpt lat="44.37282171617745" lon="8.621614275679876"><ele>49.75</ele><time>2026-04-06T10:07:35Z</time></trkpt><trkpt lat="44.37280419700065" lon="8.621773995225618"><ele>48.5</ele><time>2026-04-06T10:07:36Z</time></trkpt><trkpt lat="44.372761356276264" lon="8.621923088698008"><ele>47.25</ele><time>2026-04-06T10:07:37Z</time></trkpt><trkpt lat="44.372704020570424" lon="8.622075589238234"><ele>46.0</ele><time>2026-04-06T10:07:37.999Z</time></trkpt><trkpt lat="44.37263345418998" lon="8.622232537373495"><ele>46.0</ele><time>2026-04-06T10:07:38.999Z</time></trkpt><trkpt lat="44.372571910473674" lon="8.62238667912808"><ele>46.0</ele><time>2026-04-06T10:07:39.999Z</time></trkpt><trkpt lat="44.372513173024245" lon="8.622538596727173"><ele>46.0</ele><time>2026-04-06T10:07:40.999Z</time></trkpt><trkpt lat="44.37245548541936" lon="8.622686170829745"><ele>46.0</ele><time>2026-04-06T10:07:41.999Z</time></trkpt><trkpt lat="44.37240386450519" lon="8.62283020346973"><ele>46.599999999999994</ele><time>2026-04-06T10:07:42.999Z</time></trkpt><trkpt lat="44.372356038145696" lon="8.622974471063817"><ele>47.2</ele><time>2026-04-06T10:07:43.999Z</time></trkpt><trkpt lat="44.372313003432794" lon="8.623108895155001"><ele>47.8</ele><time>2026-04-06T10:07:44.999Z</time></trkpt><trkpt lat="44.37227898225547" lon="8.62324083263704"><ele>48.400000000000006</ele><time>2026-04-06T10:07:45.999Z</time></trkpt><trkpt lat="44.372242030161345" lon="8.623374794331838"><ele>49.0</ele><time>2026-04-06T10:07:46.999Z</time></trkpt><trkpt lat="44.3722225807472" lon="8.623514906039944"><ele>49.0</ele><time>2026-04-06T10:07:47.999Z</time></trkpt><trkpt lat="44.37223037793122" lon="8.623640460935354"><ele>49.0</ele><time>2026-04-06T10:07:48.999Z</time></trkpt><trkpt lat="44.372261997400464" lon="8.62375523493348"><ele>49.0</ele><time>2026-04-06T10:07:49.999Z</time></trkpt><trkpt lat="44.372316739827966" lon="8.623839148557016"><ele>49.0</ele><time>2026-04-06T10:07:50.999Z</time></trkpt><trkpt lat="44.37240827749786" lon="8.623880920581922"><ele>49.0</ele><time>2026-04-06T10:07:51.999Z</time></trkpt><trkpt lat="44.37250970398039" lon="8.62386812784265"><ele>46.666666666666664</ele><time>2026-04-06T10:07:52.999Z</time></trkpt><trkpt lat="44.37259215945285" lon="8.623846936345398"><ele>44.33333333333333</ele><time>2026-04-06T10:07:53.999Z</time></trkpt><trkpt lat="44.372673344554464" lon="8.623850085180898"><ele>42.0</ele><time>2026-04-06T10:07:54.999Z</time></trkpt><trkpt lat="44.372756534616556" lon="8.623896584183326"><ele>39.666666666666664</ele><time>2026-04-06T10:07:55.999Z</time></trkpt><trkpt lat="44.37282329107054" lon="8.62399545749656"><ele>37.33333333333333</ele><time>2026-04-06T10:07:56.999Z</time></trkpt><trkpt lat="44.372871893071306" lon="8.624104804951072"><ele>35.0</ele><time>2026-04-06T10:07:57.999Z</time></trkpt><trkpt lat="44.372952512467684" lon="8.62422847834082"><ele>35.0</ele><time>2026-04-06T10:07:58.999Z</time></trkpt><trkpt lat="44.373021894728524" lon="8.624337477524167"><ele>35.0</ele><time>2026-04-06T10:07:59.999Z</time></trkpt><trkpt lat="44.373089210281925" lon="8.624442552832866"><ele>35.0</ele><time>2026-04-06T10:08:00.999Z</time></trkpt><trkpt lat="44.37315683192609" lon="8.624558048507293"><ele>35.0</ele><time>2026-04-06T10:08:01.999Z</time></trkpt><trkpt lat="44.373228012665976" lon="8.624669004318362"><ele>35.0</ele><time>2026-04-06T10:08:02.999Z</time></trkpt><trkpt lat="44.373303292142204" lon="8.624779485672539"><ele>33.5</ele><time>2026-04-06T10:08:03.999Z</time></trkpt><trkpt lat="44.373401874462424" lon="8.624856797091663"><ele>32.0</ele><time>2026-04-06T10:08:04.999Z</time></trkpt><trkpt lat="44.37351804714625" lon="8.624896836665428"><ele>30.5</ele><time>2026-04-06T10:08:05.999Z</time></trkpt><trkpt lat="44.37364269270337" lon="8.624916417853957"><ele>29.0</ele><time>2026-04-06T10:08:06.999Z</time></trkpt><trkpt lat="44.37376804729887" lon="8.624909482461508"><ele>31.0</ele><time>2026-04-06T10:08:07.999Z</time></trkpt><trkpt lat="44.37388373143504" lon="8.6248918116778"><ele>33.0</ele><time>2026-04-06T10:08:08.999Z</time></trkpt><trkpt lat="44.3740053176724" lon="8.624900369809245"><ele>35.0</ele><time>2026-04-06T10:08:09.999Z</time></trkpt><trkpt lat="44.374124790698524" lon="8.624914700595845"><ele>37.0</ele><time>2026-04-06T10:08:10.999Z</time></trkpt><trkpt lat="44.37424749200746" lon="8.624917547269112"><ele>37.0</ele><time>2026-04-06T10:08:11.999Z</time></trkpt><trkpt lat="44.37437198111528" lon="8.62492284196497"><ele>37.0</ele><time>2026-04-06T10:08:12.999Z</time></trkpt><trkpt lat="44.37448790114849" lon="8.62492595387219"><ele>37.0</ele><time>2026-04-06T10:08:13.999Z</time></trkpt><trkpt lat="44.37460098092887" lon="8.624909529377291"><ele>37.0</ele><time>2026-04-06T10:08:14.999Z</time></trkpt><trkpt lat="44.374705927081294" lon="8.62487160628326"><ele>37.8</ele><time>2026-04-06T10:08:15.999Z</time></trkpt><trkpt lat="44.374811421380194" lon="8.62479576421521"><ele>38.6</ele><time>2026-04-06T10:08:16.999Z</time></trkpt><trkpt lat="44.37490443680655" lon="8.624702926295233"><ele>39.4</ele><time>2026-04-06T10:08:17.999Z</time></trkpt><trkpt lat="44.374979377087506" lon="8.624586976310042"><ele>40.199999999999996</ele><time>2026-04-06T10:08:18.999Z</time></trkpt><trkpt lat="44.37502289183549" lon="8.624472065781452"><ele>41.0</ele><time>2026-04-06T10:08:19.999Z</time></trkpt><trkpt lat="44.37503424831284" lon="8.624342093492066"><ele>41.0</ele><time>2026-04-06T10:08:20.999Z</time></trkpt><trkpt lat="44.375043058797225" lon="8.624203469931246"><ele>41.0</ele><time>2026-04-06T10:08:21.999Z</time></trkpt><trkpt lat="44.375061233657995" lon="8.624083669418557"><ele>41.0</ele><time>2026-04-06T10:08:22.999Z</time></trkpt><trkpt lat="44.37510793993641" lon="8.623975852890808"><ele>41.0</ele><time>2026-04-06T10:08:23.999Z</time></trkpt><trkpt lat="44.37517385831153" lon="8.623882587928899"><ele>41.0</ele><time>2026-04-06T10:08:24.999Z</time></trkpt><trkpt lat="44.375258080263826" lon="8.62380631477386"><ele>41.0</ele><time>2026-04-06T10:08:25.999Z</time></trkpt><trkpt lat="44.37534829100589" lon="8.623744487136836"><ele>41.0</ele><time>2026-04-06T10:08:26.999Z</time></trkpt><trkpt lat="44.37545220346391" lon="8.623703899238192"><ele>41.0</ele><time>2026-04-06T10:08:27.999Z</time></trkpt><trkpt lat="44.37556612051411" lon="8.623690917756301"><ele>41.0</ele><time>2026-04-06T10:08:28.999Z</time></trkpt><trkpt lat="44.37567986600256" lon="8.623725489581188"><ele>41.0</ele><time>2026-04-06T10:08:29.999Z</time></trkpt><trkpt lat="44.37576839381203" lon="8.623839309677333"><ele>40.25</ele><time>2026-04-06T10:08:30.999Z</time></trkpt><trkpt lat="44.375819232862284" lon="8.624004691469018"><ele>39.5</ele><time>2026-04-06T10:08:31.999Z</time></trkpt><trkpt lat="44.37582680804133" lon="8.624222365786606"><ele>38.75</ele><time>2026-04-06T10:08:32.999Z</time></trkpt><trkpt lat="44.37581346168965" lon="8.624434998606732"><ele>38.0</ele><time>2026-04-06T10:08:33.999Z</time></trkpt><trkpt lat="44.375789921899944" lon="8.624619447853528"><ele>37.25</ele><time>2026-04-06T10:08:34.999Z</time></trkpt><trkpt lat="44.37577362031413" lon="8.624793418442826"><ele>36.5</ele><time>2026-04-06T10:08:35.999Z</time></trkpt><trkpt lat="44.37575038173111" lon="8.624955314032945"><ele>35.75</ele><time>2026-04-06T10:08:36.999Z</time></trkpt><trkpt lat="44.375706169947016" lon="8.625110649642963"><ele>35.0</ele><time>2026-04-06T10:08:37.999Z</time></trkpt><trkpt lat="44.37565271004977" lon="8.625240818295193"><ele>32.4</ele><time>2026-04-06T10:08:38.999Z</time></trkpt><trkpt lat="44.37559601466927" lon="8.625345392494356"><ele>29.8</ele><time>2026-04-06T10:08:39.999Z</time></trkpt><trkpt lat="44.375530515030405" lon="8.625471346998644"><ele>27.200000000000003</ele><time>2026-04-06T10:08:40.999Z</time></trkpt><trkpt lat="44.37546430647274" lon="8.625592171479067"><ele>24.6</ele><time>2026-04-06T10:08:41.999Z</time></trkpt><trkpt lat="44.37538825730484" lon="8.625683297583503"><ele>22.0</ele><time>2026-04-06T10:08:42.999Z</time></trkpt><trkpt lat="44.375316068457145" lon="8.62576507462517"><ele>22.0</ele><time>2026-04-06T10:08:43.999Z</time></trkpt><trkpt lat="44.37524707413396" lon="8.625850284337227"><ele>22.0</ele><time>2026-04-06T10:08:44.999Z</time></trkpt><trkpt lat="44.37518462047676" lon="8.625948829225472"><ele>22.0</ele><time>2026-04-06T10:08:45.999Z</time></trkpt><trkpt lat="44.37512867302062" lon="8.626052682134311"><ele>22.0</ele><time>2026-04-06T10:08:46.999Z</time></trkpt><trkpt lat="44.3750754577044" lon="8.626146207266858"><ele>22.0</ele><time>2026-04-06T10:08:47.999Z</time></trkpt><trkpt lat="44.37499825070294" lon="8.626231422054571"><ele>23.333333333333332</ele><time>2026-04-06T10:08:48.999Z</time></trkpt><trkpt lat="44.374909995140705" lon="8.626302662914592"><ele>24.666666666666664</ele><time>2026-04-06T10:08:49.999Z</time></trkpt><trkpt lat="44.374825577309444" lon="8.626377389317874"><ele>26.0</ele><time>2026-04-06T10:08:50.999Z</time></trkpt><trkpt lat="44.37476182728246" lon="8.626446509896999"><ele>27.333333333333332</ele><time>2026-04-06T10:08:51.999Z</time></trkpt><trkpt lat="44.37472177897146" lon="8.626537160096074"><ele>28.666666666666668</ele><time>2026-04-06T10:08:52.999Z</time></trkpt><trkpt lat="44.374721945360506" lon="8.626638255435248"><ele>30.0</ele><time>2026-04-06T10:08:53.999Z</time></trkpt><trkpt lat="44.37474311994928" lon="8.626755942585152"><ele>30.0</ele><time>2026-04-06T10:08:54.998Z</time></trkpt><trkpt lat="44.37478209076598" lon="8.626872119131711"><ele>30.0</ele><time>2026-04-06T10:08:55.998Z</time></trkpt><trkpt lat="44.37483357498575" lon="8.626969284455791"><ele>30.0</ele><time>2026-04-06T10:08:56.998Z</time></trkpt><trkpt lat="44.374894807726946" lon="8.627051025220762"><ele>30.0</ele><time>2026-04-06T10:08:58Z</time></trkpt><trkpt lat="44.374966963798094" lon="8.627107706182677"><ele>30.0</ele><time>2026-04-06T10:08:59Z</time></trkpt><trkpt lat="44.37505228990327" lon="8.62714385657473"><ele>30.0</ele><time>2026-04-06T10:09:00Z</time></trkpt><trkpt lat="44.37514041614931" lon="8.627173097473992"><ele>30.666666666666668</ele><time>2026-04-06T10:09:01Z</time></trkpt><trkpt lat="44.37523032808755" lon="8.627192267598575"><ele>31.333333333333336</ele><time>2026-04-06T10:09:02Z</time></trkpt><trkpt lat="44.37531325251372" lon="8.627220218360272"><ele>32.0</ele><time>2026-04-06T10:09:03Z</time></trkpt><trkpt lat="44.37539322388898" lon="8.627255081908384"><ele>32.66666666666667</ele><time>2026-04-06T10:09:04Z</time></trkpt><trkpt lat="44.375461992815964" lon="8.627307281984006"><ele>33.333333333333336</ele><time>2026-04-06T10:09:05Z</time></trkpt><trkpt lat="44.375525007360956" lon="8.627363826154381"><ele>34.0</ele><time>2026-04-06T10:09:06Z</time></trkpt><trkpt lat="44.37558766922953" lon="8.627411876770074"><ele>34.0</ele><time>2026-04-06T10:09:07Z</time></trkpt><trkpt lat="44.3756543066851" lon="8.627452743920994"><ele>34.0</ele><time>2026-04-06T10:09:08Z</time></trkpt><trkpt lat="44.37572987574088" lon="8.627486078161992"><ele>34.0</ele><time>2026-04-06T10:09:09Z</time></trkpt><trkpt lat="44.375826757684834" lon="8.627498998066253"><ele>34.0</ele><time>2026-04-06T10:09:10Z</time></trkpt><trkpt lat="44.37593718675833" lon="8.627484445903578"><ele>34.0</ele><time>2026-04-06T10:09:11Z</time></trkpt><trkpt lat="44.37605249595457" lon="8.627445342228638"><ele>34.0</ele><time>2026-04-06T10:09:12Z</time></trkpt><trkpt lat="44.376164538168794" lon="8.627395620450203"><ele>34.0</ele><time>2026-04-06T10:09:13Z</time></trkpt><trkpt lat="44.37627895492226" lon="8.627341930975977"><ele>34.0</ele><time>2026-04-06T10:09:14Z</time></trkpt><trkpt lat="44.376399769237345" lon="8.627318989760928"><ele>34.0</ele><time>2026-04-06T10:09:15Z</time></trkpt><trkpt lat="44.37652345813326" lon="8.627306136625899"><ele>35.0</ele><time>2026-04-06T10:09:16Z</time></trkpt><trkpt lat="44.37664732786126" lon="8.627305837826889"><ele>36.0</ele><time>2026-04-06T10:09:17Z</time></trkpt><trkpt lat="44.37675718995209" lon="8.627298967249102"><ele>37.0</ele><time>2026-04-06T10:09:18Z</time></trkpt><trkpt lat="44.37685808817545" lon="8.627332003038259"><ele>38.0</ele><time>2026-04-06T10:09:19Z</time></trkpt><trkpt lat="44.37694486531677" lon="8.62743088362971"><ele>39.0</ele><time>2026-04-06T10:09:20Z</time></trkpt><trkpt lat="44.376992119470934" lon="8.627599704257994"><ele>39.0</ele><time>2026-04-06T10:09:21Z</time></trkpt><trkpt lat="44.37699592422772" lon="8.627782998771654"><ele>39.0</ele><time>2026-04-06T10:09:22Z</time></trkpt><trkpt lat="44.37698073142266" lon="8.62796772018707"><ele>39.0</ele><time>2026-04-06T10:09:23Z</time></trkpt><trkpt lat="44.376981289858975" lon="8.628141569581024"><ele>39.0</ele><time>2026-04-06T10:09:24Z</time></trkpt><trkpt lat="44.377016164550355" lon="8.628311215979924"><ele>39.5</ele><time>2026-04-06T10:09:25Z</time></trkpt><trkpt lat="44.37708558357808" lon="8.62845493313221"><ele>40.0</ele><time>2026-04-06T10:09:26Z</time></trkpt><trkpt lat="44.37718343017224" lon="8.628564756756264"><ele>40.5</ele><time>2026-04-06T10:09:27Z</time></trkpt><trkpt lat="44.377304201212354" lon="8.628633393956349"><ele>41.0</ele><time>2026-04-06T10:09:28Z</time></trkpt><trkpt lat="44.37743002001871" lon="8.628673041079638"><ele>33.0</ele><time>2026-04-06T10:09:29Z</time></trkpt><trkpt lat="44.37756449885594" lon="8.628673933890214"><ele>25.0</ele><time>2026-04-06T10:09:30Z</time></trkpt><trkpt lat="44.37769593481277" lon="8.628674870569652"><ele>17.0</ele><time>2026-04-06T10:09:31Z</time></trkpt><trkpt lat="44.37783431558918" lon="8.628689245863079"><ele>9.0</ele><time>2026-04-06T10:09:32Z</time></trkpt><trkpt lat="44.37797450675472" lon="8.628724272281273"><ele>11.25</ele><time>2026-04-06T10:09:33Z</time></trkpt><trkpt lat="44.378107440223324" lon="8.628776878840643"><ele>13.5</ele><time>2026-04-06T10:09:34Z</time></trkpt><trkpt lat="44.378233414564576" lon="8.628852532315365"><ele>15.75</ele><time>2026-04-06T10:09:35Z</time></trkpt><trkpt lat="44.378353899261754" lon="8.628951704390472"><ele>18.0</ele><time>2026-04-06T10:09:36Z</time></trkpt><trkpt lat="44.37847455456433" lon="8.629061660820401"><ele>18.0</ele><time>2026-04-06T10:09:37Z</time></trkpt><trkpt lat="44.37859332167617" lon="8.629175866862218"><ele>18.0</ele><time>2026-04-06T10:09:38Z</time></trkpt><trkpt lat="44.37871667177101" lon="8.629287645140337"><ele>18.0</ele><time>2026-04-06T10:09:39Z</time></trkpt><trkpt lat="44.3788442494708" lon="8.6293904221352"><ele>18.0</ele><time>2026-04-06T10:09:40Z</time></trkpt><trkpt lat="44.378975983787996" lon="8.629483675018353"><ele>15.666666666666666</ele><time>2026-04-06T10:09:41Z</time></trkpt><trkpt lat="44.37911119644329" lon="8.62957729105524"><ele>13.333333333333332</ele><time>2026-04-06T10:09:42Z</time></trkpt><trkpt lat="44.379249729155546" lon="8.62966810311604"><ele>11.0</ele><time>2026-04-06T10:09:43Z</time></trkpt><trkpt lat="44.37938685487455" lon="8.629766504450963"><ele>11.0</ele><time>2026-04-06T10:09:44Z</time></trkpt><trkpt lat="44.37951610001357" lon="8.629867168594007"><ele>11.0</ele><time>2026-04-06T10:09:45Z</time></trkpt><trkpt lat="44.379639341153286" lon="8.629946764998019"><ele>11.0</ele><time>2026-04-06T10:09:46Z</time></trkpt><trkpt lat="44.37975453381469" lon="8.630035765353028"><ele>11.0</ele><time>2026-04-06T10:09:47Z</time></trkpt><trkpt lat="44.37986408260962" lon="8.630143227451768"><ele>11.333333333333332</ele><time>2026-04-06T10:09:48Z</time></trkpt><trkpt lat="44.37996703373693" lon="8.630280278524298"><ele>11.666666666666666</ele><time>2026-04-06T10:09:49Z</time></trkpt><trkpt lat="44.38006731666207" lon="8.630452617187391"><ele>12.0</ele><time>2026-04-06T10:09:50Z</time></trkpt><trkpt lat="44.38016369275475" lon="8.630633659073178"><ele>12.0</ele><time>2026-04-06T10:09:51Z</time></trkpt><trkpt lat="44.38026150806845" lon="8.630810339872493"><ele>12.0</ele><time>2026-04-06T10:09:51.999Z</time></trkpt><trkpt lat="44.38033559194535" lon="8.630978497096102"><ele>12.0</ele><time>2026-04-06T10:09:52.999Z</time></trkpt><trkpt lat="44.38041169649183" lon="8.631140827608121"><ele>12.0</ele><time>2026-04-06T10:09:53.999Z</time></trkpt><trkpt lat="44.380481206965484" lon="8.631291249241663"><ele>10.75</ele><time>2026-04-06T10:09:54.999Z</time></trkpt><trkpt lat="44.3805404881055" lon="8.63146055906895"><ele>9.5</ele><time>2026-04-06T10:09:55.999Z</time></trkpt><trkpt lat="44.3805970019106" lon="8.63161865521481"><ele>8.25</ele><time>2026-04-06T10:09:56.999Z</time></trkpt><trkpt lat="44.38066163604126" lon="8.631755369529674"><ele>7.0</ele><time>2026-04-06T10:09:57.999Z</time></trkpt><trkpt lat="44.38074232400628" lon="8.631874024572596"><ele>6.75</ele><time>2026-04-06T10:09:58.999Z</time></trkpt><trkpt lat="44.380841830702565" lon="8.631980477824596"><ele>6.5</ele><time>2026-04-06T10:09:59.999Z</time></trkpt><trkpt lat="44.380936834316955" lon="8.632083396525202"><ele>6.25</ele><time>2026-04-06T10:10:00.999Z</time></trkpt><trkpt lat="44.381020659317414" lon="8.632187030881587"><ele>6.0</ele><time>2026-04-06T10:10:01.999Z</time></trkpt><trkpt lat="44.38109426728554" lon="8.632282837289178"><ele>6.0</ele><time>2026-04-06T10:10:02.999Z</time></trkpt><trkpt lat="44.38115535303313" lon="8.632379321732971"><ele>6.0</ele><time>2026-04-06T10:10:03.999Z</time></trkpt><trkpt lat="44.38120398280575" lon="8.632485117821982"><ele>6.0</ele><time>2026-04-06T10:10:04.999Z</time></trkpt><trkpt lat="44.381232374223316" lon="8.632610604956028"><ele>6.0</ele><time>2026-04-06T10:10:05.999Z</time></trkpt><trkpt lat="44.381245320628636" lon="8.632752018131415"><ele>6.0</ele><time>2026-04-06T10:10:06.999Z</time></trkpt><trkpt lat="44.381245544376974" lon="8.63290826541442"><ele>6.0</ele><time>2026-04-06T10:10:07.999Z</time></trkpt><trkpt lat="44.381231637066996" lon="8.63305623718615"><ele>6.0</ele><time>2026-04-06T10:10:08.999Z</time></trkpt><trkpt lat="44.38121474302749" lon="8.633192898360777"><ele>6.0</ele><time>2026-04-06T10:10:09.999Z</time></trkpt><trkpt lat="44.381196899641985" lon="8.63331114735001"><ele>6.0</ele><time>2026-04-06T10:10:10.999Z</time></trkpt><trkpt lat="44.38118649922971" lon="8.63345491948902"><ele>6.0</ele><time>2026-04-06T10:10:11.999Z</time></trkpt><trkpt lat="44.38118068596247" lon="8.633583368703478"><ele>5.6</ele><time>2026-04-06T10:10:12.999Z</time></trkpt><trkpt lat="44.381179246621556" lon="8.633712531478967"><ele>5.199999999999999</ele><time>2026-04-06T10:10:13.999Z</time></trkpt><trkpt lat="44.381162795710146" lon="8.633837786195082"><ele>4.800000000000001</ele><time>2026-04-06T10:10:14.999Z</time></trkpt><trkpt lat="44.38115321577916" lon="8.633969902634277"><ele>4.4</ele><time>2026-04-06T10:10:15.999Z</time></trkpt><trkpt lat="44.381143831690025" lon="8.634116247785924"><ele>4.0</ele><time>2026-04-06T10:10:16.999Z</time></trkpt><trkpt lat="44.3811314846133" lon="8.63426163092802"><ele>4.0</ele><time>2026-04-06T10:10:17.999Z</time></trkpt><trkpt lat="44.38112045405073" lon="8.634413765346528"><ele>4.0</ele><time>2026-04-06T10:10:18.999Z</time></trkpt><trkpt lat="44.381111261417146" lon="8.634579787459758"><ele>4.0</ele><time>2026-04-06T10:10:19.999Z</time></trkpt><trkpt lat="44.381100076454096" lon="8.634737413226409"><ele>4.0</ele><time>2026-04-06T10:10:20.999Z</time></trkpt><trkpt lat="44.38108344346685" lon="8.634902992976082"><ele>4.0</ele><time>2026-04-06T10:10:21.999Z</time></trkpt><trkpt lat="44.38107709567235" lon="8.635062411459366"><ele>4.0</ele><time>2026-04-06T10:10:22.999Z</time></trkpt><trkpt lat="44.381079116087804" lon="8.635218144454942"><ele>4.0</ele><time>2026-04-06T10:10:23.999Z</time></trkpt><trkpt lat="44.38109526930441" lon="8.635374176722758"><ele>4.0</ele><time>2026-04-06T10:10:24.999Z</time></trkpt><trkpt lat="44.381144781851454" lon="8.635525130568961"><ele>4.0</ele><time>2026-04-06T10:10:25.999Z</time></trkpt><trkpt lat="44.38120177136838" lon="8.63564948010469"><ele>4.0</ele><time>2026-04-06T10:10:26.999Z</time></trkpt><trkpt lat="44.38126793331483" lon="8.635769935859166"><ele>4.0</ele><time>2026-04-06T10:10:27.999Z</time></trkpt><trkpt lat="44.381344121101584" lon="8.635865014865704"><ele>4.0</ele><time>2026-04-06T10:10:28.999Z</time></trkpt><trkpt lat="44.381425187574415" lon="8.635939330162078"><ele>4.0</ele><time>2026-04-06T10:10:29.999Z</time></trkpt><trkpt lat="44.38150277746771" lon="8.635999426580891"><ele>3.9999999999999996</ele><time>2026-04-06T10:10:30.999Z</time></trkpt><trkpt lat="44.38157770738915" lon="8.636049212823863"><ele>4.0</ele><time>2026-04-06T10:10:31.999Z</time></trkpt><trkpt lat="44.38165350994835" lon="8.636091648847941"><ele>4.0</ele><time>2026-04-06T10:10:32.999Z</time></trkpt><trkpt lat="44.38173380982433" lon="8.636142755992523"><ele>4.0</ele><time>2026-04-06T10:10:33.999Z</time></trkpt><trkpt lat="44.38181705587815" lon="8.63618708375606"><ele>3.9999999999999996</ele><time>2026-04-06T10:10:34.999Z</time></trkpt><trkpt lat="44.38189519775423" lon="8.63623175818024"><ele>4.0</ele><time>2026-04-06T10:10:35.999Z</time></trkpt><trkpt lat="44.381967122513835" lon="8.636273918574526"><ele>3.9999999999999996</ele><time>2026-04-06T10:10:36.999Z</time></trkpt><trkpt lat="44.38204233699631" lon="8.636323296305024"><ele>4.0</ele><time>2026-04-06T10:10:37.999Z</time></trkpt><trkpt lat="44.3821182696433" lon="8.63637174601427"><ele>4.0</ele><time>2026-04-06T10:10:38.999Z</time></trkpt><trkpt lat="44.382200982950536" lon="8.63641936408628"><ele>4.0</ele><time>2026-04-06T10:10:39.999Z</time></trkpt><trkpt lat="44.382280571234894" lon="8.636469104868278"><ele>3.9999999999999996</ele><time>2026-04-06T10:10:40.999Z</time></trkpt><trkpt lat="44.38236269570022" lon="8.636517351145832"><ele>4.0</ele><time>2026-04-06T10:10:41.999Z</time></trkpt><trkpt lat="44.38244613702489" lon="8.636567904836827"><ele>4.0</ele><time>2026-04-06T10:10:42.999Z</time></trkpt><trkpt lat="44.382536685714435" lon="8.636618910860731"><ele>4.0</ele><time>2026-04-06T10:10:43.999Z</time></trkpt><trkpt lat="44.38262494253691" lon="8.636664920113517"><ele>4.0</ele><time>2026-04-06T10:10:44.999Z</time></trkpt><trkpt lat="44.38271064393725" lon="8.636710821660174"><ele>4.0</ele><time>2026-04-06T10:10:45.999Z</time></trkpt><trkpt lat="44.382789633790594" lon="8.63675513433388"><ele>4.0</ele><time>2026-04-06T10:10:46.999Z</time></trkpt><trkpt lat="44.38286861020185" lon="8.636796922114167"><ele>3.9999999999999996</ele><time>2026-04-06T10:10:47.999Z</time></trkpt><trkpt lat="44.38294589271581" lon="8.636837809381825"><ele>4.0</ele><time>2026-04-06T10:10:48.999Z</time></trkpt><trkpt lat="44.383017764886176" lon="8.63687543734428"><ele>4.0</ele><time>2026-04-06T10:10:49.999Z</time></trkpt><trkpt lat="44.38308832590196" lon="8.636918434525885"><ele>4.0</ele><time>2026-04-06T10:10:50.999Z</time></trkpt><trkpt lat="44.3831553585596" lon="8.636957365937425"><ele>3.9999999999999996</ele><time>2026-04-06T10:10:51.999Z</time></trkpt><trkpt lat="44.3832273030833" lon="8.636996627474204"><ele>4.0</ele><time>2026-04-06T10:10:52.999Z</time></trkpt><trkpt lat="44.38331317834474" lon="8.637039997584269"><ele>3.4000000000000004</ele><time>2026-04-06T10:10:53.999Z</time></trkpt><trkpt lat="44.38340023547972" lon="8.637085105016853"><ele>2.8000000000000003</ele><time>2026-04-06T10:10:54.999Z</time></trkpt><trkpt lat="44.383486544491944" lon="8.63713096286373"><ele>2.2</ele><time>2026-04-06T10:10:55.999Z</time></trkpt><trkpt lat="44.38357551844509" lon="8.637179134216948"><ele>1.6</ele><time>2026-04-06T10:10:56.999Z</time></trkpt><trkpt lat="44.38366934085103" lon="8.637226976220507"><ele>1.0</ele><time>2026-04-06T10:10:57.999Z</time></trkpt><trkpt lat="44.38376585096155" lon="8.637274358883369"><ele>2.4000000000000004</ele><time>2026-04-06T10:10:58.999Z</time></trkpt><trkpt lat="44.38386429012106" lon="8.637322544391525"><ele>3.8000000000000003</ele><time>2026-04-06T10:10:59.999Z</time></trkpt><trkpt lat="44.38396407157993" lon="8.637375827681444"><ele>5.200000000000001</ele><time>2026-04-06T10:11:00.999Z</time></trkpt><trkpt lat="44.38406920728824" lon="8.63743339211589"><ele>6.6000000000000005</ele><time>2026-04-06T10:11:01.999Z</time></trkpt><trkpt lat="44.38417390128973" lon="8.637492625147939"><ele>8.0</ele><time>2026-04-06T10:11:02.999Z</time></trkpt><trkpt lat="44.38427298398705" lon="8.6375417739107"><ele>8.0</ele><time>2026-04-06T10:11:04Z</time></trkpt><trkpt lat="44.38437043490086" lon="8.637602002799706"><ele>8.0</ele><time>2026-04-06T10:11:05Z</time></trkpt><trkpt lat="44.384471740288504" lon="8.637667889548283"><ele>8.0</ele><time>2026-04-06T10:11:06Z</time></trkpt><trkpt lat="44.38457241418222" lon="8.637729932568242"><ele>8.0</ele><time>2026-04-06T10:11:07Z</time></trkpt><trkpt lat="44.38466688938783" lon="8.637792308048683"><ele>8.0</ele><time>2026-04-06T10:11:08Z</time></trkpt><trkpt lat="44.384758156034046" lon="8.637856721897112"><ele>7.2</ele><time>2026-04-06T10:11:09Z</time></trkpt><trkpt lat="44.38485057306408" lon="8.637927139240007"><ele>6.4</ele><time>2026-04-06T10:11:10Z</time></trkpt><trkpt lat="44.38495160578793" lon="8.638000936545092"><ele>5.6000000000000005</ele><time>2026-04-06T10:11:11Z</time></trkpt><trkpt lat="44.38505184716409" lon="8.638060186288596"><ele>4.800000000000001</ele><time>2026-04-06T10:11:12Z</time></trkpt><trkpt lat="44.385150978731" lon="8.638120271945393"><ele>4.0</ele><time>2026-04-06T10:11:13Z</time></trkpt><trkpt lat="44.38524621556625" lon="8.638182230739694"><ele>4.0</ele><time>2026-04-06T10:11:14Z</time></trkpt><trkpt lat="44.38534534927134" lon="8.638244074094283"><ele>4.0</ele><time>2026-04-06T10:11:15Z</time></trkpt><trkpt lat="44.38544682295857" lon="8.638308773286056"><ele>4.0</ele><time>2026-04-06T10:11:16Z</time></trkpt><trkpt lat="44.38554582119848" lon="8.638378530405252"><ele>4.0</ele><time>2026-04-06T10:11:17Z</time></trkpt><trkpt lat="44.385645616335374" lon="8.63845330293064"><ele>4.0</ele><time>2026-04-06T10:11:18Z</time></trkpt><trkpt lat="44.38574538765761" lon="8.638529422752073"><ele>4.2</ele><time>2026-04-06T10:11:19Z</time></trkpt><trkpt lat="44.38583818001728" lon="8.638610393987154"><ele>4.4</ele><time>2026-04-06T10:11:20Z</time></trkpt><trkpt lat="44.3859265116234" lon="8.638695651041076"><ele>4.6</ele><time>2026-04-06T10:11:21Z</time></trkpt><trkpt lat="44.38600622068076" lon="8.638794180098484"><ele>4.8</ele><time>2026-04-06T10:11:22Z</time></trkpt><trkpt lat="44.386075532792574" lon="8.638870745983287"><ele>5.0</ele><time>2026-04-06T10:11:23Z</time></trkpt><trkpt lat="44.38612762303787" lon="8.638928957702955"><ele>4.833333333333334</ele><time>2026-04-06T10:11:24Z</time></trkpt><trkpt lat="44.38618202982912" lon="8.63901578545925"><ele>4.666666666666667</ele><time>2026-04-06T10:11:26Z</time></trkpt><trkpt lat="44.38626531393313" lon="8.639117937290283"><ele>4.5</ele><time>2026-04-06T10:11:28Z</time></trkpt><trkpt lat="44.38631710380749" lon="8.639185143201498"><ele>4.333333333333333</ele><time>2026-04-06T10:11:29Z</time></trkpt><trkpt lat="44.38637255548124" lon="8.639256212880273"><ele>4.166666666666666</ele><time>2026-04-06T10:11:30Z</time></trkpt><trkpt lat="44.3864299496207" lon="8.639342320622868"><ele>4.0</ele><time>2026-04-06T10:11:31Z</time></trkpt><trkpt lat="44.38649183541352" lon="8.639449792637183"><ele>4.0</ele><time>2026-04-06T10:11:32Z</time></trkpt><trkpt lat="44.386550349548315" lon="8.639561681062508"><ele>4.0</ele><time>2026-04-06T10:11:33Z</time></trkpt><trkpt lat="44.38660498405504" lon="8.639678045189498"><ele>4.0</ele><time>2026-04-06T10:11:34Z</time></trkpt><trkpt lat="44.38664240901529" lon="8.639787332689483"><ele>4.0</ele><time>2026-04-06T10:11:35Z</time></trkpt><trkpt lat="44.38668412918029" lon="8.639905299399802"><ele>4.0</ele><time>2026-04-06T10:11:36Z</time></trkpt><trkpt lat="44.386735291977246" lon="8.640020891608845"><ele>4.0</ele><time>2026-04-06T10:11:37Z</time></trkpt><trkpt lat="44.386783996273024" lon="8.640134417242287"><ele>4.0</ele><time>2026-04-06T10:11:38Z</time></trkpt><trkpt lat="44.386844160343394" lon="8.640239848194177"><ele>4.0</ele><time>2026-04-06T10:11:39Z</time></trkpt><trkpt lat="44.38688918085237" lon="8.64036931552122"><ele>4.0</ele><time>2026-04-06T10:11:40Z</time></trkpt><trkpt lat="44.38692877512161" lon="8.640480431120606"><ele>4.0</ele><time>2026-04-06T10:11:41Z</time></trkpt><trkpt lat="44.386969695751574" lon="8.640576501945883"><ele>3.6</ele><time>2026-04-06T10:11:42Z</time></trkpt><trkpt lat="44.387015156643564" lon="8.640688738514584"><ele>3.2</ele><time>2026-04-06T10:11:43Z</time></trkpt><trkpt lat="44.38705172462831" lon="8.640812075017466"><ele>2.8000000000000003</ele><time>2026-04-06T10:11:44Z</time></trkpt><trkpt lat="44.38709405447425" lon="8.640934343673305"><ele>2.4000000000000004</ele><time>2026-04-06T10:11:45Z</time></trkpt><trkpt lat="44.387127491723774" lon="8.64105404858532"><ele>2.0</ele><time>2026-04-06T10:11:46Z</time></trkpt><trkpt lat="44.38715884792722" lon="8.641165913612168"><ele>3.1666666666666665</ele><time>2026-04-06T10:11:47Z</time></trkpt><trkpt lat="44.387190217452584" lon="8.641268864116858"><ele>4.333333333333333</ele><time>2026-04-06T10:11:49Z</time></trkpt><trkpt lat="44.38723428090806" lon="8.641409906827016"><ele>5.5</ele><time>2026-04-06T10:11:52Z</time></trkpt><trkpt lat="44.3872614629027" lon="8.641510415390577"><ele>6.666666666666667</ele><time>2026-04-06T10:11:53Z</time></trkpt><trkpt lat="44.38729094902958" lon="8.641612116495015"><ele>7.833333333333333</ele><time>2026-04-06T10:11:53.999Z</time></trkpt><trkpt lat="44.38732657920348" lon="8.64171578616736"><ele>9.0</ele><time>2026-04-06T10:11:54.999Z</time></trkpt><trkpt lat="44.38735843203164" lon="8.641829112848733"><ele>9.0</ele><time>2026-04-06T10:11:55.999Z</time></trkpt><trkpt lat="44.38738858329282" lon="8.641929430624756"><ele>9.0</ele><time>2026-04-06T10:11:56.999Z</time></trkpt><trkpt lat="44.38741049278016" lon="8.642012354392216"><ele>9.0</ele><time>2026-04-06T10:11:57.999Z</time></trkpt><trkpt lat="44.38744175890694" lon="8.642128633966172"><ele>9.0</ele><time>2026-04-06T10:11:59.999Z</time></trkpt><trkpt lat="44.38747232152856" lon="8.642230775617495"><ele>9.0</ele><time>2026-04-06T10:12:02.999Z</time></trkpt><trkpt lat="44.3875018946313" lon="8.642357231315874"><ele>9.0</ele><time>2026-04-06T10:12:05.999Z</time></trkpt><trkpt lat="44.38753533568703" lon="8.642470914114096"><ele>8.2</ele><time>2026-04-06T10:12:14.999Z</time></trkpt><trkpt lat="44.38757843063329" lon="8.642578517027024"><ele>7.4</ele><time>2026-04-06T10:12:17.999Z</time></trkpt><trkpt lat="44.38762124949534" lon="8.64269632106259"><ele>6.6</ele><time>2026-04-06T10:12:19.999Z</time></trkpt><trkpt lat="44.38766082480948" lon="8.64281267186011"><ele>5.8</ele><time>2026-04-06T10:12:21.999Z</time></trkpt><trkpt lat="44.38771152450948" lon="8.64295107704235"><ele>5.0</ele><time>2026-04-06T10:12:23.999Z</time></trkpt><trkpt lat="44.38774200396375" lon="8.64303685110389"><ele>4.666666666666667</ele><time>2026-04-06T10:12:24.999Z</time></trkpt><trkpt lat="44.387775919477086" lon="8.643122501112186"><ele>4.333333333333334</ele><time>2026-04-06T10:12:25.999Z</time></trkpt><trkpt lat="44.387818598535695" lon="8.64322045071486"><ele>4.0</ele><time>2026-04-06T10:12:26.999Z</time></trkpt><trkpt lat="44.38786375286199" lon="8.643321871344675"><ele>3.666666666666667</ele><time>2026-04-06T10:12:27.999Z</time></trkpt><trkpt lat="44.3879057657151" lon="8.643420163766113"><ele>3.3333333333333335</ele><time>2026-04-06T10:12:28.999Z</time></trkpt><trkpt lat="44.387949055331966" lon="8.643526292162298"><ele>3.0</ele><time>2026-04-06T10:12:29.999Z</time></trkpt><trkpt lat="44.3879951299641" lon="8.64362948191279"><ele>3.5</ele><time>2026-04-06T10:12:30.999Z</time></trkpt><trkpt lat="44.38805391766576" lon="8.643719936898682"><ele>4.0</ele><time>2026-04-06T10:12:31.999Z</time></trkpt><trkpt lat="44.38812305875438" lon="8.643790751518019"><ele>4.5</ele><time>2026-04-06T10:12:32.999Z</time></trkpt><trkpt lat="44.38818932155875" lon="8.643865126719275"><ele>5.0</ele><time>2026-04-06T10:12:33.999Z</time></trkpt><trkpt lat="44.38825907036055" lon="8.643945614228384"><ele>5.5</ele><time>2026-04-06T10:12:34.999Z</time></trkpt><trkpt lat="44.38832624398028" lon="8.644032772797663"><ele>6.0</ele><time>2026-04-06T10:12:35.999Z</time></trkpt><trkpt lat="44.388385378827095" lon="8.644116875910843"><ele>6.0</ele><time>2026-04-06T10:12:36.999Z</time></trkpt><trkpt lat="44.38844216871053" lon="8.64419356894058"><ele>6.0</ele><time>2026-04-06T10:12:37.999Z</time></trkpt><trkpt lat="44.388487517345766" lon="8.644262937326573"><ele>6.0</ele><time>2026-04-06T10:12:38.999Z</time></trkpt><trkpt lat="44.3885434778608" lon="8.644379010252337"><ele>6.0</ele><time>2026-04-06T10:12:40.999Z</time></trkpt><trkpt lat="44.38859303276775" lon="8.64448357593107"><ele>6.0</ele><time>2026-04-06T10:12:42.999Z</time></trkpt><trkpt lat="44.38862963749761" lon="8.644595634664269"><ele>6.0</ele><time>2026-04-06T10:12:45.999Z</time></trkpt><trkpt lat="44.38871921396377" lon="8.644700905043067"><ele>6.0</ele><time>2026-04-06T10:13:28Z</time></trkpt><trkpt lat="44.38875822790483" lon="8.644805230865295"><ele>6.0</ele><time>2026-04-06T10:13:29Z</time></trkpt><trkpt lat="44.38880439702855" lon="8.644931667619007"><ele>6.0</ele><time>2026-04-06T10:13:30Z</time></trkpt><trkpt lat="44.38886166861487" lon="8.645065443227663"><ele>6.0</ele><time>2026-04-06T10:13:31Z</time></trkpt><trkpt lat="44.388925105707564" lon="8.645202895644873"><ele>6.0</ele><time>2026-04-06T10:13:32Z</time></trkpt><trkpt lat="44.38898120326789" lon="8.645362659593584"><ele>6.25</ele><time>2026-04-06T10:13:33Z</time></trkpt><trkpt lat="44.389034604458686" lon="8.645519991586184"><ele>6.5</ele><time>2026-04-06T10:13:34Z</time></trkpt><trkpt lat="44.389085810904675" lon="8.645673984472532"><ele>6.75</ele><time>2026-04-06T10:13:35Z</time></trkpt><trkpt lat="44.3891251361683" lon="8.645812326063002"><ele>7.0</ele><time>2026-04-06T10:13:36Z</time></trkpt><trkpt lat="44.389158051144605" lon="8.645943438009658"><ele>7.0</ele><time>2026-04-06T10:13:37Z</time></trkpt><trkpt lat="44.38919243405978" lon="8.646051287105132"><ele>6.999999999999999</ele><time>2026-04-06T10:13:38Z</time></trkpt><trkpt lat="44.3892297170594" lon="8.646153745379921"><ele>6.999999999999999</ele><time>2026-04-06T10:13:39Z</time></trkpt><trkpt lat="44.38926857459665" lon="8.646276124435254"><ele>7.0</ele><time>2026-04-06T10:13:40Z</time></trkpt><trkpt lat="44.3893075212364" lon="8.646414843717825"><ele>7.0</ele><time>2026-04-06T10:13:41Z</time></trkpt><trkpt lat="44.3893430352846" lon="8.646552117304353"><ele>6.666666666666667</ele><time>2026-04-06T10:13:42Z</time></trkpt><trkpt lat="44.38937875613337" lon="8.646690207393254"><ele>6.333333333333334</ele><time>2026-04-06T10:13:43Z</time></trkpt><trkpt lat="44.389409491372966" lon="8.646800162686787"><ele>6.0</ele><time>2026-04-06T10:13:44Z</time></trkpt><trkpt lat="44.3894275821727" lon="8.64689136634405"><ele>5.666666666666667</ele><time>2026-04-06T10:13:45Z</time></trkpt><trkpt lat="44.38945562343466" lon="8.646997275254325"><ele>5.333333333333334</ele><time>2026-04-06T10:13:46Z</time></trkpt><trkpt lat="44.389491463370966" lon="8.647129220934376"><ele>5.0</ele><time>2026-04-06T10:13:47Z</time></trkpt><trkpt lat="44.38952056147225" lon="8.64726279069763"><ele>4.8</ele><time>2026-04-06T10:13:48Z</time></trkpt><trkpt lat="44.389547153847396" lon="8.647359478668424"><ele>4.6</ele><time>2026-04-06T10:13:48.999Z</time></trkpt><trkpt lat="44.38956216983763" lon="8.64745721401288"><ele>4.4</ele><time>2026-04-06T10:13:52.999Z</time></trkpt><trkpt lat="44.38960241058001" lon="8.64764589621351"><ele>4.2</ele><time>2026-04-06T10:13:55.999Z</time></trkpt><trkpt lat="44.38964273633857" lon="8.647762049668698"><ele>4.0</ele><time>2026-04-06T10:13:56.999Z</time></trkpt><trkpt lat="44.389669751156546" lon="8.64788282287576"><ele>5.0</ele><time>2026-04-06T10:13:57.999Z</time></trkpt><trkpt lat="44.38970525998" lon="8.647998272643333"><ele>6.0</ele><time>2026-04-06T10:13:58.999Z</time></trkpt><trkpt lat="44.3897364351278" lon="8.648098835086994"><ele>7.0</ele><time>2026-04-06T10:13:59.999Z</time></trkpt><trkpt lat="44.38973863869806" lon="8.648241308054168"><ele>8.0</ele><time>2026-04-06T10:14:01.999Z</time></trkpt><trkpt lat="44.38970320455602" lon="8.648337043836186"><ele>9.0</ele><time>2026-04-06T10:14:04.999Z</time></trkpt><trkpt lat="44.38968532551275" lon="8.648434625034325"><ele>10.0</ele><time>2026-04-06T10:14:07.999Z</time></trkpt><trkpt lat="44.38970778743267" lon="8.648591568584468"><ele>9.666666666666668</ele><time>2026-04-06T10:17:56Z</time></trkpt><trkpt lat="44.389774805378764" lon="8.648675694217834"><ele>9.333333333333334</ele><time>2026-04-06T10:17:58Z</time></trkpt><trkpt lat="44.38984933102447" lon="8.648698985502635"><ele>9.0</ele><time>2026-04-06T10:18:01Z</time></trkpt><trkpt lat="44.389902270900244" lon="8.648793896821005"><ele>8.666666666666666</ele><time>2026-04-06T10:18:03Z</time></trkpt><trkpt lat="44.389919974747514" lon="8.648901282433457"><ele>8.333333333333332</ele><time>2026-04-06T10:18:04Z</time></trkpt><trkpt lat="44.38994070667085" lon="8.649009735453836"><ele>8.0</ele><time>2026-04-06T10:18:05Z</time></trkpt><trkpt lat="44.38995988577877" lon="8.649112284213652"><ele>7.999999999999999</ele><time>2026-04-06T10:18:06Z</time></trkpt><trkpt lat="44.38998652252421" lon="8.649224588663879"><ele>8.0</ele><time>2026-04-06T10:18:07Z</time></trkpt><trkpt lat="44.39000920843474" lon="8.649341579409908"><ele>8.0</ele><time>2026-04-06T10:18:08Z</time></trkpt><trkpt lat="44.390028492525225" lon="8.649465640014709"><ele>8.0</ele><time>2026-04-06T10:18:09Z</time></trkpt><trkpt lat="44.390043240087294" lon="8.649587217609737"><ele>7.999999999999999</ele><time>2026-04-06T10:18:10Z</time></trkpt><trkpt lat="44.39006030044554" lon="8.649707796783186"><ele>8.0</ele><time>2026-04-06T10:18:11Z</time></trkpt><trkpt lat="44.3900782840619" lon="8.649833044613953"><ele>7.666666666666666</ele><time>2026-04-06T10:18:12Z</time></trkpt><trkpt lat="44.39009876692572" lon="8.649955445085455"><ele>7.333333333333333</ele><time>2026-04-06T10:18:13Z</time></trkpt><trkpt lat="44.39011681223902" lon="8.65007463238478"><ele>7.0</ele><time>2026-04-06T10:18:14Z</time></trkpt><trkpt lat="44.39013389316197" lon="8.65019396660456"><ele>6.666666666666666</ele><time>2026-04-06T10:18:15Z</time></trkpt><trkpt lat="44.390149649039536" lon="8.650317364364568"><ele>6.333333333333333</ele><time>2026-04-06T10:18:16Z</time></trkpt><trkpt lat="44.3901622504098" lon="8.650429401371591"><ele>6.0</ele><time>2026-04-06T10:18:17Z</time></trkpt><trkpt lat="44.390174012676184" lon="8.650541123270319"><ele>6.0</ele><time>2026-04-06T10:18:18Z</time></trkpt><trkpt lat="44.39019128938725" lon="8.650649820129468"><ele>6.0</ele><time>2026-04-06T10:18:19Z</time></trkpt><trkpt lat="44.39020885479475" lon="8.650749618147326"><ele>6.0</ele><time>2026-04-06T10:18:19.999Z</time></trkpt><trkpt lat="44.390223200843955" lon="8.650848889587898"><ele>6.0</ele><time>2026-04-06T10:18:20.999Z</time></trkpt><trkpt lat="44.390238112226214" lon="8.65094354355256"><ele>6.0</ele><time>2026-04-06T10:18:21.999Z</time></trkpt><trkpt lat="44.3902515927463" lon="8.651033437757837"><ele>6.0</ele><time>2026-04-06T10:18:22.999Z</time></trkpt><trkpt lat="44.39027702884434" lon="8.651193295869222"><ele>5.2</ele><time>2026-04-06T10:18:24.999Z</time></trkpt><trkpt lat="44.390315788057116" lon="8.651387738036293"><ele>4.3999999999999995</ele><time>2026-04-06T10:18:26.999Z</time></trkpt><trkpt lat="44.39033314847234" lon="8.6515137063714"><ele>3.6</ele><time>2026-04-06T10:18:27.999Z</time></trkpt><trkpt lat="44.390351124669664" lon="8.651646866293039"><ele>2.8</ele><time>2026-04-06T10:18:28.999Z</time></trkpt><trkpt lat="44.39037140802909" lon="8.651786028383174"><ele>2.0</ele><time>2026-04-06T10:18:29.999Z</time></trkpt><trkpt lat="44.39038976283222" lon="8.65192566049341"><ele>2.4000000000000004</ele><time>2026-04-06T10:18:30.999Z</time></trkpt><trkpt lat="44.39040415557523" lon="8.652058065494622"><ele>2.8000000000000003</ele><time>2026-04-06T10:18:31.999Z</time></trkpt><trkpt lat="44.39042428687658" lon="8.652191246852894"><ele>3.2</ele><time>2026-04-06T10:18:32.999Z</time></trkpt><trkpt lat="44.39044802962927" lon="8.652328976909201"><ele>3.6</ele><time>2026-04-06T10:18:33.999Z</time></trkpt><trkpt lat="44.39046924026618" lon="8.652475542376955"><ele>4.0</ele><time>2026-04-06T10:18:34.999Z</time></trkpt><trkpt lat="44.39048915729137" lon="8.652618561540152"><ele>4.0</ele><time>2026-04-06T10:18:35.999Z</time></trkpt><trkpt lat="44.390506387090056" lon="8.652757711803892"><ele>4.0</ele><time>2026-04-06T10:18:36.999Z</time></trkpt><trkpt lat="44.39052775671097" lon="8.652896640351114"><ele>4.0</ele><time>2026-04-06T10:18:37.999Z</time></trkpt><trkpt lat="44.39054685289063" lon="8.65303800098345"><ele>4.0</ele><time>2026-04-06T10:18:38.999Z</time></trkpt><trkpt lat="44.390564974806196" lon="8.65318439396748"><ele>4.0</ele><time>2026-04-06T10:18:39.999Z</time></trkpt><trkpt lat="44.390580321625436" lon="8.65333484263503"><ele>6.0</ele><time>2026-04-06T10:18:40.999Z</time></trkpt><trkpt lat="44.39059272145177" lon="8.6534839481493"><ele>8.0</ele><time>2026-04-06T10:18:41.999Z</time></trkpt><trkpt lat="44.39060937135486" lon="8.65363542893061"><ele>10.0</ele><time>2026-04-06T10:18:42.999Z</time></trkpt><trkpt lat="44.39062710558771" lon="8.653791574516532"><ele>12.0</ele><time>2026-04-06T10:18:43.999Z</time></trkpt><trkpt lat="44.3906457908648" lon="8.653958534040104"><ele>12.0</ele><time>2026-04-06T10:18:44.999Z</time></trkpt><trkpt lat="44.390664897557976" lon="8.654133300000643"><ele>12.0</ele><time>2026-04-06T10:18:45.999Z</time></trkpt><trkpt lat="44.39067444342023" lon="8.654321317036167"><ele>12.0</ele><time>2026-04-06T10:18:46.999Z</time></trkpt><trkpt lat="44.39068896022308" lon="8.65451850033634"><ele>12.0</ele><time>2026-04-06T10:18:47.999Z</time></trkpt><trkpt lat="44.39070172555516" lon="8.65469422328752"><ele>12.0</ele><time>2026-04-06T10:18:48.999Z</time></trkpt><trkpt lat="44.39071436766758" lon="8.654868250339701"><ele>12.0</ele><time>2026-04-06T10:18:49.999Z</time></trkpt><trkpt lat="44.39073126068309" lon="8.655057578620056"><ele>12.0</ele><time>2026-04-06T10:18:51.999Z</time></trkpt><trkpt lat="44.39074009793558" lon="8.655208190794582"><ele>12.0</ele><time>2026-04-06T10:18:52.999Z</time></trkpt><trkpt lat="44.39074799561518" lon="8.655363806074586"><ele>12.0</ele><time>2026-04-06T10:18:53.999Z</time></trkpt><trkpt lat="44.3907564405932" lon="8.655520973284323"><ele>12.0</ele><time>2026-04-06T10:18:54.999Z</time></trkpt><trkpt lat="44.39076331893091" lon="8.65567561560643"><ele>12.0</ele><time>2026-04-06T10:18:55.999Z</time></trkpt><trkpt lat="44.39076566463414" lon="8.655829280707568"><ele>12.0</ele><time>2026-04-06T10:18:56.999Z</time></trkpt><trkpt lat="44.39076537846469" lon="8.655985750129219"><ele>12.0</ele><time>2026-04-06T10:18:57.999Z</time></trkpt><trkpt lat="44.39076941112152" lon="8.65613910816678"><ele>11.6</ele><time>2026-04-06T10:18:58.999Z</time></trkpt><trkpt lat="44.39077679454364" lon="8.656294628522229"><ele>11.2</ele><time>2026-04-06T10:18:59.999Z</time></trkpt><trkpt lat="44.39077685203751" lon="8.65644766965564"><ele>10.8</ele><time>2026-04-06T10:19:00.999Z</time></trkpt><trkpt lat="44.390777714049754" lon="8.656596035669601"><ele>10.4</ele><time>2026-04-06T10:19:01.999Z</time></trkpt><trkpt lat="44.390783178208785" lon="8.656750113691295"><ele>10.0</ele><time>2026-04-06T10:19:02.999Z</time></trkpt><trkpt lat="44.39078380182536" lon="8.656906942677182"><ele>9.4</ele><time>2026-04-06T10:19:03.999Z</time></trkpt><trkpt lat="44.39078987008174" lon="8.657063505243817"><ele>8.8</ele><time>2026-04-06T10:19:04.999Z</time></trkpt><trkpt lat="44.39079340987117" lon="8.657214148998827"><ele>8.2</ele><time>2026-04-06T10:19:05.999Z</time></trkpt><trkpt lat="44.390802240892" lon="8.657365337607443"><ele>7.6</ele><time>2026-04-06T10:19:06.999Z</time></trkpt><trkpt lat="44.39080877023491" lon="8.657519788351719"><ele>7.0</ele><time>2026-04-06T10:19:07.999Z</time></trkpt><trkpt lat="44.39081944968917" lon="8.657686534412372"><ele>6.75</ele><time>2026-04-06T10:19:08.999Z</time></trkpt><trkpt lat="44.390820540536495" lon="8.657858423939235"><ele>6.5</ele><time>2026-04-06T10:19:09.999Z</time></trkpt><trkpt lat="44.39081464278238" lon="8.65803436916817"><ele>6.25</ele><time>2026-04-06T10:19:10.999Z</time></trkpt><trkpt lat="44.39081717322648" lon="8.658201483388892"><ele>6.0</ele><time>2026-04-06T10:19:11.999Z</time></trkpt><trkpt lat="44.39082511786638" lon="8.65833698450062"><ele>6.0</ele><time>2026-04-06T10:19:12.999Z</time></trkpt><trkpt lat="44.39083186812388" lon="8.658448184143346"><ele>6.0</ele><time>2026-04-06T10:19:13.999Z</time></trkpt><trkpt lat="44.39083551860447" lon="8.658573798205996"><ele>6.0</ele><time>2026-04-06T10:19:14.999Z</time></trkpt><trkpt lat="44.39083743608871" lon="8.658701103624061"><ele>6.0</ele><time>2026-04-06T10:19:15.999Z</time></trkpt><trkpt lat="44.39084307944716" lon="8.658850170603866"><ele>6.0</ele><time>2026-04-06T10:19:16.999Z</time></trkpt><trkpt lat="44.39084580980775" lon="8.658995438811"><ele>6.0</ele><time>2026-04-06T10:19:17.999Z</time></trkpt><trkpt lat="44.390846427744044" lon="8.659143883139372"><ele>6.0</ele><time>2026-04-06T10:19:18.999Z</time></trkpt><trkpt lat="44.39085191064585" lon="8.659307058338806"><ele>6.0</ele><time>2026-04-06T10:19:19.999Z</time></trkpt><trkpt lat="44.390856678906225" lon="8.659467931072156"><ele>6.0</ele><time>2026-04-06T10:19:20.999Z</time></trkpt><trkpt lat="44.3908606335268" lon="8.659620872164965"><ele>6.0</ele><time>2026-04-06T10:19:21.999Z</time></trkpt><trkpt lat="44.390864974422996" lon="8.659784352827472"><ele>6.4</ele><time>2026-04-06T10:19:22.999Z</time></trkpt><trkpt lat="44.390871297569845" lon="8.65994918608411"><ele>6.8</ele><time>2026-04-06T10:19:23.999Z</time></trkpt><trkpt lat="44.3908770953049" lon="8.66010636549241"><ele>7.200000000000001</ele><time>2026-04-06T10:19:24.999Z</time></trkpt><trkpt lat="44.390881897868354" lon="8.660251979411758"><ele>7.6000000000000005</ele><time>2026-04-06T10:19:25.999Z</time></trkpt><trkpt lat="44.39088787899276" lon="8.66039908112818"><ele>8.0</ele><time>2026-04-06T10:19:26.999Z</time></trkpt><trkpt lat="44.39089557654786" lon="8.660551062332763"><ele>8.0</ele><time>2026-04-06T10:19:27.999Z</time></trkpt><trkpt lat="44.390898389067466" lon="8.660709306162916"><ele>8.0</ele><time>2026-04-06T10:19:28.999Z</time></trkpt><trkpt lat="44.39090316589288" lon="8.660880176945426"><ele>8.0</ele><time>2026-04-06T10:19:29.999Z</time></trkpt><trkpt lat="44.390907650727726" lon="8.661050654916965"><ele>8.0</ele><time>2026-04-06T10:19:30.999Z</time></trkpt><trkpt lat="44.39090907317828" lon="8.66122102357239"><ele>8.25</ele><time>2026-04-06T10:19:31.999Z</time></trkpt><trkpt lat="44.39091172891278" lon="8.661396862964782"><ele>8.5</ele><time>2026-04-06T10:19:32.999Z</time></trkpt><trkpt lat="44.39091662365287" lon="8.66156011110381"><ele>8.75</ele><time>2026-04-06T10:19:33.999Z</time></trkpt><trkpt lat="44.390923286906904" lon="8.661723884311511"><ele>9.0</ele><time>2026-04-06T10:19:34.999Z</time></trkpt><trkpt lat="44.390927893058496" lon="8.661888223200897"><ele>9.25</ele><time>2026-04-06T10:19:35.999Z</time></trkpt><trkpt lat="44.390932514989274" lon="8.6620546212131"><ele>9.5</ele><time>2026-04-06T10:19:36.999Z</time></trkpt><trkpt lat="44.39093809285288" lon="8.662225198973864"><ele>9.75</ele><time>2026-04-06T10:19:37.999Z</time></trkpt><trkpt lat="44.39094243114211" lon="8.662399451288524"><ele>10.0</ele><time>2026-04-06T10:19:38.999Z</time></trkpt><trkpt lat="44.390945374797234" lon="8.66257725701591"><ele>10.0</ele><time>2026-04-06T10:19:39.999Z</time></trkpt><trkpt lat="44.390948745549444" lon="8.662769052939742"><ele>10.0</ele><time>2026-04-06T10:19:40.999Z</time></trkpt><trkpt lat="44.39095574280072" lon="8.66296564773142"><ele>10.0</ele><time>2026-04-06T10:19:41.999Z</time></trkpt><trkpt lat="44.39096048160073" lon="8.663151444445683"><ele>10.0</ele><time>2026-04-06T10:19:42.999Z</time></trkpt><trkpt lat="44.39096582740681" lon="8.66332936596808"><ele>9.5</ele><time>2026-04-06T10:19:43.999Z</time></trkpt><trkpt lat="44.39097152922996" lon="8.663501323208736"><ele>9.0</ele><time>2026-04-06T10:19:44.999Z</time></trkpt><trkpt lat="44.39097532087113" lon="8.663674476966387"><ele>8.5</ele><time>2026-04-06T10:19:45.999Z</time></trkpt><trkpt lat="44.390979681796395" lon="8.663830859906385"><ele>8.0</ele><time>2026-04-06T10:19:46.999Z</time></trkpt><trkpt lat="44.39098481515041" lon="8.663963247852184"><ele>7.4</ele><time>2026-04-06T10:19:47.999Z</time></trkpt><trkpt lat="44.39099010286998" lon="8.664091473724657"><ele>6.800000000000001</ele><time>2026-04-06T10:19:48.999Z</time></trkpt><trkpt lat="44.39099401820453" lon="8.664230716493375"><ele>6.2</ele><time>2026-04-06T10:19:49.999Z</time></trkpt><trkpt lat="44.39099654762707" lon="8.664377142513187"><ele>5.6</ele><time>2026-04-06T10:19:50.999Z</time></trkpt><trkpt lat="44.390998171337564" lon="8.664516822090247"><ele>5.0</ele><time>2026-04-06T10:19:51.999Z</time></trkpt><trkpt lat="44.39100478595664" lon="8.664651954442025"><ele>4.8</ele><time>2026-04-06T10:19:52.999Z</time></trkpt><trkpt lat="44.391009035874234" lon="8.664790565912588"><ele>4.6</ele><time>2026-04-06T10:19:53.999Z</time></trkpt><trkpt lat="44.391023654578746" lon="8.664923365891687"><ele>4.4</ele><time>2026-04-06T10:19:54.999Z</time></trkpt><trkpt lat="44.391051587130896" lon="8.6650571377026"><ele>4.2</ele><time>2026-04-06T10:19:55.999Z</time></trkpt><trkpt lat="44.391098173831885" lon="8.665185597884818"><ele>4.0</ele><time>2026-04-06T10:19:56.999Z</time></trkpt><trkpt lat="44.391159700649695" lon="8.665314096718298"><ele>4.75</ele><time>2026-04-06T10:19:57.999Z</time></trkpt><trkpt lat="44.39123635528922" lon="8.665426224039281"><ele>5.5</ele><time>2026-04-06T10:19:58.999Z</time></trkpt><trkpt lat="44.39132242959194" lon="8.665525530493008"><ele>6.25</ele><time>2026-04-06T10:19:59.999Z</time></trkpt><trkpt lat="44.391421939308394" lon="8.665609459441441"><ele>7.0</ele><time>2026-04-06T10:20:00.999Z</time></trkpt><trkpt lat="44.39153117015164" lon="8.665669135235605"><ele>8.5</ele><time>2026-04-06T10:20:01.999Z</time></trkpt><trkpt lat="44.391648693114135" lon="8.66571120739186"><ele>10.0</ele><time>2026-04-06T10:20:02.999Z</time></trkpt><trkpt lat="44.39176771634323" lon="8.665737674724788"><ele>11.5</ele><time>2026-04-06T10:20:03.999Z</time></trkpt><trkpt lat="44.39188943407816" lon="8.665726655373792"><ele>13.0</ele><time>2026-04-06T10:20:04.999Z</time></trkpt><trkpt lat="44.392009521850184" lon="8.665679085825866"><ele>13.0</ele><time>2026-04-06T10:20:05.999Z</time></trkpt><trkpt lat="44.39211860055394" lon="8.665600499128805"><ele>13.0</ele><time>2026-04-06T10:20:06.999Z</time></trkpt><trkpt lat="44.39222444101708" lon="8.66550052132054"><ele>13.0</ele><time>2026-04-06T10:20:07.999Z</time></trkpt><trkpt lat="44.392325206108076" lon="8.66539701900628"><ele>13.0</ele><time>2026-04-06T10:20:08.999Z</time></trkpt><trkpt lat="44.39242359910923" lon="8.665298267379029"><ele>13.75</ele><time>2026-04-06T10:20:09.999Z</time></trkpt><trkpt lat="44.392529161316105" lon="8.665202169308511"><ele>14.5</ele><time>2026-04-06T10:20:10.999Z</time></trkpt><trkpt lat="44.39264446551879" lon="8.66513314246843"><ele>15.25</ele><time>2026-04-06T10:20:11.999Z</time></trkpt><trkpt lat="44.39277915563235" lon="8.665096865985323"><ele>16.0</ele><time>2026-04-06T10:20:12.999Z</time></trkpt><trkpt lat="44.39291237278666" lon="8.665075949068068"><ele>18.0</ele><time>2026-04-06T10:20:13.999Z</time></trkpt><trkpt lat="44.39303054395883" lon="8.665069805880082"><ele>20.0</ele><time>2026-04-06T10:20:14.999Z</time></trkpt><trkpt lat="44.39313873634862" lon="8.66506321094175"><ele>22.0</ele><time>2026-04-06T10:20:15.999Z</time></trkpt><trkpt lat="44.39324853359136" lon="8.665070589903086"><ele>24.0</ele><time>2026-04-06T10:20:16.999Z</time></trkpt><trkpt lat="44.393361267151086" lon="8.665075880521886"><ele>26.0</ele><time>2026-04-06T10:20:17.999Z</time></trkpt><trkpt lat="44.39347381536518" lon="8.66507091170213"><ele>26.0</ele><time>2026-04-06T10:20:18.999Z</time></trkpt><trkpt lat="44.393593679649776" lon="8.66507016279101"><ele>26.0</ele><time>2026-04-06T10:20:19.999Z</time></trkpt><trkpt lat="44.39370464965151" lon="8.665066882280005"><ele>26.0</ele><time>2026-04-06T10:20:20.999Z</time></trkpt><trkpt lat="44.393823255007234" lon="8.665064731517154"><ele>26.0</ele><time>2026-04-06T10:20:21.999Z</time></trkpt><trkpt lat="44.3939467207395" lon="8.665064277645934"><ele>28.75</ele><time>2026-04-06T10:20:22.999Z</time></trkpt><trkpt lat="44.39406850527316" lon="8.665056855512885"><ele>31.5</ele><time>2026-04-06T10:20:23.999Z</time></trkpt><trkpt lat="44.394191975439604" lon="8.665057270738648"><ele>34.25</ele><time>2026-04-06T10:20:24.999Z</time></trkpt><trkpt lat="44.39431480173213" lon="8.665055426238784"><ele>37.0</ele><time>2026-04-06T10:20:25.999Z</time></trkpt><trkpt lat="44.39443811778393" lon="8.665043645196336"><ele>37.0</ele><time>2026-04-06T10:20:26.999Z</time></trkpt><trkpt lat="44.39456064378169" lon="8.66502222504985"><ele>37.0</ele><time>2026-04-06T10:20:27.999Z</time></trkpt><trkpt lat="44.39468285103872" lon="8.664991364091778"><ele>37.0</ele><time>2026-04-06T10:20:28.999Z</time></trkpt><trkpt lat="44.39480106497745" lon="8.664952632118746"><ele>37.0</ele><time>2026-04-06T10:20:29.999Z</time></trkpt><trkpt lat="44.394921403022934" lon="8.664911837669063"><ele>39.0</ele><time>2026-04-06T10:20:30.999Z</time></trkpt><trkpt lat="44.39504332614621" lon="8.664874110453075"><ele>41.0</ele><time>2026-04-06T10:20:31.999Z</time></trkpt><trkpt lat="44.39516008363662" lon="8.66483464568868"><ele>43.0</ele><time>2026-04-06T10:20:32.999Z</time></trkpt><trkpt lat="44.395281702687775" lon="8.664801001240802"><ele>45.0</ele><time>2026-04-06T10:20:33.999Z</time></trkpt><trkpt lat="44.39540339941756" lon="8.664764076818471"><ele>49.0</ele><time>2026-04-06T10:20:34.999Z</time></trkpt><trkpt lat="44.395522717246436" lon="8.664720985444754"><ele>53.0</ele><time>2026-04-06T10:20:35.999Z</time></trkpt><trkpt lat="44.3956446664518" lon="8.66468231153082"><ele>57.0</ele><time>2026-04-06T10:20:36.999Z</time></trkpt><trkpt lat="44.395764745459076" lon="8.664640305798669"><ele>61.0</ele><time>2026-04-06T10:20:37.999Z</time></trkpt><trkpt lat="44.39588756968621" lon="8.66460896955894"><ele>61.0</ele><time>2026-04-06T10:20:38.999Z</time></trkpt><trkpt lat="44.396005819141685" lon="8.66457027579794"><ele>61.0</ele><time>2026-04-06T10:20:39.999Z</time></trkpt><trkpt lat="44.396119777351025" lon="8.664526622121334"><ele>61.0</ele><time>2026-04-06T10:20:40.999Z</time></trkpt><trkpt lat="44.39623913862077" lon="8.664494405278955"><ele>61.0</ele><time>2026-04-06T10:20:41.999Z</time></trkpt><trkpt lat="44.39635896800137" lon="8.6644575473999"><ele>60.25</ele><time>2026-04-06T10:20:42.999Z</time></trkpt><trkpt lat="44.39647728408444" lon="8.664421402272954"><ele>59.5</ele><time>2026-04-06T10:20:43.999Z</time></trkpt><trkpt lat="44.39659775481139" lon="8.664384662574218"><ele>58.75</ele><time>2026-04-06T10:20:44.999Z</time></trkpt><trkpt lat="44.396699024902716" lon="8.664335626720653"><ele>58.0</ele><time>2026-04-06T10:20:45.999Z</time></trkpt><trkpt lat="44.39676906213923" lon="8.664218867326365"><ele>58.0</ele><time>2026-04-06T10:20:46.999Z</time></trkpt><trkpt lat="44.39681870527135" lon="8.664058174822495"><ele>58.0</ele><time>2026-04-06T10:20:47.999Z</time></trkpt><trkpt lat="44.39683623630535" lon="8.66387533679882"><ele>58.0</ele><time>2026-04-06T10:20:48.999Z</time></trkpt><trkpt lat="44.39683949764798" lon="8.663706617449492"><ele>58.0</ele><time>2026-04-06T10:20:49.999Z</time></trkpt><trkpt lat="44.396844776578305" lon="8.663556565418277"><ele>59.25</ele><time>2026-04-06T10:20:50.999Z</time></trkpt><trkpt lat="44.39688219259903" lon="8.663420991178437"><ele>60.5</ele><time>2026-04-06T10:20:51.999Z</time></trkpt><trkpt lat="44.39696054288524" lon="8.66331230892115"><ele>61.75</ele><time>2026-04-06T10:20:52.999Z</time></trkpt><trkpt lat="44.397069392651105" lon="8.663254101899204"><ele>63.0</ele><time>2026-04-06T10:20:53.999Z</time></trkpt><trkpt lat="44.39718857838428" lon="8.663256212449264"><ele>63.0</ele><time>2026-04-06T10:20:54.999Z</time></trkpt><trkpt lat="44.39729052197788" lon="8.663307694311358"><ele>63.0</ele><time>2026-04-06T10:20:55.999Z</time></trkpt><trkpt lat="44.39739964112835" lon="8.663366168537301"><ele>63.0</ele><time>2026-04-06T10:20:56.999Z</time></trkpt><trkpt lat="44.397512107102195" lon="8.663413960783013"><ele>63.0</ele><time>2026-04-06T10:20:57.999Z</time></trkpt><trkpt lat="44.39761984731293" lon="8.663458569889722"><ele>63.0</ele><time>2026-04-06T10:20:58.999Z</time></trkpt><trkpt lat="44.39772054698202" lon="8.66348250127542"><ele>63.0</ele><time>2026-04-06T10:20:59.999Z</time></trkpt><trkpt lat="44.39783144408403" lon="8.66345215082332"><ele>63.0</ele><time>2026-04-06T10:21:00.999Z</time></trkpt><trkpt lat="44.39793618095091" lon="8.663357150975934"><ele>63.0</ele><time>2026-04-06T10:21:01.999Z</time></trkpt><trkpt lat="44.398022694258366" lon="8.663263242400747"><ele>63.0</ele><time>2026-04-06T10:21:02.999Z</time></trkpt><trkpt lat="44.39813388344607" lon="8.663214584646289"><ele>65.5</ele><time>2026-04-06T10:21:03.999Z</time></trkpt><trkpt lat="44.39824522669684" lon="8.663216499302541"><ele>68.0</ele><time>2026-04-06T10:21:04.999Z</time></trkpt><trkpt lat="44.39836116821136" lon="8.66325581189094"><ele>70.5</ele><time>2026-04-06T10:21:05.999Z</time></trkpt><trkpt lat="44.398473399991865" lon="8.663293426511695"><ele>73.0</ele><time>2026-04-06T10:21:06.999Z</time></trkpt><trkpt lat="44.398582612080666" lon="8.66333669352623"><ele>73.0</ele><time>2026-04-06T10:21:07.999Z</time></trkpt><trkpt lat="44.39867848655776" lon="8.663391474313357"><ele>73.0</ele><time>2026-04-06T10:21:08.999Z</time></trkpt><trkpt lat="44.398755804740475" lon="8.663492809572784"><ele>73.0</ele><time>2026-04-06T10:21:09.999Z</time></trkpt><trkpt lat="44.398826659727106" lon="8.663640736412919"><ele>73.0</ele><time>2026-04-06T10:21:10.999Z</time></trkpt><trkpt lat="44.398893357465425" lon="8.663780775606476"><ele>75.0</ele><time>2026-04-06T10:21:11.999Z</time></trkpt><trkpt lat="44.39894217518806" lon="8.663930833388076"><ele>77.0</ele><time>2026-04-06T10:21:12.999Z</time></trkpt><trkpt lat="44.3989863561375" lon="8.664067360536686"><ele>79.0</ele><time>2026-04-06T10:21:13.999Z</time></trkpt><trkpt lat="44.39902369667524" lon="8.664184055488912"><ele>81.0</ele><time>2026-04-06T10:21:14.999Z</time></trkpt><trkpt lat="44.39905285855386" lon="8.664298123080837"><ele>83.0</ele><time>2026-04-06T10:21:15.999Z</time></trkpt><trkpt lat="44.39908575168434" lon="8.664383529339828"><ele>81.66666666666667</ele><time>2026-04-06T10:21:16.999Z</time></trkpt><trkpt lat="44.39911441847793" lon="8.66446725033066"><ele>80.33333333333334</ele><time>2026-04-06T10:21:18.999Z</time></trkpt><trkpt lat="44.3991531985042" lon="8.664569500328403"><ele>79.0</ele><time>2026-04-06T10:21:20.999Z</time></trkpt><trkpt lat="44.399193194245605" lon="8.664652745443925"><ele>77.66666666666667</ele><time>2026-04-06T10:21:21.999Z</time></trkpt><trkpt lat="44.39923523469952" lon="8.664749972415306"><ele>76.33333333333333</ele><time>2026-04-06T10:21:22.999Z</time></trkpt><trkpt lat="44.3992765785908" lon="8.664861525081138"><ele>75.0</ele><time>2026-04-06T10:21:23.999Z</time></trkpt><trkpt lat="44.39932021400827" lon="8.66498045742216"><ele>75.0</ele><time>2026-04-06T10:21:24.999Z</time></trkpt><trkpt lat="44.39937399676578" lon="8.665093791301656"><ele>75.0</ele><time>2026-04-06T10:21:25.999Z</time></trkpt><trkpt lat="44.39941680163308" lon="8.665221872122801"><ele>75.0</ele><time>2026-04-06T10:21:26.999Z</time></trkpt><trkpt lat="44.39946332150825" lon="8.665347276328646"><ele>75.0</ele><time>2026-04-06T10:21:27.999Z</time></trkpt><trkpt lat="44.39951542290567" lon="8.665487256077068"><ele>75.0</ele><time>2026-04-06T10:21:28.999Z</time></trkpt><trkpt lat="44.39957248508131" lon="8.665624089355715"><ele>74.25</ele><time>2026-04-06T10:21:29.999Z</time></trkpt><trkpt lat="44.39962596450391" lon="8.665758349817752"><ele>73.5</ele><time>2026-04-06T10:21:30.999Z</time></trkpt><trkpt lat="44.39967619303185" lon="8.665904238084506"><ele>72.75</ele><time>2026-04-06T10:21:31.999Z</time></trkpt><trkpt lat="44.39972943319873" lon="8.666053972248537"><ele>72.0</ele><time>2026-04-06T10:21:32.999Z</time></trkpt><trkpt lat="44.39978570184414" lon="8.666206402320373"><ele>70.5</ele><time>2026-04-06T10:21:33.999Z</time></trkpt><trkpt lat="44.39984589884461" lon="8.666353271019366"><ele>69.0</ele><time>2026-04-06T10:21:34.999Z</time></trkpt><trkpt lat="44.39990329966215" lon="8.666496665336417"><ele>67.5</ele><time>2026-04-06T10:21:35.999Z</time></trkpt><trkpt lat="44.39996388212735" lon="8.666642908548457"><ele>66.0</ele><time>2026-04-06T10:21:36.999Z</time></trkpt><trkpt lat="44.40003127886744" lon="8.666777010204326"><ele>66.0</ele><time>2026-04-06T10:21:37.999Z</time></trkpt><trkpt lat="44.40008238912236" lon="8.666918385698041"><ele>66.0</ele><time>2026-04-06T10:21:38.999Z</time></trkpt><trkpt lat="44.400136410693285" lon="8.667059039422748"><ele>66.0</ele><time>2026-04-06T10:21:39.999Z</time></trkpt><trkpt lat="44.40018920056032" lon="8.667201788393141"><ele>66.0</ele><time>2026-04-06T10:21:40.999Z</time></trkpt><trkpt lat="44.400225001460754" lon="8.667355308011539"><ele>67.75</ele><time>2026-04-06T10:21:41.999Z</time></trkpt><trkpt lat="44.40027753442448" lon="8.667502127312105"><ele>69.5</ele><time>2026-04-06T10:21:42.999Z</time></trkpt><trkpt lat="44.400302507228815" lon="8.667655399134556"><ele>71.25</ele><time>2026-04-06T10:21:43.999Z</time></trkpt><trkpt lat="44.40030483927052" lon="8.66783803191955"><ele>73.0</ele><time>2026-04-06T10:21:44.999Z</time></trkpt><trkpt lat="44.40031105861505" lon="8.668000210366497"><ele>73.0</ele><time>2026-04-06T10:21:45.999Z</time></trkpt><trkpt lat="44.4003040528191" lon="8.668147396787209"><ele>73.0</ele><time>2026-04-06T10:21:46.999Z</time></trkpt><trkpt lat="44.40030630479699" lon="8.668292916745372"><ele>73.0</ele><time>2026-04-06T10:21:47.999Z</time></trkpt><trkpt lat="44.40031297434277" lon="8.668431781087419"><ele>73.0</ele><time>2026-04-06T10:21:48.999Z</time></trkpt><trkpt lat="44.40031676510184" lon="8.668560347546759"><ele>73.0</ele><time>2026-04-06T10:21:49.999Z</time></trkpt><trkpt lat="44.40031958173929" lon="8.66867896273509"><ele>71.5</ele><time>2026-04-06T10:21:50.999Z</time></trkpt><trkpt lat="44.400338165626046" lon="8.668831084467556"><ele>70.0</ele><time>2026-04-06T10:21:52.999Z</time></trkpt><trkpt lat="44.40033344108031" lon="8.668970998402854"><ele>68.5</ele><time>2026-04-06T10:21:54.999Z</time></trkpt><trkpt lat="44.400314775271426" lon="8.669064307788162"><ele>67.0</ele><time>2026-04-06T10:21:55.999Z</time></trkpt><trkpt lat="44.4003059958805" lon="8.669162069525221"><ele>65.5</ele><time>2026-04-06T10:21:56.999Z</time></trkpt><trkpt lat="44.40031112967344" lon="8.669263178040836"><ele>64.0</ele><time>2026-04-06T10:21:57.999Z</time></trkpt><trkpt lat="44.40031775720433" lon="8.669377122135355"><ele>62.166666666666664</ele><time>2026-04-06T10:21:58.999Z</time></trkpt><trkpt lat="44.400315454169565" lon="8.669488085509334"><ele>60.33333333333333</ele><time>2026-04-06T10:21:59.999Z</time></trkpt><trkpt lat="44.40030906194335" lon="8.669607229156403"><ele>58.5</ele><time>2026-04-06T10:22:00.999Z</time></trkpt><trkpt lat="44.40031649565605" lon="8.669730670693184"><ele>56.66666666666667</ele><time>2026-04-06T10:22:01.999Z</time></trkpt><trkpt lat="44.400331609489285" lon="8.669846386381638"><ele>54.833333333333336</ele><time>2026-04-06T10:22:02.999Z</time></trkpt><trkpt lat="44.40035457763892" lon="8.669959053791644"><ele>53.0</ele><time>2026-04-06T10:22:03.999Z</time></trkpt><trkpt lat="44.40038660839308" lon="8.670081165641246"><ele>53.0</ele><time>2026-04-06T10:22:04.999Z</time></trkpt><trkpt lat="44.400427799620374" lon="8.670208658636753"><ele>53.0</ele><time>2026-04-06T10:22:05.999Z</time></trkpt><trkpt lat="44.400476795036596" lon="8.670344733894398"><ele>53.0</ele><time>2026-04-06T10:22:06.999Z</time></trkpt><trkpt lat="44.40052637510546" lon="8.670474945422972"><ele>53.0</ele><time>2026-04-06T10:22:07.999Z</time></trkpt><trkpt lat="44.40057788640762" lon="8.670609175815894"><ele>53.0</ele><time>2026-04-06T10:22:08.999Z</time></trkpt><trkpt lat="44.4006252467645" lon="8.67073296656234"><ele>52.0</ele><time>2026-04-06T10:22:09.999Z</time></trkpt><trkpt lat="44.4006687069057" lon="8.670863158183396"><ele>51.0</ele><time>2026-04-06T10:22:10.999Z</time></trkpt><trkpt lat="44.40070440806901" lon="8.671003765176467"><ele>50.0</ele><time>2026-04-06T10:22:11.999Z</time></trkpt><trkpt lat="44.40073017650761" lon="8.671151469718525"><ele>49.0</ele><time>2026-04-06T10:22:12.999Z</time></trkpt><trkpt lat="44.400735502106855" lon="8.671331435896866"><ele>48.0</ele><time>2026-04-06T10:22:13.999Z</time></trkpt><trkpt lat="44.40073961650313" lon="8.671479831081784"><ele>48.0</ele><time>2026-04-06T10:22:14.999Z</time></trkpt><trkpt lat="44.40075176426245" lon="8.671647171252927"><ele>48.0</ele><time>2026-04-06T10:22:15.999Z</time></trkpt><trkpt lat="44.400782001979216" lon="8.67181362521041"><ele>48.0</ele><time>2026-04-06T10:22:16.999Z</time></trkpt><trkpt lat="44.40083305761754" lon="8.671963812573486"><ele>48.0</ele><time>2026-04-06T10:22:17.999Z</time></trkpt><trkpt lat="44.400898770255985" lon="8.672107087612321"><ele>49.0</ele><time>2026-04-06T10:22:18.999Z</time></trkpt><trkpt lat="44.400969747485625" lon="8.672235784357724"><ele>50.0</ele><time>2026-04-06T10:22:19.999Z</time></trkpt><trkpt lat="44.40104670829784" lon="8.67234008917959"><ele>51.0</ele><time>2026-04-06T10:22:20.999Z</time></trkpt><trkpt lat="44.401130633560335" lon="8.67243113195056"><ele>52.0</ele><time>2026-04-06T10:22:21.999Z</time></trkpt><trkpt lat="44.40122140732371" lon="8.672517284577095"><ele>53.0</ele><time>2026-04-06T10:22:22.999Z</time></trkpt><trkpt lat="44.40128829590062" lon="8.672646288758493"><ele>49.75</ele><time>2026-04-06T10:22:23.999Z</time></trkpt><trkpt lat="44.401337959096956" lon="8.672794731686261"><ele>46.5</ele><time>2026-04-06T10:22:24.999Z</time></trkpt><trkpt lat="44.40137156289181" lon="8.6729540283917"><ele>43.25</ele><time>2026-04-06T10:22:25.999Z</time></trkpt><trkpt lat="44.40139354881618" lon="8.673119788340086"><ele>40.0</ele><time>2026-04-06T10:22:26.999Z</time></trkpt><trkpt lat="44.40140772232269" lon="8.673287476492218"><ele>40.0</ele><time>2026-04-06T10:22:27.999Z</time></trkpt><trkpt lat="44.401423421546696" lon="8.673452140181"><ele>40.0</ele><time>2026-04-06T10:22:28.999Z</time></trkpt><trkpt lat="44.401443404476204" lon="8.673606003750068"><ele>40.0</ele><time>2026-04-06T10:22:29.999Z</time></trkpt><trkpt lat="44.40146119569199" lon="8.67374894479168"><ele>40.0</ele><time>2026-04-06T10:22:30.999Z</time></trkpt><trkpt lat="44.40148169683266" lon="8.673872285761565"><ele>40.0</ele><time>2026-04-06T10:22:31.999Z</time></trkpt><trkpt lat="44.4014959492406" lon="8.673976364993292"><ele>40.0</ele><time>2026-04-06T10:22:32.999Z</time></trkpt><trkpt lat="44.401520113360405" lon="8.674063722759106"><ele>40.0</ele><time>2026-04-06T10:22:33.999Z</time></trkpt><trkpt lat="44.40156949654387" lon="8.674159418284326"><ele>40.0</ele><time>2026-04-06T10:22:35.999Z</time></trkpt><trkpt lat="44.40164872216874" lon="8.674294720271796"><ele>40.0</ele><time>2026-04-06T10:22:37.999Z</time></trkpt><trkpt lat="44.40170196537459" lon="8.674432937985932"><ele>40.0</ele><time>2026-04-06T10:22:39.999Z</time></trkpt><trkpt lat="44.40172314538092" lon="8.67461330098749"><ele>39.6</ele><time>2026-04-06T10:22:41.999Z</time></trkpt><trkpt lat="44.40171005361519" lon="8.674711743334939"><ele>39.2</ele><time>2026-04-06T10:22:42.999Z</time></trkpt><trkpt lat="44.40168369845046" lon="8.674818302368653"><ele>38.8</ele><time>2026-04-06T10:22:43.999Z</time></trkpt><trkpt lat="44.40163775599017" lon="8.674932556665704"><ele>38.4</ele><time>2026-04-06T10:22:44.999Z</time></trkpt><trkpt lat="44.40159242210103" lon="8.675059912990655"><ele>38.0</ele><time>2026-04-06T10:22:45.999Z</time></trkpt><trkpt lat="44.40155142722994" lon="8.675193954382433"><ele>37.4</ele><time>2026-04-06T10:22:46.999Z</time></trkpt><trkpt lat="44.40151948346423" lon="8.675337338178622"><ele>36.8</ele><time>2026-04-06T10:22:47.999Z</time></trkpt><trkpt lat="44.40150299630897" lon="8.675488337587163"><ele>36.2</ele><time>2026-04-06T10:22:48.999Z</time></trkpt><trkpt lat="44.40151103714789" lon="8.675647883723128"><ele>35.6</ele><time>2026-04-06T10:22:49.999Z</time></trkpt><trkpt lat="44.40152957830419" lon="8.675805929808867"><ele>35.0</ele><time>2026-04-06T10:22:50.999Z</time></trkpt><trkpt lat="44.40156662151244" lon="8.675962901023576"><ele>34.75</ele><time>2026-04-06T10:22:51.999Z</time></trkpt><trkpt lat="44.40161450882308" lon="8.676115989003996"><ele>34.5</ele><time>2026-04-06T10:22:52.999Z</time></trkpt><trkpt lat="44.40166008680358" lon="8.676268583558446"><ele>34.25</ele><time>2026-04-06T10:22:53.999Z</time></trkpt><trkpt lat="44.40168020757065" lon="8.676431354954698"><ele>34.0</ele><time>2026-04-06T10:22:54.999Z</time></trkpt><trkpt lat="44.40167173449285" lon="8.676603360705133"><ele>34.0</ele><time>2026-04-06T10:22:55.999Z</time></trkpt><trkpt lat="44.40165624735979" lon="8.676763533443893"><ele>34.0</ele><time>2026-04-06T10:22:56.999Z</time></trkpt><trkpt lat="44.401628873669104" lon="8.676931225979356"><ele>34.0</ele><time>2026-04-06T10:22:57.999Z</time></trkpt><trkpt lat="44.40161390315802" lon="8.677105432466846"><ele>34.0</ele><time>2026-04-06T10:22:58.999Z</time></trkpt><trkpt lat="44.40158356903521" lon="8.677282145665972"><ele>31.75</ele><time>2026-04-06T10:22:59.999Z</time></trkpt><trkpt lat="44.40155266961517" lon="8.677453799095739"><ele>29.5</ele><time>2026-04-06T10:23:00.999Z</time></trkpt><trkpt lat="44.40152131154353" lon="8.677617974532284"><ele>27.25</ele><time>2026-04-06T10:23:01.999Z</time></trkpt><trkpt lat="44.40148486984106" lon="8.67777762060724"><ele>25.0</ele><time>2026-04-06T10:23:02.999Z</time></trkpt><trkpt lat="44.401423714210985" lon="8.677918705851072"><ele>23.5</ele><time>2026-04-06T10:23:03.999Z</time></trkpt><trkpt lat="44.401346136588685" lon="8.678046476767141"><ele>22.0</ele><time>2026-04-06T10:23:04.999Z</time></trkpt><trkpt lat="44.40125765208168" lon="8.678159321985197"><ele>20.5</ele><time>2026-04-06T10:23:05.999Z</time></trkpt><trkpt lat="44.40118092865633" lon="8.678277217103743"><ele>19.0</ele><time>2026-04-06T10:23:06.999Z</time></trkpt><trkpt lat="44.401129951411036" lon="8.67840669104636"><ele>20.2</ele><time>2026-04-06T10:23:07.999Z</time></trkpt><trkpt lat="44.40109138401642" lon="8.678541864166567"><ele>21.4</ele><time>2026-04-06T10:23:08.999Z</time></trkpt><trkpt lat="44.40105099159525" lon="8.678661551398168"><ele>22.6</ele><time>2026-04-06T10:23:09.999Z</time></trkpt><trkpt lat="44.40100095107325" lon="8.678776599144488"><ele>23.8</ele><time>2026-04-06T10:23:10.999Z</time></trkpt><trkpt lat="44.40095104680054" lon="8.678885309867237"><ele>25.0</ele><time>2026-04-06T10:23:11.999Z</time></trkpt><trkpt lat="44.40091306617051" lon="8.678977918204692"><ele>25.000000000000004</ele><time>2026-04-06T10:23:12.999Z</time></trkpt><trkpt lat="44.400860146987604" lon="8.679080077478496"><ele>25.0</ele><time>2026-04-06T10:23:14.999Z</time></trkpt><trkpt lat="44.40081718089636" lon="8.679157810550246"><ele>25.0</ele><time>2026-04-06T10:23:18.999Z</time></trkpt><trkpt lat="44.400781889023676" lon="8.67923133517232"><ele>25.0</ele><time>2026-04-06T10:23:21.999Z</time></trkpt><trkpt lat="44.40073967223277" lon="8.679330374523731"><ele>25.000000000000004</ele><time>2026-04-06T10:23:25.999Z</time></trkpt><trkpt lat="44.400690790295855" lon="8.679433909753481"><ele>25.0</ele><time>2026-04-06T10:23:27.999Z</time></trkpt><trkpt lat="44.40065732949679" lon="8.679510158725066"><ele>24.500000000000004</ele><time>2026-04-06T10:23:28.999Z</time></trkpt><trkpt lat="44.400611798312845" lon="8.679604365744149"><ele>24.0</ele><time>2026-04-06T10:23:29.999Z</time></trkpt><trkpt lat="44.400560867598465" lon="8.679709413180646"><ele>23.5</ele><time>2026-04-06T10:23:30.999Z</time></trkpt><trkpt lat="44.400515910827856" lon="8.679807432862658"><ele>23.0</ele><time>2026-04-06T10:23:31.999Z</time></trkpt><trkpt lat="44.40043420999791" lon="8.679882480056252"><ele>22.5</ele><time>2026-04-06T10:23:32.999Z</time></trkpt><trkpt lat="44.40035709274964" lon="8.679931390832584"><ele>22.0</ele><time>2026-04-06T10:23:33.999Z</time></trkpt><trkpt lat="44.40030900522469" lon="8.6800169849163"><ele>22.0</ele><time>2026-04-06T10:23:34.999Z</time></trkpt><trkpt lat="44.40030588644037" lon="8.68012193228316"><ele>22.0</ele><time>2026-04-06T10:23:35.999Z</time></trkpt><trkpt lat="44.4003399729992" lon="8.680216106103462"><ele>22.0</ele><time>2026-04-06T10:23:36.999Z</time></trkpt><trkpt lat="44.400397301514566" lon="8.680289375176342"><ele>22.0</ele><time>2026-04-06T10:23:37.999Z</time></trkpt><trkpt lat="44.400463930825396" lon="8.680356920881653"><ele>22.0</ele><time>2026-04-06T10:23:38.999Z</time></trkpt><trkpt lat="44.40050660239511" lon="8.680453395169721"><ele>22.0</ele><time>2026-04-06T10:23:39.999Z</time></trkpt><trkpt lat="44.400527250197804" lon="8.680582355502809"><ele>22.8</ele><time>2026-04-06T10:23:40.999Z</time></trkpt><trkpt lat="44.40052715865292" lon="8.680723139759474"><ele>23.6</ele><time>2026-04-06T10:23:41.999Z</time></trkpt><trkpt lat="44.400516226041496" lon="8.680859011140878"><ele>24.400000000000002</ele><time>2026-04-06T10:23:42.999Z</time></trkpt><trkpt lat="44.40049365341997" lon="8.681003212830827"><ele>25.200000000000003</ele><time>2026-04-06T10:23:43.999Z</time></trkpt><trkpt lat="44.40046268407532" lon="8.681147813428918"><ele>26.0</ele><time>2026-04-06T10:23:44.999Z</time></trkpt><trkpt lat="44.400448642688836" lon="8.681293109424105"><ele>27.75</ele><time>2026-04-06T10:23:45.999Z</time></trkpt><trkpt lat="44.400469867583084" lon="8.681446292638496"><ele>29.5</ele><time>2026-04-06T10:23:46.999Z</time></trkpt><trkpt lat="44.40051159187971" lon="8.681608209725685"><ele>31.25</ele><time>2026-04-06T10:23:47.999Z</time></trkpt><trkpt lat="44.40056811305176" lon="8.68177165619398"><ele>33.0</ele><time>2026-04-06T10:23:48.999Z</time></trkpt><trkpt lat="44.40063045984089" lon="8.681932195763041"><ele>27.25</ele><time>2026-04-06T10:23:49.999Z</time></trkpt><trkpt lat="44.400671661162576" lon="8.682106650474363"><ele>21.5</ele><time>2026-04-06T10:23:50.999Z</time></trkpt><trkpt lat="44.400670842834714" lon="8.682294974440106"><ele>15.75</ele><time>2026-04-06T10:23:51.999Z</time></trkpt><trkpt lat="44.400646810481916" lon="8.682469834502184"><ele>10.0</ele><time>2026-04-06T10:23:52.999Z</time></trkpt><trkpt lat="44.40062529959525" lon="8.682592190711912"><ele>10.0</ele><time>2026-04-06T10:23:53.999Z</time></trkpt><trkpt lat="44.4005994231486" lon="8.682680596182585"><ele>10.0</ele><time>2026-04-06T10:23:56.999Z</time></trkpt><trkpt lat="44.40055759493601" lon="8.682827740863482"><ele>10.0</ele><time>2026-04-06T10:23:59.999Z</time></trkpt><trkpt lat="44.400553711664756" lon="8.682918459512713"><ele>10.0</ele><time>2026-04-06T10:24:00.999Z</time></trkpt><trkpt lat="44.40054030737112" lon="8.683009706415314"><ele>10.0</ele><time>2026-04-06T10:24:01.999Z</time></trkpt><trkpt lat="44.400521956342274" lon="8.683116695019969"><ele>10.0</ele><time>2026-04-06T10:24:02.999Z</time></trkpt><trkpt lat="44.4005141508248" lon="8.683229849950994"><ele>11.6</ele><time>2026-04-06T10:24:03.999Z</time></trkpt><trkpt lat="44.40049398644192" lon="8.683350972916028"><ele>13.2</ele><time>2026-04-06T10:24:04.999Z</time></trkpt><trkpt lat="44.400476051801206" lon="8.683475670204523"><ele>14.8</ele><time>2026-04-06T10:24:05.999Z</time></trkpt><trkpt lat="44.40045150326093" lon="8.683608994501418"><ele>16.4</ele><time>2026-04-06T10:24:06.999Z</time></trkpt><trkpt lat="44.40043806264741" lon="8.683737945597569"><ele>18.0</ele><time>2026-04-06T10:24:07.999Z</time></trkpt><trkpt lat="44.4004099084733" lon="8.683856529770427"><ele>18.0</ele><time>2026-04-06T10:24:08.999Z</time></trkpt><trkpt lat="44.400392254836476" lon="8.683966150060058"><ele>18.0</ele><time>2026-04-06T10:24:09.999Z</time></trkpt><trkpt lat="44.40037333807381" lon="8.684072091390401"><ele>18.0</ele><time>2026-04-06T10:24:10.999Z</time></trkpt><trkpt lat="44.400351353580234" lon="8.684177974301118"><ele>18.0</ele><time>2026-04-06T10:24:11.999Z</time></trkpt><trkpt lat="44.40032628554589" lon="8.68428523178071"><ele>18.0</ele><time>2026-04-06T10:24:12.999Z</time></trkpt><trkpt lat="44.40030666925618" lon="8.684390525867546"><ele>18.0</ele><time>2026-04-06T10:24:13.999Z</time></trkpt><trkpt lat="44.40029331436546" lon="8.684481672131927"><ele>16.5</ele><time>2026-04-06T10:24:15Z</time></trkpt><trkpt lat="44.40027204433961" lon="8.684646094457094"><ele>15.0</ele><time>2026-04-06T10:24:17Z</time></trkpt><trkpt lat="44.400270974324656" lon="8.684758839813036"><ele>13.5</ele><time>2026-04-06T10:24:19Z</time></trkpt><trkpt lat="44.40028340385744" lon="8.684862090182818"><ele>12.0</ele><time>2026-04-06T10:24:22Z</time></trkpt><trkpt lat="44.40030655715972" lon="8.684967671316828"><ele>10.5</ele><time>2026-04-06T10:24:25Z</time></trkpt><trkpt lat="44.400349133536494" lon="8.685052240651345"><ele>9.0</ele><time>2026-04-06T10:24:28Z</time></trkpt><trkpt lat="44.40039365231355" lon="8.685115990154078"><ele>9.0</ele><time>2026-04-06T10:24:30Z</time></trkpt><trkpt lat="44.400448496885254" lon="8.685183926328907"><ele>9.0</ele><time>2026-04-06T10:24:40Z</time></trkpt><trkpt lat="44.40053555552304" lon="8.685248729015633"><ele>9.0</ele><time>2026-04-06T10:24:43Z</time></trkpt><trkpt lat="44.400597451755274" lon="8.685283176044873"><ele>9.0</ele><time>2026-04-06T10:24:49Z</time></trkpt><trkpt lat="44.400667222914976" lon="8.68532147577056"><ele>9.0</ele><time>2026-04-06T10:24:53Z</time></trkpt><trkpt lat="44.400765296252615" lon="8.685373393493993"><ele>9.0</ele><time>2026-04-06T10:24:56Z</time></trkpt><trkpt lat="44.40087169387143" lon="8.685385654749776"><ele>8.333333333333334</ele><time>2026-04-06T10:24:58Z</time></trkpt><trkpt lat="44.40098834604414" lon="8.68540915372886"><ele>7.666666666666667</ele><time>2026-04-06T10:25:00Z</time></trkpt><trkpt lat="44.40105731550803" lon="8.685426517634745"><ele>7.0</ele><time>2026-04-06T10:25:01Z</time></trkpt><trkpt lat="44.40112027254521" lon="8.685451163365887"><ele>6.333333333333334</ele><time>2026-04-06T10:25:02Z</time></trkpt><trkpt lat="44.40124269854676" lon="8.685462645585202"><ele>5.666666666666667</ele><time>2026-04-06T10:25:04Z</time></trkpt><trkpt lat="44.401306027404075" lon="8.68545258162648"><ele>5.0</ele><time>2026-04-06T10:25:05Z</time></trkpt><trkpt lat="44.40142273131387" lon="8.685460753026572"><ele>5.0</ele><time>2026-04-06T10:25:07Z</time></trkpt><trkpt lat="44.40151491259473" lon="8.685475562106761"><ele>5.0</ele><time>2026-04-06T10:25:09Z</time></trkpt><trkpt lat="44.401636449962425" lon="8.685471078950847"><ele>5.0</ele><time>2026-04-06T10:25:11Z</time></trkpt><trkpt lat="44.4017104610556" lon="8.6854776709225"><ele>5.0</ele><time>2026-04-06T10:25:12Z</time></trkpt><trkpt lat="44.401784709285735" lon="8.685490053095425"><ele>5.0</ele><time>2026-04-06T10:25:13Z</time></trkpt><trkpt lat="44.40186407415826" lon="8.685494249591262"><ele>5.0</ele><time>2026-04-06T10:25:14Z</time></trkpt><trkpt lat="44.40194554686018" lon="8.685498563712635"><ele>5.0</ele><time>2026-04-06T10:25:15Z</time></trkpt><trkpt lat="44.402024431134635" lon="8.685504276567487"><ele>5.0</ele><time>2026-04-06T10:25:16Z</time></trkpt><trkpt lat="44.40209780155046" lon="8.685508226097117"><ele>5.0</ele><time>2026-04-06T10:25:17Z</time></trkpt><trkpt lat="44.40216212465641" lon="8.685514201952762"><ele>5.0</ele><time>2026-04-06T10:25:17.999Z</time></trkpt><trkpt lat="44.402240896684944" lon="8.685525758614812"><ele>5.0</ele><time>2026-04-06T10:25:20.999Z</time></trkpt><trkpt lat="44.40232178548799" lon="8.685530251901"><ele>5.0</ele><time>2026-04-06T10:25:24.999Z</time></trkpt><trkpt lat="44.40240147530565" lon="8.685532537280395"><ele>4.857142857142857</ele><time>2026-04-06T10:25:27.999Z</time></trkpt><trkpt lat="44.402464243861594" lon="8.685544973712977"><ele>4.714285714285714</ele><time>2026-04-06T10:25:30.999Z</time></trkpt><trkpt lat="44.40253194132184" lon="8.685547667927025"><ele>4.571428571428571</ele><time>2026-04-06T10:25:33.999Z</time></trkpt><trkpt lat="44.40261101341887" lon="8.685551693437622"><ele>4.428571428571429</ele><time>2026-04-06T10:25:35.999Z</time></trkpt><trkpt lat="44.402696322764974" lon="8.685561373580223"><ele>4.285714285714286</ele><time>2026-04-06T10:25:37.999Z</time></trkpt><trkpt lat="44.40275965366351" lon="8.685563670238546"><ele>4.142857142857142</ele><time>2026-04-06T10:25:39.999Z</time></trkpt><trkpt lat="44.40283690167669" lon="8.685569713861842"><ele>4.0</ele><time>2026-04-06T10:25:43.999Z</time></trkpt><trkpt lat="44.40291560607346" lon="8.685569864402764"><ele>3.9999999999999996</ele><time>2026-04-06T10:25:46.999Z</time></trkpt><trkpt lat="44.40298165240267" lon="8.685645865079874"><ele>4.0</ele><time>2026-04-06T10:26:52Z</time></trkpt><trkpt lat="44.403092626726206" lon="8.685653916046855"><ele>4.0</ele><time>2026-04-06T10:26:54Z</time></trkpt><trkpt lat="44.40316779551143" lon="8.685651669429955"><ele>4.0</ele><time>2026-04-06T10:26:55Z</time></trkpt><trkpt lat="44.40324692739709" lon="8.685656755641297"><ele>3.9999999999999996</ele><time>2026-04-06T10:26:56Z</time></trkpt><trkpt lat="44.40332481113575" lon="8.68566810801352"><ele>4.0</ele><time>2026-04-06T10:26:57Z</time></trkpt><trkpt lat="44.4033994701396" lon="8.685690067645126"><ele>4.333333333333333</ele><time>2026-04-06T10:26:58Z</time></trkpt><trkpt lat="44.40346777564653" lon="8.685716975348772"><ele>4.666666666666666</ele><time>2026-04-06T10:26:59Z</time></trkpt><trkpt lat="44.403545730388146" lon="8.68575799013401"><ele>5.0</ele><time>2026-04-06T10:27:00Z</time></trkpt><trkpt lat="44.40361242173643" lon="8.685800113413478"><ele>5.333333333333333</ele><time>2026-04-06T10:27:01Z</time></trkpt><trkpt lat="44.40369783959674" lon="8.685832043803305"><ele>5.666666666666667</ele><time>2026-04-06T10:27:02Z</time></trkpt><trkpt lat="44.4037684501204" lon="8.685897751572792"><ele>6.0</ele><time>2026-04-06T10:27:03Z</time></trkpt><trkpt lat="44.403840350442906" lon="8.685963215442552"><ele>5.833333333333333</ele><time>2026-04-06T10:27:04Z</time></trkpt><trkpt lat="44.40390165907846" lon="8.686024771975227"><ele>5.666666666666667</ele><time>2026-04-06T10:27:05Z</time></trkpt><trkpt lat="44.403961313435744" lon="8.686081169472917"><ele>5.5</ele><time>2026-04-06T10:27:06Z</time></trkpt><trkpt lat="44.404028529609135" lon="8.686130257767633"><ele>5.333333333333334</ele><time>2026-04-06T10:27:07Z</time></trkpt><trkpt lat="44.404085482268336" lon="8.686181200795772"><ele>5.166666666666667</ele><time>2026-04-06T10:27:08Z</time></trkpt><trkpt lat="44.40418408451043" lon="8.686264248767227"><ele>5.0</ele><time>2026-04-06T10:27:10Z</time></trkpt><trkpt lat="44.40425988603096" lon="8.686318867356956"><ele>5.0</ele><time>2026-04-06T10:27:12Z</time></trkpt><trkpt lat="44.4043171155407" lon="8.686370896190336"><ele>5.0</ele><time>2026-04-06T10:27:14Z</time></trkpt><trkpt lat="44.40438248139653" lon="8.686449303456952"><ele>5.0</ele><time>2026-04-06T10:27:16Z</time></trkpt><trkpt lat="44.40448600832881" lon="8.68654461770689"><ele>5.0</ele><time>2026-04-06T10:27:18Z</time></trkpt><trkpt lat="44.40458942456836" lon="8.686631877143167"><ele>5.0</ele><time>2026-04-06T10:27:20Z</time></trkpt><trkpt lat="44.40467362891102" lon="8.686719529451501"><ele>5.0</ele><time>2026-04-06T10:27:22Z</time></trkpt><trkpt lat="44.404755130774944" lon="8.68679313412912"><ele>5.0</ele><time>2026-04-06T10:27:24Z</time></trkpt><trkpt lat="44.40485352657361" lon="8.686901010651303"><ele>5.0</ele><time>2026-04-06T10:27:26Z</time></trkpt><trkpt lat="44.404910818138355" lon="8.686955425599699"><ele>5.0</ele><time>2026-04-06T10:27:27Z</time></trkpt><trkpt lat="44.404973551072864" lon="8.68701960107996"><ele>5.0</ele><time>2026-04-06T10:27:28Z</time></trkpt><trkpt lat="44.40503137084282" lon="8.68708481946709"><ele>5.0</ele><time>2026-04-06T10:27:29Z</time></trkpt><trkpt lat="44.405094786944666" lon="8.687154497225317"><ele>5.0</ele><time>2026-04-06T10:27:30Z</time></trkpt><trkpt lat="44.405156970375536" lon="8.687227849455086"><ele>5.0</ele><time>2026-04-06T10:27:31Z</time></trkpt><trkpt lat="44.40524771721939" lon="8.687332272811117"><ele>5.0</ele><time>2026-04-06T10:27:33Z</time></trkpt><trkpt lat="44.405319814353746" lon="8.687427964812667"><ele>5.0</ele><time>2026-04-06T10:27:35Z</time></trkpt><trkpt lat="44.40538150098497" lon="8.687549071883947"><ele>5.0</ele><time>2026-04-06T10:27:37Z</time></trkpt><trkpt lat="44.40542340564715" lon="8.687617501387619"><ele>5.0</ele><time>2026-04-06T10:27:38Z</time></trkpt><trkpt lat="44.40547023359089" lon="8.68769701656854"><ele>5.0</ele><time>2026-04-06T10:27:39Z</time></trkpt><trkpt lat="44.405519518417464" lon="8.68779291775632"><ele>5.0</ele><time>2026-04-06T10:27:40Z</time></trkpt><trkpt lat="44.40557477064285" lon="8.687912332348697"><ele>5.0</ele><time>2026-04-06T10:27:41Z</time></trkpt><trkpt lat="44.40562772366103" lon="8.688027317538191"><ele>5.0</ele><time>2026-04-06T10:27:42Z</time></trkpt><trkpt lat="44.40567729926732" lon="8.688121431318818"><ele>5.0</ele><time>2026-04-06T10:27:43Z</time></trkpt><trkpt lat="44.40572654521563" lon="8.688203687462053"><ele>5.142857142857142</ele><time>2026-04-06T10:27:44Z</time></trkpt><trkpt lat="44.40576930552074" lon="8.68828213385105"><ele>5.285714285714286</ele><time>2026-04-06T10:27:45Z</time></trkpt><trkpt lat="44.40581426315377" lon="8.688354021226523"><ele>5.428571428571429</ele><time>2026-04-06T10:27:46Z</time></trkpt><trkpt lat="44.40585940326364" lon="8.688423480321381"><ele>5.571428571428571</ele><time>2026-04-06T10:27:47Z</time></trkpt><trkpt lat="44.405907690605005" lon="8.688489500198365"><ele>5.714285714285714</ele><time>2026-04-06T10:27:48Z</time></trkpt><trkpt lat="44.40596337231796" lon="8.688552055578775"><ele>5.857142857142857</ele><time>2026-04-06T10:27:49Z</time></trkpt><trkpt lat="44.406019034696364" lon="8.688614982778681"><ele>6.0</ele><time>2026-04-06T10:27:50Z</time></trkpt><trkpt lat="44.40607244849067" lon="8.688675664567114"><ele>6.5</ele><time>2026-04-06T10:27:51Z</time></trkpt><trkpt lat="44.40613279278714" lon="8.688723662037264"><ele>7.0</ele><time>2026-04-06T10:27:52Z</time></trkpt><trkpt lat="44.40619183347116" lon="8.688785166506078"><ele>7.5</ele><time>2026-04-06T10:27:53Z</time></trkpt><trkpt lat="44.406257868684904" lon="8.688839646724684"><ele>8.0</ele><time>2026-04-06T10:27:54Z</time></trkpt><trkpt lat="44.40632446585389" lon="8.68889645413779"><ele>8.5</ele><time>2026-04-06T10:27:55Z</time></trkpt><trkpt lat="44.40639502078068" lon="8.688956040814839"><ele>9.0</ele><time>2026-04-06T10:27:56Z</time></trkpt><trkpt lat="44.406471522738514" lon="8.689040693738608"><ele>9.0</ele><time>2026-04-06T10:27:57Z</time></trkpt><trkpt lat="44.40654190782225" lon="8.689090374154036"><ele>9.0</ele><time>2026-04-06T10:27:58Z</time></trkpt><trkpt lat="44.4065970825254" lon="8.6891564999356"><ele>9.0</ele><time>2026-04-06T10:27:59Z</time></trkpt><trkpt lat="44.40664865474571" lon="8.689238969167759"><ele>9.0</ele><time>2026-04-06T10:28:00Z</time></trkpt><trkpt lat="44.40669848372199" lon="8.689333939278423"><ele>9.0</ele><time>2026-04-06T10:28:01Z</time></trkpt><trkpt lat="44.40675272810089" lon="8.689439238544635"><ele>9.0</ele><time>2026-04-06T10:28:02Z</time></trkpt><trkpt lat="44.40680359530083" lon="8.689536590188732"><ele>8.166666666666666</ele><time>2026-04-06T10:28:03Z</time></trkpt><trkpt lat="44.40684411256705" lon="8.689624153123166"><ele>7.333333333333333</ele><time>2026-04-06T10:28:04Z</time></trkpt><trkpt lat="44.40687302117752" lon="8.689703759183596"><ele>6.5</ele><time>2026-04-06T10:28:05Z</time></trkpt><trkpt lat="44.406938774687575" lon="8.68984318018896"><ele>5.666666666666666</ele><time>2026-04-06T10:28:07Z</time></trkpt><trkpt lat="44.406990864573245" lon="8.689932781064575"><ele>4.833333333333333</ele><time>2026-04-06T10:28:09Z</time></trkpt><trkpt lat="44.40703945347292" lon="8.690018341540378"><ele>4.0</ele><time>2026-04-06T10:28:11Z</time></trkpt><trkpt lat="44.40709390086182" lon="8.6901349926958"><ele>4.5</ele><time>2026-04-06T10:28:13Z</time></trkpt><trkpt lat="44.407161924901345" lon="8.690261645966606"><ele>5.0</ele><time>2026-04-06T10:28:15Z</time></trkpt><trkpt lat="44.40720567390947" lon="8.69034386468387"><ele>5.5</ele><time>2026-04-06T10:28:16Z</time></trkpt><trkpt lat="44.407248129837555" lon="8.690420631332648"><ele>6.0</ele><time>2026-04-06T10:28:17Z</time></trkpt><trkpt lat="44.407289167377236" lon="8.69049384165173"><ele>6.500000000000001</ele><time>2026-04-06T10:28:18Z</time></trkpt><trkpt lat="44.40733483326069" lon="8.690569619436609"><ele>7.0</ele><time>2026-04-06T10:28:19Z</time></trkpt><trkpt lat="44.407384233648045" lon="8.690642458180703"><ele>7.000000000000001</ele><time>2026-04-06T10:28:20Z</time></trkpt><trkpt lat="44.40743624135859" lon="8.690719523386363"><ele>7.0</ele><time>2026-04-06T10:28:21Z</time></trkpt><trkpt lat="44.40747565525087" lon="8.690803025267007"><ele>7.0</ele><time>2026-04-06T10:28:22Z</time></trkpt><trkpt lat="44.407533551120636" lon="8.690908087470877"><ele>7.0</ele><time>2026-04-06T10:28:24Z</time></trkpt><trkpt lat="44.40756612059185" lon="8.690984116691691"><ele>7.000000000000001</ele><time>2026-04-06T10:28:29Z</time></trkpt><trkpt lat="44.40759262075404" lon="8.691076667421166"><ele>7.0</ele><time>2026-04-06T10:28:35Z</time></trkpt><trkpt lat="44.40768038216412" lon="8.691208717986886"><ele>6.6</ele><time>2026-04-06T10:28:37Z</time></trkpt><trkpt lat="44.407732506720414" lon="8.691301311242961"><ele>6.199999999999999</ele><time>2026-04-06T10:28:38Z</time></trkpt><trkpt lat="44.40778530206439" lon="8.69140646175475"><ele>5.8</ele><time>2026-04-06T10:28:39Z</time></trkpt><trkpt lat="44.407838608032094" lon="8.691516340871805"><ele>5.4</ele><time>2026-04-06T10:28:40Z</time></trkpt><trkpt lat="44.40789003501501" lon="8.691627470456233"><ele>5.0</ele><time>2026-04-06T10:28:41Z</time></trkpt><trkpt lat="44.40795196199509" lon="8.691750209755986"><ele>7.2</ele><time>2026-04-06T10:28:42Z</time></trkpt><trkpt lat="44.408022396749764" lon="8.691865105824517"><ele>9.4</ele><time>2026-04-06T10:28:43Z</time></trkpt><trkpt lat="44.40808677208066" lon="8.691978053743226"><ele>11.600000000000001</ele><time>2026-04-06T10:28:44Z</time></trkpt><trkpt lat="44.40814849690802" lon="8.692098416409866"><ele>13.8</ele><time>2026-04-06T10:28:45Z</time></trkpt><trkpt lat="44.40821330776622" lon="8.692221893783632"><ele>16.0</ele><time>2026-04-06T10:28:46Z</time></trkpt><trkpt lat="44.40831491759672" lon="8.692308298587315"><ele>16.0</ele><time>2026-04-06T10:28:47Z</time></trkpt><trkpt lat="44.408377412279734" lon="8.69243327397213"><ele>16.0</ele><time>2026-04-06T10:28:48Z</time></trkpt><trkpt lat="44.408439917259855" lon="8.692558269949101"><ele>16.0</ele><time>2026-04-06T10:28:49Z</time></trkpt><trkpt lat="44.40850247498671" lon="8.692683371408163"><ele>16.0</ele><time>2026-04-06T10:28:50Z</time></trkpt><trkpt lat="44.408541816483044" lon="8.692851508062997"><ele>14.0</ele><time>2026-04-06T10:28:51Z</time></trkpt><trkpt lat="44.40861654605563" lon="8.692987689190703"><ele>12.0</ele><time>2026-04-06T10:28:52Z</time></trkpt><trkpt lat="44.40869816352531" lon="8.693129317343088"><ele>10.0</ele><time>2026-04-06T10:28:53Z</time></trkpt><trkpt lat="44.40877495138208" lon="8.693268031217869"><ele>8.0</ele><time>2026-04-06T10:28:54Z</time></trkpt><trkpt lat="44.40885313136528" lon="8.693408088925064"><ele>9.25</ele><time>2026-04-06T10:28:55Z</time></trkpt><trkpt lat="44.40892710070574" lon="8.693555167096235"><ele>10.5</ele><time>2026-04-06T10:28:56Z</time></trkpt><trkpt lat="44.40900421033117" lon="8.693700895045113"><ele>11.75</ele><time>2026-04-06T10:28:57Z</time></trkpt><trkpt lat="44.40907559255425" lon="8.693858976583314"><ele>13.0</ele><time>2026-04-06T10:28:58Z</time></trkpt><trkpt lat="44.40914095054948" lon="8.694013294078081"><ele>13.0</ele><time>2026-04-06T10:28:59Z</time></trkpt><trkpt lat="44.40922064642003" lon="8.694190859698713"><ele>13.0</ele><time>2026-04-06T10:29:00Z</time></trkpt><trkpt lat="44.409299979436646" lon="8.694278875257188"><ele>13.0</ele><time>2026-04-06T10:29:02Z</time></trkpt><trkpt lat="44.40936752801864" lon="8.694407939248888"><ele>13.0</ele><time>2026-04-06T10:29:03Z</time></trkpt><trkpt lat="44.40943171680367" lon="8.694543661382648"><ele>11.25</ele><time>2026-04-06T10:29:04Z</time></trkpt><trkpt lat="44.40949712797477" lon="8.694678456053609"><ele>9.5</ele><time>2026-04-06T10:29:05Z</time></trkpt><trkpt lat="44.40956553113697" lon="8.694803904625429"><ele>7.75</ele><time>2026-04-06T10:29:06Z</time></trkpt><trkpt lat="44.409640330457854" lon="8.694941842721045"><ele>6.0</ele><time>2026-04-06T10:29:07Z</time></trkpt><trkpt lat="44.409704476108246" lon="8.695090845443756"><ele>13.0</ele><time>2026-04-06T10:29:08Z</time></trkpt><trkpt lat="44.409776397177396" lon="8.695230314672962"><ele>20.0</ele><time>2026-04-06T10:29:09Z</time></trkpt><trkpt lat="44.40984836255646" lon="8.695369819378323"><ele>27.0</ele><time>2026-04-06T10:29:10Z</time></trkpt><trkpt lat="44.4099174635155" lon="8.69550901502315"><ele>34.0</ele><time>2026-04-06T10:29:11Z</time></trkpt><trkpt lat="44.40998820211461" lon="8.69564470565939"><ele>34.0</ele><time>2026-04-06T10:29:12Z</time></trkpt><trkpt lat="44.41006101233983" lon="8.695779883157128"><ele>34.0</ele><time>2026-04-06T10:29:13Z</time></trkpt><trkpt lat="44.41013381591798" lon="8.695920884545744"><ele>34.0</ele><time>2026-04-06T10:29:14Z</time></trkpt><trkpt lat="44.410212269116265" lon="8.69607573797781"><ele>34.0</ele><time>2026-04-06T10:29:15Z</time></trkpt><trkpt lat="44.41028475339621" lon="8.696218674802644"><ele>31.0</ele><time>2026-04-06T10:29:16Z</time></trkpt><trkpt lat="44.4103562229192" lon="8.696362424282682"><ele>28.0</ele><time>2026-04-06T10:29:17Z</time></trkpt><trkpt lat="44.41041319393411" lon="8.696508897057027"><ele>25.0</ele><time>2026-04-06T10:29:18Z</time></trkpt><trkpt lat="44.41049740969135" lon="8.696650001343668"><ele>22.0</ele><time>2026-04-06T10:29:19Z</time></trkpt><trkpt lat="44.410569029421964" lon="8.696793588409083"><ele>30.666666666666664</ele><time>2026-04-06T10:29:20Z</time></trkpt><trkpt lat="44.410720134833355" lon="8.696923486724005"><ele>39.333333333333336</ele><time>2026-04-06T10:29:21Z</time></trkpt><trkpt lat="44.41064499794205" lon="8.697202010746869"><ele>48.0</ele><time>2026-04-06T10:29:22Z</time></trkpt><trkpt lat="44.41050104520248" lon="8.697438716041878"><ele>48.0</ele><time>2026-04-06T10:29:23Z</time></trkpt><trkpt lat="44.410501999653" lon="8.697617687907087"><ele>48.0</ele><time>2026-04-06T10:29:24Z</time></trkpt><trkpt lat="44.4105121568621" lon="8.697772731735665"><ele>48.0</ele><time>2026-04-06T10:29:25Z</time></trkpt><trkpt lat="44.41052141809492" lon="8.697957166182245"><ele>48.0</ele><time>2026-04-06T10:29:26Z</time></trkpt><trkpt lat="44.41053342963532" lon="8.698129142439301"><ele>46.25</ele><time>2026-04-06T10:29:27Z</time></trkpt><trkpt lat="44.41055208084918" lon="8.698289007876655"><ele>44.5</ele><time>2026-04-06T10:29:28Z</time></trkpt><trkpt lat="44.410588477406236" lon="8.698457908482267"><ele>42.75</ele><time>2026-04-06T10:29:29Z</time></trkpt><trkpt lat="44.41063466756727" lon="8.69861951676152"><ele>41.0</ele><time>2026-04-06T10:29:30Z</time></trkpt><trkpt lat="44.41068330469755" lon="8.69878209111896"><ele>37.75</ele><time>2026-04-06T10:29:31Z</time></trkpt><trkpt lat="44.410706767232476" lon="8.69895730382715"><ele>34.5</ele><time>2026-04-06T10:29:32Z</time></trkpt><trkpt lat="44.41073967137064" lon="8.699125977434191"><ele>31.25</ele><time>2026-04-06T10:29:33Z</time></trkpt><trkpt lat="44.41078286443471" lon="8.699287541823015"><ele>28.0</ele><time>2026-04-06T10:29:34Z</time></trkpt><trkpt lat="44.41083086742104" lon="8.699443039609626"><ele>23.5</ele><time>2026-04-06T10:29:35Z</time></trkpt><trkpt lat="44.41087627319805" lon="8.69960271411367"><ele>19.0</ele><time>2026-04-06T10:29:36Z</time></trkpt><trkpt lat="44.410925058744446" lon="8.699762654502345"><ele>14.5</ele><time>2026-04-06T10:29:37Z</time></trkpt><trkpt lat="44.41097698304363" lon="8.699920815150977"><ele>10.0</ele><time>2026-04-06T10:29:38Z</time></trkpt><trkpt lat="44.41104149026417" lon="8.700065396085705"><ele>10.0</ele><time>2026-04-06T10:29:39Z</time></trkpt><trkpt lat="44.411114406445066" lon="8.700191745576685"><ele>10.0</ele><time>2026-04-06T10:29:40Z</time></trkpt><trkpt lat="44.411194328969394" lon="8.700327807165749"><ele>10.0</ele><time>2026-04-06T10:29:41Z</time></trkpt><trkpt lat="44.41123487682159" lon="8.700494704406905"><ele>10.0</ele><time>2026-04-06T10:29:42Z</time></trkpt><trkpt lat="44.41129001586502" lon="8.700647192960755"><ele>10.75</ele><time>2026-04-06T10:29:43Z</time></trkpt><trkpt lat="44.41135102808229" lon="8.700792313560633"><ele>11.5</ele><time>2026-04-06T10:29:44Z</time></trkpt><trkpt lat="44.41142220862268" lon="8.700928546977806"><ele>12.25</ele><time>2026-04-06T10:29:45Z</time></trkpt><trkpt lat="44.41149717935969" lon="8.701062979989405"><ele>13.0</ele><time>2026-04-06T10:29:46Z</time></trkpt><trkpt lat="44.41156457008707" lon="8.701202309987588"><ele>13.0</ele><time>2026-04-06T10:29:47Z</time></trkpt><trkpt lat="44.411639266585546" lon="8.70134125570796"><ele>13.0</ele><time>2026-04-06T10:29:48Z</time></trkpt><trkpt lat="44.41172068491272" lon="8.701465569506622"><ele>13.0</ele><time>2026-04-06T10:29:49Z</time></trkpt><trkpt lat="44.41179088961668" lon="8.70160610123705"><ele>13.0</ele><time>2026-04-06T10:29:50Z</time></trkpt><trkpt lat="44.41186319200761" lon="8.701738322099633"><ele>13.0</ele><time>2026-04-06T10:29:51Z</time></trkpt><trkpt lat="44.411941945216654" lon="8.701872243506607"><ele>13.0</ele><time>2026-04-06T10:29:52Z</time></trkpt><trkpt lat="44.41201663431052" lon="8.70200435440102"><ele>13.0</ele><time>2026-04-06T10:29:53Z</time></trkpt><trkpt lat="44.4120942127013" lon="8.702128659022842"><ele>13.0</ele><time>2026-04-06T10:29:54Z</time></trkpt><trkpt lat="44.41216995094394" lon="8.70226508586732"><ele>14.25</ele><time>2026-04-06T10:29:55Z</time></trkpt><trkpt lat="44.41224101201411" lon="8.702403610661733"><ele>15.5</ele><time>2026-04-06T10:29:56Z</time></trkpt><trkpt lat="44.4123043154289" lon="8.702544504456585"><ele>16.75</ele><time>2026-04-06T10:29:57Z</time></trkpt><trkpt lat="44.41236130737741" lon="8.702697544313267"><ele>18.0</ele><time>2026-04-06T10:29:58Z</time></trkpt><trkpt lat="44.41240902758295" lon="8.702863467166347"><ele>18.0</ele><time>2026-04-06T10:29:59Z</time></trkpt><trkpt lat="44.41243861387497" lon="8.703027597417318"><ele>18.0</ele><time>2026-04-06T10:30:00Z</time></trkpt><trkpt lat="44.41244719521339" lon="8.703204811326723"><ele>18.0</ele><time>2026-04-06T10:30:01Z</time></trkpt><trkpt lat="44.41242544101921" lon="8.703389870035632"><ele>18.0</ele><time>2026-04-06T10:30:02Z</time></trkpt><trkpt lat="44.41240425613628" lon="8.703563008725444"><ele>9.5</ele><time>2026-04-06T10:30:03Z</time></trkpt><trkpt lat="44.41236776985754" lon="8.703743353223288"><ele>1.0</ele><time>2026-04-06T10:30:04Z</time></trkpt><trkpt lat="44.41270779721039" lon="8.703730410384354"><ele>1.0</ele><time>2026-04-06T10:30:05Z</time></trkpt><trkpt lat="44.412816711164865" lon="8.70380741918853"><ele>1.0</ele><time>2026-04-06T10:30:06Z</time></trkpt><trkpt lat="44.41293884534716" lon="8.7038347277554"><ele>1.0</ele><time>2026-04-06T10:30:07Z</time></trkpt><trkpt lat="44.41304249981831" lon="8.703846139433642"><ele>1.0</ele><time>2026-04-06T10:30:08Z</time></trkpt><trkpt lat="44.413148590179084" lon="8.703844430233852"><ele>2.75</ele><time>2026-04-06T10:30:09Z</time></trkpt><trkpt lat="44.41327255386744" lon="8.703833689390303"><ele>4.5</ele><time>2026-04-06T10:30:10Z</time></trkpt><trkpt lat="44.41339803968007" lon="8.703839454141056"><ele>6.25</ele><time>2026-04-06T10:30:11Z</time></trkpt><trkpt lat="44.413513509957966" lon="8.703842615042051"><ele>8.0</ele><time>2026-04-06T10:30:12Z</time></trkpt><trkpt lat="44.413625037900296" lon="8.703848968741065"><ele>8.0</ele><time>2026-04-06T10:30:13Z</time></trkpt><trkpt lat="44.41374198661119" lon="8.703868652517219"><ele>8.0</ele><time>2026-04-06T10:30:14Z</time></trkpt><trkpt lat="44.41385399438998" lon="8.703921333657807"><ele>8.0</ele><time>2026-04-06T10:30:15Z</time></trkpt><trkpt lat="44.413964841779894" lon="8.704001052823187"><ele>8.0</ele><time>2026-04-06T10:30:16Z</time></trkpt><trkpt lat="44.41407129277502" lon="8.704095657295305"><ele>9.0</ele><time>2026-04-06T10:30:17Z</time></trkpt><trkpt lat="44.41416281435879" lon="8.704207246825405"><ele>10.0</ele><time>2026-04-06T10:30:18Z</time></trkpt><trkpt lat="44.414245700662676" lon="8.704339179364617"><ele>11.0</ele><time>2026-04-06T10:30:19Z</time></trkpt><trkpt lat="44.41432875111881" lon="8.704483294699509"><ele>12.0</ele><time>2026-04-06T10:30:20Z</time></trkpt><trkpt lat="44.414416031908516" lon="8.70462038688759"><ele>12.0</ele><time>2026-04-06T10:30:21Z</time></trkpt><trkpt lat="44.41449855215617" lon="8.704758575128848"><ele>12.0</ele><time>2026-04-06T10:30:22Z</time></trkpt><trkpt lat="44.414582423644895" lon="8.704895035510127"><ele>12.0</ele><time>2026-04-06T10:30:23Z</time></trkpt><trkpt lat="44.414646436843405" lon="8.705051172765748"><ele>12.0</ele><time>2026-04-06T10:30:24Z</time></trkpt><trkpt lat="44.41470140835183" lon="8.70522483747035"><ele>20.0</ele><time>2026-04-06T10:30:25Z</time></trkpt><trkpt lat="44.41475418590249" lon="8.7054097734802"><ele>28.0</ele><time>2026-04-06T10:30:26Z</time></trkpt><trkpt lat="44.41478437453195" lon="8.705649695546526"><ele>36.0</ele><time>2026-04-06T10:30:27Z</time></trkpt><trkpt lat="44.41479088041357" lon="8.705849889067917"><ele>36.0</ele><time>2026-04-06T10:30:28Z</time></trkpt><trkpt lat="44.4147959369204" lon="8.706049895746597"><ele>36.0</ele><time>2026-04-06T10:30:29Z</time></trkpt><trkpt lat="44.41477947875468" lon="8.706250664418924"><ele>36.0</ele><time>2026-04-06T10:30:30Z</time></trkpt><trkpt lat="44.41476173354242" lon="8.706443813445047"><ele>36.0</ele><time>2026-04-06T10:30:31Z</time></trkpt><trkpt lat="44.41473722495835" lon="8.706630159052748"><ele>36.5</ele><time>2026-04-06T10:30:32Z</time></trkpt><trkpt lat="44.41471095452852" lon="8.706810892048576"><ele>37.0</ele><time>2026-04-06T10:30:33Z</time></trkpt><trkpt lat="44.414680525154566" lon="8.70702163717201"><ele>37.5</ele><time>2026-04-06T10:30:34Z</time></trkpt><trkpt lat="44.414613905581305" lon="8.707200838986783"><ele>38.0</ele><time>2026-04-06T10:30:35Z</time></trkpt><trkpt lat="44.4145277742096" lon="8.707368372132402"><ele>32.0</ele><time>2026-04-06T10:30:36Z</time></trkpt><trkpt lat="44.41444023474822" lon="8.707512099059636"><ele>26.0</ele><time>2026-04-06T10:30:37Z</time></trkpt><trkpt lat="44.414365239073064" lon="8.707646586526774"><ele>20.0</ele><time>2026-04-06T10:30:38Z</time></trkpt><trkpt lat="44.41429698183089" lon="8.707783916022507"><ele>14.0</ele><time>2026-04-06T10:30:39Z</time></trkpt><trkpt lat="44.41422890807442" lon="8.70792341331984"><ele>14.0</ele><time>2026-04-06T10:30:40Z</time></trkpt><trkpt lat="44.41418253737767" lon="8.708066961164288"><ele>14.0</ele><time>2026-04-06T10:30:41Z</time></trkpt><trkpt lat="44.41414823268" lon="8.708225525495168"><ele>14.0</ele><time>2026-04-06T10:30:42Z</time></trkpt><trkpt lat="44.41414326479128" lon="8.708399913827144"><ele>14.0</ele><time>2026-04-06T10:30:43Z</time></trkpt><trkpt lat="44.41414397014185" lon="8.70856357074119"><ele>13.25</ele><time>2026-04-06T10:30:44Z</time></trkpt><trkpt lat="44.41416625999289" lon="8.708715474103087"><ele>12.5</ele><time>2026-04-06T10:30:45Z</time></trkpt><trkpt lat="44.41420390389464" lon="8.708869872191046"><ele>11.75</ele><time>2026-04-06T10:30:46Z</time></trkpt><trkpt lat="44.41424856436836" lon="8.70902452071538"><ele>11.0</ele><time>2026-04-06T10:30:47Z</time></trkpt><trkpt lat="44.41430522400663" lon="8.70917038038531"><ele>11.0</ele><time>2026-04-06T10:30:48Z</time></trkpt><trkpt lat="44.414380558333804" lon="8.709289728782865"><ele>11.0</ele><time>2026-04-06T10:30:49Z</time></trkpt><trkpt lat="44.41446236033286" lon="8.709399501059611"><ele>11.0</ele><time>2026-04-06T10:30:50Z</time></trkpt><trkpt lat="44.41455649753636" lon="8.709504831631182"><ele>11.0</ele><time>2026-04-06T10:30:51Z</time></trkpt><trkpt lat="44.41465130567555" lon="8.709614083541089"><ele>12.25</ele><time>2026-04-06T10:30:52Z</time></trkpt><trkpt lat="44.41475014840842" lon="8.70973095205126"><ele>13.5</ele><time>2026-04-06T10:30:53Z</time></trkpt><trkpt lat="44.41484156369801" lon="8.709865813064734"><ele>14.75</ele><time>2026-04-06T10:30:54Z</time></trkpt><trkpt lat="44.41491807053729" lon="8.710019444566425"><ele>16.0</ele><time>2026-04-06T10:30:55Z</time></trkpt><trkpt lat="44.414973776320686" lon="8.710180941559441"><ele>15.0</ele><time>2026-04-06T10:30:56Z</time></trkpt><trkpt lat="44.41501495912835" lon="8.710337092411498"><ele>14.0</ele><time>2026-04-06T10:30:57Z</time></trkpt><trkpt lat="44.415044068310706" lon="8.710495272418042"><ele>13.0</ele><time>2026-04-06T10:30:58Z</time></trkpt><trkpt lat="44.415063086610225" lon="8.710651995366788"><ele>12.0</ele><time>2026-04-06T10:30:59Z</time></trkpt><trkpt lat="44.41507781867651" lon="8.710816615524756"><ele>12.0</ele><time>2026-04-06T10:31:00Z</time></trkpt><trkpt lat="44.415092237140534" lon="8.710980218200993"><ele>12.0</ele><time>2026-04-06T10:31:01Z</time></trkpt><trkpt lat="44.41511673174309" lon="8.711156612157863"><ele>12.0</ele><time>2026-04-06T10:31:02Z</time></trkpt><trkpt lat="44.415149001900275" lon="8.711322087521038"><ele>12.0</ele><time>2026-04-06T10:31:03Z</time></trkpt><trkpt lat="44.41519149240232" lon="8.711477811406793"><ele>10.0</ele><time>2026-04-06T10:31:04Z</time></trkpt><trkpt lat="44.4152412488216" lon="8.711631645284202"><ele>8.0</ele><time>2026-04-06T10:31:05Z</time></trkpt><trkpt lat="44.415322052151105" lon="8.711791684471354"><ele>6.0</ele><time>2026-04-06T10:31:06Z</time></trkpt><trkpt lat="44.41541064643883" lon="8.7119982407034"><ele>4.0</ele><time>2026-04-06T10:31:07Z</time></trkpt><trkpt lat="44.41549451096032" lon="8.712211138909296"><ele>4.25</ele><time>2026-04-06T10:31:08Z</time></trkpt><trkpt lat="44.415569276376104" lon="8.71238232642777"><ele>4.5</ele><time>2026-04-06T10:31:09Z</time></trkpt><trkpt lat="44.41562872940706" lon="8.71254134039293"><ele>4.75</ele><time>2026-04-06T10:31:10Z</time></trkpt><trkpt lat="44.41570107128492" lon="8.712672896163387"><ele>5.0</ele><time>2026-04-06T10:31:11Z</time></trkpt><trkpt lat="44.41573256945238" lon="8.712810307988105"><ele>5.0</ele><time>2026-04-06T10:31:12Z</time></trkpt><trkpt lat="44.415760072109904" lon="8.712948645151059"><ele>5.0</ele><time>2026-04-06T10:31:13Z</time></trkpt><trkpt lat="44.415798243670515" lon="8.713085662286748"><ele>5.0</ele><time>2026-04-06T10:31:14Z</time></trkpt><trkpt lat="44.41583883560444" lon="8.713225727291649"><ele>5.0</ele><time>2026-04-06T10:31:15Z</time></trkpt><trkpt lat="44.41585675575575" lon="8.713370127795152"><ele>5.0</ele><time>2026-04-06T10:31:16Z</time></trkpt><trkpt lat="44.41589112256303" lon="8.713494017279153"><ele>4.8</ele><time>2026-04-06T10:31:17Z</time></trkpt><trkpt lat="44.41592477607051" lon="8.713621200788639"><ele>4.6</ele><time>2026-04-06T10:31:18Z</time></trkpt><trkpt lat="44.415957216771474" lon="8.713754964809363"><ele>4.4</ele><time>2026-04-06T10:31:19Z</time></trkpt><trkpt lat="44.41598879180314" lon="8.713890068262637"><ele>4.2</ele><time>2026-04-06T10:31:20Z</time></trkpt><trkpt lat="44.41601854512201" lon="8.714023615158299"><ele>4.0</ele><time>2026-04-06T10:31:21Z</time></trkpt><trkpt lat="44.416047671584614" lon="8.714161005681992"><ele>3.9999999999999996</ele><time>2026-04-06T10:31:22Z</time></trkpt><trkpt lat="44.41607444394885" lon="8.71430025945307"><ele>4.0</ele><time>2026-04-06T10:31:23Z</time></trkpt><trkpt lat="44.416098216045214" lon="8.71442826084278"><ele>4.0</ele><time>2026-04-06T10:31:24Z</time></trkpt><trkpt lat="44.41611800593336" lon="8.71454264656698"><ele>4.0</ele><time>2026-04-06T10:31:25Z</time></trkpt><trkpt lat="44.41613539230335" lon="8.714651456320242"><ele>3.9999999999999996</ele><time>2026-04-06T10:31:26Z</time></trkpt><trkpt lat="44.41615163270163" lon="8.714768103603294"><ele>4.0</ele><time>2026-04-06T10:31:27Z</time></trkpt><trkpt lat="44.41616996995832" lon="8.714903017655717"><ele>3.8000000000000003</ele><time>2026-04-06T10:31:28Z</time></trkpt><trkpt lat="44.416187759913925" lon="8.715042073666597"><ele>3.6000000000000005</ele><time>2026-04-06T10:31:29Z</time></trkpt><trkpt lat="44.41620247318765" lon="8.715173980452102"><ele>3.4</ele><time>2026-04-06T10:31:30Z</time></trkpt><trkpt lat="44.41621588887511" lon="8.715309675381718"><ele>3.2</ele><time>2026-04-06T10:31:31Z</time></trkpt><trkpt lat="44.41623805739977" lon="8.715446409462142"><ele>3.0</ele><time>2026-04-06T10:31:32Z</time></trkpt><trkpt lat="44.41624927335764" lon="8.715596443827126"><ele>3.0</ele><time>2026-04-06T10:31:33Z</time></trkpt><trkpt lat="44.41625758029384" lon="8.715756357785729"><ele>3.0</ele><time>2026-04-06T10:31:34Z</time></trkpt><trkpt lat="44.41626855276178" lon="8.71592031386657"><ele>3.0</ele><time>2026-04-06T10:31:35Z</time></trkpt><trkpt lat="44.41627611718414" lon="8.716087990187035"><ele>3.0</ele><time>2026-04-06T10:31:36Z</time></trkpt><trkpt lat="44.41628076894818" lon="8.716255249189857"><ele>3.25</ele><time>2026-04-06T10:31:37Z</time></trkpt><trkpt lat="44.41628701053688" lon="8.716426676646696"><ele>3.5</ele><time>2026-04-06T10:31:38Z</time></trkpt><trkpt lat="44.41629615800715" lon="8.716594993756251"><ele>3.75</ele><time>2026-04-06T10:31:39Z</time></trkpt><trkpt lat="44.41630162712399" lon="8.71676168350929"><ele>4.0</ele><time>2026-04-06T10:31:40Z</time></trkpt><trkpt lat="44.41631099333748" lon="8.716925936369908"><ele>14.5</ele><time>2026-04-06T10:31:41Z</time></trkpt><trkpt lat="44.416321785908615" lon="8.717091905044164"><ele>25.0</ele><time>2026-04-06T10:31:42Z</time></trkpt><trkpt lat="44.41632665871765" lon="8.717262084871948"><ele>35.5</ele><time>2026-04-06T10:31:43Z</time></trkpt><trkpt lat="44.416338195087405" lon="8.717440142414734"><ele>46.0</ele><time>2026-04-06T10:31:44Z</time></trkpt><trkpt lat="44.41634729779579" lon="8.717623154004356"><ele>45.25</ele><time>2026-04-06T10:31:45Z</time></trkpt><trkpt lat="44.41635004405294" lon="8.717795606494347"><ele>44.5</ele><time>2026-04-06T10:31:46Z</time></trkpt><trkpt lat="44.41635102144076" lon="8.717973919655213"><ele>43.75</ele><time>2026-04-06T10:31:47Z</time></trkpt><trkpt lat="44.41635350714849" lon="8.718152338539666"><ele>43.0</ele><time>2026-04-06T10:31:48.018Z</time></trkpt><trkpt lat="44.41635571911103" lon="8.718325582425761"><ele>43.0</ele><time>2026-04-06T10:31:49.022Z</time></trkpt><trkpt lat="44.416360534913686" lon="8.71850394007363"><ele>43.0</ele><time>2026-04-06T10:31:50.022Z</time></trkpt><trkpt lat="44.41636679760218" lon="8.718711243769178"><ele>43.0</ele><time>2026-04-06T10:31:51.023Z</time></trkpt><trkpt lat="44.41636897917671" lon="8.718883830619356"><ele>43.0</ele><time>2026-04-06T10:31:52.019Z</time></trkpt><trkpt lat="44.41640164837497" lon="8.719076427382921"><ele>39.66666666666667</ele><time>2026-04-06T10:31:53Z</time></trkpt><trkpt lat="44.41643769810883" lon="8.719350902976583"><ele>36.333333333333336</ele><time>2026-04-06T10:31:54Z</time></trkpt><trkpt lat="44.416456725864386" lon="8.719560737499576"><ele>33.0</ele><time>2026-04-06T10:31:55Z</time></trkpt><trkpt lat="44.416457617617375" lon="8.719764571116901"><ele>31.75</ele><time>2026-04-06T10:31:56Z</time></trkpt><trkpt lat="44.416461606709504" lon="8.719969428257125"><ele>30.5</ele><time>2026-04-06T10:31:57Z</time></trkpt><trkpt lat="44.416456790147016" lon="8.720174945703592"><ele>29.25</ele><time>2026-04-06T10:31:58Z</time></trkpt><trkpt lat="44.41646350821745" lon="8.720379907380043"><ele>28.0</ele><time>2026-04-06T10:31:59Z</time></trkpt><trkpt lat="44.41647602948541" lon="8.720564538116214"><ele>27.75</ele><time>2026-04-06T10:32:00Z</time></trkpt><trkpt lat="44.4164942274113" lon="8.720741922030735"><ele>27.5</ele><time>2026-04-06T10:32:01Z</time></trkpt><trkpt lat="44.41650267700025" lon="8.720919694844735"><ele>27.25</ele><time>2026-04-06T10:32:02Z</time></trkpt><trkpt lat="44.41653256439539" lon="8.721112768582381"><ele>27.0</ele><time>2026-04-06T10:32:03Z</time></trkpt><trkpt lat="44.41655939713456" lon="8.721297241029266"><ele>24.25</ele><time>2026-04-06T10:32:04Z</time></trkpt><trkpt lat="44.4165863739687" lon="8.721473405831206"><ele>21.5</ele><time>2026-04-06T10:32:05Z</time></trkpt><trkpt lat="44.416616477026274" lon="8.721636569174219"><ele>18.75</ele><time>2026-04-06T10:32:06Z</time></trkpt><trkpt lat="44.41665081706545" lon="8.721786998909037"><ele>16.0</ele><time>2026-04-06T10:32:07Z</time></trkpt><trkpt lat="44.41667727936222" lon="8.721928745639158"><ele>15.8</ele><time>2026-04-06T10:32:08Z</time></trkpt><trkpt lat="44.41671026950252" lon="8.722051909185165"><ele>15.600000000000001</ele><time>2026-04-06T10:32:09Z</time></trkpt><trkpt lat="44.41673342300599" lon="8.722171266733218"><ele>15.4</ele><time>2026-04-06T10:32:10Z</time></trkpt><trkpt lat="44.41675674814713" lon="8.722282697102777"><ele>15.2</ele><time>2026-04-06T10:32:11Z</time></trkpt><trkpt lat="44.41677746705123" lon="8.72240718236794"><ele>15.0</ele><time>2026-04-06T10:32:12Z</time></trkpt><trkpt lat="44.41679955670212" lon="8.72255045572013"><ele>15.0</ele><time>2026-04-06T10:32:13Z</time></trkpt><trkpt lat="44.41682651496783" lon="8.722703245536064"><ele>15.0</ele><time>2026-04-06T10:32:14Z</time></trkpt><trkpt lat="44.41685501918933" lon="8.722864379499763"><ele>15.0</ele><time>2026-04-06T10:32:15Z</time></trkpt><trkpt lat="44.41687944350419" lon="8.72300830864218"><ele>15.0</ele><time>2026-04-06T10:32:16Z</time></trkpt><trkpt lat="44.41689630481501" lon="8.723140948160738"><ele>15.0</ele><time>2026-04-06T10:32:17Z</time></trkpt><trkpt lat="44.41690721259455" lon="8.72326225868682"><ele>14.0</ele><time>2026-04-06T10:32:18Z</time></trkpt><trkpt lat="44.41693328241467" lon="8.723387243927133"><ele>13.0</ele><time>2026-04-06T10:32:19Z</time></trkpt><trkpt lat="44.416959115920804" lon="8.723526432915435"><ele>12.0</ele><time>2026-04-06T10:32:20Z</time></trkpt><trkpt lat="44.4169869325282" lon="8.723674859903154"><ele>11.0</ele><time>2026-04-06T10:32:21Z</time></trkpt><trkpt lat="44.41701830149075" lon="8.723841974233668"><ele>10.0</ele><time>2026-04-06T10:32:22Z</time></trkpt><trkpt lat="44.41705002157399" lon="8.724012342333802"><ele>9.0</ele><time>2026-04-06T10:32:23Z</time></trkpt><trkpt lat="44.4170861287012" lon="8.724190532029795"><ele>8.0</ele><time>2026-04-06T10:32:24Z</time></trkpt><trkpt lat="44.41712504060772" lon="8.724370336856543"><ele>7.0</ele><time>2026-04-06T10:32:25Z</time></trkpt><trkpt lat="44.41717030434088" lon="8.724546474703905"><ele>6.0</ele><time>2026-04-06T10:32:26Z</time></trkpt><trkpt lat="44.41721670254861" lon="8.724711649148887"><ele>9.0</ele><time>2026-04-06T10:32:27Z</time></trkpt><trkpt lat="44.417264699077116" lon="8.724873507349626"><ele>12.0</ele><time>2026-04-06T10:32:28Z</time></trkpt><trkpt lat="44.417314537170235" lon="8.725032728138215"><ele>15.0</ele><time>2026-04-06T10:32:29.02Z</time></trkpt><trkpt lat="44.4173636781581" lon="8.725191239455917"><ele>18.0</ele><time>2026-04-06T10:32:30.021Z</time></trkpt><trkpt lat="44.41741838104151" lon="8.725347951800092"><ele>18.0</ele><time>2026-04-06T10:32:31.024Z</time></trkpt><trkpt lat="44.417480036895235" lon="8.725515742542973"><ele>18.0</ele><time>2026-04-06T10:32:32.024Z</time></trkpt><trkpt lat="44.41755148099654" lon="8.725698985062712"><ele>18.0</ele><time>2026-04-06T10:32:33.025Z</time></trkpt><trkpt lat="44.417630356766026" lon="8.725866186531265"><ele>18.0</ele><time>2026-04-06T10:32:34.024Z</time></trkpt><trkpt lat="44.417701889583036" lon="8.726015615866661"><ele>25.0</ele><time>2026-04-06T10:32:35.024Z</time></trkpt><trkpt lat="44.41815985429187" lon="8.726696850690361"><ele>25.0</ele><time>2026-04-06T10:32:38Z</time></trkpt><trkpt lat="44.418272155516135" lon="8.726860977096123"><ele>25.0</ele><time>2026-04-06T10:32:39Z</time></trkpt><trkpt lat="44.41845162723417" lon="8.726938104608958"><ele>25.0</ele><time>2026-04-06T10:32:41Z</time></trkpt><trkpt lat="44.41857538856173" lon="8.727067687957309"><ele>26.666666666666668</ele><time>2026-04-06T10:32:42Z</time></trkpt><trkpt lat="44.418694286193485" lon="8.72721390601401"><ele>28.333333333333336</ele><time>2026-04-06T10:32:43Z</time></trkpt><trkpt lat="44.418814888504194" lon="8.72734004703139"><ele>30.0</ele><time>2026-04-06T10:32:44Z</time></trkpt><trkpt lat="44.418945678698" lon="8.72747095413076"><ele>30.0</ele><time>2026-04-06T10:32:45Z</time></trkpt><trkpt lat="44.41907572176871" lon="8.727599174521838"><ele>30.0</ele><time>2026-04-06T10:32:46Z</time></trkpt><trkpt lat="44.41921025149218" lon="8.727735144016167"><ele>30.0</ele><time>2026-04-06T10:32:47Z</time></trkpt><trkpt lat="44.41935374352306" lon="8.727869459618086"><ele>29.0</ele><time>2026-04-06T10:32:48Z</time></trkpt><trkpt lat="44.419489301278205" lon="8.727996409291187"><ele>28.0</ele><time>2026-04-06T10:32:49Z</time></trkpt><trkpt lat="44.41962126515882" lon="8.728117978270417"><ele>27.0</ele><time>2026-04-06T10:32:50Z</time></trkpt><trkpt lat="44.419747400790904" lon="8.728241338163414"><ele>27.0</ele><time>2026-04-06T10:32:51Z</time></trkpt><trkpt lat="44.419868701281075" lon="8.72836498745334"><ele>27.0</ele><time>2026-04-06T10:32:52Z</time></trkpt><trkpt lat="44.41998521676506" lon="8.728509900474336"><ele>27.0</ele><time>2026-04-06T10:32:53Z</time></trkpt><trkpt lat="44.420116394992284" lon="8.72861982068188"><ele>20.333333333333332</ele><time>2026-04-06T10:32:54Z</time></trkpt><trkpt lat="44.42023545681376" lon="8.728765125405374"><ele>13.666666666666668</ele><time>2026-04-06T10:32:55Z</time></trkpt><trkpt lat="44.420354539192594" lon="8.728914297593501"><ele>7.0</ele><time>2026-04-06T10:32:56Z</time></trkpt><trkpt lat="44.4204637121976" lon="8.72906009412767"><ele>7.75</ele><time>2026-04-06T10:32:57Z</time></trkpt><trkpt lat="44.420554226406246" lon="8.729213569305385"><ele>8.5</ele><time>2026-04-06T10:32:58Z</time></trkpt><trkpt lat="44.420644285726986" lon="8.729350197105225"><ele>9.25</ele><time>2026-04-06T10:32:59Z</time></trkpt><trkpt lat="44.42073308909424" lon="8.729483001626262"><ele>10.0</ele><time>2026-04-06T10:33:00Z</time></trkpt><trkpt lat="44.42083386510647" lon="8.729601088231822"><ele>10.0</ele><time>2026-04-06T10:33:01Z</time></trkpt><trkpt lat="44.42091687236806" lon="8.72974922904255"><ele>10.0</ele><time>2026-04-06T10:33:02Z</time></trkpt><trkpt lat="44.421014527609884" lon="8.729884064574561"><ele>10.0</ele><time>2026-04-06T10:33:03Z</time></trkpt><trkpt lat="44.42111665703085" lon="8.730021115765709"><ele>10.0</ele><time>2026-04-06T10:33:04Z</time></trkpt><trkpt lat="44.42121585562459" lon="8.730152569462113"><ele>7.5</ele><time>2026-04-06T10:33:05Z</time></trkpt><trkpt lat="44.42130418500098" lon="8.730283642817238"><ele>5.0</ele><time>2026-04-06T10:33:06Z</time></trkpt><trkpt lat="44.421391232462064" lon="8.730418940770608"><ele>2.5</ele><time>2026-04-06T10:33:07Z</time></trkpt><trkpt lat="44.42146881594148" lon="8.730565841217322"><ele>0.0</ele><time>2026-04-06T10:33:08Z</time></trkpt><trkpt lat="44.42152318488021" lon="8.730744860367526"><ele>4.0</ele><time>2026-04-06T10:33:09Z</time></trkpt><trkpt lat="44.42153396777416" lon="8.73094488274257"><ele>8.0</ele><time>2026-04-06T10:33:10Z</time></trkpt><trkpt lat="44.42151919860393" lon="8.731132869819513"><ele>12.0</ele><time>2026-04-06T10:33:11Z</time></trkpt><trkpt lat="44.42151189862534" lon="8.731306647817092"><ele>16.0</ele><time>2026-04-06T10:33:12Z</time></trkpt><trkpt lat="44.4215369483689" lon="8.731471607206267"><ele>16.0</ele><time>2026-04-06T10:33:13Z</time></trkpt><trkpt lat="44.421595997581" lon="8.731602392031533"><ele>16.0</ele><time>2026-04-06T10:33:14Z</time></trkpt><trkpt lat="44.42169015944783" lon="8.73173036254547"><ele>16.0</ele><time>2026-04-06T10:33:15Z</time></trkpt><trkpt lat="44.4217700792477" lon="8.731869130689365"><ele>16.0</ele><time>2026-04-06T10:33:16Z</time></trkpt><trkpt lat="44.421830215172164" lon="8.732017179810992"><ele>14.75</ele><time>2026-04-06T10:33:17Z</time></trkpt><trkpt lat="44.42186855408898" lon="8.732178509262008"><ele>13.5</ele><time>2026-04-06T10:33:18Z</time></trkpt><trkpt lat="44.42188388969562" lon="8.73234871043369"><ele>12.25</ele><time>2026-04-06T10:33:19Z</time></trkpt><trkpt lat="44.421874471889495" lon="8.732521485523662"><ele>11.0</ele><time>2026-04-06T10:33:20Z</time></trkpt><trkpt lat="44.421852640962456" lon="8.732689798256757"><ele>10.25</ele><time>2026-04-06T10:33:21Z</time></trkpt><trkpt lat="44.421843277111364" lon="8.732855276951408"><ele>9.5</ele><time>2026-04-06T10:33:22Z</time></trkpt><trkpt lat="44.42186302998418" lon="8.733016862857538"><ele>8.75</ele><time>2026-04-06T10:33:23Z</time></trkpt><trkpt lat="44.421906004966125" lon="8.733157758106392"><ele>8.0</ele><time>2026-04-06T10:33:24Z</time></trkpt><trkpt lat="44.42196707250391" lon="8.733281592353855"><ele>8.0</ele><time>2026-04-06T10:33:25Z</time></trkpt><trkpt lat="44.422037910179775" lon="8.733395547867797"><ele>8.0</ele><time>2026-04-06T10:33:26Z</time></trkpt><trkpt lat="44.42211028910048" lon="8.73350475706408"><ele>8.0</ele><time>2026-04-06T10:33:27Z</time></trkpt><trkpt lat="44.422172290599306" lon="8.733621279676202"><ele>8.0</ele><time>2026-04-06T10:33:28Z</time></trkpt><trkpt lat="44.42223584336011" lon="8.733746774364896"><ele>8.0</ele><time>2026-04-06T10:33:29Z</time></trkpt><trkpt lat="44.4222941869294" lon="8.733887310799183"><ele>12.25</ele><time>2026-04-06T10:33:30Z</time></trkpt><trkpt lat="44.42233531215204" lon="8.734045500255705"><ele>16.5</ele><time>2026-04-06T10:33:31Z</time></trkpt><trkpt lat="44.42234124288936" lon="8.734215266554205"><ele>20.75</ele><time>2026-04-06T10:33:32Z</time></trkpt><trkpt lat="44.42232005500694" lon="8.734377115162614"><ele>25.0</ele><time>2026-04-06T10:33:33Z</time></trkpt><trkpt lat="44.42228188810005" lon="8.734513113205855"><ele>25.0</ele><time>2026-04-06T10:33:34Z</time></trkpt><trkpt lat="44.422243134102516" lon="8.734643327700704"><ele>25.0</ele><time>2026-04-06T10:33:35Z</time></trkpt><trkpt lat="44.422215582234365" lon="8.734783729744112"><ele>25.0</ele><time>2026-04-06T10:33:36Z</time></trkpt><trkpt lat="44.42221884932992" lon="8.734925713022763"><ele>25.0</ele><time>2026-04-06T10:33:37Z</time></trkpt><trkpt lat="44.42225067539227" lon="8.73506791205693"><ele>25.0</ele><time>2026-04-06T10:33:38Z</time></trkpt><trkpt lat="44.42231243060913" lon="8.735194919300222"><ele>22.6</ele><time>2026-04-06T10:33:39Z</time></trkpt><trkpt lat="44.422392800923795" lon="8.735311410828217"><ele>20.2</ele><time>2026-04-06T10:33:40Z</time></trkpt><trkpt lat="44.422475116557024" lon="8.735425189832744"><ele>17.8</ele><time>2026-04-06T10:33:41Z</time></trkpt><trkpt lat="44.422545725931165" lon="8.735523583172684"><ele>15.4</ele><time>2026-04-06T10:33:42Z</time></trkpt><trkpt lat="44.42261444570901" lon="8.735628172047921"><ele>13.0</ele><time>2026-04-06T10:33:43Z</time></trkpt><trkpt lat="44.42268972197433" lon="8.735745161789959"><ele>13.0</ele><time>2026-04-06T10:33:44Z</time></trkpt><trkpt lat="44.42276664192848" lon="8.73587072972489"><ele>13.0</ele><time>2026-04-06T10:33:45Z</time></trkpt><trkpt lat="44.42283456564732" lon="8.735997262082977"><ele>13.0</ele><time>2026-04-06T10:33:46Z</time></trkpt><trkpt lat="44.422883021471925" lon="8.736135404306587"><ele>13.0</ele><time>2026-04-06T10:33:47Z</time></trkpt><trkpt lat="44.422907055672574" lon="8.736284801893042"><ele>10.75</ele><time>2026-04-06T10:33:48Z</time></trkpt><trkpt lat="44.42292090007398" lon="8.736432644882445"><ele>8.5</ele><time>2026-04-06T10:33:49Z</time></trkpt><trkpt lat="44.4229602904854" lon="8.736585785811261"><ele>6.25</ele><time>2026-04-06T10:33:50Z</time></trkpt><trkpt lat="44.423035525478774" lon="8.73672067039408"><ele>4.0</ele><time>2026-04-06T10:33:51Z</time></trkpt><trkpt lat="44.42313651881278" lon="8.736836212856725"><ele>6.25</ele><time>2026-04-06T10:33:52Z</time></trkpt><trkpt lat="44.4232309158841" lon="8.736951350774365"><ele>8.5</ele><time>2026-04-06T10:33:53Z</time></trkpt><trkpt lat="44.42331348892576" lon="8.737051773841127"><ele>10.75</ele><time>2026-04-06T10:33:54Z</time></trkpt><trkpt lat="44.42340153487942" lon="8.737151587957534"><ele>13.0</ele><time>2026-04-06T10:33:55Z</time></trkpt><trkpt lat="44.42348244621856" lon="8.737252280244086"><ele>13.0</ele><time>2026-04-06T10:33:56Z</time></trkpt><trkpt lat="44.423567518567374" lon="8.737368278429743"><ele>13.0</ele><time>2026-04-06T10:33:57Z</time></trkpt><trkpt lat="44.42364905727823" lon="8.73747532290765"><ele>13.0</ele><time>2026-04-06T10:33:58Z</time></trkpt><trkpt lat="44.42372686859099" lon="8.737573041502378"><ele>13.0</ele><time>2026-04-06T10:33:59Z</time></trkpt><trkpt lat="44.423793488002126" lon="8.737654815682044"><ele>13.0</ele><time>2026-04-06T10:34:00Z</time></trkpt><trkpt lat="44.42386814693948" lon="8.737735169110028"><ele>14.4</ele><time>2026-04-06T10:34:01Z</time></trkpt><trkpt lat="44.423941160322975" lon="8.737790792043677"><ele>15.8</ele><time>2026-04-06T10:34:02Z</time></trkpt><trkpt lat="44.42404035877097" lon="8.737791493561119"><ele>17.2</ele><time>2026-04-06T10:34:03Z</time></trkpt><trkpt lat="44.42412824133693" lon="8.737747146121162"><ele>18.6</ele><time>2026-04-06T10:34:04Z</time></trkpt><trkpt lat="44.424225403288624" lon="8.737703430455012"><ele>20.0</ele><time>2026-04-06T10:34:05Z</time></trkpt><trkpt lat="44.4243227797423" lon="8.73768143613277"><ele>20.0</ele><time>2026-04-06T10:34:06Z</time></trkpt><trkpt lat="44.42441179352817" lon="8.737694189472416"><ele>20.0</ele><time>2026-04-06T10:34:07Z</time></trkpt><trkpt lat="44.42449956769005" lon="8.737725329276575"><ele>20.0</ele><time>2026-04-06T10:34:08Z</time></trkpt><trkpt lat="44.42458069860072" lon="8.737793075669899"><ele>20.0</ele><time>2026-04-06T10:34:09Z</time></trkpt><trkpt lat="44.42464458912233" lon="8.737898765495231"><ele>20.0</ele><time>2026-04-06T10:34:10Z</time></trkpt><trkpt lat="44.42469215651199" lon="8.738036768599967"><ele>21.5</ele><time>2026-04-06T10:34:11Z</time></trkpt><trkpt lat="44.424722713250205" lon="8.73819091280452"><ele>23.0</ele><time>2026-04-06T10:34:12Z</time></trkpt><trkpt lat="44.42477406794579" lon="8.7383194794998"><ele>24.5</ele><time>2026-04-06T10:34:13Z</time></trkpt><trkpt lat="44.424854752327406" lon="8.73844061452714"><ele>26.0</ele><time>2026-04-06T10:34:14Z</time></trkpt><trkpt lat="44.42494360682196" lon="8.738549181486974"><ele>23.0</ele><time>2026-04-06T10:34:15Z</time></trkpt><trkpt lat="44.42502946854367" lon="8.738668193150835"><ele>20.0</ele><time>2026-04-06T10:34:16Z</time></trkpt><trkpt lat="44.42510797606388" lon="8.738776831338718"><ele>17.0</ele><time>2026-04-06T10:34:17Z</time></trkpt><trkpt lat="44.42519643242648" lon="8.738869178524928"><ele>14.0</ele><time>2026-04-06T10:34:18Z</time></trkpt><trkpt lat="44.42528461153064" lon="8.738953086375627"><ele>11.0</ele><time>2026-04-06T10:34:19Z</time></trkpt><trkpt lat="44.42537080476059" lon="8.73905259920278"><ele>11.0</ele><time>2026-04-06T10:34:20Z</time></trkpt><trkpt lat="44.4254530670473" lon="8.739159665490483"><ele>11.0</ele><time>2026-04-06T10:34:21Z</time></trkpt><trkpt lat="44.425533159745015" lon="8.739279050883999"><ele>11.0</ele><time>2026-04-06T10:34:22Z</time></trkpt><trkpt lat="44.42561415723963" lon="8.739408601975995"><ele>11.0</ele><time>2026-04-06T10:34:23Z</time></trkpt><trkpt lat="44.42569033203718" lon="8.739551447861528"><ele>11.25</ele><time>2026-04-06T10:34:24Z</time></trkpt><trkpt lat="44.4257641742439" lon="8.739698771283061"><ele>11.5</ele><time>2026-04-06T10:34:25Z</time></trkpt><trkpt lat="44.42583753868994" lon="8.739821143975355"><ele>11.75</ele><time>2026-04-06T10:34:26Z</time></trkpt><trkpt lat="44.42591894888889" lon="8.739928136450178"><ele>12.0</ele><time>2026-04-06T10:34:27Z</time></trkpt><trkpt lat="44.42599810751016" lon="8.740029202129039"><ele>12.0</ele><time>2026-04-06T10:34:28Z</time></trkpt><trkpt lat="44.426082915501404" lon="8.740142733176269"><ele>12.0</ele><time>2026-04-06T10:34:29Z</time></trkpt><trkpt lat="44.426155273723694" lon="8.740240475990925"><ele>12.0</ele><time>2026-04-06T10:34:30Z</time></trkpt><trkpt lat="44.42623301465587" lon="8.740337955014628"><ele>12.0</ele><time>2026-04-06T10:34:31Z</time></trkpt><trkpt lat="44.426293294960594" lon="8.740437714700102"><ele>12.0</ele><time>2026-04-06T10:34:32Z</time></trkpt><trkpt lat="44.42632971984071" lon="8.740562324807515"><ele>13.6</ele><time>2026-04-06T10:34:33Z</time></trkpt><trkpt lat="44.42634195880051" lon="8.740701829203715"><ele>15.2</ele><time>2026-04-06T10:34:34Z</time></trkpt><trkpt lat="44.426358507856435" lon="8.740841091705107"><ele>16.8</ele><time>2026-04-06T10:34:35Z</time></trkpt><trkpt lat="44.42640848976047" lon="8.740962621644574"><ele>18.4</ele><time>2026-04-06T10:34:36Z</time></trkpt><trkpt lat="44.426497387059705" lon="8.74104852904221"><ele>20.0</ele><time>2026-04-06T10:34:37Z</time></trkpt><trkpt lat="44.42658597931845" lon="8.74111554747065"><ele>16.8</ele><time>2026-04-06T10:34:38Z</time></trkpt><trkpt lat="44.426680641873986" lon="8.741180454454458"><ele>13.6</ele><time>2026-04-06T10:34:39Z</time></trkpt><trkpt lat="44.42676349809892" lon="8.741268749754123"><ele>10.4</ele><time>2026-04-06T10:34:40Z</time></trkpt><trkpt lat="44.42683889578184" lon="8.741372389351605"><ele>7.2</ele><time>2026-04-06T10:34:41Z</time></trkpt><trkpt lat="44.426913803993706" lon="8.741477828247778"><ele>4.0</ele><time>2026-04-06T10:34:42Z</time></trkpt><trkpt lat="44.42698556584422" lon="8.741581857264181"><ele>4.0</ele><time>2026-04-06T10:34:43Z</time></trkpt><trkpt lat="44.42705750190835" lon="8.741681822401258"><ele>4.0</ele><time>2026-04-06T10:34:44Z</time></trkpt><trkpt lat="44.4271326316432" lon="8.741780018177684"><ele>4.0</ele><time>2026-04-06T10:34:45Z</time></trkpt><trkpt lat="44.427194903277496" lon="8.74189046284096"><ele>4.0</ele><time>2026-04-06T10:34:46Z</time></trkpt><trkpt lat="44.427240485273884" lon="8.742004913457738"><ele>4.0</ele><time>2026-04-06T10:34:47Z</time></trkpt><trkpt lat="44.42726643486731" lon="8.742128752399113"><ele>4.166666666666666</ele><time>2026-04-06T10:34:48Z</time></trkpt><trkpt lat="44.427273636807875" lon="8.742243624015861"><ele>4.333333333333333</ele><time>2026-04-06T10:34:49Z</time></trkpt><trkpt lat="44.42728147501157" lon="8.742374164875972"><ele>4.5</ele><time>2026-04-06T10:34:50Z</time></trkpt><trkpt lat="44.42729040050666" lon="8.742503046588084"><ele>4.666666666666667</ele><time>2026-04-06T10:34:51Z</time></trkpt><trkpt lat="44.42730347528061" lon="8.742618151971259"><ele>4.833333333333334</ele><time>2026-04-06T10:34:52Z</time></trkpt><trkpt lat="44.4273077311575" lon="8.742739467860654"><ele>5.0</ele><time>2026-04-06T10:34:53Z</time></trkpt><trkpt lat="44.42729629640945" lon="8.74284942696756"><ele>5.166666666666667</ele><time>2026-04-06T10:34:54Z</time></trkpt><trkpt lat="44.42725976185243" lon="8.742938443513806"><ele>5.333333333333334</ele><time>2026-04-06T10:34:55Z</time></trkpt><trkpt lat="44.42721088410145" lon="8.743007376681389"><ele>5.5</ele><time>2026-04-06T10:34:56Z</time></trkpt><trkpt lat="44.42720709621149" lon="8.743137031709654"><ele>5.666666666666667</ele><time>2026-04-06T10:34:58Z</time></trkpt><trkpt lat="44.42727701684762" lon="8.743257930287232"><ele>5.833333333333333</ele><time>2026-04-06T10:35:19Z</time></trkpt><trkpt lat="44.42733275029359" lon="8.743335259815426"><ele>6.0</ele><time>2026-04-06T10:35:20Z</time></trkpt><trkpt lat="44.42739232682204" lon="8.743414494977728"><ele>6.0</ele><time>2026-04-06T10:35:21Z</time></trkpt><trkpt lat="44.42744175948955" lon="8.743519652869253"><ele>6.0</ele><time>2026-04-06T10:35:22Z</time></trkpt><trkpt lat="44.427488352741804" lon="8.743635883583929"><ele>6.0</ele><time>2026-04-06T10:35:23Z</time></trkpt><trkpt lat="44.42753222965559" lon="8.743758166686497"><ele>6.0</ele><time>2026-04-06T10:35:24Z</time></trkpt><trkpt lat="44.4275760026494" lon="8.743882573431993"><ele>6.0</ele><time>2026-04-06T10:35:25Z</time></trkpt><trkpt lat="44.42761890024929" lon="8.744015675909564"><ele>6.25</ele><time>2026-04-06T10:35:26Z</time></trkpt><trkpt lat="44.42766846934228" lon="8.74414045602553"><ele>6.5</ele><time>2026-04-06T10:35:27Z</time></trkpt><trkpt lat="44.42773088240365" lon="8.744284666085903"><ele>6.75</ele><time>2026-04-06T10:35:28Z</time></trkpt><trkpt lat="44.42778783823858" lon="8.744428799490597"><ele>7.0</ele><time>2026-04-06T10:35:29Z</time></trkpt><trkpt lat="44.42783959961366" lon="8.744577464084694"><ele>6.3999999999999995</ele><time>2026-04-06T10:35:30Z</time></trkpt><trkpt lat="44.42789587444727" lon="8.744715331499272"><ele>5.799999999999999</ele><time>2026-04-06T10:35:31Z</time></trkpt><trkpt lat="44.42794183655469" lon="8.744843028887558"><ele>5.2</ele><time>2026-04-06T10:35:32Z</time></trkpt><trkpt lat="44.427986201000266" lon="8.744954960930876"><ele>4.6</ele><time>2026-04-06T10:35:33Z</time></trkpt><trkpt lat="44.428036024903825" lon="8.74507823762069"><ele>4.0</ele><time>2026-04-06T10:35:34Z</time></trkpt><trkpt lat="44.42808388840715" lon="8.745190910216998"><ele>5.2</ele><time>2026-04-06T10:35:35Z</time></trkpt><trkpt lat="44.42813410544816" lon="8.745302429170811"><ele>6.4</ele><time>2026-04-06T10:35:36Z</time></trkpt><trkpt lat="44.428181632491174" lon="8.745412302628017"><ele>7.6</ele><time>2026-04-06T10:35:37Z</time></trkpt><trkpt lat="44.42823286308513" lon="8.745519646486713"><ele>8.8</ele><time>2026-04-06T10:35:38Z</time></trkpt><trkpt lat="44.4282711613937" lon="8.745629741025812"><ele>10.0</ele><time>2026-04-06T10:35:39Z</time></trkpt><trkpt lat="44.42831472776788" lon="8.7457323146707"><ele>10.0</ele><time>2026-04-06T10:35:40Z</time></trkpt><trkpt lat="44.42837889523662" lon="8.745894010298302"><ele>10.0</ele><time>2026-04-06T10:35:42Z</time></trkpt><trkpt lat="44.428436605251065" lon="8.74606108492591"><ele>10.0</ele><time>2026-04-06T10:35:44Z</time></trkpt><trkpt lat="44.428474936536986" lon="8.746147653349219"><ele>10.0</ele><time>2026-04-06T10:35:45Z</time></trkpt><trkpt lat="44.42852855211573" lon="8.746269075526087"><ele>10.0</ele><time>2026-04-06T10:35:47Z</time></trkpt><trkpt lat="44.428557381538454" lon="8.746349853549203"><ele>9.666666666666668</ele><time>2026-04-06T10:35:48Z</time></trkpt><trkpt lat="44.42857490768527" lon="8.746446935992862"><ele>9.333333333333334</ele><time>2026-04-06T10:35:49Z</time></trkpt><trkpt lat="44.42859447813316" lon="8.746552019669897"><ele>9.0</ele><time>2026-04-06T10:35:50Z</time></trkpt><trkpt lat="44.428612410482415" lon="8.746666422068662"><ele>8.666666666666666</ele><time>2026-04-06T10:35:51Z</time></trkpt><trkpt lat="44.42863104805511" lon="8.746781628182111"><ele>8.333333333333332</ele><time>2026-04-06T10:35:52Z</time></trkpt><trkpt lat="44.42863832512718" lon="8.746886336953468"><ele>8.0</ele><time>2026-04-06T10:35:53Z</time></trkpt><trkpt lat="44.42861038378332" lon="8.74698567546196"><ele>7.999999999999999</ele><time>2026-04-06T10:35:54Z</time></trkpt><trkpt lat="44.428611524258926" lon="8.747097559120474"><ele>8.0</ele><time>2026-04-06T10:35:55Z</time></trkpt><trkpt lat="44.42862970181215" lon="8.74721232276386"><ele>8.0</ele><time>2026-04-06T10:35:56Z</time></trkpt><trkpt lat="44.428651583165816" lon="8.747360699342087"><ele>8.0</ele><time>2026-04-06T10:35:57Z</time></trkpt><trkpt lat="44.4286455357918" lon="8.747479214132289"><ele>7.999999999999999</ele><time>2026-04-06T10:35:58Z</time></trkpt><trkpt lat="44.42863825077671" lon="8.747592981350774"><ele>8.0</ele><time>2026-04-06T10:35:59Z</time></trkpt><trkpt lat="44.42862736900859" lon="8.747716812291287"><ele>7.999999999999999</ele><time>2026-04-06T10:36:00Z</time></trkpt><trkpt lat="44.42861820543086" lon="8.7478489871971"><ele>8.0</ele><time>2026-04-06T10:36:01Z</time></trkpt><trkpt lat="44.42862097721208" lon="8.747957386253299"><ele>8.0</ele><time>2026-04-06T10:36:02Z</time></trkpt><trkpt lat="44.42861503771465" lon="8.74805538931724"><ele>8.0</ele><time>2026-04-06T10:36:03Z</time></trkpt><trkpt lat="44.42860622743145" lon="8.74815399941859"><ele>7.999999999999999</ele><time>2026-04-06T10:36:04Z</time></trkpt><trkpt lat="44.42863637323594" lon="8.748331652004781"><ele>8.0</ele><time>2026-04-06T10:36:06Z</time></trkpt><trkpt lat="44.428638657849106" lon="8.748437676937039"><ele>7.75</ele><time>2026-04-06T10:36:07Z</time></trkpt><trkpt lat="44.42862359742103" lon="8.748553147408881"><ele>7.5</ele><time>2026-04-06T10:36:08Z</time></trkpt><trkpt lat="44.42861436151817" lon="8.748708056149875"><ele>7.25</ele><time>2026-04-06T10:36:10Z</time></trkpt><trkpt lat="44.42860409153734" lon="8.748868660930848"><ele>7.0</ele><time>2026-04-06T10:36:12Z</time></trkpt><trkpt lat="44.428583760748104" lon="8.749066597626639"><ele>7.0</ele><time>2026-04-06T10:36:14Z</time></trkpt><trkpt lat="44.42856732232478" lon="8.749178493948286"><ele>7.0</ele><time>2026-04-06T10:36:14.999Z</time></trkpt><trkpt lat="44.42855170043467" lon="8.74928564847816"><ele>7.0</ele><time>2026-04-06T10:36:15.999Z</time></trkpt><trkpt lat="44.428539320614995" lon="8.74937718982025"><ele>7.0</ele><time>2026-04-06T10:36:16.999Z</time></trkpt><trkpt lat="44.42853033274601" lon="8.749470507121146"><ele>7.0</ele><time>2026-04-06T10:36:17.999Z</time></trkpt><trkpt lat="44.428521096045195" lon="8.749563326283338"><ele>7.0</ele><time>2026-04-06T10:36:18.999Z</time></trkpt><trkpt lat="44.42850667112466" lon="8.749653125092761"><ele>7.0</ele><time>2026-04-06T10:36:19.999Z</time></trkpt><trkpt lat="44.42851389744758" lon="8.749747988830677"><ele>7.199999999999999</ele><time>2026-04-06T10:36:20.999Z</time></trkpt><trkpt lat="44.42850327551649" lon="8.749920619891281"><ele>7.3999999999999995</ele><time>2026-04-06T10:36:22.999Z</time></trkpt><trkpt lat="44.42850399601932" lon="8.750022565623583"><ele>7.6000000000000005</ele><time>2026-04-06T10:36:23.999Z</time></trkpt><trkpt lat="44.42849959913191" lon="8.750135043663244"><ele>7.800000000000001</ele><time>2026-04-06T10:36:24.999Z</time></trkpt><trkpt lat="44.42848190077905" lon="8.750256629992796"><ele>8.0</ele><time>2026-04-06T10:36:26Z</time></trkpt><trkpt lat="44.42846987061334" lon="8.750390283488317"><ele>7.999999999999999</ele><time>2026-04-06T10:36:27Z</time></trkpt><trkpt lat="44.42846693912296" lon="8.750501997117839"><ele>8.0</ele><time>2026-04-06T10:36:28Z</time></trkpt><trkpt lat="44.42845407997481" lon="8.750619620599096"><ele>8.0</ele><time>2026-04-06T10:36:29Z</time></trkpt><trkpt lat="44.428459489698206" lon="8.750734877231016"><ele>8.0</ele><time>2026-04-06T10:36:30Z</time></trkpt><trkpt lat="44.42844554679721" lon="8.750831980533786"><ele>7.999999999999999</ele><time>2026-04-06T10:36:31Z</time></trkpt><trkpt lat="44.42843106500526" lon="8.750988205425397"><ele>8.0</ele><time>2026-04-06T10:36:33Z</time></trkpt><trkpt lat="44.4284307873461" lon="8.75112728276371"><ele>7.800000000000001</ele><time>2026-04-06T10:36:35Z</time></trkpt><trkpt lat="44.42841133167307" lon="8.751288777660895"><ele>7.6000000000000005</ele><time>2026-04-06T10:36:37Z</time></trkpt><trkpt lat="44.42839067176618" lon="8.751412478331629"><ele>7.3999999999999995</ele><time>2026-04-06T10:36:39Z</time></trkpt><trkpt lat="44.428377818854536" lon="8.7515768392355"><ele>7.199999999999999</ele><time>2026-04-06T10:36:41Z</time></trkpt><trkpt lat="44.428359797391025" lon="8.751688156979553"><ele>7.0</ele><time>2026-04-06T10:36:42Z</time></trkpt><trkpt lat="44.428348332251474" lon="8.75179001179523"><ele>7.333333333333334</ele><time>2026-04-06T10:36:43Z</time></trkpt><trkpt lat="44.42833832383695" lon="8.751885075076766"><ele>7.666666666666667</ele><time>2026-04-06T10:36:44Z</time></trkpt><trkpt lat="44.428328737524666" lon="8.751981375723487"><ele>8.0</ele><time>2026-04-06T10:36:45Z</time></trkpt><trkpt lat="44.428321943012214" lon="8.752070838414673"><ele>8.333333333333334</ele><time>2026-04-06T10:36:46Z</time></trkpt><trkpt lat="44.428318796358504" lon="8.752209047267588"><ele>8.666666666666666</ele><time>2026-04-06T10:36:48Z</time></trkpt><trkpt lat="44.42831839918143" lon="8.752382562046696"><ele>9.0</ele><time>2026-04-06T10:36:50Z</time></trkpt><trkpt lat="44.42832319643841" lon="8.75248962368395"><ele>9.000000000000002</ele><time>2026-04-06T10:36:51Z</time></trkpt><trkpt lat="44.42833973073441" lon="8.752590311771336"><ele>9.0</ele><time>2026-04-06T10:36:52Z</time></trkpt><trkpt lat="44.428342252403" lon="8.752696762936889"><ele>9.0</ele><time>2026-04-06T10:36:53Z</time></trkpt><trkpt lat="44.428354197240864" lon="8.752809481143663"><ele>9.0</ele><time>2026-04-06T10:36:54Z</time></trkpt><trkpt lat="44.42835843842026" lon="8.752920188033675"><ele>9.0</ele><time>2026-04-06T10:36:55Z</time></trkpt><trkpt lat="44.42836750261318" lon="8.753020800156369"><ele>9.000000000000002</ele><time>2026-04-06T10:36:56Z</time></trkpt><trkpt lat="44.42836323562442" lon="8.753112110373282"><ele>9.0</ele><time>2026-04-06T10:36:57Z</time></trkpt><trkpt lat="44.428376382594344" lon="8.753204745671503"><ele>9.0</ele><time>2026-04-06T10:36:58Z</time></trkpt><trkpt lat="44.42839331056698" lon="8.753299776182853"><ele>9.0</ele><time>2026-04-06T10:36:59Z</time></trkpt><trkpt lat="44.428405803448804" lon="8.75339647240881"><ele>9.0</ele><time>2026-04-06T10:37:00Z</time></trkpt><trkpt lat="44.42841599929539" lon="8.75354566499693"><ele>9.0</ele><time>2026-04-06T10:37:02Z</time></trkpt><trkpt lat="44.42843458284428" lon="8.75370672078831"><ele>9.0</ele><time>2026-04-06T10:37:04Z</time></trkpt><trkpt lat="44.42843995052679" lon="8.753804436532867"><ele>9.0</ele><time>2026-04-06T10:37:05Z</time></trkpt><trkpt lat="44.42843927091698" lon="8.753992011595622"><ele>8.857142857142858</ele><time>2026-04-06T10:37:07Z</time></trkpt><trkpt lat="44.428441061248456" lon="8.754082789802068"><ele>8.714285714285715</ele><time>2026-04-06T10:37:08Z</time></trkpt><trkpt lat="44.42844494154248" lon="8.754170968561175"><ele>8.571428571428571</ele><time>2026-04-06T10:37:09Z</time></trkpt><trkpt lat="44.42844178707299" lon="8.754263208762142"><ele>8.428571428571429</ele><time>2026-04-06T10:37:10Z</time></trkpt><trkpt lat="44.42844368177598" lon="8.754375012021951"><ele>8.285714285714285</ele><time>2026-04-06T10:37:11Z</time></trkpt><trkpt lat="44.42845311642734" lon="8.75448092796267"><ele>8.142857142857142</ele><time>2026-04-06T10:37:12Z</time></trkpt><trkpt lat="44.428456768984425" lon="8.75457558035725"><ele>8.0</ele><time>2026-04-06T10:37:13Z</time></trkpt><trkpt lat="44.42846021212755" lon="8.754679573111098"><ele>7.666666666666666</ele><time>2026-04-06T10:37:14Z</time></trkpt><trkpt lat="44.42846433202501" lon="8.754781548286106"><ele>7.333333333333333</ele><time>2026-04-06T10:37:15Z</time></trkpt><trkpt lat="44.428465308048004" lon="8.754887881065697"><ele>7.0</ele><time>2026-04-06T10:37:16Z</time></trkpt><trkpt lat="44.42846916836485" lon="8.754992554076416"><ele>6.666666666666666</ele><time>2026-04-06T10:37:17Z</time></trkpt><trkpt lat="44.42847001918729" lon="8.755097446783497"><ele>6.333333333333333</ele><time>2026-04-06T10:37:18Z</time></trkpt><trkpt lat="44.42847555716526" lon="8.755205094024218"><ele>6.0</ele><time>2026-04-06T10:37:19Z</time></trkpt><trkpt lat="44.428479295144655" lon="8.755316164445688"><ele>6.0</ele><time>2026-04-06T10:37:20Z</time></trkpt><trkpt lat="44.428487144935254" lon="8.75548197771569"><ele>6.0</ele><time>2026-04-06T10:37:22Z</time></trkpt><trkpt lat="44.428491193040735" lon="8.755663014655072"><ele>6.0</ele><time>2026-04-06T10:37:24Z</time></trkpt><trkpt lat="44.42849662454629" lon="8.75576357213828"><ele>6.0</ele><time>2026-04-06T10:37:25Z</time></trkpt><trkpt lat="44.428502583093845" lon="8.755868813545364"><ele>6.0</ele><time>2026-04-06T10:37:26Z</time></trkpt><trkpt lat="44.42849901898572" lon="8.75598086041411"><ele>6.0</ele><time>2026-04-06T10:37:27Z</time></trkpt><trkpt lat="44.42849896151371" lon="8.756102877849894"><ele>6.0</ele><time>2026-04-06T10:37:28Z</time></trkpt><trkpt lat="44.42849636653245" lon="8.756228003803042"><ele>6.0</ele><time>2026-04-06T10:37:29Z</time></trkpt><trkpt lat="44.42849136978884" lon="8.756342606281605"><ele>6.0</ele><time>2026-04-06T10:37:30Z</time></trkpt><trkpt lat="44.428492894677305" lon="8.756503723226945"><ele>6.0</ele><time>2026-04-06T10:37:32Z</time></trkpt><trkpt lat="44.428485441514695" lon="8.756642152944647"><ele>6.0</ele><time>2026-04-06T10:37:34Z</time></trkpt><trkpt lat="44.42848804005691" lon="8.756781645595833"><ele>6.0</ele><time>2026-04-06T10:37:36Z</time></trkpt><trkpt lat="44.42846768491382" lon="8.756933465476019"><ele>6.0</ele><time>2026-04-06T10:37:38Z</time></trkpt><trkpt lat="44.428441012745594" lon="8.757104000473731"><ele>6.0</ele><time>2026-04-06T10:37:40Z</time></trkpt><trkpt lat="44.428417209531766" lon="8.757197804583548"><ele>6.0</ele><time>2026-04-06T10:37:41Z</time></trkpt><trkpt lat="44.42839113895711" lon="8.757297905293667"><ele>6.142857142857142</ele><time>2026-04-06T10:37:42Z</time></trkpt><trkpt lat="44.428372213699305" lon="8.757382258898652"><ele>6.285714285714286</ele><time>2026-04-06T10:37:43Z</time></trkpt><trkpt lat="44.42836244259597" lon="8.757538695455573"><ele>6.428571428571429</ele><time>2026-04-06T10:37:45Z</time></trkpt><trkpt lat="44.4283727834229" lon="8.757625926125657"><ele>6.571428571428571</ele><time>2026-04-06T10:37:46Z</time></trkpt><trkpt lat="44.42839882643768" lon="8.757713961021826"><ele>6.714285714285714</ele><time>2026-04-06T10:37:47Z</time></trkpt><trkpt lat="44.42843659340919" lon="8.757796714982753"><ele>6.857142857142857</ele><time>2026-04-06T10:37:48Z</time></trkpt><trkpt lat="44.42848839954117" lon="8.757866614004838"><ele>7.0</ele><time>2026-04-06T10:37:49Z</time></trkpt><trkpt lat="44.4285421651899" lon="8.757936339888188"><ele>7.000000000000001</ele><time>2026-04-06T10:37:50Z</time></trkpt><trkpt lat="44.428599569161804" lon="8.758017335427787"><ele>7.0</ele><time>2026-04-06T10:37:51Z</time></trkpt><trkpt lat="44.4286501563635" lon="8.758097973752255"><ele>7.0</ele><time>2026-04-06T10:37:52Z</time></trkpt><trkpt lat="44.42868642210718" lon="8.758173928021998"><ele>7.0</ele><time>2026-04-06T10:37:53Z</time></trkpt><trkpt lat="44.428730733472676" lon="8.758263098798054"><ele>7.000000000000001</ele><time>2026-04-06T10:37:54Z</time></trkpt><trkpt lat="44.428763475679304" lon="8.758353712398621"><ele>7.0</ele><time>2026-04-06T10:37:55Z</time></trkpt><trkpt lat="44.42879819239804" lon="8.758450988440929"><ele>9.333333333333334</ele><time>2026-04-06T10:37:56Z</time></trkpt><trkpt lat="44.428821445052726" lon="8.758556422774504"><ele>11.666666666666668</ele><time>2026-04-06T10:37:57Z</time></trkpt><trkpt lat="44.42884638797088" lon="8.758676135093854"><ele>14.0</ele><time>2026-04-06T10:37:58Z</time></trkpt><trkpt lat="44.42886402887124" lon="8.758793822895427"><ele>16.333333333333332</ele><time>2026-04-06T10:37:59Z</time></trkpt><trkpt lat="44.42887291526556" lon="8.758910763568554"><ele>18.666666666666668</ele><time>2026-04-06T10:38:00Z</time></trkpt><trkpt lat="44.42886736476111" lon="8.75901622174092"><ele>21.0</ele><time>2026-04-06T10:38:01Z</time></trkpt><trkpt lat="44.42885643950702" lon="8.759126678617156"><ele>21.0</ele><time>2026-04-06T10:38:02Z</time></trkpt><trkpt lat="44.42884229511032" lon="8.759222458198028"><ele>21.0</ele><time>2026-04-06T10:38:03Z</time></trkpt><trkpt lat="44.42882575682325" lon="8.759372927860014"><ele>21.0</ele><time>2026-04-06T10:38:05Z</time></trkpt><trkpt lat="44.428835142381196" lon="8.75946563244235"><ele>21.0</ele><time>2026-04-06T10:38:06Z</time></trkpt><trkpt lat="44.42883385616365" lon="8.759562749071796"><ele>21.0</ele><time>2026-04-06T10:38:07Z</time></trkpt><trkpt lat="44.42879080563839" lon="8.75963140523129"><ele>7.0</ele><time>2026-04-06T10:38:09Z</time></trkpt></trkseg></trk></gpx>